<?xml version='1.0' encoding='UTF-8'?><gpx version="1.1" creator="JPX - https://github.com/jenetics/jpx" xmlns="http://www.topografix.com/GPX/1/1"><trk><trkseg><trkpt lat="43.0397971" lon="11.8120363"><ele>533.0</ele><time>2026-04-04T13:04:33.472Z</time></trkpt><trkpt lat="43.039782" lon="11.8121769"><ele>533.0</ele><time>2026-04-04T13:04:35.51Z</time></trkpt><trkpt lat="43.0397967" lon="11.8123291"><ele>533.0</ele><time>2026-04-04T13:04:37.506Z</time></trkpt><trkpt lat="43.0398107" lon="11.8124155"><ele>533.0</ele><time>2026-04-04T13:04:38.501Z</time></trkpt><trkpt lat="43.0398307" lon="11.8125033"><ele>533.0</ele><time>2026-04-04T13:04:39.499Z</time></trkpt><trkpt lat="43.0398838" lon="11.8126491"><ele>533.1666666666666</ele><time>2026-04-04T13:04:41.502Z</time></trkpt><trkpt lat="43.039938" lon="11.8127793"><ele>533.3333333333333</ele><time>2026-04-04T13:04:43.5Z</time></trkpt><trkpt lat="43.0399758" lon="11.8129294"><ele>533.5</ele><time>2026-04-04T13:04:45.496Z</time></trkpt><trkpt lat="43.0399795" lon="11.8130186"><ele>533.6666666666666</ele><time>2026-04-04T13:04:46.508Z</time></trkpt><trkpt lat="43.0399638" lon="11.8131041"><ele>533.8333333333334</ele><time>2026-04-04T13:04:47.506Z</time></trkpt><trkpt lat="43.0399183" lon="11.8131693"><ele>534.0</ele><time>2026-04-04T13:04:48.479Z</time></trkpt><trkpt lat="43.0398566" lon="11.8132025"><ele>534.0</ele><time>2026-04-04T13:04:49.519Z</time></trkpt><trkpt lat="43.0397844" lon="11.8131874"><ele>534.0</ele><time>2026-04-04T13:04:50.521Z</time></trkpt><trkpt lat="43.0397073" lon="11.8131215"><ele>534.0</ele><time>2026-04-04T13:04:51.506Z</time></trkpt><trkpt lat="43.0396457" lon="11.8130404"><ele>534.0</ele><time>2026-04-04T13:04:52.505Z</time></trkpt><trkpt lat="43.039581" lon="11.8129445"><ele>534.0</ele><time>2026-04-04T13:04:53.507Z</time></trkpt><trkpt lat="43.0395164" lon="11.8128481"><ele>534.0</ele><time>2026-04-04T13:04:54.49Z</time></trkpt><trkpt lat="43.039452" lon="11.8127425"><ele>533.8</ele><time>2026-04-04T13:04:55.496Z</time></trkpt><trkpt lat="43.0393883" lon="11.8126359"><ele>533.5999999999999</ele><time>2026-04-04T13:04:56.495Z</time></trkpt><trkpt lat="43.0393314" lon="11.8125404"><ele>533.4</ele><time>2026-04-04T13:04:57.502Z</time></trkpt><trkpt lat="43.0392806" lon="11.8124398"><ele>533.1999999999999</ele><time>2026-04-04T13:04:58.511Z</time></trkpt><trkpt lat="43.0392367" lon="11.8123243"><ele>533.0</ele><time>2026-04-04T13:04:59.505Z</time></trkpt><trkpt lat="43.0391983" lon="11.8122089"><ele>533.0</ele><time>2026-04-04T13:05:00.504Z</time></trkpt><trkpt lat="43.0391657" lon="11.8120804"><ele>533.0</ele><time>2026-04-04T13:05:01.509Z</time></trkpt><trkpt lat="43.0391628" lon="11.8119461"><ele>533.0</ele><time>2026-04-04T13:05:02.505Z</time></trkpt><trkpt lat="43.0391901" lon="11.8117969"><ele>533.0</ele><time>2026-04-04T13:05:03.49Z</time></trkpt><trkpt lat="43.039221" lon="11.8116456"><ele>533.0</ele><time>2026-04-04T13:05:04.503Z</time></trkpt><trkpt lat="43.0392619" lon="11.8114997"><ele>533.25</ele><time>2026-04-04T13:05:05.492Z</time></trkpt><trkpt lat="43.0393053" lon="11.811347"><ele>533.5</ele><time>2026-04-04T13:05:06.49Z</time></trkpt><trkpt lat="43.0393569" lon="11.8111969"><ele>533.75</ele><time>2026-04-04T13:05:07.483Z</time></trkpt><trkpt lat="43.0394204" lon="11.8110513"><ele>534.0</ele><time>2026-04-04T13:05:08.492Z</time></trkpt><trkpt lat="43.0394831" lon="11.8108907"><ele>535.75</ele><time>2026-04-04T13:05:09.511Z</time></trkpt><trkpt lat="43.0395254" lon="11.8107083"><ele>537.5</ele><time>2026-04-04T13:05:10.476Z</time></trkpt><trkpt lat="43.0395514" lon="11.8105141"><ele>539.25</ele><time>2026-04-04T13:05:11.479Z</time></trkpt><trkpt lat="43.0395693" lon="11.8103287"><ele>541.0</ele><time>2026-04-04T13:05:12.501Z</time></trkpt><trkpt lat="43.0395813" lon="11.8101493"><ele>541.0</ele><time>2026-04-04T13:05:13.505Z</time></trkpt><trkpt lat="43.0395969" lon="11.8099724"><ele>541.0</ele><time>2026-04-04T13:05:14.5Z</time></trkpt><trkpt lat="43.0396108" lon="11.8097907"><ele>541.0</ele><time>2026-04-04T13:05:15.486Z</time></trkpt><trkpt lat="43.0396275" lon="11.8096023"><ele>541.0</ele><time>2026-04-04T13:05:16.5Z</time></trkpt><trkpt lat="43.0396584" lon="11.8094161"><ele>540.0</ele><time>2026-04-04T13:05:17.493Z</time></trkpt><trkpt lat="43.03971" lon="11.8092169"><ele>539.0</ele><time>2026-04-04T13:05:18.507Z</time></trkpt><trkpt lat="43.0397777" lon="11.8090213"><ele>538.0</ele><time>2026-04-04T13:05:19.493Z</time></trkpt><trkpt lat="43.0398645" lon="11.8088294"><ele>538.0</ele><time>2026-04-04T13:05:20.502Z</time></trkpt><trkpt lat="43.0399625" lon="11.808633"><ele>538.0</ele><time>2026-04-04T13:05:21.513Z</time></trkpt><trkpt lat="43.0400499" lon="11.8084475"><ele>538.0</ele><time>2026-04-04T13:05:22.501Z</time></trkpt><trkpt lat="43.0401255" lon="11.8082835"><ele>539.6</ele><time>2026-04-04T13:05:23.482Z</time></trkpt><trkpt lat="43.0401802" lon="11.8081296"><ele>541.1999999999999</ele><time>2026-04-04T13:05:24.5Z</time></trkpt><trkpt lat="43.0402205" lon="11.8079858"><ele>542.8</ele><time>2026-04-04T13:05:25.503Z</time></trkpt><trkpt lat="43.0402547" lon="11.8078499"><ele>544.4</ele><time>2026-04-04T13:05:26.505Z</time></trkpt><trkpt lat="43.0402779" lon="11.8077132"><ele>546.0</ele><time>2026-04-04T13:05:27.504Z</time></trkpt><trkpt lat="43.040303" lon="11.8075745"><ele>547.5</ele><time>2026-04-04T13:05:28.522Z</time></trkpt><trkpt lat="43.0403329" lon="11.8074284"><ele>549.0</ele><time>2026-04-04T13:05:29.498Z</time></trkpt><trkpt lat="43.0403628" lon="11.8072762"><ele>550.5</ele><time>2026-04-04T13:05:30.503Z</time></trkpt><trkpt lat="43.0403905" lon="11.8071092"><ele>552.0</ele><time>2026-04-04T13:05:31.505Z</time></trkpt><trkpt lat="43.0404117" lon="11.8069249"><ele>553.6666666666666</ele><time>2026-04-04T13:05:32.503Z</time></trkpt><trkpt lat="43.0404353" lon="11.8067341"><ele>555.3333333333333</ele><time>2026-04-04T13:05:33.51Z</time></trkpt><trkpt lat="43.0404621" lon="11.8065274"><ele>557.0</ele><time>2026-04-04T13:05:34.505Z</time></trkpt><trkpt lat="43.0404983" lon="11.8063097"><ele>557.0</ele><time>2026-04-04T13:05:35.505Z</time></trkpt><trkpt lat="43.0405475" lon="11.8060898"><ele>557.0</ele><time>2026-04-04T13:05:36.501Z</time></trkpt><trkpt lat="43.0406055" lon="11.8058727"><ele>557.0</ele><time>2026-04-04T13:05:37.508Z</time></trkpt><trkpt lat="43.0406671" lon="11.8056735"><ele>557.5</ele><time>2026-04-04T13:05:38.511Z</time></trkpt><trkpt lat="43.0407201" lon="11.8054878"><ele>558.0</ele><time>2026-04-04T13:05:39.493Z</time></trkpt><trkpt lat="43.0407693" lon="11.8053078"><ele>558.5</ele><time>2026-04-04T13:05:40.493Z</time></trkpt><trkpt lat="43.0408233" lon="11.8051225"><ele>559.0</ele><time>2026-04-04T13:05:41.498Z</time></trkpt><trkpt lat="43.0408818" lon="11.8049293"><ele>559.3333333333334</ele><time>2026-04-04T13:05:42.508Z</time></trkpt><trkpt lat="43.0409442" lon="11.804728"><ele>559.6666666666666</ele><time>2026-04-04T13:05:43.51Z</time></trkpt><trkpt lat="43.0410111" lon="11.8045234"><ele>560.0</ele><time>2026-04-04T13:05:44.497Z</time></trkpt><trkpt lat="43.0410944" lon="11.8043295"><ele>560.0</ele><time>2026-04-04T13:05:45.502Z</time></trkpt><trkpt lat="43.0411851" lon="11.804156"><ele>560.0</ele><time>2026-04-04T13:05:46.494Z</time></trkpt><trkpt lat="43.0412662" lon="11.8039788"><ele>560.0</ele><time>2026-04-04T13:05:47.495Z</time></trkpt><trkpt lat="43.0413076" lon="11.8037865"><ele>560.0</ele><time>2026-04-04T13:05:48.505Z</time></trkpt><trkpt lat="43.0413165" lon="11.8035807"><ele>560.0</ele><time>2026-04-04T13:05:49.493Z</time></trkpt><trkpt lat="43.0412838" lon="11.8033624"><ele>560.0</ele><time>2026-04-04T13:05:50.502Z</time></trkpt><trkpt lat="43.0412169" lon="11.803152"><ele>560.0</ele><time>2026-04-04T13:05:51.486Z</time></trkpt><trkpt lat="43.0411346" lon="11.8029402"><ele>560.0</ele><time>2026-04-04T13:05:52.506Z</time></trkpt><trkpt lat="43.0410518" lon="11.8027299"><ele>560.0</ele><time>2026-04-04T13:05:53.492Z</time></trkpt><trkpt lat="43.0409722" lon="11.802517"><ele>561.6666666666666</ele><time>2026-04-04T13:05:54.497Z</time></trkpt><trkpt lat="43.0408966" lon="11.8023142"><ele>563.3333333333334</ele><time>2026-04-04T13:05:55.492Z</time></trkpt><trkpt lat="43.040823" lon="11.8021183"><ele>565.0</ele><time>2026-04-04T13:05:56.509Z</time></trkpt><trkpt lat="43.0407547" lon="11.8019275"><ele>562.6666666666667</ele><time>2026-04-04T13:05:57.496Z</time></trkpt><trkpt lat="43.0406831" lon="11.801732"><ele>560.3333333333334</ele><time>2026-04-04T13:05:58.51Z</time></trkpt><trkpt lat="43.0406116" lon="11.8015348"><ele>558.0</ele><time>2026-04-04T13:05:59.503Z</time></trkpt><trkpt lat="43.0405354" lon="11.8013346"><ele>558.0</ele><time>2026-04-04T13:06:00.497Z</time></trkpt><trkpt lat="43.0404567" lon="11.8011278"><ele>558.0</ele><time>2026-04-04T13:06:01.489Z</time></trkpt><trkpt lat="43.0403815" lon="11.8009299"><ele>558.0</ele><time>2026-04-04T13:06:02.49Z</time></trkpt><trkpt lat="43.0403026" lon="11.8007467"><ele>555.6666666666666</ele><time>2026-04-04T13:06:03.51Z</time></trkpt><trkpt lat="43.0402131" lon="11.8005787"><ele>553.3333333333333</ele><time>2026-04-04T13:06:04.489Z</time></trkpt><trkpt lat="43.0401142" lon="11.8004239"><ele>551.0</ele><time>2026-04-04T13:06:05.504Z</time></trkpt><trkpt lat="43.0400129" lon="11.800271"><ele>553.3333333333333</ele><time>2026-04-04T13:06:06.507Z</time></trkpt><trkpt lat="43.0399073" lon="11.8001173"><ele>555.6666666666666</ele><time>2026-04-04T13:06:07.508Z</time></trkpt><trkpt lat="43.0397951" lon="11.7999651"><ele>558.0</ele><time>2026-04-04T13:06:08.512Z</time></trkpt><trkpt lat="43.0396781" lon="11.7998147"><ele>558.0</ele><time>2026-04-04T13:06:09.497Z</time></trkpt><trkpt lat="43.0395658" lon="11.7996512"><ele>558.0</ele><time>2026-04-04T13:06:10.493Z</time></trkpt><trkpt lat="43.0394744" lon="11.7994799"><ele>558.0</ele><time>2026-04-04T13:06:11.505Z</time></trkpt><trkpt lat="43.0393465" lon="11.7991234"><ele>557.3333333333334</ele><time>2026-04-04T13:06:13.509Z</time></trkpt><trkpt lat="43.0392785" lon="11.7989506"><ele>556.6666666666667</ele><time>2026-04-04T13:06:14.506Z</time></trkpt><trkpt lat="43.0392092" lon="11.7987702"><ele>556.0</ele><time>2026-04-04T13:06:15.49Z</time></trkpt><trkpt lat="43.0391322" lon="11.7985796"><ele>554.3333333333334</ele><time>2026-04-04T13:06:16.498Z</time></trkpt><trkpt lat="43.0390515" lon="11.7983818"><ele>552.6666666666666</ele><time>2026-04-04T13:06:17.498Z</time></trkpt><trkpt lat="43.0389795" lon="11.7981895"><ele>551.0</ele><time>2026-04-04T13:06:18.49Z</time></trkpt><trkpt lat="43.0389074" lon="11.7980292"><ele>551.0</ele><time>2026-04-04T13:06:19.505Z</time></trkpt><trkpt lat="43.0388105" lon="11.7978937"><ele>551.0</ele><time>2026-04-04T13:06:20.502Z</time></trkpt><trkpt lat="43.0386925" lon="11.7978107"><ele>551.0</ele><time>2026-04-04T13:06:21.505Z</time></trkpt><trkpt lat="43.0385751" lon="11.7978003"><ele>551.0</ele><time>2026-04-04T13:06:22.484Z</time></trkpt><trkpt lat="43.0384475" lon="11.7978336"><ele>551.0</ele><time>2026-04-04T13:06:23.502Z</time></trkpt><trkpt lat="43.0383056" lon="11.7978997"><ele>551.0</ele><time>2026-04-04T13:06:24.509Z</time></trkpt><trkpt lat="43.0381631" lon="11.7979646"><ele>551.0</ele><time>2026-04-04T13:06:25.503Z</time></trkpt><trkpt lat="43.0380002" lon="11.7979993"><ele>550.3333333333333</ele><time>2026-04-04T13:06:26.518Z</time></trkpt><trkpt lat="43.0378251" lon="11.7980139"><ele>549.6666666666666</ele><time>2026-04-04T13:06:27.485Z</time></trkpt><trkpt lat="43.0376492" lon="11.7980108"><ele>549.0</ele><time>2026-04-04T13:06:28.501Z</time></trkpt><trkpt lat="43.0374745" lon="11.798029"><ele>546.3333333333334</ele><time>2026-04-04T13:06:29.514Z</time></trkpt><trkpt lat="43.0373011" lon="11.7980495"><ele>543.6666666666667</ele><time>2026-04-04T13:06:30.499Z</time></trkpt><trkpt lat="43.0371348" lon="11.7980564"><ele>541.0</ele><time>2026-04-04T13:06:31.538Z</time></trkpt><trkpt lat="43.0369693" lon="11.7980588"><ele>541.0</ele><time>2026-04-04T13:06:32.494Z</time></trkpt><trkpt lat="43.0368014" lon="11.7980643"><ele>541.0</ele><time>2026-04-04T13:06:33.501Z</time></trkpt><trkpt lat="43.0366337" lon="11.798073"><ele>541.0</ele><time>2026-04-04T13:06:34.506Z</time></trkpt><trkpt lat="43.0364579" lon="11.7980834"><ele>537.6666666666667</ele><time>2026-04-04T13:06:35.513Z</time></trkpt><trkpt lat="43.0362719" lon="11.7980906"><ele>534.3333333333334</ele><time>2026-04-04T13:06:36.5Z</time></trkpt><trkpt lat="43.0360922" lon="11.7980943"><ele>531.0</ele><time>2026-04-04T13:06:37.499Z</time></trkpt><trkpt lat="43.0359178" lon="11.7981042"><ele>528.6666666666666</ele><time>2026-04-04T13:06:38.51Z</time></trkpt><trkpt lat="43.0357458" lon="11.7981152"><ele>526.3333333333333</ele><time>2026-04-04T13:06:39.51Z</time></trkpt><trkpt lat="43.0355781" lon="11.7981258"><ele>524.0</ele><time>2026-04-04T13:06:40.496Z</time></trkpt><trkpt lat="43.0354083" lon="11.7981368"><ele>524.0</ele><time>2026-04-04T13:06:41.513Z</time></trkpt><trkpt lat="43.0352434" lon="11.798146"><ele>524.0</ele><time>2026-04-04T13:06:42.488Z</time></trkpt><trkpt lat="43.035085" lon="11.7981553"><ele>524.0</ele><time>2026-04-04T13:06:43.51Z</time></trkpt><trkpt lat="43.0349287" lon="11.7981611"><ele>521.5</ele><time>2026-04-04T13:06:44.5Z</time></trkpt><trkpt lat="43.0347828" lon="11.7981627"><ele>519.0</ele><time>2026-04-04T13:06:45.505Z</time></trkpt><trkpt lat="43.0346522" lon="11.7981699"><ele>516.5</ele><time>2026-04-04T13:06:46.505Z</time></trkpt><trkpt lat="43.0345333" lon="11.7981927"><ele>514.0</ele><time>2026-04-04T13:06:47.495Z</time></trkpt><trkpt lat="43.0344242" lon="11.7982524"><ele>514.0</ele><time>2026-04-04T13:06:48.505Z</time></trkpt><trkpt lat="43.0343316" lon="11.7983536"><ele>514.0</ele><time>2026-04-04T13:06:49.491Z</time></trkpt><trkpt lat="43.034257" lon="11.7984791"><ele>514.0</ele><time>2026-04-04T13:06:50.494Z</time></trkpt><trkpt lat="43.0341861" lon="11.7985988"><ele>514.0</ele><time>2026-04-04T13:06:51.49Z</time></trkpt><trkpt lat="43.0341119" lon="11.798687"><ele>514.0</ele><time>2026-04-04T13:06:52.493Z</time></trkpt><trkpt lat="43.0340318" lon="11.7987259"><ele>512.6666666666667</ele><time>2026-04-04T13:06:53.508Z</time></trkpt><trkpt lat="43.0339641" lon="11.7986893"><ele>511.33333333333337</ele><time>2026-04-04T13:06:54.513Z</time></trkpt><trkpt lat="43.0339159" lon="11.7986074"><ele>510.0</ele><time>2026-04-04T13:06:55.496Z</time></trkpt><trkpt lat="43.033918" lon="11.7984896"><ele>508.66666666666663</ele><time>2026-04-04T13:06:56.499Z</time></trkpt><trkpt lat="43.033955" lon="11.7983628"><ele>507.3333333333333</ele><time>2026-04-04T13:06:57.502Z</time></trkpt><trkpt lat="43.0340055" lon="11.7982334"><ele>506.0</ele><time>2026-04-04T13:06:58.511Z</time></trkpt><trkpt lat="43.0340583" lon="11.7980726"><ele>503.5</ele><time>2026-04-04T13:06:59.515Z</time></trkpt><trkpt lat="43.0340877" lon="11.7978828"><ele>501.0</ele><time>2026-04-04T13:07:00.504Z</time></trkpt><trkpt lat="43.0340904" lon="11.7976811"><ele>498.5</ele><time>2026-04-04T13:07:01.513Z</time></trkpt><trkpt lat="43.0340897" lon="11.7974917"><ele>496.0</ele><time>2026-04-04T13:07:02.492Z</time></trkpt><trkpt lat="43.0341066" lon="11.7973148"><ele>494.5</ele><time>2026-04-04T13:07:03.512Z</time></trkpt><trkpt lat="43.0341421" lon="11.7971543"><ele>493.0</ele><time>2026-04-04T13:07:04.507Z</time></trkpt><trkpt lat="43.0342037" lon="11.7969984"><ele>491.5</ele><time>2026-04-04T13:07:05.499Z</time></trkpt><trkpt lat="43.0342854" lon="11.7968823"><ele>490.0</ele><time>2026-04-04T13:07:06.514Z</time></trkpt><trkpt lat="43.0343847" lon="11.7967841"><ele>490.0</ele><time>2026-04-04T13:07:07.504Z</time></trkpt><trkpt lat="43.0344892" lon="11.7967026"><ele>490.0</ele><time>2026-04-04T13:07:08.504Z</time></trkpt><trkpt lat="43.034572" lon="11.7966103"><ele>490.0</ele><time>2026-04-04T13:07:09.515Z</time></trkpt><trkpt lat="43.0346389" lon="11.7965044"><ele>490.0</ele><time>2026-04-04T13:07:10.489Z</time></trkpt><trkpt lat="43.0346902" lon="11.7963915"><ele>490.0</ele><time>2026-04-04T13:07:11.497Z</time></trkpt><trkpt lat="43.0346911" lon="11.7962722"><ele>490.0</ele><time>2026-04-04T13:07:12.516Z</time></trkpt><trkpt lat="43.0346492" lon="11.7961496"><ele>490.0</ele><time>2026-04-04T13:07:13.517Z</time></trkpt><trkpt lat="43.0345738" lon="11.7960481"><ele>490.0</ele><time>2026-04-04T13:07:14.487Z</time></trkpt><trkpt lat="43.0344676" lon="11.7959953"><ele>490.0</ele><time>2026-04-04T13:07:15.478Z</time></trkpt><trkpt lat="43.0343631" lon="11.7959861"><ele>490.0</ele><time>2026-04-04T13:07:16.497Z</time></trkpt><trkpt lat="43.0342575" lon="11.7960295"><ele>490.0</ele><time>2026-04-04T13:07:17.5Z</time></trkpt><trkpt lat="43.0341422" lon="11.7960901"><ele>490.0</ele><time>2026-04-04T13:07:18.489Z</time></trkpt><trkpt lat="43.0340239" lon="11.7961512"><ele>490.0</ele><time>2026-04-04T13:07:19.504Z</time></trkpt><trkpt lat="43.0338712" lon="11.7961501"><ele>490.0</ele><time>2026-04-04T13:07:20.484Z</time></trkpt><trkpt lat="43.0337226" lon="11.7961107"><ele>487.0</ele><time>2026-04-04T13:07:21.485Z</time></trkpt><trkpt lat="43.0335996" lon="11.7961177"><ele>484.0</ele><time>2026-04-04T13:07:22.5Z</time></trkpt><trkpt lat="43.0334879" lon="11.7962031"><ele>481.0</ele><time>2026-04-04T13:07:23.502Z</time></trkpt><trkpt lat="43.0334029" lon="11.7963309"><ele>478.0</ele><time>2026-04-04T13:07:24.472Z</time></trkpt><trkpt lat="43.0333213" lon="11.7964808"><ele>475.0</ele><time>2026-04-04T13:07:25.491Z</time></trkpt><trkpt lat="43.0332709" lon="11.7966683"><ele>472.0</ele><time>2026-04-04T13:07:26.502Z</time></trkpt><trkpt lat="43.0332405" lon="11.7968632"><ele>469.0</ele><time>2026-04-04T13:07:27.497Z</time></trkpt><trkpt lat="43.0332179" lon="11.7970509"><ele>466.0</ele><time>2026-04-04T13:07:28.504Z</time></trkpt><trkpt lat="43.0331558" lon="11.7972045"><ele>466.0</ele><time>2026-04-04T13:07:29.5Z</time></trkpt><trkpt lat="43.033063" lon="11.7973384"><ele>466.0</ele><time>2026-04-04T13:07:30.504Z</time></trkpt><trkpt lat="43.0329438" lon="11.7974566"><ele>466.0</ele><time>2026-04-04T13:07:31.503Z</time></trkpt><trkpt lat="43.0328133" lon="11.7975833"><ele>466.0</ele><time>2026-04-04T13:07:32.497Z</time></trkpt><trkpt lat="43.032685" lon="11.797712"><ele>467.5</ele><time>2026-04-04T13:07:33.5Z</time></trkpt><trkpt lat="43.0325611" lon="11.7978376"><ele>469.0</ele><time>2026-04-04T13:07:34.501Z</time></trkpt><trkpt lat="43.0324415" lon="11.7979531"><ele>470.5</ele><time>2026-04-04T13:07:35.496Z</time></trkpt><trkpt lat="43.0323291" lon="11.7980717"><ele>472.0</ele><time>2026-04-04T13:07:36.494Z</time></trkpt><trkpt lat="43.0322184" lon="11.7981924"><ele>468.75</ele><time>2026-04-04T13:07:37.502Z</time></trkpt><trkpt lat="43.0321097" lon="11.7982876"><ele>465.5</ele><time>2026-04-04T13:07:38.5Z</time></trkpt><trkpt lat="43.0319909" lon="11.7983452"><ele>462.25</ele><time>2026-04-04T13:07:39.503Z</time></trkpt><trkpt lat="43.0318608" lon="11.7983465"><ele>459.0</ele><time>2026-04-04T13:07:40.493Z</time></trkpt><trkpt lat="43.0317203" lon="11.7983102"><ele>458.33333333333337</ele><time>2026-04-04T13:07:41.5Z</time></trkpt><trkpt lat="43.0315828" lon="11.798247"><ele>457.6666666666667</ele><time>2026-04-04T13:07:42.493Z</time></trkpt><trkpt lat="43.0314355" lon="11.7981741"><ele>457.0</ele><time>2026-04-04T13:07:43.524Z</time></trkpt><trkpt lat="43.0312852" lon="11.7980879"><ele>457.0</ele><time>2026-04-04T13:07:44.512Z</time></trkpt><trkpt lat="43.0311276" lon="11.797994"><ele>457.0</ele><time>2026-04-04T13:07:45.506Z</time></trkpt><trkpt lat="43.0309632" lon="11.7978712"><ele>457.0</ele><time>2026-04-04T13:07:46.496Z</time></trkpt><trkpt lat="43.0308028" lon="11.7977123"><ele>460.33333333333337</ele><time>2026-04-04T13:07:47.5Z</time></trkpt><trkpt lat="43.0306546" lon="11.7975508"><ele>463.66666666666663</ele><time>2026-04-04T13:07:48.501Z</time></trkpt><trkpt lat="43.0305334" lon="11.7973861"><ele>467.0</ele><time>2026-04-04T13:07:49.495Z</time></trkpt><trkpt lat="43.0304137" lon="11.7972267"><ele>467.0</ele><time>2026-04-04T13:07:50.498Z</time></trkpt><trkpt lat="43.0302916" lon="11.7970587"><ele>467.0</ele><time>2026-04-04T13:07:51.508Z</time></trkpt><trkpt lat="43.0301684" lon="11.7968771"><ele>467.0</ele><time>2026-04-04T13:07:52.501Z</time></trkpt><trkpt lat="43.030042" lon="11.7966925"><ele>468.0</ele><time>2026-04-04T13:07:53.517Z</time></trkpt><trkpt lat="43.029921" lon="11.7964987"><ele>469.0</ele><time>2026-04-04T13:07:54.504Z</time></trkpt><trkpt lat="43.0298096" lon="11.79629"><ele>470.0</ele><time>2026-04-04T13:07:55.486Z</time></trkpt><trkpt lat="43.0297242" lon="11.7960648"><ele>470.66666666666663</ele><time>2026-04-04T13:07:56.498Z</time></trkpt><trkpt lat="43.0296404" lon="11.7958445"><ele>471.33333333333337</ele><time>2026-04-04T13:07:57.508Z</time></trkpt><trkpt lat="43.0295301" lon="11.7956419"><ele>472.0</ele><time>2026-04-04T13:07:58.505Z</time></trkpt><trkpt lat="43.0293967" lon="11.7954789"><ele>472.0</ele><time>2026-04-04T13:07:59.509Z</time></trkpt><trkpt lat="43.0292469" lon="11.7953228"><ele>472.0</ele><time>2026-04-04T13:08:00.504Z</time></trkpt><trkpt lat="43.0291061" lon="11.7951799"><ele>472.0</ele><time>2026-04-04T13:08:01.548Z</time></trkpt><trkpt lat="43.0289787" lon="11.7950572"><ele>474.25</ele><time>2026-04-04T13:08:02.498Z</time></trkpt><trkpt lat="43.0288513" lon="11.794972"><ele>476.5</ele><time>2026-04-04T13:08:03.496Z</time></trkpt><trkpt lat="43.0287176" lon="11.7949356"><ele>478.75</ele><time>2026-04-04T13:08:04.502Z</time></trkpt><trkpt lat="43.0285729" lon="11.7949418"><ele>481.0</ele><time>2026-04-04T13:08:05.501Z</time></trkpt><trkpt lat="43.0284287" lon="11.7949691"><ele>481.0</ele><time>2026-04-04T13:08:06.501Z</time></trkpt><trkpt lat="43.0282808" lon="11.7949818"><ele>481.0</ele><time>2026-04-04T13:08:07.504Z</time></trkpt><trkpt lat="43.0281328" lon="11.7949732"><ele>481.0</ele><time>2026-04-04T13:08:08.503Z</time></trkpt><trkpt lat="43.0279841" lon="11.7949365"><ele>481.0</ele><time>2026-04-04T13:08:09.514Z</time></trkpt><trkpt lat="43.0278588" lon="11.7948552"><ele>481.0</ele><time>2026-04-04T13:08:10.51Z</time></trkpt><trkpt lat="43.0277483" lon="11.7947414"><ele>481.0</ele><time>2026-04-04T13:08:11.533Z</time></trkpt><trkpt lat="43.0276777" lon="11.794584"><ele>481.0</ele><time>2026-04-04T13:08:12.498Z</time></trkpt><trkpt lat="43.0276604" lon="11.7944084"><ele>481.0</ele><time>2026-04-04T13:08:13.472Z</time></trkpt><trkpt lat="43.027646" lon="11.7942427"><ele>483.0</ele><time>2026-04-04T13:08:14.484Z</time></trkpt><trkpt lat="43.0276327" lon="11.794068"><ele>485.0</ele><time>2026-04-04T13:08:15.507Z</time></trkpt><trkpt lat="43.0276177" lon="11.7938808"><ele>487.0</ele><time>2026-04-04T13:08:16.499Z</time></trkpt><trkpt lat="43.0275956" lon="11.7936846"><ele>489.0</ele><time>2026-04-04T13:08:17.541Z</time></trkpt><trkpt lat="43.027574" lon="11.793484"><ele>490.33333333333337</ele><time>2026-04-04T13:08:18.495Z</time></trkpt><trkpt lat="43.0275463" lon="11.7932676"><ele>491.6666666666667</ele><time>2026-04-04T13:08:19.505Z</time></trkpt><trkpt lat="43.027518" lon="11.7930358"><ele>493.0</ele><time>2026-04-04T13:08:20.48Z</time></trkpt><trkpt lat="43.0274843" lon="11.7927883"><ele>497.33333333333337</ele><time>2026-04-04T13:08:21.494Z</time></trkpt><trkpt lat="43.0274283" lon="11.7925294"><ele>501.66666666666663</ele><time>2026-04-04T13:08:22.495Z</time></trkpt><trkpt lat="43.0273518" lon="11.7922621"><ele>506.0</ele><time>2026-04-04T13:08:23.493Z</time></trkpt><trkpt lat="43.0272843" lon="11.7919726"><ele>505.5</ele><time>2026-04-04T13:08:24.499Z</time></trkpt><trkpt lat="43.0272426" lon="11.791646"><ele>505.0</ele><time>2026-04-04T13:08:25.5Z</time></trkpt><trkpt lat="43.0272049" lon="11.7913026"><ele>505.0</ele><time>2026-04-04T13:08:26.495Z</time></trkpt><trkpt lat="43.0271468" lon="11.790983"><ele>505.0</ele><time>2026-04-04T13:08:27.509Z</time></trkpt><trkpt lat="43.0270733" lon="11.7906986"><ele>505.0</ele><time>2026-04-04T13:08:28.513Z</time></trkpt><trkpt lat="43.0269939" lon="11.790429"><ele>505.0</ele><time>2026-04-04T13:08:29.497Z</time></trkpt><trkpt lat="43.0269021" lon="11.7901673"><ele>505.0</ele><time>2026-04-04T13:08:30.5Z</time></trkpt><trkpt lat="43.0267984" lon="11.7899075"><ele>507.0</ele><time>2026-04-04T13:08:31.514Z</time></trkpt><trkpt lat="43.0266967" lon="11.7896433"><ele>509.0</ele><time>2026-04-04T13:08:32.496Z</time></trkpt><trkpt lat="43.0265959" lon="11.7893742"><ele>511.0</ele><time>2026-04-04T13:08:33.508Z</time></trkpt><trkpt lat="43.0265238" lon="11.789128"><ele>514.6666666666667</ele><time>2026-04-04T13:08:34.5Z</time></trkpt><trkpt lat="43.0264691" lon="11.7888835"><ele>518.3333333333334</ele><time>2026-04-04T13:08:35.504Z</time></trkpt><trkpt lat="43.0264271" lon="11.7886422"><ele>522.0</ele><time>2026-04-04T13:08:36.498Z</time></trkpt><trkpt lat="43.0264104" lon="11.788392"><ele>522.0</ele><time>2026-04-04T13:08:37.503Z</time></trkpt><trkpt lat="43.0263949" lon="11.7881487"><ele>522.0</ele><time>2026-04-04T13:08:38.499Z</time></trkpt><trkpt lat="43.0263667" lon="11.7878795"><ele>522.0</ele><time>2026-04-04T13:08:39.493Z</time></trkpt><trkpt lat="43.0263384" lon="11.78759"><ele>523.5</ele><time>2026-04-04T13:08:40.491Z</time></trkpt><trkpt lat="43.0263355" lon="11.7872921"><ele>525.0</ele><time>2026-04-04T13:08:41.497Z</time></trkpt><trkpt lat="43.0263392" lon="11.7869679"><ele>524.5</ele><time>2026-04-04T13:08:42.509Z</time></trkpt><trkpt lat="43.0263352" lon="11.7866478"><ele>524.0</ele><time>2026-04-04T13:08:43.504Z</time></trkpt><trkpt lat="43.0263226" lon="11.7863463"><ele>524.0</ele><time>2026-04-04T13:08:44.486Z</time></trkpt><trkpt lat="43.0263269" lon="11.7860598"><ele>524.0</ele><time>2026-04-04T13:08:45.497Z</time></trkpt><trkpt lat="43.0263397" lon="11.7857926"><ele>524.0</ele><time>2026-04-04T13:08:46.495Z</time></trkpt><trkpt lat="43.0263706" lon="11.7855259"><ele>525.3333333333333</ele><time>2026-04-04T13:08:47.502Z</time></trkpt><trkpt lat="43.0263996" lon="11.7852559"><ele>526.6666666666666</ele><time>2026-04-04T13:08:48.496Z</time></trkpt><trkpt lat="43.0264262" lon="11.7850055"><ele>528.0</ele><time>2026-04-04T13:08:49.508Z</time></trkpt><trkpt lat="43.0264415" lon="11.7847619"><ele>528.6666666666666</ele><time>2026-04-04T13:08:50.5Z</time></trkpt><trkpt lat="43.0264449" lon="11.7845302"><ele>529.3333333333333</ele><time>2026-04-04T13:08:51.498Z</time></trkpt><trkpt lat="43.0264228" lon="11.7843109"><ele>530.0</ele><time>2026-04-04T13:08:52.501Z</time></trkpt><trkpt lat="43.0263713" lon="11.7840975"><ele>531.3333333333333</ele><time>2026-04-04T13:08:53.493Z</time></trkpt><trkpt lat="43.0263029" lon="11.7838761"><ele>532.6666666666666</ele><time>2026-04-04T13:08:54.502Z</time></trkpt><trkpt lat="43.0262285" lon="11.7836563"><ele>534.0</ele><time>2026-04-04T13:08:55.505Z</time></trkpt><trkpt lat="43.026151" lon="11.7834415"><ele>535.0</ele><time>2026-04-04T13:08:56.501Z</time></trkpt><trkpt lat="43.0260723" lon="11.7832212"><ele>536.0</ele><time>2026-04-04T13:08:57.492Z</time></trkpt><trkpt lat="43.0259912" lon="11.7829972"><ele>537.0</ele><time>2026-04-04T13:08:58.49Z</time></trkpt><trkpt lat="43.0259065" lon="11.7827759"><ele>539.0</ele><time>2026-04-04T13:08:59.488Z</time></trkpt><trkpt lat="43.0258205" lon="11.7825776"><ele>541.0</ele><time>2026-04-04T13:09:00.493Z</time></trkpt><trkpt lat="43.0257451" lon="11.7824008"><ele>543.0</ele><time>2026-04-04T13:09:01.486Z</time></trkpt><trkpt lat="43.0256874" lon="11.7822362"><ele>545.25</ele><time>2026-04-04T13:09:02.499Z</time></trkpt><trkpt lat="43.0256276" lon="11.7820665"><ele>547.5</ele><time>2026-04-04T13:09:03.491Z</time></trkpt><trkpt lat="43.0255717" lon="11.7819028"><ele>549.75</ele><time>2026-04-04T13:09:04.491Z</time></trkpt><trkpt lat="43.0255196" lon="11.781738"><ele>552.0</ele><time>2026-04-04T13:09:05.529Z</time></trkpt><trkpt lat="43.0254837" lon="11.7815784"><ele>552.0</ele><time>2026-04-04T13:09:06.501Z</time></trkpt><trkpt lat="43.0254545" lon="11.7814274"><ele>552.0</ele><time>2026-04-04T13:09:07.504Z</time></trkpt><trkpt lat="43.0254301" lon="11.7812753"><ele>552.0</ele><time>2026-04-04T13:09:08.51Z</time></trkpt><trkpt lat="43.0254024" lon="11.7811235"><ele>552.0</ele><time>2026-04-04T13:09:09.483Z</time></trkpt><trkpt lat="43.025371" lon="11.7809629"><ele>552.5</ele><time>2026-04-04T13:09:10.478Z</time></trkpt><trkpt lat="43.0253406" lon="11.7807995"><ele>553.0</ele><time>2026-04-04T13:09:11.473Z</time></trkpt><trkpt lat="43.0253024" lon="11.780628"><ele>553.5</ele><time>2026-04-04T13:09:12.491Z</time></trkpt><trkpt lat="43.0252619" lon="11.7804423"><ele>554.0</ele><time>2026-04-04T13:09:13.498Z</time></trkpt><trkpt lat="43.0252208" lon="11.7802504"><ele>554.75</ele><time>2026-04-04T13:09:14.477Z</time></trkpt><trkpt lat="43.0251843" lon="11.780059"><ele>555.5</ele><time>2026-04-04T13:09:15.49Z</time></trkpt><trkpt lat="43.0251517" lon="11.7798743"><ele>556.25</ele><time>2026-04-04T13:09:16.494Z</time></trkpt><trkpt lat="43.0251233" lon="11.779714"><ele>557.0</ele><time>2026-04-04T13:09:17.477Z</time></trkpt><trkpt lat="43.0250997" lon="11.7795774"><ele>557.0</ele><time>2026-04-04T13:09:18.485Z</time></trkpt><trkpt lat="43.0250817" lon="11.7794507"><ele>557.0</ele><time>2026-04-04T13:09:19.494Z</time></trkpt><trkpt lat="43.0250705" lon="11.779329"><ele>557.0</ele><time>2026-04-04T13:09:20.48Z</time></trkpt><trkpt lat="43.0250749" lon="11.7792117"><ele>557.0</ele><time>2026-04-04T13:09:21.521Z</time></trkpt><trkpt lat="43.0250853" lon="11.7790958"><ele>557.0</ele><time>2026-04-04T13:09:22.502Z</time></trkpt><trkpt lat="43.0250973" lon="11.7789711"><ele>557.0</ele><time>2026-04-04T13:09:23.527Z</time></trkpt><trkpt lat="43.0251126" lon="11.7788374"><ele>556.8000000000001</ele><time>2026-04-04T13:09:24.509Z</time></trkpt><trkpt lat="43.025125" lon="11.7786901"><ele>556.6</ele><time>2026-04-04T13:09:25.514Z</time></trkpt><trkpt lat="43.0251479" lon="11.778538"><ele>556.4000000000001</ele><time>2026-04-04T13:09:26.502Z</time></trkpt><trkpt lat="43.0251684" lon="11.7783848"><ele>556.2</ele><time>2026-04-04T13:09:27.492Z</time></trkpt><trkpt lat="43.025189" lon="11.7782442"><ele>556.0</ele><time>2026-04-04T13:09:28.51Z</time></trkpt><trkpt lat="43.0252146" lon="11.7781156"><ele>555.0</ele><time>2026-04-04T13:09:29.508Z</time></trkpt><trkpt lat="43.0252454" lon="11.7780001"><ele>554.0</ele><time>2026-04-04T13:09:30.511Z</time></trkpt><trkpt lat="43.0252845" lon="11.7778915"><ele>553.0</ele><time>2026-04-04T13:09:31.488Z</time></trkpt><trkpt lat="43.0253495" lon="11.7778044"><ele>552.0</ele><time>2026-04-04T13:09:32.486Z</time></trkpt><trkpt lat="43.0254322" lon="11.77774"><ele>551.0</ele><time>2026-04-04T13:09:33.503Z</time></trkpt><trkpt lat="43.0255256" lon="11.7776782"><ele>550.5</ele><time>2026-04-04T13:09:34.493Z</time></trkpt><trkpt lat="43.0256222" lon="11.777607"><ele>550.0</ele><time>2026-04-04T13:09:35.502Z</time></trkpt><trkpt lat="43.0257156" lon="11.7775255"><ele>549.5</ele><time>2026-04-04T13:09:36.542Z</time></trkpt><trkpt lat="43.0258058" lon="11.7774268"><ele>549.0</ele><time>2026-04-04T13:09:37.511Z</time></trkpt><trkpt lat="43.0258829" lon="11.7773037"><ele>549.0</ele><time>2026-04-04T13:09:38.499Z</time></trkpt><trkpt lat="43.0259449" lon="11.7771818"><ele>549.0</ele><time>2026-04-04T13:09:39.507Z</time></trkpt><trkpt lat="43.0260106" lon="11.7770571"><ele>549.0</ele><time>2026-04-04T13:09:40.503Z</time></trkpt><trkpt lat="43.0260809" lon="11.7769488"><ele>549.0</ele><time>2026-04-04T13:09:41.506Z</time></trkpt><trkpt lat="43.0261719" lon="11.7768608"><ele>549.0</ele><time>2026-04-04T13:09:42.505Z</time></trkpt><trkpt lat="43.0262664" lon="11.7767972"><ele>547.0</ele><time>2026-04-04T13:09:43.5Z</time></trkpt><trkpt lat="43.0263664" lon="11.776749"><ele>545.0</ele><time>2026-04-04T13:09:44.497Z</time></trkpt><trkpt lat="43.02647" lon="11.7767177"><ele>543.0</ele><time>2026-04-04T13:09:45.509Z</time></trkpt><trkpt lat="43.0265837" lon="11.7766809"><ele>541.0</ele><time>2026-04-04T13:09:46.498Z</time></trkpt><trkpt lat="43.0267065" lon="11.7766307"><ele>541.0</ele><time>2026-04-04T13:09:47.505Z</time></trkpt><trkpt lat="43.0268287" lon="11.7765821"><ele>541.0</ele><time>2026-04-04T13:09:48.497Z</time></trkpt><trkpt lat="43.0269537" lon="11.7765377"><ele>541.0</ele><time>2026-04-04T13:09:49.5Z</time></trkpt><trkpt lat="43.0270746" lon="11.7764873"><ele>541.0</ele><time>2026-04-04T13:09:50.491Z</time></trkpt><trkpt lat="43.0271913" lon="11.776429"><ele>541.0</ele><time>2026-04-04T13:09:51.496Z</time></trkpt><trkpt lat="43.027301" lon="11.7763672"><ele>541.0</ele><time>2026-04-04T13:09:52.487Z</time></trkpt><trkpt lat="43.0274248" lon="11.7762855"><ele>541.0</ele><time>2026-04-04T13:09:53.517Z</time></trkpt><trkpt lat="43.0275356" lon="11.7761915"><ele>541.0</ele><time>2026-04-04T13:09:54.484Z</time></trkpt><trkpt lat="43.0276476" lon="11.7760915"><ele>537.0</ele><time>2026-04-04T13:09:55.521Z</time></trkpt><trkpt lat="43.0277446" lon="11.7759905"><ele>533.0</ele><time>2026-04-04T13:09:56.504Z</time></trkpt><trkpt lat="43.0278271" lon="11.7758721"><ele>529.0</ele><time>2026-04-04T13:09:57.502Z</time></trkpt><trkpt lat="43.0279024" lon="11.77574"><ele>525.0</ele><time>2026-04-04T13:09:58.486Z</time></trkpt><trkpt lat="43.0279791" lon="11.7756034"><ele>525.0</ele><time>2026-04-04T13:09:59.507Z</time></trkpt><trkpt lat="43.0280487" lon="11.7754476"><ele>525.0</ele><time>2026-04-04T13:10:00.507Z</time></trkpt><trkpt lat="43.0281152" lon="11.7752904"><ele>525.0</ele><time>2026-04-04T13:10:01.514Z</time></trkpt><trkpt lat="43.0281742" lon="11.7751419"><ele>525.0</ele><time>2026-04-04T13:10:02.507Z</time></trkpt><trkpt lat="43.0282263" lon="11.7749904"><ele>523.75</ele><time>2026-04-04T13:10:03.509Z</time></trkpt><trkpt lat="43.0282783" lon="11.7748516"><ele>522.5</ele><time>2026-04-04T13:10:04.486Z</time></trkpt><trkpt lat="43.0283298" lon="11.7747157"><ele>521.25</ele><time>2026-04-04T13:10:05.499Z</time></trkpt><trkpt lat="43.0283992" lon="11.7745884"><ele>520.0</ele><time>2026-04-04T13:10:06.52Z</time></trkpt><trkpt lat="43.0285163" lon="11.7744837"><ele>520.0</ele><time>2026-04-04T13:10:07.515Z</time></trkpt><trkpt lat="43.028683" lon="11.7744135"><ele>520.0</ele><time>2026-04-04T13:10:08.496Z</time></trkpt><trkpt lat="43.0288433" lon="11.774345"><ele>520.0</ele><time>2026-04-04T13:10:09.497Z</time></trkpt><trkpt lat="43.0289954" lon="11.7742787"><ele>517.75</ele><time>2026-04-04T13:10:10.506Z</time></trkpt><trkpt lat="43.0291437" lon="11.774219"><ele>515.5</ele><time>2026-04-04T13:10:11.498Z</time></trkpt><trkpt lat="43.0292805" lon="11.7741438"><ele>513.25</ele><time>2026-04-04T13:10:12.498Z</time></trkpt><trkpt lat="43.0294092" lon="11.7740485"><ele>511.0</ele><time>2026-04-04T13:10:13.515Z</time></trkpt><trkpt lat="43.0295239" lon="11.7739262"><ele>511.0</ele><time>2026-04-04T13:10:14.497Z</time></trkpt><trkpt lat="43.029629" lon="11.7737925"><ele>511.0</ele><time>2026-04-04T13:10:15.513Z</time></trkpt><trkpt lat="43.0297278" lon="11.7736519"><ele>511.0</ele><time>2026-04-04T13:10:16.499Z</time></trkpt><trkpt lat="43.0298159" lon="11.7735061"><ele>511.0</ele><time>2026-04-04T13:10:17.488Z</time></trkpt><trkpt lat="43.0298948" lon="11.7733599"><ele>509.25</ele><time>2026-04-04T13:10:18.503Z</time></trkpt><trkpt lat="43.0299723" lon="11.7732235"><ele>507.5</ele><time>2026-04-04T13:10:19.5Z</time></trkpt><trkpt lat="43.0300511" lon="11.7730892"><ele>505.75</ele><time>2026-04-04T13:10:20.503Z</time></trkpt><trkpt lat="43.0301188" lon="11.7729566"><ele>504.0</ele><time>2026-04-04T13:10:21.517Z</time></trkpt><trkpt lat="43.0301608" lon="11.7728203"><ele>502.4</ele><time>2026-04-04T13:10:22.499Z</time></trkpt><trkpt lat="43.0301647" lon="11.7726813"><ele>500.79999999999995</ele><time>2026-04-04T13:10:23.492Z</time></trkpt><trkpt lat="43.030142" lon="11.772553"><ele>499.20000000000005</ele><time>2026-04-04T13:10:24.507Z</time></trkpt><trkpt lat="43.0301031" lon="11.7724263"><ele>497.6</ele><time>2026-04-04T13:10:25.487Z</time></trkpt><trkpt lat="43.0300479" lon="11.7723299"><ele>496.0</ele><time>2026-04-04T13:10:26.497Z</time></trkpt><trkpt lat="43.0299778" lon="11.7722426"><ele>495.8</ele><time>2026-04-04T13:10:27.492Z</time></trkpt><trkpt lat="43.0298967" lon="11.7721875"><ele>495.6</ele><time>2026-04-04T13:10:28.505Z</time></trkpt><trkpt lat="43.029808" lon="11.7721385"><ele>495.4</ele><time>2026-04-04T13:10:29.503Z</time></trkpt><trkpt lat="43.0297223" lon="11.7720923"><ele>495.2</ele><time>2026-04-04T13:10:30.482Z</time></trkpt><trkpt lat="43.0296408" lon="11.7720383"><ele>495.0</ele><time>2026-04-04T13:10:31.533Z</time></trkpt><trkpt lat="43.0295558" lon="11.7719653"><ele>495.0</ele><time>2026-04-04T13:10:32.512Z</time></trkpt><trkpt lat="43.0294848" lon="11.7718756"><ele>495.0</ele><time>2026-04-04T13:10:33.517Z</time></trkpt><trkpt lat="43.0294247" lon="11.7717653"><ele>495.0</ele><time>2026-04-04T13:10:34.512Z</time></trkpt><trkpt lat="43.0293927" lon="11.7716364"><ele>495.0</ele><time>2026-04-04T13:10:35.495Z</time></trkpt><trkpt lat="43.0293901" lon="11.7715028"><ele>495.0</ele><time>2026-04-04T13:10:36.51Z</time></trkpt><trkpt lat="43.0294077" lon="11.7713751"><ele>493.25</ele><time>2026-04-04T13:10:37.515Z</time></trkpt><trkpt lat="43.0294662" lon="11.7712504"><ele>491.5</ele><time>2026-04-04T13:10:38.51Z</time></trkpt><trkpt lat="43.0295562" lon="11.7711523"><ele>489.75</ele><time>2026-04-04T13:10:39.495Z</time></trkpt><trkpt lat="43.0296861" lon="11.7710831"><ele>488.0</ele><time>2026-04-04T13:10:40.517Z</time></trkpt><trkpt lat="43.0298251" lon="11.7710487"><ele>486.59999999999997</ele><time>2026-04-04T13:10:41.501Z</time></trkpt><trkpt lat="43.0299499" lon="11.7710227"><ele>485.19999999999993</ele><time>2026-04-04T13:10:42.5Z</time></trkpt><trkpt lat="43.0300507" lon="11.7710059"><ele>483.8</ele><time>2026-04-04T13:10:43.505Z</time></trkpt><trkpt lat="43.0301464" lon="11.7709868"><ele>482.4</ele><time>2026-04-04T13:10:44.502Z</time></trkpt><trkpt lat="43.0302392" lon="11.7709623"><ele>481.0</ele><time>2026-04-04T13:10:45.503Z</time></trkpt><trkpt lat="43.0303263" lon="11.7709273"><ele>481.00000000000006</ele><time>2026-04-04T13:10:46.511Z</time></trkpt><trkpt lat="43.0303932" lon="11.7708508"><ele>481.0</ele><time>2026-04-04T13:10:47.503Z</time></trkpt><trkpt lat="43.0304355" lon="11.7707598"><ele>481.0</ele><time>2026-04-04T13:10:48.517Z</time></trkpt><trkpt lat="43.0304571" lon="11.7706516"><ele>481.0</ele><time>2026-04-04T13:10:49.504Z</time></trkpt><trkpt lat="43.0304621" lon="11.7705422"><ele>481.00000000000006</ele><time>2026-04-04T13:10:50.498Z</time></trkpt><trkpt lat="43.0304458" lon="11.7704269"><ele>481.0</ele><time>2026-04-04T13:10:51.518Z</time></trkpt><trkpt lat="43.0304069" lon="11.7703273"><ele>481.0</ele><time>2026-04-04T13:10:52.528Z</time></trkpt><trkpt lat="43.0303566" lon="11.770255"><ele>481.0</ele><time>2026-04-04T13:10:53.509Z</time></trkpt><trkpt lat="43.0302381" lon="11.7701847"><ele>481.0</ele><time>2026-04-04T13:10:55.505Z</time></trkpt><trkpt lat="43.0301676" lon="11.7701907"><ele>481.0</ele><time>2026-04-04T13:10:56.502Z</time></trkpt><trkpt lat="43.0300845" lon="11.7702055"><ele>481.0</ele><time>2026-04-04T13:10:57.495Z</time></trkpt><trkpt lat="43.0299916" lon="11.7702229"><ele>481.0</ele><time>2026-04-04T13:10:58.505Z</time></trkpt><trkpt lat="43.0298992" lon="11.7702206"><ele>481.0</ele><time>2026-04-04T13:10:59.508Z</time></trkpt><trkpt lat="43.029811" lon="11.770209"><ele>481.0</ele><time>2026-04-04T13:11:00.508Z</time></trkpt><trkpt lat="43.0297239" lon="11.7701831"><ele>481.0</ele><time>2026-04-04T13:11:01.51Z</time></trkpt><trkpt lat="43.0296328" lon="11.7701284"><ele>481.0</ele><time>2026-04-04T13:11:02.498Z</time></trkpt><trkpt lat="43.0295502" lon="11.7700334"><ele>479.25</ele><time>2026-04-04T13:11:03.48Z</time></trkpt><trkpt lat="43.0294809" lon="11.7699111"><ele>477.5</ele><time>2026-04-04T13:11:04.494Z</time></trkpt><trkpt lat="43.0294206" lon="11.7697964"><ele>475.75</ele><time>2026-04-04T13:11:05.51Z</time></trkpt><trkpt lat="43.0293513" lon="11.7696698"><ele>474.0</ele><time>2026-04-04T13:11:06.503Z</time></trkpt><trkpt lat="43.0292768" lon="11.7695392"><ele>474.0</ele><time>2026-04-04T13:11:07.514Z</time></trkpt><trkpt lat="43.0291997" lon="11.769408"><ele>474.0</ele><time>2026-04-04T13:11:08.514Z</time></trkpt><trkpt lat="43.0291241" lon="11.7692801"><ele>474.0</ele><time>2026-04-04T13:11:09.523Z</time></trkpt><trkpt lat="43.0290514" lon="11.769154"><ele>474.0</ele><time>2026-04-04T13:11:10.494Z</time></trkpt><trkpt lat="43.0289787" lon="11.7690297"><ele>472.79999999999995</ele><time>2026-04-04T13:11:11.484Z</time></trkpt><trkpt lat="43.0289115" lon="11.7689068"><ele>471.59999999999997</ele><time>2026-04-04T13:11:12.505Z</time></trkpt><trkpt lat="43.0288381" lon="11.768781"><ele>470.4</ele><time>2026-04-04T13:11:13.479Z</time></trkpt><trkpt lat="43.0287658" lon="11.7686609"><ele>469.2</ele><time>2026-04-04T13:11:14.524Z</time></trkpt><trkpt lat="43.0286978" lon="11.7685559"><ele>468.0</ele><time>2026-04-04T13:11:15.509Z</time></trkpt><trkpt lat="43.0286301" lon="11.7684781"><ele>467.0</ele><time>2026-04-04T13:11:16.494Z</time></trkpt><trkpt lat="43.0285612" lon="11.7684172"><ele>466.0</ele><time>2026-04-04T13:11:17.526Z</time></trkpt><trkpt lat="43.0284481" lon="11.7683696"><ele>465.0</ele><time>2026-04-04T13:11:19.511Z</time></trkpt><trkpt lat="43.0283846" lon="11.7683501"><ele>464.0</ele><time>2026-04-04T13:11:21.503Z</time></trkpt><trkpt lat="43.0282968" lon="11.7683475"><ele>463.0</ele><time>2026-04-04T13:11:24.501Z</time></trkpt><trkpt lat="43.0282206" lon="11.7683656"><ele>462.0</ele><time>2026-04-04T13:11:26.497Z</time></trkpt><trkpt lat="43.0281458" lon="11.7683941"><ele>461.57142857142856</ele><time>2026-04-04T13:11:29.493Z</time></trkpt><trkpt lat="43.0280783" lon="11.7684464"><ele>461.1428571428571</ele><time>2026-04-04T13:12:18.49Z</time></trkpt><trkpt lat="43.0280129" lon="11.7685108"><ele>460.7142857142857</ele><time>2026-04-04T13:12:21.503Z</time></trkpt><trkpt lat="43.0279571" lon="11.768572"><ele>460.2857142857143</ele><time>2026-04-04T13:12:28.5Z</time></trkpt><trkpt lat="43.0279011" lon="11.7686205"><ele>459.85714285714283</ele><time>2026-04-04T13:12:36.498Z</time></trkpt><trkpt lat="43.0278467" lon="11.7686796"><ele>459.42857142857144</ele><time>2026-04-04T13:12:39.495Z</time></trkpt><trkpt lat="43.0277987" lon="11.768764"><ele>459.0</ele><time>2026-04-04T13:15:30.506Z</time></trkpt><trkpt lat="43.0277078" lon="11.7688769"><ele>459.0</ele><time>2026-04-04T13:15:32.535Z</time></trkpt><trkpt lat="43.0276104" lon="11.7689943"><ele>459.0</ele><time>2026-04-04T13:15:34.525Z</time></trkpt><trkpt lat="43.0275473" lon="11.7690742"><ele>459.0</ele><time>2026-04-04T13:15:35.537Z</time></trkpt><trkpt lat="43.0274747" lon="11.7691597"><ele>459.0</ele><time>2026-04-04T13:15:36.529Z</time></trkpt><trkpt lat="43.0274071" lon="11.7692225"><ele>459.0</ele><time>2026-04-04T13:15:37.533Z</time></trkpt><trkpt lat="43.0273424" lon="11.7692735"><ele>459.0</ele><time>2026-04-04T13:15:38.536Z</time></trkpt><trkpt lat="43.0272831" lon="11.7693094"><ele>459.0</ele><time>2026-04-04T13:15:39.546Z</time></trkpt><trkpt lat="43.0271838" lon="11.7693566"><ele>459.0</ele><time>2026-04-04T13:15:41.494Z</time></trkpt><trkpt lat="43.0270601" lon="11.7694054"><ele>459.0</ele><time>2026-04-04T13:15:43.503Z</time></trkpt><trkpt lat="43.0269888" lon="11.769425"><ele>459.0</ele><time>2026-04-04T13:15:44.498Z</time></trkpt><trkpt lat="43.0269191" lon="11.769442"><ele>459.0</ele><time>2026-04-04T13:15:45.51Z</time></trkpt><trkpt lat="43.0268534" lon="11.7694617"><ele>459.0</ele><time>2026-04-04T13:15:46.506Z</time></trkpt><trkpt lat="43.0267868" lon="11.7694773"><ele>459.0</ele><time>2026-04-04T13:15:47.522Z</time></trkpt><trkpt lat="43.0267091" lon="11.7694896"><ele>459.0</ele><time>2026-04-04T13:15:48.554Z</time></trkpt><trkpt lat="43.0266311" lon="11.7695048"><ele>459.0</ele><time>2026-04-04T13:15:49.519Z</time></trkpt><trkpt lat="43.0265514" lon="11.7695108"><ele>459.0</ele><time>2026-04-04T13:15:50.54Z</time></trkpt><trkpt lat="43.0264672" lon="11.7695242"><ele>459.0</ele><time>2026-04-04T13:15:51.504Z</time></trkpt><trkpt lat="43.0263687" lon="11.769527"><ele>457.79999999999995</ele><time>2026-04-04T13:15:52.534Z</time></trkpt><trkpt lat="43.0262621" lon="11.76951"><ele>456.59999999999997</ele><time>2026-04-04T13:15:53.53Z</time></trkpt><trkpt lat="43.026152" lon="11.7694719"><ele>455.4</ele><time>2026-04-04T13:15:54.48Z</time></trkpt><trkpt lat="43.0260503" lon="11.769417"><ele>454.2</ele><time>2026-04-04T13:15:55.505Z</time></trkpt><trkpt lat="43.0259654" lon="11.7693501"><ele>453.0</ele><time>2026-04-04T13:15:56.507Z</time></trkpt><trkpt lat="43.0258869" lon="11.7692939"><ele>452.1666666666667</ele><time>2026-04-04T13:15:57.532Z</time></trkpt><trkpt lat="43.0258158" lon="11.7692484"><ele>451.33333333333337</ele><time>2026-04-04T13:15:58.529Z</time></trkpt><trkpt lat="43.025744" lon="11.7692042"><ele>450.5</ele><time>2026-04-04T13:15:59.536Z</time></trkpt><trkpt lat="43.0256775" lon="11.7691788"><ele>449.6666666666667</ele><time>2026-04-04T13:16:00.526Z</time></trkpt><trkpt lat="43.0255801" lon="11.7691353"><ele>448.83333333333337</ele><time>2026-04-04T13:16:02.52Z</time></trkpt><trkpt lat="43.0255026" lon="11.7691124"><ele>448.0</ele><time>2026-04-04T13:16:05.508Z</time></trkpt><trkpt lat="43.0254335" lon="11.7691205"><ele>447.2</ele><time>2026-04-04T13:26:44.486Z</time></trkpt><trkpt lat="43.0253231" lon="11.7691663"><ele>446.4</ele><time>2026-04-04T13:26:46.517Z</time></trkpt><trkpt lat="43.0252475" lon="11.7691974"><ele>445.59999999999997</ele><time>2026-04-04T13:26:47.512Z</time></trkpt><trkpt lat="43.0251541" lon="11.7692509"><ele>444.79999999999995</ele><time>2026-04-04T13:26:48.503Z</time></trkpt><trkpt lat="43.0250629" lon="11.769341"><ele>444.0</ele><time>2026-04-04T13:26:49.507Z</time></trkpt><trkpt lat="43.0249661" lon="11.7694441"><ele>444.0</ele><time>2026-04-04T13:26:50.502Z</time></trkpt><trkpt lat="43.024872" lon="11.7695565"><ele>444.0</ele><time>2026-04-04T13:26:51.48Z</time></trkpt><trkpt lat="43.0247915" lon="11.7696664"><ele>444.0</ele><time>2026-04-04T13:26:52.508Z</time></trkpt><trkpt lat="43.0247109" lon="11.7697627"><ele>444.0</ele><time>2026-04-04T13:26:53.524Z</time></trkpt><trkpt lat="43.02463" lon="11.7698598"><ele>444.0</ele><time>2026-04-04T13:26:54.539Z</time></trkpt><trkpt lat="43.0245552" lon="11.7699538"><ele>444.0</ele><time>2026-04-04T13:26:55.499Z</time></trkpt><trkpt lat="43.024477" lon="11.7700399"><ele>444.0</ele><time>2026-04-04T13:26:56.478Z</time></trkpt><trkpt lat="43.0244002" lon="11.7701236"><ele>444.0</ele><time>2026-04-04T13:26:57.518Z</time></trkpt><trkpt lat="43.0243142" lon="11.7701827"><ele>444.0</ele><time>2026-04-04T13:26:58.53Z</time></trkpt><trkpt lat="43.0242029" lon="11.7702082"><ele>442.66666666666663</ele><time>2026-04-04T13:26:59.525Z</time></trkpt><trkpt lat="43.0240747" lon="11.7701794"><ele>441.3333333333333</ele><time>2026-04-04T13:27:00.515Z</time></trkpt><trkpt lat="43.0239427" lon="11.770092"><ele>440.0</ele><time>2026-04-04T13:27:01.495Z</time></trkpt><trkpt lat="43.0237994" lon="11.7699574"><ele>440.0</ele><time>2026-04-04T13:27:02.508Z</time></trkpt><trkpt lat="43.0236661" lon="11.769807"><ele>440.0</ele><time>2026-04-04T13:27:03.521Z</time></trkpt><trkpt lat="43.023527" lon="11.7696614"><ele>440.0</ele><time>2026-04-04T13:27:04.509Z</time></trkpt><trkpt lat="43.0233948" lon="11.7695251"><ele>439.0</ele><time>2026-04-04T13:27:05.478Z</time></trkpt><trkpt lat="43.0232716" lon="11.7693907"><ele>438.0</ele><time>2026-04-04T13:27:06.542Z</time></trkpt><trkpt lat="43.0231515" lon="11.7692659"><ele>437.0</ele><time>2026-04-04T13:27:07.533Z</time></trkpt><trkpt lat="43.0230364" lon="11.769175"><ele>436.0</ele><time>2026-04-04T13:27:08.469Z</time></trkpt><trkpt lat="43.0229087" lon="11.7691478"><ele>434.75</ele><time>2026-04-04T13:27:09.47Z</time></trkpt><trkpt lat="43.0227787" lon="11.7691847"><ele>433.5</ele><time>2026-04-04T13:27:10.473Z</time></trkpt><trkpt lat="43.0226508" lon="11.7692452"><ele>432.25</ele><time>2026-04-04T13:27:11.471Z</time></trkpt><trkpt lat="43.0225196" lon="11.7693074"><ele>431.0</ele><time>2026-04-04T13:27:12.475Z</time></trkpt><trkpt lat="43.0223859" lon="11.7692924"><ele>431.0</ele><time>2026-04-04T13:27:13.473Z</time></trkpt><trkpt lat="43.0222731" lon="11.7692109"><ele>431.0</ele><time>2026-04-04T13:27:14.472Z</time></trkpt><trkpt lat="43.0221727" lon="11.7690903"><ele>431.0</ele><time>2026-04-04T13:27:15.472Z</time></trkpt><trkpt lat="43.0221035" lon="11.7689169"><ele>431.0</ele><time>2026-04-04T13:27:16.47Z</time></trkpt><trkpt lat="43.0220555" lon="11.768724"><ele>427.66666666666663</ele><time>2026-04-04T13:27:17.474Z</time></trkpt><trkpt lat="43.0220188" lon="11.7685044"><ele>424.33333333333337</ele><time>2026-04-04T13:27:18.468Z</time></trkpt><trkpt lat="43.0219584" lon="11.7683014"><ele>421.0</ele><time>2026-04-04T13:27:19.468Z</time></trkpt><trkpt lat="43.0218749" lon="11.7681366"><ele>421.0</ele><time>2026-04-04T13:27:20.473Z</time></trkpt><trkpt lat="43.0217636" lon="11.7679966"><ele>421.0</ele><time>2026-04-04T13:27:21.529Z</time></trkpt><trkpt lat="43.0216235" lon="11.7678577"><ele>421.0</ele><time>2026-04-04T13:27:22.528Z</time></trkpt><trkpt lat="43.0214544" lon="11.7677232"><ele>418.33333333333337</ele><time>2026-04-04T13:27:23.537Z</time></trkpt><trkpt lat="43.0212816" lon="11.7676"><ele>415.66666666666663</ele><time>2026-04-04T13:27:24.562Z</time></trkpt><trkpt lat="43.0211134" lon="11.7674835"><ele>413.0</ele><time>2026-04-04T13:27:25.532Z</time></trkpt><trkpt lat="43.0209506" lon="11.7674054"><ele>412.0</ele><time>2026-04-04T13:27:26.522Z</time></trkpt><trkpt lat="43.0207829" lon="11.7673727"><ele>411.0</ele><time>2026-04-04T13:27:27.491Z</time></trkpt><trkpt lat="43.0206015" lon="11.7673988"><ele>410.0</ele><time>2026-04-04T13:27:28.493Z</time></trkpt><trkpt lat="43.0204265" lon="11.7674511"><ele>410.0</ele><time>2026-04-04T13:27:29.474Z</time></trkpt><trkpt lat="43.020253" lon="11.7675231"><ele>410.0</ele><time>2026-04-04T13:27:30.555Z</time></trkpt><trkpt lat="43.0200976" lon="11.7675912"><ele>410.0</ele><time>2026-04-04T13:27:31.532Z</time></trkpt><trkpt lat="43.0199565" lon="11.7676269"><ele>410.0</ele><time>2026-04-04T13:27:32.523Z</time></trkpt><trkpt lat="43.019824" lon="11.7675986"><ele>410.0</ele><time>2026-04-04T13:27:33.543Z</time></trkpt><trkpt lat="43.0196933" lon="11.767514"><ele>410.0</ele><time>2026-04-04T13:27:34.5Z</time></trkpt><trkpt lat="43.019597" lon="11.7673801"><ele>410.0</ele><time>2026-04-04T13:27:35.545Z</time></trkpt><trkpt lat="43.0195273" lon="11.7672251"><ele>410.0</ele><time>2026-04-04T13:27:36.541Z</time></trkpt><trkpt lat="43.0194783" lon="11.7670604"><ele>410.0</ele><time>2026-04-04T13:27:37.5Z</time></trkpt><trkpt lat="43.0194281" lon="11.7669002"><ele>410.0</ele><time>2026-04-04T13:27:38.504Z</time></trkpt><trkpt lat="43.0193624" lon="11.7667588"><ele>410.0</ele><time>2026-04-04T13:27:39.536Z</time></trkpt><trkpt lat="43.0192669" lon="11.7666334"><ele>407.25</ele><time>2026-04-04T13:27:40.502Z</time></trkpt><trkpt lat="43.0191504" lon="11.7665085"><ele>404.5</ele><time>2026-04-04T13:27:41.549Z</time></trkpt><trkpt lat="43.0190251" lon="11.7664184"><ele>401.75</ele><time>2026-04-04T13:27:42.496Z</time></trkpt><trkpt lat="43.0188833" lon="11.7663533"><ele>399.0</ele><time>2026-04-04T13:27:43.504Z</time></trkpt><trkpt lat="43.0187426" lon="11.7663031"><ele>399.0</ele><time>2026-04-04T13:27:44.535Z</time></trkpt><trkpt lat="43.0186009" lon="11.766255"><ele>399.0</ele><time>2026-04-04T13:27:45.507Z</time></trkpt><trkpt lat="43.0184617" lon="11.7662302"><ele>399.0</ele><time>2026-04-04T13:27:46.5Z</time></trkpt><trkpt lat="43.01832" lon="11.7662392"><ele>399.0</ele><time>2026-04-04T13:27:47.545Z</time></trkpt><trkpt lat="43.0181931" lon="11.7662691"><ele>398.5</ele><time>2026-04-04T13:27:48.497Z</time></trkpt><trkpt lat="43.0180702" lon="11.7662991"><ele>398.0</ele><time>2026-04-04T13:27:49.528Z</time></trkpt><trkpt lat="43.0179491" lon="11.7663118"><ele>397.5</ele><time>2026-04-04T13:27:50.543Z</time></trkpt><trkpt lat="43.0178212" lon="11.7662757"><ele>397.0</ele><time>2026-04-04T13:27:51.532Z</time></trkpt><trkpt lat="43.0177053" lon="11.7661936"><ele>397.0</ele><time>2026-04-04T13:27:52.498Z</time></trkpt><trkpt lat="43.0176009" lon="11.766062"><ele>397.0</ele><time>2026-04-04T13:27:53.5Z</time></trkpt><trkpt lat="43.0175059" lon="11.7659174"><ele>397.0</ele><time>2026-04-04T13:27:54.53Z</time></trkpt><trkpt lat="43.017418" lon="11.7657909"><ele>397.0</ele><time>2026-04-04T13:27:55.537Z</time></trkpt><trkpt lat="43.0173304" lon="11.765675"><ele>395.75</ele><time>2026-04-04T13:27:56.533Z</time></trkpt><trkpt lat="43.0172423" lon="11.7655643"><ele>394.5</ele><time>2026-04-04T13:27:57.526Z</time></trkpt><trkpt lat="43.0171479" lon="11.7654667"><ele>393.25</ele><time>2026-04-04T13:27:58.524Z</time></trkpt><trkpt lat="43.0170416" lon="11.7653813"><ele>392.0</ele><time>2026-04-04T13:27:59.533Z</time></trkpt><trkpt lat="43.0169131" lon="11.7653036"><ele>392.0</ele><time>2026-04-04T13:28:00.535Z</time></trkpt><trkpt lat="43.0167765" lon="11.765239"><ele>392.0</ele><time>2026-04-04T13:28:01.534Z</time></trkpt><trkpt lat="43.0166372" lon="11.7651892"><ele>392.0</ele><time>2026-04-04T13:28:02.516Z</time></trkpt><trkpt lat="43.0165077" lon="11.7651474"><ele>392.0</ele><time>2026-04-04T13:28:03.519Z</time></trkpt><trkpt lat="43.0163751" lon="11.7651249"><ele>391.5</ele><time>2026-04-04T13:28:04.523Z</time></trkpt><trkpt lat="43.0162395" lon="11.7651483"><ele>391.0</ele><time>2026-04-04T13:28:05.544Z</time></trkpt><trkpt lat="43.0161062" lon="11.7652018"><ele>390.5</ele><time>2026-04-04T13:28:06.549Z</time></trkpt><trkpt lat="43.0159765" lon="11.7652646"><ele>390.0</ele><time>2026-04-04T13:28:07.547Z</time></trkpt><trkpt lat="43.015842" lon="11.7653193"><ele>389.0</ele><time>2026-04-04T13:28:08.516Z</time></trkpt><trkpt lat="43.0156961" lon="11.7653596"><ele>388.0</ele><time>2026-04-04T13:28:09.515Z</time></trkpt><trkpt lat="43.015549" lon="11.7653456"><ele>387.0</ele><time>2026-04-04T13:28:10.549Z</time></trkpt><trkpt lat="43.0154056" lon="11.7652789"><ele>386.0</ele><time>2026-04-04T13:28:11.489Z</time></trkpt><trkpt lat="43.0152655" lon="11.7652114"><ele>383.66666666666663</ele><time>2026-04-04T13:28:12.54Z</time></trkpt><trkpt lat="43.0151263" lon="11.7651522"><ele>381.3333333333333</ele><time>2026-04-04T13:28:13.554Z</time></trkpt><trkpt lat="43.0149778" lon="11.765097"><ele>379.0</ele><time>2026-04-04T13:28:14.537Z</time></trkpt><trkpt lat="43.0148006" lon="11.7650382"><ele>378.0</ele><time>2026-04-04T13:28:15.529Z</time></trkpt><trkpt lat="43.0146054" lon="11.7649591"><ele>377.0</ele><time>2026-04-04T13:28:16.553Z</time></trkpt><trkpt lat="43.0143866" lon="11.7648473"><ele>376.0</ele><time>2026-04-04T13:28:17.549Z</time></trkpt><trkpt lat="43.0141555" lon="11.764737"><ele>377.5</ele><time>2026-04-04T13:28:18.532Z</time></trkpt><trkpt lat="43.0139287" lon="11.7646484"><ele>379.0</ele><time>2026-04-04T13:28:19.534Z</time></trkpt><trkpt lat="43.0137036" lon="11.7645657"><ele>379.0</ele><time>2026-04-04T13:28:20.537Z</time></trkpt><trkpt lat="43.0134652" lon="11.7644624"><ele>379.0</ele><time>2026-04-04T13:28:21.526Z</time></trkpt><trkpt lat="43.0132091" lon="11.7643533"><ele>373.5</ele><time>2026-04-04T13:28:22.528Z</time></trkpt><trkpt lat="43.0129463" lon="11.7642405"><ele>368.0</ele><time>2026-04-04T13:28:23.532Z</time></trkpt><trkpt lat="43.012686" lon="11.7641278"><ele>367.5</ele><time>2026-04-04T13:28:24.532Z</time></trkpt><trkpt lat="43.0124383" lon="11.7640158"><ele>367.0</ele><time>2026-04-04T13:28:25.524Z</time></trkpt><trkpt lat="43.012206" lon="11.7638938"><ele>367.0</ele><time>2026-04-04T13:28:26.52Z</time></trkpt><trkpt lat="43.0119974" lon="11.7637385"><ele>367.0</ele><time>2026-04-04T13:28:27.496Z</time></trkpt><trkpt lat="43.0117983" lon="11.7635459"><ele>366.5</ele><time>2026-04-04T13:28:28.542Z</time></trkpt><trkpt lat="43.0116253" lon="11.763303"><ele>366.0</ele><time>2026-04-04T13:28:29.546Z</time></trkpt><trkpt lat="43.0114432" lon="11.763038"><ele>366.0</ele><time>2026-04-04T13:28:30.55Z</time></trkpt><trkpt lat="43.0112458" lon="11.7627759"><ele>366.0</ele><time>2026-04-04T13:28:31.54Z</time></trkpt><trkpt lat="43.0110489" lon="11.7625058"><ele>366.0</ele><time>2026-04-04T13:28:32.535Z</time></trkpt><trkpt lat="43.0108579" lon="11.7622483"><ele>366.0</ele><time>2026-04-04T13:28:33.484Z</time></trkpt><trkpt lat="43.0106624" lon="11.7619852"><ele>365.0</ele><time>2026-04-04T13:28:34.56Z</time></trkpt><trkpt lat="43.0104723" lon="11.7617201"><ele>364.0</ele><time>2026-04-04T13:28:35.535Z</time></trkpt><trkpt lat="43.0102946" lon="11.7614702"><ele>364.0</ele><time>2026-04-04T13:28:36.51Z</time></trkpt><trkpt lat="43.0101218" lon="11.7612352"><ele>364.0</ele><time>2026-04-04T13:28:37.497Z</time></trkpt><trkpt lat="43.009957" lon="11.7610176"><ele>361.3333333333333</ele><time>2026-04-04T13:28:38.539Z</time></trkpt><trkpt lat="43.0098077" lon="11.7608149"><ele>358.6666666666667</ele><time>2026-04-04T13:28:39.533Z</time></trkpt><trkpt lat="43.0096689" lon="11.7606186"><ele>356.0</ele><time>2026-04-04T13:28:40.535Z</time></trkpt><trkpt lat="43.0095439" lon="11.7604392"><ele>356.0</ele><time>2026-04-04T13:28:41.522Z</time></trkpt><trkpt lat="43.0094244" lon="11.7602715"><ele>356.0</ele><time>2026-04-04T13:28:42.537Z</time></trkpt><trkpt lat="43.0093062" lon="11.7601197"><ele>356.0</ele><time>2026-04-04T13:28:43.537Z</time></trkpt><trkpt lat="43.0091815" lon="11.7600156"><ele>353.6666666666667</ele><time>2026-04-04T13:28:44.529Z</time></trkpt><trkpt lat="43.0090454" lon="11.7599512"><ele>351.3333333333333</ele><time>2026-04-04T13:28:45.536Z</time></trkpt><trkpt lat="43.0088978" lon="11.7599163"><ele>349.0</ele><time>2026-04-04T13:28:46.538Z</time></trkpt><trkpt lat="43.0087259" lon="11.7599374"><ele>349.0</ele><time>2026-04-04T13:28:47.535Z</time></trkpt><trkpt lat="43.0085438" lon="11.7600199"><ele>349.0</ele><time>2026-04-04T13:28:48.545Z</time></trkpt><trkpt lat="43.008341" lon="11.7601525"><ele>349.0</ele><time>2026-04-04T13:28:49.547Z</time></trkpt><trkpt lat="43.0081284" lon="11.7602955"><ele>347.5</ele><time>2026-04-04T13:28:50.524Z</time></trkpt><trkpt lat="43.0079167" lon="11.7604471"><ele>346.0</ele><time>2026-04-04T13:28:51.48Z</time></trkpt><trkpt lat="43.0077085" lon="11.7605878"><ele>346.0</ele><time>2026-04-04T13:28:52.496Z</time></trkpt><trkpt lat="43.0075032" lon="11.7607167"><ele>346.0</ele><time>2026-04-04T13:28:53.483Z</time></trkpt><trkpt lat="43.007314" lon="11.7608482"><ele>346.0</ele><time>2026-04-04T13:28:54.486Z</time></trkpt><trkpt lat="43.0071587" lon="11.7609659"><ele>345.6</ele><time>2026-04-04T13:28:55.472Z</time></trkpt><trkpt lat="43.0070236" lon="11.7610512"><ele>345.20000000000005</ele><time>2026-04-04T13:28:56.477Z</time></trkpt><trkpt lat="43.0069229" lon="11.7611095"><ele>344.79999999999995</ele><time>2026-04-04T13:28:57.501Z</time></trkpt><trkpt lat="43.0068488" lon="11.761165"><ele>344.4</ele><time>2026-04-04T13:28:58.509Z</time></trkpt><trkpt lat="43.0067905" lon="11.7612072"><ele>344.0</ele><time>2026-04-04T13:28:59.465Z</time></trkpt><trkpt lat="43.0067324" lon="11.7612531"><ele>344.0</ele><time>2026-04-04T13:29:00.518Z</time></trkpt><trkpt lat="43.0066714" lon="11.7612842"><ele>344.0</ele><time>2026-04-04T13:29:01.489Z</time></trkpt><trkpt lat="43.006595" lon="11.7613248"><ele>344.0</ele><time>2026-04-04T13:29:02.509Z</time></trkpt><trkpt lat="43.0065113" lon="11.7613769"><ele>344.0</ele><time>2026-04-04T13:29:03.488Z</time></trkpt><trkpt lat="43.006409" lon="11.7614259"><ele>344.0</ele><time>2026-04-04T13:29:04.501Z</time></trkpt><trkpt lat="43.0062973" lon="11.7614488"><ele>344.0</ele><time>2026-04-04T13:29:05.486Z</time></trkpt><trkpt lat="43.0061696" lon="11.7614584"><ele>344.0</ele><time>2026-04-04T13:29:06.513Z</time></trkpt><trkpt lat="43.0060354" lon="11.7614522"><ele>344.0</ele><time>2026-04-04T13:29:07.533Z</time></trkpt><trkpt lat="43.0058921" lon="11.7614194"><ele>344.0</ele><time>2026-04-04T13:29:08.494Z</time></trkpt><trkpt lat="43.005745" lon="11.7613554"><ele>345.33333333333337</ele><time>2026-04-04T13:29:09.49Z</time></trkpt><trkpt lat="43.005584" lon="11.761281"><ele>346.6666666666667</ele><time>2026-04-04T13:29:10.511Z</time></trkpt><trkpt lat="43.0054263" lon="11.7611978"><ele>348.0</ele><time>2026-04-04T13:29:11.533Z</time></trkpt><trkpt lat="43.005263" lon="11.7611171"><ele>348.0</ele><time>2026-04-04T13:29:12.517Z</time></trkpt><trkpt lat="43.0050968" lon="11.7610368"><ele>348.0</ele><time>2026-04-04T13:29:13.546Z</time></trkpt><trkpt lat="43.0049254" lon="11.7609574"><ele>348.0</ele><time>2026-04-04T13:29:14.551Z</time></trkpt><trkpt lat="43.0047493" lon="11.7608706"><ele>346.0</ele><time>2026-04-04T13:29:15.555Z</time></trkpt><trkpt lat="43.0045634" lon="11.7607856"><ele>344.0</ele><time>2026-04-04T13:29:16.525Z</time></trkpt><trkpt lat="43.0043806" lon="11.7606954"><ele>342.0</ele><time>2026-04-04T13:29:17.54Z</time></trkpt><trkpt lat="43.0041998" lon="11.7606105"><ele>341.6666666666667</ele><time>2026-04-04T13:29:18.548Z</time></trkpt><trkpt lat="43.004031" lon="11.7605357"><ele>341.33333333333337</ele><time>2026-04-04T13:29:19.525Z</time></trkpt><trkpt lat="43.0038637" lon="11.7604535"><ele>341.0</ele><time>2026-04-04T13:29:20.559Z</time></trkpt><trkpt lat="43.0036857" lon="11.7603678"><ele>341.0</ele><time>2026-04-04T13:29:21.536Z</time></trkpt><trkpt lat="43.0034888" lon="11.7602698"><ele>341.0</ele><time>2026-04-04T13:29:22.536Z</time></trkpt><trkpt lat="43.0032761" lon="11.7601707"><ele>341.0</ele><time>2026-04-04T13:29:23.537Z</time></trkpt><trkpt lat="43.0030696" lon="11.7600666"><ele>339.0</ele><time>2026-04-04T13:29:24.539Z</time></trkpt><trkpt lat="43.0028731" lon="11.7599742"><ele>337.0</ele><time>2026-04-04T13:29:25.552Z</time></trkpt><trkpt lat="43.0026818" lon="11.7598888"><ele>335.0</ele><time>2026-04-04T13:29:26.55Z</time></trkpt><trkpt lat="43.0024955" lon="11.7598028"><ele>334.6666666666667</ele><time>2026-04-04T13:29:27.552Z</time></trkpt><trkpt lat="43.0023068" lon="11.7597107"><ele>334.3333333333333</ele><time>2026-04-04T13:29:28.543Z</time></trkpt><trkpt lat="43.0021096" lon="11.7596128"><ele>334.0</ele><time>2026-04-04T13:29:29.524Z</time></trkpt><trkpt lat="43.0019005" lon="11.7595107"><ele>334.0</ele><time>2026-04-04T13:29:30.501Z</time></trkpt><trkpt lat="43.0016819" lon="11.7594113"><ele>334.0</ele><time>2026-04-04T13:29:31.524Z</time></trkpt><trkpt lat="43.00146" lon="11.7593051"><ele>333.3333333333333</ele><time>2026-04-04T13:29:32.518Z</time></trkpt><trkpt lat="43.0012483" lon="11.7592032"><ele>332.6666666666667</ele><time>2026-04-04T13:29:33.562Z</time></trkpt><trkpt lat="43.0010519" lon="11.7591071"><ele>332.0</ele><time>2026-04-04T13:29:34.536Z</time></trkpt><trkpt lat="43.0008657" lon="11.7590179"><ele>332.33333333333337</ele><time>2026-04-04T13:29:35.543Z</time></trkpt><trkpt lat="43.0006874" lon="11.7589285"><ele>332.6666666666667</ele><time>2026-04-04T13:29:36.522Z</time></trkpt><trkpt lat="43.0005143" lon="11.7588286"><ele>333.0</ele><time>2026-04-04T13:29:37.514Z</time></trkpt><trkpt lat="43.0003349" lon="11.758705"><ele>333.0</ele><time>2026-04-04T13:29:38.491Z</time></trkpt><trkpt lat="43.0001574" lon="11.7585548"><ele>333.0</ele><time>2026-04-04T13:29:39.547Z</time></trkpt><trkpt lat="42.9999787" lon="11.7583696"><ele>333.0</ele><time>2026-04-04T13:29:40.543Z</time></trkpt><trkpt lat="42.9997889" lon="11.7581608"><ele>333.0</ele><time>2026-04-04T13:29:41.503Z</time></trkpt><trkpt lat="42.9996052" lon="11.7579542"><ele>333.0</ele><time>2026-04-04T13:29:42.498Z</time></trkpt><trkpt lat="42.9994327" lon="11.7577555"><ele>332.0</ele><time>2026-04-04T13:29:43.51Z</time></trkpt><trkpt lat="42.9992589" lon="11.7575646"><ele>331.0</ele><time>2026-04-04T13:29:44.557Z</time></trkpt><trkpt lat="42.9990891" lon="11.7573775"><ele>330.0</ele><time>2026-04-04T13:29:45.545Z</time></trkpt><trkpt lat="42.9989099" lon="11.7571894"><ele>330.0</ele><time>2026-04-04T13:29:46.548Z</time></trkpt><trkpt lat="42.9987324" lon="11.757002"><ele>330.0</ele><time>2026-04-04T13:29:47.543Z</time></trkpt><trkpt lat="42.9985664" lon="11.7568272"><ele>330.0</ele><time>2026-04-04T13:29:48.498Z</time></trkpt><trkpt lat="42.9984132" lon="11.7566634"><ele>330.0</ele><time>2026-04-04T13:29:49.493Z</time></trkpt><trkpt lat="42.9982655" lon="11.7565034"><ele>330.0</ele><time>2026-04-04T13:29:50.487Z</time></trkpt><trkpt lat="42.9981263" lon="11.7563548"><ele>330.0</ele><time>2026-04-04T13:29:51.492Z</time></trkpt><trkpt lat="42.9979968" lon="11.7562145"><ele>330.0</ele><time>2026-04-04T13:29:52.493Z</time></trkpt><trkpt lat="42.997886" lon="11.7560663"><ele>330.0</ele><time>2026-04-04T13:29:53.525Z</time></trkpt><trkpt lat="42.9977916" lon="11.7559175"><ele>330.0</ele><time>2026-04-04T13:29:54.493Z</time></trkpt><trkpt lat="42.9977101" lon="11.7557668"><ele>330.0</ele><time>2026-04-04T13:29:55.482Z</time></trkpt><trkpt lat="42.9976426" lon="11.7556186"><ele>329.8</ele><time>2026-04-04T13:29:56.522Z</time></trkpt><trkpt lat="42.9975837" lon="11.7554795"><ele>329.6</ele><time>2026-04-04T13:29:57.523Z</time></trkpt><trkpt lat="42.9975266" lon="11.7553465"><ele>329.4</ele><time>2026-04-04T13:29:58.497Z</time></trkpt><trkpt lat="42.9974703" lon="11.7552201"><ele>329.2</ele><time>2026-04-04T13:29:59.488Z</time></trkpt><trkpt lat="42.9974207" lon="11.7550963"><ele>329.0</ele><time>2026-04-04T13:30:00.5Z</time></trkpt><trkpt lat="42.9973784" lon="11.7549787"><ele>329.0</ele><time>2026-04-04T13:30:01.492Z</time></trkpt><trkpt lat="42.9973352" lon="11.7548632"><ele>329.0</ele><time>2026-04-04T13:30:02.498Z</time></trkpt><trkpt lat="42.9972883" lon="11.7547514"><ele>329.0</ele><time>2026-04-04T13:30:03.502Z</time></trkpt><trkpt lat="42.9972373" lon="11.7546484"><ele>329.0</ele><time>2026-04-04T13:30:04.511Z</time></trkpt><trkpt lat="42.9971845" lon="11.7545453"><ele>329.0</ele><time>2026-04-04T13:30:05.519Z</time></trkpt><trkpt lat="42.9971232" lon="11.7544456"><ele>329.2</ele><time>2026-04-04T13:30:06.502Z</time></trkpt><trkpt lat="42.9970502" lon="11.754341"><ele>329.4</ele><time>2026-04-04T13:30:07.5Z</time></trkpt><trkpt lat="42.9969572" lon="11.7542555"><ele>329.6</ele><time>2026-04-04T13:30:08.511Z</time></trkpt><trkpt lat="42.996855" lon="11.7541969"><ele>329.8</ele><time>2026-04-04T13:30:09.515Z</time></trkpt><trkpt lat="42.9967489" lon="11.754157"><ele>330.0</ele><time>2026-04-04T13:30:10.504Z</time></trkpt><trkpt lat="42.9966363" lon="11.7541247"><ele>330.0</ele><time>2026-04-04T13:30:11.555Z</time></trkpt><trkpt lat="42.9965062" lon="11.7540997"><ele>330.0</ele><time>2026-04-04T13:30:12.507Z</time></trkpt><trkpt lat="42.9963606" lon="11.7540733"><ele>330.0</ele><time>2026-04-04T13:30:13.522Z</time></trkpt><trkpt lat="42.9961989" lon="11.7540442"><ele>330.0</ele><time>2026-04-04T13:30:14.502Z</time></trkpt><trkpt lat="42.996009" lon="11.7539921"><ele>327.6666666666667</ele><time>2026-04-04T13:30:15.49Z</time></trkpt><trkpt lat="42.995796" lon="11.7539447"><ele>325.33333333333337</ele><time>2026-04-04T13:30:16.512Z</time></trkpt><trkpt lat="42.9955797" lon="11.753902"><ele>323.0</ele><time>2026-04-04T13:30:17.505Z</time></trkpt><trkpt lat="42.9953726" lon="11.7538559"><ele>323.0</ele><time>2026-04-04T13:30:18.501Z</time></trkpt><trkpt lat="42.9951829" lon="11.7538091"><ele>323.0</ele><time>2026-04-04T13:30:19.515Z</time></trkpt><trkpt lat="42.9950019" lon="11.753766"><ele>323.0</ele><time>2026-04-04T13:30:20.497Z</time></trkpt><trkpt lat="42.9948318" lon="11.7537263"><ele>322.0</ele><time>2026-04-04T13:30:21.523Z</time></trkpt><trkpt lat="42.9946732" lon="11.7536939"><ele>321.0</ele><time>2026-04-04T13:30:22.52Z</time></trkpt><trkpt lat="42.9945371" lon="11.7536628"><ele>320.0</ele><time>2026-04-04T13:30:23.512Z</time></trkpt><trkpt lat="42.9944127" lon="11.753635"><ele>319.0</ele><time>2026-04-04T13:30:24.493Z</time></trkpt><trkpt lat="42.9943128" lon="11.7535672"><ele>318.8</ele><time>2026-04-04T13:30:25.505Z</time></trkpt><trkpt lat="42.9942526" lon="11.7534853"><ele>318.59999999999997</ele><time>2026-04-04T13:30:26.505Z</time></trkpt><trkpt lat="42.9942098" lon="11.7534074"><ele>318.4</ele><time>2026-04-04T13:30:27.499Z</time></trkpt><trkpt lat="42.9941459" lon="11.7533298"><ele>318.2</ele><time>2026-04-04T13:30:29.524Z</time></trkpt><trkpt lat="42.9940206" lon="11.753377"><ele>318.0</ele><time>2026-04-04T13:30:31.512Z</time></trkpt><trkpt lat="42.9939405" lon="11.7534386"><ele>318.0</ele><time>2026-04-04T13:30:32.508Z</time></trkpt><trkpt lat="42.9938382" lon="11.7534699"><ele>318.0</ele><time>2026-04-04T13:30:33.503Z</time></trkpt><trkpt lat="42.993691" lon="11.7534712"><ele>318.0</ele><time>2026-04-04T13:30:34.564Z</time></trkpt><trkpt lat="42.9935228" lon="11.7534399"><ele>318.0</ele><time>2026-04-04T13:30:35.51Z</time></trkpt><trkpt lat="42.9933705" lon="11.7534056"><ele>318.6666666666667</ele><time>2026-04-04T13:30:36.505Z</time></trkpt><trkpt lat="42.9931952" lon="11.7533668"><ele>319.33333333333337</ele><time>2026-04-04T13:30:37.505Z</time></trkpt><trkpt lat="42.993012" lon="11.7533253"><ele>320.0</ele><time>2026-04-04T13:30:38.509Z</time></trkpt><trkpt lat="42.9928266" lon="11.753284"><ele>320.0</ele><time>2026-04-04T13:30:39.514Z</time></trkpt><trkpt lat="42.9926555" lon="11.7532496"><ele>320.0</ele><time>2026-04-04T13:30:40.494Z</time></trkpt><trkpt lat="42.9924788" lon="11.7532107"><ele>320.0</ele><time>2026-04-04T13:30:41.519Z</time></trkpt><trkpt lat="42.9922873" lon="11.7531671"><ele>320.0</ele><time>2026-04-04T13:30:42.48Z</time></trkpt><trkpt lat="42.9920853" lon="11.75312"><ele>320.0</ele><time>2026-04-04T13:30:43.497Z</time></trkpt><trkpt lat="42.9918753" lon="11.7530752"><ele>320.0</ele><time>2026-04-04T13:30:44.515Z</time></trkpt><trkpt lat="42.9916518" lon="11.7530262"><ele>320.0</ele><time>2026-04-04T13:30:45.484Z</time></trkpt><trkpt lat="42.9914229" lon="11.7529859"><ele>320.0</ele><time>2026-04-04T13:30:46.525Z</time></trkpt><trkpt lat="42.9911973" lon="11.7529671"><ele>320.0</ele><time>2026-04-04T13:30:47.502Z</time></trkpt><trkpt lat="42.9909923" lon="11.7529613"><ele>320.0</ele><time>2026-04-04T13:30:48.504Z</time></trkpt><trkpt lat="42.9907811" lon="11.7529687"><ele>320.0</ele><time>2026-04-04T13:30:49.505Z</time></trkpt><trkpt lat="42.9905596" lon="11.7529893"><ele>320.5</ele><time>2026-04-04T13:30:50.508Z</time></trkpt><trkpt lat="42.9903291" lon="11.7530289"><ele>321.0</ele><time>2026-04-04T13:30:51.493Z</time></trkpt><trkpt lat="42.9901051" lon="11.7530856"><ele>320.0</ele><time>2026-04-04T13:30:52.543Z</time></trkpt><trkpt lat="42.9898663" lon="11.7531697"><ele>319.0</ele><time>2026-04-04T13:30:53.526Z</time></trkpt><trkpt lat="42.9896234" lon="11.7532708"><ele>319.0</ele><time>2026-04-04T13:30:54.52Z</time></trkpt><trkpt lat="42.989395" lon="11.7533594"><ele>319.0</ele><time>2026-04-04T13:30:55.516Z</time></trkpt><trkpt lat="42.9891823" lon="11.7534479"><ele>319.3333333333333</ele><time>2026-04-04T13:30:56.506Z</time></trkpt><trkpt lat="42.9889806" lon="11.7535289"><ele>319.6666666666667</ele><time>2026-04-04T13:30:57.492Z</time></trkpt><trkpt lat="42.9887884" lon="11.753609"><ele>320.0</ele><time>2026-04-04T13:30:58.505Z</time></trkpt><trkpt lat="42.9886063" lon="11.7536876"><ele>321.0</ele><time>2026-04-04T13:30:59.512Z</time></trkpt><trkpt lat="42.9884329" lon="11.7537597"><ele>322.0</ele><time>2026-04-04T13:31:00.511Z</time></trkpt><trkpt lat="42.9882565" lon="11.7538385"><ele>323.0</ele><time>2026-04-04T13:31:01.542Z</time></trkpt><trkpt lat="42.9880678" lon="11.7539151"><ele>325.0</ele><time>2026-04-04T13:31:02.496Z</time></trkpt><trkpt lat="42.987884" lon="11.7539916"><ele>327.0</ele><time>2026-04-04T13:31:03.5Z</time></trkpt><trkpt lat="42.9877109" lon="11.7540642"><ele>329.0</ele><time>2026-04-04T13:31:04.5Z</time></trkpt><trkpt lat="42.9875571" lon="11.7541265"><ele>328.0</ele><time>2026-04-04T13:31:05.506Z</time></trkpt><trkpt lat="42.9874152" lon="11.7541749"><ele>327.0</ele><time>2026-04-04T13:31:06.503Z</time></trkpt><trkpt lat="42.9872772" lon="11.7542054"><ele>326.0</ele><time>2026-04-04T13:31:07.505Z</time></trkpt><trkpt lat="42.9871339" lon="11.7541941"><ele>325.0</ele><time>2026-04-04T13:31:08.496Z</time></trkpt><trkpt lat="42.9870025" lon="11.7541349"><ele>325.0</ele><time>2026-04-04T13:31:09.502Z</time></trkpt><trkpt lat="42.9869041" lon="11.7540653"><ele>325.0</ele><time>2026-04-04T13:31:10.506Z</time></trkpt><trkpt lat="42.9868213" lon="11.7539919"><ele>325.0</ele><time>2026-04-04T13:31:11.493Z</time></trkpt><trkpt lat="42.9867432" lon="11.7539265"><ele>325.0</ele><time>2026-04-04T13:31:12.504Z</time></trkpt><trkpt lat="42.9866742" lon="11.7538671"><ele>325.0</ele><time>2026-04-04T13:31:13.516Z</time></trkpt><trkpt lat="42.9866097" lon="11.753819"><ele>323.8333333333333</ele><time>2026-04-04T13:31:14.513Z</time></trkpt><trkpt lat="42.9865419" lon="11.753769"><ele>322.66666666666663</ele><time>2026-04-04T13:31:15.549Z</time></trkpt><trkpt lat="42.9864778" lon="11.7537209"><ele>321.5</ele><time>2026-04-04T13:31:16.515Z</time></trkpt><trkpt lat="42.9864107" lon="11.7536582"><ele>320.3333333333333</ele><time>2026-04-04T13:31:17.517Z</time></trkpt><trkpt lat="42.9863387" lon="11.7535909"><ele>319.1666666666667</ele><time>2026-04-04T13:31:18.51Z</time></trkpt><trkpt lat="42.9862556" lon="11.7535142"><ele>318.0</ele><time>2026-04-04T13:31:19.515Z</time></trkpt><trkpt lat="42.9861639" lon="11.753434"><ele>317.75</ele><time>2026-04-04T13:31:20.51Z</time></trkpt><trkpt lat="42.9860592" lon="11.7533302"><ele>317.5</ele><time>2026-04-04T13:31:21.525Z</time></trkpt><trkpt lat="42.9859495" lon="11.7531935"><ele>317.25</ele><time>2026-04-04T13:31:22.506Z</time></trkpt><trkpt lat="42.9858666" lon="11.7530315"><ele>317.0</ele><time>2026-04-04T13:31:23.513Z</time></trkpt><trkpt lat="42.9858176" lon="11.7528171"><ele>316.6666666666667</ele><time>2026-04-04T13:31:24.506Z</time></trkpt><trkpt lat="42.9858089" lon="11.7526066"><ele>316.3333333333333</ele><time>2026-04-04T13:31:25.507Z</time></trkpt><trkpt lat="42.9858519" lon="11.7523752"><ele>316.0</ele><time>2026-04-04T13:31:26.525Z</time></trkpt><trkpt lat="42.9859363" lon="11.7521695"><ele>316.0</ele><time>2026-04-04T13:31:27.498Z</time></trkpt><trkpt lat="42.9860409" lon="11.7519679"><ele>316.0</ele><time>2026-04-04T13:31:28.541Z</time></trkpt><trkpt lat="42.9861557" lon="11.7517552"><ele>316.0</ele><time>2026-04-04T13:31:29.504Z</time></trkpt><trkpt lat="42.9862811" lon="11.7515316"><ele>318.3333333333333</ele><time>2026-04-04T13:31:30.487Z</time></trkpt><trkpt lat="42.9864012" lon="11.7513054"><ele>320.6666666666667</ele><time>2026-04-04T13:31:31.512Z</time></trkpt><trkpt lat="42.9865187" lon="11.7510921"><ele>323.0</ele><time>2026-04-04T13:31:32.513Z</time></trkpt><trkpt lat="42.9866255" lon="11.7508926"><ele>320.6666666666667</ele><time>2026-04-04T13:31:33.508Z</time></trkpt><trkpt lat="42.9867282" lon="11.7506999"><ele>318.3333333333333</ele><time>2026-04-04T13:31:34.506Z</time></trkpt><trkpt lat="42.9868306" lon="11.7505029"><ele>316.0</ele><time>2026-04-04T13:31:35.525Z</time></trkpt><trkpt lat="42.9869332" lon="11.7503159"><ele>317.75</ele><time>2026-04-04T13:31:36.506Z</time></trkpt><trkpt lat="42.9870098" lon="11.7501537"><ele>319.5</ele><time>2026-04-04T13:31:37.535Z</time></trkpt><trkpt lat="42.9870572" lon="11.7499967"><ele>321.25</ele><time>2026-04-04T13:31:38.496Z</time></trkpt><trkpt lat="42.9870597" lon="11.7498321"><ele>323.0</ele><time>2026-04-04T13:31:39.509Z</time></trkpt><trkpt lat="42.9870182" lon="11.7496688"><ele>323.0</ele><time>2026-04-04T13:31:40.501Z</time></trkpt><trkpt lat="42.9869458" lon="11.7495278"><ele>323.0</ele><time>2026-04-04T13:31:41.513Z</time></trkpt><trkpt lat="42.9868529" lon="11.7494434"><ele>323.0</ele><time>2026-04-04T13:31:42.542Z</time></trkpt><trkpt lat="42.9867261" lon="11.7494154"><ele>323.0</ele><time>2026-04-04T13:31:43.512Z</time></trkpt><trkpt lat="42.9866037" lon="11.7494155"><ele>325.5</ele><time>2026-04-04T13:31:44.485Z</time></trkpt><trkpt lat="42.9864824" lon="11.7494572"><ele>328.0</ele><time>2026-04-04T13:31:45.486Z</time></trkpt><trkpt lat="42.98636" lon="11.7495385"><ele>330.5</ele><time>2026-04-04T13:31:46.507Z</time></trkpt><trkpt lat="42.9862381" lon="11.7496166"><ele>333.0</ele><time>2026-04-04T13:31:47.511Z</time></trkpt><trkpt lat="42.986115" lon="11.7496989"><ele>333.0</ele><time>2026-04-04T13:31:48.483Z</time></trkpt><trkpt lat="42.9859887" lon="11.7497811"><ele>333.0</ele><time>2026-04-04T13:31:49.489Z</time></trkpt><trkpt lat="42.9858567" lon="11.7498722"><ele>333.0</ele><time>2026-04-04T13:31:50.504Z</time></trkpt><trkpt lat="42.9857174" lon="11.7499617"><ele>333.0</ele><time>2026-04-04T13:31:51.523Z</time></trkpt><trkpt lat="42.9855713" lon="11.7500433"><ele>336.3333333333333</ele><time>2026-04-04T13:31:52.501Z</time></trkpt><trkpt lat="42.9854092" lon="11.7501105"><ele>339.66666666666663</ele><time>2026-04-04T13:31:53.501Z</time></trkpt><trkpt lat="42.9852341" lon="11.7501192"><ele>343.0</ele><time>2026-04-04T13:31:54.513Z</time></trkpt><trkpt lat="42.9850568" lon="11.7500883"><ele>347.3333333333333</ele><time>2026-04-04T13:31:55.505Z</time></trkpt><trkpt lat="42.9848645" lon="11.7500296"><ele>351.6666666666667</ele><time>2026-04-04T13:31:56.507Z</time></trkpt><trkpt lat="42.984671" lon="11.7499703"><ele>356.0</ele><time>2026-04-04T13:31:57.517Z</time></trkpt><trkpt lat="42.9844985" lon="11.7499542"><ele>356.0</ele><time>2026-04-04T13:31:58.503Z</time></trkpt><trkpt lat="42.9843261" lon="11.749988"><ele>356.0</ele><time>2026-04-04T13:31:59.513Z</time></trkpt><trkpt lat="42.984147" lon="11.7500709"><ele>356.0</ele><time>2026-04-04T13:32:00.501Z</time></trkpt><trkpt lat="42.9839646" lon="11.7501811"><ele>354.6666666666667</ele><time>2026-04-04T13:32:01.515Z</time></trkpt><trkpt lat="42.9837821" lon="11.7503126"><ele>353.3333333333333</ele><time>2026-04-04T13:32:02.51Z</time></trkpt><trkpt lat="42.9835947" lon="11.7504415"><ele>352.0</ele><time>2026-04-04T13:32:03.511Z</time></trkpt><trkpt lat="42.9834024" lon="11.7505729"><ele>355.3333333333333</ele><time>2026-04-04T13:32:04.517Z</time></trkpt><trkpt lat="42.9831928" lon="11.7506818"><ele>358.6666666666667</ele><time>2026-04-04T13:32:05.519Z</time></trkpt><trkpt lat="42.9829827" lon="11.7507903"><ele>362.0</ele><time>2026-04-04T13:32:06.542Z</time></trkpt><trkpt lat="42.9827976" lon="11.7508931"><ele>362.0</ele><time>2026-04-04T13:32:07.509Z</time></trkpt><trkpt lat="42.9826374" lon="11.7509811"><ele>362.0</ele><time>2026-04-04T13:32:08.508Z</time></trkpt><trkpt lat="42.9824807" lon="11.7510559"><ele>362.0</ele><time>2026-04-04T13:32:09.504Z</time></trkpt><trkpt lat="42.982321" lon="11.7511111"><ele>361.6666666666667</ele><time>2026-04-04T13:32:10.503Z</time></trkpt><trkpt lat="42.9821557" lon="11.7511517"><ele>361.3333333333333</ele><time>2026-04-04T13:32:11.529Z</time></trkpt><trkpt lat="42.9819678" lon="11.751182"><ele>361.0</ele><time>2026-04-04T13:32:12.501Z</time></trkpt><trkpt lat="42.9817668" lon="11.7512045"><ele>363.66666666666663</ele><time>2026-04-04T13:32:13.474Z</time></trkpt><trkpt lat="42.981559" lon="11.7512201"><ele>366.3333333333333</ele><time>2026-04-04T13:32:14.481Z</time></trkpt><trkpt lat="42.9813583" lon="11.7512245"><ele>369.0</ele><time>2026-04-04T13:32:15.483Z</time></trkpt><trkpt lat="42.981155" lon="11.7512314"><ele>369.0</ele><time>2026-04-04T13:32:16.501Z</time></trkpt><trkpt lat="42.9809514" lon="11.751232"><ele>369.0</ele><time>2026-04-04T13:32:17.502Z</time></trkpt><trkpt lat="42.9807572" lon="11.7512419"><ele>369.0</ele><time>2026-04-04T13:32:18.502Z</time></trkpt><trkpt lat="42.9805871" lon="11.7512205"><ele>370.25</ele><time>2026-04-04T13:32:19.503Z</time></trkpt><trkpt lat="42.9804399" lon="11.7511639"><ele>371.5</ele><time>2026-04-04T13:32:20.507Z</time></trkpt><trkpt lat="42.9803101" lon="11.7510744"><ele>372.75</ele><time>2026-04-04T13:32:21.502Z</time></trkpt><trkpt lat="42.9802157" lon="11.7509434"><ele>374.0</ele><time>2026-04-04T13:32:22.512Z</time></trkpt><trkpt lat="42.9801594" lon="11.750783"><ele>376.5</ele><time>2026-04-04T13:32:23.521Z</time></trkpt><trkpt lat="42.9801416" lon="11.7506061"><ele>379.0</ele><time>2026-04-04T13:32:24.502Z</time></trkpt><trkpt lat="42.9801603" lon="11.7504323"><ele>381.5</ele><time>2026-04-04T13:32:25.52Z</time></trkpt><trkpt lat="42.9802252" lon="11.7502689"><ele>384.0</ele><time>2026-04-04T13:32:26.518Z</time></trkpt><trkpt lat="42.9803176" lon="11.7501358"><ele>388.0</ele><time>2026-04-04T13:32:27.496Z</time></trkpt><trkpt lat="42.9804472" lon="11.7500234"><ele>392.0</ele><time>2026-04-04T13:32:28.502Z</time></trkpt><trkpt lat="42.9805899" lon="11.7499208"><ele>396.0</ele><time>2026-04-04T13:32:29.481Z</time></trkpt><trkpt lat="42.9807523" lon="11.7498093"><ele>392.0</ele><time>2026-04-04T13:32:30.514Z</time></trkpt><trkpt lat="42.9809254" lon="11.7496885"><ele>388.0</ele><time>2026-04-04T13:32:31.532Z</time></trkpt><trkpt lat="42.9811092" lon="11.749568"><ele>384.0</ele><time>2026-04-04T13:32:32.505Z</time></trkpt><trkpt lat="42.9812846" lon="11.749449"><ele>383.3333333333333</ele><time>2026-04-04T13:32:33.486Z</time></trkpt><trkpt lat="42.9814382" lon="11.7493463"><ele>382.66666666666663</ele><time>2026-04-04T13:32:34.48Z</time></trkpt><trkpt lat="42.9815752" lon="11.7492623"><ele>382.0</ele><time>2026-04-04T13:32:35.514Z</time></trkpt><trkpt lat="42.9817018" lon="11.7491737"><ele>382.0</ele><time>2026-04-04T13:32:36.511Z</time></trkpt><trkpt lat="42.9818052" lon="11.7490642"><ele>382.0</ele><time>2026-04-04T13:32:37.505Z</time></trkpt><trkpt lat="42.9818788" lon="11.7489282"><ele>382.0</ele><time>2026-04-04T13:32:38.513Z</time></trkpt><trkpt lat="42.9819231" lon="11.7487818"><ele>382.0</ele><time>2026-04-04T13:32:39.506Z</time></trkpt><trkpt lat="42.9819471" lon="11.7486289"><ele>383.0</ele><time>2026-04-04T13:32:40.509Z</time></trkpt><trkpt lat="42.9819375" lon="11.7484705"><ele>384.0</ele><time>2026-04-04T13:32:41.504Z</time></trkpt><trkpt lat="42.9818914" lon="11.7483222"><ele>385.0</ele><time>2026-04-04T13:32:42.512Z</time></trkpt><trkpt lat="42.981814" lon="11.7481713"><ele>386.0</ele><time>2026-04-04T13:32:43.513Z</time></trkpt><trkpt lat="42.9817038" lon="11.748027"><ele>390.0</ele><time>2026-04-04T13:32:44.521Z</time></trkpt><trkpt lat="42.9815513" lon="11.7478922"><ele>394.0</ele><time>2026-04-04T13:32:45.505Z</time></trkpt><trkpt lat="42.9813777" lon="11.7477481"><ele>398.0</ele><time>2026-04-04T13:32:46.506Z</time></trkpt><trkpt lat="42.9812123" lon="11.7476043"><ele>398.0</ele><time>2026-04-04T13:32:47.488Z</time></trkpt><trkpt lat="42.9810524" lon="11.7474732"><ele>398.0</ele><time>2026-04-04T13:32:48.491Z</time></trkpt><trkpt lat="42.9808862" lon="11.7473371"><ele>398.0</ele><time>2026-04-04T13:32:49.497Z</time></trkpt><trkpt lat="42.980712" lon="11.7471821"><ele>401.5</ele><time>2026-04-04T13:32:50.501Z</time></trkpt><trkpt lat="42.9805395" lon="11.7470009"><ele>405.0</ele><time>2026-04-04T13:32:51.523Z</time></trkpt><trkpt lat="42.9803717" lon="11.7467625"><ele>405.0</ele><time>2026-04-04T13:32:52.507Z</time></trkpt><trkpt lat="42.9802158" lon="11.7465218"><ele>405.0</ele><time>2026-04-04T13:32:53.507Z</time></trkpt><trkpt lat="42.9800748" lon="11.746306"><ele>405.0</ele><time>2026-04-04T13:32:54.482Z</time></trkpt><trkpt lat="42.9799409" lon="11.7460969"><ele>408.66666666666663</ele><time>2026-04-04T13:32:55.476Z</time></trkpt><trkpt lat="42.979822" lon="11.7459026"><ele>412.3333333333333</ele><time>2026-04-04T13:32:56.503Z</time></trkpt><trkpt lat="42.9797137" lon="11.7456804"><ele>416.0</ele><time>2026-04-04T13:32:57.5Z</time></trkpt><trkpt lat="42.9796273" lon="11.7454341"><ele>416.66666666666663</ele><time>2026-04-04T13:32:58.485Z</time></trkpt><trkpt lat="42.979561" lon="11.7451575"><ele>417.33333333333337</ele><time>2026-04-04T13:32:59.485Z</time></trkpt><trkpt lat="42.9795256" lon="11.7448809"><ele>418.0</ele><time>2026-04-04T13:33:00.502Z</time></trkpt><trkpt lat="42.9795146" lon="11.7446139"><ele>419.33333333333337</ele><time>2026-04-04T13:33:01.478Z</time></trkpt><trkpt lat="42.9795172" lon="11.7443353"><ele>420.66666666666663</ele><time>2026-04-04T13:33:02.537Z</time></trkpt><trkpt lat="42.9795252" lon="11.7440453"><ele>422.0</ele><time>2026-04-04T13:33:03.516Z</time></trkpt><trkpt lat="42.979535" lon="11.743772"><ele>423.66666666666663</ele><time>2026-04-04T13:33:04.481Z</time></trkpt><trkpt lat="42.979543" lon="11.7435164"><ele>425.33333333333337</ele><time>2026-04-04T13:33:05.507Z</time></trkpt><trkpt lat="42.9795554" lon="11.7432601"><ele>427.0</ele><time>2026-04-04T13:33:06.51Z</time></trkpt><trkpt lat="42.9795646" lon="11.7430096"><ele>427.0</ele><time>2026-04-04T13:33:07.546Z</time></trkpt><trkpt lat="42.979575" lon="11.7427562"><ele>427.0</ele><time>2026-04-04T13:33:08.511Z</time></trkpt><trkpt lat="42.9795792" lon="11.7425113"><ele>427.0</ele><time>2026-04-04T13:33:09.51Z</time></trkpt><trkpt lat="42.9795837" lon="11.7422916"><ele>429.33333333333337</ele><time>2026-04-04T13:33:10.507Z</time></trkpt><trkpt lat="42.9795913" lon="11.7420763"><ele>431.66666666666663</ele><time>2026-04-04T13:33:11.513Z</time></trkpt><trkpt lat="42.9795955" lon="11.7418642"><ele>434.0</ele><time>2026-04-04T13:33:12.519Z</time></trkpt><trkpt lat="42.9795915" lon="11.7416456"><ele>434.3333333333333</ele><time>2026-04-04T13:33:13.507Z</time></trkpt><trkpt lat="42.9795582" lon="11.7414284"><ele>434.66666666666663</ele><time>2026-04-04T13:33:14.489Z</time></trkpt><trkpt lat="42.9794976" lon="11.7412238"><ele>435.0</ele><time>2026-04-04T13:33:15.537Z</time></trkpt><trkpt lat="42.979415" lon="11.7410657"><ele>433.75</ele><time>2026-04-04T13:33:16.508Z</time></trkpt><trkpt lat="42.9793145" lon="11.740952"><ele>432.5</ele><time>2026-04-04T13:33:17.496Z</time></trkpt><trkpt lat="42.9791908" lon="11.7408544"><ele>431.25</ele><time>2026-04-04T13:33:18.497Z</time></trkpt><trkpt lat="42.9790552" lon="11.7407676"><ele>430.0</ele><time>2026-04-04T13:33:19.506Z</time></trkpt><trkpt lat="42.9789123" lon="11.7406902"><ele>434.33333333333337</ele><time>2026-04-04T13:33:20.509Z</time></trkpt><trkpt lat="42.9787633" lon="11.7406102"><ele>438.66666666666663</ele><time>2026-04-04T13:33:21.499Z</time></trkpt><trkpt lat="42.9786036" lon="11.7405196"><ele>443.0</ele><time>2026-04-04T13:33:22.501Z</time></trkpt><trkpt lat="42.9784411" lon="11.7404265"><ele>445.3333333333333</ele><time>2026-04-04T13:33:23.511Z</time></trkpt><trkpt lat="42.9782643" lon="11.7403281"><ele>447.66666666666663</ele><time>2026-04-04T13:33:24.48Z</time></trkpt><trkpt lat="42.9780825" lon="11.7402227"><ele>450.0</ele><time>2026-04-04T13:33:25.493Z</time></trkpt><trkpt lat="42.9779061" lon="11.7401166"><ele>450.0</ele><time>2026-04-04T13:33:26.493Z</time></trkpt><trkpt lat="42.9777544" lon="11.7400181"><ele>450.0</ele><time>2026-04-04T13:33:27.498Z</time></trkpt><trkpt lat="42.9776171" lon="11.7398919"><ele>450.0</ele><time>2026-04-04T13:33:28.492Z</time></trkpt><trkpt lat="42.9774946" lon="11.7397255"><ele>451.66666666666663</ele><time>2026-04-04T13:33:29.501Z</time></trkpt><trkpt lat="42.9773787" lon="11.7395356"><ele>453.3333333333333</ele><time>2026-04-04T13:33:30.483Z</time></trkpt><trkpt lat="42.9772688" lon="11.7393704"><ele>455.0</ele><time>2026-04-04T13:33:31.493Z</time></trkpt><trkpt lat="42.9771586" lon="11.7392416"><ele>455.0</ele><time>2026-04-04T13:33:32.53Z</time></trkpt><trkpt lat="42.9770398" lon="11.7391485"><ele>455.0</ele><time>2026-04-04T13:33:33.506Z</time></trkpt><trkpt lat="42.9769079" lon="11.7390755"><ele>455.0</ele><time>2026-04-04T13:33:34.507Z</time></trkpt><trkpt lat="42.976761" lon="11.7390269"><ele>455.0</ele><time>2026-04-04T13:33:35.514Z</time></trkpt><trkpt lat="42.9766242" lon="11.7390075"><ele>456.75</ele><time>2026-04-04T13:33:36.517Z</time></trkpt><trkpt lat="42.9764931" lon="11.739016"><ele>458.5</ele><time>2026-04-04T13:33:37.497Z</time></trkpt><trkpt lat="42.9763708" lon="11.7390523"><ele>460.25</ele><time>2026-04-04T13:33:38.536Z</time></trkpt><trkpt lat="42.9762722" lon="11.7391031"><ele>462.0</ele><time>2026-04-04T13:33:39.515Z</time></trkpt><trkpt lat="42.9761982" lon="11.739213"><ele>462.0</ele><time>2026-04-04T13:33:40.497Z</time></trkpt><trkpt lat="42.9761471" lon="11.7393385"><ele>462.00000000000006</ele><time>2026-04-04T13:33:41.512Z</time></trkpt><trkpt lat="42.9761203" lon="11.7394755"><ele>462.00000000000006</ele><time>2026-04-04T13:33:42.518Z</time></trkpt><trkpt lat="42.9761183" lon="11.7396288"><ele>462.0</ele><time>2026-04-04T13:33:43.499Z</time></trkpt><trkpt lat="42.9761387" lon="11.7397894"><ele>462.0</ele><time>2026-04-04T13:33:44.502Z</time></trkpt><trkpt lat="42.9761929" lon="11.7399568"><ele>463.0</ele><time>2026-04-04T13:33:45.495Z</time></trkpt><trkpt lat="42.9762694" lon="11.7401133"><ele>464.0</ele><time>2026-04-04T13:33:46.498Z</time></trkpt><trkpt lat="42.9763559" lon="11.7402758"><ele>465.0</ele><time>2026-04-04T13:33:47.477Z</time></trkpt><trkpt lat="42.9764293" lon="11.740429"><ele>466.0</ele><time>2026-04-04T13:33:48.499Z</time></trkpt><trkpt lat="42.9764947" lon="11.7405511"><ele>467.50000000000006</ele><time>2026-04-04T13:33:49.506Z</time></trkpt><trkpt lat="42.9765502" lon="11.7406501"><ele>469.0</ele><time>2026-04-04T13:33:50.512Z</time></trkpt><trkpt lat="42.9765829" lon="11.7407351"><ele>470.5</ele><time>2026-04-04T13:33:51.487Z</time></trkpt><trkpt lat="42.9765289" lon="11.7408551"><ele>472.0</ele><time>2026-04-04T13:33:53.506Z</time></trkpt><trkpt lat="42.9764668" lon="11.7408792"><ele>473.50000000000006</ele><time>2026-04-04T13:33:54.507Z</time></trkpt><trkpt lat="42.9763928" lon="11.7408474"><ele>475.0</ele><time>2026-04-04T13:33:55.499Z</time></trkpt><trkpt lat="42.9763328" lon="11.7407694"><ele>475.0</ele><time>2026-04-04T13:33:56.494Z</time></trkpt><trkpt lat="42.9762544" lon="11.7406388"><ele>475.0</ele><time>2026-04-04T13:33:57.479Z</time></trkpt><trkpt lat="42.9761694" lon="11.740491"><ele>475.0</ele><time>2026-04-04T13:33:58.516Z</time></trkpt><trkpt lat="42.9760885" lon="11.7403771"><ele>475.0</ele><time>2026-04-04T13:33:59.512Z</time></trkpt><trkpt lat="42.9759946" lon="11.7402773"><ele>475.5</ele><time>2026-04-04T13:34:00.484Z</time></trkpt><trkpt lat="42.9758667" lon="11.7401734"><ele>476.0</ele><time>2026-04-04T13:34:01.503Z</time></trkpt><trkpt lat="42.9757159" lon="11.7400992"><ele>476.5</ele><time>2026-04-04T13:34:02.511Z</time></trkpt><trkpt lat="42.9755886" lon="11.7400469"><ele>477.0</ele><time>2026-04-04T13:34:03.476Z</time></trkpt><trkpt lat="42.9755054" lon="11.7399642"><ele>477.0</ele><time>2026-04-04T13:34:04.51Z</time></trkpt><trkpt lat="42.9754283" lon="11.7398222"><ele>477.0</ele><time>2026-04-04T13:34:05.491Z</time></trkpt><trkpt lat="42.9753769" lon="11.7396138"><ele>477.0</ele><time>2026-04-04T13:34:06.498Z</time></trkpt><trkpt lat="42.9753113" lon="11.7394024"><ele>476.25</ele><time>2026-04-04T13:34:07.491Z</time></trkpt><trkpt lat="42.9752448" lon="11.7392155"><ele>475.5</ele><time>2026-04-04T13:34:08.5Z</time></trkpt><trkpt lat="42.975198" lon="11.7390575"><ele>474.75</ele><time>2026-04-04T13:34:09.495Z</time></trkpt><trkpt lat="42.9751426" lon="11.7389274"><ele>474.0</ele><time>2026-04-04T13:34:10.5Z</time></trkpt><trkpt lat="42.9750495" lon="11.7388273"><ele>478.33333333333337</ele><time>2026-04-04T13:34:11.479Z</time></trkpt><trkpt lat="42.9749272" lon="11.7387552"><ele>482.6666666666667</ele><time>2026-04-04T13:34:12.48Z</time></trkpt><trkpt lat="42.9747832" lon="11.7387177"><ele>487.0</ele><time>2026-04-04T13:34:13.483Z</time></trkpt><trkpt lat="42.9746137" lon="11.7386816"><ele>487.0</ele><time>2026-04-04T13:34:14.509Z</time></trkpt><trkpt lat="42.9744403" lon="11.7386298"><ele>487.0</ele><time>2026-04-04T13:34:15.499Z</time></trkpt><trkpt lat="42.9742743" lon="11.7385816"><ele>487.0</ele><time>2026-04-04T13:34:16.479Z</time></trkpt><trkpt lat="42.9741392" lon="11.7385317"><ele>487.0</ele><time>2026-04-04T13:34:17.485Z</time></trkpt><trkpt lat="42.9740426" lon="11.7384531"><ele>487.0</ele><time>2026-04-04T13:34:18.513Z</time></trkpt><trkpt lat="42.9739764" lon="11.7383202"><ele>487.0</ele><time>2026-04-04T13:34:19.534Z</time></trkpt><trkpt lat="42.9739108" lon="11.7381742"><ele>487.0</ele><time>2026-04-04T13:34:20.499Z</time></trkpt><trkpt lat="42.9738329" lon="11.7380129"><ele>487.0</ele><time>2026-04-04T13:34:21.494Z</time></trkpt><trkpt lat="42.9737573" lon="11.7378638"><ele>487.0</ele><time>2026-04-04T13:34:22.498Z</time></trkpt><trkpt lat="42.9736825" lon="11.7377357"><ele>487.0</ele><time>2026-04-04T13:34:23.5Z</time></trkpt><trkpt lat="42.9735907" lon="11.7376521"><ele>487.0</ele><time>2026-04-04T13:34:24.512Z</time></trkpt><trkpt lat="42.9734851" lon="11.7375844"><ele>486.0</ele><time>2026-04-04T13:34:25.494Z</time></trkpt><trkpt lat="42.9733703" lon="11.7375167"><ele>485.0</ele><time>2026-04-04T13:34:26.483Z</time></trkpt><trkpt lat="42.9732391" lon="11.7374388"><ele>484.0</ele><time>2026-04-04T13:34:27.502Z</time></trkpt><trkpt lat="42.9730897" lon="11.7373425"><ele>483.0</ele><time>2026-04-04T13:34:28.502Z</time></trkpt><trkpt lat="42.9729305" lon="11.7372457"><ele>486.0</ele><time>2026-04-04T13:34:29.529Z</time></trkpt><trkpt lat="42.9727485" lon="11.7371446"><ele>489.0</ele><time>2026-04-04T13:34:30.508Z</time></trkpt><trkpt lat="42.972559" lon="11.7370382"><ele>492.0</ele><time>2026-04-04T13:34:31.506Z</time></trkpt><trkpt lat="42.9723593" lon="11.7369286"><ele>492.33333333333337</ele><time>2026-04-04T13:34:32.48Z</time></trkpt><trkpt lat="42.97215" lon="11.7368"><ele>492.6666666666667</ele><time>2026-04-04T13:34:33.491Z</time></trkpt><trkpt lat="42.9719531" lon="11.736676"><ele>493.0</ele><time>2026-04-04T13:34:34.496Z</time></trkpt><trkpt lat="42.9717774" lon="11.7365657"><ele>497.0</ele><time>2026-04-04T13:34:35.51Z</time></trkpt><trkpt lat="42.971599" lon="11.7364615"><ele>501.0</ele><time>2026-04-04T13:34:36.504Z</time></trkpt><trkpt lat="42.9714109" lon="11.7363529"><ele>505.0</ele><time>2026-04-04T13:34:37.534Z</time></trkpt><trkpt lat="42.9712167" lon="11.7362543"><ele>505.0</ele><time>2026-04-04T13:34:38.5Z</time></trkpt><trkpt lat="42.9710383" lon="11.7361816"><ele>505.0</ele><time>2026-04-04T13:34:39.511Z</time></trkpt><trkpt lat="42.9708652" lon="11.7361357"><ele>505.0</ele><time>2026-04-04T13:34:40.502Z</time></trkpt><trkpt lat="42.9706927" lon="11.7361113"><ele>506.33333333333337</ele><time>2026-04-04T13:34:41.512Z</time></trkpt><trkpt lat="42.9705061" lon="11.7361137"><ele>507.66666666666663</ele><time>2026-04-04T13:34:42.497Z</time></trkpt><trkpt lat="42.970323" lon="11.7361382"><ele>509.0</ele><time>2026-04-04T13:34:43.485Z</time></trkpt><trkpt lat="42.9701548" lon="11.7361271"><ele>509.3333333333333</ele><time>2026-04-04T13:34:44.509Z</time></trkpt><trkpt lat="42.970003" lon="11.7360413"><ele>509.66666666666663</ele><time>2026-04-04T13:34:45.506Z</time></trkpt><trkpt lat="42.9698691" lon="11.7359251"><ele>510.0</ele><time>2026-04-04T13:34:46.532Z</time></trkpt><trkpt lat="42.9697298" lon="11.7357848"><ele>510.0</ele><time>2026-04-04T13:34:47.509Z</time></trkpt><trkpt lat="42.9695881" lon="11.7356152"><ele>510.0</ele><time>2026-04-04T13:34:48.513Z</time></trkpt><trkpt lat="42.969442" lon="11.7354191"><ele>510.0</ele><time>2026-04-04T13:34:49.506Z</time></trkpt><trkpt lat="42.9693156" lon="11.7352067"><ele>508.66666666666663</ele><time>2026-04-04T13:34:50.497Z</time></trkpt><trkpt lat="42.9691988" lon="11.7349949"><ele>507.3333333333333</ele><time>2026-04-04T13:34:51.502Z</time></trkpt><trkpt lat="42.9690838" lon="11.7348088"><ele>506.0</ele><time>2026-04-04T13:34:52.511Z</time></trkpt><trkpt lat="42.9689567" lon="11.7346485"><ele>509.66666666666663</ele><time>2026-04-04T13:34:53.515Z</time></trkpt><trkpt lat="42.9688135" lon="11.7344966"><ele>513.3333333333334</ele><time>2026-04-04T13:34:54.508Z</time></trkpt><trkpt lat="42.9686689" lon="11.7343415"><ele>517.0</ele><time>2026-04-04T13:34:55.506Z</time></trkpt><trkpt lat="42.9685182" lon="11.7341632"><ele>519.3333333333334</ele><time>2026-04-04T13:34:56.509Z</time></trkpt><trkpt lat="42.9683667" lon="11.7339816"><ele>521.6666666666666</ele><time>2026-04-04T13:34:57.508Z</time></trkpt><trkpt lat="42.9682247" lon="11.733818"><ele>524.0</ele><time>2026-04-04T13:34:58.5Z</time></trkpt><trkpt lat="42.9680811" lon="11.7336843"><ele>524.6666666666666</ele><time>2026-04-04T13:34:59.507Z</time></trkpt><trkpt lat="42.9679285" lon="11.7335651"><ele>525.3333333333334</ele><time>2026-04-04T13:35:00.513Z</time></trkpt><trkpt lat="42.9677738" lon="11.7334754"><ele>526.0</ele><time>2026-04-04T13:35:01.514Z</time></trkpt><trkpt lat="42.9676356" lon="11.7334055"><ele>528.5</ele><time>2026-04-04T13:35:02.486Z</time></trkpt><trkpt lat="42.9675076" lon="11.7333678"><ele>531.0</ele><time>2026-04-04T13:35:03.491Z</time></trkpt><trkpt lat="42.9673765" lon="11.7333704"><ele>533.5</ele><time>2026-04-04T13:35:04.5Z</time></trkpt><trkpt lat="42.9672515" lon="11.7334336"><ele>536.0</ele><time>2026-04-04T13:35:05.503Z</time></trkpt><trkpt lat="42.9671308" lon="11.7335321"><ele>534.0</ele><time>2026-04-04T13:35:06.523Z</time></trkpt><trkpt lat="42.9670092" lon="11.7335949"><ele>532.0</ele><time>2026-04-04T13:35:07.501Z</time></trkpt><trkpt lat="42.966863" lon="11.7336166"><ele>530.0</ele><time>2026-04-04T13:35:08.512Z</time></trkpt><trkpt lat="42.9667021" lon="11.7335872"><ele>528.0</ele><time>2026-04-04T13:35:09.507Z</time></trkpt><trkpt lat="42.9665384" lon="11.7335189"><ele>532.0</ele><time>2026-04-04T13:35:10.517Z</time></trkpt><trkpt lat="42.9664044" lon="11.7334324"><ele>536.0</ele><time>2026-04-04T13:35:11.538Z</time></trkpt><trkpt lat="42.9662934" lon="11.7333189"><ele>540.0</ele><time>2026-04-04T13:35:12.493Z</time></trkpt><trkpt lat="42.9662147" lon="11.7331813"><ele>544.0</ele><time>2026-04-04T13:35:13.525Z</time></trkpt><trkpt lat="42.9661656" lon="11.733012"><ele>544.0</ele><time>2026-04-04T13:35:14.502Z</time></trkpt><trkpt lat="42.966113" lon="11.732812"><ele>544.0</ele><time>2026-04-04T13:35:15.507Z</time></trkpt><trkpt lat="42.9660431" lon="11.7325914"><ele>544.0</ele><time>2026-04-04T13:35:16.514Z</time></trkpt><trkpt lat="42.9659675" lon="11.7323728"><ele>544.25</ele><time>2026-04-04T13:35:17.508Z</time></trkpt><trkpt lat="42.9658908" lon="11.7321787"><ele>544.5</ele><time>2026-04-04T13:35:18.515Z</time></trkpt><trkpt lat="42.9658166" lon="11.7320219"><ele>544.75</ele><time>2026-04-04T13:35:19.518Z</time></trkpt><trkpt lat="42.9657365" lon="11.731934"><ele>545.0</ele><time>2026-04-04T13:35:20.496Z</time></trkpt><trkpt lat="42.9656448" lon="11.7319001"><ele>548.25</ele><time>2026-04-04T13:35:21.501Z</time></trkpt><trkpt lat="42.96555" lon="11.7319285"><ele>551.5</ele><time>2026-04-04T13:35:22.519Z</time></trkpt><trkpt lat="42.9654419" lon="11.731943"><ele>554.75</ele><time>2026-04-04T13:35:23.512Z</time></trkpt><trkpt lat="42.9653247" lon="11.7319094"><ele>558.0</ele><time>2026-04-04T13:35:24.527Z</time></trkpt><trkpt lat="42.9652065" lon="11.7318122"><ele>558.25</ele><time>2026-04-04T13:35:25.514Z</time></trkpt><trkpt lat="42.9650814" lon="11.7316981"><ele>558.5</ele><time>2026-04-04T13:35:26.502Z</time></trkpt><trkpt lat="42.9649619" lon="11.7315599"><ele>558.75</ele><time>2026-04-04T13:35:27.508Z</time></trkpt><trkpt lat="42.9648916" lon="11.7314082"><ele>559.0</ele><time>2026-04-04T13:35:28.515Z</time></trkpt><trkpt lat="42.964868" lon="11.7312308"><ele>563.6666666666667</ele><time>2026-04-04T13:35:29.501Z</time></trkpt><trkpt lat="42.9648585" lon="11.7310266"><ele>568.3333333333334</ele><time>2026-04-04T13:35:30.514Z</time></trkpt><trkpt lat="42.9648514" lon="11.7308076"><ele>573.0</ele><time>2026-04-04T13:35:31.496Z</time></trkpt><trkpt lat="42.9648409" lon="11.7305762"><ele>573.0</ele><time>2026-04-04T13:35:32.517Z</time></trkpt><trkpt lat="42.9648256" lon="11.7303494"><ele>573.0</ele><time>2026-04-04T13:35:33.513Z</time></trkpt><trkpt lat="42.9648069" lon="11.7301463"><ele>573.0</ele><time>2026-04-04T13:35:34.535Z</time></trkpt><trkpt lat="42.964777" lon="11.7299675"><ele>573.0</ele><time>2026-04-04T13:35:35.498Z</time></trkpt><trkpt lat="42.9647228" lon="11.7298037"><ele>573.0</ele><time>2026-04-04T13:35:36.521Z</time></trkpt><trkpt lat="42.9646528" lon="11.7296433"><ele>573.0</ele><time>2026-04-04T13:35:37.522Z</time></trkpt><trkpt lat="42.9645554" lon="11.7294954"><ele>573.0</ele><time>2026-04-04T13:35:38.503Z</time></trkpt><trkpt lat="42.9644428" lon="11.7293534"><ele>571.6666666666666</ele><time>2026-04-04T13:35:39.5Z</time></trkpt><trkpt lat="42.964304" lon="11.729217"><ele>570.3333333333333</ele><time>2026-04-04T13:35:40.497Z</time></trkpt><trkpt lat="42.9641588" lon="11.7290649"><ele>569.0</ele><time>2026-04-04T13:35:41.514Z</time></trkpt><trkpt lat="42.9640082" lon="11.7289005"><ele>571.6666666666666</ele><time>2026-04-04T13:35:42.501Z</time></trkpt><trkpt lat="42.9638555" lon="11.7287423"><ele>574.3333333333334</ele><time>2026-04-04T13:35:43.531Z</time></trkpt><trkpt lat="42.9637146" lon="11.728596"><ele>577.0</ele><time>2026-04-04T13:35:44.504Z</time></trkpt><trkpt lat="42.9635871" lon="11.7284558"><ele>577.0</ele><time>2026-04-04T13:35:45.496Z</time></trkpt><trkpt lat="42.9634645" lon="11.7283257"><ele>577.0</ele><time>2026-04-04T13:35:46.498Z</time></trkpt><trkpt lat="42.9633535" lon="11.7282084"><ele>577.0</ele><time>2026-04-04T13:35:47.481Z</time></trkpt><trkpt lat="42.9632494" lon="11.7281182"><ele>577.0</ele><time>2026-04-04T13:35:48.512Z</time></trkpt><trkpt lat="42.9631327" lon="11.7280572"><ele>580.0</ele><time>2026-04-04T13:35:49.498Z</time></trkpt><trkpt lat="42.9630163" lon="11.7280057"><ele>583.0</ele><time>2026-04-04T13:35:50.477Z</time></trkpt><trkpt lat="42.9628875" lon="11.7279504"><ele>586.0</ele><time>2026-04-04T13:35:51.51Z</time></trkpt><trkpt lat="42.9627591" lon="11.7278899"><ele>589.0</ele><time>2026-04-04T13:35:52.479Z</time></trkpt><trkpt lat="42.9626187" lon="11.7278251"><ele>588.5</ele><time>2026-04-04T13:35:53.482Z</time></trkpt><trkpt lat="42.9624787" lon="11.727764"><ele>588.0</ele><time>2026-04-04T13:35:54.482Z</time></trkpt><trkpt lat="42.9623635" lon="11.7276914"><ele>587.5</ele><time>2026-04-04T13:35:55.501Z</time></trkpt><trkpt lat="42.9622787" lon="11.7276089"><ele>587.0</ele><time>2026-04-04T13:35:56.507Z</time></trkpt><trkpt lat="42.9622117" lon="11.727503"><ele>587.0</ele><time>2026-04-04T13:35:57.499Z</time></trkpt><trkpt lat="42.9621661" lon="11.7273914"><ele>587.0</ele><time>2026-04-04T13:35:58.519Z</time></trkpt><trkpt lat="42.9621309" lon="11.7272722"><ele>587.0</ele><time>2026-04-04T13:35:59.497Z</time></trkpt><trkpt lat="42.9620921" lon="11.7271613"><ele>587.0</ele><time>2026-04-04T13:36:00.508Z</time></trkpt><trkpt lat="42.9620505" lon="11.7270658"><ele>587.0</ele><time>2026-04-04T13:36:01.507Z</time></trkpt><trkpt lat="42.9619942" lon="11.7269827"><ele>587.0</ele><time>2026-04-04T13:36:02.506Z</time></trkpt><trkpt lat="42.9619177" lon="11.7269315"><ele>587.0</ele><time>2026-04-04T13:36:03.525Z</time></trkpt><trkpt lat="42.9618346" lon="11.7269173"><ele>587.0</ele><time>2026-04-04T13:36:04.506Z</time></trkpt><trkpt lat="42.9617426" lon="11.7269326"><ele>587.0</ele><time>2026-04-04T13:36:05.507Z</time></trkpt><trkpt lat="42.9616458" lon="11.7269712"><ele>587.0</ele><time>2026-04-04T13:36:06.51Z</time></trkpt><trkpt lat="42.961531" lon="11.7270217"><ele>587.0</ele><time>2026-04-04T13:36:07.521Z</time></trkpt><trkpt lat="42.9614042" lon="11.7270715"><ele>590.3333333333333</ele><time>2026-04-04T13:36:08.51Z</time></trkpt><trkpt lat="42.9612555" lon="11.7271118"><ele>593.6666666666666</ele><time>2026-04-04T13:36:09.514Z</time></trkpt><trkpt lat="42.9610956" lon="11.7271247"><ele>597.0</ele><time>2026-04-04T13:36:10.492Z</time></trkpt><trkpt lat="42.9609209" lon="11.7271174"><ele>598.6666666666666</ele><time>2026-04-04T13:36:11.51Z</time></trkpt><trkpt lat="42.9607418" lon="11.7270932"><ele>600.3333333333333</ele><time>2026-04-04T13:36:12.508Z</time></trkpt><trkpt lat="42.9605861" lon="11.7270569"><ele>602.0</ele><time>2026-04-04T13:36:13.519Z</time></trkpt><trkpt lat="42.9604439" lon="11.7270045"><ele>602.0</ele><time>2026-04-04T13:36:14.525Z</time></trkpt><trkpt lat="42.9602951" lon="11.726951"><ele>602.0</ele><time>2026-04-04T13:36:15.478Z</time></trkpt><trkpt lat="42.9601372" lon="11.7268899"><ele>602.0</ele><time>2026-04-04T13:36:16.491Z</time></trkpt><trkpt lat="42.9599715" lon="11.7268381"><ele>599.75</ele><time>2026-04-04T13:36:17.511Z</time></trkpt><trkpt lat="42.959821" lon="11.7267868"><ele>597.5</ele><time>2026-04-04T13:36:18.516Z</time></trkpt><trkpt lat="42.9596835" lon="11.7267437"><ele>595.25</ele><time>2026-04-04T13:36:19.518Z</time></trkpt><trkpt lat="42.9595463" lon="11.7267026"><ele>593.0</ele><time>2026-04-04T13:36:20.478Z</time></trkpt><trkpt lat="42.9594227" lon="11.7266643"><ele>593.0</ele><time>2026-04-04T13:36:21.503Z</time></trkpt><trkpt lat="42.9593182" lon="11.7266365"><ele>593.0</ele><time>2026-04-04T13:36:22.502Z</time></trkpt><trkpt lat="42.9592216" lon="11.7266202"><ele>593.0</ele><time>2026-04-04T13:36:23.506Z</time></trkpt><trkpt lat="42.9591248" lon="11.7266435"><ele>593.0</ele><time>2026-04-04T13:36:24.507Z</time></trkpt><trkpt lat="42.9590205" lon="11.7266926"><ele>593.0</ele><time>2026-04-04T13:36:25.484Z</time></trkpt><trkpt lat="42.9589143" lon="11.7267661"><ele>592.5</ele><time>2026-04-04T13:36:26.479Z</time></trkpt><trkpt lat="42.9588064" lon="11.726858"><ele>592.0</ele><time>2026-04-04T13:36:27.494Z</time></trkpt><trkpt lat="42.9586931" lon="11.7269581"><ele>591.5</ele><time>2026-04-04T13:36:28.502Z</time></trkpt><trkpt lat="42.9585924" lon="11.7270547"><ele>591.0</ele><time>2026-04-04T13:36:29.51Z</time></trkpt><trkpt lat="42.958491" lon="11.7271436"><ele>590.75</ele><time>2026-04-04T13:36:30.519Z</time></trkpt><trkpt lat="42.9583895" lon="11.7272243"><ele>590.5</ele><time>2026-04-04T13:36:31.51Z</time></trkpt><trkpt lat="42.9582794" lon="11.7272931"><ele>590.25</ele><time>2026-04-04T13:36:32.543Z</time></trkpt><trkpt lat="42.9581497" lon="11.7273532"><ele>590.0</ele><time>2026-04-04T13:36:33.504Z</time></trkpt><trkpt lat="42.9580177" lon="11.727397"><ele>590.0</ele><time>2026-04-04T13:36:34.517Z</time></trkpt><trkpt lat="42.9578963" lon="11.7274251"><ele>590.0</ele><time>2026-04-04T13:36:35.515Z</time></trkpt><trkpt lat="42.957777" lon="11.727444"><ele>590.0</ele><time>2026-04-04T13:36:36.505Z</time></trkpt><trkpt lat="42.9576541" lon="11.727453"><ele>590.0</ele><time>2026-04-04T13:36:37.549Z</time></trkpt><trkpt lat="42.9575267" lon="11.7274458"><ele>588.5</ele><time>2026-04-04T13:36:38.51Z</time></trkpt><trkpt lat="42.9573949" lon="11.7274197"><ele>587.0</ele><time>2026-04-04T13:36:39.507Z</time></trkpt><trkpt lat="42.9572457" lon="11.7273709"><ele>585.5</ele><time>2026-04-04T13:36:40.498Z</time></trkpt><trkpt lat="42.9570965" lon="11.727295"><ele>584.0</ele><time>2026-04-04T13:36:41.51Z</time></trkpt><trkpt lat="42.9569475" lon="11.7272008"><ele>584.0</ele><time>2026-04-04T13:36:42.512Z</time></trkpt><trkpt lat="42.9568002" lon="11.7270852"><ele>584.0</ele><time>2026-04-04T13:36:43.525Z</time></trkpt><trkpt lat="42.9566366" lon="11.7269626"><ele>584.0</ele><time>2026-04-04T13:36:44.527Z</time></trkpt><trkpt lat="42.9564668" lon="11.7268413"><ele>579.3333333333333</ele><time>2026-04-04T13:36:45.497Z</time></trkpt><trkpt lat="42.9563005" lon="11.7267307"><ele>574.6666666666666</ele><time>2026-04-04T13:36:46.48Z</time></trkpt><trkpt lat="42.9561404" lon="11.7266462"><ele>570.0</ele><time>2026-04-04T13:36:47.513Z</time></trkpt><trkpt lat="42.955979" lon="11.7265884"><ele>573.0</ele><time>2026-04-04T13:36:48.505Z</time></trkpt><trkpt lat="42.9558128" lon="11.7265452"><ele>576.0</ele><time>2026-04-04T13:36:49.504Z</time></trkpt><trkpt lat="42.9556388" lon="11.7265102"><ele>579.0</ele><time>2026-04-04T13:36:50.507Z</time></trkpt><trkpt lat="42.9554692" lon="11.7264783"><ele>579.0</ele><time>2026-04-04T13:36:51.507Z</time></trkpt><trkpt lat="42.9553195" lon="11.7264453"><ele>579.0</ele><time>2026-04-04T13:36:52.502Z</time></trkpt><trkpt lat="42.9551962" lon="11.7264274"><ele>579.0</ele><time>2026-04-04T13:36:53.504Z</time></trkpt><trkpt lat="42.9550947" lon="11.7264354"><ele>579.0</ele><time>2026-04-04T13:36:54.503Z</time></trkpt><trkpt lat="42.9550066" lon="11.7264915"><ele>579.25</ele><time>2026-04-04T13:36:55.508Z</time></trkpt><trkpt lat="42.9549316" lon="11.7265788"><ele>579.5</ele><time>2026-04-04T13:36:56.481Z</time></trkpt><trkpt lat="42.9548616" lon="11.7267073"><ele>579.75</ele><time>2026-04-04T13:36:57.484Z</time></trkpt><trkpt lat="42.9547973" lon="11.7268638"><ele>580.0</ele><time>2026-04-04T13:36:58.496Z</time></trkpt><trkpt lat="42.9547431" lon="11.7270537"><ele>580.0</ele><time>2026-04-04T13:36:59.513Z</time></trkpt><trkpt lat="42.9546735" lon="11.7272537"><ele>580.0</ele><time>2026-04-04T13:37:00.515Z</time></trkpt><trkpt lat="42.9545761" lon="11.7274549"><ele>580.0</ele><time>2026-04-04T13:37:01.503Z</time></trkpt><trkpt lat="42.9544395" lon="11.7276429"><ele>577.0</ele><time>2026-04-04T13:37:02.493Z</time></trkpt><trkpt lat="42.954268" lon="11.72781"><ele>574.0</ele><time>2026-04-04T13:37:03.517Z</time></trkpt><trkpt lat="42.9540919" lon="11.7279563"><ele>571.0</ele><time>2026-04-04T13:37:04.511Z</time></trkpt><trkpt lat="42.9539302" lon="11.7280945"><ele>571.0</ele><time>2026-04-04T13:37:05.51Z</time></trkpt><trkpt lat="42.9537838" lon="11.7282265"><ele>571.0</ele><time>2026-04-04T13:37:06.497Z</time></trkpt><trkpt lat="42.9536538" lon="11.7283549"><ele>571.0</ele><time>2026-04-04T13:37:07.5Z</time></trkpt><trkpt lat="42.9535347" lon="11.7284925"><ele>572.0</ele><time>2026-04-04T13:37:08.51Z</time></trkpt><trkpt lat="42.9534303" lon="11.7286301"><ele>573.0</ele><time>2026-04-04T13:37:09.508Z</time></trkpt><trkpt lat="42.9533315" lon="11.7287647"><ele>574.0</ele><time>2026-04-04T13:37:10.512Z</time></trkpt><trkpt lat="42.9532345" lon="11.7289022"><ele>575.0</ele><time>2026-04-04T13:37:11.503Z</time></trkpt><trkpt lat="42.9531242" lon="11.7290352"><ele>575.0</ele><time>2026-04-04T13:37:12.492Z</time></trkpt><trkpt lat="42.952992" lon="11.7291595"><ele>575.0</ele><time>2026-04-04T13:37:13.512Z</time></trkpt><trkpt lat="42.9528364" lon="11.7292823"><ele>575.0</ele><time>2026-04-04T13:37:14.514Z</time></trkpt><trkpt lat="42.9526722" lon="11.7293921"><ele>574.6666666666666</ele><time>2026-04-04T13:37:15.537Z</time></trkpt><trkpt lat="42.9524826" lon="11.7294937"><ele>574.3333333333334</ele><time>2026-04-04T13:37:16.498Z</time></trkpt><trkpt lat="42.9522886" lon="11.7295987"><ele>574.0</ele><time>2026-04-04T13:37:17.524Z</time></trkpt><trkpt lat="42.9520923" lon="11.729706"><ele>574.0</ele><time>2026-04-04T13:37:18.514Z</time></trkpt><trkpt lat="42.9519151" lon="11.7298077"><ele>574.0</ele><time>2026-04-04T13:37:19.511Z</time></trkpt><trkpt lat="42.9517496" lon="11.7299045"><ele>574.0</ele><time>2026-04-04T13:37:20.553Z</time></trkpt><trkpt lat="42.95159" lon="11.7300048"><ele>575.3333333333334</ele><time>2026-04-04T13:37:21.519Z</time></trkpt><trkpt lat="42.9514314" lon="11.7301132"><ele>576.6666666666666</ele><time>2026-04-04T13:37:22.499Z</time></trkpt><trkpt lat="42.9512707" lon="11.7302229"><ele>578.0</ele><time>2026-04-04T13:37:23.499Z</time></trkpt><trkpt lat="42.951105" lon="11.7303334"><ele>578.0</ele><time>2026-04-04T13:37:24.518Z</time></trkpt><trkpt lat="42.9509363" lon="11.7304389"><ele>578.0</ele><time>2026-04-04T13:37:25.512Z</time></trkpt><trkpt lat="42.9507823" lon="11.7305409"><ele>578.0</ele><time>2026-04-04T13:37:26.5Z</time></trkpt><trkpt lat="42.9506399" lon="11.7306121"><ele>581.0</ele><time>2026-04-04T13:37:27.493Z</time></trkpt><trkpt lat="42.9505037" lon="11.7306188"><ele>584.0</ele><time>2026-04-04T13:37:28.514Z</time></trkpt><trkpt lat="42.9503727" lon="11.7305815"><ele>587.0</ele><time>2026-04-04T13:37:29.512Z</time></trkpt><trkpt lat="42.9502518" lon="11.7305391"><ele>590.0</ele><time>2026-04-04T13:37:30.486Z</time></trkpt><trkpt lat="42.950141" lon="11.7305272"><ele>592.75</ele><time>2026-04-04T13:37:31.507Z</time></trkpt><trkpt lat="42.9500145" lon="11.7305626"><ele>595.5</ele><time>2026-04-04T13:37:32.485Z</time></trkpt><trkpt lat="42.9498819" lon="11.730659"><ele>598.25</ele><time>2026-04-04T13:37:33.501Z</time></trkpt><trkpt lat="42.9497589" lon="11.7308096"><ele>601.0</ele><time>2026-04-04T13:37:34.475Z</time></trkpt><trkpt lat="42.949621" lon="11.7309704"><ele>600.6666666666667</ele><time>2026-04-04T13:37:35.503Z</time></trkpt><trkpt lat="42.9494718" lon="11.7311316"><ele>600.3333333333334</ele><time>2026-04-04T13:37:36.495Z</time></trkpt><trkpt lat="42.9493145" lon="11.7313083"><ele>600.0</ele><time>2026-04-04T13:37:37.49Z</time></trkpt><trkpt lat="42.9491528" lon="11.731503"><ele>602.0</ele><time>2026-04-04T13:37:38.514Z</time></trkpt><trkpt lat="42.9489753" lon="11.7316943"><ele>604.0</ele><time>2026-04-04T13:37:39.502Z</time></trkpt><trkpt lat="42.9487805" lon="11.7318413"><ele>606.0</ele><time>2026-04-04T13:37:40.508Z</time></trkpt><trkpt lat="42.9485889" lon="11.7319558"><ele>606.0</ele><time>2026-04-04T13:37:41.497Z</time></trkpt><trkpt lat="42.9484113" lon="11.732049"><ele>606.0</ele><time>2026-04-04T13:37:42.535Z</time></trkpt><trkpt lat="42.9482492" lon="11.7321388"><ele>606.0</ele><time>2026-04-04T13:37:43.491Z</time></trkpt><trkpt lat="42.9481133" lon="11.7322527"><ele>608.0</ele><time>2026-04-04T13:37:44.501Z</time></trkpt><trkpt lat="42.9479912" lon="11.7324009"><ele>610.0</ele><time>2026-04-04T13:37:45.499Z</time></trkpt><trkpt lat="42.9478739" lon="11.7325754"><ele>612.0</ele><time>2026-04-04T13:37:46.503Z</time></trkpt><trkpt lat="42.9477671" lon="11.7327647"><ele>613.0</ele><time>2026-04-04T13:37:47.54Z</time></trkpt><trkpt lat="42.9476725" lon="11.7329504"><ele>614.0</ele><time>2026-04-04T13:37:48.51Z</time></trkpt><trkpt lat="42.9475932" lon="11.7331383"><ele>615.0</ele><time>2026-04-04T13:37:49.511Z</time></trkpt><trkpt lat="42.947516" lon="11.7333226"><ele>612.0</ele><time>2026-04-04T13:37:50.511Z</time></trkpt><trkpt lat="42.9474271" lon="11.7334888"><ele>609.0</ele><time>2026-04-04T13:37:51.495Z</time></trkpt><trkpt lat="42.9473126" lon="11.733623"><ele>606.0</ele><time>2026-04-04T13:37:52.501Z</time></trkpt><trkpt lat="42.9471919" lon="11.7337586"><ele>603.6666666666666</ele><time>2026-04-04T13:37:53.5Z</time></trkpt><trkpt lat="42.947065" lon="11.7338872"><ele>601.3333333333333</ele><time>2026-04-04T13:37:54.494Z</time></trkpt><trkpt lat="42.9469238" lon="11.7339944"><ele>599.0</ele><time>2026-04-04T13:37:55.5Z</time></trkpt><trkpt lat="42.9467837" lon="11.7340669"><ele>600.0</ele><time>2026-04-04T13:37:56.497Z</time></trkpt><trkpt lat="42.9466532" lon="11.734135"><ele>601.0</ele><time>2026-04-04T13:37:57.548Z</time></trkpt><trkpt lat="42.9465275" lon="11.734228"><ele>602.0</ele><time>2026-04-04T13:37:58.5Z</time></trkpt><trkpt lat="42.9464001" lon="11.7343648"><ele>603.0</ele><time>2026-04-04T13:37:59.498Z</time></trkpt><trkpt lat="42.946278" lon="11.7344945"><ele>599.6666666666666</ele><time>2026-04-04T13:38:00.507Z</time></trkpt><trkpt lat="42.9461314" lon="11.7346044"><ele>596.3333333333333</ele><time>2026-04-04T13:38:01.498Z</time></trkpt><trkpt lat="42.9459777" lon="11.7346837"><ele>593.0</ele><time>2026-04-04T13:38:02.493Z</time></trkpt><trkpt lat="42.945833" lon="11.7347491"><ele>593.0</ele><time>2026-04-04T13:38:03.501Z</time></trkpt><trkpt lat="42.9456977" lon="11.7347842"><ele>593.0</ele><time>2026-04-04T13:38:04.516Z</time></trkpt><trkpt lat="42.9455685" lon="11.7347732"><ele>593.0</ele><time>2026-04-04T13:38:05.514Z</time></trkpt><trkpt lat="42.9454407" lon="11.734717"><ele>593.0</ele><time>2026-04-04T13:38:06.501Z</time></trkpt><trkpt lat="42.9453131" lon="11.7346425"><ele>593.0</ele><time>2026-04-04T13:38:07.506Z</time></trkpt><trkpt lat="42.9451627" lon="11.734561"><ele>593.0</ele><time>2026-04-04T13:38:08.503Z</time></trkpt><trkpt lat="42.945009" lon="11.7344789"><ele>593.0</ele><time>2026-04-04T13:38:09.501Z</time></trkpt><trkpt lat="42.9448632" lon="11.7344008"><ele>590.25</ele><time>2026-04-04T13:38:10.512Z</time></trkpt><trkpt lat="42.9447332" lon="11.7343276"><ele>587.5</ele><time>2026-04-04T13:38:11.549Z</time></trkpt><trkpt lat="42.9446055" lon="11.7342744"><ele>584.75</ele><time>2026-04-04T13:38:12.506Z</time></trkpt><trkpt lat="42.9444675" lon="11.734263"><ele>582.0</ele><time>2026-04-04T13:38:13.529Z</time></trkpt><trkpt lat="42.9442999" lon="11.7342831"><ele>580.0</ele><time>2026-04-04T13:38:14.499Z</time></trkpt><trkpt lat="42.9441134" lon="11.7343184"><ele>578.0</ele><time>2026-04-04T13:38:15.499Z</time></trkpt><trkpt lat="42.9439267" lon="11.734352"><ele>576.0</ele><time>2026-04-04T13:38:16.507Z</time></trkpt><trkpt lat="42.9437599" lon="11.7343997"><ele>576.0</ele><time>2026-04-04T13:38:17.505Z</time></trkpt><trkpt lat="42.9436095" lon="11.7344637"><ele>576.0</ele><time>2026-04-04T13:38:18.501Z</time></trkpt><trkpt lat="42.9434621" lon="11.7345093"><ele>576.0</ele><time>2026-04-04T13:38:19.504Z</time></trkpt><trkpt lat="42.9433115" lon="11.7345078"><ele>572.75</ele><time>2026-04-04T13:38:20.499Z</time></trkpt><trkpt lat="42.9431616" lon="11.734476"><ele>569.5</ele><time>2026-04-04T13:38:21.485Z</time></trkpt><trkpt lat="42.9430209" lon="11.7344283"><ele>566.25</ele><time>2026-04-04T13:38:22.532Z</time></trkpt><trkpt lat="42.9428772" lon="11.7344315"><ele>563.0</ele><time>2026-04-04T13:38:23.506Z</time></trkpt><trkpt lat="42.9427215" lon="11.7344727"><ele>563.0</ele><time>2026-04-04T13:38:24.487Z</time></trkpt><trkpt lat="42.9425677" lon="11.7345893"><ele>563.0</ele><time>2026-04-04T13:38:25.496Z</time></trkpt><trkpt lat="42.9424132" lon="11.7347308"><ele>563.0</ele><time>2026-04-04T13:38:26.501Z</time></trkpt><trkpt lat="42.9422464" lon="11.7348599"><ele>564.3333333333333</ele><time>2026-04-04T13:38:27.508Z</time></trkpt><trkpt lat="42.9420794" lon="11.7349514"><ele>565.6666666666666</ele><time>2026-04-04T13:38:28.516Z</time></trkpt><trkpt lat="42.9419237" lon="11.7350036"><ele>567.0</ele><time>2026-04-04T13:38:29.515Z</time></trkpt><trkpt lat="42.9417887" lon="11.7350286"><ele>570.25</ele><time>2026-04-04T13:38:30.502Z</time></trkpt><trkpt lat="42.9416602" lon="11.7350089"><ele>573.5</ele><time>2026-04-04T13:38:31.514Z</time></trkpt><trkpt lat="42.9415478" lon="11.7349291"><ele>576.75</ele><time>2026-04-04T13:38:32.5Z</time></trkpt><trkpt lat="42.9414696" lon="11.7348106"><ele>580.0</ele><time>2026-04-04T13:38:33.503Z</time></trkpt><trkpt lat="42.9414077" lon="11.7346659"><ele>580.0</ele><time>2026-04-04T13:38:34.493Z</time></trkpt><trkpt lat="42.9413612" lon="11.7345065"><ele>580.0</ele><time>2026-04-04T13:38:35.515Z</time></trkpt><trkpt lat="42.941311" lon="11.7343412"><ele>580.0</ele><time>2026-04-04T13:38:36.492Z</time></trkpt><trkpt lat="42.9412575" lon="11.7341555"><ele>580.0</ele><time>2026-04-04T13:38:37.502Z</time></trkpt><trkpt lat="42.9412074" lon="11.7339754"><ele>579.75</ele><time>2026-04-04T13:38:38.504Z</time></trkpt><trkpt lat="42.941147" lon="11.7338096"><ele>579.5</ele><time>2026-04-04T13:38:39.51Z</time></trkpt><trkpt lat="42.9410691" lon="11.73366"><ele>579.25</ele><time>2026-04-04T13:38:40.515Z</time></trkpt><trkpt lat="42.9409679" lon="11.7335409"><ele>579.0</ele><time>2026-04-04T13:38:41.505Z</time></trkpt><trkpt lat="42.9408511" lon="11.733419"><ele>580.25</ele><time>2026-04-04T13:38:42.519Z</time></trkpt><trkpt lat="42.9407311" lon="11.7332974"><ele>581.5</ele><time>2026-04-04T13:38:43.503Z</time></trkpt><trkpt lat="42.9406154" lon="11.7331941"><ele>582.75</ele><time>2026-04-04T13:38:44.506Z</time></trkpt><trkpt lat="42.9405065" lon="11.7331136"><ele>584.0</ele><time>2026-04-04T13:38:45.503Z</time></trkpt><trkpt lat="42.9404128" lon="11.7330728"><ele>584.0</ele><time>2026-04-04T13:38:46.487Z</time></trkpt><trkpt lat="42.9403095" lon="11.7330701"><ele>584.0</ele><time>2026-04-04T13:38:47.51Z</time></trkpt><trkpt lat="42.9402031" lon="11.7330993"><ele>584.0</ele><time>2026-04-04T13:38:48.5Z</time></trkpt><trkpt lat="42.940097" lon="11.7331703"><ele>584.0</ele><time>2026-04-04T13:38:49.498Z</time></trkpt><trkpt lat="42.9399893" lon="11.7332771"><ele>582.5</ele><time>2026-04-04T13:38:50.502Z</time></trkpt><trkpt lat="42.9398721" lon="11.7333918"><ele>581.0</ele><time>2026-04-04T13:38:51.498Z</time></trkpt><trkpt lat="42.9397487" lon="11.7334781"><ele>579.5</ele><time>2026-04-04T13:38:52.505Z</time></trkpt><trkpt lat="42.9396201" lon="11.7335445"><ele>578.0</ele><time>2026-04-04T13:38:53.478Z</time></trkpt><trkpt lat="42.939486" lon="11.7335844"><ele>577.3333333333333</ele><time>2026-04-04T13:38:54.484Z</time></trkpt><trkpt lat="42.9393431" lon="11.7336033"><ele>576.6666666666666</ele><time>2026-04-04T13:38:55.504Z</time></trkpt><trkpt lat="42.939189" lon="11.7335957"><ele>576.0</ele><time>2026-04-04T13:38:56.495Z</time></trkpt><trkpt lat="42.9390146" lon="11.7335844"><ele>572.6666666666666</ele><time>2026-04-04T13:38:57.495Z</time></trkpt><trkpt lat="42.9388256" lon="11.7335749"><ele>569.3333333333333</ele><time>2026-04-04T13:38:58.49Z</time></trkpt><trkpt lat="42.9386332" lon="11.7335583"><ele>566.0</ele><time>2026-04-04T13:38:59.513Z</time></trkpt><trkpt lat="42.9384571" lon="11.7335275"><ele>569.3333333333333</ele><time>2026-04-04T13:39:00.485Z</time></trkpt><trkpt lat="42.9383086" lon="11.7334728"><ele>572.6666666666666</ele><time>2026-04-04T13:39:01.488Z</time></trkpt><trkpt lat="42.9381751" lon="11.7333828"><ele>576.0</ele><time>2026-04-04T13:39:02.513Z</time></trkpt><trkpt lat="42.938029" lon="11.7332953"><ele>576.0</ele><time>2026-04-04T13:39:03.518Z</time></trkpt><trkpt lat="42.93789" lon="11.7332578"><ele>576.0</ele><time>2026-04-04T13:39:04.505Z</time></trkpt><trkpt lat="42.9377523" lon="11.7332647"><ele>576.0</ele><time>2026-04-04T13:39:05.484Z</time></trkpt><trkpt lat="42.9376128" lon="11.7333062"><ele>576.0</ele><time>2026-04-04T13:39:06.487Z</time></trkpt><trkpt lat="42.9374758" lon="11.7333296"><ele>580.3333333333334</ele><time>2026-04-04T13:39:07.506Z</time></trkpt><trkpt lat="42.9373333" lon="11.733281"><ele>584.6666666666667</ele><time>2026-04-04T13:39:08.512Z</time></trkpt><trkpt lat="42.9372055" lon="11.733173"><ele>589.0</ele><time>2026-04-04T13:39:09.496Z</time></trkpt><trkpt lat="42.9370799" lon="11.7330384"><ele>589.0</ele><time>2026-04-04T13:39:10.542Z</time></trkpt><trkpt lat="42.9369403" lon="11.7328668"><ele>589.0</ele><time>2026-04-04T13:39:11.505Z</time></trkpt><trkpt lat="42.9368016" lon="11.7327069"><ele>589.0</ele><time>2026-04-04T13:39:12.491Z</time></trkpt><trkpt lat="42.9366664" lon="11.7325873"><ele>589.6666666666667</ele><time>2026-04-04T13:39:13.498Z</time></trkpt><trkpt lat="42.9365259" lon="11.7324888"><ele>590.3333333333334</ele><time>2026-04-04T13:39:14.499Z</time></trkpt><trkpt lat="42.9363779" lon="11.7324136"><ele>591.0</ele><time>2026-04-04T13:39:15.514Z</time></trkpt><trkpt lat="42.9362138" lon="11.732349"><ele>591.0</ele><time>2026-04-04T13:39:16.502Z</time></trkpt><trkpt lat="42.9360355" lon="11.7322805"><ele>591.0</ele><time>2026-04-04T13:39:17.549Z</time></trkpt><trkpt lat="42.9358614" lon="11.7322111"><ele>591.0</ele><time>2026-04-04T13:39:18.483Z</time></trkpt><trkpt lat="42.9357013" lon="11.7321536"><ele>590.0</ele><time>2026-04-04T13:39:19.503Z</time></trkpt><trkpt lat="42.935553" lon="11.732101"><ele>589.0</ele><time>2026-04-04T13:39:20.497Z</time></trkpt><trkpt lat="42.9354046" lon="11.7320532"><ele>588.0</ele><time>2026-04-04T13:39:21.503Z</time></trkpt><trkpt lat="42.9352498" lon="11.7320208"><ele>588.0</ele><time>2026-04-04T13:39:22.519Z</time></trkpt><trkpt lat="42.9350731" lon="11.7320106"><ele>588.0</ele><time>2026-04-04T13:39:23.497Z</time></trkpt><trkpt lat="42.9348907" lon="11.7320075"><ele>588.0</ele><time>2026-04-04T13:39:24.538Z</time></trkpt><trkpt lat="42.9347123" lon="11.7320038"><ele>586.6666666666666</ele><time>2026-04-04T13:39:25.485Z</time></trkpt><trkpt lat="42.9345539" lon="11.7319993"><ele>585.3333333333333</ele><time>2026-04-04T13:39:26.497Z</time></trkpt><trkpt lat="42.9343974" lon="11.731993"><ele>584.0</ele><time>2026-04-04T13:39:27.507Z</time></trkpt><trkpt lat="42.9342446" lon="11.7319952"><ele>585.3333333333333</ele><time>2026-04-04T13:39:28.501Z</time></trkpt><trkpt lat="42.9340772" lon="11.7319987"><ele>586.6666666666666</ele><time>2026-04-04T13:39:29.532Z</time></trkpt><trkpt lat="42.9338926" lon="11.7320252"><ele>588.0</ele><time>2026-04-04T13:39:30.506Z</time></trkpt><trkpt lat="42.9337044" lon="11.7320406"><ele>588.0</ele><time>2026-04-04T13:39:31.49Z</time></trkpt><trkpt lat="42.9335164" lon="11.7320486"><ele>588.0</ele><time>2026-04-04T13:39:32.478Z</time></trkpt><trkpt lat="42.9333311" lon="11.7320524"><ele>588.0</ele><time>2026-04-04T13:39:33.497Z</time></trkpt><trkpt lat="42.9331535" lon="11.7320535"><ele>585.6666666666666</ele><time>2026-04-04T13:39:34.501Z</time></trkpt><trkpt lat="42.9329784" lon="11.7320614"><ele>583.3333333333333</ele><time>2026-04-04T13:39:35.505Z</time></trkpt><trkpt lat="42.9328051" lon="11.7320666"><ele>581.0</ele><time>2026-04-04T13:39:36.501Z</time></trkpt><trkpt lat="42.9326329" lon="11.7320619"><ele>579.6666666666666</ele><time>2026-04-04T13:39:37.484Z</time></trkpt><trkpt lat="42.9324585" lon="11.7320652"><ele>578.3333333333334</ele><time>2026-04-04T13:39:38.508Z</time></trkpt><trkpt lat="42.9322891" lon="11.7320738"><ele>577.0</ele><time>2026-04-04T13:39:39.514Z</time></trkpt><trkpt lat="42.9321317" lon="11.732089"><ele>577.0</ele><time>2026-04-04T13:39:40.538Z</time></trkpt><trkpt lat="42.9319852" lon="11.7321132"><ele>577.0</ele><time>2026-04-04T13:39:41.516Z</time></trkpt><trkpt lat="42.931856" lon="11.7321655"><ele>577.0</ele><time>2026-04-04T13:39:42.49Z</time></trkpt><trkpt lat="42.9317417" lon="11.7322627"><ele>577.0</ele><time>2026-04-04T13:39:43.52Z</time></trkpt><trkpt lat="42.9316493" lon="11.7323967"><ele>577.0</ele><time>2026-04-04T13:39:44.497Z</time></trkpt><trkpt lat="42.931555" lon="11.7325576"><ele>577.0</ele><time>2026-04-04T13:39:45.501Z</time></trkpt><trkpt lat="42.93143" lon="11.7327198"><ele>577.0</ele><time>2026-04-04T13:39:46.499Z</time></trkpt><trkpt lat="42.9312762" lon="11.7328822"><ele>576.6666666666667</ele><time>2026-04-04T13:39:47.506Z</time></trkpt><trkpt lat="42.9311077" lon="11.7330306"><ele>576.3333333333334</ele><time>2026-04-04T13:39:48.505Z</time></trkpt><trkpt lat="42.9309422" lon="11.7331857"><ele>576.0</ele><time>2026-04-04T13:39:49.5Z</time></trkpt><trkpt lat="42.9307778" lon="11.7333321"><ele>576.0</ele><time>2026-04-04T13:39:50.501Z</time></trkpt><trkpt lat="42.9306074" lon="11.7334464"><ele>576.0</ele><time>2026-04-04T13:39:51.502Z</time></trkpt><trkpt lat="42.9304189" lon="11.7335371"><ele>576.0</ele><time>2026-04-04T13:39:52.514Z</time></trkpt><trkpt lat="42.930222" lon="11.7336324"><ele>577.0</ele><time>2026-04-04T13:39:53.503Z</time></trkpt><trkpt lat="42.9300375" lon="11.7337479"><ele>578.0</ele><time>2026-04-04T13:39:54.52Z</time></trkpt><trkpt lat="42.9298663" lon="11.7338744"><ele>579.0</ele><time>2026-04-04T13:39:55.49Z</time></trkpt><trkpt lat="42.929709" lon="11.7339984"><ele>579.0</ele><time>2026-04-04T13:39:56.5Z</time></trkpt><trkpt lat="42.9295579" lon="11.734105"><ele>579.0</ele><time>2026-04-04T13:39:57.512Z</time></trkpt><trkpt lat="42.9294091" lon="11.7341959"><ele>579.0</ele><time>2026-04-04T13:39:58.539Z</time></trkpt><trkpt lat="42.92925" lon="11.7342617"><ele>580.3333333333334</ele><time>2026-04-04T13:39:59.515Z</time></trkpt><trkpt lat="42.929074" lon="11.7342996"><ele>581.6666666666667</ele><time>2026-04-04T13:40:00.489Z</time></trkpt><trkpt lat="42.9288826" lon="11.7343246"><ele>583.0</ele><time>2026-04-04T13:40:01.498Z</time></trkpt><trkpt lat="42.9286803" lon="11.7343593"><ele>583.0</ele><time>2026-04-04T13:40:02.503Z</time></trkpt><trkpt lat="42.9284669" lon="11.7343888"><ele>583.0</ele><time>2026-04-04T13:40:03.497Z</time></trkpt><trkpt lat="42.9282465" lon="11.7344129"><ele>583.0</ele><time>2026-04-04T13:40:04.516Z</time></trkpt><trkpt lat="42.9280377" lon="11.7344332"><ele>583.0</ele><time>2026-04-04T13:40:05.496Z</time></trkpt><trkpt lat="42.9278401" lon="11.7344501"><ele>583.0</ele><time>2026-04-04T13:40:06.525Z</time></trkpt><trkpt lat="42.9276568" lon="11.734472"><ele>583.0</ele><time>2026-04-04T13:40:07.491Z</time></trkpt><trkpt lat="42.9274779" lon="11.7344966"><ele>582.0</ele><time>2026-04-04T13:40:08.516Z</time></trkpt><trkpt lat="42.9272934" lon="11.7345319"><ele>581.0</ele><time>2026-04-04T13:40:09.49Z</time></trkpt><trkpt lat="42.9271021" lon="11.7345877"><ele>580.0</ele><time>2026-04-04T13:40:10.497Z</time></trkpt><trkpt lat="42.9269233" lon="11.7346659"><ele>580.0</ele><time>2026-04-04T13:40:11.497Z</time></trkpt><trkpt lat="42.9267588" lon="11.734766"><ele>580.0</ele><time>2026-04-04T13:40:12.488Z</time></trkpt><trkpt lat="42.9265957" lon="11.7348579"><ele>580.0</ele><time>2026-04-04T13:40:13.493Z</time></trkpt><trkpt lat="42.9264268" lon="11.7349325"><ele>582.3333333333334</ele><time>2026-04-04T13:40:14.503Z</time></trkpt><trkpt lat="42.9262457" lon="11.734966"><ele>584.6666666666666</ele><time>2026-04-04T13:40:15.494Z</time></trkpt><trkpt lat="42.9260571" lon="11.7349619"><ele>587.0</ele><time>2026-04-04T13:40:16.5Z</time></trkpt><trkpt lat="42.9258622" lon="11.7349259"><ele>587.0</ele><time>2026-04-04T13:40:17.498Z</time></trkpt><trkpt lat="42.9256495" lon="11.7348799"><ele>587.0</ele><time>2026-04-04T13:40:18.503Z</time></trkpt><trkpt lat="42.9254234" lon="11.7348385"><ele>587.0</ele><time>2026-04-04T13:40:19.507Z</time></trkpt><trkpt lat="42.9251808" lon="11.7348182"><ele>585.5</ele><time>2026-04-04T13:40:20.514Z</time></trkpt><trkpt lat="42.9249415" lon="11.7348138"><ele>584.0</ele><time>2026-04-04T13:40:21.511Z</time></trkpt><trkpt lat="42.9247172" lon="11.7348035"><ele>584.0</ele><time>2026-04-04T13:40:22.491Z</time></trkpt><trkpt lat="42.9245086" lon="11.7347757"><ele>584.0</ele><time>2026-04-04T13:40:23.506Z</time></trkpt><trkpt lat="42.924315" lon="11.7347268"><ele>584.0</ele><time>2026-04-04T13:40:24.505Z</time></trkpt><trkpt lat="42.9241316" lon="11.7346383"><ele>583.3333333333333</ele><time>2026-04-04T13:40:25.512Z</time></trkpt><trkpt lat="42.923947" lon="11.7345259"><ele>582.6666666666666</ele><time>2026-04-04T13:40:26.525Z</time></trkpt><trkpt lat="42.923738" lon="11.734411"><ele>582.0</ele><time>2026-04-04T13:40:27.518Z</time></trkpt><trkpt lat="42.9235408" lon="11.7343042"><ele>584.6666666666666</ele><time>2026-04-04T13:40:28.505Z</time></trkpt><trkpt lat="42.9233589" lon="11.7342005"><ele>587.3333333333333</ele><time>2026-04-04T13:40:29.505Z</time></trkpt><trkpt lat="42.923185" lon="11.7340998"><ele>590.0</ele><time>2026-04-04T13:40:30.508Z</time></trkpt><trkpt lat="42.9230213" lon="11.7340111"><ele>590.0</ele><time>2026-04-04T13:40:31.487Z</time></trkpt><trkpt lat="42.9228597" lon="11.7339319"><ele>590.0</ele><time>2026-04-04T13:40:32.503Z</time></trkpt><trkpt lat="42.9227071" lon="11.7338662"><ele>590.0</ele><time>2026-04-04T13:40:33.506Z</time></trkpt><trkpt lat="42.9225362" lon="11.7338248"><ele>591.0</ele><time>2026-04-04T13:40:34.507Z</time></trkpt><trkpt lat="42.9223594" lon="11.7338092"><ele>592.0</ele><time>2026-04-04T13:40:35.517Z</time></trkpt><trkpt lat="42.9221863" lon="11.7338298"><ele>593.0</ele><time>2026-04-04T13:40:36.504Z</time></trkpt><trkpt lat="42.9220354" lon="11.7338884"><ele>593.0</ele><time>2026-04-04T13:40:37.501Z</time></trkpt><trkpt lat="42.9218958" lon="11.7339526"><ele>593.0</ele><time>2026-04-04T13:40:38.497Z</time></trkpt><trkpt lat="42.92177" lon="11.7339653"><ele>593.0</ele><time>2026-04-04T13:40:39.505Z</time></trkpt><trkpt lat="42.9216761" lon="11.733953"><ele>593.0</ele><time>2026-04-04T13:40:40.54Z</time></trkpt><trkpt lat="42.9215919" lon="11.7339428"><ele>592.1999999999999</ele><time>2026-04-04T13:40:41.488Z</time></trkpt><trkpt lat="42.9215176" lon="11.7339267"><ele>591.4</ele><time>2026-04-04T13:40:42.503Z</time></trkpt><trkpt lat="42.9214407" lon="11.7339176"><ele>590.5999999999999</ele><time>2026-04-04T13:40:43.505Z</time></trkpt><trkpt lat="42.9213449" lon="11.7339236"><ele>589.8</ele><time>2026-04-04T13:40:44.503Z</time></trkpt><trkpt lat="42.9212397" lon="11.7339435"><ele>589.0</ele><time>2026-04-04T13:40:45.528Z</time></trkpt><trkpt lat="42.9211175" lon="11.7339726"><ele>589.0</ele><time>2026-04-04T13:40:46.499Z</time></trkpt><trkpt lat="42.9209759" lon="11.7340003"><ele>589.0</ele><time>2026-04-04T13:40:47.49Z</time></trkpt><trkpt lat="42.9208174" lon="11.7340428"><ele>589.0</ele><time>2026-04-04T13:40:48.504Z</time></trkpt><trkpt lat="42.9206467" lon="11.7341084"><ele>589.0</ele><time>2026-04-04T13:40:49.495Z</time></trkpt><trkpt lat="42.9204985" lon="11.7341846"><ele>589.0</ele><time>2026-04-04T13:40:50.504Z</time></trkpt><trkpt lat="42.9203776" lon="11.7342541"><ele>589.0</ele><time>2026-04-04T13:40:51.521Z</time></trkpt><trkpt lat="42.9202705" lon="11.734324"><ele>589.0</ele><time>2026-04-04T13:40:52.489Z</time></trkpt><trkpt lat="42.9201666" lon="11.7343822"><ele>590.25</ele><time>2026-04-04T13:40:53.496Z</time></trkpt><trkpt lat="42.9200623" lon="11.7343927"><ele>591.5</ele><time>2026-04-04T13:40:54.493Z</time></trkpt><trkpt lat="42.919956" lon="11.7343608"><ele>592.75</ele><time>2026-04-04T13:40:55.505Z</time></trkpt><trkpt lat="42.9198525" lon="11.7342859"><ele>594.0</ele><time>2026-04-04T13:40:56.503Z</time></trkpt><trkpt lat="42.9197499" lon="11.73416"><ele>594.0</ele><time>2026-04-04T13:40:57.508Z</time></trkpt><trkpt lat="42.9196306" lon="11.7340107"><ele>594.0</ele><time>2026-04-04T13:40:58.489Z</time></trkpt><trkpt lat="42.9194984" lon="11.7338526"><ele>594.0</ele><time>2026-04-04T13:40:59.524Z</time></trkpt><trkpt lat="42.9193678" lon="11.7336895"><ele>592.6666666666666</ele><time>2026-04-04T13:41:00.504Z</time></trkpt><trkpt lat="42.91926" lon="11.7335119"><ele>591.3333333333333</ele><time>2026-04-04T13:41:01.508Z</time></trkpt><trkpt lat="42.9191706" lon="11.7333046"><ele>590.0</ele><time>2026-04-04T13:41:02.51Z</time></trkpt><trkpt lat="42.919105" lon="11.7331221"><ele>592.5</ele><time>2026-04-04T13:41:03.507Z</time></trkpt><trkpt lat="42.919046" lon="11.7329741"><ele>595.0</ele><time>2026-04-04T13:41:04.507Z</time></trkpt><trkpt lat="42.9189557" lon="11.7328519"><ele>597.5</ele><time>2026-04-04T13:41:05.504Z</time></trkpt><trkpt lat="42.9188448" lon="11.7327643"><ele>600.0</ele><time>2026-04-04T13:41:06.488Z</time></trkpt><trkpt lat="42.9187119" lon="11.7327058"><ele>600.0</ele><time>2026-04-04T13:41:07.506Z</time></trkpt><trkpt lat="42.9185627" lon="11.7326671"><ele>600.0</ele><time>2026-04-04T13:41:08.496Z</time></trkpt><trkpt lat="42.9184131" lon="11.7326406"><ele>600.0</ele><time>2026-04-04T13:41:09.509Z</time></trkpt><trkpt lat="42.918272" lon="11.7326581"><ele>600.0</ele><time>2026-04-04T13:41:10.501Z</time></trkpt><trkpt lat="42.9181268" lon="11.7327096"><ele>605.6666666666666</ele><time>2026-04-04T13:41:11.504Z</time></trkpt><trkpt lat="42.9179899" lon="11.7327918"><ele>611.3333333333333</ele><time>2026-04-04T13:41:12.486Z</time></trkpt><trkpt lat="42.9178397" lon="11.7328952"><ele>617.0</ele><time>2026-04-04T13:41:13.513Z</time></trkpt><trkpt lat="42.9176846" lon="11.7329859"><ele>617.75</ele><time>2026-04-04T13:41:14.486Z</time></trkpt><trkpt lat="42.9175334" lon="11.7330411"><ele>618.5</ele><time>2026-04-04T13:41:15.495Z</time></trkpt><trkpt lat="42.9173975" lon="11.7330747"><ele>619.25</ele><time>2026-04-04T13:41:16.495Z</time></trkpt><trkpt lat="42.9172652" lon="11.7330696"><ele>620.0</ele><time>2026-04-04T13:41:17.496Z</time></trkpt><trkpt lat="42.9171538" lon="11.7330141"><ele>620.0</ele><time>2026-04-04T13:41:18.486Z</time></trkpt><trkpt lat="42.9170272" lon="11.732893"><ele>620.0</ele><time>2026-04-04T13:41:19.524Z</time></trkpt><trkpt lat="42.9169137" lon="11.7327467"><ele>620.0</ele><time>2026-04-04T13:41:20.508Z</time></trkpt><trkpt lat="42.9167772" lon="11.732586"><ele>619.3333333333333</ele><time>2026-04-04T13:41:21.483Z</time></trkpt><trkpt lat="42.9166492" lon="11.7324382"><ele>618.6666666666666</ele><time>2026-04-04T13:41:22.499Z</time></trkpt><trkpt lat="42.9165372" lon="11.7323078"><ele>618.0</ele><time>2026-04-04T13:41:23.508Z</time></trkpt><trkpt lat="42.9164199" lon="11.7321981"><ele>618.0</ele><time>2026-04-04T13:41:24.523Z</time></trkpt><trkpt lat="42.9162976" lon="11.7321111"><ele>618.0</ele><time>2026-04-04T13:41:25.509Z</time></trkpt><trkpt lat="42.9161739" lon="11.7320313"><ele>618.0</ele><time>2026-04-04T13:41:26.506Z</time></trkpt><trkpt lat="42.9160656" lon="11.7319319"><ele>618.0</ele><time>2026-04-04T13:41:27.537Z</time></trkpt><trkpt lat="42.9159913" lon="11.731783"><ele>619.5</ele><time>2026-04-04T13:41:28.49Z</time></trkpt><trkpt lat="42.915951" lon="11.7316097"><ele>621.0</ele><time>2026-04-04T13:41:29.506Z</time></trkpt><trkpt lat="42.9159103" lon="11.7314182"><ele>622.5</ele><time>2026-04-04T13:41:30.492Z</time></trkpt><trkpt lat="42.9158901" lon="11.7312375"><ele>624.0</ele><time>2026-04-04T13:41:31.511Z</time></trkpt><trkpt lat="42.9158961" lon="11.7310754"><ele>619.25</ele><time>2026-04-04T13:41:32.493Z</time></trkpt><trkpt lat="42.9159247" lon="11.7309068"><ele>614.5</ele><time>2026-04-04T13:41:33.495Z</time></trkpt><trkpt lat="42.915961" lon="11.7307256"><ele>609.75</ele><time>2026-04-04T13:41:34.505Z</time></trkpt><trkpt lat="42.9160071" lon="11.7305298"><ele>605.0</ele><time>2026-04-04T13:41:35.502Z</time></trkpt><trkpt lat="42.9160598" lon="11.7303243"><ele>605.0</ele><time>2026-04-04T13:41:36.506Z</time></trkpt><trkpt lat="42.9161162" lon="11.7301244"><ele>605.0</ele><time>2026-04-04T13:41:37.498Z</time></trkpt><trkpt lat="42.9161668" lon="11.7299521"><ele>605.0</ele><time>2026-04-04T13:41:38.508Z</time></trkpt><trkpt lat="42.9162087" lon="11.7298018"><ele>605.0</ele><time>2026-04-04T13:41:39.484Z</time></trkpt><trkpt lat="42.9162371" lon="11.7296761"><ele>605.0</ele><time>2026-04-04T13:41:40.533Z</time></trkpt><trkpt lat="42.916263" lon="11.7295828"><ele>605.0</ele><time>2026-04-04T13:41:41.49Z</time></trkpt><trkpt lat="42.9162981" lon="11.729476"><ele>605.0</ele><time>2026-04-04T13:41:43.504Z</time></trkpt><trkpt lat="42.916317" lon="11.7293641"><ele>606.0</ele><time>2026-04-04T13:41:46.494Z</time></trkpt><trkpt lat="42.9163266" lon="11.7292733"><ele>606.0</ele><time>2026-04-04T13:41:49.506Z</time></trkpt><trkpt lat="42.9163613" lon="11.7292012"><ele>606.0</ele><time>2026-04-04T13:42:16.502Z</time></trkpt></trkseg><trkseg><trkpt lat="42.9163294" lon="11.7292951"><ele>606.0</ele><time>2026-04-04T14:04:27.083Z</time></trkpt><trkpt lat="42.9162723" lon="11.7293566"><ele>606.0</ele><time>2026-04-04T14:04:30.075Z</time></trkpt><trkpt lat="42.916211" lon="11.7293317"><ele>606.0</ele><time>2026-04-04T14:04:31.075Z</time></trkpt><trkpt lat="42.9161123" lon="11.7292489"><ele>606.0</ele><time>2026-04-04T14:04:32.071Z</time></trkpt><trkpt lat="42.9159916" lon="11.7292076"><ele>606.0</ele><time>2026-04-04T14:04:34.068Z</time></trkpt><trkpt lat="42.9159121" lon="11.7292076"><ele>607.8</ele><time>2026-04-04T14:04:35.069Z</time></trkpt><trkpt lat="42.9158256" lon="11.7292095"><ele>609.6</ele><time>2026-04-04T14:04:36.09Z</time></trkpt><trkpt lat="42.9157233" lon="11.729198"><ele>611.4</ele><time>2026-04-04T14:04:37.069Z</time></trkpt><trkpt lat="42.9156047" lon="11.7291512"><ele>613.2</ele><time>2026-04-04T14:04:38.086Z</time></trkpt><trkpt lat="42.9154912" lon="11.7290536"><ele>615.0</ele><time>2026-04-04T14:04:39.077Z</time></trkpt><trkpt lat="42.9153947" lon="11.7289285"><ele>615.0</ele><time>2026-04-04T14:04:40.084Z</time></trkpt><trkpt lat="42.9153089" lon="11.7288094"><ele>615.0</ele><time>2026-04-04T14:04:41.076Z</time></trkpt><trkpt lat="42.9152176" lon="11.7286873"><ele>615.0</ele><time>2026-04-04T14:04:42.078Z</time></trkpt><trkpt lat="42.9151228" lon="11.7285508"><ele>615.0</ele><time>2026-04-04T14:04:43.08Z</time></trkpt><trkpt lat="42.9150248" lon="11.7284185"><ele>614.0</ele><time>2026-04-04T14:04:44.085Z</time></trkpt><trkpt lat="42.9149307" lon="11.7282974"><ele>613.0</ele><time>2026-04-04T14:04:45.081Z</time></trkpt><trkpt lat="42.914842" lon="11.7281806"><ele>612.0</ele><time>2026-04-04T14:04:46.082Z</time></trkpt><trkpt lat="42.9147501" lon="11.7280667"><ele>611.0</ele><time>2026-04-04T14:04:47.085Z</time></trkpt><trkpt lat="42.9146428" lon="11.7279652"><ele>611.0</ele><time>2026-04-04T14:04:48.074Z</time></trkpt><trkpt lat="42.9144973" lon="11.7279028"><ele>611.0</ele><time>2026-04-04T14:04:49.089Z</time></trkpt><trkpt lat="42.9143436" lon="11.7278531"><ele>611.0</ele><time>2026-04-04T14:04:50.073Z</time></trkpt><trkpt lat="42.9141887" lon="11.7278122"><ele>609.75</ele><time>2026-04-04T14:04:51.083Z</time></trkpt><trkpt lat="42.9140491" lon="11.7277659"><ele>608.5</ele><time>2026-04-04T14:04:52.076Z</time></trkpt><trkpt lat="42.9139151" lon="11.7277133"><ele>607.25</ele><time>2026-04-04T14:04:53.071Z</time></trkpt><trkpt lat="42.9137843" lon="11.7276579"><ele>606.0</ele><time>2026-04-04T14:04:54.083Z</time></trkpt><trkpt lat="42.9136425" lon="11.7276169"><ele>606.0</ele><time>2026-04-04T14:04:55.077Z</time></trkpt><trkpt lat="42.9134975" lon="11.7275744"><ele>606.0</ele><time>2026-04-04T14:04:56.138Z</time></trkpt><trkpt lat="42.9133416" lon="11.727535"><ele>606.0</ele><time>2026-04-04T14:04:57.074Z</time></trkpt><trkpt lat="42.9131725" lon="11.7274951"><ele>607.3333333333334</ele><time>2026-04-04T14:04:58.077Z</time></trkpt><trkpt lat="42.9130074" lon="11.727462"><ele>608.6666666666667</ele><time>2026-04-04T14:04:59.078Z</time></trkpt><trkpt lat="42.9128518" lon="11.7274293"><ele>610.0</ele><time>2026-04-04T14:05:00.072Z</time></trkpt><trkpt lat="42.9127063" lon="11.7273994"><ele>610.5</ele><time>2026-04-04T14:05:01.072Z</time></trkpt><trkpt lat="42.9125674" lon="11.7273715"><ele>611.0</ele><time>2026-04-04T14:05:02.097Z</time></trkpt><trkpt lat="42.9124392" lon="11.7273452"><ele>611.5</ele><time>2026-04-04T14:05:03.081Z</time></trkpt><trkpt lat="42.9123209" lon="11.7273248"><ele>612.0</ele><time>2026-04-04T14:05:04.082Z</time></trkpt><trkpt lat="42.9122106" lon="11.7273052"><ele>612.0</ele><time>2026-04-04T14:05:05.081Z</time></trkpt><trkpt lat="42.9121099" lon="11.7272913"><ele>612.0</ele><time>2026-04-04T14:05:06.097Z</time></trkpt><trkpt lat="42.9120101" lon="11.7272791"><ele>612.0</ele><time>2026-04-04T14:05:07.074Z</time></trkpt><trkpt lat="42.9119182" lon="11.7272772"><ele>612.0</ele><time>2026-04-04T14:05:08.079Z</time></trkpt><trkpt lat="42.9118277" lon="11.7272841"><ele>612.0</ele><time>2026-04-04T14:05:09.086Z</time></trkpt><trkpt lat="42.9117428" lon="11.727292"><ele>612.2</ele><time>2026-04-04T14:05:10.08Z</time></trkpt><trkpt lat="42.9116561" lon="11.7273001"><ele>612.4000000000001</ele><time>2026-04-04T14:05:11.097Z</time></trkpt><trkpt lat="42.9115638" lon="11.7273041"><ele>612.5999999999999</ele><time>2026-04-04T14:05:12.074Z</time></trkpt><trkpt lat="42.9114722" lon="11.727305"><ele>612.8</ele><time>2026-04-04T14:05:13.075Z</time></trkpt><trkpt lat="42.9113845" lon="11.7273164"><ele>613.0</ele><time>2026-04-04T14:05:14.074Z</time></trkpt><trkpt lat="42.9112938" lon="11.7273311"><ele>613.0</ele><time>2026-04-04T14:05:15.072Z</time></trkpt><trkpt lat="42.9111968" lon="11.727346"><ele>613.0</ele><time>2026-04-04T14:05:16.081Z</time></trkpt><trkpt lat="42.9110903" lon="11.7273602"><ele>613.0</ele><time>2026-04-04T14:05:17.074Z</time></trkpt><trkpt lat="42.9109734" lon="11.7273729"><ele>613.0</ele><time>2026-04-04T14:05:18.099Z</time></trkpt><trkpt lat="42.9108443" lon="11.7273903"><ele>613.0</ele><time>2026-04-04T14:05:19.084Z</time></trkpt><trkpt lat="42.9106922" lon="11.7274125"><ele>613.0</ele><time>2026-04-04T14:05:20.082Z</time></trkpt><trkpt lat="42.9105196" lon="11.7274386"><ele>613.0</ele><time>2026-04-04T14:05:21.086Z</time></trkpt><trkpt lat="42.9103483" lon="11.7274548"><ele>613.0</ele><time>2026-04-04T14:05:22.078Z</time></trkpt><trkpt lat="42.9101805" lon="11.7274638"><ele>613.0</ele><time>2026-04-04T14:05:23.091Z</time></trkpt><trkpt lat="42.9099906" lon="11.7274734"><ele>613.0</ele><time>2026-04-04T14:05:24.081Z</time></trkpt><trkpt lat="42.9097994" lon="11.7274905"><ele>611.6666666666667</ele><time>2026-04-04T14:05:25.077Z</time></trkpt><trkpt lat="42.9096186" lon="11.7274977"><ele>610.3333333333334</ele><time>2026-04-04T14:05:26.075Z</time></trkpt><trkpt lat="42.9094589" lon="11.7274905"><ele>609.0</ele><time>2026-04-04T14:05:27.085Z</time></trkpt><trkpt lat="42.9093161" lon="11.7274407"><ele>610.5</ele><time>2026-04-04T14:05:28.081Z</time></trkpt><trkpt lat="42.9091829" lon="11.7273717"><ele>612.0</ele><time>2026-04-04T14:05:29.081Z</time></trkpt><trkpt lat="42.9090633" lon="11.7272584"><ele>613.5</ele><time>2026-04-04T14:05:30.08Z</time></trkpt><trkpt lat="42.908963" lon="11.72709"><ele>615.0</ele><time>2026-04-04T14:05:31.094Z</time></trkpt><trkpt lat="42.9088669" lon="11.7269181"><ele>613.75</ele><time>2026-04-04T14:05:32.087Z</time></trkpt><trkpt lat="42.908765" lon="11.7267773"><ele>612.5</ele><time>2026-04-04T14:05:33.089Z</time></trkpt><trkpt lat="42.9086444" lon="11.7266667"><ele>611.25</ele><time>2026-04-04T14:05:34.074Z</time></trkpt><trkpt lat="42.9085068" lon="11.7265734"><ele>610.0</ele><time>2026-04-04T14:05:35.086Z</time></trkpt><trkpt lat="42.9083472" lon="11.7265108"><ele>610.0</ele><time>2026-04-04T14:05:36.077Z</time></trkpt><trkpt lat="42.908177" lon="11.7264636"><ele>610.0</ele><time>2026-04-04T14:05:37.082Z</time></trkpt><trkpt lat="42.9080104" lon="11.7264192"><ele>610.0</ele><time>2026-04-04T14:05:38.08Z</time></trkpt><trkpt lat="42.9078442" lon="11.7263682"><ele>610.0</ele><time>2026-04-04T14:05:39.08Z</time></trkpt><trkpt lat="42.9076807" lon="11.7263163"><ele>610.0</ele><time>2026-04-04T14:05:40.07Z</time></trkpt><trkpt lat="42.9075282" lon="11.7262677"><ele>610.0</ele><time>2026-04-04T14:05:41.083Z</time></trkpt><trkpt lat="42.9073908" lon="11.7262034"><ele>609.0</ele><time>2026-04-04T14:05:42.082Z</time></trkpt><trkpt lat="42.9072743" lon="11.7261152"><ele>608.0</ele><time>2026-04-04T14:05:43.09Z</time></trkpt><trkpt lat="42.9071888" lon="11.7259874"><ele>607.0</ele><time>2026-04-04T14:05:44.084Z</time></trkpt><trkpt lat="42.9071286" lon="11.7258483"><ele>606.0</ele><time>2026-04-04T14:05:45.073Z</time></trkpt><trkpt lat="42.9070747" lon="11.7256954"><ele>606.0</ele><time>2026-04-04T14:05:46.076Z</time></trkpt><trkpt lat="42.9070021" lon="11.7255574"><ele>606.0</ele><time>2026-04-04T14:05:47.08Z</time></trkpt><trkpt lat="42.9068941" lon="11.7254429"><ele>606.0</ele><time>2026-04-04T14:05:48.077Z</time></trkpt><trkpt lat="42.9067639" lon="11.7253697"><ele>606.0</ele><time>2026-04-04T14:05:49.079Z</time></trkpt><trkpt lat="42.9066092" lon="11.7253147"><ele>606.0</ele><time>2026-04-04T14:05:50.093Z</time></trkpt><trkpt lat="42.9064523" lon="11.7252703"><ele>606.0</ele><time>2026-04-04T14:05:51.077Z</time></trkpt><trkpt lat="42.906287" lon="11.7252283"><ele>606.0</ele><time>2026-04-04T14:05:52.08Z</time></trkpt><trkpt lat="42.9061097" lon="11.7251739"><ele>605.3333333333334</ele><time>2026-04-04T14:05:53.08Z</time></trkpt><trkpt lat="42.9059146" lon="11.7251206"><ele>604.6666666666667</ele><time>2026-04-04T14:05:54.075Z</time></trkpt><trkpt lat="42.9057104" lon="11.7250619"><ele>604.0</ele><time>2026-04-04T14:05:55.084Z</time></trkpt><trkpt lat="42.9055118" lon="11.7250087"><ele>604.6666666666667</ele><time>2026-04-04T14:05:56.079Z</time></trkpt><trkpt lat="42.9053383" lon="11.724939"><ele>605.3333333333334</ele><time>2026-04-04T14:05:57.083Z</time></trkpt><trkpt lat="42.9051947" lon="11.7248345"><ele>606.0</ele><time>2026-04-04T14:05:58.075Z</time></trkpt><trkpt lat="42.9050732" lon="11.7247097"><ele>606.0</ele><time>2026-04-04T14:05:59.081Z</time></trkpt><trkpt lat="42.9049651" lon="11.7245719"><ele>606.0</ele><time>2026-04-04T14:06:00.082Z</time></trkpt><trkpt lat="42.9048775" lon="11.724422"><ele>606.0</ele><time>2026-04-04T14:06:01.07Z</time></trkpt><trkpt lat="42.9048128" lon="11.7242747"><ele>606.0</ele><time>2026-04-04T14:06:02.068Z</time></trkpt><trkpt lat="42.9047672" lon="11.7241323"><ele>608.2</ele><time>2026-04-04T14:06:03.077Z</time></trkpt><trkpt lat="42.9047482" lon="11.7239924"><ele>610.4000000000001</ele><time>2026-04-04T14:06:04.079Z</time></trkpt><trkpt lat="42.9047574" lon="11.7238608"><ele>612.6</ele><time>2026-04-04T14:06:05.079Z</time></trkpt><trkpt lat="42.9047962" lon="11.7237374"><ele>614.8000000000001</ele><time>2026-04-04T14:06:06.094Z</time></trkpt><trkpt lat="42.9048578" lon="11.7236184"><ele>617.0</ele><time>2026-04-04T14:06:07.075Z</time></trkpt><trkpt lat="42.904937" lon="11.7235096"><ele>619.3333333333333</ele><time>2026-04-04T14:06:08.083Z</time></trkpt><trkpt lat="42.9050363" lon="11.7234069"><ele>621.6666666666666</ele><time>2026-04-04T14:06:09.075Z</time></trkpt><trkpt lat="42.9052505" lon="11.7231671"><ele>624.0</ele><time>2026-04-04T14:06:11.09Z</time></trkpt><trkpt lat="42.9053288" lon="11.7230138"><ele>620.6666666666666</ele><time>2026-04-04T14:06:12.083Z</time></trkpt><trkpt lat="42.9053824" lon="11.7228279"><ele>617.3333333333333</ele><time>2026-04-04T14:06:13.083Z</time></trkpt><trkpt lat="42.9054009" lon="11.7226218"><ele>614.0</ele><time>2026-04-04T14:06:14.069Z</time></trkpt><trkpt lat="42.9053868" lon="11.7224083"><ele>614.0</ele><time>2026-04-04T14:06:15.081Z</time></trkpt><trkpt lat="42.9053325" lon="11.7222001"><ele>614.0</ele><time>2026-04-04T14:06:16.087Z</time></trkpt><trkpt lat="42.9052518" lon="11.7219875"><ele>614.0</ele><time>2026-04-04T14:06:17.086Z</time></trkpt><trkpt lat="42.9051728" lon="11.7217534"><ele>616.3333333333333</ele><time>2026-04-04T14:06:18.078Z</time></trkpt><trkpt lat="42.9050902" lon="11.7214989"><ele>618.6666666666666</ele><time>2026-04-04T14:06:19.076Z</time></trkpt><trkpt lat="42.9050009" lon="11.7212422"><ele>621.0</ele><time>2026-04-04T14:06:20.08Z</time></trkpt><trkpt lat="42.9049084" lon="11.7209982"><ele>626.3333333333334</ele><time>2026-04-04T14:06:21.083Z</time></trkpt><trkpt lat="42.9048268" lon="11.7207776"><ele>631.6666666666667</ele><time>2026-04-04T14:06:22.08Z</time></trkpt><trkpt lat="42.9047535" lon="11.7205616"><ele>637.0</ele><time>2026-04-04T14:06:23.092Z</time></trkpt><trkpt lat="42.9046869" lon="11.7203388"><ele>638.3333333333334</ele><time>2026-04-04T14:06:24.08Z</time></trkpt><trkpt lat="42.9046208" lon="11.7200965"><ele>639.6666666666666</ele><time>2026-04-04T14:06:25.08Z</time></trkpt><trkpt lat="42.9045556" lon="11.7198621"><ele>641.0</ele><time>2026-04-04T14:06:26.074Z</time></trkpt><trkpt lat="42.9044953" lon="11.7196696"><ele>641.0</ele><time>2026-04-04T14:06:27.075Z</time></trkpt><trkpt lat="42.9044368" lon="11.7195181"><ele>641.0</ele><time>2026-04-04T14:06:28.079Z</time></trkpt><trkpt lat="42.9043645" lon="11.7194085"><ele>641.0</ele><time>2026-04-04T14:06:29.078Z</time></trkpt><trkpt lat="42.904254" lon="11.7193448"><ele>641.0</ele><time>2026-04-04T14:06:30.088Z</time></trkpt><trkpt lat="42.9041388" lon="11.7193585"><ele>641.75</ele><time>2026-04-04T14:06:31.083Z</time></trkpt><trkpt lat="42.9040306" lon="11.7194395"><ele>642.5</ele><time>2026-04-04T14:06:32.081Z</time></trkpt><trkpt lat="42.9039387" lon="11.7195764"><ele>643.25</ele><time>2026-04-04T14:06:33.09Z</time></trkpt><trkpt lat="42.9038765" lon="11.7197311"><ele>644.0</ele><time>2026-04-04T14:06:34.083Z</time></trkpt><trkpt lat="42.9038387" lon="11.7199252"><ele>644.0</ele><time>2026-04-04T14:06:35.083Z</time></trkpt><trkpt lat="42.9037977" lon="11.7201226"><ele>644.0</ele><time>2026-04-04T14:06:36.081Z</time></trkpt><trkpt lat="42.9037376" lon="11.7202907"><ele>644.0</ele><time>2026-04-04T14:06:37.078Z</time></trkpt><trkpt lat="42.9036586" lon="11.72043"><ele>644.0</ele><time>2026-04-04T14:06:38.074Z</time></trkpt><trkpt lat="42.90356" lon="11.7205194"><ele>643.75</ele><time>2026-04-04T14:06:39.075Z</time></trkpt><trkpt lat="42.9034422" lon="11.7205615"><ele>643.5</ele><time>2026-04-04T14:06:40.084Z</time></trkpt><trkpt lat="42.9033082" lon="11.7205364"><ele>643.25</ele><time>2026-04-04T14:06:41.081Z</time></trkpt><trkpt lat="42.9031884" lon="11.7204308"><ele>643.0</ele><time>2026-04-04T14:06:42.076Z</time></trkpt><trkpt lat="42.9030593" lon="11.7202832"><ele>646.0</ele><time>2026-04-04T14:06:43.076Z</time></trkpt><trkpt lat="42.9029024" lon="11.7201354"><ele>649.0</ele><time>2026-04-04T14:06:44.077Z</time></trkpt><trkpt lat="42.9027399" lon="11.7200192"><ele>652.0</ele><time>2026-04-04T14:06:45.082Z</time></trkpt><trkpt lat="42.9025871" lon="11.7199311"><ele>652.0</ele><time>2026-04-04T14:06:46.086Z</time></trkpt><trkpt lat="42.9024349" lon="11.7198689"><ele>652.0</ele><time>2026-04-04T14:06:47.074Z</time></trkpt><trkpt lat="42.9022785" lon="11.7198382"><ele>652.0</ele><time>2026-04-04T14:06:48.082Z</time></trkpt><trkpt lat="42.902135" lon="11.7198174"><ele>652.0</ele><time>2026-04-04T14:06:49.075Z</time></trkpt><trkpt lat="42.902008" lon="11.71979"><ele>652.0</ele><time>2026-04-04T14:06:50.084Z</time></trkpt><trkpt lat="42.9018954" lon="11.7197122"><ele>652.0</ele><time>2026-04-04T14:06:51.079Z</time></trkpt><trkpt lat="42.9017948" lon="11.719595"><ele>652.0</ele><time>2026-04-04T14:06:52.079Z</time></trkpt><trkpt lat="42.9017105" lon="11.7194352"><ele>652.75</ele><time>2026-04-04T14:06:53.075Z</time></trkpt><trkpt lat="42.9016541" lon="11.7192699"><ele>653.5</ele><time>2026-04-04T14:06:54.072Z</time></trkpt><trkpt lat="42.9016386" lon="11.719088"><ele>654.25</ele><time>2026-04-04T14:06:55.08Z</time></trkpt><trkpt lat="42.9016467" lon="11.7188972"><ele>655.0</ele><time>2026-04-04T14:06:56.062Z</time></trkpt><trkpt lat="42.9016821" lon="11.71869"><ele>656.0</ele><time>2026-04-04T14:06:57.069Z</time></trkpt><trkpt lat="42.9017309" lon="11.7184678"><ele>657.0</ele><time>2026-04-04T14:06:58.079Z</time></trkpt><trkpt lat="42.9017809" lon="11.7182248"><ele>658.0</ele><time>2026-04-04T14:06:59.072Z</time></trkpt><trkpt lat="42.9018387" lon="11.7179685"><ele>663.0</ele><time>2026-04-04T14:07:00.076Z</time></trkpt><trkpt lat="42.9018899" lon="11.7177039"><ele>668.0</ele><time>2026-04-04T14:07:01.075Z</time></trkpt><trkpt lat="42.9019357" lon="11.717449"><ele>673.0</ele><time>2026-04-04T14:07:02.087Z</time></trkpt><trkpt lat="42.9019818" lon="11.7172166"><ele>673.0</ele><time>2026-04-04T14:07:03.074Z</time></trkpt><trkpt lat="42.9020273" lon="11.7170115"><ele>673.0</ele><time>2026-04-04T14:07:04.097Z</time></trkpt><trkpt lat="42.9020772" lon="11.7168158"><ele>673.0</ele><time>2026-04-04T14:07:05.078Z</time></trkpt><trkpt lat="42.9021497" lon="11.7166285"><ele>672.0</ele><time>2026-04-04T14:07:06.076Z</time></trkpt><trkpt lat="42.9022465" lon="11.716455"><ele>671.0</ele><time>2026-04-04T14:07:07.068Z</time></trkpt><trkpt lat="42.9023778" lon="11.7162983"><ele>670.0</ele><time>2026-04-04T14:07:08.076Z</time></trkpt><trkpt lat="42.9025297" lon="11.7161564"><ele>674.3333333333334</ele><time>2026-04-04T14:07:09.076Z</time></trkpt><trkpt lat="42.9026716" lon="11.7160255"><ele>678.6666666666666</ele><time>2026-04-04T14:07:10.072Z</time></trkpt><trkpt lat="42.9027981" lon="11.7158836"><ele>683.0</ele><time>2026-04-04T14:07:11.082Z</time></trkpt><trkpt lat="42.9029072" lon="11.7156976"><ele>683.0</ele><time>2026-04-04T14:07:12.092Z</time></trkpt><trkpt lat="42.9029834" lon="11.7154971"><ele>683.0</ele><time>2026-04-04T14:07:13.083Z</time></trkpt><trkpt lat="42.9030337" lon="11.7152703"><ele>683.0</ele><time>2026-04-04T14:07:14.083Z</time></trkpt><trkpt lat="42.9030545" lon="11.7150164"><ele>683.0</ele><time>2026-04-04T14:07:15.082Z</time></trkpt><trkpt lat="42.9030716" lon="11.7147523"><ele>683.0</ele><time>2026-04-04T14:07:16.084Z</time></trkpt><trkpt lat="42.9030845" lon="11.7144763"><ele>683.0</ele><time>2026-04-04T14:07:17.074Z</time></trkpt><trkpt lat="42.9031009" lon="11.7141928"><ele>682.6666666666666</ele><time>2026-04-04T14:07:18.094Z</time></trkpt><trkpt lat="42.9031096" lon="11.7139025"><ele>682.3333333333334</ele><time>2026-04-04T14:07:19.082Z</time></trkpt><trkpt lat="42.9031199" lon="11.7136175"><ele>682.0</ele><time>2026-04-04T14:07:20.078Z</time></trkpt><trkpt lat="42.9031324" lon="11.7133421"><ele>683.0</ele><time>2026-04-04T14:07:21.078Z</time></trkpt><trkpt lat="42.9031465" lon="11.7130623"><ele>684.0</ele><time>2026-04-04T14:07:22.077Z</time></trkpt><trkpt lat="42.9031558" lon="11.7127815"><ele>685.0</ele><time>2026-04-04T14:07:23.083Z</time></trkpt><trkpt lat="42.903164" lon="11.7125246"><ele>686.25</ele><time>2026-04-04T14:07:24.074Z</time></trkpt><trkpt lat="42.9031651" lon="11.7123077"><ele>687.5</ele><time>2026-04-04T14:07:25.081Z</time></trkpt><trkpt lat="42.9031487" lon="11.7121177"><ele>688.75</ele><time>2026-04-04T14:07:26.083Z</time></trkpt><trkpt lat="42.9031014" lon="11.7119429"><ele>690.0</ele><time>2026-04-04T14:07:27.097Z</time></trkpt><trkpt lat="42.9030336" lon="11.7117724"><ele>692.5</ele><time>2026-04-04T14:07:28.081Z</time></trkpt><trkpt lat="42.9029528" lon="11.7116077"><ele>695.0</ele><time>2026-04-04T14:07:29.083Z</time></trkpt><trkpt lat="42.9028683" lon="11.7114341"><ele>697.5</ele><time>2026-04-04T14:07:30.079Z</time></trkpt><trkpt lat="42.9027974" lon="11.7112568"><ele>700.0</ele><time>2026-04-04T14:07:31.089Z</time></trkpt><trkpt lat="42.902746" lon="11.7110921"><ele>701.0</ele><time>2026-04-04T14:07:32.083Z</time></trkpt><trkpt lat="42.9027148" lon="11.7109264"><ele>702.0</ele><time>2026-04-04T14:07:33.09Z</time></trkpt><trkpt lat="42.90271" lon="11.7107657"><ele>703.0</ele><time>2026-04-04T14:07:34.08Z</time></trkpt><trkpt lat="42.9027328" lon="11.7105987"><ele>704.0</ele><time>2026-04-04T14:07:35.074Z</time></trkpt><trkpt lat="42.9027913" lon="11.7104148"><ele>704.3333333333333</ele><time>2026-04-04T14:07:36.08Z</time></trkpt><trkpt lat="42.9028527" lon="11.7102219"><ele>704.6666666666666</ele><time>2026-04-04T14:07:37.085Z</time></trkpt><trkpt lat="42.9029115" lon="11.7100092"><ele>705.0</ele><time>2026-04-04T14:07:38.086Z</time></trkpt><trkpt lat="42.9029799" lon="11.7097797"><ele>705.0</ele><time>2026-04-04T14:07:39.071Z</time></trkpt><trkpt lat="42.903049" lon="11.7095447"><ele>705.0</ele><time>2026-04-04T14:07:40.079Z</time></trkpt><trkpt lat="42.9031056" lon="11.7093238"><ele>705.0</ele><time>2026-04-04T14:07:41.076Z</time></trkpt><trkpt lat="42.9031418" lon="11.7090949"><ele>704.3333333333334</ele><time>2026-04-04T14:07:42.079Z</time></trkpt><trkpt lat="42.9031438" lon="11.7088522"><ele>703.6666666666667</ele><time>2026-04-04T14:07:43.079Z</time></trkpt><trkpt lat="42.9031244" lon="11.7086235"><ele>703.0</ele><time>2026-04-04T14:07:44.09Z</time></trkpt><trkpt lat="42.9030921" lon="11.7084141"><ele>704.6666666666667</ele><time>2026-04-04T14:07:45.085Z</time></trkpt><trkpt lat="42.9030567" lon="11.708201"><ele>706.3333333333334</ele><time>2026-04-04T14:07:46.075Z</time></trkpt><trkpt lat="42.9030229" lon="11.7079756"><ele>708.0</ele><time>2026-04-04T14:07:47.082Z</time></trkpt><trkpt lat="42.9029818" lon="11.7077454"><ele>710.0</ele><time>2026-04-04T14:07:48.089Z</time></trkpt><trkpt lat="42.9029062" lon="11.7075201"><ele>712.0</ele><time>2026-04-04T14:07:49.082Z</time></trkpt><trkpt lat="42.9028078" lon="11.7073052"><ele>714.0</ele><time>2026-04-04T14:07:50.081Z</time></trkpt><trkpt lat="42.9027007" lon="11.7070798"><ele>716.6666666666666</ele><time>2026-04-04T14:07:51.092Z</time></trkpt><trkpt lat="42.9026086" lon="11.7068376"><ele>719.3333333333333</ele><time>2026-04-04T14:07:52.077Z</time></trkpt><trkpt lat="42.902542" lon="11.7065989"><ele>722.0</ele><time>2026-04-04T14:07:53.092Z</time></trkpt><trkpt lat="42.9024955" lon="11.7063826"><ele>718.6666666666666</ele><time>2026-04-04T14:07:54.082Z</time></trkpt><trkpt lat="42.9024564" lon="11.7061705"><ele>715.3333333333334</ele><time>2026-04-04T14:07:55.078Z</time></trkpt><trkpt lat="42.9024098" lon="11.7059684"><ele>712.0</ele><time>2026-04-04T14:07:56.081Z</time></trkpt><trkpt lat="42.9023312" lon="11.7057789"><ele>712.0</ele><time>2026-04-04T14:07:57.09Z</time></trkpt><trkpt lat="42.9022134" lon="11.7056137"><ele>712.0</ele><time>2026-04-04T14:07:58.085Z</time></trkpt><trkpt lat="42.9020709" lon="11.7054542"><ele>712.0</ele><time>2026-04-04T14:07:59.093Z</time></trkpt><trkpt lat="42.9019041" lon="11.7053109"><ele>713.3333333333334</ele><time>2026-04-04T14:08:00.073Z</time></trkpt><trkpt lat="42.901723" lon="11.7051665"><ele>714.6666666666666</ele><time>2026-04-04T14:08:01.071Z</time></trkpt><trkpt lat="42.9015337" lon="11.7050197"><ele>716.0</ele><time>2026-04-04T14:08:02.082Z</time></trkpt><trkpt lat="42.9013528" lon="11.7048824"><ele>716.0</ele><time>2026-04-04T14:08:03.088Z</time></trkpt><trkpt lat="42.9011743" lon="11.7047485"><ele>716.0</ele><time>2026-04-04T14:08:04.079Z</time></trkpt><trkpt lat="42.9009904" lon="11.704605"><ele>716.0</ele><time>2026-04-04T14:08:05.095Z</time></trkpt><trkpt lat="42.900824" lon="11.7044571"><ele>718.3333333333333</ele><time>2026-04-04T14:08:06.077Z</time></trkpt><trkpt lat="42.9006739" lon="11.7043276"><ele>720.6666666666666</ele><time>2026-04-04T14:08:07.078Z</time></trkpt><trkpt lat="42.9005217" lon="11.7042199"><ele>723.0</ele><time>2026-04-04T14:08:08.082Z</time></trkpt><trkpt lat="42.9003664" lon="11.7041332"><ele>723.0</ele><time>2026-04-04T14:08:09.079Z</time></trkpt><trkpt lat="42.9001909" lon="11.7040681"><ele>723.0</ele><time>2026-04-04T14:08:10.105Z</time></trkpt><trkpt lat="42.9000072" lon="11.7040043"><ele>723.0</ele><time>2026-04-04T14:08:11.084Z</time></trkpt><trkpt lat="42.8998237" lon="11.7039367"><ele>721.3333333333334</ele><time>2026-04-04T14:08:12.075Z</time></trkpt><trkpt lat="42.8996598" lon="11.7038646"><ele>719.6666666666667</ele><time>2026-04-04T14:08:13.081Z</time></trkpt><trkpt lat="42.8995047" lon="11.7037771"><ele>718.0</ele><time>2026-04-04T14:08:14.094Z</time></trkpt><trkpt lat="42.8993547" lon="11.7036905"><ele>717.5</ele><time>2026-04-04T14:08:15.08Z</time></trkpt><trkpt lat="42.8992264" lon="11.7036102"><ele>717.0</ele><time>2026-04-04T14:08:16.086Z</time></trkpt><trkpt lat="42.8991198" lon="11.7035431"><ele>716.5</ele><time>2026-04-04T14:08:17.083Z</time></trkpt><trkpt lat="42.8990311" lon="11.7034703"><ele>716.0</ele><time>2026-04-04T14:08:18.086Z</time></trkpt><trkpt lat="42.8989798" lon="11.7033664"><ele>718.0</ele><time>2026-04-04T14:08:19.082Z</time></trkpt><trkpt lat="42.898983" lon="11.7032439"><ele>720.0</ele><time>2026-04-04T14:08:20.081Z</time></trkpt><trkpt lat="42.8990068" lon="11.7031292"><ele>722.0</ele><time>2026-04-04T14:08:21.08Z</time></trkpt><trkpt lat="42.8990388" lon="11.70302"><ele>724.0</ele><time>2026-04-04T14:08:22.08Z</time></trkpt><trkpt lat="42.8990785" lon="11.7028798"><ele>726.0</ele><time>2026-04-04T14:08:23.081Z</time></trkpt><trkpt lat="42.8991377" lon="11.7027238"><ele>726.6666666666666</ele><time>2026-04-04T14:08:24.078Z</time></trkpt><trkpt lat="42.8992041" lon="11.702541"><ele>727.3333333333333</ele><time>2026-04-04T14:08:25.095Z</time></trkpt><trkpt lat="42.8992768" lon="11.7023253"><ele>728.0</ele><time>2026-04-04T14:08:26.088Z</time></trkpt><trkpt lat="42.8993596" lon="11.7021132"><ele>731.6666666666666</ele><time>2026-04-04T14:08:27.084Z</time></trkpt><trkpt lat="42.8994408" lon="11.7019261"><ele>735.3333333333334</ele><time>2026-04-04T14:08:28.091Z</time></trkpt><trkpt lat="42.8995367" lon="11.7017689"><ele>739.0</ele><time>2026-04-04T14:08:29.086Z</time></trkpt><trkpt lat="42.8996627" lon="11.7016154"><ele>739.0</ele><time>2026-04-04T14:08:30.14Z</time></trkpt><trkpt lat="42.8998159" lon="11.7014521"><ele>739.0</ele><time>2026-04-04T14:08:31.072Z</time></trkpt><trkpt lat="42.8999696" lon="11.701286"><ele>739.0</ele><time>2026-04-04T14:08:32.08Z</time></trkpt><trkpt lat="42.9000937" lon="11.7011139"><ele>743.3333333333334</ele><time>2026-04-04T14:08:33.08Z</time></trkpt><trkpt lat="42.9001853" lon="11.7009355"><ele>747.6666666666666</ele><time>2026-04-04T14:08:34.069Z</time></trkpt><trkpt lat="42.9002442" lon="11.7007406"><ele>752.0</ele><time>2026-04-04T14:08:35.097Z</time></trkpt><trkpt lat="42.9002661" lon="11.7005452"><ele>752.0</ele><time>2026-04-04T14:08:36.088Z</time></trkpt><trkpt lat="42.9002416" lon="11.7003416"><ele>752.0</ele><time>2026-04-04T14:08:37.078Z</time></trkpt><trkpt lat="42.9001928" lon="11.7001523"><ele>752.0</ele><time>2026-04-04T14:08:38.076Z</time></trkpt><trkpt lat="42.9001574" lon="11.6999794"><ele>752.0</ele><time>2026-04-04T14:08:39.077Z</time></trkpt><trkpt lat="42.9001463" lon="11.6998374"><ele>751.75</ele><time>2026-04-04T14:08:40.104Z</time></trkpt><trkpt lat="42.9001891" lon="11.6996992"><ele>751.5</ele><time>2026-04-04T14:08:41.087Z</time></trkpt><trkpt lat="42.9002779" lon="11.699602"><ele>751.25</ele><time>2026-04-04T14:08:42.09Z</time></trkpt><trkpt lat="42.9004026" lon="11.6995531"><ele>751.0</ele><time>2026-04-04T14:08:43.085Z</time></trkpt><trkpt lat="42.9005294" lon="11.6995365"><ele>751.0</ele><time>2026-04-04T14:08:44.087Z</time></trkpt><trkpt lat="42.900643" lon="11.6995358"><ele>751.0</ele><time>2026-04-04T14:08:45.074Z</time></trkpt><trkpt lat="42.9007486" lon="11.69953"><ele>751.0</ele><time>2026-04-04T14:08:46.08Z</time></trkpt><trkpt lat="42.9008601" lon="11.699512"><ele>751.0</ele><time>2026-04-04T14:08:47.076Z</time></trkpt><trkpt lat="42.900987" lon="11.6994638"><ele>751.0</ele><time>2026-04-04T14:08:48.083Z</time></trkpt><trkpt lat="42.9011433" lon="11.6993867"><ele>751.0</ele><time>2026-04-04T14:08:49.077Z</time></trkpt><trkpt lat="42.9013134" lon="11.699298"><ele>751.0</ele><time>2026-04-04T14:08:50.091Z</time></trkpt><trkpt lat="42.9014982" lon="11.699203"><ele>751.0</ele><time>2026-04-04T14:08:51.083Z</time></trkpt><trkpt lat="42.9016864" lon="11.6990863"><ele>751.0</ele><time>2026-04-04T14:08:52.072Z</time></trkpt><trkpt lat="42.9018611" lon="11.6989574"><ele>751.0</ele><time>2026-04-04T14:08:53.079Z</time></trkpt><trkpt lat="42.9020134" lon="11.698843"><ele>752.25</ele><time>2026-04-04T14:08:54.079Z</time></trkpt><trkpt lat="42.9021415" lon="11.6987263"><ele>753.5</ele><time>2026-04-04T14:08:55.081Z</time></trkpt><trkpt lat="42.9022423" lon="11.6986027"><ele>754.75</ele><time>2026-04-04T14:08:56.077Z</time></trkpt><trkpt lat="42.9023051" lon="11.6984629"><ele>756.0</ele><time>2026-04-04T14:08:57.082Z</time></trkpt><trkpt lat="42.9023373" lon="11.6982931"><ele>756.0</ele><time>2026-04-04T14:08:58.073Z</time></trkpt><trkpt lat="42.9023429" lon="11.6980998"><ele>756.0</ele><time>2026-04-04T14:08:59.079Z</time></trkpt><trkpt lat="42.9023336" lon="11.6978914"><ele>756.0</ele><time>2026-04-04T14:09:00.078Z</time></trkpt><trkpt lat="42.9023074" lon="11.6976715"><ele>756.75</ele><time>2026-04-04T14:09:01.082Z</time></trkpt><trkpt lat="42.9022881" lon="11.6974514"><ele>757.5</ele><time>2026-04-04T14:09:02.083Z</time></trkpt><trkpt lat="42.9022926" lon="11.6972666"><ele>758.25</ele><time>2026-04-04T14:09:03.095Z</time></trkpt><trkpt lat="42.9023308" lon="11.6971061"><ele>759.0</ele><time>2026-04-04T14:09:04.077Z</time></trkpt><trkpt lat="42.9023816" lon="11.6969718"><ele>757.8000000000001</ele><time>2026-04-04T14:09:05.076Z</time></trkpt><trkpt lat="42.9024735" lon="11.6968952"><ele>756.6</ele><time>2026-04-04T14:09:06.067Z</time></trkpt><trkpt lat="42.9025668" lon="11.6968802"><ele>755.4</ele><time>2026-04-04T14:09:07.07Z</time></trkpt><trkpt lat="42.9026721" lon="11.6969356"><ele>754.2</ele><time>2026-04-04T14:09:08.07Z</time></trkpt><trkpt lat="42.9027753" lon="11.6970236"><ele>753.0</ele><time>2026-04-04T14:09:09.069Z</time></trkpt><trkpt lat="42.9028737" lon="11.6971125"><ele>756.25</ele><time>2026-04-04T14:09:10.086Z</time></trkpt><trkpt lat="42.9029808" lon="11.6971347"><ele>759.5</ele><time>2026-04-04T14:09:11.084Z</time></trkpt><trkpt lat="42.9030956" lon="11.6970997"><ele>762.75</ele><time>2026-04-04T14:09:12.074Z</time></trkpt><trkpt lat="42.9032179" lon="11.6970214"><ele>766.0</ele><time>2026-04-04T14:09:13.07Z</time></trkpt><trkpt lat="42.9033388" lon="11.6968946"><ele>770.0</ele><time>2026-04-04T14:09:14.068Z</time></trkpt><trkpt lat="42.9034869" lon="11.6967854"><ele>774.0</ele><time>2026-04-04T14:09:15.08Z</time></trkpt><trkpt lat="42.9036607" lon="11.6967134"><ele>778.0</ele><time>2026-04-04T14:09:16.077Z</time></trkpt><trkpt lat="42.9038426" lon="11.6966357"><ele>778.0</ele><time>2026-04-04T14:09:17.088Z</time></trkpt><trkpt lat="42.9040008" lon="11.6965518"><ele>778.0</ele><time>2026-04-04T14:09:18.083Z</time></trkpt><trkpt lat="42.9041271" lon="11.6964612"><ele>778.0</ele><time>2026-04-04T14:09:19.07Z</time></trkpt><trkpt lat="42.9042143" lon="11.6963442"><ele>778.0</ele><time>2026-04-04T14:09:20.07Z</time></trkpt><trkpt lat="42.9042731" lon="11.696184"><ele>783.3333333333333</ele><time>2026-04-04T14:09:21.083Z</time></trkpt><trkpt lat="42.904292" lon="11.6959877"><ele>788.6666666666667</ele><time>2026-04-04T14:09:22.082Z</time></trkpt><trkpt lat="42.9042896" lon="11.6957679"><ele>794.0</ele><time>2026-04-04T14:09:23.079Z</time></trkpt><trkpt lat="42.9042803" lon="11.6955394"><ele>794.0</ele><time>2026-04-04T14:09:24.087Z</time></trkpt><trkpt lat="42.9043095" lon="11.6953345"><ele>794.0</ele><time>2026-04-04T14:09:25.077Z</time></trkpt><trkpt lat="42.9043849" lon="11.6951236"><ele>794.0</ele><time>2026-04-04T14:09:26.08Z</time></trkpt><trkpt lat="42.9044861" lon="11.6949366"><ele>793.0</ele><time>2026-04-04T14:09:27.077Z</time></trkpt><trkpt lat="42.9046084" lon="11.6948053"><ele>792.0</ele><time>2026-04-04T14:09:28.078Z</time></trkpt><trkpt lat="42.9047486" lon="11.6947033"><ele>791.0</ele><time>2026-04-04T14:09:29.071Z</time></trkpt><trkpt lat="42.9049025" lon="11.6945954"><ele>791.0</ele><time>2026-04-04T14:09:30.068Z</time></trkpt><trkpt lat="42.9050541" lon="11.6944653"><ele>791.0</ele><time>2026-04-04T14:09:31.068Z</time></trkpt><trkpt lat="42.9051873" lon="11.6943197"><ele>791.0</ele><time>2026-04-04T14:09:32.081Z</time></trkpt><trkpt lat="42.9053044" lon="11.6941909"><ele>793.75</ele><time>2026-04-04T14:09:33.078Z</time></trkpt><trkpt lat="42.9054003" lon="11.6940722"><ele>796.5</ele><time>2026-04-04T14:09:34.073Z</time></trkpt><trkpt lat="42.9054599" lon="11.6939332"><ele>799.25</ele><time>2026-04-04T14:09:35.074Z</time></trkpt><trkpt lat="42.9054811" lon="11.693786"><ele>802.0</ele><time>2026-04-04T14:09:36.077Z</time></trkpt><trkpt lat="42.9054782" lon="11.6936333"><ele>801.9999999999999</ele><time>2026-04-04T14:09:37.072Z</time></trkpt><trkpt lat="42.9054873" lon="11.6935058"><ele>802.0</ele><time>2026-04-04T14:09:38.085Z</time></trkpt><trkpt lat="42.9055401" lon="11.6934146"><ele>802.0</ele><time>2026-04-04T14:09:39.077Z</time></trkpt><trkpt lat="42.9055993" lon="11.6933843"><ele>802.0</ele><time>2026-04-04T14:09:40.078Z</time></trkpt><trkpt lat="42.9056816" lon="11.6934044"><ele>801.9999999999999</ele><time>2026-04-04T14:09:41.076Z</time></trkpt><trkpt lat="42.9057618" lon="11.6934889"><ele>802.0</ele><time>2026-04-04T14:09:42.074Z</time></trkpt><trkpt lat="42.9058556" lon="11.6936094"><ele>805.25</ele><time>2026-04-04T14:09:43.066Z</time></trkpt><trkpt lat="42.9059564" lon="11.6937409"><ele>808.5</ele><time>2026-04-04T14:09:44.075Z</time></trkpt><trkpt lat="42.9060615" lon="11.693841"><ele>811.75</ele><time>2026-04-04T14:09:45.079Z</time></trkpt><trkpt lat="42.9061733" lon="11.6939309"><ele>815.0</ele><time>2026-04-04T14:09:46.078Z</time></trkpt><trkpt lat="42.9062973" lon="11.6940291"><ele>815.0</ele><time>2026-04-04T14:09:47.076Z</time></trkpt><trkpt lat="42.9064" lon="11.6941704"><ele>815.0</ele><time>2026-04-04T14:09:48.071Z</time></trkpt><trkpt lat="42.9064461" lon="11.6943227"><ele>815.0</ele><time>2026-04-04T14:09:49.078Z</time></trkpt><trkpt lat="42.9064621" lon="11.6945014"><ele>815.0</ele><time>2026-04-04T14:09:50.106Z</time></trkpt><trkpt lat="42.9064458" lon="11.6946491"><ele>815.8</ele><time>2026-04-04T14:09:51.078Z</time></trkpt><trkpt lat="42.9063807" lon="11.6947671"><ele>816.6</ele><time>2026-04-04T14:09:52.073Z</time></trkpt><trkpt lat="42.9062796" lon="11.6948569"><ele>817.4000000000001</ele><time>2026-04-04T14:09:53.073Z</time></trkpt><trkpt lat="42.906179" lon="11.6949305"><ele>818.2</ele><time>2026-04-04T14:09:54.081Z</time></trkpt><trkpt lat="42.9061167" lon="11.6950202"><ele>819.0</ele><time>2026-04-04T14:09:55.079Z</time></trkpt><trkpt lat="42.9060976" lon="11.6951213"><ele>819.0</ele><time>2026-04-04T14:09:56.091Z</time></trkpt><trkpt lat="42.9061101" lon="11.6952062"><ele>819.0</ele><time>2026-04-04T14:09:57.08Z</time></trkpt><trkpt lat="42.906154" lon="11.6952851"><ele>819.0</ele><time>2026-04-04T14:09:58.072Z</time></trkpt><trkpt lat="42.9062238" lon="11.695332"><ele>819.0</ele><time>2026-04-04T14:09:59.074Z</time></trkpt><trkpt lat="42.9063081" lon="11.6953227"><ele>819.0</ele><time>2026-04-04T14:10:00.071Z</time></trkpt><trkpt lat="42.9064116" lon="11.6952829"><ele>819.0</ele><time>2026-04-04T14:10:01.072Z</time></trkpt><trkpt lat="42.9065416" lon="11.6952309"><ele>819.0</ele><time>2026-04-04T14:10:02.088Z</time></trkpt><trkpt lat="42.9066799" lon="11.6951796"><ele>819.0</ele><time>2026-04-04T14:10:03.078Z</time></trkpt><trkpt lat="42.9068128" lon="11.6951354"><ele>819.0</ele><time>2026-04-04T14:10:04.077Z</time></trkpt><trkpt lat="42.9069371" lon="11.6950866"><ele>819.0</ele><time>2026-04-04T14:10:05.079Z</time></trkpt><trkpt lat="42.9070661" lon="11.6950374"><ele>820.5</ele><time>2026-04-04T14:10:06.076Z</time></trkpt><trkpt lat="42.9072162" lon="11.6949838"><ele>822.0</ele><time>2026-04-04T14:10:07.073Z</time></trkpt><trkpt lat="42.9073689" lon="11.6949235"><ele>823.5</ele><time>2026-04-04T14:10:08.093Z</time></trkpt><trkpt lat="42.9074877" lon="11.6948453"><ele>825.0</ele><time>2026-04-04T14:10:09.085Z</time></trkpt><trkpt lat="42.9075831" lon="11.6947284"><ele>825.0</ele><time>2026-04-04T14:10:10.08Z</time></trkpt><trkpt lat="42.9076783" lon="11.694581"><ele>825.0</ele><time>2026-04-04T14:10:11.081Z</time></trkpt><trkpt lat="42.9077909" lon="11.6944353"><ele>825.0</ele><time>2026-04-04T14:10:12.076Z</time></trkpt><trkpt lat="42.9079298" lon="11.6942924"><ele>828.3333333333333</ele><time>2026-04-04T14:10:13.075Z</time></trkpt><trkpt lat="42.9080616" lon="11.6941477"><ele>831.6666666666666</ele><time>2026-04-04T14:10:14.08Z</time></trkpt><trkpt lat="42.9081793" lon="11.6939677"><ele>835.0</ele><time>2026-04-04T14:10:15.077Z</time></trkpt><trkpt lat="42.9082591" lon="11.6937839"><ele>835.0</ele><time>2026-04-04T14:10:16.086Z</time></trkpt><trkpt lat="42.9083468" lon="11.6936041"><ele>835.0</ele><time>2026-04-04T14:10:17.077Z</time></trkpt><trkpt lat="42.9084438" lon="11.693477"><ele>835.0</ele><time>2026-04-04T14:10:18.082Z</time></trkpt><trkpt lat="42.9085571" lon="11.6934258"><ele>835.0</ele><time>2026-04-04T14:10:19.079Z</time></trkpt><trkpt lat="42.908692" lon="11.6934113"><ele>838.25</ele><time>2026-04-04T14:10:20.074Z</time></trkpt><trkpt lat="42.9088239" lon="11.6933945"><ele>841.5</ele><time>2026-04-04T14:10:21.075Z</time></trkpt><trkpt lat="42.9089421" lon="11.6933405"><ele>844.75</ele><time>2026-04-04T14:10:22.081Z</time></trkpt><trkpt lat="42.909057" lon="11.6932484"><ele>848.0</ele><time>2026-04-04T14:10:23.085Z</time></trkpt><trkpt lat="42.9091582" lon="11.6930969"><ele>847.6666666666667</ele><time>2026-04-04T14:10:24.076Z</time></trkpt><trkpt lat="42.9092653" lon="11.6929522"><ele>847.3333333333333</ele><time>2026-04-04T14:10:25.075Z</time></trkpt><trkpt lat="42.9093856" lon="11.6928462"><ele>847.0</ele><time>2026-04-04T14:10:26.075Z</time></trkpt><trkpt lat="42.9095336" lon="11.6927561"><ele>850.6666666666666</ele><time>2026-04-04T14:10:27.075Z</time></trkpt><trkpt lat="42.9096779" lon="11.6926309"><ele>854.3333333333333</ele><time>2026-04-04T14:10:28.088Z</time></trkpt><trkpt lat="42.9097963" lon="11.6924648"><ele>858.0</ele><time>2026-04-04T14:10:29.077Z</time></trkpt><trkpt lat="42.9099122" lon="11.6923183"><ele>858.0</ele><time>2026-04-04T14:10:30.085Z</time></trkpt><trkpt lat="42.9100333" lon="11.6922171"><ele>858.0</ele><time>2026-04-04T14:10:31.081Z</time></trkpt><trkpt lat="42.9101249" lon="11.6921019"><ele>858.0</ele><time>2026-04-04T14:10:32.083Z</time></trkpt><trkpt lat="42.910181" lon="11.6919386"><ele>858.0</ele><time>2026-04-04T14:10:33.079Z</time></trkpt><trkpt lat="42.9102252" lon="11.6917609"><ele>858.6666666666667</ele><time>2026-04-04T14:10:34.077Z</time></trkpt><trkpt lat="42.9103044" lon="11.6915803"><ele>859.3333333333334</ele><time>2026-04-04T14:10:35.077Z</time></trkpt><trkpt lat="42.9103998" lon="11.6913937"><ele>860.0</ele><time>2026-04-04T14:10:36.081Z</time></trkpt><trkpt lat="42.9105007" lon="11.6912135"><ele>863.3333333333334</ele><time>2026-04-04T14:10:37.077Z</time></trkpt><trkpt lat="42.9106242" lon="11.6910337"><ele>866.6666666666667</ele><time>2026-04-04T14:10:38.095Z</time></trkpt><trkpt lat="42.9107495" lon="11.6908782"><ele>870.0</ele><time>2026-04-04T14:10:39.076Z</time></trkpt><trkpt lat="42.9108452" lon="11.6907283"><ele>870.0</ele><time>2026-04-04T14:10:40.086Z</time></trkpt><trkpt lat="42.9109057" lon="11.6906053"><ele>870.0</ele><time>2026-04-04T14:10:41.077Z</time></trkpt><trkpt lat="42.9109203" lon="11.6904854"><ele>870.0</ele><time>2026-04-04T14:10:42.08Z</time></trkpt><trkpt lat="42.9108801" lon="11.6903487"><ele>870.0</ele><time>2026-04-04T14:10:43.086Z</time></trkpt><trkpt lat="42.9107916" lon="11.6902167"><ele>870.0</ele><time>2026-04-04T14:10:44.072Z</time></trkpt><trkpt lat="42.9106752" lon="11.6901231"><ele>869.25</ele><time>2026-04-04T14:10:45.094Z</time></trkpt><trkpt lat="42.9105616" lon="11.6900582"><ele>868.5</ele><time>2026-04-04T14:10:46.075Z</time></trkpt><trkpt lat="42.9104469" lon="11.6900057"><ele>867.75</ele><time>2026-04-04T14:10:47.074Z</time></trkpt><trkpt lat="42.91037" lon="11.6899087"><ele>867.0</ele><time>2026-04-04T14:10:48.08Z</time></trkpt><trkpt lat="42.9103242" lon="11.689781"><ele>867.0</ele><time>2026-04-04T14:10:49.071Z</time></trkpt><trkpt lat="42.9102956" lon="11.6896175"><ele>867.0</ele><time>2026-04-04T14:10:50.094Z</time></trkpt><trkpt lat="42.9102999" lon="11.6894314"><ele>867.0</ele><time>2026-04-04T14:10:51.077Z</time></trkpt><trkpt lat="42.9103355" lon="11.6892087"><ele>867.0</ele><time>2026-04-04T14:10:52.084Z</time></trkpt><trkpt lat="42.910356" lon="11.6889921"><ele>864.3333333333333</ele><time>2026-04-04T14:10:53.082Z</time></trkpt><trkpt lat="42.9103526" lon="11.6887827"><ele>861.6666666666666</ele><time>2026-04-04T14:10:54.084Z</time></trkpt><trkpt lat="42.9103285" lon="11.6885549"><ele>859.0</ele><time>2026-04-04T14:10:55.077Z</time></trkpt><trkpt lat="42.9102938" lon="11.688311"><ele>857.3333333333333</ele><time>2026-04-04T14:10:56.08Z</time></trkpt><trkpt lat="42.9102575" lon="11.6880529"><ele>855.6666666666667</ele><time>2026-04-04T14:10:57.077Z</time></trkpt><trkpt lat="42.910219" lon="11.6877802"><ele>854.0</ele><time>2026-04-04T14:10:58.091Z</time></trkpt><trkpt lat="42.9101888" lon="11.6875183"><ele>853.6666666666667</ele><time>2026-04-04T14:10:59.074Z</time></trkpt><trkpt lat="42.910169" lon="11.6872697"><ele>853.3333333333333</ele><time>2026-04-04T14:11:00.077Z</time></trkpt><trkpt lat="42.91015" lon="11.6870191"><ele>853.0</ele><time>2026-04-04T14:11:01.073Z</time></trkpt><trkpt lat="42.9101279" lon="11.6867582"><ele>853.0</ele><time>2026-04-04T14:11:02.074Z</time></trkpt><trkpt lat="42.9101051" lon="11.6864913"><ele>853.0</ele><time>2026-04-04T14:11:03.128Z</time></trkpt><trkpt lat="42.9100815" lon="11.6862437"><ele>853.0</ele><time>2026-04-04T14:11:04.087Z</time></trkpt><trkpt lat="42.9100542" lon="11.6860173"><ele>857.3333333333333</ele><time>2026-04-04T14:11:05.078Z</time></trkpt><trkpt lat="42.9100273" lon="11.6858004"><ele>861.6666666666667</ele><time>2026-04-04T14:11:06.071Z</time></trkpt><trkpt lat="42.9100065" lon="11.6855846"><ele>866.0</ele><time>2026-04-04T14:11:07.085Z</time></trkpt><trkpt lat="42.9099854" lon="11.6853587"><ele>869.3333333333334</ele><time>2026-04-04T14:11:08.076Z</time></trkpt><trkpt lat="42.9099662" lon="11.6851268"><ele>872.6666666666667</ele><time>2026-04-04T14:11:09.078Z</time></trkpt><trkpt lat="42.9099472" lon="11.6848821"><ele>876.0</ele><time>2026-04-04T14:11:10.088Z</time></trkpt><trkpt lat="42.9099301" lon="11.684643"><ele>877.25</ele><time>2026-04-04T14:11:11.08Z</time></trkpt><trkpt lat="42.9099161" lon="11.6844184"><ele>878.5</ele><time>2026-04-04T14:11:12.106Z</time></trkpt><trkpt lat="42.9099134" lon="11.6842174"><ele>879.75</ele><time>2026-04-04T14:11:13.077Z</time></trkpt><trkpt lat="42.909935" lon="11.6840346"><ele>881.0</ele><time>2026-04-04T14:11:14.091Z</time></trkpt><trkpt lat="42.9099825" lon="11.6838467"><ele>881.0</ele><time>2026-04-04T14:11:15.09Z</time></trkpt><trkpt lat="42.9100493" lon="11.6836556"><ele>881.0</ele><time>2026-04-04T14:11:16.078Z</time></trkpt><trkpt lat="42.9101127" lon="11.6834563"><ele>881.0</ele><time>2026-04-04T14:11:17.092Z</time></trkpt><trkpt lat="42.9101491" lon="11.6832448"><ele>879.6666666666667</ele><time>2026-04-04T14:11:18.083Z</time></trkpt><trkpt lat="42.9101708" lon="11.683025"><ele>878.3333333333333</ele><time>2026-04-04T14:11:19.086Z</time></trkpt><trkpt lat="42.910165" lon="11.6827938"><ele>877.0</ele><time>2026-04-04T14:11:20.077Z</time></trkpt><trkpt lat="42.9101364" lon="11.6825468"><ele>876.0</ele><time>2026-04-04T14:11:21.073Z</time></trkpt><trkpt lat="42.9101068" lon="11.6823091"><ele>875.0</ele><time>2026-04-04T14:11:22.08Z</time></trkpt><trkpt lat="42.9100872" lon="11.6820852"><ele>874.0</ele><time>2026-04-04T14:11:23.089Z</time></trkpt><trkpt lat="42.9100716" lon="11.6818719"><ele>876.6666666666666</ele><time>2026-04-04T14:11:24.084Z</time></trkpt><trkpt lat="42.9100577" lon="11.6816592"><ele>879.3333333333333</ele><time>2026-04-04T14:11:25.103Z</time></trkpt><trkpt lat="42.9100437" lon="11.6814456"><ele>882.0</ele><time>2026-04-04T14:11:26.088Z</time></trkpt><trkpt lat="42.9100371" lon="11.6812459"><ele>881.75</ele><time>2026-04-04T14:11:27.081Z</time></trkpt><trkpt lat="42.9100267" lon="11.6810554"><ele>881.5</ele><time>2026-04-04T14:11:28.085Z</time></trkpt><trkpt lat="42.9100005" lon="11.6808664"><ele>881.25</ele><time>2026-04-04T14:11:29.092Z</time></trkpt><trkpt lat="42.9099535" lon="11.6806639"><ele>881.0</ele><time>2026-04-04T14:11:30.083Z</time></trkpt><trkpt lat="42.9098875" lon="11.6804578"><ele>879.0</ele><time>2026-04-04T14:11:31.086Z</time></trkpt><trkpt lat="42.9098223" lon="11.6802661"><ele>877.0</ele><time>2026-04-04T14:11:32.088Z</time></trkpt><trkpt lat="42.9097682" lon="11.6800837"><ele>875.0</ele><time>2026-04-04T14:11:33.083Z</time></trkpt><trkpt lat="42.9097231" lon="11.6798894"><ele>873.0</ele><time>2026-04-04T14:11:34.09Z</time></trkpt><trkpt lat="42.9096913" lon="11.6796811"><ele>873.0</ele><time>2026-04-04T14:11:35.086Z</time></trkpt><trkpt lat="42.9096784" lon="11.679459"><ele>873.0</ele><time>2026-04-04T14:11:36.085Z</time></trkpt><trkpt lat="42.9096761" lon="11.6792536"><ele>873.0</ele><time>2026-04-04T14:11:37.08Z</time></trkpt><trkpt lat="42.9096753" lon="11.6790696"><ele>873.0</ele><time>2026-04-04T14:11:38.079Z</time></trkpt><trkpt lat="42.9096726" lon="11.6788897"><ele>871.5</ele><time>2026-04-04T14:11:39.084Z</time></trkpt><trkpt lat="42.9096722" lon="11.6787225"><ele>870.0</ele><time>2026-04-04T14:11:40.084Z</time></trkpt><trkpt lat="42.9096708" lon="11.6785608"><ele>868.5</ele><time>2026-04-04T14:11:41.13Z</time></trkpt><trkpt lat="42.9096805" lon="11.678404"><ele>867.0</ele><time>2026-04-04T14:11:42.107Z</time></trkpt><trkpt lat="42.9096896" lon="11.67825"><ele>866.5</ele><time>2026-04-04T14:11:43.092Z</time></trkpt><trkpt lat="42.909702" lon="11.6780888"><ele>866.0</ele><time>2026-04-04T14:11:44.093Z</time></trkpt><trkpt lat="42.9097202" lon="11.6779271"><ele>865.5</ele><time>2026-04-04T14:11:45.099Z</time></trkpt><trkpt lat="42.9097443" lon="11.6777444"><ele>865.0</ele><time>2026-04-04T14:11:46.087Z</time></trkpt><trkpt lat="42.9097696" lon="11.6775467"><ele>865.0</ele><time>2026-04-04T14:11:47.077Z</time></trkpt><trkpt lat="42.9097899" lon="11.677333"><ele>865.0</ele><time>2026-04-04T14:11:48.082Z</time></trkpt><trkpt lat="42.9097971" lon="11.6770959"><ele>865.0</ele><time>2026-04-04T14:11:49.088Z</time></trkpt><trkpt lat="42.9097853" lon="11.6768375"><ele>868.0</ele><time>2026-04-04T14:11:50.084Z</time></trkpt><trkpt lat="42.9097639" lon="11.6765842"><ele>871.0</ele><time>2026-04-04T14:11:51.099Z</time></trkpt><trkpt lat="42.9097385" lon="11.6763432"><ele>874.0</ele><time>2026-04-04T14:11:52.073Z</time></trkpt><trkpt lat="42.9097123" lon="11.6761158"><ele>878.6666666666666</ele><time>2026-04-04T14:11:53.081Z</time></trkpt><trkpt lat="42.9096748" lon="11.6758734"><ele>883.3333333333333</ele><time>2026-04-04T14:11:54.086Z</time></trkpt><trkpt lat="42.9096237" lon="11.6756263"><ele>888.0</ele><time>2026-04-04T14:11:55.079Z</time></trkpt><trkpt lat="42.9095905" lon="11.6753942"><ele>890.3333333333333</ele><time>2026-04-04T14:11:56.094Z</time></trkpt><trkpt lat="42.9096" lon="11.6751662"><ele>892.6666666666666</ele><time>2026-04-04T14:11:57.074Z</time></trkpt><trkpt lat="42.9096365" lon="11.6749569"><ele>895.0</ele><time>2026-04-04T14:11:58.076Z</time></trkpt><trkpt lat="42.9096596" lon="11.67475"><ele>895.0</ele><time>2026-04-04T14:11:59.076Z</time></trkpt><trkpt lat="42.9096461" lon="11.6745417"><ele>895.0</ele><time>2026-04-04T14:12:00.079Z</time></trkpt><trkpt lat="42.9096104" lon="11.6743272"><ele>895.0</ele><time>2026-04-04T14:12:01.101Z</time></trkpt><trkpt lat="42.9095565" lon="11.674122"><ele>894.75</ele><time>2026-04-04T14:12:02.078Z</time></trkpt><trkpt lat="42.9094878" lon="11.6739529"><ele>894.5</ele><time>2026-04-04T14:12:03.068Z</time></trkpt><trkpt lat="42.9093891" lon="11.6738048"><ele>894.25</ele><time>2026-04-04T14:12:04.074Z</time></trkpt><trkpt lat="42.9092759" lon="11.6736629"><ele>894.0</ele><time>2026-04-04T14:12:05.068Z</time></trkpt><trkpt lat="42.9091843" lon="11.6735068"><ele>894.0</ele><time>2026-04-04T14:12:06.08Z</time></trkpt><trkpt lat="42.9091329" lon="11.6733375"><ele>894.0</ele><time>2026-04-04T14:12:07.079Z</time></trkpt><trkpt lat="42.9091301" lon="11.6731539"><ele>894.0</ele><time>2026-04-04T14:12:08.066Z</time></trkpt><trkpt lat="42.909164" lon="11.6729815"><ele>894.0</ele><time>2026-04-04T14:12:09.07Z</time></trkpt><trkpt lat="42.9092125" lon="11.6728112"><ele>901.0</ele><time>2026-04-04T14:12:10.074Z</time></trkpt><trkpt lat="42.9092787" lon="11.6726549"><ele>908.0</ele><time>2026-04-04T14:12:11.079Z</time></trkpt><trkpt lat="42.9093421" lon="11.6724804"><ele>915.0</ele><time>2026-04-04T14:12:12.081Z</time></trkpt><trkpt lat="42.9094029" lon="11.672287"><ele>922.0</ele><time>2026-04-04T14:12:13.084Z</time></trkpt><trkpt lat="42.9094536" lon="11.6720609"><ele>921.0</ele><time>2026-04-04T14:12:14.09Z</time></trkpt><trkpt lat="42.9095088" lon="11.6718511"><ele>920.0</ele><time>2026-04-04T14:12:15.08Z</time></trkpt><trkpt lat="42.9095412" lon="11.6716738"><ele>919.0</ele><time>2026-04-04T14:12:16.099Z</time></trkpt><trkpt lat="42.9095509" lon="11.6715106"><ele>918.0</ele><time>2026-04-04T14:12:17.086Z</time></trkpt><trkpt lat="42.9095306" lon="11.6713614"><ele>918.0</ele><time>2026-04-04T14:12:18.067Z</time></trkpt><trkpt lat="42.9094706" lon="11.6712236"><ele>918.0</ele><time>2026-04-04T14:12:19.086Z</time></trkpt><trkpt lat="42.9093786" lon="11.6710946"><ele>918.0</ele><time>2026-04-04T14:12:20.087Z</time></trkpt><trkpt lat="42.909278" lon="11.6709723"><ele>918.0</ele><time>2026-04-04T14:12:21.097Z</time></trkpt><trkpt lat="42.9092148" lon="11.6708352"><ele>917.5</ele><time>2026-04-04T14:12:22.074Z</time></trkpt><trkpt lat="42.9091902" lon="11.6706692"><ele>917.0</ele><time>2026-04-04T14:12:23.101Z</time></trkpt><trkpt lat="42.9091887" lon="11.6704688"><ele>916.5</ele><time>2026-04-04T14:12:24.088Z</time></trkpt><trkpt lat="42.9091993" lon="11.6702664"><ele>916.0</ele><time>2026-04-04T14:12:25.077Z</time></trkpt><trkpt lat="42.9092061" lon="11.6700603"><ele>916.0</ele><time>2026-04-04T14:12:26.084Z</time></trkpt><trkpt lat="42.9091997" lon="11.6698745"><ele>916.0</ele><time>2026-04-04T14:12:27.077Z</time></trkpt><trkpt lat="42.9091864" lon="11.6697149"><ele>916.0</ele><time>2026-04-04T14:12:28.074Z</time></trkpt><trkpt lat="42.9091314" lon="11.6695788"><ele>916.0</ele><time>2026-04-04T14:12:29.085Z</time></trkpt><trkpt lat="42.9090136" lon="11.6694915"><ele>917.6666666666666</ele><time>2026-04-04T14:12:30.077Z</time></trkpt><trkpt lat="42.9088825" lon="11.6693902"><ele>919.3333333333333</ele><time>2026-04-04T14:12:31.077Z</time></trkpt><trkpt lat="42.9087493" lon="11.6692923"><ele>921.0</ele><time>2026-04-04T14:12:32.08Z</time></trkpt><trkpt lat="42.908619" lon="11.6691728"><ele>921.0</ele><time>2026-04-04T14:12:33.08Z</time></trkpt><trkpt lat="42.9085156" lon="11.669041"><ele>921.0</ele><time>2026-04-04T14:12:34.085Z</time></trkpt><trkpt lat="42.9084461" lon="11.6688829"><ele>921.0</ele><time>2026-04-04T14:12:35.084Z</time></trkpt><trkpt lat="42.9084062" lon="11.6686984"><ele>921.0</ele><time>2026-04-04T14:12:36.075Z</time></trkpt><trkpt lat="42.9083612" lon="11.6684823"><ele>918.6666666666667</ele><time>2026-04-04T14:12:37.077Z</time></trkpt><trkpt lat="42.9083222" lon="11.6682589"><ele>916.3333333333334</ele><time>2026-04-04T14:12:38.073Z</time></trkpt><trkpt lat="42.9082834" lon="11.668045"><ele>914.0</ele><time>2026-04-04T14:12:39.093Z</time></trkpt><trkpt lat="42.9082531" lon="11.6678713"><ele>915.2</ele><time>2026-04-04T14:12:40.089Z</time></trkpt><trkpt lat="42.9082174" lon="11.6677288"><ele>916.4000000000001</ele><time>2026-04-04T14:12:41.084Z</time></trkpt><trkpt lat="42.9081617" lon="11.6676198"><ele>917.6</ele><time>2026-04-04T14:12:42.09Z</time></trkpt><trkpt lat="42.908069" lon="11.6675515"><ele>918.8</ele><time>2026-04-04T14:12:43.082Z</time></trkpt><trkpt lat="42.9079615" lon="11.66753"><ele>920.0</ele><time>2026-04-04T14:12:44.092Z</time></trkpt><trkpt lat="42.9078651" lon="11.6675529"><ele>920.0</ele><time>2026-04-04T14:12:45.084Z</time></trkpt><trkpt lat="42.9077907" lon="11.6676308"><ele>920.0</ele><time>2026-04-04T14:12:46.071Z</time></trkpt><trkpt lat="42.9077344" lon="11.667759"><ele>920.0</ele><time>2026-04-04T14:12:47.077Z</time></trkpt><trkpt lat="42.9076908" lon="11.6679278"><ele>920.0</ele><time>2026-04-04T14:12:48.084Z</time></trkpt><trkpt lat="42.9076272" lon="11.6681018"><ele>918.0</ele><time>2026-04-04T14:12:49.084Z</time></trkpt><trkpt lat="42.9075407" lon="11.6682345"><ele>916.0</ele><time>2026-04-04T14:12:50.085Z</time></trkpt><trkpt lat="42.9074203" lon="11.668342"><ele>914.0</ele><time>2026-04-04T14:12:51.081Z</time></trkpt><trkpt lat="42.9072719" lon="11.6684533"><ele>912.0</ele><time>2026-04-04T14:12:52.084Z</time></trkpt><trkpt lat="42.9071281" lon="11.6685676"><ele>908.0</ele><time>2026-04-04T14:12:53.078Z</time></trkpt><trkpt lat="42.9069675" lon="11.6686639"><ele>904.0</ele><time>2026-04-04T14:12:54.091Z</time></trkpt><trkpt lat="42.9067971" lon="11.6687342"><ele>900.0</ele><time>2026-04-04T14:12:55.079Z</time></trkpt><trkpt lat="42.9066334" lon="11.6688069"><ele>900.0</ele><time>2026-04-04T14:12:56.091Z</time></trkpt><trkpt lat="42.9064816" lon="11.6688984"><ele>900.0</ele><time>2026-04-04T14:12:57.081Z</time></trkpt><trkpt lat="42.9063347" lon="11.6689758"><ele>900.0</ele><time>2026-04-04T14:12:58.091Z</time></trkpt><trkpt lat="42.9061923" lon="11.6689955"><ele>900.0</ele><time>2026-04-04T14:12:59.09Z</time></trkpt><trkpt lat="42.9060579" lon="11.6689684"><ele>900.0</ele><time>2026-04-04T14:13:00.083Z</time></trkpt><trkpt lat="42.9059382" lon="11.6689054"><ele>900.0</ele><time>2026-04-04T14:13:01.089Z</time></trkpt><trkpt lat="42.9058107" lon="11.6688506"><ele>900.0</ele><time>2026-04-04T14:13:02.085Z</time></trkpt><trkpt lat="42.9056686" lon="11.6688562"><ele>899.5</ele><time>2026-04-04T14:13:03.077Z</time></trkpt><trkpt lat="42.9055182" lon="11.668888"><ele>899.0</ele><time>2026-04-04T14:13:04.069Z</time></trkpt><trkpt lat="42.9053885" lon="11.6689617"><ele>898.5</ele><time>2026-04-04T14:13:05.077Z</time></trkpt><trkpt lat="42.9052749" lon="11.6690103"><ele>898.0</ele><time>2026-04-04T14:13:06.086Z</time></trkpt><trkpt lat="42.9051624" lon="11.6690357"><ele>897.0</ele><time>2026-04-04T14:13:07.088Z</time></trkpt><trkpt lat="42.9050562" lon="11.6689814"><ele>896.0</ele><time>2026-04-04T14:13:08.077Z</time></trkpt><trkpt lat="42.9049925" lon="11.6688609"><ele>895.0</ele><time>2026-04-04T14:13:09.082Z</time></trkpt><trkpt lat="42.904952" lon="11.6687104"><ele>894.0</ele><time>2026-04-04T14:13:10.073Z</time></trkpt><trkpt lat="42.9049454" lon="11.6685019"><ele>897.3333333333333</ele><time>2026-04-04T14:13:11.086Z</time></trkpt><trkpt lat="42.9049634" lon="11.6682883"><ele>900.6666666666666</ele><time>2026-04-04T14:13:12.071Z</time></trkpt><trkpt lat="42.9049889" lon="11.6680878"><ele>904.0</ele><time>2026-04-04T14:13:13.086Z</time></trkpt><trkpt lat="42.9050197" lon="11.6678945"><ele>904.0</ele><time>2026-04-04T14:13:14.081Z</time></trkpt><trkpt lat="42.9050468" lon="11.6677045"><ele>904.0</ele><time>2026-04-04T14:13:15.081Z</time></trkpt><trkpt lat="42.9050562" lon="11.6675319"><ele>904.0</ele><time>2026-04-04T14:13:16.08Z</time></trkpt><trkpt lat="42.9050451" lon="11.667377"><ele>904.0</ele><time>2026-04-04T14:13:17.072Z</time></trkpt><trkpt lat="42.905002" lon="11.6672447"><ele>904.0</ele><time>2026-04-04T14:13:18.081Z</time></trkpt><trkpt lat="42.9049094" lon="11.6671559"><ele>904.0</ele><time>2026-04-04T14:13:19.068Z</time></trkpt><trkpt lat="42.9047984" lon="11.6670807"><ele>904.0</ele><time>2026-04-04T14:13:20.076Z</time></trkpt><trkpt lat="42.9046685" lon="11.6670117"><ele>904.0</ele><time>2026-04-04T14:13:21.073Z</time></trkpt><trkpt lat="42.9045421" lon="11.666949"><ele>904.0</ele><time>2026-04-04T14:13:22.081Z</time></trkpt><trkpt lat="42.9044292" lon="11.6669258"><ele>904.0</ele><time>2026-04-04T14:13:23.081Z</time></trkpt><trkpt lat="42.9043166" lon="11.6669581"><ele>904.0</ele><time>2026-04-04T14:13:24.06Z</time></trkpt><trkpt lat="42.9041937" lon="11.6670335"><ele>904.0</ele><time>2026-04-04T14:13:25.078Z</time></trkpt><trkpt lat="42.9040606" lon="11.6671092"><ele>900.6666666666666</ele><time>2026-04-04T14:13:26.084Z</time></trkpt><trkpt lat="42.9039252" lon="11.6672045"><ele>897.3333333333333</ele><time>2026-04-04T14:13:27.078Z</time></trkpt><trkpt lat="42.903796" lon="11.6673633"><ele>894.0</ele><time>2026-04-04T14:13:28.083Z</time></trkpt><trkpt lat="42.9036763" lon="11.6675819"><ele>893.3333333333333</ele><time>2026-04-04T14:13:29.073Z</time></trkpt><trkpt lat="42.9035713" lon="11.6678063"><ele>892.6666666666666</ele><time>2026-04-04T14:13:30.09Z</time></trkpt><trkpt lat="42.9034699" lon="11.6680169"><ele>892.0</ele><time>2026-04-04T14:13:31.074Z</time></trkpt><trkpt lat="42.9033723" lon="11.6682113"><ele>892.0</ele><time>2026-04-04T14:13:32.073Z</time></trkpt><trkpt lat="42.9032828" lon="11.6683936"><ele>892.0</ele><time>2026-04-04T14:13:33.082Z</time></trkpt><trkpt lat="42.9032063" lon="11.668555"><ele>892.0</ele><time>2026-04-04T14:13:34.082Z</time></trkpt><trkpt lat="42.9031429" lon="11.6686929"><ele>892.0</ele><time>2026-04-04T14:13:35.081Z</time></trkpt><trkpt lat="42.9030702" lon="11.6687832"><ele>892.0</ele><time>2026-04-04T14:13:36.071Z</time></trkpt><trkpt lat="42.9029705" lon="11.6688181"><ele>892.0</ele><time>2026-04-04T14:13:37.09Z</time></trkpt><trkpt lat="42.9028554" lon="11.6687781"><ele>892.0</ele><time>2026-04-04T14:13:38.083Z</time></trkpt><trkpt lat="42.9027493" lon="11.6686738"><ele>892.0</ele><time>2026-04-04T14:13:39.076Z</time></trkpt><trkpt lat="42.9026576" lon="11.6685285"><ele>891.0</ele><time>2026-04-04T14:13:40.082Z</time></trkpt><trkpt lat="42.9025757" lon="11.668367"><ele>890.0</ele><time>2026-04-04T14:13:41.082Z</time></trkpt><trkpt lat="42.9024988" lon="11.6682039"><ele>889.0</ele><time>2026-04-04T14:13:42.075Z</time></trkpt><trkpt lat="42.9024151" lon="11.6680508"><ele>888.0</ele><time>2026-04-04T14:13:43.082Z</time></trkpt><trkpt lat="42.9023388" lon="11.6679086"><ele>890.75</ele><time>2026-04-04T14:13:44.073Z</time></trkpt><trkpt lat="42.9022522" lon="11.6677671"><ele>893.5</ele><time>2026-04-04T14:13:45.079Z</time></trkpt><trkpt lat="42.9021417" lon="11.667651"><ele>896.25</ele><time>2026-04-04T14:13:46.08Z</time></trkpt><trkpt lat="42.9020106" lon="11.6675812"><ele>899.0</ele><time>2026-04-04T14:13:47.076Z</time></trkpt><trkpt lat="42.9018609" lon="11.6675524"><ele>892.0</ele><time>2026-04-04T14:13:48.081Z</time></trkpt><trkpt lat="42.9016897" lon="11.6675447"><ele>885.0</ele><time>2026-04-04T14:13:49.089Z</time></trkpt><trkpt lat="42.9015093" lon="11.6675557"><ele>878.0</ele><time>2026-04-04T14:13:50.075Z</time></trkpt><trkpt lat="42.9013371" lon="11.6675818"><ele>878.0</ele><time>2026-04-04T14:13:51.079Z</time></trkpt><trkpt lat="42.901188" lon="11.6676299"><ele>878.0</ele><time>2026-04-04T14:13:52.076Z</time></trkpt><trkpt lat="42.9010418" lon="11.6676774"><ele>878.0</ele><time>2026-04-04T14:13:53.082Z</time></trkpt><trkpt lat="42.900901" lon="11.6676831"><ele>878.0</ele><time>2026-04-04T14:13:54.082Z</time></trkpt><trkpt lat="42.900766" lon="11.6676208"><ele>877.0</ele><time>2026-04-04T14:13:55.089Z</time></trkpt><trkpt lat="42.9006366" lon="11.6675239"><ele>876.0</ele><time>2026-04-04T14:13:56.072Z</time></trkpt><trkpt lat="42.9005011" lon="11.6674039"><ele>875.0</ele><time>2026-04-04T14:13:57.081Z</time></trkpt><trkpt lat="42.9003676" lon="11.6672963"><ele>875.0</ele><time>2026-04-04T14:13:58.088Z</time></trkpt><trkpt lat="42.9002324" lon="11.6672227"><ele>875.0</ele><time>2026-04-04T14:13:59.085Z</time></trkpt><trkpt lat="42.9000891" lon="11.6671907"><ele>875.0</ele><time>2026-04-04T14:14:00.096Z</time></trkpt><trkpt lat="42.8999322" lon="11.6671864"><ele>875.0</ele><time>2026-04-04T14:14:01.082Z</time></trkpt><trkpt lat="42.8997799" lon="11.6672205"><ele>874.3333333333334</ele><time>2026-04-04T14:14:02.075Z</time></trkpt><trkpt lat="42.8996298" lon="11.6673096"><ele>873.6666666666667</ele><time>2026-04-04T14:14:03.073Z</time></trkpt><trkpt lat="42.8994793" lon="11.6674417"><ele>873.0</ele><time>2026-04-04T14:14:04.073Z</time></trkpt><trkpt lat="42.8993303" lon="11.6675863"><ele>873.0</ele><time>2026-04-04T14:14:05.076Z</time></trkpt><trkpt lat="42.8991769" lon="11.6677349"><ele>873.0</ele><time>2026-04-04T14:14:06.089Z</time></trkpt><trkpt lat="42.8990274" lon="11.6678877"><ele>873.0</ele><time>2026-04-04T14:14:07.086Z</time></trkpt><trkpt lat="42.8988876" lon="11.6680258"><ele>873.0</ele><time>2026-04-04T14:14:08.09Z</time></trkpt><trkpt lat="42.8987544" lon="11.6681529"><ele>873.0</ele><time>2026-04-04T14:14:09.096Z</time></trkpt><trkpt lat="42.898623" lon="11.668274"><ele>873.0</ele><time>2026-04-04T14:14:10.091Z</time></trkpt><trkpt lat="42.8984872" lon="11.6684033"><ele>873.6666666666667</ele><time>2026-04-04T14:14:11.086Z</time></trkpt><trkpt lat="42.8983421" lon="11.668513"><ele>874.3333333333334</ele><time>2026-04-04T14:14:12.086Z</time></trkpt><trkpt lat="42.8981913" lon="11.6685735"><ele>875.0</ele><time>2026-04-04T14:14:13.077Z</time></trkpt><trkpt lat="42.8980372" lon="11.668584"><ele>875.0</ele><time>2026-04-04T14:14:14.083Z</time></trkpt><trkpt lat="42.897869" lon="11.6685678"><ele>875.0</ele><time>2026-04-04T14:14:15.078Z</time></trkpt><trkpt lat="42.8976898" lon="11.6685274"><ele>875.0</ele><time>2026-04-04T14:14:16.09Z</time></trkpt><trkpt lat="42.8975" lon="11.6684771"><ele>875.3333333333334</ele><time>2026-04-04T14:14:17.085Z</time></trkpt><trkpt lat="42.8972944" lon="11.6684303"><ele>875.6666666666667</ele><time>2026-04-04T14:14:18.084Z</time></trkpt><trkpt lat="42.8970906" lon="11.6683876"><ele>876.0</ele><time>2026-04-04T14:14:19.093Z</time></trkpt><trkpt lat="42.8968956" lon="11.6683493"><ele>873.6666666666667</ele><time>2026-04-04T14:14:20.086Z</time></trkpt><trkpt lat="42.8967141" lon="11.6683224"><ele>871.3333333333334</ele><time>2026-04-04T14:14:21.093Z</time></trkpt><trkpt lat="42.8965497" lon="11.6682986"><ele>869.0</ele><time>2026-04-04T14:14:22.092Z</time></trkpt><trkpt lat="42.8963912" lon="11.6682729"><ele>869.0</ele><time>2026-04-04T14:14:23.062Z</time></trkpt><trkpt lat="42.8962415" lon="11.6682508"><ele>869.0</ele><time>2026-04-04T14:14:24.094Z</time></trkpt><trkpt lat="42.8960955" lon="11.6682371"><ele>869.0</ele><time>2026-04-04T14:14:25.077Z</time></trkpt><trkpt lat="42.895954" lon="11.6682485"><ele>869.0</ele><time>2026-04-04T14:14:26.079Z</time></trkpt><trkpt lat="42.895805" lon="11.6682963"><ele>868.6666666666667</ele><time>2026-04-04T14:14:27.083Z</time></trkpt><trkpt lat="42.895646" lon="11.6683662"><ele>868.3333333333333</ele><time>2026-04-04T14:14:28.088Z</time></trkpt><trkpt lat="42.8954805" lon="11.6684249"><ele>868.0</ele><time>2026-04-04T14:14:29.091Z</time></trkpt><trkpt lat="42.8953049" lon="11.6684767"><ele>868.0</ele><time>2026-04-04T14:14:30.078Z</time></trkpt><trkpt lat="42.895124" lon="11.668525"><ele>868.0</ele><time>2026-04-04T14:14:31.094Z</time></trkpt><trkpt lat="42.8949457" lon="11.6685487"><ele>868.0</ele><time>2026-04-04T14:14:32.092Z</time></trkpt><trkpt lat="42.894791" lon="11.6685101"><ele>868.0</ele><time>2026-04-04T14:14:33.089Z</time></trkpt><trkpt lat="42.8946632" lon="11.6684314"><ele>868.0</ele><time>2026-04-04T14:14:34.087Z</time></trkpt><trkpt lat="42.8945349" lon="11.6683671"><ele>868.0</ele><time>2026-04-04T14:14:35.077Z</time></trkpt><trkpt lat="42.8944088" lon="11.668312"><ele>868.0</ele><time>2026-04-04T14:14:36.073Z</time></trkpt><trkpt lat="42.8942951" lon="11.6682591"><ele>867.25</ele><time>2026-04-04T14:14:37.07Z</time></trkpt><trkpt lat="42.8941736" lon="11.6682055"><ele>866.5</ele><time>2026-04-04T14:14:38.083Z</time></trkpt><trkpt lat="42.8940438" lon="11.6681554"><ele>865.75</ele><time>2026-04-04T14:14:39.067Z</time></trkpt><trkpt lat="42.8939079" lon="11.6681025"><ele>865.0</ele><time>2026-04-04T14:14:40.085Z</time></trkpt><trkpt lat="42.8937721" lon="11.6680477"><ele>865.0</ele><time>2026-04-04T14:14:41.091Z</time></trkpt><trkpt lat="42.8936388" lon="11.6679844"><ele>865.0</ele><time>2026-04-04T14:14:42.086Z</time></trkpt><trkpt lat="42.8935103" lon="11.66792"><ele>865.0</ele><time>2026-04-04T14:14:43.086Z</time></trkpt><trkpt lat="42.8933859" lon="11.6678613"><ele>865.0</ele><time>2026-04-04T14:14:44.074Z</time></trkpt><trkpt lat="42.8932522" lon="11.667805"><ele>866.5</ele><time>2026-04-04T14:14:45.083Z</time></trkpt><trkpt lat="42.8931183" lon="11.6677517"><ele>868.0</ele><time>2026-04-04T14:14:46.076Z</time></trkpt><trkpt lat="42.8929821" lon="11.6676922"><ele>869.5</ele><time>2026-04-04T14:14:47.078Z</time></trkpt><trkpt lat="42.8928465" lon="11.6676273"><ele>871.0</ele><time>2026-04-04T14:14:48.082Z</time></trkpt><trkpt lat="42.8927186" lon="11.6675669"><ele>871.0</ele><time>2026-04-04T14:14:49.086Z</time></trkpt><trkpt lat="42.8925976" lon="11.6675088"><ele>871.0</ele><time>2026-04-04T14:14:50.085Z</time></trkpt><trkpt lat="42.8924714" lon="11.6674531"><ele>871.0</ele><time>2026-04-04T14:14:51.079Z</time></trkpt><trkpt lat="42.8923432" lon="11.6673902"><ele>871.0</ele><time>2026-04-04T14:14:52.078Z</time></trkpt><trkpt lat="42.8922151" lon="11.6673281"><ele>870.5</ele><time>2026-04-04T14:14:53.074Z</time></trkpt><trkpt lat="42.8920797" lon="11.6672561"><ele>870.0</ele><time>2026-04-04T14:14:54.085Z</time></trkpt><trkpt lat="42.8919414" lon="11.6671824"><ele>869.5</ele><time>2026-04-04T14:14:55.074Z</time></trkpt><trkpt lat="42.8918012" lon="11.6671092"><ele>869.0</ele><time>2026-04-04T14:14:56.093Z</time></trkpt><trkpt lat="42.8916636" lon="11.667037"><ele>868.25</ele><time>2026-04-04T14:14:57.082Z</time></trkpt><trkpt lat="42.8915263" lon="11.6669639"><ele>867.5</ele><time>2026-04-04T14:14:58.084Z</time></trkpt><trkpt lat="42.8913876" lon="11.6668934"><ele>866.75</ele><time>2026-04-04T14:14:59.08Z</time></trkpt><trkpt lat="42.8912551" lon="11.6668206"><ele>866.0</ele><time>2026-04-04T14:15:00.089Z</time></trkpt><trkpt lat="42.891129" lon="11.6667516"><ele>867.0</ele><time>2026-04-04T14:15:01.081Z</time></trkpt><trkpt lat="42.8910023" lon="11.6666853"><ele>868.0</ele><time>2026-04-04T14:15:02.079Z</time></trkpt><trkpt lat="42.8908698" lon="11.66662"><ele>869.0</ele><time>2026-04-04T14:15:03.085Z</time></trkpt><trkpt lat="42.8907402" lon="11.6665549"><ele>870.0</ele><time>2026-04-04T14:15:04.087Z</time></trkpt><trkpt lat="42.8906092" lon="11.6664928"><ele>870.0</ele><time>2026-04-04T14:15:05.086Z</time></trkpt><trkpt lat="42.8904784" lon="11.6664306"><ele>870.0</ele><time>2026-04-04T14:15:06.096Z</time></trkpt><trkpt lat="42.890352" lon="11.6663601"><ele>870.0</ele><time>2026-04-04T14:15:07.078Z</time></trkpt><trkpt lat="42.890222" lon="11.6662919"><ele>870.0</ele><time>2026-04-04T14:15:08.077Z</time></trkpt><trkpt lat="42.8900974" lon="11.6662228"><ele>869.0</ele><time>2026-04-04T14:15:09.07Z</time></trkpt><trkpt lat="42.8899783" lon="11.6661541"><ele>868.0</ele><time>2026-04-04T14:15:10.082Z</time></trkpt><trkpt lat="42.8898635" lon="11.6660888"><ele>867.0</ele><time>2026-04-04T14:15:11.076Z</time></trkpt><trkpt lat="42.8897511" lon="11.6660387"><ele>866.0</ele><time>2026-04-04T14:15:12.072Z</time></trkpt><trkpt lat="42.8896412" lon="11.6660087"><ele>866.0</ele><time>2026-04-04T14:15:13.09Z</time></trkpt><trkpt lat="42.889534" lon="11.6660084"><ele>865.9999999999999</ele><time>2026-04-04T14:15:14.087Z</time></trkpt><trkpt lat="42.8894323" lon="11.6660359"><ele>865.9999999999999</ele><time>2026-04-04T14:15:15.082Z</time></trkpt><trkpt lat="42.8893263" lon="11.6660769"><ele>866.0</ele><time>2026-04-04T14:15:16.078Z</time></trkpt><trkpt lat="42.8892276" lon="11.6661605"><ele>866.0</ele><time>2026-04-04T14:15:17.083Z</time></trkpt><trkpt lat="42.8891354" lon="11.666267"><ele>866.0</ele><time>2026-04-04T14:15:18.084Z</time></trkpt><trkpt lat="42.8890613" lon="11.666408"><ele>866.0</ele><time>2026-04-04T14:15:19.076Z</time></trkpt><trkpt lat="42.8889922" lon="11.6665456"><ele>866.0</ele><time>2026-04-04T14:15:20.098Z</time></trkpt><trkpt lat="42.8888962" lon="11.6666574"><ele>866.0</ele><time>2026-04-04T14:15:21.079Z</time></trkpt><trkpt lat="42.8887667" lon="11.6667372"><ele>866.0</ele><time>2026-04-04T14:15:22.083Z</time></trkpt><trkpt lat="42.888625" lon="11.6667988"><ele>866.0</ele><time>2026-04-04T14:15:23.071Z</time></trkpt><trkpt lat="42.8884851" lon="11.6668485"><ele>866.0</ele><time>2026-04-04T14:15:24.094Z</time></trkpt><trkpt lat="42.8883437" lon="11.6668802"><ele>866.0</ele><time>2026-04-04T14:15:25.08Z</time></trkpt><trkpt lat="42.8881946" lon="11.6669"><ele>867.0</ele><time>2026-04-04T14:15:26.085Z</time></trkpt><trkpt lat="42.8880312" lon="11.6669195"><ele>868.0</ele><time>2026-04-04T14:15:27.086Z</time></trkpt><trkpt lat="42.8878659" lon="11.6669633"><ele>869.0</ele><time>2026-04-04T14:15:28.08Z</time></trkpt><trkpt lat="42.8877037" lon="11.6670382"><ele>866.25</ele><time>2026-04-04T14:15:29.085Z</time></trkpt><trkpt lat="42.8875556" lon="11.6671291"><ele>863.5</ele><time>2026-04-04T14:15:30.078Z</time></trkpt><trkpt lat="42.8874234" lon="11.6672159"><ele>860.75</ele><time>2026-04-04T14:15:31.108Z</time></trkpt><trkpt lat="42.8872994" lon="11.6673022"><ele>858.0</ele><time>2026-04-04T14:15:32.085Z</time></trkpt><trkpt lat="42.8871795" lon="11.6673867"><ele>858.0</ele><time>2026-04-04T14:15:33.089Z</time></trkpt><trkpt lat="42.8870638" lon="11.6674718"><ele>858.0</ele><time>2026-04-04T14:15:34.088Z</time></trkpt><trkpt lat="42.8869607" lon="11.6675692"><ele>858.0</ele><time>2026-04-04T14:15:35.089Z</time></trkpt><trkpt lat="42.886868" lon="11.6676941"><ele>858.0</ele><time>2026-04-04T14:15:36.08Z</time></trkpt><trkpt lat="42.8867704" lon="11.6678323"><ele>859.3333333333333</ele><time>2026-04-04T14:15:37.077Z</time></trkpt><trkpt lat="42.8866639" lon="11.6679905"><ele>860.6666666666666</ele><time>2026-04-04T14:15:38.094Z</time></trkpt><trkpt lat="42.8865546" lon="11.6681651"><ele>862.0</ele><time>2026-04-04T14:15:39.067Z</time></trkpt><trkpt lat="42.8864561" lon="11.6683464"><ele>862.0</ele><time>2026-04-04T14:15:40.083Z</time></trkpt><trkpt lat="42.8863734" lon="11.6685218"><ele>862.0</ele><time>2026-04-04T14:15:41.073Z</time></trkpt><trkpt lat="42.8863103" lon="11.6687018"><ele>862.0</ele><time>2026-04-04T14:15:42.071Z</time></trkpt><trkpt lat="42.8862651" lon="11.66889"><ele>862.0</ele><time>2026-04-04T14:15:43.083Z</time></trkpt><trkpt lat="42.8862233" lon="11.6690667"><ele>858.75</ele><time>2026-04-04T14:15:44.082Z</time></trkpt><trkpt lat="42.8861826" lon="11.6692372"><ele>855.5</ele><time>2026-04-04T14:15:45.077Z</time></trkpt><trkpt lat="42.8861348" lon="11.6693961"><ele>852.25</ele><time>2026-04-04T14:15:46.102Z</time></trkpt><trkpt lat="42.8860764" lon="11.6695429"><ele>849.0</ele><time>2026-04-04T14:15:47.08Z</time></trkpt><trkpt lat="42.8860118" lon="11.6696629"><ele>847.0</ele><time>2026-04-04T14:15:48.078Z</time></trkpt><trkpt lat="42.8859387" lon="11.6697555"><ele>845.0</ele><time>2026-04-04T14:15:49.086Z</time></trkpt><trkpt lat="42.8858523" lon="11.6698308"><ele>843.0</ele><time>2026-04-04T14:15:50.082Z</time></trkpt><trkpt lat="42.8857619" lon="11.6698995"><ele>841.0</ele><time>2026-04-04T14:15:51.089Z</time></trkpt><trkpt lat="42.8856397" lon="11.6699302"><ele>839.0</ele><time>2026-04-04T14:15:52.071Z</time></trkpt><trkpt lat="42.8855043" lon="11.6699572"><ele>845.3333333333334</ele><time>2026-04-04T14:15:53.076Z</time></trkpt><trkpt lat="42.8853563" lon="11.6699829"><ele>851.6666666666667</ele><time>2026-04-04T14:15:54.082Z</time></trkpt><trkpt lat="42.8852007" lon="11.6700007"><ele>858.0</ele><time>2026-04-04T14:15:55.075Z</time></trkpt><trkpt lat="42.8850498" lon="11.6700152"><ele>858.0</ele><time>2026-04-04T14:15:56.078Z</time></trkpt><trkpt lat="42.8849056" lon="11.6700328"><ele>858.0</ele><time>2026-04-04T14:15:57.077Z</time></trkpt><trkpt lat="42.884767" lon="11.6700563"><ele>858.0</ele><time>2026-04-04T14:15:58.075Z</time></trkpt><trkpt lat="42.8846289" lon="11.6700922"><ele>858.0</ele><time>2026-04-04T14:15:59.077Z</time></trkpt><trkpt lat="42.8845017" lon="11.6701457"><ele>858.0</ele><time>2026-04-04T14:16:00.075Z</time></trkpt><trkpt lat="42.8843832" lon="11.6702183"><ele>858.0</ele><time>2026-04-04T14:16:01.083Z</time></trkpt><trkpt lat="42.8842943" lon="11.6703221"><ele>858.0</ele><time>2026-04-04T14:16:02.078Z</time></trkpt><trkpt lat="42.8842271" lon="11.6704547"><ele>858.0</ele><time>2026-04-04T14:16:03.097Z</time></trkpt><trkpt lat="42.8841723" lon="11.6705966"><ele>856.2</ele><time>2026-04-04T14:16:04.076Z</time></trkpt><trkpt lat="42.8841266" lon="11.6707384"><ele>854.4</ele><time>2026-04-04T14:16:05.072Z</time></trkpt><trkpt lat="42.8840692" lon="11.6708632"><ele>852.6</ele><time>2026-04-04T14:16:06.08Z</time></trkpt><trkpt lat="42.8839986" lon="11.6709707"><ele>850.8000000000001</ele><time>2026-04-04T14:16:07.075Z</time></trkpt><trkpt lat="42.8839178" lon="11.6710651"><ele>849.0</ele><time>2026-04-04T14:16:08.086Z</time></trkpt><trkpt lat="42.8838358" lon="11.6711597"><ele>848.4000000000001</ele><time>2026-04-04T14:16:09.081Z</time></trkpt><trkpt lat="42.8837585" lon="11.6712585"><ele>847.8</ele><time>2026-04-04T14:16:10.076Z</time></trkpt><trkpt lat="42.8836803" lon="11.6713489"><ele>847.2</ele><time>2026-04-04T14:16:11.077Z</time></trkpt><trkpt lat="42.8836056" lon="11.6714438"><ele>846.5999999999999</ele><time>2026-04-04T14:16:12.076Z</time></trkpt><trkpt lat="42.8835239" lon="11.6715446"><ele>846.0</ele><time>2026-04-04T14:16:13.093Z</time></trkpt><trkpt lat="42.8834421" lon="11.6716498"><ele>846.0</ele><time>2026-04-04T14:16:14.085Z</time></trkpt><trkpt lat="42.8833572" lon="11.6717542"><ele>846.0</ele><time>2026-04-04T14:16:15.077Z</time></trkpt><trkpt lat="42.8832742" lon="11.6718452"><ele>846.0</ele><time>2026-04-04T14:16:16.08Z</time></trkpt><trkpt lat="42.8832001" lon="11.6719336"><ele>846.0</ele><time>2026-04-04T14:16:17.08Z</time></trkpt><trkpt lat="42.8831295" lon="11.6720185"><ele>846.0</ele><time>2026-04-04T14:16:18.086Z</time></trkpt><trkpt lat="42.8830631" lon="11.6721075"><ele>845.0</ele><time>2026-04-04T14:16:19.079Z</time></trkpt><trkpt lat="42.882994" lon="11.6721905"><ele>844.0</ele><time>2026-04-04T14:16:20.082Z</time></trkpt><trkpt lat="42.8829284" lon="11.6722738"><ele>843.0</ele><time>2026-04-04T14:16:21.089Z</time></trkpt><trkpt lat="42.8828602" lon="11.6723514"><ele>842.0</ele><time>2026-04-04T14:16:22.081Z</time></trkpt><trkpt lat="42.882785" lon="11.6724011"><ele>841.0</ele><time>2026-04-04T14:16:23.087Z</time></trkpt><trkpt lat="42.8827024" lon="11.6724108"><ele>840.0</ele><time>2026-04-04T14:16:24.078Z</time></trkpt><trkpt lat="42.8826262" lon="11.672402"><ele>839.5714285714286</ele><time>2026-04-04T14:16:25.077Z</time></trkpt><trkpt lat="42.8825451" lon="11.6723897"><ele>839.1428571428571</ele><time>2026-04-04T14:16:26.077Z</time></trkpt><trkpt lat="42.8824728" lon="11.6723754"><ele>838.7142857142858</ele><time>2026-04-04T14:16:27.076Z</time></trkpt><trkpt lat="42.8823987" lon="11.6723634"><ele>838.2857142857142</ele><time>2026-04-04T14:16:28.111Z</time></trkpt><trkpt lat="42.8823275" lon="11.6723491"><ele>837.8571428571429</ele><time>2026-04-04T14:16:29.072Z</time></trkpt><trkpt lat="42.8822616" lon="11.6723328"><ele>837.4285714285714</ele><time>2026-04-04T14:16:30.078Z</time></trkpt><trkpt lat="42.882197" lon="11.6723136"><ele>837.0</ele><time>2026-04-04T14:16:31.071Z</time></trkpt><trkpt lat="42.8821345" lon="11.6722992"><ele>837.0</ele><time>2026-04-04T14:16:32.076Z</time></trkpt><trkpt lat="42.882069" lon="11.6722908"><ele>837.0</ele><time>2026-04-04T14:16:33.077Z</time></trkpt><trkpt lat="42.8820039" lon="11.6722804"><ele>837.0</ele><time>2026-04-04T14:16:34.072Z</time></trkpt><trkpt lat="42.8818888" lon="11.6722774"><ele>837.0</ele><time>2026-04-04T14:16:36.078Z</time></trkpt><trkpt lat="42.8817892" lon="11.6723493"><ele>837.0</ele><time>2026-04-04T14:16:38.071Z</time></trkpt><trkpt lat="42.8817776" lon="11.6724493"><ele>837.0</ele><time>2026-04-04T14:16:39.08Z</time></trkpt><trkpt lat="42.8817681" lon="11.6725499"><ele>837.2</ele><time>2026-04-04T14:16:40.077Z</time></trkpt><trkpt lat="42.8817584" lon="11.6726515"><ele>837.4000000000001</ele><time>2026-04-04T14:16:41.075Z</time></trkpt><trkpt lat="42.8817484" lon="11.672753"><ele>837.5999999999999</ele><time>2026-04-04T14:16:42.067Z</time></trkpt><trkpt lat="42.8817328" lon="11.672918"><ele>837.8</ele><time>2026-04-04T14:16:44.084Z</time></trkpt><trkpt lat="42.8817137" lon="11.6730741"><ele>838.0</ele><time>2026-04-04T14:16:46.078Z</time></trkpt><trkpt lat="42.8816949" lon="11.6732355"><ele>837.25</ele><time>2026-04-04T14:16:48.077Z</time></trkpt><trkpt lat="42.8816827" lon="11.6733922"><ele>836.5</ele><time>2026-04-04T14:16:50.115Z</time></trkpt><trkpt lat="42.8816681" lon="11.6735449"><ele>835.75</ele><time>2026-04-04T14:16:52.08Z</time></trkpt><trkpt lat="42.8816481" lon="11.6736993"><ele>835.0</ele><time>2026-04-04T14:16:54.091Z</time></trkpt><trkpt lat="42.8816147" lon="11.6738472"><ele>834.0</ele><time>2026-04-04T14:16:56.074Z</time></trkpt><trkpt lat="42.8815256" lon="11.6739572"><ele>833.0</ele><time>2026-04-04T14:16:58.075Z</time></trkpt><trkpt lat="42.88141" lon="11.6740044"><ele>832.0</ele><time>2026-04-04T14:17:00.075Z</time></trkpt><trkpt lat="42.8813097" lon="11.6740491"><ele>831.0</ele><time>2026-04-04T14:17:02.072Z</time></trkpt><trkpt lat="42.8811993" lon="11.6740881"><ele>831.0</ele><time>2026-04-04T14:17:04.076Z</time></trkpt><trkpt lat="42.8810837" lon="11.6741424"><ele>831.0</ele><time>2026-04-04T14:17:06.075Z</time></trkpt><trkpt lat="42.8810143" lon="11.6741744"><ele>831.0</ele><time>2026-04-04T14:17:07.077Z</time></trkpt><trkpt lat="42.8809291" lon="11.6742054"><ele>831.0</ele><time>2026-04-04T14:17:08.096Z</time></trkpt><trkpt lat="42.8808352" lon="11.6742298"><ele>831.0</ele><time>2026-04-04T14:17:09.081Z</time></trkpt><trkpt lat="42.8807575" lon="11.6742577"><ele>830.5</ele><time>2026-04-04T14:17:10.079Z</time></trkpt><trkpt lat="42.8806831" lon="11.6742905"><ele>830.0</ele><time>2026-04-04T14:17:11.079Z</time></trkpt><trkpt lat="42.8805973" lon="11.6743291"><ele>829.5</ele><time>2026-04-04T14:17:12.078Z</time></trkpt><trkpt lat="42.880515" lon="11.674363"><ele>829.0</ele><time>2026-04-04T14:17:13.073Z</time></trkpt><trkpt lat="42.8804278" lon="11.6744126"><ele>828.5</ele><time>2026-04-04T14:17:14.078Z</time></trkpt><trkpt lat="42.8803414" lon="11.6744789"><ele>828.0</ele><time>2026-04-04T14:17:15.084Z</time></trkpt><trkpt lat="42.8802599" lon="11.6745453"><ele>827.5999999999999</ele><time>2026-04-04T14:17:16.082Z</time></trkpt><trkpt lat="42.8801811" lon="11.6746244"><ele>827.1999999999999</ele><time>2026-04-04T14:17:17.081Z</time></trkpt><trkpt lat="42.8801061" lon="11.6747191"><ele>826.8</ele><time>2026-04-04T14:17:18.071Z</time></trkpt><trkpt lat="42.8800277" lon="11.6748232"><ele>826.4</ele><time>2026-04-04T14:17:19.073Z</time></trkpt><trkpt lat="42.8799537" lon="11.6749368"><ele>826.0</ele><time>2026-04-04T14:17:20.067Z</time></trkpt><trkpt lat="42.8798848" lon="11.6750502"><ele>825.4</ele><time>2026-04-04T14:17:21.077Z</time></trkpt><trkpt lat="42.8798116" lon="11.6751498"><ele>824.8</ele><time>2026-04-04T14:17:22.071Z</time></trkpt><trkpt lat="42.8797419" lon="11.6752528"><ele>824.1999999999999</ele><time>2026-04-04T14:17:23.072Z</time></trkpt><trkpt lat="42.8796692" lon="11.6753452"><ele>823.5999999999999</ele><time>2026-04-04T14:17:24.125Z</time></trkpt><trkpt lat="42.8796028" lon="11.6754401"><ele>823.0</ele><time>2026-04-04T14:17:25.08Z</time></trkpt><trkpt lat="42.8795367" lon="11.6755287"><ele>822.6666666666666</ele><time>2026-04-04T14:17:26.077Z</time></trkpt><trkpt lat="42.879473" lon="11.675615"><ele>822.3333333333333</ele><time>2026-04-04T14:17:27.069Z</time></trkpt><trkpt lat="42.8794178" lon="11.6756927"><ele>822.0</ele><time>2026-04-04T14:17:28.071Z</time></trkpt><trkpt lat="42.8793653" lon="11.6757649"><ele>821.6666666666667</ele><time>2026-04-04T14:17:29.076Z</time></trkpt><trkpt lat="42.8793152" lon="11.675834"><ele>821.3333333333334</ele><time>2026-04-04T14:17:30.088Z</time></trkpt><trkpt lat="42.8792675" lon="11.6759081"><ele>821.0</ele><time>2026-04-04T14:17:31.073Z</time></trkpt><trkpt lat="42.8792093" lon="11.6759852"><ele>820.5999999999999</ele><time>2026-04-04T14:17:32.073Z</time></trkpt><trkpt lat="42.8791451" lon="11.6760677"><ele>820.2</ele><time>2026-04-04T14:17:33.073Z</time></trkpt><trkpt lat="42.8790778" lon="11.6761594"><ele>819.8</ele><time>2026-04-04T14:17:34.09Z</time></trkpt><trkpt lat="42.8790063" lon="11.6762472"><ele>819.4000000000001</ele><time>2026-04-04T14:17:35.085Z</time></trkpt><trkpt lat="42.8789418" lon="11.676342"><ele>819.0</ele><time>2026-04-04T14:17:36.1Z</time></trkpt><trkpt lat="42.8788841" lon="11.6764295"><ele>818.6666666666666</ele><time>2026-04-04T14:17:37.087Z</time></trkpt><trkpt lat="42.8788255" lon="11.6765148"><ele>818.3333333333333</ele><time>2026-04-04T14:17:38.079Z</time></trkpt><trkpt lat="42.8787641" lon="11.6765937"><ele>818.0</ele><time>2026-04-04T14:17:39.085Z</time></trkpt><trkpt lat="42.878706" lon="11.6766804"><ele>817.6666666666666</ele><time>2026-04-04T14:17:40.09Z</time></trkpt><trkpt lat="42.8786427" lon="11.6767693"><ele>817.3333333333333</ele><time>2026-04-04T14:17:41.077Z</time></trkpt><trkpt lat="42.8785738" lon="11.6768563"><ele>817.0</ele><time>2026-04-04T14:17:42.1Z</time></trkpt><trkpt lat="42.8785109" lon="11.6769455"><ele>817.0</ele><time>2026-04-04T14:17:43.075Z</time></trkpt><trkpt lat="42.8784448" lon="11.6770346"><ele>817.0</ele><time>2026-04-04T14:17:44.078Z</time></trkpt><trkpt lat="42.87838" lon="11.6771227"><ele>817.0</ele><time>2026-04-04T14:17:45.082Z</time></trkpt><trkpt lat="42.8783124" lon="11.6772217"><ele>817.0</ele><time>2026-04-04T14:17:46.072Z</time></trkpt><trkpt lat="42.8782417" lon="11.6773174"><ele>817.0</ele><time>2026-04-04T14:17:47.082Z</time></trkpt><trkpt lat="42.8781745" lon="11.6774078"><ele>816.6</ele><time>2026-04-04T14:17:48.071Z</time></trkpt><trkpt lat="42.8781123" lon="11.6775081"><ele>816.2</ele><time>2026-04-04T14:17:49.073Z</time></trkpt><trkpt lat="42.8780542" lon="11.677608"><ele>815.8</ele><time>2026-04-04T14:17:50.075Z</time></trkpt><trkpt lat="42.8780123" lon="11.6777219"><ele>815.4</ele><time>2026-04-04T14:17:51.082Z</time></trkpt><trkpt lat="42.877988" lon="11.6778402"><ele>815.0</ele><time>2026-04-04T14:17:52.088Z</time></trkpt><trkpt lat="42.8779644" lon="11.6779632"><ele>814.3333333333334</ele><time>2026-04-04T14:17:53.091Z</time></trkpt><trkpt lat="42.8779504" lon="11.6780761"><ele>813.6666666666667</ele><time>2026-04-04T14:17:54.081Z</time></trkpt><trkpt lat="42.8779408" lon="11.6781734"><ele>813.0</ele><time>2026-04-04T14:17:55.079Z</time></trkpt><trkpt lat="42.8779385" lon="11.6782707"><ele>812.3333333333333</ele><time>2026-04-04T14:17:56.075Z</time></trkpt><trkpt lat="42.8779353" lon="11.6784405"><ele>811.6666666666666</ele><time>2026-04-04T14:17:58.07Z</time></trkpt><trkpt lat="42.8779348" lon="11.678529"><ele>811.0</ele><time>2026-04-04T14:17:59.077Z</time></trkpt><trkpt lat="42.8779015" lon="11.6786799"><ele>811.0</ele><time>2026-04-04T14:18:01.077Z</time></trkpt><trkpt lat="42.8778141" lon="11.6787591"><ele>811.0</ele><time>2026-04-04T14:18:03.076Z</time></trkpt><trkpt lat="42.8777089" lon="11.6787696"><ele>811.0</ele><time>2026-04-04T14:18:05.077Z</time></trkpt><trkpt lat="42.8776714" lon="11.6788719"><ele>811.0</ele><time>2026-04-04T14:18:07.077Z</time></trkpt><trkpt lat="42.8777658" lon="11.6789467"><ele>811.0</ele><time>2026-04-04T14:18:09.08Z</time></trkpt><trkpt lat="42.8778778" lon="11.6788818"><ele>810.9999999999999</ele><time>2026-04-04T14:18:11.069Z</time></trkpt><trkpt lat="42.8779792" lon="11.678801"><ele>811.0</ele><time>2026-04-04T14:18:13.073Z</time></trkpt><trkpt lat="42.8780396" lon="11.6787673"><ele>811.0</ele><time>2026-04-04T14:18:14.129Z</time></trkpt><trkpt lat="42.878102" lon="11.6787389"><ele>811.0</ele><time>2026-04-04T14:18:15.113Z</time></trkpt><trkpt lat="42.8781667" lon="11.6787048"><ele>810.9999999999999</ele><time>2026-04-04T14:18:16.098Z</time></trkpt><trkpt lat="42.8782749" lon="11.6786592"><ele>811.0</ele><time>2026-04-04T14:18:18.098Z</time></trkpt><trkpt lat="42.8783367" lon="11.6786278"><ele>811.0</ele><time>2026-04-04T14:18:19.096Z</time></trkpt><trkpt lat="42.8784066" lon="11.6785999"><ele>811.0</ele><time>2026-04-04T14:18:20.071Z</time></trkpt><trkpt lat="42.8784788" lon="11.6785831"><ele>811.0</ele><time>2026-04-04T14:18:21.105Z</time></trkpt><trkpt lat="42.8785533" lon="11.6785696"><ele>811.0</ele><time>2026-04-04T14:18:22.082Z</time></trkpt><trkpt lat="42.8786253" lon="11.6785422"><ele>811.0</ele><time>2026-04-04T14:18:23.088Z</time></trkpt><trkpt lat="42.878688" lon="11.6784971"><ele>811.0</ele><time>2026-04-04T14:18:24.093Z</time></trkpt><trkpt lat="42.878747" lon="11.6784336"><ele>811.0</ele><time>2026-04-04T14:18:25.079Z</time></trkpt><trkpt lat="42.8787959" lon="11.6783658"><ele>812.1999999999999</ele><time>2026-04-04T14:18:26.091Z</time></trkpt><trkpt lat="42.878875" lon="11.6782413"><ele>813.4</ele><time>2026-04-04T14:18:28.08Z</time></trkpt><trkpt lat="42.8789544" lon="11.6781301"><ele>814.6</ele><time>2026-04-04T14:18:30.081Z</time></trkpt><trkpt lat="42.8790457" lon="11.6779942"><ele>815.8</ele><time>2026-04-04T14:18:32.1Z</time></trkpt><trkpt lat="42.879095" lon="11.6779273"><ele>817.0</ele><time>2026-04-04T14:18:33.085Z</time></trkpt><trkpt lat="42.8791425" lon="11.677856"><ele>817.0</ele><time>2026-04-04T14:18:34.073Z</time></trkpt><trkpt lat="42.8792204" lon="11.6777382"><ele>817.0</ele><time>2026-04-04T14:18:36.077Z</time></trkpt><trkpt lat="42.8792904" lon="11.6776253"><ele>817.0</ele><time>2026-04-04T14:18:38.081Z</time></trkpt><trkpt lat="42.8793429" lon="11.6775316"><ele>817.0</ele><time>2026-04-04T14:18:40.076Z</time></trkpt><trkpt lat="42.8794081" lon="11.6774295"><ele>817.0</ele><time>2026-04-04T14:18:42.078Z</time></trkpt><trkpt lat="42.8794768" lon="11.6773186"><ele>818.0</ele><time>2026-04-04T14:18:44.086Z</time></trkpt><trkpt lat="42.8795473" lon="11.6772264"><ele>819.0</ele><time>2026-04-04T14:18:46.079Z</time></trkpt><trkpt lat="42.8796403" lon="11.6772114"><ele>820.0</ele><time>2026-04-04T14:18:48.079Z</time></trkpt><trkpt lat="42.8797288" lon="11.6772728"><ele>821.0</ele><time>2026-04-04T14:18:50.065Z</time></trkpt><trkpt lat="42.8798111" lon="11.677339"><ele>822.0</ele><time>2026-04-04T14:18:52.077Z</time></trkpt><trkpt lat="42.8798957" lon="11.6774003"><ele>822.0</ele><time>2026-04-04T14:18:54.08Z</time></trkpt><trkpt lat="42.8799798" lon="11.6774667"><ele>822.0</ele><time>2026-04-04T14:18:56.085Z</time></trkpt><trkpt lat="42.8800564" lon="11.677533"><ele>822.0</ele><time>2026-04-04T14:18:58.084Z</time></trkpt><trkpt lat="42.8801208" lon="11.6775853"><ele>822.0</ele><time>2026-04-04T14:19:00.066Z</time></trkpt><trkpt lat="42.8801991" lon="11.6776007"><ele>822.0</ele><time>2026-04-04T14:19:02.073Z</time></trkpt><trkpt lat="42.8802831" lon="11.6776111"><ele>822.0</ele><time>2026-04-04T14:19:04.072Z</time></trkpt><trkpt lat="42.8803521" lon="11.6776222"><ele>821.0</ele><time>2026-04-04T14:19:06.071Z</time></trkpt></trkseg><trkseg><trkpt lat="42.8804933" lon="11.6776243"><ele>821.0</ele><time>2026-04-04T14:59:27.08Z</time></trkpt><trkpt lat="42.8805905" lon="11.6776"><ele>821.0</ele><time>2026-04-04T14:59:29.051Z</time></trkpt><trkpt lat="42.8806994" lon="11.6775771"><ele>821.0</ele><time>2026-04-04T14:59:31.078Z</time></trkpt><trkpt lat="42.8807994" lon="11.6775534"><ele>821.0</ele><time>2026-04-04T14:59:33.1Z</time></trkpt><trkpt lat="42.880907" lon="11.67753"><ele>821.0</ele><time>2026-04-04T14:59:35.08Z</time></trkpt><trkpt lat="42.8810117" lon="11.6775004"><ele>821.1999999999999</ele><time>2026-04-04T14:59:37.084Z</time></trkpt><trkpt lat="42.8811092" lon="11.6774638"><ele>821.4</ele><time>2026-04-04T14:59:39.077Z</time></trkpt><trkpt lat="42.8812012" lon="11.6774647"><ele>821.6</ele><time>2026-04-04T14:59:41.061Z</time></trkpt><trkpt lat="42.8812954" lon="11.677457"><ele>821.8</ele><time>2026-04-04T14:59:43.063Z</time></trkpt><trkpt lat="42.8813878" lon="11.6774305"><ele>822.0</ele><time>2026-04-04T14:59:45.057Z</time></trkpt><trkpt lat="42.8814819" lon="11.6774072"><ele>822.0</ele><time>2026-04-04T14:59:47.061Z</time></trkpt><trkpt lat="42.8815747" lon="11.6773754"><ele>822.0</ele><time>2026-04-04T14:59:49.057Z</time></trkpt><trkpt lat="42.8816585" lon="11.6773176"><ele>822.0</ele><time>2026-04-04T14:59:51.06Z</time></trkpt><trkpt lat="42.8817081" lon="11.6772087"><ele>822.0</ele><time>2026-04-04T14:59:53.11Z</time></trkpt><trkpt lat="42.8817142" lon="11.6770736"><ele>822.0</ele><time>2026-04-04T14:59:55.06Z</time></trkpt><trkpt lat="42.8817076" lon="11.6769259"><ele>822.4000000000001</ele><time>2026-04-04T14:59:57.068Z</time></trkpt><trkpt lat="42.8817098" lon="11.6767621"><ele>822.8000000000001</ele><time>2026-04-04T14:59:59.056Z</time></trkpt><trkpt lat="42.881707" lon="11.6766721"><ele>823.2</ele><time>2026-04-04T15:00:00.063Z</time></trkpt><trkpt lat="42.8817003" lon="11.6765158"><ele>823.6</ele><time>2026-04-04T15:00:02.087Z</time></trkpt><trkpt lat="42.8816966" lon="11.6763492"><ele>824.0</ele><time>2026-04-04T15:00:04.068Z</time></trkpt><trkpt lat="42.8816892" lon="11.6762544"><ele>823.9999999999999</ele><time>2026-04-04T15:00:05.06Z</time></trkpt><trkpt lat="42.8816925" lon="11.6761659"><ele>824.0</ele><time>2026-04-04T15:00:06.07Z</time></trkpt><trkpt lat="42.8816951" lon="11.6760796"><ele>824.0</ele><time>2026-04-04T15:00:07.105Z</time></trkpt><trkpt lat="42.8816953" lon="11.6759851"><ele>824.0</ele><time>2026-04-04T15:00:08.09Z</time></trkpt><trkpt lat="42.8816961" lon="11.675894"><ele>824.0</ele><time>2026-04-04T15:00:09.068Z</time></trkpt><trkpt lat="42.8817012" lon="11.6757914"><ele>823.9999999999999</ele><time>2026-04-04T15:00:10.08Z</time></trkpt><trkpt lat="42.8816917" lon="11.6756942"><ele>824.0</ele><time>2026-04-04T15:00:11.08Z</time></trkpt><trkpt lat="42.8816887" lon="11.6755986"><ele>824.5000000000001</ele><time>2026-04-04T15:00:12.078Z</time></trkpt><trkpt lat="42.8816851" lon="11.6755005"><ele>825.0</ele><time>2026-04-04T15:00:13.073Z</time></trkpt><trkpt lat="42.8816785" lon="11.6754077"><ele>825.5</ele><time>2026-04-04T15:00:14.072Z</time></trkpt><trkpt lat="42.8816729" lon="11.6753168"><ele>826.0</ele><time>2026-04-04T15:00:15.081Z</time></trkpt><trkpt lat="42.881676" lon="11.6752285"><ele>826.5000000000001</ele><time>2026-04-04T15:00:16.058Z</time></trkpt><trkpt lat="42.8816761" lon="11.6751423"><ele>827.0</ele><time>2026-04-04T15:00:17.067Z</time></trkpt><trkpt lat="42.8816728" lon="11.6749685"><ele>827.1666666666667</ele><time>2026-04-04T15:00:19.062Z</time></trkpt><trkpt lat="42.8816744" lon="11.6748719"><ele>827.3333333333334</ele><time>2026-04-04T15:00:20.062Z</time></trkpt><trkpt lat="42.8816748" lon="11.6747818"><ele>827.5</ele><time>2026-04-04T15:00:21.061Z</time></trkpt><trkpt lat="42.8816652" lon="11.6746086"><ele>827.6666666666667</ele><time>2026-04-04T15:00:23.062Z</time></trkpt><trkpt lat="42.881664" lon="11.6745187"><ele>827.8333333333334</ele><time>2026-04-04T15:00:24.063Z</time></trkpt><trkpt lat="42.8816528" lon="11.6744209"><ele>828.0</ele><time>2026-04-04T15:00:25.072Z</time></trkpt><trkpt lat="42.8816471" lon="11.6743101"><ele>828.4285714285714</ele><time>2026-04-04T15:00:26.063Z</time></trkpt><trkpt lat="42.8816513" lon="11.6742098"><ele>828.8571428571429</ele><time>2026-04-04T15:00:27.06Z</time></trkpt><trkpt lat="42.8816649" lon="11.6741194"><ele>829.2857142857142</ele><time>2026-04-04T15:00:28.077Z</time></trkpt><trkpt lat="42.8816751" lon="11.6740236"><ele>829.7142857142858</ele><time>2026-04-04T15:00:29.063Z</time></trkpt><trkpt lat="42.8817015" lon="11.673941"><ele>830.1428571428571</ele><time>2026-04-04T15:00:30.065Z</time></trkpt><trkpt lat="42.8817406" lon="11.673868"><ele>830.5714285714286</ele><time>2026-04-04T15:00:31.061Z</time></trkpt><trkpt lat="42.8817865" lon="11.6738029"><ele>831.0</ele><time>2026-04-04T15:00:32.062Z</time></trkpt><trkpt lat="42.881832" lon="11.6737333"><ele>831.0</ele><time>2026-04-04T15:00:33.066Z</time></trkpt><trkpt lat="42.8818835" lon="11.6736594"><ele>831.0</ele><time>2026-04-04T15:00:34.066Z</time></trkpt><trkpt lat="42.8819427" lon="11.6735732"><ele>831.0</ele><time>2026-04-04T15:00:35.064Z</time></trkpt><trkpt lat="42.8820114" lon="11.6734819"><ele>831.0</ele><time>2026-04-04T15:00:36.059Z</time></trkpt><trkpt lat="42.8820931" lon="11.673381"><ele>831.0</ele><time>2026-04-04T15:00:37.064Z</time></trkpt><trkpt lat="42.8821688" lon="11.6732814"><ele>831.4</ele><time>2026-04-04T15:00:38.055Z</time></trkpt><trkpt lat="42.8822403" lon="11.6731868"><ele>831.8</ele><time>2026-04-04T15:00:39.056Z</time></trkpt><trkpt lat="42.8823142" lon="11.6730871"><ele>832.1999999999999</ele><time>2026-04-04T15:00:40.057Z</time></trkpt><trkpt lat="42.8823897" lon="11.672987"><ele>832.5999999999999</ele><time>2026-04-04T15:00:41.064Z</time></trkpt><trkpt lat="42.8824529" lon="11.6728951"><ele>833.0</ele><time>2026-04-04T15:00:42.058Z</time></trkpt><trkpt lat="42.8825164" lon="11.6728172"><ele>833.6666666666667</ele><time>2026-04-04T15:00:43.085Z</time></trkpt><trkpt lat="42.8825713" lon="11.6727529"><ele>834.3333333333334</ele><time>2026-04-04T15:00:44.051Z</time></trkpt><trkpt lat="42.8826213" lon="11.6726942"><ele>835.0</ele><time>2026-04-04T15:00:45.056Z</time></trkpt><trkpt lat="42.8826362" lon="11.672546"><ele>835.6666666666667</ele><time>2026-04-04T15:00:47.059Z</time></trkpt><trkpt lat="42.8825953" lon="11.6724732"><ele>836.3333333333334</ele><time>2026-04-04T15:00:48.09Z</time></trkpt><trkpt lat="42.882539" lon="11.6724293"><ele>837.0</ele><time>2026-04-04T15:00:49.057Z</time></trkpt><trkpt lat="42.8824582" lon="11.6723969"><ele>837.0</ele><time>2026-04-04T15:00:50.058Z</time></trkpt><trkpt lat="42.8823696" lon="11.6723783"><ele>837.0</ele><time>2026-04-04T15:00:51.061Z</time></trkpt><trkpt lat="42.8822815" lon="11.6723579"><ele>837.0</ele><time>2026-04-04T15:00:52.061Z</time></trkpt><trkpt lat="42.882198" lon="11.6723395"><ele>837.0</ele><time>2026-04-04T15:00:53.089Z</time></trkpt><trkpt lat="42.8821197" lon="11.6723275"><ele>837.0</ele><time>2026-04-04T15:00:54.059Z</time></trkpt><trkpt lat="42.8820384" lon="11.6723183"><ele>837.0</ele><time>2026-04-04T15:00:55.063Z</time></trkpt><trkpt lat="42.8819666" lon="11.6723013"><ele>837.0</ele><time>2026-04-04T15:00:56.057Z</time></trkpt><trkpt lat="42.8819017" lon="11.6722909"><ele>837.0</ele><time>2026-04-04T15:00:57.059Z</time></trkpt><trkpt lat="42.8817893" lon="11.672341"><ele>837.0</ele><time>2026-04-04T15:00:59.062Z</time></trkpt><trkpt lat="42.8817728" lon="11.6724418"><ele>837.0</ele><time>2026-04-04T15:01:00.057Z</time></trkpt><trkpt lat="42.8817524" lon="11.6725613"><ele>837.0</ele><time>2026-04-04T15:01:01.06Z</time></trkpt><trkpt lat="42.8817295" lon="11.6726762"><ele>837.0</ele><time>2026-04-04T15:01:02.052Z</time></trkpt><trkpt lat="42.8817172" lon="11.6728099"><ele>836.6</ele><time>2026-04-04T15:01:03.076Z</time></trkpt><trkpt lat="42.8817011" lon="11.6729402"><ele>836.2</ele><time>2026-04-04T15:01:04.053Z</time></trkpt><trkpt lat="42.881692" lon="11.673078"><ele>835.8</ele><time>2026-04-04T15:01:05.052Z</time></trkpt><trkpt lat="42.8816868" lon="11.673208"><ele>835.4</ele><time>2026-04-04T15:01:06.059Z</time></trkpt><trkpt lat="42.8816748" lon="11.6733347"><ele>835.0</ele><time>2026-04-04T15:01:07.056Z</time></trkpt><trkpt lat="42.8816664" lon="11.6734527"><ele>834.9999999999999</ele><time>2026-04-04T15:01:08.086Z</time></trkpt><trkpt lat="42.8816554" lon="11.6735763"><ele>835.0</ele><time>2026-04-04T15:01:09.056Z</time></trkpt><trkpt lat="42.8816378" lon="11.6736851"><ele>835.0</ele><time>2026-04-04T15:01:10.059Z</time></trkpt><trkpt lat="42.8816216" lon="11.6737871"><ele>835.0</ele><time>2026-04-04T15:01:11.057Z</time></trkpt><trkpt lat="42.8815948" lon="11.673875"><ele>834.9999999999999</ele><time>2026-04-04T15:01:12.054Z</time></trkpt><trkpt lat="42.8815399" lon="11.6739504"><ele>835.0</ele><time>2026-04-04T15:01:13.058Z</time></trkpt><trkpt lat="42.8814658" lon="11.6739842"><ele>834.0</ele><time>2026-04-04T15:01:14.059Z</time></trkpt><trkpt lat="42.881385" lon="11.6740151"><ele>833.0</ele><time>2026-04-04T15:01:15.057Z</time></trkpt><trkpt lat="42.8812892" lon="11.6740488"><ele>832.0</ele><time>2026-04-04T15:01:16.055Z</time></trkpt><trkpt lat="42.8810826" lon="11.6741187"><ele>831.0</ele><time>2026-04-04T15:01:18.049Z</time></trkpt><trkpt lat="42.8809855" lon="11.6741511"><ele>830.4</ele><time>2026-04-04T15:01:19.074Z</time></trkpt><trkpt lat="42.8808914" lon="11.6741852"><ele>829.8</ele><time>2026-04-04T15:01:20.056Z</time></trkpt><trkpt lat="42.880799" lon="11.6742177"><ele>829.1999999999999</ele><time>2026-04-04T15:01:21.084Z</time></trkpt><trkpt lat="42.8807093" lon="11.6742484"><ele>828.5999999999999</ele><time>2026-04-04T15:01:22.08Z</time></trkpt><trkpt lat="42.8806243" lon="11.6742809"><ele>828.0</ele><time>2026-04-04T15:01:23.087Z</time></trkpt><trkpt lat="42.8805341" lon="11.6743249"><ele>828.0</ele><time>2026-04-04T15:01:24.081Z</time></trkpt><trkpt lat="42.8804333" lon="11.6743806"><ele>828.0</ele><time>2026-04-04T15:01:25.091Z</time></trkpt><trkpt lat="42.8803283" lon="11.6744686"><ele>828.0</ele><time>2026-04-04T15:01:26.09Z</time></trkpt><trkpt lat="42.8802281" lon="11.6745713"><ele>828.0</ele><time>2026-04-04T15:01:27.093Z</time></trkpt><trkpt lat="42.8801297" lon="11.6746799"><ele>827.0</ele><time>2026-04-04T15:01:28.067Z</time></trkpt><trkpt lat="42.8800431" lon="11.674789"><ele>826.0</ele><time>2026-04-04T15:01:29.077Z</time></trkpt><trkpt lat="42.8799691" lon="11.674898"><ele>825.0</ele><time>2026-04-04T15:01:30.073Z</time></trkpt><trkpt lat="42.8798964" lon="11.6749997"><ele>824.0</ele><time>2026-04-04T15:01:31.118Z</time></trkpt><trkpt lat="42.8798247" lon="11.6750997"><ele>823.0</ele><time>2026-04-04T15:01:32.059Z</time></trkpt><trkpt lat="42.8797481" lon="11.6751988"><ele>822.5999999999999</ele><time>2026-04-04T15:01:33.062Z</time></trkpt><trkpt lat="42.8796735" lon="11.6753039"><ele>822.1999999999999</ele><time>2026-04-04T15:01:34.062Z</time></trkpt><trkpt lat="42.8796015" lon="11.6754016"><ele>821.8</ele><time>2026-04-04T15:01:35.06Z</time></trkpt><trkpt lat="42.8795308" lon="11.6755061"><ele>821.4</ele><time>2026-04-04T15:01:36.056Z</time></trkpt><trkpt lat="42.8794539" lon="11.6756111"><ele>821.0</ele><time>2026-04-04T15:01:37.056Z</time></trkpt><trkpt lat="42.8793788" lon="11.6757159"><ele>821.0000000000001</ele><time>2026-04-04T15:01:38.056Z</time></trkpt><trkpt lat="42.8793057" lon="11.6758021"><ele>821.0</ele><time>2026-04-04T15:01:39.06Z</time></trkpt><trkpt lat="42.8792457" lon="11.6758843"><ele>821.0</ele><time>2026-04-04T15:01:40.078Z</time></trkpt><trkpt lat="42.8791915" lon="11.6759675"><ele>821.0</ele><time>2026-04-04T15:01:41.071Z</time></trkpt><trkpt lat="42.8791329" lon="11.6760413"><ele>821.0000000000001</ele><time>2026-04-04T15:01:42.081Z</time></trkpt><trkpt lat="42.8790736" lon="11.6761186"><ele>821.0</ele><time>2026-04-04T15:01:43.089Z</time></trkpt><trkpt lat="42.8790098" lon="11.6762032"><ele>820.1666666666667</ele><time>2026-04-04T15:01:44.078Z</time></trkpt><trkpt lat="42.8789498" lon="11.6762974"><ele>819.3333333333334</ele><time>2026-04-04T15:01:45.074Z</time></trkpt><trkpt lat="42.8788882" lon="11.6763874"><ele>818.5</ele><time>2026-04-04T15:01:46.07Z</time></trkpt><trkpt lat="42.8788264" lon="11.6764665"><ele>817.6666666666667</ele><time>2026-04-04T15:01:47.098Z</time></trkpt><trkpt lat="42.8787643" lon="11.6765439"><ele>816.8333333333334</ele><time>2026-04-04T15:01:48.072Z</time></trkpt><trkpt lat="42.8787079" lon="11.676631"><ele>816.0</ele><time>2026-04-04T15:01:49.057Z</time></trkpt><trkpt lat="42.8786531" lon="11.6767205"><ele>816.0</ele><time>2026-04-04T15:01:50.057Z</time></trkpt><trkpt lat="42.8785968" lon="11.6768099"><ele>816.0</ele><time>2026-04-04T15:01:51.061Z</time></trkpt><trkpt lat="42.8785357" lon="11.676897"><ele>816.0</ele><time>2026-04-04T15:01:52.067Z</time></trkpt><trkpt lat="42.8784789" lon="11.676982"><ele>816.0</ele><time>2026-04-04T15:01:53.051Z</time></trkpt><trkpt lat="42.8784214" lon="11.6770563"><ele>816.0</ele><time>2026-04-04T15:01:54.059Z</time></trkpt><trkpt lat="42.8783536" lon="11.6771258"><ele>816.0</ele><time>2026-04-04T15:01:55.056Z</time></trkpt><trkpt lat="42.8782912" lon="11.6772034"><ele>815.8333333333334</ele><time>2026-04-04T15:01:56.065Z</time></trkpt><trkpt lat="42.8782292" lon="11.677287"><ele>815.6666666666667</ele><time>2026-04-04T15:01:57.057Z</time></trkpt><trkpt lat="42.878163" lon="11.6773789"><ele>815.5</ele><time>2026-04-04T15:01:58.057Z</time></trkpt><trkpt lat="42.8781062" lon="11.677469"><ele>815.3333333333334</ele><time>2026-04-04T15:01:59.057Z</time></trkpt><trkpt lat="42.8780589" lon="11.6775697"><ele>815.1666666666667</ele><time>2026-04-04T15:02:00.052Z</time></trkpt><trkpt lat="42.8780209" lon="11.6776813"><ele>815.0</ele><time>2026-04-04T15:02:01.058Z</time></trkpt><trkpt lat="42.8779819" lon="11.6778046"><ele>814.3333333333334</ele><time>2026-04-04T15:02:02.064Z</time></trkpt><trkpt lat="42.8779574" lon="11.6779246"><ele>813.6666666666667</ele><time>2026-04-04T15:02:03.065Z</time></trkpt><trkpt lat="42.8779416" lon="11.6780498"><ele>813.0</ele><time>2026-04-04T15:02:04.064Z</time></trkpt><trkpt lat="42.8779374" lon="11.678178"><ele>812.3333333333333</ele><time>2026-04-04T15:02:05.06Z</time></trkpt><trkpt lat="42.8779395" lon="11.6782843"><ele>811.6666666666666</ele><time>2026-04-04T15:02:06.061Z</time></trkpt><trkpt lat="42.8779374" lon="11.678379"><ele>811.0</ele><time>2026-04-04T15:02:07.076Z</time></trkpt><trkpt lat="42.8779292" lon="11.6785302"><ele>811.0</ele><time>2026-04-04T15:02:09.09Z</time></trkpt><trkpt lat="42.877904" lon="11.6786697"><ele>811.0</ele><time>2026-04-04T15:02:11.075Z</time></trkpt><trkpt lat="42.8778231" lon="11.6787505"><ele>811.0</ele><time>2026-04-04T15:02:13.087Z</time></trkpt><trkpt lat="42.8777231" lon="11.6787664"><ele>811.0</ele><time>2026-04-04T15:02:15.054Z</time></trkpt><trkpt lat="42.8776399" lon="11.6788413"><ele>811.0</ele><time>2026-04-04T15:02:17.054Z</time></trkpt><trkpt lat="42.8775428" lon="11.6789364"><ele>811.0</ele><time>2026-04-04T15:02:19.083Z</time></trkpt><trkpt lat="42.8774581" lon="11.6790399"><ele>811.0</ele><time>2026-04-04T15:02:21.088Z</time></trkpt><trkpt lat="42.8774115" lon="11.6791108"><ele>811.0</ele><time>2026-04-04T15:02:22.097Z</time></trkpt><trkpt lat="42.8773723" lon="11.6792107"><ele>811.0</ele><time>2026-04-04T15:02:23.078Z</time></trkpt><trkpt lat="42.877343" lon="11.6793359"><ele>811.0</ele><time>2026-04-04T15:02:24.096Z</time></trkpt><trkpt lat="42.8773306" lon="11.6794652"><ele>810.1999999999999</ele><time>2026-04-04T15:02:25.085Z</time></trkpt><trkpt lat="42.8773315" lon="11.6795909"><ele>809.4</ele><time>2026-04-04T15:02:26.063Z</time></trkpt><trkpt lat="42.8773397" lon="11.6797187"><ele>808.6</ele><time>2026-04-04T15:02:27.067Z</time></trkpt><trkpt lat="42.877353" lon="11.6798463"><ele>807.8</ele><time>2026-04-04T15:02:28.068Z</time></trkpt><trkpt lat="42.8773799" lon="11.6799803"><ele>807.0</ele><time>2026-04-04T15:02:29.074Z</time></trkpt><trkpt lat="42.8774123" lon="11.6801011"><ele>807.0</ele><time>2026-04-04T15:02:30.083Z</time></trkpt><trkpt lat="42.8774477" lon="11.6802072"><ele>807.0</ele><time>2026-04-04T15:02:31.073Z</time></trkpt><trkpt lat="42.877482" lon="11.6803093"><ele>807.0</ele><time>2026-04-04T15:02:32.099Z</time></trkpt><trkpt lat="42.8775096" lon="11.680419"><ele>807.0</ele><time>2026-04-04T15:02:33.062Z</time></trkpt><trkpt lat="42.8775272" lon="11.6805458"><ele>807.0</ele><time>2026-04-04T15:02:34.056Z</time></trkpt><trkpt lat="42.8775338" lon="11.6806763"><ele>807.0</ele><time>2026-04-04T15:02:35.053Z</time></trkpt><trkpt lat="42.8775248" lon="11.6808201"><ele>806.4000000000001</ele><time>2026-04-04T15:02:36.061Z</time></trkpt><trkpt lat="42.8774911" lon="11.680966"><ele>805.8000000000001</ele><time>2026-04-04T15:02:37.069Z</time></trkpt><trkpt lat="42.8774464" lon="11.6811086"><ele>805.2</ele><time>2026-04-04T15:02:38.063Z</time></trkpt><trkpt lat="42.8773984" lon="11.6812307"><ele>804.6</ele><time>2026-04-04T15:02:39.066Z</time></trkpt><trkpt lat="42.8773564" lon="11.6813513"><ele>804.0</ele><time>2026-04-04T15:02:40.062Z</time></trkpt><trkpt lat="42.8773106" lon="11.6814925"><ele>802.6</ele><time>2026-04-04T15:02:41.098Z</time></trkpt><trkpt lat="42.877267" lon="11.6816309"><ele>801.2</ele><time>2026-04-04T15:02:42.076Z</time></trkpt><trkpt lat="42.8772279" lon="11.6817703"><ele>799.8000000000001</ele><time>2026-04-04T15:02:43.047Z</time></trkpt><trkpt lat="42.8771956" lon="11.6818972"><ele>798.4000000000001</ele><time>2026-04-04T15:02:44.052Z</time></trkpt><trkpt lat="42.8771614" lon="11.682017"><ele>797.0</ele><time>2026-04-04T15:02:45.059Z</time></trkpt><trkpt lat="42.8771402" lon="11.6821241"><ele>795.5000000000001</ele><time>2026-04-04T15:02:46.063Z</time></trkpt><trkpt lat="42.8771215" lon="11.6822292"><ele>794.0</ele><time>2026-04-04T15:02:47.053Z</time></trkpt><trkpt lat="42.8770951" lon="11.6823239"><ele>792.5</ele><time>2026-04-04T15:02:48.066Z</time></trkpt><trkpt lat="42.8770636" lon="11.6824205"><ele>791.0</ele><time>2026-04-04T15:02:49.048Z</time></trkpt><trkpt lat="42.8770275" lon="11.6825288"><ele>789.5000000000001</ele><time>2026-04-04T15:02:50.064Z</time></trkpt><trkpt lat="42.8769867" lon="11.6826583"><ele>788.0</ele><time>2026-04-04T15:02:51.071Z</time></trkpt><trkpt lat="42.8769399" lon="11.6827935"><ele>789.5</ele><time>2026-04-04T15:02:52.076Z</time></trkpt><trkpt lat="42.8768791" lon="11.6829297"><ele>791.0</ele><time>2026-04-04T15:02:53.062Z</time></trkpt><trkpt lat="42.8768238" lon="11.6830716"><ele>792.5</ele><time>2026-04-04T15:02:54.074Z</time></trkpt><trkpt lat="42.87677" lon="11.6832059"><ele>794.0</ele><time>2026-04-04T15:02:55.058Z</time></trkpt><trkpt lat="42.8767136" lon="11.6833292"><ele>794.0</ele><time>2026-04-04T15:02:56.063Z</time></trkpt><trkpt lat="42.8766555" lon="11.6834451"><ele>794.0</ele><time>2026-04-04T15:02:57.069Z</time></trkpt><trkpt lat="42.8765999" lon="11.6835588"><ele>794.0</ele><time>2026-04-04T15:02:58.068Z</time></trkpt><trkpt lat="42.8765434" lon="11.6836695"><ele>794.0</ele><time>2026-04-04T15:02:59.055Z</time></trkpt><trkpt lat="42.87649" lon="11.683775"><ele>794.0</ele><time>2026-04-04T15:03:00.059Z</time></trkpt><trkpt lat="42.8764408" lon="11.6838761"><ele>792.6</ele><time>2026-04-04T15:03:01.061Z</time></trkpt><trkpt lat="42.8763955" lon="11.6839806"><ele>791.2</ele><time>2026-04-04T15:03:02.063Z</time></trkpt><trkpt lat="42.876351" lon="11.6840878"><ele>789.8000000000001</ele><time>2026-04-04T15:03:03.055Z</time></trkpt><trkpt lat="42.8763036" lon="11.6841876"><ele>788.4000000000001</ele><time>2026-04-04T15:03:04.059Z</time></trkpt><trkpt lat="42.8762468" lon="11.6842849"><ele>787.0</ele><time>2026-04-04T15:03:05.063Z</time></trkpt><trkpt lat="42.8762046" lon="11.6844057"><ele>786.8333333333333</ele><time>2026-04-04T15:03:06.065Z</time></trkpt><trkpt lat="42.876187" lon="11.684523"><ele>786.6666666666666</ele><time>2026-04-04T15:03:07.06Z</time></trkpt><trkpt lat="42.8761875" lon="11.6846143"><ele>786.5</ele><time>2026-04-04T15:03:08.063Z</time></trkpt><trkpt lat="42.8761866" lon="11.6847521"><ele>786.3333333333333</ele><time>2026-04-04T15:03:10.069Z</time></trkpt><trkpt lat="42.8761829" lon="11.6848502"><ele>786.1666666666666</ele><time>2026-04-04T15:03:13.061Z</time></trkpt><trkpt lat="42.8761925" lon="11.6849465"><ele>786.0</ele><time>2026-04-04T15:03:17.067Z</time></trkpt><trkpt lat="42.8761893" lon="11.6850349"><ele>786.0</ele><time>2026-04-04T15:03:19.069Z</time></trkpt><trkpt lat="42.8761724" lon="11.6852483"><ele>786.0</ele><time>2026-04-04T15:03:21.071Z</time></trkpt><trkpt lat="42.8761732" lon="11.6854025"><ele>786.0</ele><time>2026-04-04T15:03:22.068Z</time></trkpt><trkpt lat="42.8761775" lon="11.6855404"><ele>786.0</ele><time>2026-04-04T15:03:23.116Z</time></trkpt><trkpt lat="42.8761783" lon="11.6856858"><ele>785.4</ele><time>2026-04-04T15:03:24.07Z</time></trkpt><trkpt lat="42.8761868" lon="11.6858417"><ele>784.8</ele><time>2026-04-04T15:03:25.066Z</time></trkpt><trkpt lat="42.8761974" lon="11.6859819"><ele>784.1999999999999</ele><time>2026-04-04T15:03:26.064Z</time></trkpt><trkpt lat="42.8762315" lon="11.6861033"><ele>783.5999999999999</ele><time>2026-04-04T15:03:27.064Z</time></trkpt><trkpt lat="42.8762795" lon="11.6862209"><ele>783.0</ele><time>2026-04-04T15:03:28.068Z</time></trkpt><trkpt lat="42.8763428" lon="11.6863463"><ele>780.75</ele><time>2026-04-04T15:03:29.068Z</time></trkpt><trkpt lat="42.8764139" lon="11.6864686"><ele>778.5</ele><time>2026-04-04T15:03:30.057Z</time></trkpt><trkpt lat="42.8764771" lon="11.6866003"><ele>776.25</ele><time>2026-04-04T15:03:31.067Z</time></trkpt><trkpt lat="42.8765378" lon="11.6867332"><ele>774.0</ele><time>2026-04-04T15:03:32.067Z</time></trkpt><trkpt lat="42.8766033" lon="11.6868557"><ele>772.0</ele><time>2026-04-04T15:03:33.061Z</time></trkpt><trkpt lat="42.8766691" lon="11.6869657"><ele>770.0</ele><time>2026-04-04T15:03:34.059Z</time></trkpt><trkpt lat="42.8767382" lon="11.687071"><ele>768.0</ele><time>2026-04-04T15:03:35.066Z</time></trkpt><trkpt lat="42.8767919" lon="11.6871962"><ele>766.0</ele><time>2026-04-04T15:03:36.08Z</time></trkpt><trkpt lat="42.87681" lon="11.6873309"><ele>764.0</ele><time>2026-04-04T15:03:37.065Z</time></trkpt><trkpt lat="42.8767921" lon="11.6874587"><ele>764.0</ele><time>2026-04-04T15:03:38.064Z</time></trkpt><trkpt lat="42.8767382" lon="11.687577"><ele>764.0</ele><time>2026-04-04T15:03:39.063Z</time></trkpt><trkpt lat="42.8766711" lon="11.6877003"><ele>764.0</ele><time>2026-04-04T15:03:40.057Z</time></trkpt><trkpt lat="42.8766076" lon="11.6878651"><ele>764.0</ele><time>2026-04-04T15:03:41.094Z</time></trkpt><trkpt lat="42.8765683" lon="11.6880827"><ele>762.25</ele><time>2026-04-04T15:03:42.053Z</time></trkpt><trkpt lat="42.8765515" lon="11.6883051"><ele>760.5</ele><time>2026-04-04T15:03:43.062Z</time></trkpt><trkpt lat="42.8765417" lon="11.688517"><ele>758.75</ele><time>2026-04-04T15:03:44.056Z</time></trkpt><trkpt lat="42.8765264" lon="11.6886932"><ele>757.0</ele><time>2026-04-04T15:03:45.06Z</time></trkpt><trkpt lat="42.8765066" lon="11.6888623"><ele>755.0</ele><time>2026-04-04T15:03:46.061Z</time></trkpt><trkpt lat="42.8764838" lon="11.689013"><ele>753.0</ele><time>2026-04-04T15:03:47.054Z</time></trkpt><trkpt lat="42.8764499" lon="11.6891628"><ele>751.0</ele><time>2026-04-04T15:03:48.09Z</time></trkpt><trkpt lat="42.8764033" lon="11.6893221"><ele>749.0</ele><time>2026-04-04T15:03:49.056Z</time></trkpt><trkpt lat="42.8763453" lon="11.689481"><ele>746.25</ele><time>2026-04-04T15:03:50.059Z</time></trkpt><trkpt lat="42.8762959" lon="11.6896464"><ele>743.5</ele><time>2026-04-04T15:03:51.058Z</time></trkpt><trkpt lat="42.876253" lon="11.6898084"><ele>740.75</ele><time>2026-04-04T15:03:52.059Z</time></trkpt><trkpt lat="42.8762143" lon="11.6899675"><ele>738.0</ele><time>2026-04-04T15:03:53.055Z</time></trkpt><trkpt lat="42.8761707" lon="11.6900988"><ele>738.0</ele><time>2026-04-04T15:03:54.063Z</time></trkpt><trkpt lat="42.8761262" lon="11.6902124"><ele>738.0</ele><time>2026-04-04T15:03:55.066Z</time></trkpt><trkpt lat="42.8760872" lon="11.6903184"><ele>738.0</ele><time>2026-04-04T15:03:56.057Z</time></trkpt><trkpt lat="42.8760711" lon="11.6904377"><ele>738.0</ele><time>2026-04-04T15:03:57.057Z</time></trkpt><trkpt lat="42.8760791" lon="11.6905633"><ele>738.0</ele><time>2026-04-04T15:03:58.058Z</time></trkpt><trkpt lat="42.8761011" lon="11.6906882"><ele>737.1666666666666</ele><time>2026-04-04T15:03:59.055Z</time></trkpt><trkpt lat="42.8761203" lon="11.6908045"><ele>736.3333333333334</ele><time>2026-04-04T15:04:00.066Z</time></trkpt><trkpt lat="42.8761397" lon="11.6909088"><ele>735.5</ele><time>2026-04-04T15:04:01.07Z</time></trkpt><trkpt lat="42.8761579" lon="11.691018"><ele>734.6666666666667</ele><time>2026-04-04T15:04:02.062Z</time></trkpt><trkpt lat="42.8761776" lon="11.6911271"><ele>733.8333333333334</ele><time>2026-04-04T15:04:03.069Z</time></trkpt><trkpt lat="42.8761967" lon="11.6912491"><ele>733.0</ele><time>2026-04-04T15:04:04.075Z</time></trkpt><trkpt lat="42.8762182" lon="11.6913795"><ele>731.5</ele><time>2026-04-04T15:04:05.073Z</time></trkpt><trkpt lat="42.8762368" lon="11.6915402"><ele>730.0</ele><time>2026-04-04T15:04:06.047Z</time></trkpt><trkpt lat="42.8762361" lon="11.6917139"><ele>728.5</ele><time>2026-04-04T15:04:07.056Z</time></trkpt><trkpt lat="42.8762263" lon="11.6918768"><ele>727.0</ele><time>2026-04-04T15:04:08.057Z</time></trkpt><trkpt lat="42.876194" lon="11.6920132"><ele>724.8333333333334</ele><time>2026-04-04T15:04:09.058Z</time></trkpt><trkpt lat="42.8761593" lon="11.6921314"><ele>722.6666666666667</ele><time>2026-04-04T15:04:10.051Z</time></trkpt><trkpt lat="42.876149" lon="11.6922311"><ele>720.5</ele><time>2026-04-04T15:04:11.052Z</time></trkpt><trkpt lat="42.8761778" lon="11.6923158"><ele>718.3333333333334</ele><time>2026-04-04T15:04:12.084Z</time></trkpt><trkpt lat="42.8762347" lon="11.6923722"><ele>716.1666666666666</ele><time>2026-04-04T15:04:13.063Z</time></trkpt><trkpt lat="42.876338" lon="11.6924012"><ele>714.0</ele><time>2026-04-04T15:04:14.054Z</time></trkpt><trkpt lat="42.8764408" lon="11.6923522"><ele>714.0</ele><time>2026-04-04T15:04:15.051Z</time></trkpt><trkpt lat="42.8765549" lon="11.6922688"><ele>714.0</ele><time>2026-04-04T15:04:16.061Z</time></trkpt><trkpt lat="42.8766555" lon="11.6922067"><ele>714.0</ele><time>2026-04-04T15:04:17.06Z</time></trkpt><trkpt lat="42.8767271" lon="11.6921643"><ele>714.0</ele><time>2026-04-04T15:04:18.071Z</time></trkpt><trkpt lat="42.8767954" lon="11.692167"><ele>714.0</ele><time>2026-04-04T15:04:19.054Z</time></trkpt><trkpt lat="42.8768419" lon="11.6922289"><ele>712.4000000000001</ele><time>2026-04-04T15:04:20.06Z</time></trkpt><trkpt lat="42.8768573" lon="11.6923374"><ele>710.8</ele><time>2026-04-04T15:04:21.059Z</time></trkpt><trkpt lat="42.8768547" lon="11.6924709"><ele>709.2</ele><time>2026-04-04T15:04:22.064Z</time></trkpt><trkpt lat="42.8768636" lon="11.6925979"><ele>707.5999999999999</ele><time>2026-04-04T15:04:23.065Z</time></trkpt><trkpt lat="42.8769212" lon="11.6926996"><ele>706.0</ele><time>2026-04-04T15:04:24.057Z</time></trkpt><trkpt lat="42.8770061" lon="11.6927926"><ele>703.5</ele><time>2026-04-04T15:04:25.068Z</time></trkpt><trkpt lat="42.8770968" lon="11.6928912"><ele>701.0</ele><time>2026-04-04T15:04:26.061Z</time></trkpt><trkpt lat="42.8771754" lon="11.6930306"><ele>698.5</ele><time>2026-04-04T15:04:27.064Z</time></trkpt><trkpt lat="42.8772306" lon="11.6932041"><ele>696.0</ele><time>2026-04-04T15:04:28.053Z</time></trkpt><trkpt lat="42.877285" lon="11.6933976"><ele>696.0</ele><time>2026-04-04T15:04:29.068Z</time></trkpt><trkpt lat="42.8773514" lon="11.6935679"><ele>696.0</ele><time>2026-04-04T15:04:30.057Z</time></trkpt><trkpt lat="42.8774152" lon="11.6937292"><ele>696.0</ele><time>2026-04-04T15:04:31.056Z</time></trkpt><trkpt lat="42.877465" lon="11.6938855"><ele>696.0</ele><time>2026-04-04T15:04:32.06Z</time></trkpt><trkpt lat="42.8774971" lon="11.6940315"><ele>694.5999999999999</ele><time>2026-04-04T15:04:33.063Z</time></trkpt><trkpt lat="42.8775325" lon="11.6941648"><ele>693.2</ele><time>2026-04-04T15:04:34.06Z</time></trkpt><trkpt lat="42.8775994" lon="11.6942676"><ele>691.8</ele><time>2026-04-04T15:04:35.056Z</time></trkpt><trkpt lat="42.8776805" lon="11.6943406"><ele>690.4000000000001</ele><time>2026-04-04T15:04:36.062Z</time></trkpt><trkpt lat="42.8777616" lon="11.6944113"><ele>689.0</ele><time>2026-04-04T15:04:37.064Z</time></trkpt><trkpt lat="42.8778045" lon="11.6945191"><ele>687.2</ele><time>2026-04-04T15:04:38.055Z</time></trkpt><trkpt lat="42.8778055" lon="11.6946386"><ele>685.4000000000001</ele><time>2026-04-04T15:04:39.066Z</time></trkpt><trkpt lat="42.8777592" lon="11.694759"><ele>683.6</ele><time>2026-04-04T15:04:40.051Z</time></trkpt><trkpt lat="42.8776905" lon="11.6948744"><ele>681.8</ele><time>2026-04-04T15:04:41.055Z</time></trkpt><trkpt lat="42.8776251" lon="11.694967"><ele>680.0</ele><time>2026-04-04T15:04:42.053Z</time></trkpt><trkpt lat="42.877597" lon="11.6950679"><ele>677.8</ele><time>2026-04-04T15:04:43.061Z</time></trkpt><trkpt lat="42.8776676" lon="11.6952108"><ele>675.6</ele><time>2026-04-04T15:04:45.056Z</time></trkpt><trkpt lat="42.8777505" lon="11.6952299"><ele>673.4000000000001</ele><time>2026-04-04T15:04:46.053Z</time></trkpt><trkpt lat="42.8778545" lon="11.6952254"><ele>671.2</ele><time>2026-04-04T15:04:47.065Z</time></trkpt><trkpt lat="42.8779685" lon="11.6952074"><ele>669.0</ele><time>2026-04-04T15:04:48.053Z</time></trkpt><trkpt lat="42.8780752" lon="11.6951951"><ele>669.0</ele><time>2026-04-04T15:04:49.073Z</time></trkpt><trkpt lat="42.8781832" lon="11.6951856"><ele>669.0</ele><time>2026-04-04T15:04:50.047Z</time></trkpt><trkpt lat="42.878286" lon="11.6951775"><ele>669.0</ele><time>2026-04-04T15:04:51.059Z</time></trkpt><trkpt lat="42.8783896" lon="11.6951839"><ele>669.0</ele><time>2026-04-04T15:04:52.054Z</time></trkpt><trkpt lat="42.8784855" lon="11.6952319"><ele>669.0</ele><time>2026-04-04T15:04:53.065Z</time></trkpt><trkpt lat="42.8785646" lon="11.6953091"><ele>665.8000000000001</ele><time>2026-04-04T15:04:54.052Z</time></trkpt><trkpt lat="42.8786105" lon="11.6954239"><ele>662.6</ele><time>2026-04-04T15:04:55.076Z</time></trkpt><trkpt lat="42.8786263" lon="11.6955558"><ele>659.4</ele><time>2026-04-04T15:04:56.055Z</time></trkpt><trkpt lat="42.8786014" lon="11.6956872"><ele>656.2</ele><time>2026-04-04T15:04:57.066Z</time></trkpt><trkpt lat="42.8785426" lon="11.695783"><ele>653.0</ele><time>2026-04-04T15:04:58.07Z</time></trkpt><trkpt lat="42.8784475" lon="11.6958482"><ele>652.5</ele><time>2026-04-04T15:04:59.061Z</time></trkpt><trkpt lat="42.8783665" lon="11.6959033"><ele>652.0</ele><time>2026-04-04T15:05:00.076Z</time></trkpt><trkpt lat="42.8783276" lon="11.6959856"><ele>651.5</ele><time>2026-04-04T15:05:01.064Z</time></trkpt><trkpt lat="42.8783325" lon="11.6960983"><ele>651.0</ele><time>2026-04-04T15:05:02.063Z</time></trkpt><trkpt lat="42.878379" lon="11.6962027"><ele>650.5</ele><time>2026-04-04T15:05:03.062Z</time></trkpt><trkpt lat="42.8784631" lon="11.696273"><ele>650.0</ele><time>2026-04-04T15:05:04.069Z</time></trkpt><trkpt lat="42.8785788" lon="11.6963279"><ele>649.5</ele><time>2026-04-04T15:05:05.064Z</time></trkpt><trkpt lat="42.8787083" lon="11.6963731"><ele>649.0</ele><time>2026-04-04T15:05:06.058Z</time></trkpt><trkpt lat="42.8788281" lon="11.6964245"><ele>648.5</ele><time>2026-04-04T15:05:07.064Z</time></trkpt><trkpt lat="42.8789321" lon="11.6964623"><ele>648.0</ele><time>2026-04-04T15:05:08.054Z</time></trkpt><trkpt lat="42.8790123" lon="11.6965105"><ele>648.0</ele><time>2026-04-04T15:05:09.061Z</time></trkpt><trkpt lat="42.8790464" lon="11.6965844"><ele>648.0</ele><time>2026-04-04T15:05:10.053Z</time></trkpt><trkpt lat="42.8790467" lon="11.6966931"><ele>648.0</ele><time>2026-04-04T15:05:11.056Z</time></trkpt><trkpt lat="42.8790089" lon="11.6968201"><ele>648.0</ele><time>2026-04-04T15:05:12.081Z</time></trkpt><trkpt lat="42.8789291" lon="11.6969484"><ele>648.0</ele><time>2026-04-04T15:05:13.055Z</time></trkpt><trkpt lat="42.8788467" lon="11.6970666"><ele>645.8</ele><time>2026-04-04T15:05:14.051Z</time></trkpt><trkpt lat="42.8787715" lon="11.6971905"><ele>643.5999999999999</ele><time>2026-04-04T15:05:15.056Z</time></trkpt><trkpt lat="42.8787047" lon="11.6973026"><ele>641.4000000000001</ele><time>2026-04-04T15:05:16.061Z</time></trkpt><trkpt lat="42.8786552" lon="11.6974067"><ele>639.2</ele><time>2026-04-04T15:05:17.061Z</time></trkpt><trkpt lat="42.8786224" lon="11.6975062"><ele>637.0</ele><time>2026-04-04T15:05:18.113Z</time></trkpt><trkpt lat="42.8786212" lon="11.697615"><ele>637.0</ele><time>2026-04-04T15:05:19.061Z</time></trkpt><trkpt lat="42.8786581" lon="11.6977188"><ele>637.0</ele><time>2026-04-04T15:05:20.051Z</time></trkpt><trkpt lat="42.8787313" lon="11.6977981"><ele>637.0</ele><time>2026-04-04T15:05:21.054Z</time></trkpt><trkpt lat="42.8788325" lon="11.6978468"><ele>637.0</ele><time>2026-04-04T15:05:22.058Z</time></trkpt><trkpt lat="42.8789514" lon="11.6978923"><ele>637.0</ele><time>2026-04-04T15:05:23.055Z</time></trkpt><trkpt lat="42.8790786" lon="11.6979324"><ele>633.5</ele><time>2026-04-04T15:05:24.063Z</time></trkpt><trkpt lat="42.8791996" lon="11.6979545"><ele>630.0</ele><time>2026-04-04T15:05:25.105Z</time></trkpt><trkpt lat="42.8793202" lon="11.697968"><ele>626.5</ele><time>2026-04-04T15:05:26.051Z</time></trkpt><trkpt lat="42.8794339" lon="11.6979829"><ele>623.0</ele><time>2026-04-04T15:05:27.067Z</time></trkpt><trkpt lat="42.8795481" lon="11.6979943"><ele>622.1666666666666</ele><time>2026-04-04T15:05:28.062Z</time></trkpt><trkpt lat="42.879661" lon="11.6980009"><ele>621.3333333333333</ele><time>2026-04-04T15:05:29.061Z</time></trkpt><trkpt lat="42.8797617" lon="11.6979908"><ele>620.5</ele><time>2026-04-04T15:05:30.052Z</time></trkpt><trkpt lat="42.8798418" lon="11.6979778"><ele>619.6666666666666</ele><time>2026-04-04T15:05:31.056Z</time></trkpt><trkpt lat="42.8799035" lon="11.6979517"><ele>618.8333333333334</ele><time>2026-04-04T15:05:32.078Z</time></trkpt><trkpt lat="42.8799785" lon="11.69791"><ele>618.0</ele><time>2026-04-04T15:05:34.062Z</time></trkpt><trkpt lat="42.8800449" lon="11.6978662"><ele>617.6666666666666</ele><time>2026-04-04T15:05:38.059Z</time></trkpt><trkpt lat="42.8801137" lon="11.6978083"><ele>617.3333333333334</ele><time>2026-04-04T15:06:33.086Z</time></trkpt><trkpt lat="42.8802286" lon="11.6977343"><ele>617.0</ele><time>2026-04-04T15:06:35.092Z</time></trkpt><trkpt lat="42.880295" lon="11.6976946"><ele>616.6666666666667</ele><time>2026-04-04T15:06:36.084Z</time></trkpt><trkpt lat="42.8803637" lon="11.6976534"><ele>616.3333333333334</ele><time>2026-04-04T15:06:37.074Z</time></trkpt><trkpt lat="42.8804474" lon="11.6976292"><ele>616.0</ele><time>2026-04-04T15:06:38.086Z</time></trkpt><trkpt lat="42.8805496" lon="11.6976515"><ele>616.0</ele><time>2026-04-04T15:06:39.082Z</time></trkpt><trkpt lat="42.8806385" lon="11.6977337"><ele>616.0</ele><time>2026-04-04T15:06:40.068Z</time></trkpt><trkpt lat="42.880713" lon="11.6978454"><ele>616.0</ele><time>2026-04-04T15:06:41.07Z</time></trkpt><trkpt lat="42.8807635" lon="11.6979861"><ele>616.0</ele><time>2026-04-04T15:06:42.063Z</time></trkpt><trkpt lat="42.880796" lon="11.6981227"><ele>616.0</ele><time>2026-04-04T15:06:43.065Z</time></trkpt><trkpt lat="42.8808219" lon="11.6982493"><ele>616.0</ele><time>2026-04-04T15:06:44.067Z</time></trkpt><trkpt lat="42.8808411" lon="11.6983787"><ele>616.0</ele><time>2026-04-04T15:06:45.073Z</time></trkpt><trkpt lat="42.8808616" lon="11.6985113"><ele>616.0</ele><time>2026-04-04T15:06:46.068Z</time></trkpt><trkpt lat="42.8808878" lon="11.6986539"><ele>616.0</ele><time>2026-04-04T15:06:47.064Z</time></trkpt><trkpt lat="42.8809179" lon="11.6988049"><ele>616.0</ele><time>2026-04-04T15:06:48.072Z</time></trkpt><trkpt lat="42.8809548" lon="11.6989797"><ele>613.3333333333334</ele><time>2026-04-04T15:06:49.084Z</time></trkpt><trkpt lat="42.8809969" lon="11.6991799"><ele>610.6666666666666</ele><time>2026-04-04T15:06:50.087Z</time></trkpt><trkpt lat="42.8810439" lon="11.6993929"><ele>608.0</ele><time>2026-04-04T15:06:51.072Z</time></trkpt><trkpt lat="42.8810934" lon="11.6996021"><ele>608.0</ele><time>2026-04-04T15:06:52.068Z</time></trkpt><trkpt lat="42.881128" lon="11.6998025"><ele>608.0</ele><time>2026-04-04T15:06:53.101Z</time></trkpt><trkpt lat="42.8811421" lon="11.6999975"><ele>608.0</ele><time>2026-04-04T15:06:54.074Z</time></trkpt><trkpt lat="42.8811478" lon="11.7001996"><ele>608.0</ele><time>2026-04-04T15:06:55.072Z</time></trkpt><trkpt lat="42.8811512" lon="11.7004122"><ele>610.0</ele><time>2026-04-04T15:06:56.061Z</time></trkpt><trkpt lat="42.881154" lon="11.7006437"><ele>612.0</ele><time>2026-04-04T15:06:57.066Z</time></trkpt><trkpt lat="42.8811569" lon="11.7008978"><ele>614.0</ele><time>2026-04-04T15:06:58.077Z</time></trkpt><trkpt lat="42.8811626" lon="11.7011465"><ele>615.0</ele><time>2026-04-04T15:06:59.064Z</time></trkpt><trkpt lat="42.8811661" lon="11.7013888"><ele>616.0</ele><time>2026-04-04T15:07:00.078Z</time></trkpt><trkpt lat="42.8811599" lon="11.7016168"><ele>617.0</ele><time>2026-04-04T15:07:01.064Z</time></trkpt><trkpt lat="42.8811542" lon="11.701845"><ele>616.0</ele><time>2026-04-04T15:07:02.069Z</time></trkpt><trkpt lat="42.8811457" lon="11.7020868"><ele>615.0</ele><time>2026-04-04T15:07:03.071Z</time></trkpt><trkpt lat="42.8811263" lon="11.7023418"><ele>614.0</ele><time>2026-04-04T15:07:04.063Z</time></trkpt><trkpt lat="42.8811008" lon="11.7025846"><ele>611.0</ele><time>2026-04-04T15:07:05.057Z</time></trkpt><trkpt lat="42.8810647" lon="11.7028142"><ele>608.0</ele><time>2026-04-04T15:07:06.087Z</time></trkpt><trkpt lat="42.8810346" lon="11.7030315"><ele>605.0</ele><time>2026-04-04T15:07:07.068Z</time></trkpt><trkpt lat="42.8810058" lon="11.7032455"><ele>605.0</ele><time>2026-04-04T15:07:08.072Z</time></trkpt><trkpt lat="42.8809746" lon="11.7034515"><ele>605.0</ele><time>2026-04-04T15:07:09.075Z</time></trkpt><trkpt lat="42.8809398" lon="11.7036568"><ele>605.0</ele><time>2026-04-04T15:07:10.057Z</time></trkpt><trkpt lat="42.8808732" lon="11.7038611"><ele>608.0</ele><time>2026-04-04T15:07:11.081Z</time></trkpt><trkpt lat="42.8807743" lon="11.7040682"><ele>611.0</ele><time>2026-04-04T15:07:12.074Z</time></trkpt><trkpt lat="42.8806654" lon="11.704291"><ele>614.0</ele><time>2026-04-04T15:07:13.057Z</time></trkpt><trkpt lat="42.8805571" lon="11.7045224"><ele>614.3333333333333</ele><time>2026-04-04T15:07:14.074Z</time></trkpt><trkpt lat="42.8804553" lon="11.7047456"><ele>614.6666666666666</ele><time>2026-04-04T15:07:15.062Z</time></trkpt><trkpt lat="42.8803663" lon="11.7049503"><ele>615.0</ele><time>2026-04-04T15:07:16.069Z</time></trkpt><trkpt lat="42.8802812" lon="11.7051444"><ele>615.0</ele><time>2026-04-04T15:07:17.064Z</time></trkpt><trkpt lat="42.8801895" lon="11.7053383"><ele>615.0</ele><time>2026-04-04T15:07:18.084Z</time></trkpt><trkpt lat="42.8801006" lon="11.7055379"><ele>615.0</ele><time>2026-04-04T15:07:19.054Z</time></trkpt><trkpt lat="42.8800107" lon="11.7057515"><ele>615.0</ele><time>2026-04-04T15:07:20.067Z</time></trkpt><trkpt lat="42.8799185" lon="11.7059632"><ele>615.0</ele><time>2026-04-04T15:07:21.062Z</time></trkpt><trkpt lat="42.8798314" lon="11.7061557"><ele>615.0</ele><time>2026-04-04T15:07:22.074Z</time></trkpt><trkpt lat="42.8797451" lon="11.7063381"><ele>613.3333333333334</ele><time>2026-04-04T15:07:23.06Z</time></trkpt><trkpt lat="42.879663" lon="11.7065235"><ele>611.6666666666667</ele><time>2026-04-04T15:07:24.067Z</time></trkpt><trkpt lat="42.8795807" lon="11.7066988"><ele>610.0</ele><time>2026-04-04T15:07:25.064Z</time></trkpt><trkpt lat="42.8795039" lon="11.7068786"><ele>608.3333333333334</ele><time>2026-04-04T15:07:26.059Z</time></trkpt><trkpt lat="42.8794306" lon="11.7070731"><ele>606.6666666666666</ele><time>2026-04-04T15:07:27.069Z</time></trkpt><trkpt lat="42.8793594" lon="11.7072828"><ele>605.0</ele><time>2026-04-04T15:07:28.074Z</time></trkpt><trkpt lat="42.8792985" lon="11.7074984"><ele>605.0</ele><time>2026-04-04T15:07:29.088Z</time></trkpt><trkpt lat="42.8792486" lon="11.7077159"><ele>605.0</ele><time>2026-04-04T15:07:30.101Z</time></trkpt><trkpt lat="42.879187" lon="11.7079154"><ele>605.0</ele><time>2026-04-04T15:07:31.074Z</time></trkpt><trkpt lat="42.8791135" lon="11.7081226"><ele>605.0</ele><time>2026-04-04T15:07:32.074Z</time></trkpt><trkpt lat="42.8790445" lon="11.7083606"><ele>605.0</ele><time>2026-04-04T15:07:33.067Z</time></trkpt><trkpt lat="42.8789847" lon="11.7086158"><ele>605.0</ele><time>2026-04-04T15:07:34.065Z</time></trkpt><trkpt lat="42.8789477" lon="11.7088794"><ele>602.0</ele><time>2026-04-04T15:07:35.061Z</time></trkpt><trkpt lat="42.8789242" lon="11.7091381"><ele>599.0</ele><time>2026-04-04T15:07:36.086Z</time></trkpt><trkpt lat="42.8789129" lon="11.7093793"><ele>596.0</ele><time>2026-04-04T15:07:37.062Z</time></trkpt><trkpt lat="42.8788876" lon="11.7096051"><ele>594.75</ele><time>2026-04-04T15:07:38.077Z</time></trkpt><trkpt lat="42.8788466" lon="11.7098137"><ele>593.5</ele><time>2026-04-04T15:07:39.056Z</time></trkpt><trkpt lat="42.8788104" lon="11.7099964"><ele>592.25</ele><time>2026-04-04T15:07:40.073Z</time></trkpt><trkpt lat="42.8788032" lon="11.710176"><ele>591.0</ele><time>2026-04-04T15:07:41.064Z</time></trkpt><trkpt lat="42.8788331" lon="11.7103492"><ele>591.0</ele><time>2026-04-04T15:07:42.077Z</time></trkpt><trkpt lat="42.878898" lon="11.7105174"><ele>591.0</ele><time>2026-04-04T15:07:43.06Z</time></trkpt><trkpt lat="42.8789754" lon="11.7106954"><ele>591.0</ele><time>2026-04-04T15:07:44.059Z</time></trkpt><trkpt lat="42.8790622" lon="11.7108841"><ele>591.0</ele><time>2026-04-04T15:07:45.056Z</time></trkpt><trkpt lat="42.8791568" lon="11.7110731"><ele>591.0</ele><time>2026-04-04T15:07:46.065Z</time></trkpt><trkpt lat="42.8792526" lon="11.7112656"><ele>591.0</ele><time>2026-04-04T15:07:47.069Z</time></trkpt><trkpt lat="42.8793307" lon="11.7114643"><ele>585.25</ele><time>2026-04-04T15:07:48.062Z</time></trkpt><trkpt lat="42.8793878" lon="11.7116594"><ele>579.5</ele><time>2026-04-04T15:07:49.062Z</time></trkpt><trkpt lat="42.8794348" lon="11.711853"><ele>573.75</ele><time>2026-04-04T15:07:50.07Z</time></trkpt><trkpt lat="42.8794606" lon="11.7120481"><ele>568.0</ele><time>2026-04-04T15:07:51.062Z</time></trkpt><trkpt lat="42.8794468" lon="11.7122656"><ele>567.0</ele><time>2026-04-04T15:07:52.066Z</time></trkpt><trkpt lat="42.8794434" lon="11.7124784"><ele>566.0</ele><time>2026-04-04T15:07:53.056Z</time></trkpt><trkpt lat="42.8794746" lon="11.7126578"><ele>565.0</ele><time>2026-04-04T15:07:54.054Z</time></trkpt><trkpt lat="42.8795037" lon="11.7128305"><ele>564.0</ele><time>2026-04-04T15:07:55.066Z</time></trkpt><trkpt lat="42.8794879" lon="11.7129857"><ele>563.5</ele><time>2026-04-04T15:07:56.061Z</time></trkpt><trkpt lat="42.8794464" lon="11.7131313"><ele>563.0</ele><time>2026-04-04T15:07:57.07Z</time></trkpt><trkpt lat="42.8793532" lon="11.713266"><ele>562.5</ele><time>2026-04-04T15:07:58.072Z</time></trkpt><trkpt lat="42.8792357" lon="11.7133822"><ele>562.0</ele><time>2026-04-04T15:07:59.061Z</time></trkpt><trkpt lat="42.8791475" lon="11.7134885"><ele>565.0</ele><time>2026-04-04T15:08:00.065Z</time></trkpt><trkpt lat="42.8790934" lon="11.7136216"><ele>568.0</ele><time>2026-04-04T15:08:01.06Z</time></trkpt><trkpt lat="42.879074" lon="11.7137726"><ele>571.0</ele><time>2026-04-04T15:08:02.053Z</time></trkpt><trkpt lat="42.8790808" lon="11.7139339"><ele>574.0</ele><time>2026-04-04T15:08:03.065Z</time></trkpt><trkpt lat="42.8790868" lon="11.7141296"><ele>574.0</ele><time>2026-04-04T15:08:04.058Z</time></trkpt><trkpt lat="42.8790614" lon="11.7143362"><ele>574.0</ele><time>2026-04-04T15:08:05.065Z</time></trkpt><trkpt lat="42.8790041" lon="11.7145297"><ele>574.0</ele><time>2026-04-04T15:08:06.069Z</time></trkpt><trkpt lat="42.8789337" lon="11.7147018"><ele>573.25</ele><time>2026-04-04T15:08:07.058Z</time></trkpt><trkpt lat="42.8788944" lon="11.714879"><ele>572.5</ele><time>2026-04-04T15:08:08.057Z</time></trkpt><trkpt lat="42.8788952" lon="11.7150677"><ele>571.75</ele><time>2026-04-04T15:08:09.097Z</time></trkpt><trkpt lat="42.8789287" lon="11.71526"><ele>571.0</ele><time>2026-04-04T15:08:10.066Z</time></trkpt><trkpt lat="42.8789966" lon="11.7154686"><ele>571.0</ele><time>2026-04-04T15:08:11.067Z</time></trkpt><trkpt lat="42.8790712" lon="11.7156745"><ele>571.0</ele><time>2026-04-04T15:08:12.057Z</time></trkpt><trkpt lat="42.8791563" lon="11.7158573"><ele>571.0</ele><time>2026-04-04T15:08:13.064Z</time></trkpt><trkpt lat="42.8792623" lon="11.7160068"><ele>567.6666666666667</ele><time>2026-04-04T15:08:14.069Z</time></trkpt><trkpt lat="42.8793845" lon="11.7161475"><ele>564.3333333333334</ele><time>2026-04-04T15:08:15.06Z</time></trkpt><trkpt lat="42.8795261" lon="11.7162937"><ele>561.0</ele><time>2026-04-04T15:08:16.073Z</time></trkpt><trkpt lat="42.8796695" lon="11.716461"><ele>561.0</ele><time>2026-04-04T15:08:17.072Z</time></trkpt><trkpt lat="42.8798197" lon="11.7166485"><ele>561.0</ele><time>2026-04-04T15:08:18.059Z</time></trkpt><trkpt lat="42.8799624" lon="11.7168176"><ele>561.0</ele><time>2026-04-04T15:08:19.063Z</time></trkpt><trkpt lat="42.8801014" lon="11.7169605"><ele>558.5</ele><time>2026-04-04T15:08:20.054Z</time></trkpt><trkpt lat="42.8802256" lon="11.7170732"><ele>556.0</ele><time>2026-04-04T15:08:21.05Z</time></trkpt><trkpt lat="42.8803409" lon="11.7171847"><ele>553.5</ele><time>2026-04-04T15:08:22.064Z</time></trkpt><trkpt lat="42.8804321" lon="11.7173395"><ele>551.0</ele><time>2026-04-04T15:08:23.072Z</time></trkpt><trkpt lat="42.8805198" lon="11.7175306"><ele>551.0</ele><time>2026-04-04T15:08:24.065Z</time></trkpt><trkpt lat="42.8806116" lon="11.7177328"><ele>551.0</ele><time>2026-04-04T15:08:25.059Z</time></trkpt><trkpt lat="42.8807307" lon="11.7179283"><ele>551.0</ele><time>2026-04-04T15:08:26.068Z</time></trkpt><trkpt lat="42.8808823" lon="11.7180941"><ele>549.0</ele><time>2026-04-04T15:08:27.059Z</time></trkpt><trkpt lat="42.881033" lon="11.7182312"><ele>547.0</ele><time>2026-04-04T15:08:28.065Z</time></trkpt><trkpt lat="42.8811594" lon="11.718392"><ele>545.0</ele><time>2026-04-04T15:08:29.07Z</time></trkpt><trkpt lat="42.8812662" lon="11.7185823"><ele>545.0</ele><time>2026-04-04T15:08:30.071Z</time></trkpt><trkpt lat="42.8813774" lon="11.7187824"><ele>545.0</ele><time>2026-04-04T15:08:31.065Z</time></trkpt><trkpt lat="42.8814903" lon="11.7190077"><ele>545.0</ele><time>2026-04-04T15:08:32.061Z</time></trkpt><trkpt lat="42.8815976" lon="11.719226"><ele>544.0</ele><time>2026-04-04T15:08:33.053Z</time></trkpt><trkpt lat="42.8817018" lon="11.7194287"><ele>543.0</ele><time>2026-04-04T15:08:34.064Z</time></trkpt><trkpt lat="42.8818188" lon="11.7196158"><ele>542.0</ele><time>2026-04-04T15:08:35.059Z</time></trkpt><trkpt lat="42.8819398" lon="11.7197789"><ele>537.6666666666666</ele><time>2026-04-04T15:08:36.097Z</time></trkpt><trkpt lat="42.882067" lon="11.7199333"><ele>533.3333333333334</ele><time>2026-04-04T15:08:37.062Z</time></trkpt><trkpt lat="42.8821859" lon="11.7200795"><ele>529.0</ele><time>2026-04-04T15:08:38.071Z</time></trkpt><trkpt lat="42.8822897" lon="11.7202237"><ele>529.5</ele><time>2026-04-04T15:08:39.053Z</time></trkpt><trkpt lat="42.8823795" lon="11.720361"><ele>530.0</ele><time>2026-04-04T15:08:40.059Z</time></trkpt><trkpt lat="42.8824602" lon="11.7204901"><ele>530.5</ele><time>2026-04-04T15:08:41.061Z</time></trkpt><trkpt lat="42.8825145" lon="11.7206275"><ele>531.0</ele><time>2026-04-04T15:08:42.06Z</time></trkpt><trkpt lat="42.8825236" lon="11.7207658"><ele>531.0</ele><time>2026-04-04T15:08:43.059Z</time></trkpt><trkpt lat="42.8824736" lon="11.7208803"><ele>531.0</ele><time>2026-04-04T15:08:44.065Z</time></trkpt><trkpt lat="42.8823851" lon="11.7209548"><ele>531.0</ele><time>2026-04-04T15:08:45.061Z</time></trkpt><trkpt lat="42.8822768" lon="11.7209536"><ele>531.0</ele><time>2026-04-04T15:08:46.073Z</time></trkpt><trkpt lat="42.8821343" lon="11.7209252"><ele>531.0</ele><time>2026-04-04T15:08:47.073Z</time></trkpt><trkpt lat="42.8819771" lon="11.7208819"><ele>531.0</ele><time>2026-04-04T15:08:48.061Z</time></trkpt><trkpt lat="42.8818195" lon="11.7208429"><ele>531.0</ele><time>2026-04-04T15:08:49.062Z</time></trkpt><trkpt lat="42.8816628" lon="11.7208057"><ele>531.0</ele><time>2026-04-04T15:08:50.052Z</time></trkpt><trkpt lat="42.8814874" lon="11.7207308"><ele>531.0</ele><time>2026-04-04T15:08:51.05Z</time></trkpt><trkpt lat="42.8813135" lon="11.7206258"><ele>531.0</ele><time>2026-04-04T15:08:52.06Z</time></trkpt><trkpt lat="42.8811317" lon="11.7205462"><ele>531.0</ele><time>2026-04-04T15:08:53.06Z</time></trkpt><trkpt lat="42.8809425" lon="11.7205128"><ele>531.0</ele><time>2026-04-04T15:08:54.054Z</time></trkpt><trkpt lat="42.8807456" lon="11.7204902"><ele>531.0</ele><time>2026-04-04T15:08:55.055Z</time></trkpt><trkpt lat="42.8805735" lon="11.7204459"><ele>527.0</ele><time>2026-04-04T15:08:56.05Z</time></trkpt><trkpt lat="42.8804094" lon="11.7203777"><ele>523.0</ele><time>2026-04-04T15:08:57.073Z</time></trkpt><trkpt lat="42.8802484" lon="11.7203393"><ele>519.0</ele><time>2026-04-04T15:08:58.065Z</time></trkpt><trkpt lat="42.8800837" lon="11.7203326"><ele>517.0</ele><time>2026-04-04T15:08:59.052Z</time></trkpt><trkpt lat="42.8799208" lon="11.7203145"><ele>515.0</ele><time>2026-04-04T15:09:00.056Z</time></trkpt><trkpt lat="42.879762" lon="11.7202901"><ele>513.0</ele><time>2026-04-04T15:09:01.057Z</time></trkpt><trkpt lat="42.8795966" lon="11.7202959"><ele>513.0</ele><time>2026-04-04T15:09:02.055Z</time></trkpt><trkpt lat="42.8794399" lon="11.7203302"><ele>513.0</ele><time>2026-04-04T15:09:03.056Z</time></trkpt><trkpt lat="42.8793113" lon="11.7204082"><ele>513.0</ele><time>2026-04-04T15:09:04.066Z</time></trkpt><trkpt lat="42.8791981" lon="11.7205124"><ele>513.0</ele><time>2026-04-04T15:09:05.06Z</time></trkpt><trkpt lat="42.8791046" lon="11.7206505"><ele>514.0</ele><time>2026-04-04T15:09:06.061Z</time></trkpt><trkpt lat="42.87902" lon="11.7208242"><ele>515.0</ele><time>2026-04-04T15:09:07.069Z</time></trkpt><trkpt lat="42.8789433" lon="11.7210342"><ele>516.0</ele><time>2026-04-04T15:09:08.056Z</time></trkpt><trkpt lat="42.878861" lon="11.7212522"><ele>511.33333333333337</ele><time>2026-04-04T15:09:09.057Z</time></trkpt><trkpt lat="42.8787802" lon="11.7214678"><ele>506.6666666666667</ele><time>2026-04-04T15:09:10.051Z</time></trkpt><trkpt lat="42.8787022" lon="11.7216803"><ele>502.0</ele><time>2026-04-04T15:09:11.064Z</time></trkpt><trkpt lat="42.878619" lon="11.721878"><ele>503.6666666666667</ele><time>2026-04-04T15:09:12.058Z</time></trkpt><trkpt lat="42.8785368" lon="11.722069"><ele>505.33333333333337</ele><time>2026-04-04T15:09:13.069Z</time></trkpt><trkpt lat="42.8784621" lon="11.7222684"><ele>507.0</ele><time>2026-04-04T15:09:14.069Z</time></trkpt><trkpt lat="42.8784068" lon="11.7224702"><ele>507.0</ele><time>2026-04-04T15:09:15.057Z</time></trkpt><trkpt lat="42.8783637" lon="11.722667"><ele>507.0</ele><time>2026-04-04T15:09:16.07Z</time></trkpt><trkpt lat="42.8783344" lon="11.7228536"><ele>507.0</ele><time>2026-04-04T15:09:17.055Z</time></trkpt><trkpt lat="42.8783105" lon="11.7230291"><ele>507.0</ele><time>2026-04-04T15:09:18.06Z</time></trkpt><trkpt lat="42.8782774" lon="11.723185"><ele>505.3333333333333</ele><time>2026-04-04T15:09:19.067Z</time></trkpt><trkpt lat="42.8782295" lon="11.7233246"><ele>503.66666666666663</ele><time>2026-04-04T15:09:20.057Z</time></trkpt><trkpt lat="42.8781863" lon="11.7234398"><ele>502.0</ele><time>2026-04-04T15:09:21.061Z</time></trkpt><trkpt lat="42.8781809" lon="11.7235452"><ele>500.3333333333333</ele><time>2026-04-04T15:09:22.059Z</time></trkpt><trkpt lat="42.8782162" lon="11.7236305"><ele>498.66666666666663</ele><time>2026-04-04T15:09:23.059Z</time></trkpt><trkpt lat="42.8782723" lon="11.7236903"><ele>497.0</ele><time>2026-04-04T15:09:24.066Z</time></trkpt><trkpt lat="42.8783528" lon="11.7236968"><ele>492.5</ele><time>2026-04-04T15:09:25.065Z</time></trkpt><trkpt lat="42.8784514" lon="11.7236507"><ele>488.0</ele><time>2026-04-04T15:09:26.063Z</time></trkpt><trkpt lat="42.8785391" lon="11.7235685"><ele>483.5</ele><time>2026-04-04T15:09:27.069Z</time></trkpt><trkpt lat="42.8786268" lon="11.723439"><ele>479.0</ele><time>2026-04-04T15:09:28.065Z</time></trkpt><trkpt lat="42.8787077" lon="11.7232708"><ele>479.0</ele><time>2026-04-04T15:09:29.064Z</time></trkpt><trkpt lat="42.8787912" lon="11.7230944"><ele>479.0</ele><time>2026-04-04T15:09:30.065Z</time></trkpt><trkpt lat="42.8788685" lon="11.7229261"><ele>479.0</ele><time>2026-04-04T15:09:31.081Z</time></trkpt><trkpt lat="42.8789513" lon="11.7227733"><ele>479.0</ele><time>2026-04-04T15:09:32.073Z</time></trkpt><trkpt lat="42.8790389" lon="11.7226276"><ele>479.66666666666663</ele><time>2026-04-04T15:09:33.058Z</time></trkpt><trkpt lat="42.8791504" lon="11.7224848"><ele>480.33333333333337</ele><time>2026-04-04T15:09:34.073Z</time></trkpt><trkpt lat="42.8792846" lon="11.7223441"><ele>481.0</ele><time>2026-04-04T15:09:35.065Z</time></trkpt><trkpt lat="42.8794253" lon="11.7222373"><ele>481.0</ele><time>2026-04-04T15:09:36.073Z</time></trkpt><trkpt lat="42.8795624" lon="11.7221527"><ele>481.0</ele><time>2026-04-04T15:09:37.067Z</time></trkpt><trkpt lat="42.8797064" lon="11.7221056"><ele>481.0</ele><time>2026-04-04T15:09:38.059Z</time></trkpt><trkpt lat="42.8798527" lon="11.7220966"><ele>481.0</ele><time>2026-04-04T15:09:39.063Z</time></trkpt><trkpt lat="42.8800059" lon="11.7221369"><ele>482.33333333333337</ele><time>2026-04-04T15:09:40.08Z</time></trkpt><trkpt lat="42.8801622" lon="11.7222275"><ele>483.66666666666663</ele><time>2026-04-04T15:09:41.062Z</time></trkpt><trkpt lat="42.8803117" lon="11.7223722"><ele>485.0</ele><time>2026-04-04T15:09:42.073Z</time></trkpt><trkpt lat="42.8804607" lon="11.722539"><ele>485.0</ele><time>2026-04-04T15:09:43.076Z</time></trkpt><trkpt lat="42.8806072" lon="11.7226923"><ele>485.0</ele><time>2026-04-04T15:09:44.068Z</time></trkpt><trkpt lat="42.8807547" lon="11.7228474"><ele>485.0</ele><time>2026-04-04T15:09:45.062Z</time></trkpt><trkpt lat="42.8809146" lon="11.7230005"><ele>481.3333333333333</ele><time>2026-04-04T15:09:46.063Z</time></trkpt><trkpt lat="42.8810813" lon="11.7231563"><ele>477.66666666666663</ele><time>2026-04-04T15:09:47.065Z</time></trkpt><trkpt lat="42.8812438" lon="11.723305"><ele>474.0</ele><time>2026-04-04T15:09:48.059Z</time></trkpt><trkpt lat="42.8813999" lon="11.7234514"><ele>468.33333333333337</ele><time>2026-04-04T15:09:49.07Z</time></trkpt><trkpt lat="42.8815524" lon="11.7235832"><ele>462.6666666666667</ele><time>2026-04-04T15:09:50.062Z</time></trkpt><trkpt lat="42.8817054" lon="11.7236958"><ele>457.0</ele><time>2026-04-04T15:09:51.069Z</time></trkpt><trkpt lat="42.8818575" lon="11.7237935"><ele>457.0</ele><time>2026-04-04T15:09:52.059Z</time></trkpt><trkpt lat="42.8820155" lon="11.7238773"><ele>457.0</ele><time>2026-04-04T15:09:53.055Z</time></trkpt><trkpt lat="42.8821805" lon="11.7239499"><ele>457.0</ele><time>2026-04-04T15:09:54.067Z</time></trkpt><trkpt lat="42.88237" lon="11.7240013"><ele>457.0</ele><time>2026-04-04T15:09:55.061Z</time></trkpt><trkpt lat="42.8825785" lon="11.7240429"><ele>457.0</ele><time>2026-04-04T15:09:56.067Z</time></trkpt><trkpt lat="42.8827822" lon="11.7240923"><ele>457.0</ele><time>2026-04-04T15:09:57.07Z</time></trkpt><trkpt lat="42.8829654" lon="11.7241497"><ele>455.6666666666667</ele><time>2026-04-04T15:09:58.065Z</time></trkpt><trkpt lat="42.8831333" lon="11.7241993"><ele>454.33333333333337</ele><time>2026-04-04T15:09:59.062Z</time></trkpt><trkpt lat="42.8832862" lon="11.7242327"><ele>453.0</ele><time>2026-04-04T15:10:00.06Z</time></trkpt><trkpt lat="42.8834196" lon="11.7242579"><ele>451.6666666666667</ele><time>2026-04-04T15:10:01.062Z</time></trkpt><trkpt lat="42.8835417" lon="11.7242657"><ele>450.33333333333337</ele><time>2026-04-04T15:10:02.056Z</time></trkpt><trkpt lat="42.8836407" lon="11.7242709"><ele>449.0</ele><time>2026-04-04T15:10:03.048Z</time></trkpt><trkpt lat="42.8837238" lon="11.7242783"><ele>447.6666666666667</ele><time>2026-04-04T15:10:04.071Z</time></trkpt><trkpt lat="42.8837808" lon="11.7243321"><ele>446.33333333333337</ele><time>2026-04-04T15:10:05.058Z</time></trkpt><trkpt lat="42.8837945" lon="11.7244235"><ele>445.0</ele><time>2026-04-04T15:10:06.065Z</time></trkpt><trkpt lat="42.883755" lon="11.7245033"><ele>442.5</ele><time>2026-04-04T15:10:07.068Z</time></trkpt><trkpt lat="42.8836874" lon="11.7245859"><ele>440.0</ele><time>2026-04-04T15:10:08.056Z</time></trkpt><trkpt lat="42.8835934" lon="11.7246663"><ele>437.5</ele><time>2026-04-04T15:10:09.062Z</time></trkpt><trkpt lat="42.883486" lon="11.7247404"><ele>435.0</ele><time>2026-04-04T15:10:10.061Z</time></trkpt><trkpt lat="42.8833615" lon="11.7248179"><ele>435.0</ele><time>2026-04-04T15:10:11.063Z</time></trkpt><trkpt lat="42.8832221" lon="11.724901"><ele>435.0</ele><time>2026-04-04T15:10:12.074Z</time></trkpt><trkpt lat="42.8830854" lon="11.724974"><ele>435.0</ele><time>2026-04-04T15:10:13.053Z</time></trkpt><trkpt lat="42.882937" lon="11.7250326"><ele>435.0</ele><time>2026-04-04T15:10:14.06Z</time></trkpt><trkpt lat="42.8827698" lon="11.7250791"><ele>435.0</ele><time>2026-04-04T15:10:15.067Z</time></trkpt><trkpt lat="42.882592" lon="11.7251269"><ele>435.0</ele><time>2026-04-04T15:10:16.063Z</time></trkpt><trkpt lat="42.8824158" lon="11.7251857"><ele>429.33333333333337</ele><time>2026-04-04T15:10:17.067Z</time></trkpt><trkpt lat="42.8822454" lon="11.7252388"><ele>423.6666666666667</ele><time>2026-04-04T15:10:18.066Z</time></trkpt><trkpt lat="42.8820677" lon="11.7252967"><ele>418.0</ele><time>2026-04-04T15:10:19.062Z</time></trkpt><trkpt lat="42.8818915" lon="11.725348"><ele>418.75</ele><time>2026-04-04T15:10:20.061Z</time></trkpt><trkpt lat="42.8817345" lon="11.7254002"><ele>419.5</ele><time>2026-04-04T15:10:21.075Z</time></trkpt><trkpt lat="42.8815953" lon="11.7254479"><ele>420.25</ele><time>2026-04-04T15:10:22.063Z</time></trkpt><trkpt lat="42.8814693" lon="11.7255097"><ele>421.0</ele><time>2026-04-04T15:10:23.076Z</time></trkpt><trkpt lat="42.8813524" lon="11.7255954"><ele>421.0</ele><time>2026-04-04T15:10:24.057Z</time></trkpt><trkpt lat="42.881248" lon="11.725694"><ele>421.0</ele><time>2026-04-04T15:10:25.059Z</time></trkpt><trkpt lat="42.8811578" lon="11.7258174"><ele>421.0</ele><time>2026-04-04T15:10:26.055Z</time></trkpt><trkpt lat="42.8810765" lon="11.725963"><ele>421.0</ele><time>2026-04-04T15:10:27.057Z</time></trkpt><trkpt lat="42.8810188" lon="11.7261072"><ele>418.20000000000005</ele><time>2026-04-04T15:10:28.071Z</time></trkpt><trkpt lat="42.8809827" lon="11.7262562"><ele>415.40000000000003</ele><time>2026-04-04T15:10:29.058Z</time></trkpt><trkpt lat="42.8809606" lon="11.7264006"><ele>412.6</ele><time>2026-04-04T15:10:30.079Z</time></trkpt><trkpt lat="42.8809496" lon="11.7265309"><ele>409.8</ele><time>2026-04-04T15:10:31.067Z</time></trkpt><trkpt lat="42.8809646" lon="11.7266553"><ele>407.0</ele><time>2026-04-04T15:10:32.061Z</time></trkpt><trkpt lat="42.8810145" lon="11.7267673"><ele>407.0</ele><time>2026-04-04T15:10:33.061Z</time></trkpt><trkpt lat="42.8810964" lon="11.7268542"><ele>407.0</ele><time>2026-04-04T15:10:34.052Z</time></trkpt><trkpt lat="42.881217" lon="11.7268863"><ele>407.0</ele><time>2026-04-04T15:10:35.075Z</time></trkpt><trkpt lat="42.8813548" lon="11.7268847"><ele>407.0</ele><time>2026-04-04T15:10:36.062Z</time></trkpt><trkpt lat="42.881486" lon="11.7268699"><ele>406.99999999999994</ele><time>2026-04-04T15:10:37.06Z</time></trkpt><trkpt lat="42.8815817" lon="11.7268533"><ele>407.0</ele><time>2026-04-04T15:10:38.074Z</time></trkpt><trkpt lat="42.8816547" lon="11.7268509"><ele>407.0</ele><time>2026-04-04T15:10:39.076Z</time></trkpt><trkpt lat="42.881725" lon="11.7269394"><ele>407.0</ele><time>2026-04-04T15:10:41.059Z</time></trkpt><trkpt lat="42.8816756" lon="11.7270588"><ele>406.99999999999994</ele><time>2026-04-04T15:10:43.058Z</time></trkpt><trkpt lat="42.8816083" lon="11.7270744"><ele>407.0</ele><time>2026-04-04T15:10:44.054Z</time></trkpt><trkpt lat="42.8815132" lon="11.7270995"><ele>404.75</ele><time>2026-04-04T15:10:45.06Z</time></trkpt><trkpt lat="42.8813971" lon="11.727149"><ele>402.5</ele><time>2026-04-04T15:10:46.052Z</time></trkpt><trkpt lat="42.8812703" lon="11.7272061"><ele>400.25</ele><time>2026-04-04T15:10:47.063Z</time></trkpt><trkpt lat="42.8811452" lon="11.7272594"><ele>398.0</ele><time>2026-04-04T15:10:48.061Z</time></trkpt><trkpt lat="42.8810123" lon="11.727318"><ele>398.0</ele><time>2026-04-04T15:10:49.062Z</time></trkpt><trkpt lat="42.8808595" lon="11.7273845"><ele>398.0</ele><time>2026-04-04T15:10:50.063Z</time></trkpt><trkpt lat="42.8806996" lon="11.7274627"><ele>398.0</ele><time>2026-04-04T15:10:51.068Z</time></trkpt><trkpt lat="42.8805504" lon="11.727535"><ele>398.0</ele><time>2026-04-04T15:10:52.078Z</time></trkpt><trkpt lat="42.8803959" lon="11.7275987"><ele>398.0</ele><time>2026-04-04T15:10:53.058Z</time></trkpt><trkpt lat="42.880231" lon="11.7276796"><ele>398.0</ele><time>2026-04-04T15:10:54.058Z</time></trkpt><trkpt lat="42.8800565" lon="11.7277684"><ele>395.0</ele><time>2026-04-04T15:10:55.065Z</time></trkpt><trkpt lat="42.8798811" lon="11.7278645"><ele>392.0</ele><time>2026-04-04T15:10:56.056Z</time></trkpt><trkpt lat="42.8797111" lon="11.7279624"><ele>389.0</ele><time>2026-04-04T15:10:57.068Z</time></trkpt><trkpt lat="42.8795455" lon="11.7280647"><ele>389.0</ele><time>2026-04-04T15:10:58.058Z</time></trkpt><trkpt lat="42.8793741" lon="11.7281805"><ele>389.0</ele><time>2026-04-04T15:10:59.061Z</time></trkpt><trkpt lat="42.8791938" lon="11.7283052"><ele>389.0</ele><time>2026-04-04T15:11:00.054Z</time></trkpt><trkpt lat="42.8790091" lon="11.7284326"><ele>386.66666666666663</ele><time>2026-04-04T15:11:01.06Z</time></trkpt><trkpt lat="42.8788246" lon="11.7285758"><ele>384.3333333333333</ele><time>2026-04-04T15:11:02.06Z</time></trkpt><trkpt lat="42.8786445" lon="11.7287146"><ele>382.0</ele><time>2026-04-04T15:11:03.065Z</time></trkpt><trkpt lat="42.8784759" lon="11.72885"><ele>383.3333333333333</ele><time>2026-04-04T15:11:04.057Z</time></trkpt><trkpt lat="42.8783172" lon="11.7289829"><ele>384.66666666666663</ele><time>2026-04-04T15:11:05.062Z</time></trkpt><trkpt lat="42.8781617" lon="11.729124"><ele>386.0</ele><time>2026-04-04T15:11:06.063Z</time></trkpt><trkpt lat="42.8780088" lon="11.7292752"><ele>386.0</ele><time>2026-04-04T15:11:07.059Z</time></trkpt><trkpt lat="42.8778527" lon="11.72943"><ele>386.0</ele><time>2026-04-04T15:11:08.064Z</time></trkpt><trkpt lat="42.8776932" lon="11.7295944"><ele>386.0</ele><time>2026-04-04T15:11:09.061Z</time></trkpt><trkpt lat="42.8775266" lon="11.7297688"><ele>387.5</ele><time>2026-04-04T15:11:10.058Z</time></trkpt><trkpt lat="42.8773554" lon="11.729954"><ele>389.0</ele><time>2026-04-04T15:11:11.076Z</time></trkpt><trkpt lat="42.8771719" lon="11.7301506"><ele>388.0</ele><time>2026-04-04T15:11:12.058Z</time></trkpt><trkpt lat="42.8769735" lon="11.7303588"><ele>387.0</ele><time>2026-04-04T15:11:13.056Z</time></trkpt><trkpt lat="42.8767706" lon="11.7305823"><ele>387.5</ele><time>2026-04-04T15:11:14.051Z</time></trkpt><trkpt lat="42.8765756" lon="11.7307911"><ele>388.0</ele><time>2026-04-04T15:11:15.06Z</time></trkpt><trkpt lat="42.876387" lon="11.7309864"><ele>385.0</ele><time>2026-04-04T15:11:16.069Z</time></trkpt><trkpt lat="42.8762042" lon="11.7311762"><ele>382.0</ele><time>2026-04-04T15:11:17.056Z</time></trkpt><trkpt lat="42.8760224" lon="11.7313647"><ele>382.5</ele><time>2026-04-04T15:11:18.073Z</time></trkpt><trkpt lat="42.8758365" lon="11.7315603"><ele>383.0</ele><time>2026-04-04T15:11:19.064Z</time></trkpt><trkpt lat="42.8756433" lon="11.7317677"><ele>381.5</ele><time>2026-04-04T15:11:20.065Z</time></trkpt><trkpt lat="42.8754437" lon="11.7319825"><ele>380.0</ele><time>2026-04-04T15:11:21.07Z</time></trkpt><trkpt lat="42.8752362" lon="11.7322059"><ele>378.5</ele><time>2026-04-04T15:11:22.073Z</time></trkpt><trkpt lat="42.8750188" lon="11.7324403"><ele>377.0</ele><time>2026-04-04T15:11:23.065Z</time></trkpt><trkpt lat="42.874791" lon="11.73268"><ele>377.0</ele><time>2026-04-04T15:11:24.079Z</time></trkpt><trkpt lat="42.8745588" lon="11.7329317"><ele>377.0</ele><time>2026-04-04T15:11:25.064Z</time></trkpt><trkpt lat="42.8743301" lon="11.7331823"><ele>376.5</ele><time>2026-04-04T15:11:26.061Z</time></trkpt><trkpt lat="42.8741103" lon="11.7334234"><ele>376.0</ele><time>2026-04-04T15:11:27.062Z</time></trkpt><trkpt lat="42.8739116" lon="11.7336615"><ele>376.0</ele><time>2026-04-04T15:11:28.061Z</time></trkpt><trkpt lat="42.8737313" lon="11.7338993"><ele>376.0</ele><time>2026-04-04T15:11:29.069Z</time></trkpt><trkpt lat="42.8735626" lon="11.7341401"><ele>375.0</ele><time>2026-04-04T15:11:30.063Z</time></trkpt><trkpt lat="42.8734077" lon="11.7343798"><ele>374.0</ele><time>2026-04-04T15:11:31.071Z</time></trkpt><trkpt lat="42.8732537" lon="11.7346224"><ele>372.0</ele><time>2026-04-04T15:11:32.07Z</time></trkpt><trkpt lat="42.8730973" lon="11.7348723"><ele>370.0</ele><time>2026-04-04T15:11:33.068Z</time></trkpt><trkpt lat="42.872947" lon="11.7351355"><ele>369.5</ele><time>2026-04-04T15:11:34.063Z</time></trkpt><trkpt lat="42.8728101" lon="11.7354234"><ele>369.0</ele><time>2026-04-04T15:11:35.067Z</time></trkpt><trkpt lat="42.8726718" lon="11.7357297"><ele>369.5</ele><time>2026-04-04T15:11:36.072Z</time></trkpt><trkpt lat="42.8725359" lon="11.7360523"><ele>370.0</ele><time>2026-04-04T15:11:37.07Z</time></trkpt><trkpt lat="42.8724022" lon="11.736393"><ele>369.0</ele><time>2026-04-04T15:11:38.063Z</time></trkpt><trkpt lat="42.8722701" lon="11.7367426"><ele>368.0</ele><time>2026-04-04T15:11:39.073Z</time></trkpt><trkpt lat="42.8721423" lon="11.7370975"><ele>367.5</ele><time>2026-04-04T15:11:40.064Z</time></trkpt><trkpt lat="42.8720196" lon="11.7374427"><ele>367.0</ele><time>2026-04-04T15:11:41.067Z</time></trkpt><trkpt lat="42.8719032" lon="11.7377626"><ele>367.0</ele><time>2026-04-04T15:11:42.071Z</time></trkpt><trkpt lat="42.8717957" lon="11.7380577"><ele>367.0</ele><time>2026-04-04T15:11:43.081Z</time></trkpt><trkpt lat="42.8716944" lon="11.7383377"><ele>367.66666666666663</ele><time>2026-04-04T15:11:44.08Z</time></trkpt><trkpt lat="42.8715947" lon="11.7385971"><ele>368.3333333333333</ele><time>2026-04-04T15:11:45.069Z</time></trkpt><trkpt lat="42.8714858" lon="11.7388355"><ele>369.0</ele><time>2026-04-04T15:11:46.067Z</time></trkpt><trkpt lat="42.8713613" lon="11.739037"><ele>369.0</ele><time>2026-04-04T15:11:47.062Z</time></trkpt><trkpt lat="42.8712128" lon="11.7391839"><ele>369.0</ele><time>2026-04-04T15:11:48.06Z</time></trkpt><trkpt lat="42.8710437" lon="11.7392934"><ele>369.0</ele><time>2026-04-04T15:11:49.06Z</time></trkpt><trkpt lat="42.8708814" lon="11.7393814"><ele>367.75</ele><time>2026-04-04T15:11:50.066Z</time></trkpt><trkpt lat="42.870735" lon="11.7394533"><ele>366.5</ele><time>2026-04-04T15:11:51.077Z</time></trkpt><trkpt lat="42.8706119" lon="11.7395459"><ele>365.25</ele><time>2026-04-04T15:11:52.06Z</time></trkpt><trkpt lat="42.8705126" lon="11.7396774"><ele>364.0</ele><time>2026-04-04T15:11:53.062Z</time></trkpt><trkpt lat="42.8704426" lon="11.7398358"><ele>364.0</ele><time>2026-04-04T15:11:54.077Z</time></trkpt><trkpt lat="42.870408" lon="11.7400143"><ele>364.0</ele><time>2026-04-04T15:11:55.055Z</time></trkpt><trkpt lat="42.870405" lon="11.7401905"><ele>364.0</ele><time>2026-04-04T15:11:56.076Z</time></trkpt><trkpt lat="42.8704337" lon="11.7403744"><ele>364.0</ele><time>2026-04-04T15:11:57.065Z</time></trkpt><trkpt lat="42.8704734" lon="11.7405553"><ele>363.79999999999995</ele><time>2026-04-04T15:11:58.068Z</time></trkpt><trkpt lat="42.8705053" lon="11.7407266"><ele>363.59999999999997</ele><time>2026-04-04T15:11:59.081Z</time></trkpt><trkpt lat="42.8705248" lon="11.7408723"><ele>363.4</ele><time>2026-04-04T15:12:00.077Z</time></trkpt><trkpt lat="42.8705444" lon="11.740996"><ele>363.2</ele><time>2026-04-04T15:12:01.062Z</time></trkpt><trkpt lat="42.8705524" lon="11.7411084"><ele>363.0</ele><time>2026-04-04T15:12:02.061Z</time></trkpt><trkpt lat="42.8705709" lon="11.7412327"><ele>364.79999999999995</ele><time>2026-04-04T15:12:04.073Z</time></trkpt><trkpt lat="42.8706352" lon="11.7412996"><ele>366.6</ele><time>2026-04-04T15:12:06.071Z</time></trkpt><trkpt lat="42.8707581" lon="11.7412682"><ele>368.4</ele><time>2026-04-04T15:12:08.079Z</time></trkpt><trkpt lat="42.8708355" lon="11.7412371"><ele>370.20000000000005</ele><time>2026-04-04T15:12:09.06Z</time></trkpt><trkpt lat="42.8709297" lon="11.7412008"><ele>372.0</ele><time>2026-04-04T15:12:10.066Z</time></trkpt><trkpt lat="42.871049" lon="11.7411509"><ele>370.75</ele><time>2026-04-04T15:12:11.063Z</time></trkpt><trkpt lat="42.871181" lon="11.7410964"><ele>369.5</ele><time>2026-04-04T15:12:12.061Z</time></trkpt><trkpt lat="42.8713081" lon="11.7410363"><ele>368.25</ele><time>2026-04-04T15:12:13.062Z</time></trkpt><trkpt lat="42.8714447" lon="11.7409857"><ele>367.0</ele><time>2026-04-04T15:12:14.063Z</time></trkpt><trkpt lat="42.8716005" lon="11.7409301"><ele>367.0</ele><time>2026-04-04T15:12:15.065Z</time></trkpt><trkpt lat="42.8717632" lon="11.7408732"><ele>367.0</ele><time>2026-04-04T15:12:16.068Z</time></trkpt><trkpt lat="42.8719179" lon="11.7408538"><ele>367.0</ele><time>2026-04-04T15:12:17.058Z</time></trkpt><trkpt lat="42.8720727" lon="11.7408936"><ele>367.0</ele><time>2026-04-04T15:12:18.073Z</time></trkpt><trkpt lat="42.8722509" lon="11.7409857"><ele>367.0</ele><time>2026-04-04T15:12:19.051Z</time></trkpt><trkpt lat="42.872437" lon="11.7411009"><ele>367.0</ele><time>2026-04-04T15:12:20.058Z</time></trkpt><trkpt lat="42.8726256" lon="11.7412276"><ele>367.0</ele><time>2026-04-04T15:12:21.06Z</time></trkpt><trkpt lat="42.8728046" lon="11.7413388"><ele>367.0</ele><time>2026-04-04T15:12:22.064Z</time></trkpt><trkpt lat="42.8729735" lon="11.7414431"><ele>367.0</ele><time>2026-04-04T15:12:23.062Z</time></trkpt><trkpt lat="42.8731275" lon="11.7415558"><ele>367.0</ele><time>2026-04-04T15:12:24.075Z</time></trkpt><trkpt lat="42.8732711" lon="11.7416979"><ele>367.0</ele><time>2026-04-04T15:12:25.065Z</time></trkpt><trkpt lat="42.8734057" lon="11.7418803"><ele>367.0</ele><time>2026-04-04T15:12:26.067Z</time></trkpt><trkpt lat="42.8735267" lon="11.7421066"><ele>368.3333333333333</ele><time>2026-04-04T15:12:27.062Z</time></trkpt><trkpt lat="42.8736294" lon="11.742368"><ele>369.6666666666667</ele><time>2026-04-04T15:12:28.062Z</time></trkpt><trkpt lat="42.8737254" lon="11.7426329"><ele>371.0</ele><time>2026-04-04T15:12:29.062Z</time></trkpt><trkpt lat="42.8738356" lon="11.7429153"><ele>371.0</ele><time>2026-04-04T15:12:30.07Z</time></trkpt><trkpt lat="42.8739438" lon="11.7432161"><ele>371.0</ele><time>2026-04-04T15:12:31.06Z</time></trkpt><trkpt lat="42.8740372" lon="11.7435047"><ele>372.5</ele><time>2026-04-04T15:12:32.068Z</time></trkpt><trkpt lat="42.8741137" lon="11.7437983"><ele>374.0</ele><time>2026-04-04T15:12:33.06Z</time></trkpt><trkpt lat="42.8741899" lon="11.7440865"><ele>375.5</ele><time>2026-04-04T15:12:34.063Z</time></trkpt><trkpt lat="42.8742725" lon="11.7443921"><ele>377.0</ele><time>2026-04-04T15:12:35.046Z</time></trkpt><trkpt lat="42.8743603" lon="11.7447034"><ele>377.0</ele><time>2026-04-04T15:12:36.065Z</time></trkpt><trkpt lat="42.8744471" lon="11.7450252"><ele>377.0</ele><time>2026-04-04T15:12:37.061Z</time></trkpt><trkpt lat="42.874533" lon="11.7453385"><ele>377.0</ele><time>2026-04-04T15:12:38.062Z</time></trkpt><trkpt lat="42.8746178" lon="11.7456574"><ele>377.0</ele><time>2026-04-04T15:12:39.066Z</time></trkpt><trkpt lat="42.8747094" lon="11.745983"><ele>378.5</ele><time>2026-04-04T15:12:40.063Z</time></trkpt><trkpt lat="42.874795" lon="11.7463175"><ele>380.0</ele><time>2026-04-04T15:12:41.066Z</time></trkpt><trkpt lat="42.8748787" lon="11.7466616"><ele>380.0</ele><time>2026-04-04T15:12:42.068Z</time></trkpt><trkpt lat="42.8749699" lon="11.7470081"><ele>380.0</ele><time>2026-04-04T15:12:43.068Z</time></trkpt><trkpt lat="42.8750688" lon="11.7473574"><ele>384.0</ele><time>2026-04-04T15:12:44.064Z</time></trkpt><trkpt lat="42.8751656" lon="11.7477093"><ele>388.0</ele><time>2026-04-04T15:12:45.072Z</time></trkpt><trkpt lat="42.8752623" lon="11.7480614"><ele>388.0</ele><time>2026-04-04T15:12:46.058Z</time></trkpt><trkpt lat="42.8753626" lon="11.7484157"><ele>388.0</ele><time>2026-04-04T15:12:47.067Z</time></trkpt><trkpt lat="42.8754632" lon="11.7487822"><ele>387.0</ele><time>2026-04-04T15:12:48.067Z</time></trkpt><trkpt lat="42.875558" lon="11.7491462"><ele>386.0</ele><time>2026-04-04T15:12:49.062Z</time></trkpt><trkpt lat="42.8756457" lon="11.7494889"><ele>386.0</ele><time>2026-04-04T15:12:50.058Z</time></trkpt><trkpt lat="42.8757191" lon="11.7498047"><ele>386.0</ele><time>2026-04-04T15:12:51.073Z</time></trkpt><trkpt lat="42.8757827" lon="11.7501074"><ele>386.0</ele><time>2026-04-04T15:12:52.065Z</time></trkpt><trkpt lat="42.8758415" lon="11.7504001"><ele>386.0</ele><time>2026-04-04T15:12:53.073Z</time></trkpt><trkpt lat="42.8758982" lon="11.7506781"><ele>386.0</ele><time>2026-04-04T15:12:54.07Z</time></trkpt><trkpt lat="42.8759493" lon="11.7509323"><ele>390.66666666666663</ele><time>2026-04-04T15:12:55.067Z</time></trkpt><trkpt lat="42.8759825" lon="11.7511676"><ele>395.33333333333337</ele><time>2026-04-04T15:12:56.072Z</time></trkpt><trkpt lat="42.8759773" lon="11.7514075"><ele>400.0</ele><time>2026-04-04T15:12:57.071Z</time></trkpt><trkpt lat="42.8759439" lon="11.7516555"><ele>398.0</ele><time>2026-04-04T15:12:58.065Z</time></trkpt><trkpt lat="42.8759017" lon="11.7519093"><ele>396.0</ele><time>2026-04-04T15:12:59.072Z</time></trkpt><trkpt lat="42.8758583" lon="11.7521743"><ele>394.0</ele><time>2026-04-04T15:13:00.062Z</time></trkpt><trkpt lat="42.8758117" lon="11.7524553"><ele>395.6666666666667</ele><time>2026-04-04T15:13:01.071Z</time></trkpt><trkpt lat="42.8757615" lon="11.752748"><ele>397.33333333333337</ele><time>2026-04-04T15:13:02.063Z</time></trkpt><trkpt lat="42.8757034" lon="11.7530501"><ele>399.0</ele><time>2026-04-04T15:13:03.064Z</time></trkpt><trkpt lat="42.8756489" lon="11.7533728"><ele>402.5</ele><time>2026-04-04T15:13:04.059Z</time></trkpt><trkpt lat="42.8755963" lon="11.7536983"><ele>406.0</ele><time>2026-04-04T15:13:05.071Z</time></trkpt><trkpt lat="42.8755453" lon="11.7540186"><ele>406.0</ele><time>2026-04-04T15:13:06.059Z</time></trkpt><trkpt lat="42.8754959" lon="11.7543191"><ele>406.0</ele><time>2026-04-04T15:13:07.062Z</time></trkpt><trkpt lat="42.8754462" lon="11.7545975"><ele>406.0</ele><time>2026-04-04T15:13:08.062Z</time></trkpt><trkpt lat="42.8754012" lon="11.7548733"><ele>407.0</ele><time>2026-04-04T15:13:09.062Z</time></trkpt><trkpt lat="42.8753548" lon="11.7551276"><ele>408.0</ele><time>2026-04-04T15:13:10.078Z</time></trkpt><trkpt lat="42.8753223" lon="11.7553791"><ele>409.0</ele><time>2026-04-04T15:13:11.054Z</time></trkpt><trkpt lat="42.875316" lon="11.7556445"><ele>409.6666666666667</ele><time>2026-04-04T15:13:12.071Z</time></trkpt><trkpt lat="42.8753313" lon="11.7559183"><ele>410.33333333333337</ele><time>2026-04-04T15:13:13.066Z</time></trkpt><trkpt lat="42.8753569" lon="11.7561903"><ele>411.0</ele><time>2026-04-04T15:13:14.071Z</time></trkpt><trkpt lat="42.875375" lon="11.756442"><ele>411.33333333333337</ele><time>2026-04-04T15:13:15.072Z</time></trkpt><trkpt lat="42.8754079" lon="11.7566861"><ele>411.6666666666667</ele><time>2026-04-04T15:13:16.07Z</time></trkpt><trkpt lat="42.875466" lon="11.7569328"><ele>412.0</ele><time>2026-04-04T15:13:17.062Z</time></trkpt><trkpt lat="42.8755374" lon="11.7571781"><ele>412.0</ele><time>2026-04-04T15:13:18.065Z</time></trkpt><trkpt lat="42.8756154" lon="11.7574247"><ele>412.0</ele><time>2026-04-04T15:13:19.058Z</time></trkpt><trkpt lat="42.8756931" lon="11.7576848"><ele>412.0</ele><time>2026-04-04T15:13:20.071Z</time></trkpt><trkpt lat="42.8757725" lon="11.7579541"><ele>411.33333333333337</ele><time>2026-04-04T15:13:21.056Z</time></trkpt><trkpt lat="42.8758555" lon="11.7582318"><ele>410.66666666666663</ele><time>2026-04-04T15:13:22.059Z</time></trkpt><trkpt lat="42.8759411" lon="11.7585156"><ele>410.0</ele><time>2026-04-04T15:13:23.058Z</time></trkpt><trkpt lat="42.8760222" lon="11.7588026"><ele>415.3333333333333</ele><time>2026-04-04T15:13:24.064Z</time></trkpt><trkpt lat="42.8761014" lon="11.7590627"><ele>420.66666666666663</ele><time>2026-04-04T15:13:25.052Z</time></trkpt><trkpt lat="42.8761663" lon="11.7592888"><ele>426.0</ele><time>2026-04-04T15:13:26.083Z</time></trkpt><trkpt lat="42.8762067" lon="11.759501"><ele>427.0</ele><time>2026-04-04T15:13:27.073Z</time></trkpt><trkpt lat="42.8762062" lon="11.7597091"><ele>428.0</ele><time>2026-04-04T15:13:28.061Z</time></trkpt><trkpt lat="42.8761549" lon="11.7599123"><ele>429.0</ele><time>2026-04-04T15:13:29.069Z</time></trkpt><trkpt lat="42.8760825" lon="11.7601044"><ele>430.25</ele><time>2026-04-04T15:13:30.077Z</time></trkpt><trkpt lat="42.8760227" lon="11.7602796"><ele>431.5</ele><time>2026-04-04T15:13:31.079Z</time></trkpt><trkpt lat="42.875986" lon="11.7604457"><ele>432.75</ele><time>2026-04-04T15:13:32.064Z</time></trkpt><trkpt lat="42.8759892" lon="11.7606037"><ele>434.0</ele><time>2026-04-04T15:13:33.06Z</time></trkpt><trkpt lat="42.8760231" lon="11.7607491"><ele>434.0</ele><time>2026-04-04T15:13:34.059Z</time></trkpt><trkpt lat="42.8760888" lon="11.7608787"><ele>434.0</ele><time>2026-04-04T15:13:35.067Z</time></trkpt><trkpt lat="42.876183" lon="11.7609716"><ele>434.0</ele><time>2026-04-04T15:13:36.063Z</time></trkpt><trkpt lat="42.8763011" lon="11.7610064"><ele>434.0</ele><time>2026-04-04T15:13:37.067Z</time></trkpt><trkpt lat="42.8764103" lon="11.7609895"><ele>434.0</ele><time>2026-04-04T15:13:38.06Z</time></trkpt><trkpt lat="42.8765027" lon="11.7609014"><ele>434.0</ele><time>2026-04-04T15:13:39.07Z</time></trkpt><trkpt lat="42.8765861" lon="11.7607834"><ele>434.0</ele><time>2026-04-04T15:13:40.058Z</time></trkpt><trkpt lat="42.8766471" lon="11.7606179"><ele>434.0</ele><time>2026-04-04T15:13:41.065Z</time></trkpt><trkpt lat="42.8767013" lon="11.7604295"><ele>437.66666666666663</ele><time>2026-04-04T15:13:42.062Z</time></trkpt><trkpt lat="42.8767695" lon="11.7602263"><ele>441.33333333333337</ele><time>2026-04-04T15:13:43.06Z</time></trkpt><trkpt lat="42.8768608" lon="11.7600192"><ele>445.0</ele><time>2026-04-04T15:13:44.06Z</time></trkpt><trkpt lat="42.8769675" lon="11.7598029"><ele>445.0</ele><time>2026-04-04T15:13:45.062Z</time></trkpt><trkpt lat="42.8770884" lon="11.7595748"><ele>445.0</ele><time>2026-04-04T15:13:46.05Z</time></trkpt><trkpt lat="42.8772192" lon="11.7593477"><ele>445.0</ele><time>2026-04-04T15:13:47.061Z</time></trkpt><trkpt lat="42.8773461" lon="11.7591365"><ele>443.6666666666667</ele><time>2026-04-04T15:13:48.076Z</time></trkpt><trkpt lat="42.8774568" lon="11.7589334"><ele>442.33333333333337</ele><time>2026-04-04T15:13:49.066Z</time></trkpt><trkpt lat="42.8775507" lon="11.7587291"><ele>441.0</ele><time>2026-04-04T15:13:50.061Z</time></trkpt><trkpt lat="42.8776236" lon="11.7584804"><ele>444.66666666666663</ele><time>2026-04-04T15:13:51.062Z</time></trkpt><trkpt lat="42.8776776" lon="11.7582144"><ele>448.3333333333333</ele><time>2026-04-04T15:13:52.076Z</time></trkpt><trkpt lat="42.8777132" lon="11.7579608"><ele>452.0</ele><time>2026-04-04T15:13:53.059Z</time></trkpt><trkpt lat="42.877745" lon="11.7577492"><ele>452.3333333333333</ele><time>2026-04-04T15:13:54.063Z</time></trkpt><trkpt lat="42.877736" lon="11.7575341"><ele>452.66666666666663</ele><time>2026-04-04T15:13:55.062Z</time></trkpt><trkpt lat="42.8776893" lon="11.7573109"><ele>453.0</ele><time>2026-04-04T15:13:56.054Z</time></trkpt><trkpt lat="42.8776344" lon="11.757096"><ele>451.75</ele><time>2026-04-04T15:13:57.066Z</time></trkpt><trkpt lat="42.877592" lon="11.7568968"><ele>450.5</ele><time>2026-04-04T15:13:58.066Z</time></trkpt><trkpt lat="42.8775897" lon="11.7566934"><ele>449.25</ele><time>2026-04-04T15:13:59.11Z</time></trkpt><trkpt lat="42.8776224" lon="11.7565146"><ele>448.0</ele><time>2026-04-04T15:14:00.099Z</time></trkpt><trkpt lat="42.8776944" lon="11.7563669"><ele>450.5</ele><time>2026-04-04T15:14:01.086Z</time></trkpt><trkpt lat="42.8777795" lon="11.7562254"><ele>453.0</ele><time>2026-04-04T15:14:02.083Z</time></trkpt><trkpt lat="42.8778579" lon="11.7560802"><ele>455.5</ele><time>2026-04-04T15:14:03.077Z</time></trkpt><trkpt lat="42.8779532" lon="11.7559197"><ele>458.0</ele><time>2026-04-04T15:14:04.075Z</time></trkpt><trkpt lat="42.8780563" lon="11.755749"><ele>458.0</ele><time>2026-04-04T15:14:05.072Z</time></trkpt><trkpt lat="42.8781764" lon="11.7555574"><ele>458.0</ele><time>2026-04-04T15:14:06.071Z</time></trkpt><trkpt lat="42.878312" lon="11.7553637"><ele>458.0</ele><time>2026-04-04T15:14:07.065Z</time></trkpt><trkpt lat="42.8784783" lon="11.7551885"><ele>459.66666666666663</ele><time>2026-04-04T15:14:08.068Z</time></trkpt><trkpt lat="42.8786468" lon="11.7550337"><ele>461.33333333333337</ele><time>2026-04-04T15:14:09.058Z</time></trkpt><trkpt lat="42.8788075" lon="11.7548932"><ele>463.0</ele><time>2026-04-04T15:14:10.063Z</time></trkpt><trkpt lat="42.8789682" lon="11.7547484"><ele>463.0</ele><time>2026-04-04T15:14:11.064Z</time></trkpt><trkpt lat="42.8791314" lon="11.754607"><ele>463.0</ele><time>2026-04-04T15:14:12.061Z</time></trkpt><trkpt lat="42.8792783" lon="11.7544712"><ele>463.0</ele><time>2026-04-04T15:14:13.074Z</time></trkpt><trkpt lat="42.8794065" lon="11.7543587"><ele>464.25</ele><time>2026-04-04T15:14:14.071Z</time></trkpt><trkpt lat="42.8795231" lon="11.7542768"><ele>465.5</ele><time>2026-04-04T15:14:15.08Z</time></trkpt><trkpt lat="42.8796321" lon="11.7542361"><ele>466.75</ele><time>2026-04-04T15:14:16.071Z</time></trkpt><trkpt lat="42.8797403" lon="11.7542616"><ele>468.0</ele><time>2026-04-04T15:14:17.069Z</time></trkpt><trkpt lat="42.8798334" lon="11.7543483"><ele>469.75</ele><time>2026-04-04T15:14:18.06Z</time></trkpt><trkpt lat="42.8799053" lon="11.7544636"><ele>471.5</ele><time>2026-04-04T15:14:19.069Z</time></trkpt><trkpt lat="42.8799308" lon="11.7546126"><ele>473.25</ele><time>2026-04-04T15:14:20.055Z</time></trkpt><trkpt lat="42.8799242" lon="11.7547764"><ele>475.0</ele><time>2026-04-04T15:14:21.073Z</time></trkpt><trkpt lat="42.8798545" lon="11.7549418"><ele>475.0</ele><time>2026-04-04T15:14:22.056Z</time></trkpt><trkpt lat="42.8797685" lon="11.7551114"><ele>475.0</ele><time>2026-04-04T15:14:23.056Z</time></trkpt><trkpt lat="42.879701" lon="11.7553085"><ele>475.0</ele><time>2026-04-04T15:14:24.061Z</time></trkpt><trkpt lat="42.8796673" lon="11.7555407"><ele>476.0</ele><time>2026-04-04T15:14:25.061Z</time></trkpt><trkpt lat="42.8796474" lon="11.755772"><ele>477.0</ele><time>2026-04-04T15:14:26.065Z</time></trkpt><trkpt lat="42.8796199" lon="11.7559839"><ele>478.0</ele><time>2026-04-04T15:14:27.059Z</time></trkpt><trkpt lat="42.8796115" lon="11.7561848"><ele>479.6666666666667</ele><time>2026-04-04T15:14:28.088Z</time></trkpt><trkpt lat="42.8796185" lon="11.7563828"><ele>481.33333333333337</ele><time>2026-04-04T15:14:29.064Z</time></trkpt><trkpt lat="42.8796825" lon="11.7565701"><ele>483.0</ele><time>2026-04-04T15:14:30.067Z</time></trkpt><trkpt lat="42.8797946" lon="11.7567746"><ele>483.0</ele><time>2026-04-04T15:14:31.065Z</time></trkpt><trkpt lat="42.8799125" lon="11.7569726"><ele>483.0</ele><time>2026-04-04T15:14:32.072Z</time></trkpt><trkpt lat="42.8800038" lon="11.7571825"><ele>483.0</ele><time>2026-04-04T15:14:33.084Z</time></trkpt><trkpt lat="42.8800656" lon="11.7573782"><ele>483.0</ele><time>2026-04-04T15:14:34.073Z</time></trkpt><trkpt lat="42.8800758" lon="11.7575743"><ele>483.0</ele><time>2026-04-04T15:14:35.084Z</time></trkpt><trkpt lat="42.880041" lon="11.7577868"><ele>483.0</ele><time>2026-04-04T15:14:36.067Z</time></trkpt><trkpt lat="42.8799794" lon="11.7580081"><ele>485.0</ele><time>2026-04-04T15:14:37.068Z</time></trkpt><trkpt lat="42.8799103" lon="11.7582415"><ele>487.0</ele><time>2026-04-04T15:14:38.061Z</time></trkpt><trkpt lat="42.8798589" lon="11.7584737"><ele>489.0</ele><time>2026-04-04T15:14:39.067Z</time></trkpt><trkpt lat="42.8798308" lon="11.7586964"><ele>490.0</ele><time>2026-04-04T15:14:40.056Z</time></trkpt><trkpt lat="42.8798391" lon="11.7589294"><ele>491.0</ele><time>2026-04-04T15:14:41.079Z</time></trkpt><trkpt lat="42.8798713" lon="11.7591688"><ele>492.0</ele><time>2026-04-04T15:14:42.074Z</time></trkpt><trkpt lat="42.8799111" lon="11.7594323"><ele>493.66666666666663</ele><time>2026-04-04T15:14:43.062Z</time></trkpt><trkpt lat="42.8799536" lon="11.7597208"><ele>495.3333333333333</ele><time>2026-04-04T15:14:44.058Z</time></trkpt><trkpt lat="42.8799975" lon="11.7600221"><ele>497.0</ele><time>2026-04-04T15:14:45.058Z</time></trkpt><trkpt lat="42.8800426" lon="11.7603281"><ele>498.0</ele><time>2026-04-04T15:14:46.068Z</time></trkpt><trkpt lat="42.8800882" lon="11.7606166"><ele>499.0</ele><time>2026-04-04T15:14:47.059Z</time></trkpt><trkpt lat="42.8801324" lon="11.7608964"><ele>500.0</ele><time>2026-04-04T15:14:48.055Z</time></trkpt><trkpt lat="42.8801851" lon="11.7611809"><ele>507.5</ele><time>2026-04-04T15:14:49.085Z</time></trkpt><trkpt lat="42.8802459" lon="11.7614862"><ele>515.0</ele><time>2026-04-04T15:14:50.062Z</time></trkpt><trkpt lat="42.8803182" lon="11.7618012"><ele>514.5</ele><time>2026-04-04T15:14:51.058Z</time></trkpt><trkpt lat="42.8804001" lon="11.762115"><ele>514.0</ele><time>2026-04-04T15:14:52.073Z</time></trkpt><trkpt lat="42.8804838" lon="11.762445"><ele>515.0</ele><time>2026-04-04T15:14:53.064Z</time></trkpt><trkpt lat="42.8805662" lon="11.7627851"><ele>516.0</ele><time>2026-04-04T15:14:54.086Z</time></trkpt><trkpt lat="42.8806408" lon="11.7631197"><ele>516.0</ele><time>2026-04-04T15:14:55.058Z</time></trkpt><trkpt lat="42.880698" lon="11.7634352"><ele>516.0</ele><time>2026-04-04T15:14:56.058Z</time></trkpt><trkpt lat="42.8807518" lon="11.7637221"><ele>516.6666666666666</ele><time>2026-04-04T15:14:57.068Z</time></trkpt><trkpt lat="42.8807959" lon="11.7639865"><ele>517.3333333333333</ele><time>2026-04-04T15:14:58.057Z</time></trkpt><trkpt lat="42.8808325" lon="11.7642363"><ele>518.0</ele><time>2026-04-04T15:14:59.086Z</time></trkpt><trkpt lat="42.8808473" lon="11.7644858"><ele>518.3333333333333</ele><time>2026-04-04T15:15:00.056Z</time></trkpt><trkpt lat="42.8808381" lon="11.7647484"><ele>518.6666666666666</ele><time>2026-04-04T15:15:01.068Z</time></trkpt><trkpt lat="42.8808201" lon="11.7650012"><ele>519.0</ele><time>2026-04-04T15:15:02.06Z</time></trkpt><trkpt lat="42.8808043" lon="11.7652298"><ele>519.25</ele><time>2026-04-04T15:15:03.076Z</time></trkpt><trkpt lat="42.880815" lon="11.7654459"><ele>519.5</ele><time>2026-04-04T15:15:04.075Z</time></trkpt><trkpt lat="42.8808514" lon="11.765638"><ele>519.75</ele><time>2026-04-04T15:15:05.069Z</time></trkpt><trkpt lat="42.8809168" lon="11.7657941"><ele>520.0</ele><time>2026-04-04T15:15:06.068Z</time></trkpt><trkpt lat="42.8810193" lon="11.7659294"><ele>524.0</ele><time>2026-04-04T15:15:07.069Z</time></trkpt><trkpt lat="42.8811465" lon="11.7660505"><ele>528.0</ele><time>2026-04-04T15:15:08.076Z</time></trkpt><trkpt lat="42.8812739" lon="11.7661836"><ele>532.0</ele><time>2026-04-04T15:15:09.067Z</time></trkpt><trkpt lat="42.8813951" lon="11.7663571"><ele>532.0</ele><time>2026-04-04T15:15:10.075Z</time></trkpt><trkpt lat="42.8814867" lon="11.7665674"><ele>532.0</ele><time>2026-04-04T15:15:11.071Z</time></trkpt><trkpt lat="42.8815558" lon="11.766801"><ele>532.0</ele><time>2026-04-04T15:15:12.076Z</time></trkpt><trkpt lat="42.881599" lon="11.7670617"><ele>532.0</ele><time>2026-04-04T15:15:13.088Z</time></trkpt><trkpt lat="42.881647" lon="11.767329"><ele>532.0</ele><time>2026-04-04T15:15:14.072Z</time></trkpt><trkpt lat="42.8816974" lon="11.7675754"><ele>532.0</ele><time>2026-04-04T15:15:15.071Z</time></trkpt><trkpt lat="42.8817514" lon="11.7678137"><ele>535.6666666666667</ele><time>2026-04-04T15:15:16.075Z</time></trkpt><trkpt lat="42.8818126" lon="11.7680531"><ele>539.3333333333334</ele><time>2026-04-04T15:15:17.067Z</time></trkpt><trkpt lat="42.881883" lon="11.7682755"><ele>543.0</ele><time>2026-04-04T15:15:18.065Z</time></trkpt><trkpt lat="42.8819512" lon="11.768465"><ele>542.0</ele><time>2026-04-04T15:15:19.063Z</time></trkpt><trkpt lat="42.8820299" lon="11.7686105"><ele>541.0</ele><time>2026-04-04T15:15:20.075Z</time></trkpt><trkpt lat="42.8821395" lon="11.7687147"><ele>540.0</ele><time>2026-04-04T15:15:21.075Z</time></trkpt><trkpt lat="42.8822681" lon="11.7687755"><ele>539.0</ele><time>2026-04-04T15:15:22.07Z</time></trkpt><trkpt lat="42.8824105" lon="11.7687873"><ele>539.0</ele><time>2026-04-04T15:15:23.074Z</time></trkpt><trkpt lat="42.882534" lon="11.7687305"><ele>539.0</ele><time>2026-04-04T15:15:24.074Z</time></trkpt><trkpt lat="42.8826443" lon="11.7686344"><ele>539.0</ele><time>2026-04-04T15:15:25.071Z</time></trkpt><trkpt lat="42.8827319" lon="11.7685075"><ele>539.0</ele><time>2026-04-04T15:15:26.082Z</time></trkpt><trkpt lat="42.882796" lon="11.7683406"><ele>543.3333333333333</ele><time>2026-04-04T15:15:27.061Z</time></trkpt><trkpt lat="42.8828202" lon="11.7681491"><ele>547.6666666666666</ele><time>2026-04-04T15:15:28.065Z</time></trkpt><trkpt lat="42.8827955" lon="11.7679392"><ele>552.0</ele><time>2026-04-04T15:15:29.064Z</time></trkpt><trkpt lat="42.8827502" lon="11.7677238"><ele>552.6666666666666</ele><time>2026-04-04T15:15:30.061Z</time></trkpt><trkpt lat="42.8826769" lon="11.7674687"><ele>553.3333333333333</ele><time>2026-04-04T15:15:31.076Z</time></trkpt><trkpt lat="42.8826218" lon="11.7671937"><ele>554.0</ele><time>2026-04-04T15:15:32.085Z</time></trkpt><trkpt lat="42.8826036" lon="11.7669095"><ele>554.6666666666666</ele><time>2026-04-04T15:15:33.068Z</time></trkpt><trkpt lat="42.8826116" lon="11.7666541"><ele>555.3333333333334</ele><time>2026-04-04T15:15:34.071Z</time></trkpt><trkpt lat="42.8826401" lon="11.7663914"><ele>556.0</ele><time>2026-04-04T15:15:35.066Z</time></trkpt><trkpt lat="42.8826749" lon="11.7661191"><ele>556.0</ele><time>2026-04-04T15:15:36.075Z</time></trkpt><trkpt lat="42.8826983" lon="11.7658393"><ele>556.0</ele><time>2026-04-04T15:15:37.066Z</time></trkpt><trkpt lat="42.8827194" lon="11.7655906"><ele>556.0</ele><time>2026-04-04T15:15:38.063Z</time></trkpt><trkpt lat="42.8827385" lon="11.765366"><ele>556.0</ele><time>2026-04-04T15:15:39.062Z</time></trkpt><trkpt lat="42.8827784" lon="11.7651814"><ele>556.0</ele><time>2026-04-04T15:15:40.065Z</time></trkpt><trkpt lat="42.8828396" lon="11.7650426"><ele>556.0</ele><time>2026-04-04T15:15:41.066Z</time></trkpt><trkpt lat="42.8829286" lon="11.7649804"><ele>556.0</ele><time>2026-04-04T15:15:42.064Z</time></trkpt><trkpt lat="42.8830248" lon="11.764947"><ele>556.0</ele><time>2026-04-04T15:15:43.07Z</time></trkpt><trkpt lat="42.8831376" lon="11.7649661"><ele>556.0</ele><time>2026-04-04T15:15:44.084Z</time></trkpt><trkpt lat="42.8832421" lon="11.7650244"><ele>556.0</ele><time>2026-04-04T15:15:45.068Z</time></trkpt><trkpt lat="42.8833142" lon="11.7651459"><ele>556.0</ele><time>2026-04-04T15:15:46.065Z</time></trkpt><trkpt lat="42.8833461" lon="11.7652903"><ele>556.0</ele><time>2026-04-04T15:15:47.059Z</time></trkpt><trkpt lat="42.8833436" lon="11.7654606"><ele>556.0</ele><time>2026-04-04T15:15:48.054Z</time></trkpt><trkpt lat="42.8832895" lon="11.7656585"><ele>556.0</ele><time>2026-04-04T15:15:49.06Z</time></trkpt><trkpt lat="42.8832311" lon="11.7658794"><ele>556.0</ele><time>2026-04-04T15:15:50.059Z</time></trkpt><trkpt lat="42.883192" lon="11.7661087"><ele>556.0</ele><time>2026-04-04T15:15:51.059Z</time></trkpt><trkpt lat="42.8831734" lon="11.7663127"><ele>556.0</ele><time>2026-04-04T15:15:52.07Z</time></trkpt><trkpt lat="42.8831947" lon="11.7664884"><ele>556.0</ele><time>2026-04-04T15:15:53.067Z</time></trkpt><trkpt lat="42.8832573" lon="11.7666598"><ele>556.0</ele><time>2026-04-04T15:15:54.073Z</time></trkpt><trkpt lat="42.8833529" lon="11.7668526"><ele>556.0</ele><time>2026-04-04T15:15:55.059Z</time></trkpt><trkpt lat="42.8834744" lon="11.7670454"><ele>559.3333333333334</ele><time>2026-04-04T15:15:56.069Z</time></trkpt><trkpt lat="42.8835942" lon="11.7672432"><ele>562.6666666666666</ele><time>2026-04-04T15:15:57.077Z</time></trkpt><trkpt lat="42.8837014" lon="11.7674366"><ele>566.0</ele><time>2026-04-04T15:15:58.066Z</time></trkpt><trkpt lat="42.8838088" lon="11.7676385"><ele>565.6666666666666</ele><time>2026-04-04T15:15:59.068Z</time></trkpt><trkpt lat="42.8839239" lon="11.7678439"><ele>565.3333333333334</ele><time>2026-04-04T15:16:00.055Z</time></trkpt><trkpt lat="42.8840387" lon="11.7680519"><ele>565.0</ele><time>2026-04-04T15:16:01.062Z</time></trkpt><trkpt lat="42.8841371" lon="11.768236"><ele>565.0</ele><time>2026-04-04T15:16:02.07Z</time></trkpt><trkpt lat="42.8842039" lon="11.768416"><ele>565.0</ele><time>2026-04-04T15:16:03.077Z</time></trkpt><trkpt lat="42.8842216" lon="11.7686193"><ele>565.0</ele><time>2026-04-04T15:16:04.068Z</time></trkpt><trkpt lat="42.884205" lon="11.7688245"><ele>565.0</ele><time>2026-04-04T15:16:05.07Z</time></trkpt><trkpt lat="42.884171" lon="11.7690284"><ele>565.25</ele><time>2026-04-04T15:16:06.064Z</time></trkpt><trkpt lat="42.8841395" lon="11.7692076"><ele>565.5</ele><time>2026-04-04T15:16:07.063Z</time></trkpt><trkpt lat="42.884134" lon="11.7693662"><ele>565.75</ele><time>2026-04-04T15:16:08.084Z</time></trkpt><trkpt lat="42.8841666" lon="11.7695166"><ele>566.0</ele><time>2026-04-04T15:16:09.067Z</time></trkpt><trkpt lat="42.8842289" lon="11.7696504"><ele>569.25</ele><time>2026-04-04T15:16:10.069Z</time></trkpt><trkpt lat="42.8843192" lon="11.7697634"><ele>572.5</ele><time>2026-04-04T15:16:11.071Z</time></trkpt><trkpt lat="42.8844236" lon="11.7698353"><ele>575.75</ele><time>2026-04-04T15:16:12.081Z</time></trkpt><trkpt lat="42.8845252" lon="11.769857"><ele>579.0</ele><time>2026-04-04T15:16:13.066Z</time></trkpt><trkpt lat="42.8846337" lon="11.7698354"><ele>579.0</ele><time>2026-04-04T15:16:14.069Z</time></trkpt><trkpt lat="42.8847358" lon="11.7697541"><ele>579.0</ele><time>2026-04-04T15:16:15.061Z</time></trkpt><trkpt lat="42.884816" lon="11.7696396"><ele>579.0</ele><time>2026-04-04T15:16:16.068Z</time></trkpt><trkpt lat="42.8848616" lon="11.7694881"><ele>579.0</ele><time>2026-04-04T15:16:17.059Z</time></trkpt><trkpt lat="42.884895" lon="11.7693053"><ele>580.0</ele><time>2026-04-04T15:16:18.065Z</time></trkpt><trkpt lat="42.884916" lon="11.7690954"><ele>581.0</ele><time>2026-04-04T15:16:19.069Z</time></trkpt><trkpt lat="42.8849527" lon="11.7688575"><ele>582.0</ele><time>2026-04-04T15:16:20.081Z</time></trkpt><trkpt lat="42.8849945" lon="11.7686039"><ele>582.0</ele><time>2026-04-04T15:16:21.062Z</time></trkpt><trkpt lat="42.8850302" lon="11.7683568"><ele>582.0</ele><time>2026-04-04T15:16:22.074Z</time></trkpt><trkpt lat="42.8850556" lon="11.7681328"><ele>582.0</ele><time>2026-04-04T15:16:23.058Z</time></trkpt><trkpt lat="42.8850918" lon="11.7679256"><ele>586.3333333333334</ele><time>2026-04-04T15:16:24.062Z</time></trkpt><trkpt lat="42.8851632" lon="11.7677139"><ele>590.6666666666667</ele><time>2026-04-04T15:16:25.061Z</time></trkpt><trkpt lat="42.885261" lon="11.7674967"><ele>595.0</ele><time>2026-04-04T15:16:26.07Z</time></trkpt><trkpt lat="42.8853652" lon="11.7672644"><ele>595.0</ele><time>2026-04-04T15:16:27.067Z</time></trkpt><trkpt lat="42.8854675" lon="11.7670317"><ele>595.0</ele><time>2026-04-04T15:16:28.06Z</time></trkpt><trkpt lat="42.8855615" lon="11.7668119"><ele>595.0</ele><time>2026-04-04T15:16:29.066Z</time></trkpt><trkpt lat="42.8856405" lon="11.766627"><ele>595.0</ele><time>2026-04-04T15:16:30.068Z</time></trkpt><trkpt lat="42.8857108" lon="11.7664569"><ele>595.0</ele><time>2026-04-04T15:16:31.058Z</time></trkpt><trkpt lat="42.8857495" lon="11.7662651"><ele>595.0</ele><time>2026-04-04T15:16:32.068Z</time></trkpt><trkpt lat="42.8857599" lon="11.7660514"><ele>595.0</ele><time>2026-04-04T15:16:33.06Z</time></trkpt><trkpt lat="42.8857461" lon="11.7658227"><ele>595.3333333333334</ele><time>2026-04-04T15:16:34.074Z</time></trkpt><trkpt lat="42.8857212" lon="11.7655885"><ele>595.6666666666666</ele><time>2026-04-04T15:16:35.058Z</time></trkpt><trkpt lat="42.8856908" lon="11.7653305"><ele>596.0</ele><time>2026-04-04T15:16:36.066Z</time></trkpt><trkpt lat="42.885669" lon="11.7650566"><ele>597.6666666666666</ele><time>2026-04-04T15:16:37.055Z</time></trkpt><trkpt lat="42.8856467" lon="11.7647701"><ele>599.3333333333334</ele><time>2026-04-04T15:16:38.067Z</time></trkpt><trkpt lat="42.8856218" lon="11.764481"><ele>601.0</ele><time>2026-04-04T15:16:39.063Z</time></trkpt><trkpt lat="42.8855981" lon="11.7642097"><ele>603.3333333333334</ele><time>2026-04-04T15:16:40.065Z</time></trkpt><trkpt lat="42.8855762" lon="11.7639587"><ele>605.6666666666666</ele><time>2026-04-04T15:16:41.07Z</time></trkpt><trkpt lat="42.8855555" lon="11.7637372"><ele>608.0</ele><time>2026-04-04T15:16:42.076Z</time></trkpt><trkpt lat="42.8855357" lon="11.7635391"><ele>608.5</ele><time>2026-04-04T15:16:43.067Z</time></trkpt><trkpt lat="42.8855344" lon="11.7633559"><ele>609.0</ele><time>2026-04-04T15:16:44.081Z</time></trkpt><trkpt lat="42.8855705" lon="11.7631935"><ele>609.5</ele><time>2026-04-04T15:16:45.069Z</time></trkpt><trkpt lat="42.8856451" lon="11.7630741"><ele>610.0</ele><time>2026-04-04T15:16:46.072Z</time></trkpt><trkpt lat="42.8857545" lon="11.7629962"><ele>610.0</ele><time>2026-04-04T15:16:47.066Z</time></trkpt><trkpt lat="42.8858778" lon="11.762972"><ele>610.0</ele><time>2026-04-04T15:16:48.076Z</time></trkpt><trkpt lat="42.8859863" lon="11.7630115"><ele>610.0</ele><time>2026-04-04T15:16:49.072Z</time></trkpt><trkpt lat="42.8860984" lon="11.763101"><ele>610.0</ele><time>2026-04-04T15:16:50.07Z</time></trkpt><trkpt lat="42.8861818" lon="11.7632399"><ele>612.25</ele><time>2026-04-04T15:16:51.069Z</time></trkpt><trkpt lat="42.8862292" lon="11.7634145"><ele>614.5</ele><time>2026-04-04T15:16:52.074Z</time></trkpt><trkpt lat="42.8862435" lon="11.7636225"><ele>616.75</ele><time>2026-04-04T15:16:53.06Z</time></trkpt><trkpt lat="42.8862556" lon="11.7638352"><ele>619.0</ele><time>2026-04-04T15:16:54.07Z</time></trkpt><trkpt lat="42.8862962" lon="11.764054"><ele>619.0</ele><time>2026-04-04T15:16:55.072Z</time></trkpt><trkpt lat="42.8863689" lon="11.7642502"><ele>619.0</ele><time>2026-04-04T15:16:56.063Z</time></trkpt><trkpt lat="42.8864642" lon="11.7644291"><ele>619.0</ele><time>2026-04-04T15:16:57.06Z</time></trkpt><trkpt lat="42.8865786" lon="11.7645895"><ele>619.0</ele><time>2026-04-04T15:16:58.072Z</time></trkpt><trkpt lat="42.8867328" lon="11.7647232"><ele>619.0</ele><time>2026-04-04T15:16:59.072Z</time></trkpt><trkpt lat="42.8869075" lon="11.7648522"><ele>619.0</ele><time>2026-04-04T15:17:00.06Z</time></trkpt><trkpt lat="42.8870892" lon="11.7649952"><ele>620.6666666666667</ele><time>2026-04-04T15:17:01.071Z</time></trkpt><trkpt lat="42.8872612" lon="11.7651432"><ele>622.3333333333334</ele><time>2026-04-04T15:17:02.073Z</time></trkpt><trkpt lat="42.8874149" lon="11.7652772"><ele>624.0</ele><time>2026-04-04T15:17:03.08Z</time></trkpt><trkpt lat="42.8875636" lon="11.765413"><ele>629.0</ele><time>2026-04-04T15:17:04.056Z</time></trkpt><trkpt lat="42.8877154" lon="11.7655559"><ele>634.0</ele><time>2026-04-04T15:17:05.058Z</time></trkpt><trkpt lat="42.8878723" lon="11.7657132"><ele>639.0</ele><time>2026-04-04T15:17:06.084Z</time></trkpt><trkpt lat="42.8880313" lon="11.765884"><ele>637.6666666666666</ele><time>2026-04-04T15:17:07.067Z</time></trkpt><trkpt lat="42.8882008" lon="11.7660541"><ele>636.3333333333333</ele><time>2026-04-04T15:17:08.058Z</time></trkpt><trkpt lat="42.8883608" lon="11.7662116"><ele>635.0</ele><time>2026-04-04T15:17:09.057Z</time></trkpt><trkpt lat="42.8885035" lon="11.7663511"><ele>638.0</ele><time>2026-04-04T15:17:10.069Z</time></trkpt><trkpt lat="42.8886296" lon="11.766487"><ele>641.0</ele><time>2026-04-04T15:17:11.077Z</time></trkpt><trkpt lat="42.8887286" lon="11.7666261"><ele>644.0</ele><time>2026-04-04T15:17:12.059Z</time></trkpt><trkpt lat="42.888805" lon="11.7667789"><ele>647.0</ele><time>2026-04-04T15:17:13.075Z</time></trkpt><trkpt lat="42.8888338" lon="11.7669611"><ele>648.75</ele><time>2026-04-04T15:17:14.073Z</time></trkpt><trkpt lat="42.8888355" lon="11.7671676"><ele>650.5</ele><time>2026-04-04T15:17:15.063Z</time></trkpt><trkpt lat="42.8888332" lon="11.7673728"><ele>652.25</ele><time>2026-04-04T15:17:16.06Z</time></trkpt><trkpt lat="42.8888309" lon="11.7675607"><ele>654.0</ele><time>2026-04-04T15:17:17.065Z</time></trkpt><trkpt lat="42.8888291" lon="11.7677647"><ele>656.0</ele><time>2026-04-04T15:17:18.047Z</time></trkpt><trkpt lat="42.8888303" lon="11.7679755"><ele>658.0</ele><time>2026-04-04T15:17:19.07Z</time></trkpt><trkpt lat="42.8888322" lon="11.7682106"><ele>660.0</ele><time>2026-04-04T15:17:20.077Z</time></trkpt><trkpt lat="42.8888379" lon="11.768421"><ele>659.0</ele><time>2026-04-04T15:17:21.063Z</time></trkpt><trkpt lat="42.8888522" lon="11.7686165"><ele>658.0</ele><time>2026-04-04T15:17:22.059Z</time></trkpt><trkpt lat="42.8889062" lon="11.7687896"><ele>657.0</ele><time>2026-04-04T15:17:23.054Z</time></trkpt><trkpt lat="42.889002" lon="11.7689442"><ele>656.0</ele><time>2026-04-04T15:17:24.059Z</time></trkpt><trkpt lat="42.8891293" lon="11.7690988"><ele>656.3333333333333</ele><time>2026-04-04T15:17:25.057Z</time></trkpt><trkpt lat="42.8892841" lon="11.7692012"><ele>656.6666666666666</ele><time>2026-04-04T15:17:26.055Z</time></trkpt><trkpt lat="42.8894481" lon="11.7693067"><ele>657.0</ele><time>2026-04-04T15:17:27.056Z</time></trkpt><trkpt lat="42.8896302" lon="11.7694257"><ele>657.0</ele><time>2026-04-04T15:17:28.067Z</time></trkpt><trkpt lat="42.8898258" lon="11.7695391"><ele>657.0</ele><time>2026-04-04T15:17:29.065Z</time></trkpt><trkpt lat="42.8900297" lon="11.7696623"><ele>657.0</ele><time>2026-04-04T15:17:30.072Z</time></trkpt><trkpt lat="42.8902229" lon="11.7697812"><ele>661.6666666666666</ele><time>2026-04-04T15:17:31.072Z</time></trkpt><trkpt lat="42.8903979" lon="11.7699034"><ele>666.3333333333333</ele><time>2026-04-04T15:17:32.067Z</time></trkpt><trkpt lat="42.8905566" lon="11.770017"><ele>671.0</ele><time>2026-04-04T15:17:33.084Z</time></trkpt><trkpt lat="42.8907008" lon="11.7701497"><ele>669.0</ele><time>2026-04-04T15:17:34.067Z</time></trkpt><trkpt lat="42.8908455" lon="11.7703069"><ele>667.0</ele><time>2026-04-04T15:17:35.072Z</time></trkpt><trkpt lat="42.8909934" lon="11.7704774"><ele>665.0</ele><time>2026-04-04T15:17:36.079Z</time></trkpt><trkpt lat="42.8911474" lon="11.7706522"><ele>667.3333333333333</ele><time>2026-04-04T15:17:37.069Z</time></trkpt><trkpt lat="42.8913158" lon="11.7708342"><ele>669.6666666666666</ele><time>2026-04-04T15:17:38.063Z</time></trkpt><trkpt lat="42.8914895" lon="11.7710192"><ele>672.0</ele><time>2026-04-04T15:17:39.068Z</time></trkpt><trkpt lat="42.8916703" lon="11.7712155"><ele>679.0</ele><time>2026-04-04T15:17:40.064Z</time></trkpt><trkpt lat="42.8918532" lon="11.7714229"><ele>686.0</ele><time>2026-04-04T15:17:41.063Z</time></trkpt><trkpt lat="42.8920419" lon="11.7716394"><ele>685.5</ele><time>2026-04-04T15:17:42.069Z</time></trkpt><trkpt lat="42.8922383" lon="11.7718568"><ele>685.0</ele><time>2026-04-04T15:17:43.064Z</time></trkpt><trkpt lat="42.8924341" lon="11.7720626"><ele>689.3333333333334</ele><time>2026-04-04T15:17:44.068Z</time></trkpt><trkpt lat="42.8926136" lon="11.7722549"><ele>693.6666666666666</ele><time>2026-04-04T15:17:45.071Z</time></trkpt><trkpt lat="42.8927746" lon="11.7724283"><ele>698.0</ele><time>2026-04-04T15:17:46.077Z</time></trkpt><trkpt lat="42.8929234" lon="11.7725889"><ele>696.6666666666666</ele><time>2026-04-04T15:17:47.071Z</time></trkpt><trkpt lat="42.8930587" lon="11.7727431"><ele>695.3333333333334</ele><time>2026-04-04T15:17:48.071Z</time></trkpt><trkpt lat="42.8931845" lon="11.7728874"><ele>694.0</ele><time>2026-04-04T15:17:49.056Z</time></trkpt><trkpt lat="42.8933063" lon="11.773022"><ele>699.3333333333334</ele><time>2026-04-04T15:17:50.059Z</time></trkpt><trkpt lat="42.8934259" lon="11.7731636"><ele>704.6666666666666</ele><time>2026-04-04T15:17:51.062Z</time></trkpt><trkpt lat="42.8935281" lon="11.7733306"><ele>710.0</ele><time>2026-04-04T15:17:52.067Z</time></trkpt><trkpt lat="42.8935883" lon="11.7735333"><ele>710.0</ele><time>2026-04-04T15:17:53.066Z</time></trkpt><trkpt lat="42.8936151" lon="11.7737341"><ele>710.0</ele><time>2026-04-04T15:17:54.075Z</time></trkpt><trkpt lat="42.8935984" lon="11.7739337"><ele>710.0</ele><time>2026-04-04T15:17:55.058Z</time></trkpt><trkpt lat="42.8935418" lon="11.7741245"><ele>710.0</ele><time>2026-04-04T15:17:56.061Z</time></trkpt><trkpt lat="42.893446" lon="11.7743045"><ele>708.6666666666666</ele><time>2026-04-04T15:17:57.066Z</time></trkpt><trkpt lat="42.8933231" lon="11.7744237"><ele>707.3333333333334</ele><time>2026-04-04T15:17:58.059Z</time></trkpt><trkpt lat="42.8931725" lon="11.7745115"><ele>706.0</ele><time>2026-04-04T15:17:59.059Z</time></trkpt><trkpt lat="42.8930226" lon="11.7745684"><ele>706.0</ele><time>2026-04-04T15:18:00.078Z</time></trkpt><trkpt lat="42.8929007" lon="11.7746407"><ele>706.0</ele><time>2026-04-04T15:18:01.066Z</time></trkpt><trkpt lat="42.892806" lon="11.7747687"><ele>706.0</ele><time>2026-04-04T15:18:02.059Z</time></trkpt><trkpt lat="42.8927369" lon="11.7749319"><ele>706.0</ele><time>2026-04-04T15:18:03.066Z</time></trkpt><trkpt lat="42.8927105" lon="11.7750913"><ele>707.5999999999999</ele><time>2026-04-04T15:18:04.065Z</time></trkpt><trkpt lat="42.8927158" lon="11.7752179"><ele>709.2</ele><time>2026-04-04T15:18:05.087Z</time></trkpt><trkpt lat="42.8927667" lon="11.7753224"><ele>710.8</ele><time>2026-04-04T15:18:06.063Z</time></trkpt><trkpt lat="42.8928413" lon="11.775399"><ele>712.4000000000001</ele><time>2026-04-04T15:18:07.074Z</time></trkpt><trkpt lat="42.892931" lon="11.7754279"><ele>714.0</ele><time>2026-04-04T15:18:08.056Z</time></trkpt><trkpt lat="42.8930347" lon="11.7754068"><ele>714.0</ele><time>2026-04-04T15:18:09.061Z</time></trkpt><trkpt lat="42.8931539" lon="11.7753524"><ele>714.0</ele><time>2026-04-04T15:18:10.071Z</time></trkpt><trkpt lat="42.8932831" lon="11.7752898"><ele>714.0</ele><time>2026-04-04T15:18:11.068Z</time></trkpt><trkpt lat="42.8934189" lon="11.7752183"><ele>714.0</ele><time>2026-04-04T15:18:12.067Z</time></trkpt><trkpt lat="42.8935451" lon="11.7751539"><ele>714.5</ele><time>2026-04-04T15:18:13.067Z</time></trkpt><trkpt lat="42.8936537" lon="11.7750922"><ele>715.0</ele><time>2026-04-04T15:18:14.073Z</time></trkpt><trkpt lat="42.8937368" lon="11.7750398"><ele>715.5</ele><time>2026-04-04T15:18:15.071Z</time></trkpt><trkpt lat="42.8937992" lon="11.7749984"><ele>716.0</ele><time>2026-04-04T15:18:16.078Z</time></trkpt><trkpt lat="42.8938886" lon="11.7749864"><ele>716.5</ele><time>2026-04-04T15:18:18.067Z</time></trkpt><trkpt lat="42.8939104" lon="11.7750797"><ele>717.0</ele><time>2026-04-04T15:18:20.055Z</time></trkpt><trkpt lat="42.8938034" lon="11.7751934"><ele>716.25</ele><time>2026-04-04T15:18:22.057Z</time></trkpt><trkpt lat="42.8936905" lon="11.7752588"><ele>715.5</ele><time>2026-04-04T15:18:23.065Z</time></trkpt><trkpt lat="42.8935687" lon="11.775336"><ele>714.75</ele><time>2026-04-04T15:18:24.054Z</time></trkpt><trkpt lat="42.8934539" lon="11.775419"><ele>714.0</ele><time>2026-04-04T15:18:25.065Z</time></trkpt><trkpt lat="42.8933298" lon="11.7755104"><ele>714.0</ele><time>2026-04-04T15:18:26.07Z</time></trkpt><trkpt lat="42.8931898" lon="11.7756284"><ele>714.0</ele><time>2026-04-04T15:18:27.051Z</time></trkpt><trkpt lat="42.8930492" lon="11.7757752"><ele>714.0</ele><time>2026-04-04T15:18:28.059Z</time></trkpt><trkpt lat="42.8929146" lon="11.775939"><ele>715.0</ele><time>2026-04-04T15:18:29.066Z</time></trkpt><trkpt lat="42.8927861" lon="11.776091"><ele>716.0</ele><time>2026-04-04T15:18:30.068Z</time></trkpt><trkpt lat="42.8926504" lon="11.7762458"><ele>717.0</ele><time>2026-04-04T15:18:31.063Z</time></trkpt><trkpt lat="42.8925053" lon="11.7764054"><ele>713.6666666666666</ele><time>2026-04-04T15:18:32.063Z</time></trkpt><trkpt lat="42.8923479" lon="11.7765834"><ele>710.3333333333333</ele><time>2026-04-04T15:18:33.061Z</time></trkpt><trkpt lat="42.8921832" lon="11.7767753"><ele>707.0</ele><time>2026-04-04T15:18:34.067Z</time></trkpt><trkpt lat="42.8920264" lon="11.7769646"><ele>707.0</ele><time>2026-04-04T15:18:35.074Z</time></trkpt><trkpt lat="42.8918821" lon="11.7771386"><ele>707.0</ele><time>2026-04-04T15:18:36.065Z</time></trkpt><trkpt lat="42.8917466" lon="11.7773059"><ele>707.0</ele><time>2026-04-04T15:18:37.058Z</time></trkpt><trkpt lat="42.8916139" lon="11.7774564"><ele>704.0</ele><time>2026-04-04T15:18:38.061Z</time></trkpt><trkpt lat="42.8914921" lon="11.7775929"><ele>701.0</ele><time>2026-04-04T15:18:39.074Z</time></trkpt><trkpt lat="42.8913828" lon="11.7777299"><ele>698.0</ele><time>2026-04-04T15:18:40.079Z</time></trkpt><trkpt lat="42.8912995" lon="11.7778759"><ele>695.0</ele><time>2026-04-04T15:18:41.081Z</time></trkpt><trkpt lat="42.89124" lon="11.7780446"><ele>695.0</ele><time>2026-04-04T15:18:42.076Z</time></trkpt><trkpt lat="42.8912067" lon="11.7782348"><ele>695.0</ele><time>2026-04-04T15:18:43.072Z</time></trkpt><trkpt lat="42.891197" lon="11.7784206"><ele>695.0</ele><time>2026-04-04T15:18:44.065Z</time></trkpt><trkpt lat="42.8912128" lon="11.7786171"><ele>695.0</ele><time>2026-04-04T15:18:45.077Z</time></trkpt><trkpt lat="42.8912601" lon="11.7788154"><ele>693.0</ele><time>2026-04-04T15:18:46.074Z</time></trkpt><trkpt lat="42.8913364" lon="11.7790314"><ele>691.0</ele><time>2026-04-04T15:18:47.065Z</time></trkpt><trkpt lat="42.8914485" lon="11.7792655"><ele>689.0</ele><time>2026-04-04T15:18:48.062Z</time></trkpt><trkpt lat="42.8915561" lon="11.7794979"><ele>688.6666666666666</ele><time>2026-04-04T15:18:49.069Z</time></trkpt><trkpt lat="42.8916556" lon="11.7797193"><ele>688.3333333333334</ele><time>2026-04-04T15:18:50.065Z</time></trkpt><trkpt lat="42.8917518" lon="11.7799276"><ele>688.0</ele><time>2026-04-04T15:18:51.074Z</time></trkpt><trkpt lat="42.8918519" lon="11.780119"><ele>685.3333333333334</ele><time>2026-04-04T15:18:52.072Z</time></trkpt><trkpt lat="42.8919636" lon="11.780297"><ele>682.6666666666666</ele><time>2026-04-04T15:18:53.085Z</time></trkpt><trkpt lat="42.8920982" lon="11.7804617"><ele>680.0</ele><time>2026-04-04T15:18:54.073Z</time></trkpt><trkpt lat="42.8922394" lon="11.7806463"><ele>680.0</ele><time>2026-04-04T15:18:55.076Z</time></trkpt><trkpt lat="42.8923874" lon="11.7808517"><ele>680.0</ele><time>2026-04-04T15:18:56.068Z</time></trkpt><trkpt lat="42.8925304" lon="11.7810532"><ele>680.0</ele><time>2026-04-04T15:18:57.071Z</time></trkpt><trkpt lat="42.8926622" lon="11.7812456"><ele>678.0</ele><time>2026-04-04T15:18:58.066Z</time></trkpt><trkpt lat="42.8927783" lon="11.7814422"><ele>676.0</ele><time>2026-04-04T15:18:59.068Z</time></trkpt><trkpt lat="42.8928731" lon="11.7816527"><ele>674.0</ele><time>2026-04-04T15:19:00.079Z</time></trkpt><trkpt lat="42.8929536" lon="11.7818925"><ele>672.3333333333333</ele><time>2026-04-04T15:19:01.077Z</time></trkpt><trkpt lat="42.8930037" lon="11.7821562"><ele>670.6666666666666</ele><time>2026-04-04T15:19:02.072Z</time></trkpt><trkpt lat="42.8930316" lon="11.7824659"><ele>669.0</ele><time>2026-04-04T15:19:03.072Z</time></trkpt><trkpt lat="42.8930322" lon="11.7827936"><ele>667.5</ele><time>2026-04-04T15:19:04.067Z</time></trkpt><trkpt lat="42.8930286" lon="11.783124"><ele>666.0</ele><time>2026-04-04T15:19:05.063Z</time></trkpt><trkpt lat="42.8930251" lon="11.7834367"><ele>663.3333333333334</ele><time>2026-04-04T15:19:06.07Z</time></trkpt><trkpt lat="42.8930189" lon="11.7837341"><ele>660.6666666666667</ele><time>2026-04-04T15:19:07.074Z</time></trkpt><trkpt lat="42.893017" lon="11.7840132"><ele>658.0</ele><time>2026-04-04T15:19:08.066Z</time></trkpt><trkpt lat="42.8930204" lon="11.7842778"><ele>657.6666666666667</ele><time>2026-04-04T15:19:09.063Z</time></trkpt><trkpt lat="42.8930506" lon="11.7845131"><ele>657.3333333333334</ele><time>2026-04-04T15:19:10.073Z</time></trkpt><trkpt lat="42.8930956" lon="11.7847206"><ele>657.0</ele><time>2026-04-04T15:19:11.082Z</time></trkpt><trkpt lat="42.8931661" lon="11.7849013"><ele>657.0</ele><time>2026-04-04T15:19:12.06Z</time></trkpt><trkpt lat="42.8932527" lon="11.7850713"><ele>657.0</ele><time>2026-04-04T15:19:13.073Z</time></trkpt><trkpt lat="42.8933564" lon="11.785229"><ele>657.0</ele><time>2026-04-04T15:19:14.073Z</time></trkpt><trkpt lat="42.8934681" lon="11.7853777"><ele>660.3333333333334</ele><time>2026-04-04T15:19:15.064Z</time></trkpt><trkpt lat="42.8936081" lon="11.7855033"><ele>663.6666666666667</ele><time>2026-04-04T15:19:16.075Z</time></trkpt><trkpt lat="42.8937766" lon="11.7855965"><ele>667.0</ele><time>2026-04-04T15:19:17.057Z</time></trkpt><trkpt lat="42.8939611" lon="11.7856779"><ele>667.0</ele><time>2026-04-04T15:19:18.079Z</time></trkpt><trkpt lat="42.8941581" lon="11.7857448"><ele>667.0</ele><time>2026-04-04T15:19:19.076Z</time></trkpt><trkpt lat="42.8943647" lon="11.7858153"><ele>667.0</ele><time>2026-04-04T15:19:20.065Z</time></trkpt><trkpt lat="42.8945698" lon="11.7858982"><ele>665.3333333333334</ele><time>2026-04-04T15:19:21.07Z</time></trkpt><trkpt lat="42.8947532" lon="11.7859945"><ele>663.6666666666666</ele><time>2026-04-04T15:19:22.06Z</time></trkpt><trkpt lat="42.8949209" lon="11.7861226"><ele>662.0</ele><time>2026-04-04T15:19:23.062Z</time></trkpt><trkpt lat="42.8950852" lon="11.7862758"><ele>663.0</ele><time>2026-04-04T15:19:24.069Z</time></trkpt><trkpt lat="42.8952452" lon="11.7864511"><ele>664.0</ele><time>2026-04-04T15:19:25.069Z</time></trkpt><trkpt lat="42.8954145" lon="11.7866359"><ele>665.0</ele><time>2026-04-04T15:19:26.061Z</time></trkpt><trkpt lat="42.8955919" lon="11.7868226"><ele>664.5</ele><time>2026-04-04T15:19:27.062Z</time></trkpt><trkpt lat="42.8957725" lon="11.7870222"><ele>664.0</ele><time>2026-04-04T15:19:28.067Z</time></trkpt><trkpt lat="42.8959544" lon="11.7872243"><ele>664.0</ele><time>2026-04-04T15:19:29.066Z</time></trkpt><trkpt lat="42.8961206" lon="11.7874101"><ele>664.0</ele><time>2026-04-04T15:19:30.066Z</time></trkpt><trkpt lat="42.8962663" lon="11.7875873"><ele>664.0</ele><time>2026-04-04T15:19:31.068Z</time></trkpt><trkpt lat="42.8964077" lon="11.7877807"><ele>662.0</ele><time>2026-04-04T15:19:32.083Z</time></trkpt><trkpt lat="42.8965419" lon="11.7879929"><ele>660.0</ele><time>2026-04-04T15:19:33.072Z</time></trkpt><trkpt lat="42.8966627" lon="11.7882052"><ele>658.0</ele><time>2026-04-04T15:19:34.053Z</time></trkpt><trkpt lat="42.8967858" lon="11.7884127"><ele>661.3333333333334</ele><time>2026-04-04T15:19:35.079Z</time></trkpt><trkpt lat="42.8969126" lon="11.7886368"><ele>664.6666666666666</ele><time>2026-04-04T15:19:36.063Z</time></trkpt><trkpt lat="42.8970363" lon="11.7888609"><ele>668.0</ele><time>2026-04-04T15:19:37.066Z</time></trkpt><trkpt lat="42.8971503" lon="11.7890736"><ele>668.0</ele><time>2026-04-04T15:19:38.053Z</time></trkpt><trkpt lat="42.8972463" lon="11.7892955"><ele>668.0</ele><time>2026-04-04T15:19:39.076Z</time></trkpt><trkpt lat="42.8973218" lon="11.7895408"><ele>668.0</ele><time>2026-04-04T15:19:40.066Z</time></trkpt><trkpt lat="42.8973897" lon="11.7898124"><ele>668.0</ele><time>2026-04-04T15:19:41.075Z</time></trkpt><trkpt lat="42.8974535" lon="11.7901097"><ele>668.0</ele><time>2026-04-04T15:19:42.069Z</time></trkpt><trkpt lat="42.8975165" lon="11.790416"><ele>667.3333333333333</ele><time>2026-04-04T15:19:43.072Z</time></trkpt><trkpt lat="42.8975747" lon="11.7907147"><ele>666.6666666666666</ele><time>2026-04-04T15:19:44.071Z</time></trkpt><trkpt lat="42.8976225" lon="11.790999"><ele>666.0</ele><time>2026-04-04T15:19:45.076Z</time></trkpt><trkpt lat="42.8976538" lon="11.7912712"><ele>662.0</ele><time>2026-04-04T15:19:46.066Z</time></trkpt><trkpt lat="42.8976805" lon="11.791525"><ele>658.0</ele><time>2026-04-04T15:19:47.073Z</time></trkpt><trkpt lat="42.8977298" lon="11.7917572"><ele>654.0</ele><time>2026-04-04T15:19:48.079Z</time></trkpt><trkpt lat="42.8978131" lon="11.7919836"><ele>652.6666666666666</ele><time>2026-04-04T15:19:49.071Z</time></trkpt><trkpt lat="42.897926" lon="11.7922183"><ele>651.3333333333333</ele><time>2026-04-04T15:19:50.072Z</time></trkpt><trkpt lat="42.8980424" lon="11.7924621"><ele>650.0</ele><time>2026-04-04T15:19:51.077Z</time></trkpt><trkpt lat="42.898159" lon="11.7927085"><ele>650.0</ele><time>2026-04-04T15:19:52.075Z</time></trkpt><trkpt lat="42.8982628" lon="11.7929452"><ele>650.0</ele><time>2026-04-04T15:19:53.058Z</time></trkpt><trkpt lat="42.8983601" lon="11.7931621"><ele>650.0</ele><time>2026-04-04T15:19:54.059Z</time></trkpt><trkpt lat="42.8984527" lon="11.7933601"><ele>648.3333333333333</ele><time>2026-04-04T15:19:55.073Z</time></trkpt><trkpt lat="42.8985442" lon="11.7935502"><ele>646.6666666666666</ele><time>2026-04-04T15:19:56.071Z</time></trkpt><trkpt lat="42.8986231" lon="11.7937349"><ele>645.0</ele><time>2026-04-04T15:19:57.072Z</time></trkpt><trkpt lat="42.8986846" lon="11.7939067"><ele>645.0</ele><time>2026-04-04T15:19:58.072Z</time></trkpt><trkpt lat="42.8987054" lon="11.7940762"><ele>645.0</ele><time>2026-04-04T15:19:59.059Z</time></trkpt><trkpt lat="42.898677" lon="11.7942576"><ele>645.0</ele><time>2026-04-04T15:20:00.06Z</time></trkpt><trkpt lat="42.8986021" lon="11.7944206"><ele>645.0</ele><time>2026-04-04T15:20:01.073Z</time></trkpt><trkpt lat="42.8985034" lon="11.7945571"><ele>641.3333333333334</ele><time>2026-04-04T15:20:02.065Z</time></trkpt><trkpt lat="42.8983652" lon="11.7946516"><ele>637.6666666666667</ele><time>2026-04-04T15:20:03.078Z</time></trkpt><trkpt lat="42.8981811" lon="11.7947123"><ele>634.0</ele><time>2026-04-04T15:20:04.072Z</time></trkpt><trkpt lat="42.8979937" lon="11.7947601"><ele>634.0</ele><time>2026-04-04T15:20:05.068Z</time></trkpt><trkpt lat="42.8978204" lon="11.7948214"><ele>634.0</ele><time>2026-04-04T15:20:06.075Z</time></trkpt><trkpt lat="42.897668" lon="11.7948753"><ele>634.0</ele><time>2026-04-04T15:20:07.065Z</time></trkpt><trkpt lat="42.8975382" lon="11.7949141"><ele>633.0</ele><time>2026-04-04T15:20:08.078Z</time></trkpt><trkpt lat="42.8974295" lon="11.7949706"><ele>632.0</ele><time>2026-04-04T15:20:09.055Z</time></trkpt><trkpt lat="42.8973514" lon="11.7950561"><ele>631.0</ele><time>2026-04-04T15:20:10.07Z</time></trkpt><trkpt lat="42.8973046" lon="11.7951788"><ele>630.0</ele><time>2026-04-04T15:20:11.059Z</time></trkpt><trkpt lat="42.897292" lon="11.7953389"><ele>629.0</ele><time>2026-04-04T15:20:12.068Z</time></trkpt><trkpt lat="42.8973201" lon="11.7955277"><ele>626.6666666666666</ele><time>2026-04-04T15:20:13.059Z</time></trkpt><trkpt lat="42.8973661" lon="11.7957533"><ele>624.3333333333334</ele><time>2026-04-04T15:20:14.065Z</time></trkpt><trkpt lat="42.8974065" lon="11.7959963"><ele>622.0</ele><time>2026-04-04T15:20:15.075Z</time></trkpt><trkpt lat="42.8974399" lon="11.7962206"><ele>620.3333333333334</ele><time>2026-04-04T15:20:16.071Z</time></trkpt><trkpt lat="42.8974764" lon="11.7964471"><ele>618.6666666666666</ele><time>2026-04-04T15:20:17.059Z</time></trkpt><trkpt lat="42.8975156" lon="11.7966654"><ele>617.0</ele><time>2026-04-04T15:20:18.07Z</time></trkpt><trkpt lat="42.8975702" lon="11.7968769"><ele>616.3333333333333</ele><time>2026-04-04T15:20:19.069Z</time></trkpt><trkpt lat="42.8976458" lon="11.7970794"><ele>615.6666666666666</ele><time>2026-04-04T15:20:20.069Z</time></trkpt><trkpt lat="42.8977496" lon="11.797257"><ele>615.0</ele><time>2026-04-04T15:20:21.076Z</time></trkpt><trkpt lat="42.8978637" lon="11.7973944"><ele>615.0</ele><time>2026-04-04T15:20:22.065Z</time></trkpt><trkpt lat="42.8979913" lon="11.7975148"><ele>615.0</ele><time>2026-04-04T15:20:23.068Z</time></trkpt><trkpt lat="42.8981185" lon="11.7976337"><ele>615.0</ele><time>2026-04-04T15:20:24.073Z</time></trkpt><trkpt lat="42.898262" lon="11.7977586"><ele>614.3333333333334</ele><time>2026-04-04T15:20:25.077Z</time></trkpt><trkpt lat="42.8984147" lon="11.7979096"><ele>613.6666666666667</ele><time>2026-04-04T15:20:26.075Z</time></trkpt><trkpt lat="42.8985697" lon="11.7980502"><ele>613.0</ele><time>2026-04-04T15:20:27.07Z</time></trkpt><trkpt lat="42.8987135" lon="11.7981847"><ele>613.0</ele><time>2026-04-04T15:20:28.072Z</time></trkpt><trkpt lat="42.8988531" lon="11.7983099"><ele>613.0</ele><time>2026-04-04T15:20:29.058Z</time></trkpt><trkpt lat="42.8989917" lon="11.798429"><ele>613.0</ele><time>2026-04-04T15:20:30.064Z</time></trkpt><trkpt lat="42.8991235" lon="11.7985488"><ele>611.75</ele><time>2026-04-04T15:20:31.066Z</time></trkpt><trkpt lat="42.8992476" lon="11.798663"><ele>610.5</ele><time>2026-04-04T15:20:32.069Z</time></trkpt><trkpt lat="42.8993688" lon="11.7987789"><ele>609.25</ele><time>2026-04-04T15:20:33.067Z</time></trkpt><trkpt lat="42.8994809" lon="11.7988935"><ele>608.0</ele><time>2026-04-04T15:20:34.075Z</time></trkpt><trkpt lat="42.8995807" lon="11.798992"><ele>608.0</ele><time>2026-04-04T15:20:35.058Z</time></trkpt><trkpt lat="42.8996637" lon="11.7990788"><ele>608.0</ele><time>2026-04-04T15:20:36.065Z</time></trkpt><trkpt lat="42.8997261" lon="11.7991509"><ele>608.0</ele><time>2026-04-04T15:20:37.069Z</time></trkpt><trkpt lat="42.8997491" lon="11.7992823"><ele>608.0</ele><time>2026-04-04T15:20:39.072Z</time></trkpt><trkpt lat="42.8996337" lon="11.7993447"><ele>608.0</ele><time>2026-04-04T15:20:41.06Z</time></trkpt><trkpt lat="42.8995555" lon="11.7993091"><ele>608.0</ele><time>2026-04-04T15:20:42.067Z</time></trkpt><trkpt lat="42.8994546" lon="11.7992892"><ele>608.0</ele><time>2026-04-04T15:20:43.065Z</time></trkpt><trkpt lat="42.8993266" lon="11.7992849"><ele>608.0</ele><time>2026-04-04T15:20:44.065Z</time></trkpt><trkpt lat="42.8991817" lon="11.7992975"><ele>608.0</ele><time>2026-04-04T15:20:45.074Z</time></trkpt><trkpt lat="42.8990347" lon="11.7993307"><ele>604.3333333333333</ele><time>2026-04-04T15:20:46.062Z</time></trkpt><trkpt lat="42.8988919" lon="11.7993801"><ele>600.6666666666666</ele><time>2026-04-04T15:20:47.063Z</time></trkpt><trkpt lat="42.8987427" lon="11.7994446"><ele>597.0</ele><time>2026-04-04T15:20:48.067Z</time></trkpt><trkpt lat="42.898585" lon="11.7995208"><ele>596.6666666666666</ele><time>2026-04-04T15:20:49.059Z</time></trkpt><trkpt lat="42.8984126" lon="11.7995953"><ele>596.3333333333333</ele><time>2026-04-04T15:20:50.068Z</time></trkpt><trkpt lat="42.8982472" lon="11.7996586"><ele>596.0</ele><time>2026-04-04T15:20:51.057Z</time></trkpt><trkpt lat="42.8980935" lon="11.7997184"><ele>596.0</ele><time>2026-04-04T15:20:52.052Z</time></trkpt><trkpt lat="42.8979354" lon="11.79976"><ele>596.0</ele><time>2026-04-04T15:20:53.057Z</time></trkpt><trkpt lat="42.897773" lon="11.7997694"><ele>596.0</ele><time>2026-04-04T15:20:54.079Z</time></trkpt><trkpt lat="42.8975867" lon="11.7997426"><ele>594.6666666666666</ele><time>2026-04-04T15:20:55.06Z</time></trkpt><trkpt lat="42.8973913" lon="11.7996909"><ele>593.3333333333334</ele><time>2026-04-04T15:20:56.076Z</time></trkpt><trkpt lat="42.8971945" lon="11.7996178"><ele>592.0</ele><time>2026-04-04T15:20:57.06Z</time></trkpt><trkpt lat="42.8970135" lon="11.7995455"><ele>592.0</ele><time>2026-04-04T15:20:58.065Z</time></trkpt><trkpt lat="42.8968392" lon="11.7994784"><ele>592.0</ele><time>2026-04-04T15:20:59.063Z</time></trkpt><trkpt lat="42.8966716" lon="11.7994201"><ele>592.0</ele><time>2026-04-04T15:21:00.061Z</time></trkpt><trkpt lat="42.8965185" lon="11.7993647"><ele>592.5</ele><time>2026-04-04T15:21:01.052Z</time></trkpt><trkpt lat="42.896374" lon="11.7993116"><ele>593.0</ele><time>2026-04-04T15:21:02.067Z</time></trkpt><trkpt lat="42.8962545" lon="11.7992626"><ele>593.5</ele><time>2026-04-04T15:21:03.066Z</time></trkpt><trkpt lat="42.8961405" lon="11.7992313"><ele>594.0</ele><time>2026-04-04T15:21:04.075Z</time></trkpt><trkpt lat="42.8960238" lon="11.7992421"><ele>594.0</ele><time>2026-04-04T15:21:05.073Z</time></trkpt><trkpt lat="42.8959281" lon="11.799301"><ele>594.0</ele><time>2026-04-04T15:21:06.059Z</time></trkpt><trkpt lat="42.8958553" lon="11.7993891"><ele>594.0</ele><time>2026-04-04T15:21:07.059Z</time></trkpt><trkpt lat="42.8958085" lon="11.7995011"><ele>594.0</ele><time>2026-04-04T15:21:08.053Z</time></trkpt><trkpt lat="42.8957833" lon="11.7996376"><ele>594.0</ele><time>2026-04-04T15:21:09.068Z</time></trkpt><trkpt lat="42.8957902" lon="11.7997625"><ele>591.5</ele><time>2026-04-04T15:21:10.065Z</time></trkpt><trkpt lat="42.89583" lon="11.7998719"><ele>589.0</ele><time>2026-04-04T15:21:11.071Z</time></trkpt><trkpt lat="42.8959003" lon="11.7999891"><ele>586.5</ele><time>2026-04-04T15:21:12.064Z</time></trkpt><trkpt lat="42.8960115" lon="11.8000734"><ele>584.0</ele><time>2026-04-04T15:21:13.062Z</time></trkpt><trkpt lat="42.8961507" lon="11.8001284"><ele>580.3333333333333</ele><time>2026-04-04T15:21:14.06Z</time></trkpt><trkpt lat="42.8963089" lon="11.8001718"><ele>576.6666666666666</ele><time>2026-04-04T15:21:15.056Z</time></trkpt><trkpt lat="42.8964632" lon="11.8002227"><ele>573.0</ele><time>2026-04-04T15:21:16.059Z</time></trkpt><trkpt lat="42.8966031" lon="11.8002863"><ele>573.0</ele><time>2026-04-04T15:21:17.062Z</time></trkpt><trkpt lat="42.8967233" lon="11.8003866"><ele>573.0</ele><time>2026-04-04T15:21:18.066Z</time></trkpt><trkpt lat="42.8968273" lon="11.8005161"><ele>573.0</ele><time>2026-04-04T15:21:19.063Z</time></trkpt><trkpt lat="42.8969192" lon="11.8007042"><ele>573.0</ele><time>2026-04-04T15:21:20.059Z</time></trkpt><trkpt lat="42.8970016" lon="11.8009197"><ele>571.3333333333334</ele><time>2026-04-04T15:21:21.056Z</time></trkpt><trkpt lat="42.8970793" lon="11.8011342"><ele>569.6666666666667</ele><time>2026-04-04T15:21:22.067Z</time></trkpt><trkpt lat="42.8971594" lon="11.801323"><ele>568.0</ele><time>2026-04-04T15:21:23.06Z</time></trkpt><trkpt lat="42.897243" lon="11.801476"><ele>568.0</ele><time>2026-04-04T15:21:24.059Z</time></trkpt><trkpt lat="42.897357" lon="11.8015891"><ele>568.0</ele><time>2026-04-04T15:21:25.062Z</time></trkpt><trkpt lat="42.897499" lon="11.801701"><ele>568.0</ele><time>2026-04-04T15:21:26.05Z</time></trkpt><trkpt lat="42.8976585" lon="11.8017958"><ele>565.6666666666667</ele><time>2026-04-04T15:21:27.072Z</time></trkpt><trkpt lat="42.8978135" lon="11.8018804"><ele>563.3333333333334</ele><time>2026-04-04T15:21:28.062Z</time></trkpt><trkpt lat="42.8979591" lon="11.8019666"><ele>561.0</ele><time>2026-04-04T15:21:29.059Z</time></trkpt><trkpt lat="42.8980934" lon="11.8020454"><ele>561.0</ele><time>2026-04-04T15:21:30.066Z</time></trkpt><trkpt lat="42.8982146" lon="11.802116"><ele>561.0</ele><time>2026-04-04T15:21:31.056Z</time></trkpt><trkpt lat="42.8983201" lon="11.8021796"><ele>561.0</ele><time>2026-04-04T15:21:32.054Z</time></trkpt><trkpt lat="42.8984061" lon="11.8022709"><ele>561.0</ele><time>2026-04-04T15:21:33.063Z</time></trkpt><trkpt lat="42.8984512" lon="11.8023911"><ele>562.25</ele><time>2026-04-04T15:21:34.057Z</time></trkpt><trkpt lat="42.8984669" lon="11.8025335"><ele>563.5</ele><time>2026-04-04T15:21:35.051Z</time></trkpt><trkpt lat="42.8984421" lon="11.8026732"><ele>564.75</ele><time>2026-04-04T15:21:36.066Z</time></trkpt><trkpt lat="42.8983753" lon="11.8027893"><ele>566.0</ele><time>2026-04-04T15:21:37.064Z</time></trkpt><trkpt lat="42.8982807" lon="11.8029167"><ele>566.0</ele><time>2026-04-04T15:21:38.052Z</time></trkpt><trkpt lat="42.8981724" lon="11.8030422"><ele>566.0</ele><time>2026-04-04T15:21:39.052Z</time></trkpt><trkpt lat="42.8980546" lon="11.8031968"><ele>566.0</ele><time>2026-04-04T15:21:40.061Z</time></trkpt><trkpt lat="42.8979319" lon="11.8033782"><ele>569.6666666666666</ele><time>2026-04-04T15:21:41.058Z</time></trkpt><trkpt lat="42.8978243" lon="11.8036088"><ele>573.3333333333334</ele><time>2026-04-04T15:21:42.062Z</time></trkpt><trkpt lat="42.8977342" lon="11.8038686"><ele>577.0</ele><time>2026-04-04T15:21:43.06Z</time></trkpt><trkpt lat="42.8976525" lon="11.8041367"><ele>572.0</ele><time>2026-04-04T15:21:44.054Z</time></trkpt><trkpt lat="42.8975731" lon="11.8043883"><ele>567.0</ele><time>2026-04-04T15:21:45.074Z</time></trkpt><trkpt lat="42.897499" lon="11.8046095"><ele>562.0</ele><time>2026-04-04T15:21:46.056Z</time></trkpt><trkpt lat="42.8974322" lon="11.8048121"><ele>562.0</ele><time>2026-04-04T15:21:47.053Z</time></trkpt><trkpt lat="42.8973596" lon="11.804992"><ele>562.0</ele><time>2026-04-04T15:21:48.057Z</time></trkpt><trkpt lat="42.8972585" lon="11.8051326"><ele>562.0</ele><time>2026-04-04T15:21:49.064Z</time></trkpt><trkpt lat="42.8971338" lon="11.8052334"><ele>562.0</ele><time>2026-04-04T15:21:50.055Z</time></trkpt><trkpt lat="42.8969737" lon="11.8053199"><ele>561.3333333333334</ele><time>2026-04-04T15:21:51.063Z</time></trkpt><trkpt lat="42.8968074" lon="11.8054273"><ele>560.6666666666666</ele><time>2026-04-04T15:21:52.064Z</time></trkpt><trkpt lat="42.8966432" lon="11.8055964"><ele>560.0</ele><time>2026-04-04T15:21:53.054Z</time></trkpt><trkpt lat="42.896485" lon="11.8058111"><ele>564.6666666666666</ele><time>2026-04-04T15:21:54.063Z</time></trkpt><trkpt lat="42.8963283" lon="11.8060156"><ele>569.3333333333334</ele><time>2026-04-04T15:21:55.063Z</time></trkpt><trkpt lat="42.8961757" lon="11.8061804"><ele>574.0</ele><time>2026-04-04T15:21:56.064Z</time></trkpt><trkpt lat="42.8960142" lon="11.8063191"><ele>569.6666666666667</ele><time>2026-04-04T15:21:57.057Z</time></trkpt><trkpt lat="42.8958333" lon="11.8064332"><ele>565.3333333333334</ele><time>2026-04-04T15:21:58.054Z</time></trkpt><trkpt lat="42.8956306" lon="11.80651"><ele>561.0</ele><time>2026-04-04T15:21:59.055Z</time></trkpt><trkpt lat="42.8954118" lon="11.8065906"><ele>561.0</ele><time>2026-04-04T15:22:00.05Z</time></trkpt><trkpt lat="42.8951856" lon="11.8066704"><ele>561.0</ele><time>2026-04-04T15:22:01.056Z</time></trkpt><trkpt lat="42.894972" lon="11.8067439"><ele>561.3333333333334</ele><time>2026-04-04T15:22:02.058Z</time></trkpt><trkpt lat="42.8947745" lon="11.8068138"><ele>561.6666666666667</ele><time>2026-04-04T15:22:03.06Z</time></trkpt><trkpt lat="42.8945863" lon="11.8068796"><ele>562.0</ele><time>2026-04-04T15:22:04.06Z</time></trkpt><trkpt lat="42.8944103" lon="11.8069497"><ele>558.3333333333334</ele><time>2026-04-04T15:22:05.056Z</time></trkpt><trkpt lat="42.8942443" lon="11.8070371"><ele>554.6666666666666</ele><time>2026-04-04T15:22:06.063Z</time></trkpt><trkpt lat="42.8940954" lon="11.8071386"><ele>551.0</ele><time>2026-04-04T15:22:07.073Z</time></trkpt><trkpt lat="42.8939532" lon="11.8072637"><ele>551.0</ele><time>2026-04-04T15:22:08.056Z</time></trkpt><trkpt lat="42.8938085" lon="11.8074176"><ele>551.0</ele><time>2026-04-04T15:22:09.061Z</time></trkpt><trkpt lat="42.8936573" lon="11.8076086"><ele>551.0</ele><time>2026-04-04T15:22:10.052Z</time></trkpt><trkpt lat="42.893493" lon="11.807826"><ele>547.5</ele><time>2026-04-04T15:22:11.063Z</time></trkpt><trkpt lat="42.8933217" lon="11.8080503"><ele>544.0</ele><time>2026-04-04T15:22:12.055Z</time></trkpt><trkpt lat="42.8931629" lon="11.8082718"><ele>544.0</ele><time>2026-04-04T15:22:13.074Z</time></trkpt><trkpt lat="42.8930083" lon="11.8084803"><ele>544.0</ele><time>2026-04-04T15:22:14.059Z</time></trkpt><trkpt lat="42.8928536" lon="11.8086793"><ele>544.0</ele><time>2026-04-04T15:22:15.058Z</time></trkpt><trkpt lat="42.8927054" lon="11.8088795"><ele>541.3333333333334</ele><time>2026-04-04T15:22:16.061Z</time></trkpt><trkpt lat="42.892559" lon="11.8090764"><ele>538.6666666666666</ele><time>2026-04-04T15:22:17.056Z</time></trkpt><trkpt lat="42.892412" lon="11.8092811"><ele>536.0</ele><time>2026-04-04T15:22:18.062Z</time></trkpt><trkpt lat="42.892251" lon="11.8095013"><ele>533.0</ele><time>2026-04-04T15:22:19.06Z</time></trkpt><trkpt lat="42.8920879" lon="11.8097277"><ele>530.0</ele><time>2026-04-04T15:22:20.053Z</time></trkpt><trkpt lat="42.8919356" lon="11.8099329"><ele>527.0</ele><time>2026-04-04T15:22:21.056Z</time></trkpt><trkpt lat="42.891789" lon="11.8101245"><ele>525.0</ele><time>2026-04-04T15:22:22.054Z</time></trkpt><trkpt lat="42.8916487" lon="11.8103067"><ele>523.0</ele><time>2026-04-04T15:22:23.063Z</time></trkpt><trkpt lat="42.8915157" lon="11.8104765"><ele>521.0</ele><time>2026-04-04T15:22:24.061Z</time></trkpt><trkpt lat="42.8913917" lon="11.8106449"><ele>521.0</ele><time>2026-04-04T15:22:25.058Z</time></trkpt><trkpt lat="42.8912543" lon="11.8107765"><ele>521.0</ele><time>2026-04-04T15:22:26.074Z</time></trkpt><trkpt lat="42.8910982" lon="11.8108682"><ele>521.0</ele><time>2026-04-04T15:22:27.066Z</time></trkpt><trkpt lat="42.8909311" lon="11.8108951"><ele>521.0</ele><time>2026-04-04T15:22:28.07Z</time></trkpt><trkpt lat="42.8907692" lon="11.8108912"><ele>521.0</ele><time>2026-04-04T15:22:29.063Z</time></trkpt><trkpt lat="42.8906335" lon="11.8108575"><ele>521.0</ele><time>2026-04-04T15:22:30.06Z</time></trkpt><trkpt lat="42.8905031" lon="11.8107647"><ele>521.0</ele><time>2026-04-04T15:22:31.059Z</time></trkpt><trkpt lat="42.8903787" lon="11.8106471"><ele>521.0</ele><time>2026-04-04T15:22:32.061Z</time></trkpt><trkpt lat="42.8902548" lon="11.810558"><ele>521.0</ele><time>2026-04-04T15:22:33.057Z</time></trkpt><trkpt lat="42.8901279" lon="11.810509"><ele>521.0</ele><time>2026-04-04T15:22:34.061Z</time></trkpt><trkpt lat="42.8900048" lon="11.8105061"><ele>521.0</ele><time>2026-04-04T15:22:35.048Z</time></trkpt><trkpt lat="42.8898711" lon="11.8105569"><ele>518.0</ele><time>2026-04-04T15:22:36.055Z</time></trkpt><trkpt lat="42.8897454" lon="11.8106394"><ele>515.0</ele><time>2026-04-04T15:22:37.06Z</time></trkpt><trkpt lat="42.889625" lon="11.8107658"><ele>512.0</ele><time>2026-04-04T15:22:38.063Z</time></trkpt><trkpt lat="42.8895052" lon="11.8109107"><ele>509.0</ele><time>2026-04-04T15:22:39.06Z</time></trkpt><trkpt lat="42.8893789" lon="11.8110938"><ele>506.0</ele><time>2026-04-04T15:22:40.063Z</time></trkpt><trkpt lat="42.8892448" lon="11.8112827"><ele>503.0</ele><time>2026-04-04T15:22:41.064Z</time></trkpt><trkpt lat="42.8891029" lon="11.8114891"><ele>503.0</ele><time>2026-04-04T15:22:42.059Z</time></trkpt><trkpt lat="42.8889531" lon="11.8117081"><ele>503.0</ele><time>2026-04-04T15:22:43.067Z</time></trkpt><trkpt lat="42.8888073" lon="11.8119252"><ele>503.0</ele><time>2026-04-04T15:22:44.056Z</time></trkpt><trkpt lat="42.8886698" lon="11.8121348"><ele>501.66666666666663</ele><time>2026-04-04T15:22:45.078Z</time></trkpt><trkpt lat="42.8885343" lon="11.8123313"><ele>500.33333333333337</ele><time>2026-04-04T15:22:46.056Z</time></trkpt><trkpt lat="42.8884019" lon="11.812513"><ele>499.0</ele><time>2026-04-04T15:22:47.071Z</time></trkpt><trkpt lat="42.888267" lon="11.8126874"><ele>496.33333333333337</ele><time>2026-04-04T15:22:48.069Z</time></trkpt><trkpt lat="42.8881157" lon="11.8128566"><ele>493.66666666666663</ele><time>2026-04-04T15:22:49.073Z</time></trkpt><trkpt lat="42.8879558" lon="11.8130191"><ele>491.0</ele><time>2026-04-04T15:22:50.067Z</time></trkpt><trkpt lat="42.8878079" lon="11.8131754"><ele>491.0</ele><time>2026-04-04T15:22:51.061Z</time></trkpt><trkpt lat="42.8876796" lon="11.813319"><ele>491.0</ele><time>2026-04-04T15:22:52.064Z</time></trkpt><trkpt lat="42.8875484" lon="11.8134236"><ele>491.0</ele><time>2026-04-04T15:22:53.074Z</time></trkpt><trkpt lat="42.8874105" lon="11.8134811"><ele>492.0</ele><time>2026-04-04T15:22:54.076Z</time></trkpt><trkpt lat="42.8872639" lon="11.8134646"><ele>493.0</ele><time>2026-04-04T15:22:55.072Z</time></trkpt><trkpt lat="42.8871129" lon="11.8134169"><ele>494.0</ele><time>2026-04-04T15:22:56.063Z</time></trkpt><trkpt lat="42.8869422" lon="11.8133511"><ele>494.0</ele><time>2026-04-04T15:22:57.058Z</time></trkpt><trkpt lat="42.8867612" lon="11.8132852"><ele>494.0</ele><time>2026-04-04T15:22:58.057Z</time></trkpt><trkpt lat="42.8865877" lon="11.8132299"><ele>494.0</ele><time>2026-04-04T15:22:59.064Z</time></trkpt><trkpt lat="42.886425" lon="11.8131999"><ele>493.0</ele><time>2026-04-04T15:23:00.071Z</time></trkpt><trkpt lat="42.8862536" lon="11.8132294"><ele>492.0</ele><time>2026-04-04T15:23:01.061Z</time></trkpt><trkpt lat="42.8860722" lon="11.8132906"><ele>491.0</ele><time>2026-04-04T15:23:02.048Z</time></trkpt><trkpt lat="42.8858927" lon="11.813351"><ele>491.5</ele><time>2026-04-04T15:23:03.06Z</time></trkpt><trkpt lat="42.8857422" lon="11.8134054"><ele>492.0</ele><time>2026-04-04T15:23:04.061Z</time></trkpt><trkpt lat="42.885606" lon="11.8134652"><ele>492.5</ele><time>2026-04-04T15:23:05.052Z</time></trkpt><trkpt lat="42.8854845" lon="11.8135516"><ele>493.0</ele><time>2026-04-04T15:23:06.066Z</time></trkpt><trkpt lat="42.8853783" lon="11.8136675"><ele>493.0</ele><time>2026-04-04T15:23:07.067Z</time></trkpt><trkpt lat="42.8852921" lon="11.8138291"><ele>493.0</ele><time>2026-04-04T15:23:08.076Z</time></trkpt><trkpt lat="42.8852278" lon="11.8140375"><ele>493.0</ele><time>2026-04-04T15:23:09.059Z</time></trkpt><trkpt lat="42.8851811" lon="11.8142655"><ele>491.33333333333337</ele><time>2026-04-04T15:23:10.06Z</time></trkpt><trkpt lat="42.8851237" lon="11.8145075"><ele>489.66666666666663</ele><time>2026-04-04T15:23:11.071Z</time></trkpt><trkpt lat="42.8850589" lon="11.814762"><ele>488.0</ele><time>2026-04-04T15:23:12.063Z</time></trkpt><trkpt lat="42.8849928" lon="11.8150111"><ele>482.0</ele><time>2026-04-04T15:23:13.065Z</time></trkpt><trkpt lat="42.8849437" lon="11.8152738"><ele>476.0</ele><time>2026-04-04T15:23:14.071Z</time></trkpt><trkpt lat="42.8849031" lon="11.8155492"><ele>470.0</ele><time>2026-04-04T15:23:15.066Z</time></trkpt><trkpt lat="42.8848772" lon="11.8158508"><ele>468.66666666666663</ele><time>2026-04-04T15:23:16.064Z</time></trkpt><trkpt lat="42.8848536" lon="11.8161572"><ele>467.33333333333337</ele><time>2026-04-04T15:23:17.065Z</time></trkpt><trkpt lat="42.8848266" lon="11.8164252"><ele>466.0</ele><time>2026-04-04T15:23:18.06Z</time></trkpt><trkpt lat="42.8848024" lon="11.8166685"><ele>464.25</ele><time>2026-04-04T15:23:19.054Z</time></trkpt><trkpt lat="42.8847882" lon="11.8168849"><ele>462.5</ele><time>2026-04-04T15:23:20.056Z</time></trkpt><trkpt lat="42.8847774" lon="11.8170679"><ele>460.75</ele><time>2026-04-04T15:23:21.056Z</time></trkpt><trkpt lat="42.8847701" lon="11.8172262"><ele>459.0</ele><time>2026-04-04T15:23:22.071Z</time></trkpt><trkpt lat="42.884793" lon="11.8173816"><ele>459.0</ele><time>2026-04-04T15:23:23.063Z</time></trkpt><trkpt lat="42.884837" lon="11.8175188"><ele>459.0</ele><time>2026-04-04T15:23:24.068Z</time></trkpt><trkpt lat="42.8849111" lon="11.8176247"><ele>459.0</ele><time>2026-04-04T15:23:25.057Z</time></trkpt><trkpt lat="42.8850222" lon="11.8176977"><ele>459.0</ele><time>2026-04-04T15:23:26.073Z</time></trkpt><trkpt lat="42.885125" lon="11.8176991"><ele>459.0</ele><time>2026-04-04T15:23:27.052Z</time></trkpt><trkpt lat="42.8852271" lon="11.8176576"><ele>456.75</ele><time>2026-04-04T15:23:28.071Z</time></trkpt><trkpt lat="42.8853405" lon="11.8175842"><ele>454.5</ele><time>2026-04-04T15:23:29.074Z</time></trkpt><trkpt lat="42.8854544" lon="11.8174648"><ele>452.25</ele><time>2026-04-04T15:23:30.059Z</time></trkpt><trkpt lat="42.8855725" lon="11.8173081"><ele>450.0</ele><time>2026-04-04T15:23:31.064Z</time></trkpt><trkpt lat="42.885694" lon="11.8171388"><ele>450.0</ele><time>2026-04-04T15:23:32.058Z</time></trkpt><trkpt lat="42.8858097" lon="11.8169814"><ele>450.0</ele><time>2026-04-04T15:23:33.065Z</time></trkpt><trkpt lat="42.8859292" lon="11.8168483"><ele>450.0</ele><time>2026-04-04T15:23:34.069Z</time></trkpt><trkpt lat="42.8860441" lon="11.8167545"><ele>449.75</ele><time>2026-04-04T15:23:35.068Z</time></trkpt><trkpt lat="42.8861535" lon="11.816709"><ele>449.5</ele><time>2026-04-04T15:23:36.064Z</time></trkpt><trkpt lat="42.8862768" lon="11.8167081"><ele>449.25</ele><time>2026-04-04T15:23:37.064Z</time></trkpt><trkpt lat="42.8864033" lon="11.816762"><ele>449.0</ele><time>2026-04-04T15:23:38.062Z</time></trkpt><trkpt lat="42.8865434" lon="11.816847"><ele>445.66666666666663</ele><time>2026-04-04T15:23:39.053Z</time></trkpt><trkpt lat="42.886705" lon="11.8169543"><ele>442.33333333333337</ele><time>2026-04-04T15:23:40.058Z</time></trkpt><trkpt lat="42.8868605" lon="11.8170658"><ele>439.0</ele><time>2026-04-04T15:23:41.07Z</time></trkpt><trkpt lat="42.887006" lon="11.8171746"><ele>438.33333333333337</ele><time>2026-04-04T15:23:42.08Z</time></trkpt><trkpt lat="42.8871495" lon="11.8172781"><ele>437.66666666666663</ele><time>2026-04-04T15:23:43.053Z</time></trkpt><trkpt lat="42.887292" lon="11.8173712"><ele>437.0</ele><time>2026-04-04T15:23:44.073Z</time></trkpt><trkpt lat="42.887424" lon="11.8174744"><ele>437.0</ele><time>2026-04-04T15:23:45.062Z</time></trkpt><trkpt lat="42.8875345" lon="11.8176016"><ele>437.0</ele><time>2026-04-04T15:23:46.05Z</time></trkpt><trkpt lat="42.887617" lon="11.8177694"><ele>437.0</ele><time>2026-04-04T15:23:47.059Z</time></trkpt><trkpt lat="42.8876653" lon="11.8179586"><ele>437.0</ele><time>2026-04-04T15:23:48.058Z</time></trkpt><trkpt lat="42.8876747" lon="11.818164"><ele>434.3333333333333</ele><time>2026-04-04T15:23:49.07Z</time></trkpt><trkpt lat="42.8876496" lon="11.8183533"><ele>431.66666666666663</ele><time>2026-04-04T15:23:50.07Z</time></trkpt><trkpt lat="42.8875815" lon="11.8185426"><ele>429.0</ele><time>2026-04-04T15:23:51.052Z</time></trkpt><trkpt lat="42.887481" lon="11.8187049"><ele>427.66666666666663</ele><time>2026-04-04T15:23:52.067Z</time></trkpt><trkpt lat="42.8873486" lon="11.8188727"><ele>426.3333333333333</ele><time>2026-04-04T15:23:53.064Z</time></trkpt><trkpt lat="42.8872063" lon="11.8190619"><ele>425.0</ele><time>2026-04-04T15:23:54.063Z</time></trkpt><trkpt lat="42.8870633" lon="11.8192563"><ele>422.3333333333333</ele><time>2026-04-04T15:23:55.061Z</time></trkpt><trkpt lat="42.8869234" lon="11.8194582"><ele>419.66666666666663</ele><time>2026-04-04T15:23:56.065Z</time></trkpt><trkpt lat="42.8867881" lon="11.8196557"><ele>417.0</ele><time>2026-04-04T15:23:57.054Z</time></trkpt><trkpt lat="42.8866601" lon="11.8198502"><ele>416.33333333333337</ele><time>2026-04-04T15:23:58.057Z</time></trkpt><trkpt lat="42.8865386" lon="11.8200283"><ele>415.6666666666667</ele><time>2026-04-04T15:23:59.058Z</time></trkpt><trkpt lat="42.8864344" lon="11.8201969"><ele>415.0</ele><time>2026-04-04T15:24:00.066Z</time></trkpt><trkpt lat="42.8863631" lon="11.8203873"><ele>414.0</ele><time>2026-04-04T15:24:01.053Z</time></trkpt><trkpt lat="42.8863307" lon="11.820594"><ele>413.0</ele><time>2026-04-04T15:24:02.058Z</time></trkpt><trkpt lat="42.8863171" lon="11.8208385"><ele>412.0</ele><time>2026-04-04T15:24:03.074Z</time></trkpt><trkpt lat="42.8863048" lon="11.8211124"><ele>409.6666666666667</ele><time>2026-04-04T15:24:04.075Z</time></trkpt><trkpt lat="42.886284" lon="11.8213878"><ele>407.33333333333337</ele><time>2026-04-04T15:24:05.075Z</time></trkpt><trkpt lat="42.8862506" lon="11.8216743"><ele>405.0</ele><time>2026-04-04T15:24:06.075Z</time></trkpt><trkpt lat="42.8862246" lon="11.8219971"><ele>403.33333333333337</ele><time>2026-04-04T15:24:07.069Z</time></trkpt><trkpt lat="42.8862001" lon="11.8222983"><ele>401.6666666666667</ele><time>2026-04-04T15:24:08.072Z</time></trkpt><trkpt lat="42.8861729" lon="11.8225557"><ele>400.0</ele><time>2026-04-04T15:24:09.06Z</time></trkpt><trkpt lat="42.8861371" lon="11.822782"><ele>399.5</ele><time>2026-04-04T15:24:10.061Z</time></trkpt><trkpt lat="42.8860678" lon="11.8229397"><ele>399.0</ele><time>2026-04-04T15:24:11.065Z</time></trkpt><trkpt lat="42.8859622" lon="11.823052"><ele>398.5</ele><time>2026-04-04T15:24:12.071Z</time></trkpt><trkpt lat="42.8858223" lon="11.8231628"><ele>398.0</ele><time>2026-04-04T15:24:13.063Z</time></trkpt><trkpt lat="42.8856666" lon="11.8232826"><ele>398.0</ele><time>2026-04-04T15:24:14.061Z</time></trkpt><trkpt lat="42.8855104" lon="11.823422"><ele>398.0</ele><time>2026-04-04T15:24:15.065Z</time></trkpt><trkpt lat="42.8853356" lon="11.8235606"><ele>398.0</ele><time>2026-04-04T15:24:16.064Z</time></trkpt><trkpt lat="42.8851514" lon="11.8237141"><ele>395.66666666666663</ele><time>2026-04-04T15:24:17.061Z</time></trkpt><trkpt lat="42.8849623" lon="11.823872"><ele>393.33333333333337</ele><time>2026-04-04T15:24:18.055Z</time></trkpt><trkpt lat="42.8847852" lon="11.8240263"><ele>391.0</ele><time>2026-04-04T15:24:19.076Z</time></trkpt><trkpt lat="42.8846109" lon="11.8241689"><ele>391.0</ele><time>2026-04-04T15:24:20.058Z</time></trkpt><trkpt lat="42.8844336" lon="11.8242768"><ele>391.0</ele><time>2026-04-04T15:24:21.059Z</time></trkpt><trkpt lat="42.8842457" lon="11.8243388"><ele>391.0</ele><time>2026-04-04T15:24:22.055Z</time></trkpt><trkpt lat="42.8840433" lon="11.8243371"><ele>386.6666666666667</ele><time>2026-04-04T15:24:23.051Z</time></trkpt><trkpt lat="42.8838388" lon="11.8243309"><ele>382.33333333333337</ele><time>2026-04-04T15:24:24.055Z</time></trkpt><trkpt lat="42.8836547" lon="11.8243184"><ele>378.0</ele><time>2026-04-04T15:24:25.061Z</time></trkpt><trkpt lat="42.8834892" lon="11.8243153"><ele>377.0</ele><time>2026-04-04T15:24:26.051Z</time></trkpt><trkpt lat="42.8833147" lon="11.8243423"><ele>376.0</ele><time>2026-04-04T15:24:27.072Z</time></trkpt><trkpt lat="42.883128" lon="11.8244055"><ele>375.0</ele><time>2026-04-04T15:24:28.056Z</time></trkpt><trkpt lat="42.8829318" lon="11.8244739"><ele>375.0</ele><time>2026-04-04T15:24:29.053Z</time></trkpt><trkpt lat="42.8827173" lon="11.8245407"><ele>375.0</ele><time>2026-04-04T15:24:30.056Z</time></trkpt><trkpt lat="42.8825037" lon="11.8246096"><ele>375.0</ele><time>2026-04-04T15:24:31.053Z</time></trkpt><trkpt lat="42.8823051" lon="11.8246799"><ele>375.3333333333333</ele><time>2026-04-04T15:24:32.059Z</time></trkpt><trkpt lat="42.8821304" lon="11.8247449"><ele>375.66666666666663</ele><time>2026-04-04T15:24:33.052Z</time></trkpt><trkpt lat="42.8819785" lon="11.8248021"><ele>376.0</ele><time>2026-04-04T15:24:34.064Z</time></trkpt><trkpt lat="42.8818482" lon="11.824855"><ele>376.5</ele><time>2026-04-04T15:24:35.051Z</time></trkpt><trkpt lat="42.8817416" lon="11.8249193"><ele>377.0</ele><time>2026-04-04T15:24:36.064Z</time></trkpt><trkpt lat="42.8816632" lon="11.8250302"><ele>377.5</ele><time>2026-04-04T15:24:37.057Z</time></trkpt><trkpt lat="42.8816241" lon="11.8251904"><ele>378.0</ele><time>2026-04-04T15:24:38.054Z</time></trkpt><trkpt lat="42.8815883" lon="11.8253584"><ele>379.25</ele><time>2026-04-04T15:24:39.053Z</time></trkpt><trkpt lat="42.8815537" lon="11.8255041"><ele>380.5</ele><time>2026-04-04T15:24:40.056Z</time></trkpt><trkpt lat="42.8815082" lon="11.8256427"><ele>381.75</ele><time>2026-04-04T15:24:41.064Z</time></trkpt><trkpt lat="42.881439" lon="11.8257564"><ele>383.0</ele><time>2026-04-04T15:24:42.056Z</time></trkpt><trkpt lat="42.8813453" lon="11.8258602"><ele>383.0</ele><time>2026-04-04T15:24:43.062Z</time></trkpt><trkpt lat="42.8812041" lon="11.8259196"><ele>383.0</ele><time>2026-04-04T15:24:44.066Z</time></trkpt><trkpt lat="42.8810434" lon="11.8259135"><ele>383.0</ele><time>2026-04-04T15:24:45.081Z</time></trkpt><trkpt lat="42.8808753" lon="11.8258888"><ele>379.6666666666667</ele><time>2026-04-04T15:24:46.056Z</time></trkpt><trkpt lat="42.8806748" lon="11.8258487"><ele>376.3333333333333</ele><time>2026-04-04T15:24:47.065Z</time></trkpt><trkpt lat="42.8804646" lon="11.8258085"><ele>373.0</ele><time>2026-04-04T15:24:48.055Z</time></trkpt><trkpt lat="42.8802333" lon="11.8257737"><ele>372.66666666666663</ele><time>2026-04-04T15:24:49.063Z</time></trkpt><trkpt lat="42.8800101" lon="11.8257458"><ele>372.3333333333333</ele><time>2026-04-04T15:24:50.055Z</time></trkpt><trkpt lat="42.8797931" lon="11.8257368"><ele>372.0</ele><time>2026-04-04T15:24:51.051Z</time></trkpt><trkpt lat="42.8795779" lon="11.8257491"><ele>372.0</ele><time>2026-04-04T15:24:52.059Z</time></trkpt><trkpt lat="42.8793471" lon="11.8257662"><ele>372.0</ele><time>2026-04-04T15:24:53.051Z</time></trkpt><trkpt lat="42.8791073" lon="11.8257673"><ele>371.0</ele><time>2026-04-04T15:24:54.057Z</time></trkpt><trkpt lat="42.8788649" lon="11.825772"><ele>370.0</ele><time>2026-04-04T15:24:55.061Z</time></trkpt><trkpt lat="42.8786383" lon="11.8257738"><ele>370.0</ele><time>2026-04-04T15:24:56.065Z</time></trkpt><trkpt lat="42.8784389" lon="11.8257875"><ele>370.0</ele><time>2026-04-04T15:24:57.064Z</time></trkpt><trkpt lat="42.8782593" lon="11.8258023"><ele>370.0</ele><time>2026-04-04T15:24:58.065Z</time></trkpt><trkpt lat="42.8780904" lon="11.8258396"><ele>370.66666666666663</ele><time>2026-04-04T15:24:59.052Z</time></trkpt><trkpt lat="42.8779323" lon="11.8259257"><ele>371.3333333333333</ele><time>2026-04-04T15:25:00.057Z</time></trkpt><trkpt lat="42.8777777" lon="11.8260494"><ele>372.0</ele><time>2026-04-04T15:25:01.056Z</time></trkpt><trkpt lat="42.8776395" lon="11.8261868"><ele>373.0</ele><time>2026-04-04T15:25:02.049Z</time></trkpt><trkpt lat="42.8775315" lon="11.8263561"><ele>374.0</ele><time>2026-04-04T15:25:03.063Z</time></trkpt><trkpt lat="42.877454" lon="11.8265759"><ele>375.0</ele><time>2026-04-04T15:25:04.067Z</time></trkpt><trkpt lat="42.8773716" lon="11.8267997"><ele>378.33333333333337</ele><time>2026-04-04T15:25:05.069Z</time></trkpt><trkpt lat="42.8772805" lon="11.8270358"><ele>381.6666666666667</ele><time>2026-04-04T15:25:06.051Z</time></trkpt><trkpt lat="42.8771684" lon="11.8272674"><ele>385.0</ele><time>2026-04-04T15:25:07.065Z</time></trkpt><trkpt lat="42.8770285" lon="11.8274973"><ele>382.0</ele><time>2026-04-04T15:25:08.061Z</time></trkpt><trkpt lat="42.8768885" lon="11.8277218"><ele>379.0</ele><time>2026-04-04T15:25:09.056Z</time></trkpt><trkpt lat="42.8767736" lon="11.8279803"><ele>376.0</ele><time>2026-04-04T15:25:10.072Z</time></trkpt><trkpt lat="42.8766799" lon="11.8282773"><ele>380.0</ele><time>2026-04-04T15:25:11.062Z</time></trkpt><trkpt lat="42.8765838" lon="11.8285972"><ele>384.0</ele><time>2026-04-04T15:25:12.057Z</time></trkpt><trkpt lat="42.8764827" lon="11.8289122"><ele>384.0</ele><time>2026-04-04T15:25:13.059Z</time></trkpt><trkpt lat="42.876376" lon="11.8292278"><ele>384.0</ele><time>2026-04-04T15:25:14.05Z</time></trkpt><trkpt lat="42.8762796" lon="11.8295322"><ele>386.33333333333337</ele><time>2026-04-04T15:25:15.069Z</time></trkpt><trkpt lat="42.87619" lon="11.8298049"><ele>388.6666666666667</ele><time>2026-04-04T15:25:16.062Z</time></trkpt><trkpt lat="42.8761078" lon="11.8300647"><ele>391.0</ele><time>2026-04-04T15:25:17.049Z</time></trkpt><trkpt lat="42.8760307" lon="11.8303094"><ele>393.33333333333337</ele><time>2026-04-04T15:25:18.056Z</time></trkpt><trkpt lat="42.8759683" lon="11.8305412"><ele>395.66666666666663</ele><time>2026-04-04T15:25:19.052Z</time></trkpt><trkpt lat="42.8759241" lon="11.8307646"><ele>398.0</ele><time>2026-04-04T15:25:20.099Z</time></trkpt><trkpt lat="42.8758941" lon="11.8309787"><ele>393.3333333333333</ele><time>2026-04-04T15:25:21.054Z</time></trkpt><trkpt lat="42.8758932" lon="11.8312053"><ele>388.66666666666663</ele><time>2026-04-04T15:25:22.053Z</time></trkpt><trkpt lat="42.8759143" lon="11.8314292"><ele>384.0</ele><time>2026-04-04T15:25:23.065Z</time></trkpt><trkpt lat="42.8759303" lon="11.8316251"><ele>384.0</ele><time>2026-04-04T15:25:24.054Z</time></trkpt><trkpt lat="42.8759081" lon="11.8317868"><ele>384.0</ele><time>2026-04-04T15:25:25.053Z</time></trkpt><trkpt lat="42.8758421" lon="11.8319132"><ele>384.0</ele><time>2026-04-04T15:25:26.051Z</time></trkpt><trkpt lat="42.8757436" lon="11.8320036"><ele>384.0</ele><time>2026-04-04T15:25:27.064Z</time></trkpt><trkpt lat="42.8756369" lon="11.8320572"><ele>383.79999999999995</ele><time>2026-04-04T15:25:28.055Z</time></trkpt><trkpt lat="42.8755384" lon="11.8321142"><ele>383.59999999999997</ele><time>2026-04-04T15:25:29.052Z</time></trkpt><trkpt lat="42.8754418" lon="11.8321495"><ele>383.4</ele><time>2026-04-04T15:25:30.057Z</time></trkpt><trkpt lat="42.8753604" lon="11.8321357"><ele>383.2</ele><time>2026-04-04T15:25:31.063Z</time></trkpt><trkpt lat="42.8752915" lon="11.8320762"><ele>383.0</ele><time>2026-04-04T15:25:32.062Z</time></trkpt><trkpt lat="42.8752324" lon="11.8319512"><ele>383.33333333333337</ele><time>2026-04-04T15:25:33.055Z</time></trkpt><trkpt lat="42.8751539" lon="11.831801"><ele>383.6666666666667</ele><time>2026-04-04T15:25:34.062Z</time></trkpt><trkpt lat="42.8750575" lon="11.8316303"><ele>384.0</ele><time>2026-04-04T15:25:35.054Z</time></trkpt><trkpt lat="42.8749569" lon="11.8314468"><ele>383.0</ele><time>2026-04-04T15:25:36.048Z</time></trkpt><trkpt lat="42.8748617" lon="11.8312661"><ele>382.0</ele><time>2026-04-04T15:25:37.061Z</time></trkpt><trkpt lat="42.8747613" lon="11.8310747"><ele>381.0</ele><time>2026-04-04T15:25:38.062Z</time></trkpt><trkpt lat="42.8746507" lon="11.8308645"><ele>381.0</ele><time>2026-04-04T15:25:39.057Z</time></trkpt><trkpt lat="42.8745427" lon="11.8306656"><ele>381.0</ele><time>2026-04-04T15:25:40.057Z</time></trkpt><trkpt lat="42.8744435" lon="11.8304923"><ele>381.0</ele><time>2026-04-04T15:25:41.059Z</time></trkpt><trkpt lat="42.8743406" lon="11.8303513"><ele>384.66666666666663</ele><time>2026-04-04T15:25:42.073Z</time></trkpt><trkpt lat="42.8742166" lon="11.8302339"><ele>388.3333333333333</ele><time>2026-04-04T15:25:43.06Z</time></trkpt><trkpt lat="42.874071" lon="11.8301476"><ele>392.0</ele><time>2026-04-04T15:25:44.064Z</time></trkpt><trkpt lat="42.8739065" lon="11.8300855"><ele>392.0</ele><time>2026-04-04T15:25:45.058Z</time></trkpt><trkpt lat="42.8737234" lon="11.8300492"><ele>392.0</ele><time>2026-04-04T15:25:46.064Z</time></trkpt><trkpt lat="42.8735347" lon="11.8300248"><ele>392.0</ele><time>2026-04-04T15:25:47.065Z</time></trkpt><trkpt lat="42.8733715" lon="11.8299912"><ele>395.0</ele><time>2026-04-04T15:25:48.07Z</time></trkpt><trkpt lat="42.8732351" lon="11.8299442"><ele>398.0</ele><time>2026-04-04T15:25:49.059Z</time></trkpt><trkpt lat="42.8731204" lon="11.8298815"><ele>401.0</ele><time>2026-04-04T15:25:50.059Z</time></trkpt><trkpt lat="42.8730448" lon="11.8297797"><ele>404.0</ele><time>2026-04-04T15:25:51.058Z</time></trkpt><trkpt lat="42.8730036" lon="11.8296373"><ele>404.0</ele><time>2026-04-04T15:25:52.057Z</time></trkpt><trkpt lat="42.8729783" lon="11.829469"><ele>404.0</ele><time>2026-04-04T15:25:53.061Z</time></trkpt><trkpt lat="42.8729529" lon="11.829281"><ele>404.0</ele><time>2026-04-04T15:25:54.065Z</time></trkpt><trkpt lat="42.8729351" lon="11.8290847"><ele>404.0</ele><time>2026-04-04T15:25:55.055Z</time></trkpt><trkpt lat="42.8729658" lon="11.8288541"><ele>403.66666666666663</ele><time>2026-04-04T15:25:56.069Z</time></trkpt><trkpt lat="42.87304" lon="11.8286222"><ele>403.33333333333337</ele><time>2026-04-04T15:25:57.051Z</time></trkpt><trkpt lat="42.8731158" lon="11.828373"><ele>403.0</ele><time>2026-04-04T15:25:58.055Z</time></trkpt><trkpt lat="42.8731797" lon="11.8280936"><ele>405.33333333333337</ele><time>2026-04-04T15:25:59.069Z</time></trkpt><trkpt lat="42.8732355" lon="11.8278117"><ele>407.66666666666663</ele><time>2026-04-04T15:26:00.064Z</time></trkpt><trkpt lat="42.8732682" lon="11.8275384"><ele>410.0</ele><time>2026-04-04T15:26:01.056Z</time></trkpt><trkpt lat="42.8732915" lon="11.8272569"><ele>413.5</ele><time>2026-04-04T15:26:02.068Z</time></trkpt><trkpt lat="42.873314" lon="11.8269536"><ele>417.0</ele><time>2026-04-04T15:26:03.055Z</time></trkpt><trkpt lat="42.8733365" lon="11.8266418"><ele>418.66666666666663</ele><time>2026-04-04T15:26:04.056Z</time></trkpt><trkpt lat="42.8733611" lon="11.8263291"><ele>420.3333333333333</ele><time>2026-04-04T15:26:05.054Z</time></trkpt><trkpt lat="42.8733846" lon="11.8260521"><ele>422.0</ele><time>2026-04-04T15:26:06.053Z</time></trkpt><trkpt lat="42.8734027" lon="11.8258022"><ele>422.75</ele><time>2026-04-04T15:26:07.059Z</time></trkpt><trkpt lat="42.8734216" lon="11.8255857"><ele>423.5</ele><time>2026-04-04T15:26:08.05Z</time></trkpt><trkpt lat="42.8734239" lon="11.8254063"><ele>424.25</ele><time>2026-04-04T15:26:09.045Z</time></trkpt><trkpt lat="42.8733956" lon="11.8252395"><ele>425.0</ele><time>2026-04-04T15:26:10.059Z</time></trkpt><trkpt lat="42.8733343" lon="11.8250822"><ele>426.5</ele><time>2026-04-04T15:26:11.05Z</time></trkpt><trkpt lat="42.8732446" lon="11.8249395"><ele>428.0</ele><time>2026-04-04T15:26:12.06Z</time></trkpt><trkpt lat="42.8731156" lon="11.8248454"><ele>429.5</ele><time>2026-04-04T15:26:13.051Z</time></trkpt><trkpt lat="42.872965" lon="11.8247853"><ele>431.0</ele><time>2026-04-04T15:26:14.094Z</time></trkpt><trkpt lat="42.8728009" lon="11.8247223"><ele>431.0</ele><time>2026-04-04T15:26:15.059Z</time></trkpt><trkpt lat="42.8726202" lon="11.824658"><ele>431.0</ele><time>2026-04-04T15:26:16.057Z</time></trkpt><trkpt lat="42.872443" lon="11.8245861"><ele>431.0</ele><time>2026-04-04T15:26:17.055Z</time></trkpt><trkpt lat="42.8722891" lon="11.824536"><ele>433.5</ele><time>2026-04-04T15:26:18.055Z</time></trkpt><trkpt lat="42.8721575" lon="11.824521"><ele>436.0</ele><time>2026-04-04T15:26:19.056Z</time></trkpt><trkpt lat="42.8720464" lon="11.8245724"><ele>438.5</ele><time>2026-04-04T15:26:20.053Z</time></trkpt><trkpt lat="42.871959" lon="11.8246868"><ele>441.0</ele><time>2026-04-04T15:26:21.055Z</time></trkpt><trkpt lat="42.8718984" lon="11.8248085"><ele>441.0</ele><time>2026-04-04T15:26:22.055Z</time></trkpt><trkpt lat="42.8718776" lon="11.8249643"><ele>441.0</ele><time>2026-04-04T15:26:23.057Z</time></trkpt><trkpt lat="42.8718839" lon="11.8251439"><ele>441.0</ele><time>2026-04-04T15:26:24.056Z</time></trkpt><trkpt lat="42.8718996" lon="11.8253391"><ele>441.0</ele><time>2026-04-04T15:26:25.059Z</time></trkpt><trkpt lat="42.8718992" lon="11.8255505"><ele>441.33333333333337</ele><time>2026-04-04T15:26:26.065Z</time></trkpt><trkpt lat="42.8718811" lon="11.8257814"><ele>441.6666666666667</ele><time>2026-04-04T15:26:27.06Z</time></trkpt><trkpt lat="42.871853" lon="11.8260263"><ele>442.0</ele><time>2026-04-04T15:26:28.062Z</time></trkpt><trkpt lat="42.8718169" lon="11.8262879"><ele>447.6666666666667</ele><time>2026-04-04T15:26:29.056Z</time></trkpt><trkpt lat="42.871758" lon="11.8265641"><ele>453.33333333333337</ele><time>2026-04-04T15:26:30.059Z</time></trkpt><trkpt lat="42.8716813" lon="11.8268378"><ele>459.0</ele><time>2026-04-04T15:26:31.07Z</time></trkpt><trkpt lat="42.8716031" lon="11.8271028"><ele>459.0</ele><time>2026-04-04T15:26:32.06Z</time></trkpt><trkpt lat="42.871521" lon="11.8273177"><ele>459.0</ele><time>2026-04-04T15:26:33.061Z</time></trkpt><trkpt lat="42.8714294" lon="11.8274878"><ele>459.0</ele><time>2026-04-04T15:26:34.062Z</time></trkpt><trkpt lat="42.8713245" lon="11.8275947"><ele>458.0</ele><time>2026-04-04T15:26:35.065Z</time></trkpt><trkpt lat="42.8712231" lon="11.8276749"><ele>457.0</ele><time>2026-04-04T15:26:36.052Z</time></trkpt><trkpt lat="42.8711402" lon="11.8277931"><ele>456.0</ele><time>2026-04-04T15:26:37.064Z</time></trkpt><trkpt lat="42.8710774" lon="11.8279509"><ele>455.0</ele><time>2026-04-04T15:26:38.068Z</time></trkpt><trkpt lat="42.8710432" lon="11.8281581"><ele>455.0</ele><time>2026-04-04T15:26:39.055Z</time></trkpt><trkpt lat="42.8710129" lon="11.8283892"><ele>455.0</ele><time>2026-04-04T15:26:40.055Z</time></trkpt><trkpt lat="42.8709811" lon="11.8286208"><ele>455.0</ele><time>2026-04-04T15:26:41.071Z</time></trkpt><trkpt lat="42.8709463" lon="11.8288408"><ele>458.25</ele><time>2026-04-04T15:26:42.066Z</time></trkpt><trkpt lat="42.870903" lon="11.8290242"><ele>461.5</ele><time>2026-04-04T15:26:43.063Z</time></trkpt><trkpt lat="42.8708343" lon="11.8291599"><ele>464.75</ele><time>2026-04-04T15:26:44.062Z</time></trkpt><trkpt lat="42.8707287" lon="11.8292687"><ele>468.0</ele><time>2026-04-04T15:26:45.053Z</time></trkpt><trkpt lat="42.8705976" lon="11.8293577"><ele>468.0</ele><time>2026-04-04T15:26:46.055Z</time></trkpt><trkpt lat="42.8704341" lon="11.8294364"><ele>468.0</ele><time>2026-04-04T15:26:47.05Z</time></trkpt><trkpt lat="42.8702762" lon="11.8295056"><ele>468.0</ele><time>2026-04-04T15:26:48.062Z</time></trkpt><trkpt lat="42.8701374" lon="11.8295693"><ele>469.79999999999995</ele><time>2026-04-04T15:26:49.056Z</time></trkpt><trkpt lat="42.8700188" lon="11.8295791"><ele>471.59999999999997</ele><time>2026-04-04T15:26:50.055Z</time></trkpt><trkpt lat="42.8699098" lon="11.8295447"><ele>473.40000000000003</ele><time>2026-04-04T15:26:51.054Z</time></trkpt><trkpt lat="42.8698176" lon="11.8294679"><ele>475.20000000000005</ele><time>2026-04-04T15:26:52.047Z</time></trkpt><trkpt lat="42.8697599" lon="11.8293473"><ele>477.0</ele><time>2026-04-04T15:26:53.051Z</time></trkpt><trkpt lat="42.8697378" lon="11.8292011"><ele>477.8</ele><time>2026-04-04T15:26:54.055Z</time></trkpt><trkpt lat="42.8697603" lon="11.829061"><ele>478.6</ele><time>2026-04-04T15:26:55.056Z</time></trkpt><trkpt lat="42.8698217" lon="11.8289765"><ele>479.40000000000003</ele><time>2026-04-04T15:26:56.058Z</time></trkpt><trkpt lat="42.8699152" lon="11.8289115"><ele>480.20000000000005</ele><time>2026-04-04T15:26:57.061Z</time></trkpt><trkpt lat="42.870032" lon="11.8288522"><ele>481.0</ele><time>2026-04-04T15:26:58.055Z</time></trkpt><trkpt lat="42.8701685" lon="11.8287728"><ele>479.75</ele><time>2026-04-04T15:26:59.058Z</time></trkpt><trkpt lat="42.8702931" lon="11.8286776"><ele>478.5</ele><time>2026-04-04T15:27:00.053Z</time></trkpt><trkpt lat="42.8703975" lon="11.828576"><ele>477.25</ele><time>2026-04-04T15:27:01.058Z</time></trkpt><trkpt lat="42.8704705" lon="11.8284376"><ele>476.0</ele><time>2026-04-04T15:27:02.055Z</time></trkpt><trkpt lat="42.8705131" lon="11.8282755"><ele>476.0</ele><time>2026-04-04T15:27:03.052Z</time></trkpt><trkpt lat="42.8705263" lon="11.8280956"><ele>476.0</ele><time>2026-04-04T15:27:04.049Z</time></trkpt><trkpt lat="42.8705131" lon="11.8278773"><ele>476.0</ele><time>2026-04-04T15:27:05.069Z</time></trkpt><trkpt lat="42.8704825" lon="11.8276308"><ele>477.0</ele><time>2026-04-04T15:27:06.052Z</time></trkpt><trkpt lat="42.8704571" lon="11.8273941"><ele>478.0</ele><time>2026-04-04T15:27:07.051Z</time></trkpt><trkpt lat="42.8704701" lon="11.8271661"><ele>479.0</ele><time>2026-04-04T15:27:08.057Z</time></trkpt><trkpt lat="42.8705338" lon="11.8269379"><ele>479.66666666666663</ele><time>2026-04-04T15:27:09.066Z</time></trkpt><trkpt lat="42.8706244" lon="11.8267159"><ele>480.33333333333337</ele><time>2026-04-04T15:27:10.071Z</time></trkpt><trkpt lat="42.8707011" lon="11.8265127"><ele>481.0</ele><time>2026-04-04T15:27:11.046Z</time></trkpt><trkpt lat="42.8707443" lon="11.8263356"><ele>481.0</ele><time>2026-04-04T15:27:12.065Z</time></trkpt><trkpt lat="42.8707622" lon="11.8261616"><ele>481.0</ele><time>2026-04-04T15:27:13.062Z</time></trkpt><trkpt lat="42.8707425" lon="11.8259924"><ele>481.0</ele><time>2026-04-04T15:27:14.065Z</time></trkpt><trkpt lat="42.8706728" lon="11.8258253"><ele>481.0</ele><time>2026-04-04T15:27:15.078Z</time></trkpt><trkpt lat="42.8705704" lon="11.8256552"><ele>481.6666666666667</ele><time>2026-04-04T15:27:16.056Z</time></trkpt><trkpt lat="42.8704422" lon="11.825494"><ele>482.33333333333337</ele><time>2026-04-04T15:27:17.071Z</time></trkpt><trkpt lat="42.8703113" lon="11.8253353"><ele>483.0</ele><time>2026-04-04T15:27:18.053Z</time></trkpt><trkpt lat="42.8701797" lon="11.8252077"><ele>484.66666666666663</ele><time>2026-04-04T15:27:19.072Z</time></trkpt><trkpt lat="42.8700414" lon="11.8251268"><ele>486.3333333333333</ele><time>2026-04-04T15:27:20.059Z</time></trkpt><trkpt lat="42.8698914" lon="11.8251045"><ele>488.0</ele><time>2026-04-04T15:27:21.07Z</time></trkpt><trkpt lat="42.8697279" lon="11.8251255"><ele>490.66666666666663</ele><time>2026-04-04T15:27:22.048Z</time></trkpt><trkpt lat="42.8695421" lon="11.8251458"><ele>493.33333333333337</ele><time>2026-04-04T15:27:23.054Z</time></trkpt><trkpt lat="42.8693407" lon="11.8251615"><ele>496.0</ele><time>2026-04-04T15:27:24.058Z</time></trkpt><trkpt lat="42.8691284" lon="11.8251592"><ele>495.33333333333337</ele><time>2026-04-04T15:27:25.059Z</time></trkpt><trkpt lat="42.8689113" lon="11.8251069"><ele>494.66666666666663</ele><time>2026-04-04T15:27:26.068Z</time></trkpt><trkpt lat="42.8687165" lon="11.825031"><ele>494.0</ele><time>2026-04-04T15:27:27.063Z</time></trkpt><trkpt lat="42.8685331" lon="11.8249582"><ele>497.66666666666663</ele><time>2026-04-04T15:27:28.06Z</time></trkpt><trkpt lat="42.8683653" lon="11.8248815"><ele>501.33333333333337</ele><time>2026-04-04T15:27:29.052Z</time></trkpt><trkpt lat="42.8681989" lon="11.8247712"><ele>505.0</ele><time>2026-04-04T15:27:30.059Z</time></trkpt><trkpt lat="42.8680347" lon="11.8246153"><ele>505.0</ele><time>2026-04-04T15:27:31.066Z</time></trkpt><trkpt lat="42.8678741" lon="11.8244249"><ele>505.0</ele><time>2026-04-04T15:27:32.065Z</time></trkpt><trkpt lat="42.8677336" lon="11.8241825"><ele>505.0</ele><time>2026-04-04T15:27:33.061Z</time></trkpt><trkpt lat="42.8676048" lon="11.8239397"><ele>505.6666666666667</ele><time>2026-04-04T15:27:34.062Z</time></trkpt><trkpt lat="42.8674845" lon="11.8237084"><ele>506.33333333333337</ele><time>2026-04-04T15:27:35.054Z</time></trkpt><trkpt lat="42.8673838" lon="11.8234853"><ele>507.0</ele><time>2026-04-04T15:27:36.064Z</time></trkpt><trkpt lat="42.8672938" lon="11.8232777"><ele>507.0</ele><time>2026-04-04T15:27:37.056Z</time></trkpt><trkpt lat="42.8672192" lon="11.8230711"><ele>507.0</ele><time>2026-04-04T15:27:38.067Z</time></trkpt><trkpt lat="42.867162" lon="11.8228482"><ele>507.0</ele><time>2026-04-04T15:27:39.068Z</time></trkpt><trkpt lat="42.8671206" lon="11.8226024"><ele>505.66666666666663</ele><time>2026-04-04T15:27:40.063Z</time></trkpt><trkpt lat="42.86709" lon="11.8223445"><ele>504.3333333333333</ele><time>2026-04-04T15:27:41.055Z</time></trkpt><trkpt lat="42.8670616" lon="11.8221154"><ele>503.0</ele><time>2026-04-04T15:27:42.056Z</time></trkpt><trkpt lat="42.8670319" lon="11.8219206"><ele>503.25</ele><time>2026-04-04T15:27:43.062Z</time></trkpt><trkpt lat="42.8669988" lon="11.8217382"><ele>503.5</ele><time>2026-04-04T15:27:44.067Z</time></trkpt><trkpt lat="42.8669553" lon="11.821579"><ele>503.75</ele><time>2026-04-04T15:27:45.071Z</time></trkpt><trkpt lat="42.86688" lon="11.8214399"><ele>504.0</ele><time>2026-04-04T15:27:46.061Z</time></trkpt><trkpt lat="42.8667686" lon="11.8213084"><ele>507.66666666666663</ele><time>2026-04-04T15:27:47.057Z</time></trkpt><trkpt lat="42.8666441" lon="11.8211871"><ele>511.3333333333333</ele><time>2026-04-04T15:27:48.06Z</time></trkpt><trkpt lat="42.8665164" lon="11.8210582"><ele>515.0</ele><time>2026-04-04T15:27:49.064Z</time></trkpt><trkpt lat="42.8663802" lon="11.8209187"><ele>515.0</ele><time>2026-04-04T15:27:50.059Z</time></trkpt><trkpt lat="42.8662384" lon="11.8207698"><ele>515.0</ele><time>2026-04-04T15:27:51.054Z</time></trkpt><trkpt lat="42.866092" lon="11.8206169"><ele>515.0</ele><time>2026-04-04T15:27:52.064Z</time></trkpt><trkpt lat="42.8659466" lon="11.8204717"><ele>522.6666666666666</ele><time>2026-04-04T15:27:53.058Z</time></trkpt><trkpt lat="42.8658168" lon="11.8203443"><ele>530.3333333333334</ele><time>2026-04-04T15:27:54.071Z</time></trkpt><trkpt lat="42.8656891" lon="11.8202464"><ele>538.0</ele><time>2026-04-04T15:27:55.069Z</time></trkpt><trkpt lat="42.8655545" lon="11.8201665"><ele>535.3333333333334</ele><time>2026-04-04T15:27:56.068Z</time></trkpt><trkpt lat="42.8654059" lon="11.8201254"><ele>532.6666666666666</ele><time>2026-04-04T15:27:57.064Z</time></trkpt><trkpt lat="42.8652579" lon="11.8201205"><ele>530.0</ele><time>2026-04-04T15:27:58.06Z</time></trkpt><trkpt lat="42.8650994" lon="11.8201375"><ele>537.3333333333333</ele><time>2026-04-04T15:27:59.065Z</time></trkpt><trkpt lat="42.8649331" lon="11.8201586"><ele>544.6666666666666</ele><time>2026-04-04T15:28:00.071Z</time></trkpt><trkpt lat="42.864762" lon="11.8201929"><ele>552.0</ele><time>2026-04-04T15:28:01.063Z</time></trkpt><trkpt lat="42.8645827" lon="11.820218"><ele>552.0</ele><time>2026-04-04T15:28:02.061Z</time></trkpt><trkpt lat="42.864405" lon="11.8202515"><ele>552.0</ele><time>2026-04-04T15:28:03.059Z</time></trkpt><trkpt lat="42.8642368" lon="11.8202837"><ele>552.0</ele><time>2026-04-04T15:28:04.061Z</time></trkpt><trkpt lat="42.8640939" lon="11.8203089"><ele>552.0</ele><time>2026-04-04T15:28:05.067Z</time></trkpt><trkpt lat="42.8639679" lon="11.8203474"><ele>552.0</ele><time>2026-04-04T15:28:06.071Z</time></trkpt><trkpt lat="42.8638496" lon="11.8204013"><ele>552.0</ele><time>2026-04-04T15:28:07.071Z</time></trkpt><trkpt lat="42.8637473" lon="11.8204676"><ele>552.0</ele><time>2026-04-04T15:28:08.064Z</time></trkpt><trkpt lat="42.8636404" lon="11.820548"><ele>552.0</ele><time>2026-04-04T15:28:09.06Z</time></trkpt><trkpt lat="42.863526" lon="11.8206203"><ele>552.0</ele><time>2026-04-04T15:28:10.061Z</time></trkpt><trkpt lat="42.8634084" lon="11.8206991"><ele>552.0</ele><time>2026-04-04T15:28:11.06Z</time></trkpt><trkpt lat="42.8632872" lon="11.8207794"><ele>552.0</ele><time>2026-04-04T15:28:12.055Z</time></trkpt><trkpt lat="42.8631674" lon="11.8208628"><ele>550.25</ele><time>2026-04-04T15:28:13.079Z</time></trkpt><trkpt lat="42.8630568" lon="11.8209414"><ele>548.5</ele><time>2026-04-04T15:28:14.06Z</time></trkpt><trkpt lat="42.8629588" lon="11.8210118"><ele>546.75</ele><time>2026-04-04T15:28:15.089Z</time></trkpt><trkpt lat="42.8628646" lon="11.8210822"><ele>545.0</ele><time>2026-04-04T15:28:16.053Z</time></trkpt><trkpt lat="42.8627673" lon="11.8211504"><ele>546.6</ele><time>2026-04-04T15:28:17.057Z</time></trkpt><trkpt lat="42.8626671" lon="11.8212184"><ele>548.2</ele><time>2026-04-04T15:28:18.056Z</time></trkpt><trkpt lat="42.8625708" lon="11.821287"><ele>549.8</ele><time>2026-04-04T15:28:19.065Z</time></trkpt><trkpt lat="42.8624879" lon="11.8213557"><ele>551.4</ele><time>2026-04-04T15:28:20.057Z</time></trkpt><trkpt lat="42.8624111" lon="11.8214034"><ele>553.0</ele><time>2026-04-04T15:28:21.066Z</time></trkpt><trkpt lat="42.8623419" lon="11.8214551"><ele>553.0</ele><time>2026-04-04T15:28:22.059Z</time></trkpt><trkpt lat="42.8622909" lon="11.8215239"><ele>553.0</ele><time>2026-04-04T15:28:23.08Z</time></trkpt><trkpt lat="42.8622621" lon="11.8216046"><ele>553.0</ele><time>2026-04-04T15:28:24.074Z</time></trkpt><trkpt lat="42.8622515" lon="11.8216993"><ele>553.0</ele><time>2026-04-04T15:28:25.055Z</time></trkpt><trkpt lat="42.8622466" lon="11.8217895"><ele>553.0</ele><time>2026-04-04T15:28:26.059Z</time></trkpt><trkpt lat="42.8622366" lon="11.8218798"><ele>553.0</ele><time>2026-04-04T15:28:27.062Z</time></trkpt><trkpt lat="42.862226" lon="11.8219865"><ele>553.0</ele><time>2026-04-04T15:28:28.066Z</time></trkpt><trkpt lat="42.862214" lon="11.8220903"><ele>553.1999999999999</ele><time>2026-04-04T15:28:29.056Z</time></trkpt><trkpt lat="42.862207" lon="11.8221906"><ele>553.4</ele><time>2026-04-04T15:28:30.067Z</time></trkpt><trkpt lat="42.8622017" lon="11.8222853"><ele>553.5999999999999</ele><time>2026-04-04T15:28:31.056Z</time></trkpt><trkpt lat="42.8621929" lon="11.8224537"><ele>553.8</ele><time>2026-04-04T15:28:33.067Z</time></trkpt><trkpt lat="42.8621884" lon="11.8226376"><ele>554.0</ele><time>2026-04-04T15:28:35.056Z</time></trkpt><trkpt lat="42.8621871" lon="11.8227536"><ele>554.0</ele><time>2026-04-04T15:28:36.061Z</time></trkpt><trkpt lat="42.862194" lon="11.8228893"><ele>554.0</ele><time>2026-04-04T15:28:37.072Z</time></trkpt><trkpt lat="42.8621987" lon="11.8230201"><ele>554.0</ele><time>2026-04-04T15:28:38.065Z</time></trkpt><trkpt lat="42.8622047" lon="11.823145"><ele>554.0</ele><time>2026-04-04T15:28:39.065Z</time></trkpt><trkpt lat="42.8621981" lon="11.8232675"><ele>554.0</ele><time>2026-04-04T15:28:40.08Z</time></trkpt><trkpt lat="42.8621886" lon="11.8233951"><ele>552.2</ele><time>2026-04-04T15:28:41.069Z</time></trkpt><trkpt lat="42.8621674" lon="11.8235228"><ele>550.4</ele><time>2026-04-04T15:28:42.058Z</time></trkpt><trkpt lat="42.8621452" lon="11.823658"><ele>548.6</ele><time>2026-04-04T15:28:43.066Z</time></trkpt><trkpt lat="42.8621314" lon="11.823808"><ele>546.8</ele><time>2026-04-04T15:28:44.068Z</time></trkpt><trkpt lat="42.8621263" lon="11.8239678"><ele>545.0</ele><time>2026-04-04T15:28:45.066Z</time></trkpt><trkpt lat="42.862142" lon="11.8241414"><ele>541.6666666666666</ele><time>2026-04-04T15:28:46.06Z</time></trkpt><trkpt lat="42.862188" lon="11.8243215"><ele>538.3333333333334</ele><time>2026-04-04T15:28:47.06Z</time></trkpt><trkpt lat="42.8622507" lon="11.8245054"><ele>535.0</ele><time>2026-04-04T15:28:48.073Z</time></trkpt><trkpt lat="42.8623475" lon="11.8247044"><ele>535.0</ele><time>2026-04-04T15:28:49.059Z</time></trkpt><trkpt lat="42.8624741" lon="11.8249168"><ele>535.0</ele><time>2026-04-04T15:28:50.06Z</time></trkpt><trkpt lat="42.862611" lon="11.8251004"><ele>535.0</ele><time>2026-04-04T15:28:51.054Z</time></trkpt><trkpt lat="42.8627418" lon="11.8252708"><ele>535.3333333333334</ele><time>2026-04-04T15:28:52.059Z</time></trkpt><trkpt lat="42.8628723" lon="11.8254237"><ele>535.6666666666666</ele><time>2026-04-04T15:28:53.056Z</time></trkpt><trkpt lat="42.8629993" lon="11.8255679"><ele>536.0</ele><time>2026-04-04T15:28:54.072Z</time></trkpt><trkpt lat="42.8631201" lon="11.8256941"><ele>536.0</ele><time>2026-04-04T15:28:55.058Z</time></trkpt><trkpt lat="42.8632391" lon="11.8258187"><ele>536.0</ele><time>2026-04-04T15:28:56.076Z</time></trkpt><trkpt lat="42.863341" lon="11.8259476"><ele>536.0</ele><time>2026-04-04T15:28:57.055Z</time></trkpt><trkpt lat="42.8634131" lon="11.8260925"><ele>536.0</ele><time>2026-04-04T15:28:58.065Z</time></trkpt><trkpt lat="42.8634558" lon="11.8262615"><ele>534.6666666666666</ele><time>2026-04-04T15:28:59.06Z</time></trkpt><trkpt lat="42.8634641" lon="11.8264669"><ele>533.3333333333334</ele><time>2026-04-04T15:29:00.05Z</time></trkpt><trkpt lat="42.8634496" lon="11.8266841"><ele>532.0</ele><time>2026-04-04T15:29:01.062Z</time></trkpt><trkpt lat="42.8634305" lon="11.8268969"><ele>532.0</ele><time>2026-04-04T15:29:02.059Z</time></trkpt><trkpt lat="42.8634387" lon="11.8270767"><ele>532.0</ele><time>2026-04-04T15:29:03.046Z</time></trkpt><trkpt lat="42.8634654" lon="11.827254"><ele>532.0</ele><time>2026-04-04T15:29:04.053Z</time></trkpt><trkpt lat="42.8635048" lon="11.8274316"><ele>532.0</ele><time>2026-04-04T15:29:05.058Z</time></trkpt><trkpt lat="42.8635507" lon="11.8276079"><ele>532.3333333333334</ele><time>2026-04-04T15:29:06.055Z</time></trkpt><trkpt lat="42.8635879" lon="11.8278146"><ele>532.6666666666666</ele><time>2026-04-04T15:29:07.057Z</time></trkpt><trkpt lat="42.8636237" lon="11.8280602"><ele>533.0</ele><time>2026-04-04T15:29:08.064Z</time></trkpt><trkpt lat="42.8636593" lon="11.8283011"><ele>530.3333333333333</ele><time>2026-04-04T15:29:09.061Z</time></trkpt><trkpt lat="42.8636953" lon="11.8285378"><ele>527.6666666666666</ele><time>2026-04-04T15:29:10.061Z</time></trkpt><trkpt lat="42.8637261" lon="11.8287557"><ele>525.0</ele><time>2026-04-04T15:29:11.071Z</time></trkpt><trkpt lat="42.8637685" lon="11.8289845"><ele>525.0</ele><time>2026-04-04T15:29:12.059Z</time></trkpt><trkpt lat="42.8638282" lon="11.8292282"><ele>525.0</ele><time>2026-04-04T15:29:13.057Z</time></trkpt><trkpt lat="42.8639065" lon="11.8294617"><ele>525.0</ele><time>2026-04-04T15:29:14.059Z</time></trkpt><trkpt lat="42.8639796" lon="11.8296633"><ele>524.5</ele><time>2026-04-04T15:29:15.059Z</time></trkpt><trkpt lat="42.8640413" lon="11.8298574"><ele>524.0</ele><time>2026-04-04T15:29:16.072Z</time></trkpt><trkpt lat="42.8640971" lon="11.8300411"><ele>523.5</ele><time>2026-04-04T15:29:17.068Z</time></trkpt><trkpt lat="42.8641441" lon="11.8302184"><ele>523.0</ele><time>2026-04-04T15:29:18.057Z</time></trkpt><trkpt lat="42.864192" lon="11.8303932"><ele>522.25</ele><time>2026-04-04T15:29:19.077Z</time></trkpt><trkpt lat="42.8642425" lon="11.8305558"><ele>521.5</ele><time>2026-04-04T15:29:20.052Z</time></trkpt><trkpt lat="42.8643038" lon="11.8307075"><ele>520.75</ele><time>2026-04-04T15:29:21.064Z</time></trkpt><trkpt lat="42.8643758" lon="11.8308416"><ele>520.0</ele><time>2026-04-04T15:29:22.061Z</time></trkpt><trkpt lat="42.8644805" lon="11.8309267"><ele>517.3333333333334</ele><time>2026-04-04T15:29:23.058Z</time></trkpt><trkpt lat="42.864613" lon="11.830995"><ele>514.6666666666666</ele><time>2026-04-04T15:29:24.057Z</time></trkpt><trkpt lat="42.8647519" lon="11.8310955"><ele>512.0</ele><time>2026-04-04T15:29:25.052Z</time></trkpt><trkpt lat="42.8648988" lon="11.8312407"><ele>512.0</ele><time>2026-04-04T15:29:26.047Z</time></trkpt><trkpt lat="42.865041" lon="11.8314333"><ele>512.0</ele><time>2026-04-04T15:29:27.053Z</time></trkpt><trkpt lat="42.8651769" lon="11.8316431"><ele>512.0</ele><time>2026-04-04T15:29:28.051Z</time></trkpt><trkpt lat="42.8652894" lon="11.8318562"><ele>513.6666666666666</ele><time>2026-04-04T15:29:29.079Z</time></trkpt><trkpt lat="42.8653826" lon="11.8320577"><ele>515.3333333333334</ele><time>2026-04-04T15:29:30.044Z</time></trkpt><trkpt lat="42.8654595" lon="11.8322451"><ele>517.0</ele><time>2026-04-04T15:29:31.058Z</time></trkpt><trkpt lat="42.8655246" lon="11.8324124"><ele>517.0</ele><time>2026-04-04T15:29:32.055Z</time></trkpt><trkpt lat="42.8655708" lon="11.8325747"><ele>517.0</ele><time>2026-04-04T15:29:33.065Z</time></trkpt><trkpt lat="42.8655974" lon="11.8327316"><ele>517.0</ele><time>2026-04-04T15:29:34.056Z</time></trkpt><trkpt lat="42.8656147" lon="11.8328836"><ele>517.0</ele><time>2026-04-04T15:29:35.062Z</time></trkpt><trkpt lat="42.8656183" lon="11.8330384"><ele>516.6666666666667</ele><time>2026-04-04T15:29:36.063Z</time></trkpt><trkpt lat="42.8656114" lon="11.8331786"><ele>516.3333333333334</ele><time>2026-04-04T15:29:37.058Z</time></trkpt><trkpt lat="42.8655989" lon="11.8333008"><ele>516.0</ele><time>2026-04-04T15:29:38.048Z</time></trkpt><trkpt lat="42.8655926" lon="11.8334012"><ele>515.6666666666666</ele><time>2026-04-04T15:29:39.051Z</time></trkpt><trkpt lat="42.8656178" lon="11.8335407"><ele>515.3333333333333</ele><time>2026-04-04T15:29:41.064Z</time></trkpt><trkpt lat="42.8656822" lon="11.833574"><ele>515.0</ele><time>2026-04-04T15:29:43.07Z</time></trkpt><trkpt lat="42.8657286" lon="11.8335043"><ele>515.0</ele><time>2026-04-04T15:29:45.056Z</time></trkpt><trkpt lat="42.865745" lon="11.8333822"><ele>515.0</ele><time>2026-04-04T15:29:47.053Z</time></trkpt><trkpt lat="42.8657725" lon="11.8332457"><ele>515.0</ele><time>2026-04-04T15:34:02.053Z</time></trkpt><trkpt lat="42.8657514" lon="11.8331159"><ele>515.0</ele><time>2026-04-04T15:34:04.049Z</time></trkpt><trkpt lat="42.8656953" lon="11.8330333"><ele>515.0</ele><time>2026-04-04T15:34:06.067Z</time></trkpt><trkpt lat="42.8656208" lon="11.8330891"><ele>515.0</ele><time>2026-04-04T15:34:13.056Z</time></trkpt><trkpt lat="42.8656069" lon="11.833179"><ele>515.0</ele><time>2026-04-04T15:34:14.058Z</time></trkpt><trkpt lat="42.8656056" lon="11.8332888"><ele>515.0</ele><time>2026-04-04T15:34:15.051Z</time></trkpt><trkpt lat="42.8656036" lon="11.8333964"><ele>515.0</ele><time>2026-04-04T15:34:16.069Z</time></trkpt><trkpt lat="42.8655925" lon="11.8335111"><ele>515.0</ele><time>2026-04-04T15:34:17.059Z</time></trkpt><trkpt lat="42.8655809" lon="11.8336587"><ele>515.0</ele><time>2026-04-04T15:34:18.051Z</time></trkpt><trkpt lat="42.8655759" lon="11.833816"><ele>515.0</ele><time>2026-04-04T15:34:19.057Z</time></trkpt><trkpt lat="42.8655713" lon="11.8339648"><ele>515.0</ele><time>2026-04-04T15:34:20.068Z</time></trkpt><trkpt lat="42.8655645" lon="11.8341107"><ele>515.0</ele><time>2026-04-04T15:34:21.048Z</time></trkpt><trkpt lat="42.8655595" lon="11.8342467"><ele>515.0</ele><time>2026-04-04T15:34:22.057Z</time></trkpt><trkpt lat="42.8655465" lon="11.834372"><ele>515.0</ele><time>2026-04-04T15:34:23.057Z</time></trkpt><trkpt lat="42.8655195" lon="11.8344869"><ele>515.5</ele><time>2026-04-04T15:34:24.056Z</time></trkpt><trkpt lat="42.8654691" lon="11.8345662"><ele>516.0</ele><time>2026-04-04T15:34:25.059Z</time></trkpt><trkpt lat="42.8654067" lon="11.8346153"><ele>516.5</ele><time>2026-04-04T15:34:26.061Z</time></trkpt><trkpt lat="42.8653149" lon="11.8346668"><ele>517.0</ele><time>2026-04-04T15:34:28.045Z</time></trkpt><trkpt lat="42.8652759" lon="11.834769"><ele>517.5</ele><time>2026-04-04T15:34:30.058Z</time></trkpt><trkpt lat="42.8652913" lon="11.834868"><ele>518.0</ele><time>2026-04-04T15:34:31.059Z</time></trkpt><trkpt lat="42.8653052" lon="11.8349928"><ele>518.75</ele><time>2026-04-04T15:34:32.056Z</time></trkpt><trkpt lat="42.8653163" lon="11.8351453"><ele>519.5</ele><time>2026-04-04T15:34:33.048Z</time></trkpt><trkpt lat="42.8653303" lon="11.8353171"><ele>520.25</ele><time>2026-04-04T15:34:34.062Z</time></trkpt><trkpt lat="42.8653482" lon="11.835471"><ele>521.0</ele><time>2026-04-04T15:34:35.062Z</time></trkpt><trkpt lat="42.8653619" lon="11.8356219"><ele>521.0</ele><time>2026-04-04T15:34:36.051Z</time></trkpt><trkpt lat="42.8653821" lon="11.8357941"><ele>521.0</ele><time>2026-04-04T15:34:37.061Z</time></trkpt><trkpt lat="42.8654053" lon="11.835997"><ele>521.0</ele><time>2026-04-04T15:34:38.052Z</time></trkpt><trkpt lat="42.8654241" lon="11.8362039"><ele>521.0</ele><time>2026-04-04T15:34:39.064Z</time></trkpt><trkpt lat="42.8654413" lon="11.8364107"><ele>521.5</ele><time>2026-04-04T15:34:40.066Z</time></trkpt><trkpt lat="42.8654632" lon="11.8365946"><ele>522.0</ele><time>2026-04-04T15:34:41.061Z</time></trkpt><trkpt lat="42.8654842" lon="11.8367776"><ele>522.5</ele><time>2026-04-04T15:34:42.062Z</time></trkpt><trkpt lat="42.8655086" lon="11.8369702"><ele>523.0</ele><time>2026-04-04T15:34:43.055Z</time></trkpt><trkpt lat="42.8655385" lon="11.8371784"><ele>523.3333333333334</ele><time>2026-04-04T15:34:44.046Z</time></trkpt><trkpt lat="42.8655694" lon="11.8373966"><ele>523.6666666666666</ele><time>2026-04-04T15:34:45.05Z</time></trkpt><trkpt lat="42.8656116" lon="11.8376218"><ele>524.0</ele><time>2026-04-04T15:34:46.059Z</time></trkpt><trkpt lat="42.8656501" lon="11.837838"><ele>523.0</ele><time>2026-04-04T15:34:47.052Z</time></trkpt><trkpt lat="42.8656929" lon="11.8380367"><ele>522.0</ele><time>2026-04-04T15:34:48.061Z</time></trkpt><trkpt lat="42.8657333" lon="11.8382281"><ele>521.0</ele><time>2026-04-04T15:34:49.054Z</time></trkpt><trkpt lat="42.8657744" lon="11.8384191"><ele>520.0</ele><time>2026-04-04T15:34:50.062Z</time></trkpt><trkpt lat="42.8658198" lon="11.8386154"><ele>517.3333333333334</ele><time>2026-04-04T15:34:51.056Z</time></trkpt><trkpt lat="42.8658696" lon="11.8388249"><ele>514.6666666666666</ele><time>2026-04-04T15:34:52.053Z</time></trkpt><trkpt lat="42.8659256" lon="11.8390476"><ele>512.0</ele><time>2026-04-04T15:34:53.058Z</time></trkpt><trkpt lat="42.8659833" lon="11.8392917"><ele>510.66666666666663</ele><time>2026-04-04T15:34:54.055Z</time></trkpt><trkpt lat="42.8660434" lon="11.8395538"><ele>509.33333333333337</ele><time>2026-04-04T15:34:55.059Z</time></trkpt><trkpt lat="42.8661081" lon="11.8398242"><ele>508.0</ele><time>2026-04-04T15:34:56.05Z</time></trkpt><trkpt lat="42.8661691" lon="11.8400859"><ele>506.6666666666667</ele><time>2026-04-04T15:34:57.096Z</time></trkpt><trkpt lat="42.8662304" lon="11.8403416"><ele>505.33333333333337</ele><time>2026-04-04T15:34:58.06Z</time></trkpt><trkpt lat="42.8662867" lon="11.8405937"><ele>504.0</ele><time>2026-04-04T15:34:59.048Z</time></trkpt><trkpt lat="42.8663474" lon="11.8408553"><ele>503.33333333333337</ele><time>2026-04-04T15:35:00.066Z</time></trkpt><trkpt lat="42.8663979" lon="11.8411258"><ele>502.6666666666667</ele><time>2026-04-04T15:35:01.055Z</time></trkpt><trkpt lat="42.8664362" lon="11.8414107"><ele>502.0</ele><time>2026-04-04T15:35:02.065Z</time></trkpt><trkpt lat="42.8664612" lon="11.8417138"><ele>503.0</ele><time>2026-04-04T15:35:03.06Z</time></trkpt><trkpt lat="42.8664761" lon="11.8420408"><ele>504.0</ele><time>2026-04-04T15:35:04.047Z</time></trkpt><trkpt lat="42.8664744" lon="11.8423499"><ele>507.33333333333337</ele><time>2026-04-04T15:35:05.06Z</time></trkpt><trkpt lat="42.8664658" lon="11.8426337"><ele>510.6666666666667</ele><time>2026-04-04T15:35:06.056Z</time></trkpt><trkpt lat="42.8664609" lon="11.8428879"><ele>514.0</ele><time>2026-04-04T15:35:07.057Z</time></trkpt><trkpt lat="42.8664724" lon="11.8431182"><ele>514.0</ele><time>2026-04-04T15:35:08.07Z</time></trkpt><trkpt lat="42.8665167" lon="11.8433103"><ele>514.0</ele><time>2026-04-04T15:35:09.059Z</time></trkpt><trkpt lat="42.8665892" lon="11.843488"><ele>514.0</ele><time>2026-04-04T15:35:10.063Z</time></trkpt><trkpt lat="42.8666818" lon="11.8436302"><ele>514.0</ele><time>2026-04-04T15:35:11.064Z</time></trkpt><trkpt lat="42.8667768" lon="11.8437364"><ele>515.75</ele><time>2026-04-04T15:35:12.048Z</time></trkpt><trkpt lat="42.8668936" lon="11.8437966"><ele>517.5</ele><time>2026-04-04T15:35:13.047Z</time></trkpt><trkpt lat="42.8670181" lon="11.8438389"><ele>519.25</ele><time>2026-04-04T15:35:14.064Z</time></trkpt><trkpt lat="42.867148" lon="11.8438714"><ele>521.0</ele><time>2026-04-04T15:35:15.06Z</time></trkpt><trkpt lat="42.8672811" lon="11.843922"><ele>521.0</ele><time>2026-04-04T15:35:16.058Z</time></trkpt><trkpt lat="42.8674185" lon="11.8439752"><ele>521.0</ele><time>2026-04-04T15:35:17.052Z</time></trkpt><trkpt lat="42.8675621" lon="11.8440553"><ele>521.0</ele><time>2026-04-04T15:35:18.064Z</time></trkpt><trkpt lat="42.8676978" lon="11.8441784"><ele>520.0</ele><time>2026-04-04T15:35:19.055Z</time></trkpt><trkpt lat="42.8678322" lon="11.8443292"><ele>519.0</ele><time>2026-04-04T15:35:20.06Z</time></trkpt><trkpt lat="42.8679657" lon="11.8445154"><ele>518.0</ele><time>2026-04-04T15:35:21.057Z</time></trkpt><trkpt lat="42.8680899" lon="11.8447255"><ele>518.0</ele><time>2026-04-04T15:35:22.05Z</time></trkpt><trkpt lat="42.8682046" lon="11.8449663"><ele>518.0</ele><time>2026-04-04T15:35:23.06Z</time></trkpt><trkpt lat="42.8683113" lon="11.845235"><ele>518.0</ele><time>2026-04-04T15:35:24.053Z</time></trkpt><trkpt lat="42.8684026" lon="11.8455175"><ele>520.3333333333333</ele><time>2026-04-04T15:35:25.055Z</time></trkpt><trkpt lat="42.8684601" lon="11.8458003"><ele>522.6666666666666</ele><time>2026-04-04T15:35:26.056Z</time></trkpt><trkpt lat="42.8684974" lon="11.8460784"><ele>525.0</ele><time>2026-04-04T15:35:27.049Z</time></trkpt><trkpt lat="42.8685238" lon="11.8463406"><ele>527.6666666666666</ele><time>2026-04-04T15:35:28.059Z</time></trkpt><trkpt lat="42.8685635" lon="11.8465813"><ele>530.3333333333333</ele><time>2026-04-04T15:35:29.065Z</time></trkpt><trkpt lat="42.8686177" lon="11.8468225"><ele>533.0</ele><time>2026-04-04T15:35:30.057Z</time></trkpt><trkpt lat="42.8686873" lon="11.8470645"><ele>534.0</ele><time>2026-04-04T15:35:31.055Z</time></trkpt><trkpt lat="42.8687854" lon="11.8472896"><ele>535.0</ele><time>2026-04-04T15:35:32.049Z</time></trkpt><trkpt lat="42.8688978" lon="11.8475147"><ele>536.0</ele><time>2026-04-04T15:35:33.058Z</time></trkpt><trkpt lat="42.8690178" lon="11.8477426"><ele>536.0</ele><time>2026-04-04T15:35:34.051Z</time></trkpt><trkpt lat="42.8691349" lon="11.8479732"><ele>536.0</ele><time>2026-04-04T15:35:35.062Z</time></trkpt><trkpt lat="42.8692517" lon="11.8482138"><ele>536.0</ele><time>2026-04-04T15:35:36.057Z</time></trkpt><trkpt lat="42.8693652" lon="11.8484434"><ele>539.0</ele><time>2026-04-04T15:35:37.062Z</time></trkpt><trkpt lat="42.8694702" lon="11.8486523"><ele>542.0</ele><time>2026-04-04T15:35:38.064Z</time></trkpt><trkpt lat="42.8695621" lon="11.8488597"><ele>545.0</ele><time>2026-04-04T15:35:39.053Z</time></trkpt><trkpt lat="42.8696291" lon="11.8490826"><ele>545.0</ele><time>2026-04-04T15:35:40.055Z</time></trkpt><trkpt lat="42.8696759" lon="11.8493259"><ele>545.0</ele><time>2026-04-04T15:35:41.058Z</time></trkpt><trkpt lat="42.8696969" lon="11.84958"><ele>545.0</ele><time>2026-04-04T15:35:42.051Z</time></trkpt><trkpt lat="42.8696933" lon="11.8498488"><ele>545.0</ele><time>2026-04-04T15:35:43.064Z</time></trkpt><trkpt lat="42.8696737" lon="11.8501225"><ele>545.0</ele><time>2026-04-04T15:35:44.06Z</time></trkpt><trkpt lat="42.8696582" lon="11.8503997"><ele>545.0</ele><time>2026-04-04T15:35:45.067Z</time></trkpt><trkpt lat="42.8696341" lon="11.85068"><ele>545.6666666666666</ele><time>2026-04-04T15:35:46.052Z</time></trkpt><trkpt lat="42.8695901" lon="11.8509685"><ele>546.3333333333334</ele><time>2026-04-04T15:35:47.076Z</time></trkpt><trkpt lat="42.8695325" lon="11.8512492"><ele>547.0</ele><time>2026-04-04T15:35:48.058Z</time></trkpt><trkpt lat="42.8694732" lon="11.8515251"><ele>547.0</ele><time>2026-04-04T15:35:49.057Z</time></trkpt><trkpt lat="42.8694191" lon="11.8517896"><ele>547.0</ele><time>2026-04-04T15:35:50.058Z</time></trkpt><trkpt lat="42.8693823" lon="11.8520247"><ele>547.0</ele><time>2026-04-04T15:35:51.056Z</time></trkpt><trkpt lat="42.8693806" lon="11.8522558"><ele>550.0</ele><time>2026-04-04T15:35:52.059Z</time></trkpt><trkpt lat="42.8694114" lon="11.8524581"><ele>553.0</ele><time>2026-04-04T15:35:53.06Z</time></trkpt><trkpt lat="42.8694728" lon="11.8526621"><ele>556.0</ele><time>2026-04-04T15:35:54.059Z</time></trkpt><trkpt lat="42.8695662" lon="11.8528579"><ele>558.0</ele><time>2026-04-04T15:35:55.049Z</time></trkpt><trkpt lat="42.8696687" lon="11.8530377"><ele>560.0</ele><time>2026-04-04T15:35:56.065Z</time></trkpt><trkpt lat="42.8697684" lon="11.8532208"><ele>562.0</ele><time>2026-04-04T15:35:57.056Z</time></trkpt><trkpt lat="42.8698557" lon="11.8534045"><ele>563.6666666666667</ele><time>2026-04-04T15:35:58.06Z</time></trkpt><trkpt lat="42.8699185" lon="11.8535934"><ele>565.3333333333334</ele><time>2026-04-04T15:35:59.065Z</time></trkpt><trkpt lat="42.8699541" lon="11.8537925"><ele>567.0</ele><time>2026-04-04T15:36:00.056Z</time></trkpt><trkpt lat="42.8699683" lon="11.8539937"><ele>567.0</ele><time>2026-04-04T15:36:01.065Z</time></trkpt><trkpt lat="42.8699694" lon="11.854206"><ele>567.0</ele><time>2026-04-04T15:36:02.06Z</time></trkpt><trkpt lat="42.8699688" lon="11.8544269"><ele>567.0</ele><time>2026-04-04T15:36:03.063Z</time></trkpt><trkpt lat="42.8699726" lon="11.8546621"><ele>567.6666666666666</ele><time>2026-04-04T15:36:04.054Z</time></trkpt><trkpt lat="42.8699857" lon="11.8549057"><ele>568.3333333333333</ele><time>2026-04-04T15:36:05.057Z</time></trkpt><trkpt lat="42.8700227" lon="11.8551525"><ele>569.0</ele><time>2026-04-04T15:36:06.051Z</time></trkpt><trkpt lat="42.8700901" lon="11.8554103"><ele>569.0</ele><time>2026-04-04T15:36:07.061Z</time></trkpt><trkpt lat="42.8701633" lon="11.8556821"><ele>569.0</ele><time>2026-04-04T15:36:08.051Z</time></trkpt><trkpt lat="42.8702275" lon="11.8559412"><ele>569.0</ele><time>2026-04-04T15:36:09.061Z</time></trkpt><trkpt lat="42.8702842" lon="11.8561811"><ele>569.3333333333333</ele><time>2026-04-04T15:36:10.059Z</time></trkpt><trkpt lat="42.8703352" lon="11.8564173"><ele>569.6666666666666</ele><time>2026-04-04T15:36:11.063Z</time></trkpt><trkpt lat="42.8703589" lon="11.8566567"><ele>570.0</ele><time>2026-04-04T15:36:12.062Z</time></trkpt><trkpt lat="42.8703562" lon="11.8569256"><ele>569.3333333333334</ele><time>2026-04-04T15:36:13.054Z</time></trkpt><trkpt lat="42.8703423" lon="11.8572064"><ele>568.6666666666667</ele><time>2026-04-04T15:36:14.059Z</time></trkpt><trkpt lat="42.8703388" lon="11.8574821"><ele>568.0</ele><time>2026-04-04T15:36:15.062Z</time></trkpt><trkpt lat="42.8703348" lon="11.8577342"><ele>567.0</ele><time>2026-04-04T15:36:16.057Z</time></trkpt><trkpt lat="42.8703214" lon="11.8579747"><ele>566.0</ele><time>2026-04-04T15:36:17.059Z</time></trkpt><trkpt lat="42.8702798" lon="11.8582099"><ele>565.0</ele><time>2026-04-04T15:36:18.054Z</time></trkpt><trkpt lat="42.8702149" lon="11.8584346"><ele>565.0</ele><time>2026-04-04T15:36:19.056Z</time></trkpt><trkpt lat="42.8701105" lon="11.8586555"><ele>565.0</ele><time>2026-04-04T15:36:20.054Z</time></trkpt><trkpt lat="42.869992" lon="11.8588927"><ele>565.0</ele><time>2026-04-04T15:36:21.061Z</time></trkpt><trkpt lat="42.8698832" lon="11.8591446"><ele>571.0</ele><time>2026-04-04T15:36:22.059Z</time></trkpt><trkpt lat="42.8697768" lon="11.8593923"><ele>577.0</ele><time>2026-04-04T15:36:23.054Z</time></trkpt><trkpt lat="42.8696644" lon="11.8596383"><ele>583.0</ele><time>2026-04-04T15:36:24.053Z</time></trkpt><trkpt lat="42.8695604" lon="11.8598699"><ele>583.0</ele><time>2026-04-04T15:36:25.063Z</time></trkpt><trkpt lat="42.8694665" lon="11.8600802"><ele>583.0</ele><time>2026-04-04T15:36:26.059Z</time></trkpt><trkpt lat="42.8693819" lon="11.8602663"><ele>583.0</ele><time>2026-04-04T15:36:27.049Z</time></trkpt><trkpt lat="42.8693239" lon="11.860448"><ele>583.0</ele><time>2026-04-04T15:36:28.054Z</time></trkpt><trkpt lat="42.869303" lon="11.8606399"><ele>583.0</ele><time>2026-04-04T15:36:29.065Z</time></trkpt><trkpt lat="42.8693227" lon="11.860844"><ele>583.0</ele><time>2026-04-04T15:36:30.052Z</time></trkpt><trkpt lat="42.8693779" lon="11.8610627"><ele>583.0</ele><time>2026-04-04T15:36:31.06Z</time></trkpt><trkpt lat="42.8694627" lon="11.8612768"><ele>583.0</ele><time>2026-04-04T15:36:32.06Z</time></trkpt><trkpt lat="42.8695611" lon="11.8615024"><ele>583.0</ele><time>2026-04-04T15:36:33.057Z</time></trkpt><trkpt lat="42.8696689" lon="11.8617193"><ele>578.6666666666667</ele><time>2026-04-04T15:36:34.061Z</time></trkpt><trkpt lat="42.8697903" lon="11.8619067"><ele>574.3333333333334</ele><time>2026-04-04T15:36:35.052Z</time></trkpt><trkpt lat="42.8699336" lon="11.8620895"><ele>570.0</ele><time>2026-04-04T15:36:36.107Z</time></trkpt><trkpt lat="42.8700963" lon="11.8622583"><ele>571.3333333333334</ele><time>2026-04-04T15:36:37.048Z</time></trkpt><trkpt lat="42.8702765" lon="11.8623868"><ele>572.6666666666667</ele><time>2026-04-04T15:36:38.055Z</time></trkpt><trkpt lat="42.8704616" lon="11.8624947"><ele>574.0</ele><time>2026-04-04T15:36:39.045Z</time></trkpt><trkpt lat="42.8706306" lon="11.8626053"><ele>572.6666666666667</ele><time>2026-04-04T15:36:40.053Z</time></trkpt><trkpt lat="42.8707953" lon="11.8627463"><ele>571.3333333333334</ele><time>2026-04-04T15:36:41.067Z</time></trkpt><trkpt lat="42.8709407" lon="11.8629542"><ele>570.0</ele><time>2026-04-04T15:36:42.06Z</time></trkpt><trkpt lat="42.8710652" lon="11.8631987"><ele>570.0</ele><time>2026-04-04T15:36:43.049Z</time></trkpt><trkpt lat="42.8711943" lon="11.8634677"><ele>570.0</ele><time>2026-04-04T15:36:44.05Z</time></trkpt><trkpt lat="42.8713262" lon="11.8637264"><ele>570.0</ele><time>2026-04-04T15:36:45.049Z</time></trkpt><trkpt lat="42.871448" lon="11.8639609"><ele>570.0</ele><time>2026-04-04T15:36:46.048Z</time></trkpt><trkpt lat="42.8715625" lon="11.8641875"><ele>570.0</ele><time>2026-04-04T15:36:47.061Z</time></trkpt><trkpt lat="42.8716715" lon="11.864417"><ele>569.3333333333334</ele><time>2026-04-04T15:36:48.066Z</time></trkpt><trkpt lat="42.8717709" lon="11.8646647"><ele>568.6666666666667</ele><time>2026-04-04T15:36:49.06Z</time></trkpt><trkpt lat="42.8718449" lon="11.8649401"><ele>568.0</ele><time>2026-04-04T15:36:50.068Z</time></trkpt><trkpt lat="42.8719125" lon="11.8651982"><ele>568.0</ele><time>2026-04-04T15:36:51.062Z</time></trkpt><trkpt lat="42.8719924" lon="11.8654357"><ele>568.0</ele><time>2026-04-04T15:36:52.05Z</time></trkpt><trkpt lat="42.8720893" lon="11.865653"><ele>568.0</ele><time>2026-04-04T15:36:53.074Z</time></trkpt><trkpt lat="42.8722198" lon="11.8658503"><ele>566.6666666666667</ele><time>2026-04-04T15:36:54.075Z</time></trkpt><trkpt lat="42.8723719" lon="11.8660448"><ele>565.3333333333334</ele><time>2026-04-04T15:36:55.052Z</time></trkpt><trkpt lat="42.8725232" lon="11.866232"><ele>564.0</ele><time>2026-04-04T15:36:56.065Z</time></trkpt><trkpt lat="42.8726628" lon="11.8664014"><ele>563.6666666666666</ele><time>2026-04-04T15:36:57.06Z</time></trkpt><trkpt lat="42.8727765" lon="11.8665586"><ele>563.3333333333333</ele><time>2026-04-04T15:36:58.094Z</time></trkpt><trkpt lat="42.8728688" lon="11.8667138"><ele>563.0</ele><time>2026-04-04T15:36:59.063Z</time></trkpt><trkpt lat="42.8729314" lon="11.8669134"><ele>564.3333333333333</ele><time>2026-04-04T15:37:00.056Z</time></trkpt><trkpt lat="42.8729692" lon="11.8671338"><ele>565.6666666666666</ele><time>2026-04-04T15:37:01.065Z</time></trkpt><trkpt lat="42.8729784" lon="11.8673686"><ele>567.0</ele><time>2026-04-04T15:37:02.062Z</time></trkpt><trkpt lat="42.8729908" lon="11.86761"><ele>567.6666666666666</ele><time>2026-04-04T15:37:03.059Z</time></trkpt><trkpt lat="42.8730047" lon="11.8678606"><ele>568.3333333333333</ele><time>2026-04-04T15:37:04.06Z</time></trkpt><trkpt lat="42.8730264" lon="11.868088"><ele>569.0</ele><time>2026-04-04T15:37:05.06Z</time></trkpt><trkpt lat="42.8730659" lon="11.8682873"><ele>567.6666666666666</ele><time>2026-04-04T15:37:06.055Z</time></trkpt><trkpt lat="42.8731303" lon="11.8684726"><ele>566.3333333333334</ele><time>2026-04-04T15:37:07.063Z</time></trkpt><trkpt lat="42.8732153" lon="11.8686536"><ele>565.0</ele><time>2026-04-04T15:37:08.049Z</time></trkpt><trkpt lat="42.8733051" lon="11.8688333"><ele>565.0</ele><time>2026-04-04T15:37:09.06Z</time></trkpt><trkpt lat="42.8734017" lon="11.869027"><ele>565.0</ele><time>2026-04-04T15:37:10.051Z</time></trkpt><trkpt lat="42.8735042" lon="11.8692252"><ele>565.0</ele><time>2026-04-04T15:37:11.066Z</time></trkpt><trkpt lat="42.873597" lon="11.869434"><ele>569.0</ele><time>2026-04-04T15:37:12.062Z</time></trkpt><trkpt lat="42.8736718" lon="11.8696637"><ele>573.0</ele><time>2026-04-04T15:37:13.059Z</time></trkpt><trkpt lat="42.8737177" lon="11.8699149"><ele>577.0</ele><time>2026-04-04T15:37:14.06Z</time></trkpt><trkpt lat="42.8737555" lon="11.8701738"><ele>577.0</ele><time>2026-04-04T15:37:15.047Z</time></trkpt><trkpt lat="42.8737752" lon="11.8704535"><ele>577.0</ele><time>2026-04-04T15:37:16.073Z</time></trkpt><trkpt lat="42.8737907" lon="11.8707425"><ele>577.0</ele><time>2026-04-04T15:37:17.064Z</time></trkpt><trkpt lat="42.873813" lon="11.8710274"><ele>575.3333333333334</ele><time>2026-04-04T15:37:18.051Z</time></trkpt><trkpt lat="42.8738317" lon="11.8712952"><ele>573.6666666666666</ele><time>2026-04-04T15:37:19.058Z</time></trkpt><trkpt lat="42.8738519" lon="11.8715379"><ele>572.0</ele><time>2026-04-04T15:37:20.05Z</time></trkpt><trkpt lat="42.8738713" lon="11.8717676"><ele>570.6666666666666</ele><time>2026-04-04T15:37:21.068Z</time></trkpt><trkpt lat="42.873894" lon="11.8719943"><ele>569.3333333333334</ele><time>2026-04-04T15:37:22.056Z</time></trkpt><trkpt lat="42.8739271" lon="11.8722038"><ele>568.0</ele><time>2026-04-04T15:37:23.058Z</time></trkpt><trkpt lat="42.8739676" lon="11.8724132"><ele>565.6666666666667</ele><time>2026-04-04T15:37:24.053Z</time></trkpt><trkpt lat="42.8740287" lon="11.8726262"><ele>563.3333333333334</ele><time>2026-04-04T15:37:25.06Z</time></trkpt><trkpt lat="42.8741005" lon="11.8728498"><ele>561.0</ele><time>2026-04-04T15:37:26.06Z</time></trkpt><trkpt lat="42.874162" lon="11.8731021"><ele>561.0</ele><time>2026-04-04T15:37:27.066Z</time></trkpt><trkpt lat="42.8742012" lon="11.8733668"><ele>561.0</ele><time>2026-04-04T15:37:28.059Z</time></trkpt><trkpt lat="42.8742099" lon="11.8736281"><ele>561.0</ele><time>2026-04-04T15:37:29.066Z</time></trkpt><trkpt lat="42.8741914" lon="11.873872"><ele>559.6666666666666</ele><time>2026-04-04T15:37:30.064Z</time></trkpt><trkpt lat="42.8741436" lon="11.8741114"><ele>558.3333333333333</ele><time>2026-04-04T15:37:31.046Z</time></trkpt><trkpt lat="42.8740712" lon="11.8743368"><ele>557.0</ele><time>2026-04-04T15:37:32.062Z</time></trkpt><trkpt lat="42.8739912" lon="11.8745725"><ele>560.0</ele><time>2026-04-04T15:37:33.053Z</time></trkpt><trkpt lat="42.8739163" lon="11.8748103"><ele>563.0</ele><time>2026-04-04T15:37:34.061Z</time></trkpt><trkpt lat="42.8738494" lon="11.8750241"><ele>566.0</ele><time>2026-04-04T15:37:35.064Z</time></trkpt><trkpt lat="42.8737853" lon="11.8752219"><ele>569.25</ele><time>2026-04-04T15:37:36.061Z</time></trkpt><trkpt lat="42.8737135" lon="11.8753969"><ele>572.5</ele><time>2026-04-04T15:37:37.053Z</time></trkpt><trkpt lat="42.873635" lon="11.8755538"><ele>575.75</ele><time>2026-04-04T15:37:38.057Z</time></trkpt><trkpt lat="42.8735656" lon="11.8757093"><ele>579.0</ele><time>2026-04-04T15:37:39.055Z</time></trkpt><trkpt lat="42.8734991" lon="11.875859"><ele>577.0</ele><time>2026-04-04T15:37:40.052Z</time></trkpt><trkpt lat="42.8734351" lon="11.8760003"><ele>575.0</ele><time>2026-04-04T15:37:41.061Z</time></trkpt><trkpt lat="42.8733738" lon="11.8761421"><ele>573.0</ele><time>2026-04-04T15:37:42.056Z</time></trkpt><trkpt lat="42.8733095" lon="11.876278"><ele>571.0</ele><time>2026-04-04T15:37:43.06Z</time></trkpt><trkpt lat="42.8732432" lon="11.8764028"><ele>571.0</ele><time>2026-04-04T15:37:44.073Z</time></trkpt><trkpt lat="42.873169" lon="11.8765142"><ele>571.0</ele><time>2026-04-04T15:37:45.064Z</time></trkpt><trkpt lat="42.8730791" lon="11.8766071"><ele>571.0</ele><time>2026-04-04T15:37:46.059Z</time></trkpt><trkpt lat="42.8729987" lon="11.8766992"><ele>571.0</ele><time>2026-04-04T15:37:47.059Z</time></trkpt><trkpt lat="42.8729185" lon="11.8767849"><ele>571.0</ele><time>2026-04-04T15:37:48.053Z</time></trkpt><trkpt lat="42.8728386" lon="11.8768702"><ele>571.1666666666667</ele><time>2026-04-04T15:37:49.056Z</time></trkpt><trkpt lat="42.8727538" lon="11.8769115"><ele>571.3333333333334</ele><time>2026-04-04T15:37:50.053Z</time></trkpt><trkpt lat="42.872666" lon="11.8769119"><ele>571.5</ele><time>2026-04-04T15:37:51.064Z</time></trkpt><trkpt lat="42.87258" lon="11.8768647"><ele>571.6666666666666</ele><time>2026-04-04T15:37:52.057Z</time></trkpt><trkpt lat="42.8725032" lon="11.8768237"><ele>571.8333333333333</ele><time>2026-04-04T15:37:53.054Z</time></trkpt><trkpt lat="42.8724235" lon="11.87679"><ele>572.0</ele><time>2026-04-04T15:37:54.071Z</time></trkpt><trkpt lat="42.8723243" lon="11.8767792"><ele>573.75</ele><time>2026-04-04T15:37:55.078Z</time></trkpt><trkpt lat="42.8722151" lon="11.8767814"><ele>575.5</ele><time>2026-04-04T15:37:56.054Z</time></trkpt><trkpt lat="42.8720918" lon="11.8767871"><ele>577.25</ele><time>2026-04-04T15:37:57.049Z</time></trkpt><trkpt lat="42.8719595" lon="11.8767842"><ele>579.0</ele><time>2026-04-04T15:37:58.053Z</time></trkpt><trkpt lat="42.8718133" lon="11.8767771"><ele>579.75</ele><time>2026-04-04T15:37:59.062Z</time></trkpt><trkpt lat="42.8716578" lon="11.8767747"><ele>580.5</ele><time>2026-04-04T15:38:00.056Z</time></trkpt><trkpt lat="42.8715154" lon="11.8767927"><ele>581.25</ele><time>2026-04-04T15:38:01.067Z</time></trkpt><trkpt lat="42.8713849" lon="11.8768366"><ele>582.0</ele><time>2026-04-04T15:38:02.054Z</time></trkpt><trkpt lat="42.8712573" lon="11.876898"><ele>582.0</ele><time>2026-04-04T15:38:03.065Z</time></trkpt><trkpt lat="42.8711427" lon="11.8769569"><ele>582.0</ele><time>2026-04-04T15:38:04.059Z</time></trkpt><trkpt lat="42.8710283" lon="11.8770161"><ele>582.0</ele><time>2026-04-04T15:38:05.049Z</time></trkpt><trkpt lat="42.8709228" lon="11.8770668"><ele>582.0</ele><time>2026-04-04T15:38:06.048Z</time></trkpt><trkpt lat="42.8708221" lon="11.8771052"><ele>581.5</ele><time>2026-04-04T15:38:07.052Z</time></trkpt><trkpt lat="42.870725" lon="11.8771535"><ele>581.0</ele><time>2026-04-04T15:38:08.053Z</time></trkpt><trkpt lat="42.8706332" lon="11.8771962"><ele>580.5</ele><time>2026-04-04T15:38:09.054Z</time></trkpt><trkpt lat="42.870548" lon="11.8772372"><ele>580.0</ele><time>2026-04-04T15:38:10.061Z</time></trkpt><trkpt lat="42.8704815" lon="11.8772529"><ele>579.5</ele><time>2026-04-04T15:38:11.062Z</time></trkpt><trkpt lat="42.8704047" lon="11.8772085"><ele>579.0</ele><time>2026-04-04T15:38:13.054Z</time></trkpt><trkpt lat="42.870419" lon="11.8771141"><ele>578.9999999999999</ele><time>2026-04-04T15:38:20.052Z</time></trkpt><trkpt lat="42.8704008" lon="11.8770061"><ele>579.0</ele><time>2026-04-04T15:38:23.058Z</time></trkpt><trkpt lat="42.870394" lon="11.8769133"><ele>579.0</ele><time>2026-04-04T15:38:26.054Z</time></trkpt><trkpt lat="42.8703851" lon="11.8768229"><ele>579.0</ele><time>2026-04-04T15:38:30.062Z</time></trkpt><trkpt lat="42.8703822" lon="11.8767124"><ele>579.0</ele><time>2026-04-04T15:38:34.053Z</time></trkpt><trkpt lat="42.8704235" lon="11.8766164"><ele>578.9999999999999</ele><time>2026-04-04T15:38:38.052Z</time></trkpt><trkpt lat="42.8704441" lon="11.8765305"><ele>579.0</ele><time>2026-04-04T15:38:40.055Z</time></trkpt><trkpt lat="42.8704461" lon="11.876437"><ele>571.0</ele><time>2026-04-04T15:40:11.068Z</time></trkpt><trkpt lat="42.8704755" lon="11.8763569"><ele>571.0</ele><time>2026-04-04T15:40:17.062Z</time></trkpt><trkpt lat="42.8704826" lon="11.8762639"><ele>571.0</ele><time>2026-04-04T15:40:22.046Z</time></trkpt><trkpt lat="42.8705048" lon="11.8761828"><ele>571.0</ele><time>2026-04-04T15:40:28.07Z</time></trkpt></trkseg><trkseg><trkpt lat="42.8748324" lon="11.8814346"><ele>563.0</ele><time>2026-04-04T16:00:02.044Z</time></trkpt><trkpt lat="42.8749203" lon="11.8815341"><ele>563.0</ele><time>2026-04-04T16:00:03.042Z</time></trkpt><trkpt lat="42.8752314" lon="11.8819323"><ele>563.0</ele><time>2026-04-04T16:00:06.08Z</time></trkpt><trkpt lat="42.8753456" lon="11.8820788"><ele>563.0</ele><time>2026-04-04T16:00:07.046Z</time></trkpt><trkpt lat="42.8754822" lon="11.882223"><ele>563.0</ele><time>2026-04-04T16:00:08.045Z</time></trkpt><trkpt lat="42.8755994" lon="11.882378"><ele>563.0</ele><time>2026-04-04T16:00:09.047Z</time></trkpt><trkpt lat="42.8757143" lon="11.8825642"><ele>563.0</ele><time>2026-04-04T16:00:10.05Z</time></trkpt><trkpt lat="42.8758248" lon="11.882753"><ele>563.0</ele><time>2026-04-04T16:00:11.049Z</time></trkpt><trkpt lat="42.8759324" lon="11.8829372"><ele>563.3333333333333</ele><time>2026-04-04T16:00:12.052Z</time></trkpt><trkpt lat="42.8760346" lon="11.8831197"><ele>563.6666666666666</ele><time>2026-04-04T16:00:13.066Z</time></trkpt><trkpt lat="42.8761268" lon="11.8832842"><ele>564.0</ele><time>2026-04-04T16:00:14.042Z</time></trkpt><trkpt lat="42.8762219" lon="11.8834372"><ele>561.3333333333334</ele><time>2026-04-04T16:00:15.049Z</time></trkpt><trkpt lat="42.8763392" lon="11.8835695"><ele>558.6666666666667</ele><time>2026-04-04T16:00:16.044Z</time></trkpt><trkpt lat="42.8764783" lon="11.8836665"><ele>556.0</ele><time>2026-04-04T16:00:17.048Z</time></trkpt><trkpt lat="42.8766253" lon="11.8837217"><ele>555.3333333333334</ele><time>2026-04-04T16:00:18.056Z</time></trkpt><trkpt lat="42.8767863" lon="11.8837404"><ele>554.6666666666666</ele><time>2026-04-04T16:00:19.056Z</time></trkpt><trkpt lat="42.8769669" lon="11.8837341"><ele>554.0</ele><time>2026-04-04T16:00:20.073Z</time></trkpt><trkpt lat="42.8771611" lon="11.8837007"><ele>554.0</ele><time>2026-04-04T16:00:21.051Z</time></trkpt><trkpt lat="42.8773674" lon="11.8836751"><ele>554.0</ele><time>2026-04-04T16:00:22.049Z</time></trkpt><trkpt lat="42.8775769" lon="11.8836502"><ele>554.0</ele><time>2026-04-04T16:00:23.045Z</time></trkpt><trkpt lat="42.8777753" lon="11.8836294"><ele>554.0</ele><time>2026-04-04T16:00:24.057Z</time></trkpt><trkpt lat="42.877964" lon="11.8836122"><ele>554.0</ele><time>2026-04-04T16:00:25.062Z</time></trkpt><trkpt lat="42.8781458" lon="11.8836161"><ele>554.0</ele><time>2026-04-04T16:00:26.045Z</time></trkpt><trkpt lat="42.8783139" lon="11.8836389"><ele>553.25</ele><time>2026-04-04T16:00:27.058Z</time></trkpt><trkpt lat="42.8784687" lon="11.8836456"><ele>552.5</ele><time>2026-04-04T16:00:28.051Z</time></trkpt><trkpt lat="42.8786122" lon="11.883612"><ele>551.75</ele><time>2026-04-04T16:00:29.046Z</time></trkpt><trkpt lat="42.8787305" lon="11.8835236"><ele>551.0</ele><time>2026-04-04T16:00:30.047Z</time></trkpt><trkpt lat="42.8788361" lon="11.8833847"><ele>550.3333333333333</ele><time>2026-04-04T16:00:31.053Z</time></trkpt><trkpt lat="42.8789393" lon="11.8832221"><ele>549.6666666666666</ele><time>2026-04-04T16:00:32.044Z</time></trkpt><trkpt lat="42.8790512" lon="11.8830391"><ele>549.0</ele><time>2026-04-04T16:00:33.068Z</time></trkpt><trkpt lat="42.8791653" lon="11.8828664"><ele>548.3333333333334</ele><time>2026-04-04T16:00:34.056Z</time></trkpt><trkpt lat="42.8792948" lon="11.8827286"><ele>547.6666666666667</ele><time>2026-04-04T16:00:35.055Z</time></trkpt><trkpt lat="42.8794337" lon="11.8826298"><ele>547.0</ele><time>2026-04-04T16:00:36.056Z</time></trkpt><trkpt lat="42.8795918" lon="11.8825525"><ele>547.0</ele><time>2026-04-04T16:00:37.057Z</time></trkpt><trkpt lat="42.8797744" lon="11.8825109"><ele>547.0</ele><time>2026-04-04T16:00:38.062Z</time></trkpt><trkpt lat="42.879969" lon="11.8824714"><ele>547.0</ele><time>2026-04-04T16:00:39.06Z</time></trkpt><trkpt lat="42.8801532" lon="11.8824256"><ele>546.6666666666667</ele><time>2026-04-04T16:00:40.043Z</time></trkpt><trkpt lat="42.8803232" lon="11.8823813"><ele>546.3333333333334</ele><time>2026-04-04T16:00:41.059Z</time></trkpt><trkpt lat="42.8804814" lon="11.8823697"><ele>546.0</ele><time>2026-04-04T16:00:42.059Z</time></trkpt><trkpt lat="42.8806391" lon="11.8824145"><ele>546.0</ele><time>2026-04-04T16:00:43.055Z</time></trkpt><trkpt lat="42.8808022" lon="11.8824892"><ele>546.0</ele><time>2026-04-04T16:00:44.068Z</time></trkpt><trkpt lat="42.8809745" lon="11.8825811"><ele>546.0</ele><time>2026-04-04T16:00:45.052Z</time></trkpt><trkpt lat="42.8811678" lon="11.8826766"><ele>543.6666666666666</ele><time>2026-04-04T16:00:46.055Z</time></trkpt><trkpt lat="42.8813752" lon="11.8827558"><ele>541.3333333333333</ele><time>2026-04-04T16:00:47.045Z</time></trkpt><trkpt lat="42.8815793" lon="11.8828184"><ele>539.0</ele><time>2026-04-04T16:00:48.06Z</time></trkpt><trkpt lat="42.8817644" lon="11.8828802"><ele>538.0</ele><time>2026-04-04T16:00:49.055Z</time></trkpt><trkpt lat="42.8819482" lon="11.8829348"><ele>537.0</ele><time>2026-04-04T16:00:50.054Z</time></trkpt><trkpt lat="42.8821348" lon="11.8829647"><ele>536.0</ele><time>2026-04-04T16:00:51.048Z</time></trkpt><trkpt lat="42.8823308" lon="11.8829711"><ele>536.0</ele><time>2026-04-04T16:00:52.042Z</time></trkpt><trkpt lat="42.8825239" lon="11.8829768"><ele>536.0</ele><time>2026-04-04T16:00:53.04Z</time></trkpt><trkpt lat="42.8827068" lon="11.8829848"><ele>536.0</ele><time>2026-04-04T16:00:54.055Z</time></trkpt><trkpt lat="42.8828736" lon="11.883012"><ele>538.3333333333333</ele><time>2026-04-04T16:00:55.065Z</time></trkpt><trkpt lat="42.8830336" lon="11.8830833"><ele>540.6666666666666</ele><time>2026-04-04T16:00:56.037Z</time></trkpt><trkpt lat="42.8831834" lon="11.8831994"><ele>543.0</ele><time>2026-04-04T16:00:57.05Z</time></trkpt><trkpt lat="42.8833172" lon="11.8833692"><ele>544.3333333333334</ele><time>2026-04-04T16:00:58.047Z</time></trkpt><trkpt lat="42.8834396" lon="11.8835673"><ele>545.6666666666667</ele><time>2026-04-04T16:00:59.046Z</time></trkpt><trkpt lat="42.8835566" lon="11.8837564"><ele>547.0</ele><time>2026-04-04T16:01:00.05Z</time></trkpt><trkpt lat="42.8836575" lon="11.8839349"><ele>547.0</ele><time>2026-04-04T16:01:01.055Z</time></trkpt><trkpt lat="42.8837431" lon="11.8840959"><ele>547.0</ele><time>2026-04-04T16:01:02.098Z</time></trkpt><trkpt lat="42.8838386" lon="11.8842089"><ele>547.0</ele><time>2026-04-04T16:01:03.049Z</time></trkpt><trkpt lat="42.8839515" lon="11.8843033"><ele>547.0</ele><time>2026-04-04T16:01:04.043Z</time></trkpt><trkpt lat="42.8840789" lon="11.8843793"><ele>545.0</ele><time>2026-04-04T16:01:05.04Z</time></trkpt><trkpt lat="42.8842353" lon="11.884407"><ele>543.0</ele><time>2026-04-04T16:01:06.052Z</time></trkpt><trkpt lat="42.8844062" lon="11.88443"><ele>541.0</ele><time>2026-04-04T16:01:07.055Z</time></trkpt><trkpt lat="42.8845725" lon="11.8845093"><ele>541.0</ele><time>2026-04-04T16:01:08.05Z</time></trkpt><trkpt lat="42.8847138" lon="11.8846563"><ele>541.0</ele><time>2026-04-04T16:01:09.046Z</time></trkpt><trkpt lat="42.8848342" lon="11.8848056"><ele>541.0</ele><time>2026-04-04T16:01:10.05Z</time></trkpt><trkpt lat="42.8849589" lon="11.8849018"><ele>541.0</ele><time>2026-04-04T16:01:11.052Z</time></trkpt><trkpt lat="42.8850815" lon="11.8849862"><ele>541.0</ele><time>2026-04-04T16:01:12.052Z</time></trkpt><trkpt lat="42.8852076" lon="11.8850214"><ele>541.0</ele><time>2026-04-04T16:01:13.057Z</time></trkpt><trkpt lat="42.8853232" lon="11.8850196"><ele>541.0</ele><time>2026-04-04T16:01:14.054Z</time></trkpt><trkpt lat="42.8854548" lon="11.8849968"><ele>539.0</ele><time>2026-04-04T16:01:15.043Z</time></trkpt><trkpt lat="42.885614" lon="11.8849137"><ele>537.0</ele><time>2026-04-04T16:01:16.067Z</time></trkpt><trkpt lat="42.8858132" lon="11.8847735"><ele>535.0</ele><time>2026-04-04T16:01:17.039Z</time></trkpt><trkpt lat="42.8860366" lon="11.8846592"><ele>534.0</ele><time>2026-04-04T16:01:18.045Z</time></trkpt><trkpt lat="42.8862564" lon="11.8845981"><ele>533.0</ele><time>2026-04-04T16:01:19.051Z</time></trkpt><trkpt lat="42.8864592" lon="11.8845784"><ele>532.0</ele><time>2026-04-04T16:01:20.043Z</time></trkpt><trkpt lat="42.8866486" lon="11.8845737"><ele>529.3333333333334</ele><time>2026-04-04T16:01:21.05Z</time></trkpt><trkpt lat="42.8868252" lon="11.8845612"><ele>526.6666666666666</ele><time>2026-04-04T16:01:22.052Z</time></trkpt><trkpt lat="42.8869951" lon="11.8845214"><ele>524.0</ele><time>2026-04-04T16:01:23.048Z</time></trkpt><trkpt lat="42.8871629" lon="11.8844379"><ele>524.0</ele><time>2026-04-04T16:01:24.044Z</time></trkpt><trkpt lat="42.8873038" lon="11.8843279"><ele>524.0</ele><time>2026-04-04T16:01:25.052Z</time></trkpt><trkpt lat="42.8874334" lon="11.8841963"><ele>524.0</ele><time>2026-04-04T16:01:26.049Z</time></trkpt><trkpt lat="42.8875391" lon="11.8840392"><ele>527.25</ele><time>2026-04-04T16:01:27.053Z</time></trkpt><trkpt lat="42.8876281" lon="11.8838767"><ele>530.5</ele><time>2026-04-04T16:01:28.054Z</time></trkpt><trkpt lat="42.887713" lon="11.8837308"><ele>533.75</ele><time>2026-04-04T16:01:29.055Z</time></trkpt><trkpt lat="42.8878022" lon="11.8836499"><ele>537.0</ele><time>2026-04-04T16:01:30.102Z</time></trkpt><trkpt lat="42.8879106" lon="11.8836522"><ele>537.0</ele><time>2026-04-04T16:01:31.052Z</time></trkpt><trkpt lat="42.8880222" lon="11.8837025"><ele>537.0</ele><time>2026-04-04T16:01:32.057Z</time></trkpt><trkpt lat="42.8881242" lon="11.8837913"><ele>537.0</ele><time>2026-04-04T16:01:33.056Z</time></trkpt><trkpt lat="42.8882383" lon="11.8838901"><ele>537.0</ele><time>2026-04-04T16:01:34.053Z</time></trkpt><trkpt lat="42.8883601" lon="11.8839749"><ele>537.3333333333334</ele><time>2026-04-04T16:01:35.05Z</time></trkpt><trkpt lat="42.8884998" lon="11.884032"><ele>537.6666666666667</ele><time>2026-04-04T16:01:36.056Z</time></trkpt><trkpt lat="42.8886689" lon="11.8840585"><ele>538.0</ele><time>2026-04-04T16:01:37.054Z</time></trkpt><trkpt lat="42.8888447" lon="11.8840742"><ele>538.0</ele><time>2026-04-04T16:01:38.053Z</time></trkpt><trkpt lat="42.8890342" lon="11.8841088"><ele>538.0</ele><time>2026-04-04T16:01:39.047Z</time></trkpt><trkpt lat="42.8892366" lon="11.8841514"><ele>538.0</ele><time>2026-04-04T16:01:40.049Z</time></trkpt><trkpt lat="42.8894279" lon="11.8841619"><ele>538.0</ele><time>2026-04-04T16:01:41.053Z</time></trkpt><trkpt lat="42.8896123" lon="11.8841492"><ele>538.0</ele><time>2026-04-04T16:01:42.047Z</time></trkpt><trkpt lat="42.8898023" lon="11.8841214"><ele>538.0</ele><time>2026-04-04T16:01:43.058Z</time></trkpt><trkpt lat="42.889983" lon="11.8841105"><ele>538.0</ele><time>2026-04-04T16:01:44.047Z</time></trkpt><trkpt lat="42.8901626" lon="11.8841383"><ele>538.0</ele><time>2026-04-04T16:01:45.045Z</time></trkpt><trkpt lat="42.8903449" lon="11.8841854"><ele>538.0</ele><time>2026-04-04T16:01:46.051Z</time></trkpt><trkpt lat="42.8905229" lon="11.8842456"><ele>533.3333333333334</ele><time>2026-04-04T16:01:47.047Z</time></trkpt><trkpt lat="42.8906934" lon="11.8843045"><ele>528.6666666666666</ele><time>2026-04-04T16:01:48.058Z</time></trkpt><trkpt lat="42.8908541" lon="11.884348"><ele>524.0</ele><time>2026-04-04T16:01:49.049Z</time></trkpt><trkpt lat="42.8910113" lon="11.8843781"><ele>523.75</ele><time>2026-04-04T16:01:50.049Z</time></trkpt><trkpt lat="42.8911575" lon="11.8843623"><ele>523.5</ele><time>2026-04-04T16:01:51.055Z</time></trkpt><trkpt lat="42.8912905" lon="11.8843013"><ele>523.25</ele><time>2026-04-04T16:01:52.041Z</time></trkpt><trkpt lat="42.8914222" lon="11.8841845"><ele>523.0</ele><time>2026-04-04T16:01:53.059Z</time></trkpt><trkpt lat="42.89155" lon="11.8840372"><ele>525.25</ele><time>2026-04-04T16:01:54.045Z</time></trkpt><trkpt lat="42.8916753" lon="11.8838875"><ele>527.5</ele><time>2026-04-04T16:01:55.058Z</time></trkpt><trkpt lat="42.8917891" lon="11.8837692"><ele>529.75</ele><time>2026-04-04T16:01:56.056Z</time></trkpt><trkpt lat="42.8918907" lon="11.8836686"><ele>532.0</ele><time>2026-04-04T16:01:57.049Z</time></trkpt><trkpt lat="42.8919893" lon="11.8836019"><ele>532.0</ele><time>2026-04-04T16:01:58.067Z</time></trkpt><trkpt lat="42.8921606" lon="11.8836601"><ele>532.0</ele><time>2026-04-04T16:02:00.041Z</time></trkpt><trkpt lat="42.8922264" lon="11.8837513"><ele>532.0</ele><time>2026-04-04T16:02:01.055Z</time></trkpt><trkpt lat="42.8922831" lon="11.8838746"><ele>532.0</ele><time>2026-04-04T16:02:02.048Z</time></trkpt><trkpt lat="42.8923448" lon="11.8840174"><ele>532.0</ele><time>2026-04-04T16:02:03.049Z</time></trkpt><trkpt lat="42.8924269" lon="11.8841639"><ele>532.0</ele><time>2026-04-04T16:02:04.045Z</time></trkpt><trkpt lat="42.8925437" lon="11.8843061"><ele>532.0</ele><time>2026-04-04T16:02:05.046Z</time></trkpt><trkpt lat="42.8926728" lon="11.8844221"><ele>532.0</ele><time>2026-04-04T16:02:06.052Z</time></trkpt><trkpt lat="42.89283" lon="11.8844667"><ele>527.0</ele><time>2026-04-04T16:02:07.051Z</time></trkpt><trkpt lat="42.892995" lon="11.8844511"><ele>522.0</ele><time>2026-04-04T16:02:08.055Z</time></trkpt><trkpt lat="42.8931469" lon="11.8843888"><ele>517.0</ele><time>2026-04-04T16:02:09.048Z</time></trkpt><trkpt lat="42.8932845" lon="11.884307"><ele>518.5</ele><time>2026-04-04T16:02:10.048Z</time></trkpt><trkpt lat="42.893411" lon="11.8842427"><ele>520.0</ele><time>2026-04-04T16:02:11.048Z</time></trkpt><trkpt lat="42.8935401" lon="11.8842118"><ele>521.5</ele><time>2026-04-04T16:02:12.049Z</time></trkpt><trkpt lat="42.8936692" lon="11.8842281"><ele>523.0</ele><time>2026-04-04T16:02:13.056Z</time></trkpt><trkpt lat="42.8937869" lon="11.88429"><ele>523.0</ele><time>2026-04-04T16:02:14.047Z</time></trkpt><trkpt lat="42.8938947" lon="11.8843881"><ele>523.0</ele><time>2026-04-04T16:02:15.07Z</time></trkpt><trkpt lat="42.8939905" lon="11.8845113"><ele>523.0</ele><time>2026-04-04T16:02:16.058Z</time></trkpt><trkpt lat="42.8940706" lon="11.8846353"><ele>523.0</ele><time>2026-04-04T16:02:17.048Z</time></trkpt><trkpt lat="42.8941597" lon="11.8847519"><ele>523.0</ele><time>2026-04-04T16:02:18.045Z</time></trkpt><trkpt lat="42.8942531" lon="11.8848683"><ele>523.0</ele><time>2026-04-04T16:02:19.053Z</time></trkpt><trkpt lat="42.8943527" lon="11.8849909"><ele>523.0</ele><time>2026-04-04T16:02:20.046Z</time></trkpt><trkpt lat="42.8944631" lon="11.8851272"><ele>523.0</ele><time>2026-04-04T16:02:21.05Z</time></trkpt><trkpt lat="42.8945849" lon="11.8852509"><ele>522.5</ele><time>2026-04-04T16:02:22.048Z</time></trkpt><trkpt lat="42.8947032" lon="11.8853659"><ele>522.0</ele><time>2026-04-04T16:02:23.053Z</time></trkpt><trkpt lat="42.8948201" lon="11.885474"><ele>521.5</ele><time>2026-04-04T16:02:24.056Z</time></trkpt><trkpt lat="42.8949457" lon="11.8855903"><ele>521.0</ele><time>2026-04-04T16:02:25.046Z</time></trkpt><trkpt lat="42.895084" lon="11.8857182"><ele>519.6666666666666</ele><time>2026-04-04T16:02:26.066Z</time></trkpt><trkpt lat="42.8952279" lon="11.8858549"><ele>518.3333333333334</ele><time>2026-04-04T16:02:27.054Z</time></trkpt><trkpt lat="42.8953685" lon="11.8859914"><ele>517.0</ele><time>2026-04-04T16:02:28.052Z</time></trkpt><trkpt lat="42.8955027" lon="11.8861155"><ele>517.0</ele><time>2026-04-04T16:02:29.047Z</time></trkpt><trkpt lat="42.895629" lon="11.8862357"><ele>517.0</ele><time>2026-04-04T16:02:30.058Z</time></trkpt><trkpt lat="42.8957511" lon="11.8863546"><ele>517.0</ele><time>2026-04-04T16:02:31.059Z</time></trkpt><trkpt lat="42.8958661" lon="11.8864812"><ele>517.0</ele><time>2026-04-04T16:02:32.049Z</time></trkpt><trkpt lat="42.8959698" lon="11.88661"><ele>517.0</ele><time>2026-04-04T16:02:33.047Z</time></trkpt><trkpt lat="42.8960515" lon="11.8867635"><ele>517.0</ele><time>2026-04-04T16:02:34.057Z</time></trkpt><trkpt lat="42.8961103" lon="11.886922"><ele>517.0</ele><time>2026-04-04T16:02:35.047Z</time></trkpt><trkpt lat="42.8961583" lon="11.8870792"><ele>517.0</ele><time>2026-04-04T16:02:36.054Z</time></trkpt><trkpt lat="42.8962061" lon="11.8872335"><ele>517.0</ele><time>2026-04-04T16:02:37.054Z</time></trkpt><trkpt lat="42.8962503" lon="11.8873774"><ele>517.0</ele><time>2026-04-04T16:02:38.051Z</time></trkpt><trkpt lat="42.8963162" lon="11.8875105"><ele>517.0</ele><time>2026-04-04T16:02:39.049Z</time></trkpt><trkpt lat="42.8964019" lon="11.8876048"><ele>517.25</ele><time>2026-04-04T16:02:40.05Z</time></trkpt><trkpt lat="42.8965056" lon="11.8876628"><ele>517.5</ele><time>2026-04-04T16:02:41.055Z</time></trkpt><trkpt lat="42.8966219" lon="11.8876787"><ele>517.75</ele><time>2026-04-04T16:02:42.053Z</time></trkpt><trkpt lat="42.8967397" lon="11.8876684"><ele>518.0</ele><time>2026-04-04T16:02:43.066Z</time></trkpt><trkpt lat="42.8968528" lon="11.8876535"><ele>518.0</ele><time>2026-04-04T16:02:44.051Z</time></trkpt><trkpt lat="42.8969613" lon="11.8876509"><ele>518.0</ele><time>2026-04-04T16:02:45.053Z</time></trkpt><trkpt lat="42.8970597" lon="11.8876935"><ele>518.0</ele><time>2026-04-04T16:02:46.06Z</time></trkpt><trkpt lat="42.8971211" lon="11.8878399"><ele>518.0</ele><time>2026-04-04T16:02:47.05Z</time></trkpt><trkpt lat="42.8971405" lon="11.8879871"><ele>518.0</ele><time>2026-04-04T16:02:48.056Z</time></trkpt><trkpt lat="42.8971095" lon="11.8881186"><ele>518.0</ele><time>2026-04-04T16:02:49.052Z</time></trkpt><trkpt lat="42.8970383" lon="11.8882485"><ele>518.0</ele><time>2026-04-04T16:02:50.063Z</time></trkpt><trkpt lat="42.8969467" lon="11.8883503"><ele>518.0</ele><time>2026-04-04T16:02:51.046Z</time></trkpt><trkpt lat="42.8968569" lon="11.8884385"><ele>518.0</ele><time>2026-04-04T16:02:52.053Z</time></trkpt><trkpt lat="42.8967728" lon="11.8885385"><ele>513.75</ele><time>2026-04-04T16:02:53.048Z</time></trkpt><trkpt lat="42.8966959" lon="11.8886432"><ele>509.5</ele><time>2026-04-04T16:02:54.064Z</time></trkpt><trkpt lat="42.896623" lon="11.8887775"><ele>505.25</ele><time>2026-04-04T16:02:55.052Z</time></trkpt><trkpt lat="42.8965779" lon="11.8889433"><ele>501.0</ele><time>2026-04-04T16:02:56.054Z</time></trkpt><trkpt lat="42.8965663" lon="11.889108"><ele>501.0</ele><time>2026-04-04T16:02:57.061Z</time></trkpt><trkpt lat="42.8965951" lon="11.8892484"><ele>501.0</ele><time>2026-04-04T16:02:58.054Z</time></trkpt><trkpt lat="42.896655" lon="11.8893609"><ele>501.0</ele><time>2026-04-04T16:02:59.051Z</time></trkpt><trkpt lat="42.8967543" lon="11.8894251"><ele>501.0</ele><time>2026-04-04T16:03:00.055Z</time></trkpt><trkpt lat="42.8968729" lon="11.8894668"><ele>501.0</ele><time>2026-04-04T16:03:01.062Z</time></trkpt><trkpt lat="42.896985" lon="11.8894868"><ele>501.5</ele><time>2026-04-04T16:03:02.055Z</time></trkpt><trkpt lat="42.8970912" lon="11.8895428"><ele>502.0</ele><time>2026-04-04T16:03:03.057Z</time></trkpt><trkpt lat="42.8971744" lon="11.8896486"><ele>502.5</ele><time>2026-04-04T16:03:04.061Z</time></trkpt><trkpt lat="42.8972531" lon="11.8897799"><ele>503.0</ele><time>2026-04-04T16:03:05.057Z</time></trkpt><trkpt lat="42.8973246" lon="11.8899052"><ele>503.0</ele><time>2026-04-04T16:03:06.059Z</time></trkpt><trkpt lat="42.8973942" lon="11.8900106"><ele>502.99999999999994</ele><time>2026-04-04T16:03:07.061Z</time></trkpt><trkpt lat="42.8974575" lon="11.8901216"><ele>502.99999999999994</ele><time>2026-04-04T16:03:08.071Z</time></trkpt><trkpt lat="42.8975155" lon="11.89023"><ele>503.0</ele><time>2026-04-04T16:03:09.055Z</time></trkpt><trkpt lat="42.8975151" lon="11.8903471"><ele>503.0</ele><time>2026-04-04T16:03:10.059Z</time></trkpt><trkpt lat="42.8974858" lon="11.8904762"><ele>501.79999999999995</ele><time>2026-04-04T16:03:11.064Z</time></trkpt><trkpt lat="42.8974329" lon="11.8906136"><ele>500.59999999999997</ele><time>2026-04-04T16:03:12.061Z</time></trkpt><trkpt lat="42.897384" lon="11.8907333"><ele>499.40000000000003</ele><time>2026-04-04T16:03:13.048Z</time></trkpt><trkpt lat="42.8973561" lon="11.8908637"><ele>498.20000000000005</ele><time>2026-04-04T16:03:14.093Z</time></trkpt><trkpt lat="42.8973403" lon="11.8909996"><ele>497.0</ele><time>2026-04-04T16:03:15.059Z</time></trkpt><trkpt lat="42.8973462" lon="11.8911499"><ele>495.5</ele><time>2026-04-04T16:03:16.053Z</time></trkpt><trkpt lat="42.8973658" lon="11.8913017"><ele>494.0</ele><time>2026-04-04T16:03:17.056Z</time></trkpt><trkpt lat="42.8974156" lon="11.8914566"><ele>492.5</ele><time>2026-04-04T16:03:18.061Z</time></trkpt><trkpt lat="42.8974841" lon="11.8916152"><ele>491.0</ele><time>2026-04-04T16:03:19.058Z</time></trkpt><trkpt lat="42.8975502" lon="11.8917713"><ele>492.6</ele><time>2026-04-04T16:03:20.049Z</time></trkpt><trkpt lat="42.8975864" lon="11.891914"><ele>494.20000000000005</ele><time>2026-04-04T16:03:21.057Z</time></trkpt><trkpt lat="42.8975979" lon="11.8920473"><ele>495.79999999999995</ele><time>2026-04-04T16:03:22.056Z</time></trkpt><trkpt lat="42.8975971" lon="11.8921681"><ele>497.4</ele><time>2026-04-04T16:03:23.059Z</time></trkpt><trkpt lat="42.8976056" lon="11.8922672"><ele>499.0</ele><time>2026-04-04T16:03:24.056Z</time></trkpt><trkpt lat="42.8976259" lon="11.892413"><ele>499.00000000000006</ele><time>2026-04-04T16:03:26.05Z</time></trkpt><trkpt lat="42.8976503" lon="11.8924951"><ele>499.0</ele><time>2026-04-04T16:03:29.053Z</time></trkpt><trkpt lat="42.8976987" lon="11.8925942"><ele>499.0</ele><time>2026-04-04T16:04:46.083Z</time></trkpt><trkpt lat="42.8977282" lon="11.8926747"><ele>499.0</ele><time>2026-04-04T16:04:47.07Z</time></trkpt><trkpt lat="42.8977729" lon="11.8927622"><ele>499.00000000000006</ele><time>2026-04-04T16:04:48.076Z</time></trkpt><trkpt lat="42.897825" lon="11.892867"><ele>499.0</ele><time>2026-04-04T16:04:49.064Z</time></trkpt><trkpt lat="42.8978753" lon="11.8929937"><ele>496.25</ele><time>2026-04-04T16:04:50.068Z</time></trkpt><trkpt lat="42.8979149" lon="11.8931351"><ele>493.5</ele><time>2026-04-04T16:04:51.056Z</time></trkpt><trkpt lat="42.8979591" lon="11.893269"><ele>490.75</ele><time>2026-04-04T16:04:52.071Z</time></trkpt><trkpt lat="42.8980201" lon="11.8934059"><ele>488.0</ele><time>2026-04-04T16:04:53.065Z</time></trkpt><trkpt lat="42.8981095" lon="11.8935307"><ele>483.75</ele><time>2026-04-04T16:04:54.067Z</time></trkpt><trkpt lat="42.8982179" lon="11.8936535"><ele>479.5</ele><time>2026-04-04T16:04:55.078Z</time></trkpt><trkpt lat="42.8983339" lon="11.8937741"><ele>475.25</ele><time>2026-04-04T16:04:56.075Z</time></trkpt><trkpt lat="42.898456" lon="11.8938894"><ele>471.0</ele><time>2026-04-04T16:04:57.069Z</time></trkpt><trkpt lat="42.8985856" lon="11.8939996"><ele>471.0</ele><time>2026-04-04T16:04:58.065Z</time></trkpt><trkpt lat="42.8987269" lon="11.8941099"><ele>471.0</ele><time>2026-04-04T16:04:59.065Z</time></trkpt><trkpt lat="42.8988685" lon="11.8942172"><ele>471.0</ele><time>2026-04-04T16:05:00.058Z</time></trkpt><trkpt lat="42.899012" lon="11.8943165"><ele>467.5</ele><time>2026-04-04T16:05:01.067Z</time></trkpt><trkpt lat="42.8991478" lon="11.8944161"><ele>464.0</ele><time>2026-04-04T16:05:02.063Z</time></trkpt><trkpt lat="42.8992772" lon="11.8945135"><ele>460.5</ele><time>2026-04-04T16:05:03.069Z</time></trkpt><trkpt lat="42.8994056" lon="11.8946074"><ele>457.0</ele><time>2026-04-04T16:05:04.07Z</time></trkpt><trkpt lat="42.8995327" lon="11.8946943"><ele>457.0</ele><time>2026-04-04T16:05:05.063Z</time></trkpt><trkpt lat="42.899663" lon="11.8947652"><ele>457.0</ele><time>2026-04-04T16:05:06.073Z</time></trkpt><trkpt lat="42.8997963" lon="11.8948254"><ele>457.0</ele><time>2026-04-04T16:05:07.09Z</time></trkpt><trkpt lat="42.8999299" lon="11.8948695"><ele>457.0</ele><time>2026-04-04T16:05:08.056Z</time></trkpt><trkpt lat="42.9000626" lon="11.8949108"><ele>456.75</ele><time>2026-04-04T16:05:09.061Z</time></trkpt><trkpt lat="42.9001906" lon="11.8949626"><ele>456.5</ele><time>2026-04-04T16:05:10.061Z</time></trkpt><trkpt lat="42.9003064" lon="11.8950528"><ele>456.25</ele><time>2026-04-04T16:05:11.061Z</time></trkpt><trkpt lat="42.9004145" lon="11.8951405"><ele>456.0</ele><time>2026-04-04T16:05:12.073Z</time></trkpt><trkpt lat="42.9005281" lon="11.8952107"><ele>457.25</ele><time>2026-04-04T16:05:13.067Z</time></trkpt><trkpt lat="42.9006455" lon="11.8952603"><ele>458.5</ele><time>2026-04-04T16:05:14.062Z</time></trkpt><trkpt lat="42.9007669" lon="11.8952895"><ele>459.75</ele><time>2026-04-04T16:05:15.065Z</time></trkpt><trkpt lat="42.9008791" lon="11.8953174"><ele>461.0</ele><time>2026-04-04T16:05:16.069Z</time></trkpt><trkpt lat="42.9009713" lon="11.8953766"><ele>461.0</ele><time>2026-04-04T16:05:17.063Z</time></trkpt><trkpt lat="42.9010395" lon="11.8954768"><ele>461.0</ele><time>2026-04-04T16:05:18.066Z</time></trkpt><trkpt lat="42.9010787" lon="11.8956096"><ele>461.0</ele><time>2026-04-04T16:05:19.053Z</time></trkpt><trkpt lat="42.9010826" lon="11.8957627"><ele>461.0</ele><time>2026-04-04T16:05:20.063Z</time></trkpt><trkpt lat="42.9010704" lon="11.8959207"><ele>461.0</ele><time>2026-04-04T16:05:21.068Z</time></trkpt><trkpt lat="42.9010515" lon="11.8960789"><ele>461.0</ele><time>2026-04-04T16:05:22.063Z</time></trkpt><trkpt lat="42.9010339" lon="11.896243"><ele>461.0</ele><time>2026-04-04T16:05:23.085Z</time></trkpt><trkpt lat="42.9010205" lon="11.8964073"><ele>461.0</ele><time>2026-04-04T16:05:24.108Z</time></trkpt><trkpt lat="42.9009982" lon="11.8965707"><ele>461.0</ele><time>2026-04-04T16:05:25.063Z</time></trkpt><trkpt lat="42.9009752" lon="11.8967447"><ele>459.25</ele><time>2026-04-04T16:05:26.068Z</time></trkpt><trkpt lat="42.9009576" lon="11.8969218"><ele>457.5</ele><time>2026-04-04T16:05:27.063Z</time></trkpt><trkpt lat="42.9009508" lon="11.8970788"><ele>455.75</ele><time>2026-04-04T16:05:28.06Z</time></trkpt><trkpt lat="42.9009712" lon="11.8972335"><ele>454.0</ele><time>2026-04-04T16:05:29.062Z</time></trkpt><trkpt lat="42.9010232" lon="11.8973772"><ele>454.0</ele><time>2026-04-04T16:05:30.063Z</time></trkpt><trkpt lat="42.901111" lon="11.8975053"><ele>454.0</ele><time>2026-04-04T16:05:31.058Z</time></trkpt><trkpt lat="42.9012143" lon="11.8975918"><ele>454.0</ele><time>2026-04-04T16:05:32.065Z</time></trkpt><trkpt lat="42.9013281" lon="11.8976549"><ele>454.0</ele><time>2026-04-04T16:05:33.055Z</time></trkpt><trkpt lat="42.9014564" lon="11.8977159"><ele>453.75</ele><time>2026-04-04T16:05:34.059Z</time></trkpt><trkpt lat="42.9015938" lon="11.8977919"><ele>453.5</ele><time>2026-04-04T16:05:35.054Z</time></trkpt><trkpt lat="42.9017216" lon="11.8978738"><ele>453.25</ele><time>2026-04-04T16:05:36.067Z</time></trkpt><trkpt lat="42.9018416" lon="11.8979684"><ele>453.0</ele><time>2026-04-04T16:05:37.058Z</time></trkpt><trkpt lat="42.901964" lon="11.8980789"><ele>453.0</ele><time>2026-04-04T16:05:38.062Z</time></trkpt><trkpt lat="42.9020781" lon="11.8981982"><ele>453.0</ele><time>2026-04-04T16:05:39.089Z</time></trkpt><trkpt lat="42.9021731" lon="11.8983293"><ele>453.0</ele><time>2026-04-04T16:05:40.059Z</time></trkpt><trkpt lat="42.9022611" lon="11.898474"><ele>453.0</ele><time>2026-04-04T16:05:41.069Z</time></trkpt><trkpt lat="42.9023411" lon="11.8986332"><ele>454.5</ele><time>2026-04-04T16:05:42.071Z</time></trkpt><trkpt lat="42.9024191" lon="11.8987927"><ele>456.0</ele><time>2026-04-04T16:05:43.065Z</time></trkpt><trkpt lat="42.9024886" lon="11.8989497"><ele>457.5</ele><time>2026-04-04T16:05:44.057Z</time></trkpt><trkpt lat="42.9025383" lon="11.8991032"><ele>459.0</ele><time>2026-04-04T16:05:45.06Z</time></trkpt><trkpt lat="42.9025845" lon="11.8992491"><ele>455.5</ele><time>2026-04-04T16:05:46.061Z</time></trkpt><trkpt lat="42.902639" lon="11.8993729"><ele>452.0</ele><time>2026-04-04T16:05:47.073Z</time></trkpt><trkpt lat="42.9027111" lon="11.8994883"><ele>448.5</ele><time>2026-04-04T16:05:48.061Z</time></trkpt><trkpt lat="42.9028153" lon="11.899592"><ele>445.0</ele><time>2026-04-04T16:05:49.11Z</time></trkpt><trkpt lat="42.9029367" lon="11.8996772"><ele>445.0</ele><time>2026-04-04T16:05:50.069Z</time></trkpt><trkpt lat="42.9030588" lon="11.8997507"><ele>445.0</ele><time>2026-04-04T16:05:51.054Z</time></trkpt><trkpt lat="42.9031771" lon="11.8998252"><ele>445.0</ele><time>2026-04-04T16:05:52.051Z</time></trkpt><trkpt lat="42.9032912" lon="11.8999059"><ele>445.0</ele><time>2026-04-04T16:05:53.061Z</time></trkpt><trkpt lat="42.9033957" lon="11.8999875"><ele>446.5</ele><time>2026-04-04T16:05:54.058Z</time></trkpt><trkpt lat="42.9034961" lon="11.9000883"><ele>448.0</ele><time>2026-04-04T16:05:55.058Z</time></trkpt><trkpt lat="42.9035932" lon="11.9002095"><ele>449.5</ele><time>2026-04-04T16:05:56.085Z</time></trkpt><trkpt lat="42.9036605" lon="11.9003574"><ele>451.0</ele><time>2026-04-04T16:05:57.057Z</time></trkpt><trkpt lat="42.9036972" lon="11.9005188"><ele>451.0</ele><time>2026-04-04T16:05:58.051Z</time></trkpt><trkpt lat="42.9037099" lon="11.9006923"><ele>451.0</ele><time>2026-04-04T16:05:59.049Z</time></trkpt><trkpt lat="42.9037334" lon="11.9008712"><ele>451.0</ele><time>2026-04-04T16:06:00.054Z</time></trkpt><trkpt lat="42.9037651" lon="11.90104"><ele>451.0</ele><time>2026-04-04T16:06:01.062Z</time></trkpt><trkpt lat="42.9038071" lon="11.901189"><ele>448.5</ele><time>2026-04-04T16:06:02.058Z</time></trkpt><trkpt lat="42.9038755" lon="11.9013128"><ele>446.0</ele><time>2026-04-04T16:06:03.064Z</time></trkpt><trkpt lat="42.9039742" lon="11.901412"><ele>443.5</ele><time>2026-04-04T16:06:04.06Z</time></trkpt><trkpt lat="42.9040984" lon="11.9014999"><ele>441.0</ele><time>2026-04-04T16:06:05.055Z</time></trkpt><trkpt lat="42.9042485" lon="11.901533"><ele>441.0</ele><time>2026-04-04T16:06:06.064Z</time></trkpt><trkpt lat="42.9044086" lon="11.9015335"><ele>441.0</ele><time>2026-04-04T16:06:07.055Z</time></trkpt><trkpt lat="42.904572" lon="11.9014886"><ele>441.0</ele><time>2026-04-04T16:06:08.066Z</time></trkpt><trkpt lat="42.9047101" lon="11.9014451"><ele>441.0</ele><time>2026-04-04T16:06:09.051Z</time></trkpt><trkpt lat="42.9048264" lon="11.9014233"><ele>441.0</ele><time>2026-04-04T16:06:10.056Z</time></trkpt><trkpt lat="42.9049377" lon="11.901419"><ele>441.0</ele><time>2026-04-04T16:06:11.059Z</time></trkpt><trkpt lat="42.905048" lon="11.9014508"><ele>441.0</ele><time>2026-04-04T16:06:12.053Z</time></trkpt><trkpt lat="42.9051505" lon="11.9014971"><ele>441.0</ele><time>2026-04-04T16:06:13.058Z</time></trkpt><trkpt lat="42.9052424" lon="11.9015625"><ele>443.4</ele><time>2026-04-04T16:06:14.058Z</time></trkpt><trkpt lat="42.9053099" lon="11.9016659"><ele>445.8</ele><time>2026-04-04T16:06:15.058Z</time></trkpt><trkpt lat="42.9053255" lon="11.9017936"><ele>448.19999999999993</ele><time>2026-04-04T16:06:16.067Z</time></trkpt><trkpt lat="42.9053121" lon="11.9019275"><ele>450.59999999999997</ele><time>2026-04-04T16:06:17.054Z</time></trkpt><trkpt lat="42.9052718" lon="11.9020641"><ele>453.0</ele><time>2026-04-04T16:06:18.065Z</time></trkpt><trkpt lat="42.9051825" lon="11.9021888"><ele>453.0</ele><time>2026-04-04T16:06:19.06Z</time></trkpt><trkpt lat="42.9050682" lon="11.9023293"><ele>453.0</ele><time>2026-04-04T16:06:20.052Z</time></trkpt><trkpt lat="42.9049494" lon="11.9024966"><ele>453.0</ele><time>2026-04-04T16:06:21.05Z</time></trkpt><trkpt lat="42.9048281" lon="11.9026711"><ele>453.0</ele><time>2026-04-04T16:06:22.059Z</time></trkpt><trkpt lat="42.9047142" lon="11.9028298"><ele>453.0</ele><time>2026-04-04T16:06:23.046Z</time></trkpt><trkpt lat="42.9046093" lon="11.9029814"><ele>453.0</ele><time>2026-04-04T16:06:24.049Z</time></trkpt><trkpt lat="42.9045056" lon="11.9031237"><ele>453.0</ele><time>2026-04-04T16:06:25.061Z</time></trkpt><trkpt lat="42.9044024" lon="11.9032632"><ele>453.0</ele><time>2026-04-04T16:06:26.051Z</time></trkpt><trkpt lat="42.9043045" lon="11.9033961"><ele>453.0</ele><time>2026-04-04T16:06:27.056Z</time></trkpt><trkpt lat="42.904216" lon="11.9035226"><ele>453.0</ele><time>2026-04-04T16:06:28.053Z</time></trkpt><trkpt lat="42.9041361" lon="11.9036512"><ele>448.0</ele><time>2026-04-04T16:06:29.047Z</time></trkpt><trkpt lat="42.9040812" lon="11.903814"><ele>443.0</ele><time>2026-04-04T16:06:30.049Z</time></trkpt><trkpt lat="42.9040793" lon="11.9039875"><ele>438.0</ele><time>2026-04-04T16:06:31.061Z</time></trkpt><trkpt lat="42.9041056" lon="11.9041824"><ele>433.0</ele><time>2026-04-04T16:06:32.049Z</time></trkpt><trkpt lat="42.904122" lon="11.9043779"><ele>430.5</ele><time>2026-04-04T16:06:33.046Z</time></trkpt><trkpt lat="42.9041384" lon="11.9045555"><ele>428.0</ele><time>2026-04-04T16:06:34.051Z</time></trkpt><trkpt lat="42.9041492" lon="11.9047342"><ele>425.5</ele><time>2026-04-04T16:06:35.054Z</time></trkpt><trkpt lat="42.9041566" lon="11.9049073"><ele>423.0</ele><time>2026-04-04T16:06:36.052Z</time></trkpt><trkpt lat="42.9041791" lon="11.9050675"><ele>421.0</ele><time>2026-04-04T16:06:37.058Z</time></trkpt><trkpt lat="42.9042262" lon="11.9052206"><ele>419.0</ele><time>2026-04-04T16:06:38.064Z</time></trkpt><trkpt lat="42.9042851" lon="11.905358"><ele>417.0</ele><time>2026-04-04T16:06:39.052Z</time></trkpt><trkpt lat="42.9043592" lon="11.9054889"><ele>415.0</ele><time>2026-04-04T16:06:40.066Z</time></trkpt><trkpt lat="42.9044401" lon="11.9056199"><ele>419.75</ele><time>2026-04-04T16:06:41.059Z</time></trkpt><trkpt lat="42.9045194" lon="11.905771"><ele>424.5</ele><time>2026-04-04T16:06:42.056Z</time></trkpt><trkpt lat="42.9045953" lon="11.9059418"><ele>429.25</ele><time>2026-04-04T16:06:43.06Z</time></trkpt><trkpt lat="42.9046543" lon="11.9061059"><ele>434.0</ele><time>2026-04-04T16:06:44.055Z</time></trkpt><trkpt lat="42.904705" lon="11.9062773"><ele>434.0</ele><time>2026-04-04T16:06:45.057Z</time></trkpt><trkpt lat="42.9047479" lon="11.9064598"><ele>434.0</ele><time>2026-04-04T16:06:46.054Z</time></trkpt><trkpt lat="42.9047892" lon="11.9066458"><ele>434.0</ele><time>2026-04-04T16:06:47.05Z</time></trkpt><trkpt lat="42.9048325" lon="11.9068122"><ele>434.0</ele><time>2026-04-04T16:06:48.057Z</time></trkpt><trkpt lat="42.904886" lon="11.9069682"><ele>436.5</ele><time>2026-04-04T16:06:49.057Z</time></trkpt><trkpt lat="42.9049537" lon="11.9071089"><ele>439.0</ele><time>2026-04-04T16:06:50.057Z</time></trkpt><trkpt lat="42.905039" lon="11.9072596"><ele>441.5</ele><time>2026-04-04T16:06:51.049Z</time></trkpt><trkpt lat="42.9051231" lon="11.9074076"><ele>444.0</ele><time>2026-04-04T16:06:52.044Z</time></trkpt><trkpt lat="42.9052019" lon="11.9075439"><ele>443.0</ele><time>2026-04-04T16:06:53.053Z</time></trkpt><trkpt lat="42.9052606" lon="11.9076897"><ele>442.0</ele><time>2026-04-04T16:06:54.054Z</time></trkpt><trkpt lat="42.9052836" lon="11.9078434"><ele>441.0</ele><time>2026-04-04T16:06:55.055Z</time></trkpt><trkpt lat="42.9052594" lon="11.9079911"><ele>440.0</ele><time>2026-04-04T16:06:56.043Z</time></trkpt><trkpt lat="42.9052169" lon="11.908146"><ele>440.0</ele><time>2026-04-04T16:06:57.054Z</time></trkpt><trkpt lat="42.9051733" lon="11.908296"><ele>440.0</ele><time>2026-04-04T16:06:58.044Z</time></trkpt><trkpt lat="42.9051371" lon="11.9084593"><ele>440.0</ele><time>2026-04-04T16:06:59.042Z</time></trkpt><trkpt lat="42.9051063" lon="11.9086163"><ele>440.0</ele><time>2026-04-04T16:07:00.053Z</time></trkpt><trkpt lat="42.9050896" lon="11.9087791"><ele>439.0</ele><time>2026-04-04T16:07:01.052Z</time></trkpt><trkpt lat="42.9050873" lon="11.9089541"><ele>438.0</ele><time>2026-04-04T16:07:02.047Z</time></trkpt><trkpt lat="42.9051018" lon="11.9091392"><ele>437.0</ele><time>2026-04-04T16:07:03.061Z</time></trkpt><trkpt lat="42.905137" lon="11.9093241"><ele>436.0</ele><time>2026-04-04T16:07:04.052Z</time></trkpt><trkpt lat="42.9051826" lon="11.9095038"><ele>433.5</ele><time>2026-04-04T16:07:05.073Z</time></trkpt><trkpt lat="42.9052271" lon="11.9096648"><ele>431.0</ele><time>2026-04-04T16:07:06.052Z</time></trkpt><trkpt lat="42.9052689" lon="11.9098191"><ele>428.5</ele><time>2026-04-04T16:07:07.051Z</time></trkpt><trkpt lat="42.9053068" lon="11.9099754"><ele>426.0</ele><time>2026-04-04T16:07:08.049Z</time></trkpt><trkpt lat="42.9053343" lon="11.9101297"><ele>422.75</ele><time>2026-04-04T16:07:09.062Z</time></trkpt><trkpt lat="42.9053588" lon="11.9102809"><ele>419.5</ele><time>2026-04-04T16:07:10.057Z</time></trkpt><trkpt lat="42.9053913" lon="11.9104282"><ele>416.25</ele><time>2026-04-04T16:07:11.053Z</time></trkpt><trkpt lat="42.9054353" lon="11.9105692"><ele>413.0</ele><time>2026-04-04T16:07:12.057Z</time></trkpt><trkpt lat="42.9055002" lon="11.910708"><ele>413.0</ele><time>2026-04-04T16:07:13.06Z</time></trkpt><trkpt lat="42.9055951" lon="11.9108262"><ele>413.0</ele><time>2026-04-04T16:07:14.055Z</time></trkpt><trkpt lat="42.9057138" lon="11.9109126"><ele>413.0</ele><time>2026-04-04T16:07:15.053Z</time></trkpt><trkpt lat="42.9058383" lon="11.9109694"><ele>413.0</ele><time>2026-04-04T16:07:16.052Z</time></trkpt><trkpt lat="42.9059605" lon="11.9110048"><ele>413.0</ele><time>2026-04-04T16:07:17.054Z</time></trkpt><trkpt lat="42.9060735" lon="11.9110371"><ele>413.0</ele><time>2026-04-04T16:07:18.052Z</time></trkpt><trkpt lat="42.9061866" lon="11.9110837"><ele>413.0</ele><time>2026-04-04T16:07:19.059Z</time></trkpt><trkpt lat="42.9062821" lon="11.9111536"><ele>413.0</ele><time>2026-04-04T16:07:20.065Z</time></trkpt><trkpt lat="42.9063648" lon="11.9112478"><ele>413.0</ele><time>2026-04-04T16:07:21.063Z</time></trkpt><trkpt lat="42.9064288" lon="11.9113704"><ele>413.0</ele><time>2026-04-04T16:07:22.058Z</time></trkpt><trkpt lat="42.9064756" lon="11.9115137"><ele>413.0</ele><time>2026-04-04T16:07:23.05Z</time></trkpt><trkpt lat="42.9065032" lon="11.9116602"><ele>413.0</ele><time>2026-04-04T16:07:24.074Z</time></trkpt><trkpt lat="42.9065225" lon="11.9118199"><ele>412.0</ele><time>2026-04-04T16:07:25.054Z</time></trkpt><trkpt lat="42.9065427" lon="11.9119709"><ele>411.0</ele><time>2026-04-04T16:07:26.062Z</time></trkpt><trkpt lat="42.9065693" lon="11.9121128"><ele>410.0</ele><time>2026-04-04T16:07:27.062Z</time></trkpt><trkpt lat="42.9065903" lon="11.9122619"><ele>409.0</ele><time>2026-04-04T16:07:28.056Z</time></trkpt><trkpt lat="42.9066167" lon="11.9124201"><ele>407.5</ele><time>2026-04-04T16:07:29.069Z</time></trkpt><trkpt lat="42.9066456" lon="11.9125801"><ele>406.0</ele><time>2026-04-04T16:07:30.062Z</time></trkpt><trkpt lat="42.9066745" lon="11.9127544"><ele>404.5</ele><time>2026-04-04T16:07:31.051Z</time></trkpt><trkpt lat="42.906705" lon="11.9129262"><ele>403.0</ele><time>2026-04-04T16:07:32.06Z</time></trkpt><trkpt lat="42.9067366" lon="11.9130794"><ele>403.4</ele><time>2026-04-04T16:07:33.058Z</time></trkpt><trkpt lat="42.9067697" lon="11.9132343"><ele>403.79999999999995</ele><time>2026-04-04T16:07:34.057Z</time></trkpt><trkpt lat="42.9068096" lon="11.9133802"><ele>404.2</ele><time>2026-04-04T16:07:35.096Z</time></trkpt><trkpt lat="42.9068495" lon="11.9135167"><ele>404.6</ele><time>2026-04-04T16:07:36.071Z</time></trkpt><trkpt lat="42.9068952" lon="11.913642"><ele>405.0</ele><time>2026-04-04T16:07:37.063Z</time></trkpt><trkpt lat="42.9069628" lon="11.9137553"><ele>405.0</ele><time>2026-04-04T16:07:38.069Z</time></trkpt><trkpt lat="42.9070444" lon="11.9138276"><ele>405.0</ele><time>2026-04-04T16:07:39.072Z</time></trkpt><trkpt lat="42.9071312" lon="11.913879"><ele>405.0</ele><time>2026-04-04T16:07:40.073Z</time></trkpt><trkpt lat="42.9072205" lon="11.9139316"><ele>405.0</ele><time>2026-04-04T16:07:41.084Z</time></trkpt><trkpt lat="42.9072934" lon="11.9139918"><ele>405.0</ele><time>2026-04-04T16:07:42.098Z</time></trkpt><trkpt lat="42.907363" lon="11.9140497"><ele>405.0</ele><time>2026-04-04T16:07:43.06Z</time></trkpt><trkpt lat="42.9074196" lon="11.9140976"><ele>405.0</ele><time>2026-04-04T16:07:44.067Z</time></trkpt><trkpt lat="42.9075146" lon="11.9141894"><ele>405.0</ele><time>2026-04-04T16:07:46.071Z</time></trkpt><trkpt lat="42.9075528" lon="11.9142615"><ele>405.0</ele><time>2026-04-04T16:07:47.062Z</time></trkpt><trkpt lat="42.9075584" lon="11.9143498"><ele>405.0</ele><time>2026-04-04T16:07:48.055Z</time></trkpt><trkpt lat="42.9075504" lon="11.9144351"><ele>405.0</ele><time>2026-04-04T16:07:49.06Z</time></trkpt><trkpt lat="42.9075436" lon="11.9145945"><ele>403.75</ele><time>2026-04-04T16:07:51.062Z</time></trkpt><trkpt lat="42.9075417" lon="11.9147557"><ele>402.5</ele><time>2026-04-04T16:07:53.061Z</time></trkpt><trkpt lat="42.9075297" lon="11.9149159"><ele>401.25</ele><time>2026-04-04T16:07:55.065Z</time></trkpt><trkpt lat="42.9075059" lon="11.9150817"><ele>400.0</ele><time>2026-04-04T16:07:57.066Z</time></trkpt><trkpt lat="42.9074679" lon="11.9152497"><ele>399.42857142857144</ele><time>2026-04-04T16:07:59.075Z</time></trkpt><trkpt lat="42.9074503" lon="11.9153424"><ele>398.8571428571429</ele><time>2026-04-04T16:08:00.054Z</time></trkpt><trkpt lat="42.9074399" lon="11.9154282"><ele>398.28571428571433</ele><time>2026-04-04T16:08:01.067Z</time></trkpt><trkpt lat="42.9073948" lon="11.9155763"><ele>397.7142857142857</ele><time>2026-04-04T16:08:03.059Z</time></trkpt><trkpt lat="42.9073648" lon="11.9156528"><ele>397.1428571428571</ele><time>2026-04-04T16:08:04.063Z</time></trkpt><trkpt lat="42.9073374" lon="11.9157323"><ele>396.5714285714286</ele><time>2026-04-04T16:08:05.066Z</time></trkpt><trkpt lat="42.907311" lon="11.9158204"><ele>396.0</ele><time>2026-04-04T16:08:06.057Z</time></trkpt><trkpt lat="42.9072866" lon="11.9159086"><ele>395.5714285714286</ele><time>2026-04-04T16:08:07.051Z</time></trkpt><trkpt lat="42.9072741" lon="11.9159941"><ele>395.1428571428571</ele><time>2026-04-04T16:08:08.063Z</time></trkpt><trkpt lat="42.9072671" lon="11.9160894"><ele>394.7142857142857</ele><time>2026-04-04T16:08:09.052Z</time></trkpt><trkpt lat="42.9072686" lon="11.9161871"><ele>394.28571428571433</ele><time>2026-04-04T16:08:10.06Z</time></trkpt><trkpt lat="42.9072694" lon="11.9162831"><ele>393.8571428571429</ele><time>2026-04-04T16:08:11.063Z</time></trkpt><trkpt lat="42.9072707" lon="11.9163789"><ele>393.42857142857144</ele><time>2026-04-04T16:08:12.06Z</time></trkpt><trkpt lat="42.9072745" lon="11.9164717"><ele>393.0</ele><time>2026-04-04T16:08:13.091Z</time></trkpt><trkpt lat="42.9072757" lon="11.9165612"><ele>393.0</ele><time>2026-04-04T16:08:14.051Z</time></trkpt><trkpt lat="42.9072714" lon="11.9166523"><ele>393.0</ele><time>2026-04-04T16:08:15.064Z</time></trkpt><trkpt lat="42.9072706" lon="11.9167428"><ele>393.0</ele><time>2026-04-04T16:08:16.054Z</time></trkpt><trkpt lat="42.9072644" lon="11.9168328"><ele>393.0</ele><time>2026-04-04T16:08:17.062Z</time></trkpt><trkpt lat="42.9072604" lon="11.9169215"><ele>393.0</ele><time>2026-04-04T16:08:18.055Z</time></trkpt><trkpt lat="42.9072622" lon="11.9171011"><ele>393.0</ele><time>2026-04-04T16:08:20.059Z</time></trkpt><trkpt lat="42.9072645" lon="11.917197"><ele>392.5</ele><time>2026-04-04T16:08:21.06Z</time></trkpt><trkpt lat="42.9072642" lon="11.9172849"><ele>392.0</ele><time>2026-04-04T16:08:22.055Z</time></trkpt><trkpt lat="42.9072651" lon="11.9173758"><ele>391.5</ele><time>2026-04-04T16:08:23.055Z</time></trkpt><trkpt lat="42.9072631" lon="11.917466"><ele>391.0</ele><time>2026-04-04T16:08:24.06Z</time></trkpt><trkpt lat="42.9072632" lon="11.9175568"><ele>390.5</ele><time>2026-04-04T16:08:25.105Z</time></trkpt><trkpt lat="42.9072642" lon="11.9177207"><ele>390.0</ele><time>2026-04-04T16:08:27.071Z</time></trkpt><trkpt lat="42.9072658" lon="11.9178741"><ele>390.0</ele><time>2026-04-04T16:08:29.057Z</time></trkpt><trkpt lat="42.9072734" lon="11.9179752"><ele>390.0</ele><time>2026-04-04T16:08:31.071Z</time></trkpt><trkpt lat="42.9073108" lon="11.9180523"><ele>390.0</ele><time>2026-04-04T16:08:34.058Z</time></trkpt><trkpt lat="42.9073938" lon="11.9181005"><ele>390.0</ele><time>2026-04-04T16:08:36.064Z</time></trkpt><trkpt lat="42.9075155" lon="11.9181218"><ele>390.0</ele><time>2026-04-04T16:08:38.082Z</time></trkpt><trkpt lat="42.9076276" lon="11.9181329"><ele>388.5</ele><time>2026-04-04T16:08:40.062Z</time></trkpt><trkpt lat="42.9077452" lon="11.91813"><ele>387.0</ele><time>2026-04-04T16:08:42.084Z</time></trkpt><trkpt lat="42.9078099" lon="11.918108"><ele>385.5</ele><time>2026-04-04T16:08:43.067Z</time></trkpt><trkpt lat="42.9078843" lon="11.9180709"><ele>384.0</ele><time>2026-04-04T16:08:44.071Z</time></trkpt><trkpt lat="42.9079579" lon="11.9180023"><ele>382.5</ele><time>2026-04-04T16:08:45.064Z</time></trkpt><trkpt lat="42.9080153" lon="11.9179353"><ele>381.0</ele><time>2026-04-04T16:08:46.056Z</time></trkpt><trkpt lat="42.9080701" lon="11.9178598"><ele>381.0</ele><time>2026-04-04T16:08:47.061Z</time></trkpt><trkpt lat="42.9081244" lon="11.9177936"><ele>381.0</ele><time>2026-04-04T16:08:48.053Z</time></trkpt><trkpt lat="42.9081853" lon="11.917726"><ele>381.0</ele><time>2026-04-04T16:08:49.055Z</time></trkpt><trkpt lat="42.9082502" lon="11.9176402"><ele>381.0</ele><time>2026-04-04T16:08:50.066Z</time></trkpt><trkpt lat="42.9083174" lon="11.9175432"><ele>381.0</ele><time>2026-04-04T16:08:51.061Z</time></trkpt><trkpt lat="42.9083822" lon="11.917448"><ele>381.0</ele><time>2026-04-04T16:08:52.059Z</time></trkpt><trkpt lat="42.9084456" lon="11.9173437"><ele>377.0</ele><time>2026-04-04T16:08:53.064Z</time></trkpt><trkpt lat="42.9085046" lon="11.9172067"><ele>373.0</ele><time>2026-04-04T16:08:54.049Z</time></trkpt><trkpt lat="42.9085559" lon="11.9170515"><ele>369.0</ele><time>2026-04-04T16:08:55.055Z</time></trkpt><trkpt lat="42.9086" lon="11.9168985"><ele>365.0</ele><time>2026-04-04T16:08:56.057Z</time></trkpt><trkpt lat="42.9086375" lon="11.9167518"><ele>366.75</ele><time>2026-04-04T16:08:57.081Z</time></trkpt><trkpt lat="42.9086785" lon="11.9166088"><ele>368.5</ele><time>2026-04-04T16:08:58.067Z</time></trkpt><trkpt lat="42.9087199" lon="11.91647"><ele>370.25</ele><time>2026-04-04T16:08:59.059Z</time></trkpt><trkpt lat="42.9087653" lon="11.9163196"><ele>372.0</ele><time>2026-04-04T16:09:00.056Z</time></trkpt><trkpt lat="42.9088161" lon="11.9161748"><ele>372.0</ele><time>2026-04-04T16:09:01.058Z</time></trkpt><trkpt lat="42.9088826" lon="11.9160424"><ele>372.0</ele><time>2026-04-04T16:09:02.059Z</time></trkpt><trkpt lat="42.908964" lon="11.9159339"><ele>372.0</ele><time>2026-04-04T16:09:03.053Z</time></trkpt><trkpt lat="42.9090592" lon="11.9158487"><ele>372.0</ele><time>2026-04-04T16:09:04.104Z</time></trkpt><trkpt lat="42.9091777" lon="11.9157771"><ele>371.3333333333333</ele><time>2026-04-04T16:09:05.071Z</time></trkpt><trkpt lat="42.9093094" lon="11.9157337"><ele>370.66666666666663</ele><time>2026-04-04T16:09:06.069Z</time></trkpt><trkpt lat="42.909461" lon="11.9156944"><ele>370.0</ele><time>2026-04-04T16:09:07.064Z</time></trkpt><trkpt lat="42.9096313" lon="11.9156678"><ele>370.0</ele><time>2026-04-04T16:09:08.081Z</time></trkpt><trkpt lat="42.9098232" lon="11.9156345"><ele>370.0</ele><time>2026-04-04T16:09:09.073Z</time></trkpt><trkpt lat="42.9100401" lon="11.9156034"><ele>370.0</ele><time>2026-04-04T16:09:10.074Z</time></trkpt><trkpt lat="42.9102706" lon="11.9155777"><ele>368.66666666666663</ele><time>2026-04-04T16:09:11.102Z</time></trkpt><trkpt lat="42.9104727" lon="11.9155671"><ele>367.3333333333333</ele><time>2026-04-04T16:09:12.086Z</time></trkpt><trkpt lat="42.9106422" lon="11.9155602"><ele>366.0</ele><time>2026-04-04T16:09:13.072Z</time></trkpt><trkpt lat="42.9107984" lon="11.9155606"><ele>366.0</ele><time>2026-04-04T16:09:14.056Z</time></trkpt><trkpt lat="42.9109408" lon="11.915595"><ele>366.0</ele><time>2026-04-04T16:09:15.054Z</time></trkpt><trkpt lat="42.9110632" lon="11.9156675"><ele>366.0</ele><time>2026-04-04T16:09:16.058Z</time></trkpt><trkpt lat="42.9111703" lon="11.9157881"><ele>366.0</ele><time>2026-04-04T16:09:17.052Z</time></trkpt><trkpt lat="42.9112594" lon="11.9159436"><ele>364.3333333333333</ele><time>2026-04-04T16:09:18.055Z</time></trkpt><trkpt lat="42.9113257" lon="11.9161568"><ele>362.66666666666663</ele><time>2026-04-04T16:09:19.054Z</time></trkpt><trkpt lat="42.9113785" lon="11.9164068"><ele>361.0</ele><time>2026-04-04T16:09:20.053Z</time></trkpt><trkpt lat="42.9114422" lon="11.9166496"><ele>359.66666666666663</ele><time>2026-04-04T16:09:21.056Z</time></trkpt><trkpt lat="42.9115112" lon="11.9168839"><ele>358.3333333333333</ele><time>2026-04-04T16:09:22.051Z</time></trkpt><trkpt lat="42.911551" lon="11.917114"><ele>357.0</ele><time>2026-04-04T16:09:23.07Z</time></trkpt><trkpt lat="42.9115718" lon="11.9173454"><ele>357.0</ele><time>2026-04-04T16:09:24.067Z</time></trkpt><trkpt lat="42.911582" lon="11.9175451"><ele>357.0</ele><time>2026-04-04T16:09:25.058Z</time></trkpt><trkpt lat="42.911624" lon="11.9177126"><ele>357.0</ele><time>2026-04-04T16:09:26.06Z</time></trkpt><trkpt lat="42.9117043" lon="11.9178963"><ele>357.0</ele><time>2026-04-04T16:09:27.055Z</time></trkpt><trkpt lat="42.9117954" lon="11.9180435"><ele>355.0</ele><time>2026-04-04T16:09:28.065Z</time></trkpt><trkpt lat="42.9119022" lon="11.9181477"><ele>353.0</ele><time>2026-04-04T16:09:29.054Z</time></trkpt><trkpt lat="42.9120528" lon="11.9182504"><ele>351.0</ele><time>2026-04-04T16:09:30.061Z</time></trkpt><trkpt lat="42.9122275" lon="11.9183253"><ele>347.0</ele><time>2026-04-04T16:09:31.064Z</time></trkpt><trkpt lat="42.9124013" lon="11.9184016"><ele>343.0</ele><time>2026-04-04T16:09:32.05Z</time></trkpt><trkpt lat="42.9125651" lon="11.9185104"><ele>339.0</ele><time>2026-04-04T16:09:33.056Z</time></trkpt><trkpt lat="42.9126883" lon="11.918663"><ele>339.0</ele><time>2026-04-04T16:09:34.046Z</time></trkpt><trkpt lat="42.9128066" lon="11.918803"><ele>339.0</ele><time>2026-04-04T16:09:35.047Z</time></trkpt><trkpt lat="42.9129285" lon="11.9189134"><ele>339.0</ele><time>2026-04-04T16:09:36.055Z</time></trkpt><trkpt lat="42.9130743" lon="11.9189698"><ele>339.0</ele><time>2026-04-04T16:09:37.051Z</time></trkpt><trkpt lat="42.9132229" lon="11.9189857"><ele>339.0</ele><time>2026-04-04T16:09:38.07Z</time></trkpt><trkpt lat="42.9133908" lon="11.9189789"><ele>339.0</ele><time>2026-04-04T16:09:39.058Z</time></trkpt><trkpt lat="42.9135583" lon="11.9189554"><ele>336.5</ele><time>2026-04-04T16:09:40.058Z</time></trkpt><trkpt lat="42.9137057" lon="11.9189205"><ele>334.0</ele><time>2026-04-04T16:09:41.054Z</time></trkpt><trkpt lat="42.9138254" lon="11.9188494"><ele>331.5</ele><time>2026-04-04T16:09:42.045Z</time></trkpt><trkpt lat="42.913917" lon="11.9187517"><ele>329.0</ele><time>2026-04-04T16:09:43.048Z</time></trkpt><trkpt lat="42.9139742" lon="11.9186175"><ele>329.0</ele><time>2026-04-04T16:09:44.055Z</time></trkpt><trkpt lat="42.914004" lon="11.9184485"><ele>329.0</ele><time>2026-04-04T16:09:45.047Z</time></trkpt><trkpt lat="42.9140119" lon="11.9182738"><ele>329.0</ele><time>2026-04-04T16:09:46.069Z</time></trkpt><trkpt lat="42.9139956" lon="11.9180669"><ele>329.0</ele><time>2026-04-04T16:09:47.052Z</time></trkpt><trkpt lat="42.9139817" lon="11.9178371"><ele>330.6666666666667</ele><time>2026-04-04T16:09:48.06Z</time></trkpt><trkpt lat="42.9139931" lon="11.9176213"><ele>332.3333333333333</ele><time>2026-04-04T16:09:49.061Z</time></trkpt><trkpt lat="42.9140372" lon="11.9174303"><ele>334.0</ele><time>2026-04-04T16:09:50.055Z</time></trkpt><trkpt lat="42.9141086" lon="11.9172417"><ele>334.0</ele><time>2026-04-04T16:09:51.056Z</time></trkpt><trkpt lat="42.9141825" lon="11.9170505"><ele>334.0</ele><time>2026-04-04T16:09:52.053Z</time></trkpt><trkpt lat="42.914255" lon="11.9168893"><ele>334.0</ele><time>2026-04-04T16:09:53.059Z</time></trkpt><trkpt lat="42.9143265" lon="11.916766"><ele>334.0</ele><time>2026-04-04T16:09:54.051Z</time></trkpt><trkpt lat="42.91443" lon="11.9166949"><ele>332.75</ele><time>2026-04-04T16:09:55.05Z</time></trkpt><trkpt lat="42.9145586" lon="11.9166454"><ele>331.5</ele><time>2026-04-04T16:09:56.052Z</time></trkpt><trkpt lat="42.9147045" lon="11.9166218"><ele>330.25</ele><time>2026-04-04T16:09:57.049Z</time></trkpt><trkpt lat="42.9148634" lon="11.9166222"><ele>329.0</ele><time>2026-04-04T16:09:58.06Z</time></trkpt><trkpt lat="42.9150486" lon="11.9166076"><ele>328.33333333333337</ele><time>2026-04-04T16:09:59.058Z</time></trkpt><trkpt lat="42.9152515" lon="11.9165942"><ele>327.6666666666667</ele><time>2026-04-04T16:10:00.063Z</time></trkpt><trkpt lat="42.9154468" lon="11.9165874"><ele>327.0</ele><time>2026-04-04T16:10:01.055Z</time></trkpt><trkpt lat="42.9156294" lon="11.9165897"><ele>327.0</ele><time>2026-04-04T16:10:02.06Z</time></trkpt><trkpt lat="42.9157993" lon="11.9166286"><ele>327.0</ele><time>2026-04-04T16:10:03.052Z</time></trkpt><trkpt lat="42.9159544" lon="11.9167148"><ele>327.0</ele><time>2026-04-04T16:10:04.051Z</time></trkpt><trkpt lat="42.9161088" lon="11.9168243"><ele>325.3333333333333</ele><time>2026-04-04T16:10:05.052Z</time></trkpt><trkpt lat="42.9162651" lon="11.9169718"><ele>323.66666666666663</ele><time>2026-04-04T16:10:06.061Z</time></trkpt><trkpt lat="42.9164189" lon="11.9171421"><ele>322.0</ele><time>2026-04-04T16:10:07.051Z</time></trkpt><trkpt lat="42.9165729" lon="11.917322"><ele>322.0</ele><time>2026-04-04T16:10:08.059Z</time></trkpt><trkpt lat="42.9167187" lon="11.9174737"><ele>322.0</ele><time>2026-04-04T16:10:09.058Z</time></trkpt><trkpt lat="42.9168625" lon="11.917582"><ele>322.0</ele><time>2026-04-04T16:10:10.054Z</time></trkpt><trkpt lat="42.9170028" lon="11.9176519"><ele>321.25</ele><time>2026-04-04T16:10:11.055Z</time></trkpt><trkpt lat="42.9171445" lon="11.9176621"><ele>320.5</ele><time>2026-04-04T16:10:12.051Z</time></trkpt><trkpt lat="42.9172774" lon="11.9176258"><ele>319.75</ele><time>2026-04-04T16:10:13.055Z</time></trkpt><trkpt lat="42.9173987" lon="11.917549"><ele>319.0</ele><time>2026-04-04T16:10:14.05Z</time></trkpt><trkpt lat="42.9175134" lon="11.9174307"><ele>317.0</ele><time>2026-04-04T16:10:15.05Z</time></trkpt><trkpt lat="42.9175859" lon="11.917252"><ele>315.0</ele><time>2026-04-04T16:10:16.057Z</time></trkpt><trkpt lat="42.9176398" lon="11.9170376"><ele>313.0</ele><time>2026-04-04T16:10:17.051Z</time></trkpt><trkpt lat="42.9176931" lon="11.9168186"><ele>314.0</ele><time>2026-04-04T16:10:18.062Z</time></trkpt><trkpt lat="42.9177628" lon="11.9165873"><ele>315.0</ele><time>2026-04-04T16:10:19.061Z</time></trkpt><trkpt lat="42.9178316" lon="11.9163395"><ele>316.0</ele><time>2026-04-04T16:10:20.06Z</time></trkpt><trkpt lat="42.9178931" lon="11.9160852"><ele>317.66666666666663</ele><time>2026-04-04T16:10:21.073Z</time></trkpt><trkpt lat="42.9179599" lon="11.9158611"><ele>319.3333333333333</ele><time>2026-04-04T16:10:22.059Z</time></trkpt><trkpt lat="42.918026" lon="11.9156713"><ele>321.0</ele><time>2026-04-04T16:10:23.064Z</time></trkpt><trkpt lat="42.9181104" lon="11.9155302"><ele>321.0</ele><time>2026-04-04T16:10:24.054Z</time></trkpt><trkpt lat="42.9182206" lon="11.9154352"><ele>321.0</ele><time>2026-04-04T16:10:25.056Z</time></trkpt><trkpt lat="42.9183448" lon="11.915387"><ele>321.0</ele><time>2026-04-04T16:10:26.066Z</time></trkpt><trkpt lat="42.9184818" lon="11.9153952"><ele>321.0</ele><time>2026-04-04T16:10:27.058Z</time></trkpt><trkpt lat="42.9186237" lon="11.9154202"><ele>321.0</ele><time>2026-04-04T16:10:28.059Z</time></trkpt><trkpt lat="42.918777" lon="11.9154393"><ele>321.0</ele><time>2026-04-04T16:10:29.053Z</time></trkpt><trkpt lat="42.9189438" lon="11.9154618"><ele>321.0</ele><time>2026-04-04T16:10:30.061Z</time></trkpt><trkpt lat="42.9191295" lon="11.9154973"><ele>324.6666666666667</ele><time>2026-04-04T16:10:31.066Z</time></trkpt><trkpt lat="42.9193085" lon="11.9155508"><ele>328.33333333333337</ele><time>2026-04-04T16:10:32.064Z</time></trkpt><trkpt lat="42.9194565" lon="11.9156442"><ele>332.0</ele><time>2026-04-04T16:10:33.075Z</time></trkpt><trkpt lat="42.9195862" lon="11.9157816"><ele>331.33333333333337</ele><time>2026-04-04T16:10:34.06Z</time></trkpt><trkpt lat="42.919694" lon="11.9159698"><ele>330.6666666666667</ele><time>2026-04-04T16:10:35.058Z</time></trkpt><trkpt lat="42.9197677" lon="11.9161874"><ele>330.0</ele><time>2026-04-04T16:10:36.052Z</time></trkpt><trkpt lat="42.9197975" lon="11.9163927"><ele>330.0</ele><time>2026-04-04T16:10:37.058Z</time></trkpt><trkpt lat="42.9198071" lon="11.9166092"><ele>330.0</ele><time>2026-04-04T16:10:38.064Z</time></trkpt><trkpt lat="42.9198144" lon="11.9167992"><ele>330.0</ele><time>2026-04-04T16:10:39.054Z</time></trkpt><trkpt lat="42.9198385" lon="11.916964"><ele>330.0</ele><time>2026-04-04T16:10:40.085Z</time></trkpt><trkpt lat="42.9198902" lon="11.9170892"><ele>329.5</ele><time>2026-04-04T16:10:41.07Z</time></trkpt><trkpt lat="42.91998" lon="11.9171712"><ele>329.0</ele><time>2026-04-04T16:10:42.072Z</time></trkpt><trkpt lat="42.9200887" lon="11.9172253"><ele>328.5</ele><time>2026-04-04T16:10:43.079Z</time></trkpt><trkpt lat="42.9202148" lon="11.917233"><ele>328.0</ele><time>2026-04-04T16:10:44.082Z</time></trkpt><trkpt lat="42.9203576" lon="11.917173"><ele>328.0</ele><time>2026-04-04T16:10:45.079Z</time></trkpt><trkpt lat="42.9205108" lon="11.9170944"><ele>328.0</ele><time>2026-04-04T16:10:46.072Z</time></trkpt><trkpt lat="42.9206705" lon="11.9170246"><ele>328.0</ele><time>2026-04-04T16:10:47.079Z</time></trkpt><trkpt lat="42.9208285" lon="11.9169813"><ele>331.66666666666663</ele><time>2026-04-04T16:10:48.068Z</time></trkpt><trkpt lat="42.9209846" lon="11.9169551"><ele>335.3333333333333</ele><time>2026-04-04T16:10:49.06Z</time></trkpt><trkpt lat="42.9211601" lon="11.9169752"><ele>339.0</ele><time>2026-04-04T16:10:50.058Z</time></trkpt><trkpt lat="42.9213431" lon="11.9170526"><ele>339.0</ele><time>2026-04-04T16:10:51.058Z</time></trkpt><trkpt lat="42.9215152" lon="11.9171676"><ele>339.0</ele><time>2026-04-04T16:10:52.059Z</time></trkpt><trkpt lat="42.9216548" lon="11.9173235"><ele>339.0</ele><time>2026-04-04T16:10:53.069Z</time></trkpt><trkpt lat="42.9217561" lon="11.9174799"><ele>339.6</ele><time>2026-04-04T16:10:54.057Z</time></trkpt><trkpt lat="42.9218365" lon="11.9176139"><ele>340.2</ele><time>2026-04-04T16:10:55.059Z</time></trkpt><trkpt lat="42.92193" lon="11.9176728"><ele>340.8</ele><time>2026-04-04T16:10:56.063Z</time></trkpt><trkpt lat="42.922023" lon="11.9176632"><ele>341.40000000000003</ele><time>2026-04-04T16:10:57.055Z</time></trkpt><trkpt lat="42.9221113" lon="11.9176008"><ele>342.0</ele><time>2026-04-04T16:10:58.071Z</time></trkpt><trkpt lat="42.9221837" lon="11.9174701"><ele>342.0</ele><time>2026-04-04T16:10:59.055Z</time></trkpt><trkpt lat="42.9222578" lon="11.9173225"><ele>342.0</ele><time>2026-04-04T16:11:00.05Z</time></trkpt><trkpt lat="42.9223468" lon="11.9171578"><ele>342.0</ele><time>2026-04-04T16:11:01.057Z</time></trkpt><trkpt lat="42.922429" lon="11.9169747"><ele>342.0</ele><time>2026-04-04T16:11:02.049Z</time></trkpt><trkpt lat="42.922458" lon="11.9167764"><ele>341.75</ele><time>2026-04-04T16:11:03.06Z</time></trkpt><trkpt lat="42.9224518" lon="11.9166014"><ele>341.5</ele><time>2026-04-04T16:11:04.06Z</time></trkpt><trkpt lat="42.9224184" lon="11.9164248"><ele>341.25</ele><time>2026-04-04T16:11:05.043Z</time></trkpt><trkpt lat="42.9223372" lon="11.9162476"><ele>341.0</ele><time>2026-04-04T16:11:06.052Z</time></trkpt><trkpt lat="42.9222235" lon="11.9160693"><ele>339.6666666666667</ele><time>2026-04-04T16:11:07.052Z</time></trkpt><trkpt lat="42.9221176" lon="11.9159022"><ele>338.3333333333333</ele><time>2026-04-04T16:11:08.06Z</time></trkpt><trkpt lat="42.9220256" lon="11.9157247"><ele>337.0</ele><time>2026-04-04T16:11:09.074Z</time></trkpt><trkpt lat="42.9219574" lon="11.9155333"><ele>337.0</ele><time>2026-04-04T16:11:10.058Z</time></trkpt><trkpt lat="42.92191" lon="11.9153244"><ele>337.0</ele><time>2026-04-04T16:11:11.05Z</time></trkpt><trkpt lat="42.9218828" lon="11.9151189"><ele>337.0</ele><time>2026-04-04T16:11:12.05Z</time></trkpt><trkpt lat="42.9218658" lon="11.9149309"><ele>338.0</ele><time>2026-04-04T16:11:13.061Z</time></trkpt><trkpt lat="42.9218723" lon="11.9147813"><ele>339.0</ele><time>2026-04-04T16:11:14.059Z</time></trkpt><trkpt lat="42.921925" lon="11.9146516"><ele>340.0</ele><time>2026-04-04T16:11:15.098Z</time></trkpt><trkpt lat="42.9219962" lon="11.9145648"><ele>341.0</ele><time>2026-04-04T16:11:16.08Z</time></trkpt><trkpt lat="42.9221122" lon="11.9145257"><ele>342.0</ele><time>2026-04-04T16:11:17.065Z</time></trkpt><trkpt lat="42.922214" lon="11.9145553"><ele>342.0</ele><time>2026-04-04T16:11:18.082Z</time></trkpt><trkpt lat="42.9223277" lon="11.914646"><ele>342.0</ele><time>2026-04-04T16:11:19.08Z</time></trkpt><trkpt lat="42.9224324" lon="11.9147669"><ele>342.0</ele><time>2026-04-04T16:11:20.073Z</time></trkpt><trkpt lat="42.9225403" lon="11.9149023"><ele>342.0</ele><time>2026-04-04T16:11:21.084Z</time></trkpt><trkpt lat="42.9226382" lon="11.9150507"><ele>338.75</ele><time>2026-04-04T16:11:22.083Z</time></trkpt><trkpt lat="42.9227298" lon="11.915187"><ele>335.5</ele><time>2026-04-04T16:11:23.079Z</time></trkpt><trkpt lat="42.9228314" lon="11.9153333"><ele>332.25</ele><time>2026-04-04T16:11:24.094Z</time></trkpt><trkpt lat="42.9229509" lon="11.9154746"><ele>329.0</ele><time>2026-04-04T16:11:25.066Z</time></trkpt><trkpt lat="42.9230801" lon="11.9156235"><ele>329.0</ele><time>2026-04-04T16:11:26.073Z</time></trkpt><trkpt lat="42.9232255" lon="11.9157332"><ele>329.0</ele><time>2026-04-04T16:11:27.079Z</time></trkpt><trkpt lat="42.9233792" lon="11.9158147"><ele>329.0</ele><time>2026-04-04T16:11:28.057Z</time></trkpt><trkpt lat="42.9235434" lon="11.9158667"><ele>327.0</ele><time>2026-04-04T16:11:29.062Z</time></trkpt><trkpt lat="42.9237232" lon="11.9158713"><ele>325.0</ele><time>2026-04-04T16:11:30.062Z</time></trkpt><trkpt lat="42.9238995" lon="11.9158399"><ele>323.0</ele><time>2026-04-04T16:11:31.062Z</time></trkpt><trkpt lat="42.9240654" lon="11.9157692"><ele>323.0</ele><time>2026-04-04T16:11:32.062Z</time></trkpt><trkpt lat="42.9242206" lon="11.915713"><ele>323.0</ele><time>2026-04-04T16:11:33.059Z</time></trkpt><trkpt lat="42.9243722" lon="11.9157216"><ele>323.0</ele><time>2026-04-04T16:11:34.066Z</time></trkpt><trkpt lat="42.9245125" lon="11.9157791"><ele>321.79999999999995</ele><time>2026-04-04T16:11:35.067Z</time></trkpt><trkpt lat="42.9246258" lon="11.9158535"><ele>320.59999999999997</ele><time>2026-04-04T16:11:36.056Z</time></trkpt><trkpt lat="42.9247186" lon="11.9158901"><ele>319.4</ele><time>2026-04-04T16:11:37.07Z</time></trkpt><trkpt lat="42.9248202" lon="11.9158619"><ele>318.2</ele><time>2026-04-04T16:11:38.063Z</time></trkpt><trkpt lat="42.9248872" lon="11.9157834"><ele>317.0</ele><time>2026-04-04T16:11:39.071Z</time></trkpt><trkpt lat="42.9249341" lon="11.9156824"><ele>317.0</ele><time>2026-04-04T16:11:40.067Z</time></trkpt><trkpt lat="42.9249371" lon="11.9155585"><ele>317.0</ele><time>2026-04-04T16:11:41.071Z</time></trkpt><trkpt lat="42.9249117" lon="11.9153926"><ele>317.0</ele><time>2026-04-04T16:11:42.072Z</time></trkpt><trkpt lat="42.924868" lon="11.9152235"><ele>317.0</ele><time>2026-04-04T16:11:43.063Z</time></trkpt><trkpt lat="42.9248691" lon="11.9150602"><ele>317.8</ele><time>2026-04-04T16:11:44.059Z</time></trkpt><trkpt lat="42.9249135" lon="11.914936"><ele>318.6</ele><time>2026-04-04T16:11:45.058Z</time></trkpt><trkpt lat="42.9250018" lon="11.9148593"><ele>319.40000000000003</ele><time>2026-04-04T16:11:46.064Z</time></trkpt><trkpt lat="42.9251081" lon="11.9148376"><ele>320.2</ele><time>2026-04-04T16:11:47.06Z</time></trkpt><trkpt lat="42.9252259" lon="11.9148652"><ele>321.0</ele><time>2026-04-04T16:11:48.069Z</time></trkpt><trkpt lat="42.9253508" lon="11.914953"><ele>320.0</ele><time>2026-04-04T16:11:49.055Z</time></trkpt><trkpt lat="42.9254872" lon="11.9150795"><ele>319.0</ele><time>2026-04-04T16:11:50.057Z</time></trkpt><trkpt lat="42.9256444" lon="11.9152063"><ele>318.0</ele><time>2026-04-04T16:11:51.057Z</time></trkpt><trkpt lat="42.9257948" lon="11.9153269"><ele>320.3333333333333</ele><time>2026-04-04T16:11:52.06Z</time></trkpt><trkpt lat="42.9259467" lon="11.9154466"><ele>322.66666666666663</ele><time>2026-04-04T16:11:53.051Z</time></trkpt><trkpt lat="42.9261127" lon="11.9155818"><ele>325.0</ele><time>2026-04-04T16:11:54.066Z</time></trkpt><trkpt lat="42.9262798" lon="11.9157248"><ele>325.0</ele><time>2026-04-04T16:11:55.07Z</time></trkpt><trkpt lat="42.9264389" lon="11.9158643"><ele>325.0</ele><time>2026-04-04T16:11:56.063Z</time></trkpt><trkpt lat="42.9265947" lon="11.9160155"><ele>325.0</ele><time>2026-04-04T16:11:57.07Z</time></trkpt><trkpt lat="42.9267544" lon="11.9161855"><ele>323.66666666666663</ele><time>2026-04-04T16:11:58.062Z</time></trkpt><trkpt lat="42.9269194" lon="11.9163777"><ele>322.3333333333333</ele><time>2026-04-04T16:11:59.064Z</time></trkpt><trkpt lat="42.9270955" lon="11.9165736"><ele>321.0</ele><time>2026-04-04T16:12:00.07Z</time></trkpt><trkpt lat="42.9272767" lon="11.9167762"><ele>320.0</ele><time>2026-04-04T16:12:01.075Z</time></trkpt><trkpt lat="42.9274634" lon="11.9169863"><ele>319.0</ele><time>2026-04-04T16:12:02.061Z</time></trkpt><trkpt lat="42.9276517" lon="11.9171981"><ele>319.0</ele><time>2026-04-04T16:12:03.079Z</time></trkpt><trkpt lat="42.9278514" lon="11.917416"><ele>319.0</ele><time>2026-04-04T16:12:04.07Z</time></trkpt><trkpt lat="42.9280549" lon="11.9176446"><ele>319.5</ele><time>2026-04-04T16:12:05.069Z</time></trkpt><trkpt lat="42.928264" lon="11.917879"><ele>320.0</ele><time>2026-04-04T16:12:06.052Z</time></trkpt><trkpt lat="42.928473" lon="11.9181131"><ele>320.0</ele><time>2026-04-04T16:12:07.056Z</time></trkpt><trkpt lat="42.9286794" lon="11.9183404"><ele>320.0</ele><time>2026-04-04T16:12:08.059Z</time></trkpt><trkpt lat="42.9288738" lon="11.9185541"><ele>317.5</ele><time>2026-04-04T16:12:09.06Z</time></trkpt><trkpt lat="42.92906" lon="11.9187594"><ele>315.0</ele><time>2026-04-04T16:12:10.06Z</time></trkpt><trkpt lat="42.9292367" lon="11.9189636"><ele>315.0</ele><time>2026-04-04T16:12:11.069Z</time></trkpt><trkpt lat="42.9294075" lon="11.9191569"><ele>315.0</ele><time>2026-04-04T16:12:12.055Z</time></trkpt><trkpt lat="42.929568" lon="11.9193328"><ele>315.0</ele><time>2026-04-04T16:12:13.06Z</time></trkpt><trkpt lat="42.9297288" lon="11.9195091"><ele>315.0</ele><time>2026-04-04T16:12:14.06Z</time></trkpt><trkpt lat="42.9298968" lon="11.9196952"><ele>315.0</ele><time>2026-04-04T16:12:15.071Z</time></trkpt><trkpt lat="42.9300743" lon="11.9198913"><ele>315.0</ele><time>2026-04-04T16:12:16.057Z</time></trkpt><trkpt lat="42.9302594" lon="11.9200911"><ele>315.0</ele><time>2026-04-04T16:12:17.069Z</time></trkpt><trkpt lat="42.9304332" lon="11.92029"><ele>315.0</ele><time>2026-04-04T16:12:18.068Z</time></trkpt><trkpt lat="42.930594" lon="11.9204678"><ele>315.0</ele><time>2026-04-04T16:12:19.058Z</time></trkpt><trkpt lat="42.9307365" lon="11.9206279"><ele>315.0</ele><time>2026-04-04T16:12:20.059Z</time></trkpt><trkpt lat="42.9308689" lon="11.9207884"><ele>315.0</ele><time>2026-04-04T16:12:21.06Z</time></trkpt><trkpt lat="42.9309939" lon="11.9209646"><ele>315.0</ele><time>2026-04-04T16:12:22.056Z</time></trkpt><trkpt lat="42.9311066" lon="11.9211757"><ele>316.3333333333333</ele><time>2026-04-04T16:12:23.061Z</time></trkpt><trkpt lat="42.9311981" lon="11.9213748"><ele>317.66666666666663</ele><time>2026-04-04T16:12:24.061Z</time></trkpt><trkpt lat="42.9312929" lon="11.9215578"><ele>319.0</ele><time>2026-04-04T16:12:25.062Z</time></trkpt><trkpt lat="42.9313991" lon="11.9217154"><ele>317.0</ele><time>2026-04-04T16:12:26.058Z</time></trkpt><trkpt lat="42.9315194" lon="11.9218398"><ele>315.0</ele><time>2026-04-04T16:12:27.058Z</time></trkpt><trkpt lat="42.9316659" lon="11.921936"><ele>313.0</ele><time>2026-04-04T16:12:28.062Z</time></trkpt><trkpt lat="42.9318349" lon="11.9219854"><ele>313.0</ele><time>2026-04-04T16:12:29.055Z</time></trkpt><trkpt lat="42.9320113" lon="11.9220167"><ele>313.0</ele><time>2026-04-04T16:12:30.065Z</time></trkpt><trkpt lat="42.932203" lon="11.9220411"><ele>313.0</ele><time>2026-04-04T16:12:31.065Z</time></trkpt><trkpt lat="42.9324077" lon="11.9220644"><ele>312.0</ele><time>2026-04-04T16:12:32.073Z</time></trkpt><trkpt lat="42.9326311" lon="11.9220795"><ele>311.0</ele><time>2026-04-04T16:12:33.067Z</time></trkpt><trkpt lat="42.9328601" lon="11.9220907"><ele>311.0</ele><time>2026-04-04T16:12:34.068Z</time></trkpt><trkpt lat="42.9330764" lon="11.9221001"><ele>311.0</ele><time>2026-04-04T16:12:35.076Z</time></trkpt><trkpt lat="42.9332772" lon="11.9221027"><ele>311.0</ele><time>2026-04-04T16:12:36.077Z</time></trkpt><trkpt lat="42.9334676" lon="11.9220824"><ele>311.0</ele><time>2026-04-04T16:12:37.068Z</time></trkpt><trkpt lat="42.9336499" lon="11.9220162"><ele>311.0</ele><time>2026-04-04T16:12:38.059Z</time></trkpt><trkpt lat="42.933826" lon="11.9219484"><ele>311.0</ele><time>2026-04-04T16:12:39.055Z</time></trkpt><trkpt lat="42.9339871" lon="11.9219249"><ele>311.0</ele><time>2026-04-04T16:12:40.073Z</time></trkpt><trkpt lat="42.9341425" lon="11.921912"><ele>311.0</ele><time>2026-04-04T16:12:41.069Z</time></trkpt><trkpt lat="42.9342933" lon="11.9219424"><ele>311.0</ele><time>2026-04-04T16:12:42.069Z</time></trkpt><trkpt lat="42.934431" lon="11.9220028"><ele>315.0</ele><time>2026-04-04T16:12:43.065Z</time></trkpt><trkpt lat="42.9345453" lon="11.9221299"><ele>319.0</ele><time>2026-04-04T16:12:44.056Z</time></trkpt><trkpt lat="42.9346244" lon="11.9223108"><ele>323.0</ele><time>2026-04-04T16:12:45.065Z</time></trkpt><trkpt lat="42.9346642" lon="11.9225127"><ele>321.6666666666667</ele><time>2026-04-04T16:12:46.062Z</time></trkpt><trkpt lat="42.934682" lon="11.9227448"><ele>320.3333333333333</ele><time>2026-04-04T16:12:47.069Z</time></trkpt><trkpt lat="42.9347217" lon="11.9229814"><ele>319.0</ele><time>2026-04-04T16:12:48.062Z</time></trkpt><trkpt lat="42.9347956" lon="11.9232099"><ele>319.0</ele><time>2026-04-04T16:12:49.052Z</time></trkpt><trkpt lat="42.9348879" lon="11.9234068"><ele>319.0</ele><time>2026-04-04T16:12:50.059Z</time></trkpt><trkpt lat="42.9349868" lon="11.9235835"><ele>319.0</ele><time>2026-04-04T16:12:51.059Z</time></trkpt><trkpt lat="42.9351081" lon="11.9237412"><ele>319.0</ele><time>2026-04-04T16:12:52.061Z</time></trkpt><trkpt lat="42.9352516" lon="11.9238871"><ele>319.0</ele><time>2026-04-04T16:12:53.054Z</time></trkpt><trkpt lat="42.9354058" lon="11.9240315"><ele>319.0</ele><time>2026-04-04T16:12:54.069Z</time></trkpt><trkpt lat="42.9355554" lon="11.9241775"><ele>318.0</ele><time>2026-04-04T16:12:55.058Z</time></trkpt><trkpt lat="42.9357016" lon="11.9243188"><ele>317.0</ele><time>2026-04-04T16:12:56.06Z</time></trkpt><trkpt lat="42.9358389" lon="11.9244646"><ele>316.0</ele><time>2026-04-04T16:12:57.054Z</time></trkpt><trkpt lat="42.9359768" lon="11.9246016"><ele>314.0</ele><time>2026-04-04T16:12:58.059Z</time></trkpt><trkpt lat="42.9361062" lon="11.924731"><ele>312.0</ele><time>2026-04-04T16:12:59.057Z</time></trkpt><trkpt lat="42.9362404" lon="11.9248411"><ele>310.0</ele><time>2026-04-04T16:13:00.069Z</time></trkpt><trkpt lat="42.9363717" lon="11.9249276"><ele>310.0</ele><time>2026-04-04T16:13:01.056Z</time></trkpt><trkpt lat="42.9365169" lon="11.9249868"><ele>310.0</ele><time>2026-04-04T16:13:02.059Z</time></trkpt><trkpt lat="42.9366752" lon="11.9250178"><ele>310.0</ele><time>2026-04-04T16:13:03.063Z</time></trkpt><trkpt lat="42.9368515" lon="11.9250415"><ele>311.0</ele><time>2026-04-04T16:13:04.069Z</time></trkpt><trkpt lat="42.9370292" lon="11.9250825"><ele>312.0</ele><time>2026-04-04T16:13:05.058Z</time></trkpt><trkpt lat="42.9371982" lon="11.9251395"><ele>313.0</ele><time>2026-04-04T16:13:06.064Z</time></trkpt><trkpt lat="42.9373602" lon="11.9252159"><ele>313.0</ele><time>2026-04-04T16:13:07.059Z</time></trkpt><trkpt lat="42.9375219" lon="11.9253311"><ele>313.0</ele><time>2026-04-04T16:13:08.057Z</time></trkpt><trkpt lat="42.9376603" lon="11.9254573"><ele>313.0</ele><time>2026-04-04T16:13:09.074Z</time></trkpt><trkpt lat="42.9377935" lon="11.9255843"><ele>310.66666666666663</ele><time>2026-04-04T16:13:10.059Z</time></trkpt><trkpt lat="42.9379193" lon="11.9256792"><ele>308.3333333333333</ele><time>2026-04-04T16:13:11.05Z</time></trkpt><trkpt lat="42.9380621" lon="11.9257479"><ele>306.0</ele><time>2026-04-04T16:13:12.07Z</time></trkpt><trkpt lat="42.9382291" lon="11.9257754"><ele>303.3333333333333</ele><time>2026-04-04T16:13:13.069Z</time></trkpt><trkpt lat="42.9384165" lon="11.9257662"><ele>300.66666666666663</ele><time>2026-04-04T16:13:14.039Z</time></trkpt><trkpt lat="42.9386129" lon="11.925765"><ele>298.0</ele><time>2026-04-04T16:13:15.055Z</time></trkpt><trkpt lat="42.9388129" lon="11.9257667"><ele>298.0</ele><time>2026-04-04T16:13:16.055Z</time></trkpt><trkpt lat="42.939007" lon="11.9257491"><ele>298.0</ele><time>2026-04-04T16:13:17.063Z</time></trkpt><trkpt lat="42.9391921" lon="11.9256956"><ele>298.0</ele><time>2026-04-04T16:13:18.059Z</time></trkpt><trkpt lat="42.9393573" lon="11.9256311"><ele>297.0</ele><time>2026-04-04T16:13:19.06Z</time></trkpt><trkpt lat="42.9395055" lon="11.9255507"><ele>296.0</ele><time>2026-04-04T16:13:20.055Z</time></trkpt><trkpt lat="42.9396252" lon="11.9254447"><ele>295.0</ele><time>2026-04-04T16:13:21.058Z</time></trkpt><trkpt lat="42.9397259" lon="11.9252994"><ele>294.0</ele><time>2026-04-04T16:13:22.055Z</time></trkpt><trkpt lat="42.9398088" lon="11.9251319"><ele>291.0</ele><time>2026-04-04T16:13:23.055Z</time></trkpt><trkpt lat="42.9398796" lon="11.924975"><ele>288.0</ele><time>2026-04-04T16:13:24.07Z</time></trkpt><trkpt lat="42.9399612" lon="11.9248507"><ele>285.0</ele><time>2026-04-04T16:13:25.056Z</time></trkpt><trkpt lat="42.9400509" lon="11.9247781"><ele>282.0</ele><time>2026-04-04T16:13:26.055Z</time></trkpt><trkpt lat="42.9401537" lon="11.9247755"><ele>281.75</ele><time>2026-04-04T16:13:27.06Z</time></trkpt><trkpt lat="42.9402468" lon="11.9248353"><ele>281.5</ele><time>2026-04-04T16:13:28.061Z</time></trkpt><trkpt lat="42.9403281" lon="11.9249404"><ele>281.25</ele><time>2026-04-04T16:13:29.072Z</time></trkpt><trkpt lat="42.9403988" lon="11.9250836"><ele>281.0</ele><time>2026-04-04T16:13:30.059Z</time></trkpt><trkpt lat="42.9404687" lon="11.9252439"><ele>281.0</ele><time>2026-04-04T16:13:31.059Z</time></trkpt><trkpt lat="42.9405469" lon="11.9253824"><ele>281.0</ele><time>2026-04-04T16:13:32.053Z</time></trkpt><trkpt lat="42.9406282" lon="11.9254963"><ele>281.0</ele><time>2026-04-04T16:13:33.066Z</time></trkpt><trkpt lat="42.9407296" lon="11.9255722"><ele>281.0</ele><time>2026-04-04T16:13:34.085Z</time></trkpt><trkpt lat="42.940853" lon="11.9256033"><ele>278.5</ele><time>2026-04-04T16:13:35.072Z</time></trkpt><trkpt lat="42.9409756" lon="11.9255788"><ele>276.0</ele><time>2026-04-04T16:13:36.059Z</time></trkpt><trkpt lat="42.941102" lon="11.9254994"><ele>273.5</ele><time>2026-04-04T16:13:37.057Z</time></trkpt><trkpt lat="42.9412254" lon="11.9253822"><ele>271.0</ele><time>2026-04-04T16:13:38.064Z</time></trkpt><trkpt lat="42.9413655" lon="11.9252593"><ele>271.0</ele><time>2026-04-04T16:13:39.057Z</time></trkpt><trkpt lat="42.9415186" lon="11.9251356"><ele>271.0</ele><time>2026-04-04T16:13:40.075Z</time></trkpt><trkpt lat="42.9416806" lon="11.9249857"><ele>271.0</ele><time>2026-04-04T16:13:41.066Z</time></trkpt><trkpt lat="42.9418587" lon="11.9248226"><ele>270.0</ele><time>2026-04-04T16:13:42.062Z</time></trkpt><trkpt lat="42.9420509" lon="11.92465"><ele>269.0</ele><time>2026-04-04T16:13:43.067Z</time></trkpt><trkpt lat="42.9422454" lon="11.9244875"><ele>269.0</ele><time>2026-04-04T16:13:44.066Z</time></trkpt><trkpt lat="42.9424277" lon="11.9243324"><ele>269.0</ele><time>2026-04-04T16:13:45.071Z</time></trkpt><trkpt lat="42.9426042" lon="11.9241914"><ele>269.0</ele><time>2026-04-04T16:13:46.07Z</time></trkpt><trkpt lat="42.942788" lon="11.9240604"><ele>269.0</ele><time>2026-04-04T16:13:47.071Z</time></trkpt><trkpt lat="42.942986" lon="11.9239442"><ele>269.0</ele><time>2026-04-04T16:13:48.063Z</time></trkpt><trkpt lat="42.9432051" lon="11.9238436"><ele>269.0</ele><time>2026-04-04T16:13:49.066Z</time></trkpt><trkpt lat="42.943439" lon="11.9237331"><ele>269.0</ele><time>2026-04-04T16:13:50.063Z</time></trkpt><trkpt lat="42.9436804" lon="11.9236168"><ele>269.0</ele><time>2026-04-04T16:13:51.063Z</time></trkpt><trkpt lat="42.9439298" lon="11.9234925"><ele>270.0</ele><time>2026-04-04T16:13:52.061Z</time></trkpt><trkpt lat="42.9441831" lon="11.923358"><ele>271.0</ele><time>2026-04-04T16:13:53.059Z</time></trkpt><trkpt lat="42.9444417" lon="11.9232216"><ele>272.0</ele><time>2026-04-04T16:13:54.061Z</time></trkpt><trkpt lat="42.9447094" lon="11.9230879"><ele>273.0</ele><time>2026-04-04T16:13:55.057Z</time></trkpt><trkpt lat="42.9449817" lon="11.9229436"><ele>274.5</ele><time>2026-04-04T16:13:56.062Z</time></trkpt><trkpt lat="42.9452572" lon="11.9228008"><ele>276.0</ele><time>2026-04-04T16:13:57.063Z</time></trkpt><trkpt lat="42.9455316" lon="11.9226533"><ele>279.5</ele><time>2026-04-04T16:13:58.068Z</time></trkpt><trkpt lat="42.9457988" lon="11.9225178"><ele>283.0</ele><time>2026-04-04T16:13:59.055Z</time></trkpt><trkpt lat="42.9460464" lon="11.9223884"><ele>284.0</ele><time>2026-04-04T16:14:00.063Z</time></trkpt><trkpt lat="42.9462765" lon="11.9222659"><ele>285.0</ele><time>2026-04-04T16:14:01.065Z</time></trkpt><trkpt lat="42.9464893" lon="11.9221582"><ele>285.0</ele><time>2026-04-04T16:14:02.068Z</time></trkpt><trkpt lat="42.9466849" lon="11.9220568"><ele>285.0</ele><time>2026-04-04T16:14:03.069Z</time></trkpt><trkpt lat="42.9468682" lon="11.9219561"><ele>285.0</ele><time>2026-04-04T16:14:04.062Z</time></trkpt><trkpt lat="42.9470435" lon="11.9218703"><ele>287.0</ele><time>2026-04-04T16:14:05.058Z</time></trkpt><trkpt lat="42.9472155" lon="11.9217835"><ele>289.0</ele><time>2026-04-04T16:14:06.076Z</time></trkpt><trkpt lat="42.9473867" lon="11.9216965"><ele>291.0</ele><time>2026-04-04T16:14:07.057Z</time></trkpt><trkpt lat="42.9475514" lon="11.9216057"><ele>293.3333333333333</ele><time>2026-04-04T16:14:08.068Z</time></trkpt><trkpt lat="42.9477067" lon="11.9215291"><ele>295.66666666666663</ele><time>2026-04-04T16:14:09.058Z</time></trkpt><trkpt lat="42.9478492" lon="11.9214623"><ele>298.0</ele><time>2026-04-04T16:14:10.071Z</time></trkpt><trkpt lat="42.9479805" lon="11.9213898"><ele>298.0</ele><time>2026-04-04T16:14:11.062Z</time></trkpt><trkpt lat="42.9480919" lon="11.9212921"><ele>298.0</ele><time>2026-04-04T16:14:12.07Z</time></trkpt><trkpt lat="42.9481913" lon="11.9211634"><ele>298.0</ele><time>2026-04-04T16:14:13.066Z</time></trkpt><trkpt lat="42.9482896" lon="11.9210075"><ele>298.0</ele><time>2026-04-04T16:14:14.063Z</time></trkpt><trkpt lat="42.9483902" lon="11.9208458"><ele>294.3333333333333</ele><time>2026-04-04T16:14:15.065Z</time></trkpt><trkpt lat="42.9485019" lon="11.9206827"><ele>290.6666666666667</ele><time>2026-04-04T16:14:16.07Z</time></trkpt><trkpt lat="42.9486321" lon="11.9205179"><ele>287.0</ele><time>2026-04-04T16:14:17.101Z</time></trkpt><trkpt lat="42.9487733" lon="11.9203564"><ele>287.0</ele><time>2026-04-04T16:14:18.088Z</time></trkpt><trkpt lat="42.9489287" lon="11.9201812"><ele>287.0</ele><time>2026-04-04T16:14:19.075Z</time></trkpt><trkpt lat="42.9490918" lon="11.9200016"><ele>287.0</ele><time>2026-04-04T16:14:20.083Z</time></trkpt><trkpt lat="42.9492696" lon="11.9198282"><ele>282.5</ele><time>2026-04-04T16:14:21.072Z</time></trkpt><trkpt lat="42.949467" lon="11.9196601"><ele>278.0</ele><time>2026-04-04T16:14:22.086Z</time></trkpt><trkpt lat="42.9496776" lon="11.9194902"><ele>278.0</ele><time>2026-04-04T16:14:23.075Z</time></trkpt><trkpt lat="42.9498922" lon="11.9193037"><ele>278.0</ele><time>2026-04-04T16:14:24.089Z</time></trkpt><trkpt lat="42.9501034" lon="11.9191153"><ele>275.5</ele><time>2026-04-04T16:14:25.077Z</time></trkpt><trkpt lat="42.9503073" lon="11.9189233"><ele>273.0</ele><time>2026-04-04T16:14:26.077Z</time></trkpt><trkpt lat="42.9505143" lon="11.9187314"><ele>273.0</ele><time>2026-04-04T16:14:27.074Z</time></trkpt><trkpt lat="42.9507247" lon="11.9185355"><ele>273.0</ele><time>2026-04-04T16:14:28.075Z</time></trkpt><trkpt lat="42.9509448" lon="11.9183411"><ele>272.0</ele><time>2026-04-04T16:14:29.063Z</time></trkpt><trkpt lat="42.9511636" lon="11.9181558"><ele>271.0</ele><time>2026-04-04T16:14:30.07Z</time></trkpt><trkpt lat="42.9513699" lon="11.917983"><ele>271.0</ele><time>2026-04-04T16:14:31.07Z</time></trkpt><trkpt lat="42.9515606" lon="11.9178224"><ele>271.0</ele><time>2026-04-04T16:14:32.06Z</time></trkpt><trkpt lat="42.9517395" lon="11.917663"><ele>271.0</ele><time>2026-04-04T16:14:33.069Z</time></trkpt><trkpt lat="42.9519051" lon="11.9175043"><ele>274.3333333333333</ele><time>2026-04-04T16:14:34.08Z</time></trkpt><trkpt lat="42.9520559" lon="11.9173488"><ele>277.6666666666667</ele><time>2026-04-04T16:14:35.068Z</time></trkpt><trkpt lat="42.9521906" lon="11.9172028"><ele>281.0</ele><time>2026-04-04T16:14:36.062Z</time></trkpt><trkpt lat="42.9523034" lon="11.9170471"><ele>281.0</ele><time>2026-04-04T16:14:37.076Z</time></trkpt><trkpt lat="42.9523855" lon="11.9168675"><ele>281.0</ele><time>2026-04-04T16:14:38.069Z</time></trkpt><trkpt lat="42.9524393" lon="11.9166601"><ele>281.0</ele><time>2026-04-04T16:14:39.097Z</time></trkpt><trkpt lat="42.9524684" lon="11.9164387"><ele>281.5</ele><time>2026-04-04T16:14:40.062Z</time></trkpt><trkpt lat="42.9524868" lon="11.9162166"><ele>282.0</ele><time>2026-04-04T16:14:41.065Z</time></trkpt><trkpt lat="42.9525027" lon="11.9160255"><ele>282.5</ele><time>2026-04-04T16:14:42.06Z</time></trkpt><trkpt lat="42.9525232" lon="11.9158614"><ele>283.0</ele><time>2026-04-04T16:14:43.066Z</time></trkpt><trkpt lat="42.9525661" lon="11.9157173"><ele>285.4</ele><time>2026-04-04T16:14:44.062Z</time></trkpt><trkpt lat="42.9526271" lon="11.9155998"><ele>287.8</ele><time>2026-04-04T16:14:45.071Z</time></trkpt><trkpt lat="42.9527005" lon="11.9155488"><ele>290.2</ele><time>2026-04-04T16:14:46.07Z</time></trkpt><trkpt lat="42.9527963" lon="11.9155726"><ele>292.6</ele><time>2026-04-04T16:14:47.057Z</time></trkpt><trkpt lat="42.9528915" lon="11.9156424"><ele>295.0</ele><time>2026-04-04T16:14:48.062Z</time></trkpt><trkpt lat="42.9529685" lon="11.9157819"><ele>293.75</ele><time>2026-04-04T16:14:49.063Z</time></trkpt><trkpt lat="42.9530157" lon="11.915958"><ele>292.5</ele><time>2026-04-04T16:14:50.06Z</time></trkpt><trkpt lat="42.9530789" lon="11.9161287"><ele>291.25</ele><time>2026-04-04T16:14:51.057Z</time></trkpt><trkpt lat="42.9531529" lon="11.9162552"><ele>290.0</ele><time>2026-04-04T16:14:52.057Z</time></trkpt><trkpt lat="42.9532311" lon="11.9163398"><ele>290.0</ele><time>2026-04-04T16:14:53.064Z</time></trkpt><trkpt lat="42.953316" lon="11.9163596"><ele>290.0</ele><time>2026-04-04T16:14:54.084Z</time></trkpt><trkpt lat="42.9534113" lon="11.9163337"><ele>290.0</ele><time>2026-04-04T16:14:55.057Z</time></trkpt><trkpt lat="42.9535274" lon="11.9162477"><ele>290.0</ele><time>2026-04-04T16:14:56.066Z</time></trkpt><trkpt lat="42.9536543" lon="11.9161207"><ele>291.0</ele><time>2026-04-04T16:14:57.058Z</time></trkpt><trkpt lat="42.9537985" lon="11.9159886"><ele>292.0</ele><time>2026-04-04T16:14:58.067Z</time></trkpt><trkpt lat="42.9539542" lon="11.915856"><ele>293.0</ele><time>2026-04-04T16:14:59.062Z</time></trkpt><trkpt lat="42.9541133" lon="11.9157367"><ele>290.6666666666667</ele><time>2026-04-04T16:15:00.062Z</time></trkpt><trkpt lat="42.9542667" lon="11.91564"><ele>288.3333333333333</ele><time>2026-04-04T16:15:01.054Z</time></trkpt><trkpt lat="42.9544198" lon="11.9155339"><ele>286.0</ele><time>2026-04-04T16:15:02.078Z</time></trkpt><trkpt lat="42.954575" lon="11.91541"><ele>286.0</ele><time>2026-04-04T16:15:03.055Z</time></trkpt><trkpt lat="42.9547303" lon="11.9152744"><ele>286.0</ele><time>2026-04-04T16:15:04.058Z</time></trkpt><trkpt lat="42.954886" lon="11.915109"><ele>286.0</ele><time>2026-04-04T16:15:05.05Z</time></trkpt><trkpt lat="42.9550415" lon="11.9149221"><ele>285.3333333333333</ele><time>2026-04-04T16:15:06.055Z</time></trkpt><trkpt lat="42.9551913" lon="11.9147407"><ele>284.6666666666667</ele><time>2026-04-04T16:15:07.055Z</time></trkpt><trkpt lat="42.9553351" lon="11.9145398"><ele>284.0</ele><time>2026-04-04T16:15:08.053Z</time></trkpt><trkpt lat="42.9554862" lon="11.9143263"><ele>283.0</ele><time>2026-04-04T16:15:09.081Z</time></trkpt><trkpt lat="42.9556435" lon="11.9140932"><ele>282.0</ele><time>2026-04-04T16:15:10.052Z</time></trkpt><trkpt lat="42.9558048" lon="11.9138566"><ele>276.5</ele><time>2026-04-04T16:15:11.052Z</time></trkpt><trkpt lat="42.9559652" lon="11.9136293"><ele>271.0</ele><time>2026-04-04T16:15:12.054Z</time></trkpt><trkpt lat="42.9561161" lon="11.9134017"><ele>271.0</ele><time>2026-04-04T16:15:13.067Z</time></trkpt><trkpt lat="42.9562631" lon="11.9131752"><ele>271.0</ele><time>2026-04-04T16:15:14.055Z</time></trkpt><trkpt lat="42.9564151" lon="11.9129536"><ele>271.0</ele><time>2026-04-04T16:15:15.059Z</time></trkpt><trkpt lat="42.9565743" lon="11.9127311"><ele>270.5</ele><time>2026-04-04T16:15:16.059Z</time></trkpt><trkpt lat="42.9567364" lon="11.9125071"><ele>270.0</ele><time>2026-04-04T16:15:17.067Z</time></trkpt><trkpt lat="42.9569052" lon="11.9122769"><ele>270.0</ele><time>2026-04-04T16:15:18.068Z</time></trkpt><trkpt lat="42.9570764" lon="11.9120432"><ele>270.0</ele><time>2026-04-04T16:15:19.057Z</time></trkpt><trkpt lat="42.9572465" lon="11.9118093"><ele>270.3333333333333</ele><time>2026-04-04T16:15:20.077Z</time></trkpt><trkpt lat="42.957407" lon="11.9115935"><ele>270.66666666666663</ele><time>2026-04-04T16:15:21.057Z</time></trkpt><trkpt lat="42.9575613" lon="11.9113891"><ele>271.0</ele><time>2026-04-04T16:15:22.061Z</time></trkpt><trkpt lat="42.9577118" lon="11.911185"><ele>271.3333333333333</ele><time>2026-04-04T16:15:23.06Z</time></trkpt><trkpt lat="42.9578613" lon="11.9109801"><ele>271.6666666666667</ele><time>2026-04-04T16:15:24.055Z</time></trkpt><trkpt lat="42.9580098" lon="11.9107791"><ele>272.0</ele><time>2026-04-04T16:15:25.06Z</time></trkpt><trkpt lat="42.9581559" lon="11.9105779"><ele>272.0</ele><time>2026-04-04T16:15:26.065Z</time></trkpt><trkpt lat="42.9583035" lon="11.910376"><ele>272.0</ele><time>2026-04-04T16:15:27.064Z</time></trkpt><trkpt lat="42.9584546" lon="11.9101677"><ele>272.0</ele><time>2026-04-04T16:15:28.077Z</time></trkpt><trkpt lat="42.958614" lon="11.9099472"><ele>274.0</ele><time>2026-04-04T16:15:29.067Z</time></trkpt><trkpt lat="42.9587666" lon="11.909736"><ele>276.0</ele><time>2026-04-04T16:15:30.076Z</time></trkpt><trkpt lat="42.958908" lon="11.9095342"><ele>278.0</ele><time>2026-04-04T16:15:31.064Z</time></trkpt><trkpt lat="42.9590421" lon="11.9093466"><ele>277.0</ele><time>2026-04-04T16:15:32.07Z</time></trkpt><trkpt lat="42.9591724" lon="11.9091738"><ele>276.0</ele><time>2026-04-04T16:15:33.065Z</time></trkpt><trkpt lat="42.9593046" lon="11.9090185"><ele>275.0</ele><time>2026-04-04T16:15:34.073Z</time></trkpt><trkpt lat="42.9594532" lon="11.9089061"><ele>278.0</ele><time>2026-04-04T16:15:35.066Z</time></trkpt><trkpt lat="42.9596204" lon="11.9088344"><ele>281.0</ele><time>2026-04-04T16:15:36.067Z</time></trkpt><trkpt lat="42.9598067" lon="11.9087951"><ele>284.0</ele><time>2026-04-04T16:15:37.063Z</time></trkpt><trkpt lat="42.9599996" lon="11.9087505"><ele>289.0</ele><time>2026-04-04T16:15:38.057Z</time></trkpt><trkpt lat="42.9601987" lon="11.9086961"><ele>294.0</ele><time>2026-04-04T16:15:39.062Z</time></trkpt><trkpt lat="42.9604053" lon="11.9086453"><ele>299.0</ele><time>2026-04-04T16:15:40.057Z</time></trkpt><trkpt lat="42.9606057" lon="11.9085926"><ele>299.0</ele><time>2026-04-04T16:15:41.07Z</time></trkpt><trkpt lat="42.9607976" lon="11.9085447"><ele>299.0</ele><time>2026-04-04T16:15:42.051Z</time></trkpt><trkpt lat="42.9609817" lon="11.9084987"><ele>299.0</ele><time>2026-04-04T16:15:43.062Z</time></trkpt><trkpt lat="42.9611676" lon="11.9084573"><ele>301.6666666666667</ele><time>2026-04-04T16:15:44.059Z</time></trkpt><trkpt lat="42.9613465" lon="11.9084123"><ele>304.3333333333333</ele><time>2026-04-04T16:15:45.062Z</time></trkpt><trkpt lat="42.9615141" lon="11.9083723"><ele>307.0</ele><time>2026-04-04T16:15:46.063Z</time></trkpt><trkpt lat="42.9616654" lon="11.9083397"><ele>301.66666666666663</ele><time>2026-04-04T16:15:47.05Z</time></trkpt><trkpt lat="42.9618132" lon="11.9082726"><ele>296.3333333333333</ele><time>2026-04-04T16:15:48.056Z</time></trkpt><trkpt lat="42.9619434" lon="11.9081659"><ele>291.0</ele><time>2026-04-04T16:15:49.061Z</time></trkpt><trkpt lat="42.962043" lon="11.9079973"><ele>291.0</ele><time>2026-04-04T16:15:50.052Z</time></trkpt><trkpt lat="42.9621324" lon="11.9078164"><ele>291.0</ele><time>2026-04-04T16:15:51.06Z</time></trkpt><trkpt lat="42.9622079" lon="11.907634"><ele>291.0</ele><time>2026-04-04T16:15:52.045Z</time></trkpt><trkpt lat="42.9622766" lon="11.9074453"><ele>290.0</ele><time>2026-04-04T16:15:53.065Z</time></trkpt><trkpt lat="42.9623409" lon="11.9072532"><ele>289.0</ele><time>2026-04-04T16:15:54.062Z</time></trkpt><trkpt lat="42.9624224" lon="11.9070683"><ele>288.0</ele><time>2026-04-04T16:15:55.054Z</time></trkpt><trkpt lat="42.962516" lon="11.9069"><ele>290.3333333333333</ele><time>2026-04-04T16:15:56.056Z</time></trkpt><trkpt lat="42.9626147" lon="11.9067488"><ele>292.66666666666663</ele><time>2026-04-04T16:15:57.065Z</time></trkpt><trkpt lat="42.962722" lon="11.9065924"><ele>295.0</ele><time>2026-04-04T16:15:58.069Z</time></trkpt><trkpt lat="42.9628428" lon="11.9064343"><ele>296.0</ele><time>2026-04-04T16:15:59.07Z</time></trkpt><trkpt lat="42.9629809" lon="11.9062615"><ele>297.0</ele><time>2026-04-04T16:16:00.068Z</time></trkpt><trkpt lat="42.9631165" lon="11.9060764"><ele>298.0</ele><time>2026-04-04T16:16:01.063Z</time></trkpt><trkpt lat="42.9632341" lon="11.9058959"><ele>298.0</ele><time>2026-04-04T16:16:02.054Z</time></trkpt><trkpt lat="42.9633451" lon="11.9057563"><ele>298.0</ele><time>2026-04-04T16:16:03.068Z</time></trkpt><trkpt lat="42.9634543" lon="11.9056652"><ele>298.0</ele><time>2026-04-04T16:16:04.058Z</time></trkpt><trkpt lat="42.9635816" lon="11.9056186"><ele>298.0</ele><time>2026-04-04T16:16:05.057Z</time></trkpt><trkpt lat="42.9637179" lon="11.9056252"><ele>300.0</ele><time>2026-04-04T16:16:06.048Z</time></trkpt><trkpt lat="42.9638589" lon="11.9056341"><ele>302.0</ele><time>2026-04-04T16:16:07.06Z</time></trkpt><trkpt lat="42.9640075" lon="11.9056344"><ele>304.0</ele><time>2026-04-04T16:16:08.068Z</time></trkpt><trkpt lat="42.9641598" lon="11.9056345"><ele>306.0</ele><time>2026-04-04T16:16:09.054Z</time></trkpt><trkpt lat="42.9643083" lon="11.9056442"><ele>306.5</ele><time>2026-04-04T16:16:10.051Z</time></trkpt><trkpt lat="42.964447" lon="11.9056658"><ele>307.0</ele><time>2026-04-04T16:16:11.06Z</time></trkpt><trkpt lat="42.9645774" lon="11.9057043"><ele>307.5</ele><time>2026-04-04T16:16:12.052Z</time></trkpt><trkpt lat="42.9647038" lon="11.9057863"><ele>308.0</ele><time>2026-04-04T16:16:13.068Z</time></trkpt><trkpt lat="42.9648246" lon="11.9058876"><ele>309.75</ele><time>2026-04-04T16:16:14.05Z</time></trkpt><trkpt lat="42.9649387" lon="11.905995"><ele>311.5</ele><time>2026-04-04T16:16:15.046Z</time></trkpt><trkpt lat="42.9650396" lon="11.9061194"><ele>313.25</ele><time>2026-04-04T16:16:16.054Z</time></trkpt><trkpt lat="42.9651281" lon="11.9062151"><ele>315.0</ele><time>2026-04-04T16:16:17.046Z</time></trkpt><trkpt lat="42.9652261" lon="11.9062599"><ele>315.4</ele><time>2026-04-04T16:16:18.085Z</time></trkpt><trkpt lat="42.9653276" lon="11.9062522"><ele>315.8</ele><time>2026-04-04T16:16:19.046Z</time></trkpt><trkpt lat="42.9654201" lon="11.906223"><ele>316.2</ele><time>2026-04-04T16:16:20.058Z</time></trkpt><trkpt lat="42.9655012" lon="11.9061323"><ele>316.6</ele><time>2026-04-04T16:16:21.056Z</time></trkpt><trkpt lat="42.9655565" lon="11.9060044"><ele>317.0</ele><time>2026-04-04T16:16:22.059Z</time></trkpt><trkpt lat="42.96558" lon="11.905856"><ele>317.0</ele><time>2026-04-04T16:16:23.054Z</time></trkpt><trkpt lat="42.965556" lon="11.905704"><ele>317.0</ele><time>2026-04-04T16:16:24.059Z</time></trkpt><trkpt lat="42.9655086" lon="11.9055455"><ele>317.0</ele><time>2026-04-04T16:16:25.053Z</time></trkpt><trkpt lat="42.9654429" lon="11.9053866"><ele>317.0</ele><time>2026-04-04T16:16:26.063Z</time></trkpt><trkpt lat="42.9653843" lon="11.9052304"><ele>317.0</ele><time>2026-04-04T16:16:27.054Z</time></trkpt><trkpt lat="42.9653379" lon="11.9050888"><ele>317.0</ele><time>2026-04-04T16:16:28.063Z</time></trkpt><trkpt lat="42.9653153" lon="11.9049653"><ele>317.0</ele><time>2026-04-04T16:16:29.063Z</time></trkpt><trkpt lat="42.9653228" lon="11.9048448"><ele>317.0</ele><time>2026-04-04T16:16:30.061Z</time></trkpt><trkpt lat="42.9653575" lon="11.9047535"><ele>317.0</ele><time>2026-04-04T16:16:31.097Z</time></trkpt><trkpt lat="42.9654119" lon="11.9046752"><ele>317.0</ele><time>2026-04-04T16:16:32.06Z</time></trkpt><trkpt lat="42.965486" lon="11.9046152"><ele>317.25</ele><time>2026-04-04T16:16:33.049Z</time></trkpt><trkpt lat="42.9655893" lon="11.9045644"><ele>317.5</ele><time>2026-04-04T16:16:34.061Z</time></trkpt><trkpt lat="42.9657096" lon="11.904515"><ele>317.75</ele><time>2026-04-04T16:16:35.048Z</time></trkpt><trkpt lat="42.9658415" lon="11.9044827"><ele>318.0</ele><time>2026-04-04T16:16:36.059Z</time></trkpt><trkpt lat="42.9659639" lon="11.9044484"><ele>319.25</ele><time>2026-04-04T16:16:37.055Z</time></trkpt><trkpt lat="42.9660654" lon="11.9044"><ele>320.5</ele><time>2026-04-04T16:16:38.065Z</time></trkpt><trkpt lat="42.9661532" lon="11.9043075"><ele>321.75</ele><time>2026-04-04T16:16:39.065Z</time></trkpt><trkpt lat="42.9662287" lon="11.9041769"><ele>323.0</ele><time>2026-04-04T16:16:40.049Z</time></trkpt><trkpt lat="42.9662912" lon="11.904021"><ele>323.5</ele><time>2026-04-04T16:16:41.056Z</time></trkpt><trkpt lat="42.9663446" lon="11.9038501"><ele>324.0</ele><time>2026-04-04T16:16:42.053Z</time></trkpt><trkpt lat="42.9663834" lon="11.9036905"><ele>324.5</ele><time>2026-04-04T16:16:43.066Z</time></trkpt><trkpt lat="42.9664179" lon="11.9035519"><ele>325.0</ele><time>2026-04-04T16:16:44.064Z</time></trkpt><trkpt lat="42.9664505" lon="11.9034304"><ele>325.0</ele><time>2026-04-04T16:16:45.083Z</time></trkpt><trkpt lat="42.9664814" lon="11.9033165"><ele>325.0</ele><time>2026-04-04T16:16:46.051Z</time></trkpt><trkpt lat="42.9665104" lon="11.9032181"><ele>325.0</ele><time>2026-04-04T16:16:47.055Z</time></trkpt><trkpt lat="42.9665394" lon="11.9031369"><ele>325.0</ele><time>2026-04-04T16:16:48.066Z</time></trkpt><trkpt lat="42.9665963" lon="11.903003"><ele>325.0</ele><time>2026-04-04T16:16:50.081Z</time></trkpt><trkpt lat="42.9666412" lon="11.9028898"><ele>325.0</ele><time>2026-04-04T16:16:52.068Z</time></trkpt><trkpt lat="42.9666782" lon="11.9028126"><ele>324.5</ele><time>2026-04-04T16:16:54.065Z</time></trkpt><trkpt lat="42.9667205" lon="11.902727"><ele>324.0</ele><time>2026-04-04T16:16:57.055Z</time></trkpt><trkpt lat="42.9667675" lon="11.9026398"><ele>323.5</ele><time>2026-04-04T16:17:01.113Z</time></trkpt><trkpt lat="42.9668284" lon="11.9025414"><ele>323.0</ele><time>2026-04-04T16:17:04.066Z</time></trkpt><trkpt lat="42.9667794" lon="11.9024137"><ele>322.5</ele><time>2026-04-04T16:17:06.055Z</time></trkpt><trkpt lat="42.9667396" lon="11.9023344"><ele>322.0</ele><time>2026-04-04T16:17:07.056Z</time></trkpt><trkpt lat="42.9667045" lon="11.9022532"><ele>323.16666666666663</ele><time>2026-04-04T16:17:08.055Z</time></trkpt><trkpt lat="42.9666699" lon="11.9021793"><ele>324.3333333333333</ele><time>2026-04-04T16:17:09.059Z</time></trkpt><trkpt lat="42.9665815" lon="11.9020439"><ele>325.5</ele><time>2026-04-04T16:17:11.055Z</time></trkpt><trkpt lat="42.9665262" lon="11.9019744"><ele>326.6666666666667</ele><time>2026-04-04T16:17:12.065Z</time></trkpt><trkpt lat="42.9664734" lon="11.901907"><ele>327.83333333333337</ele><time>2026-04-04T16:17:13.058Z</time></trkpt><trkpt lat="42.9664073" lon="11.901831"><ele>329.0</ele><time>2026-04-04T16:17:14.111Z</time></trkpt><trkpt lat="42.9663432" lon="11.9017536"><ele>329.83333333333337</ele><time>2026-04-04T16:17:15.056Z</time></trkpt><trkpt lat="42.9662906" lon="11.9016843"><ele>330.6666666666667</ele><time>2026-04-04T16:17:16.06Z</time></trkpt><trkpt lat="42.9662398" lon="11.90161"><ele>331.5</ele><time>2026-04-04T16:17:17.061Z</time></trkpt><trkpt lat="42.9661852" lon="11.9015334"><ele>332.3333333333333</ele><time>2026-04-04T16:17:18.058Z</time></trkpt><trkpt lat="42.9661202" lon="11.9014712"><ele>333.16666666666663</ele><time>2026-04-04T16:17:19.071Z</time></trkpt><trkpt lat="42.9660631" lon="11.901406"><ele>334.0</ele><time>2026-04-04T16:17:20.06Z</time></trkpt><trkpt lat="42.9660047" lon="11.9013294"><ele>334.0</ele><time>2026-04-04T16:17:21.058Z</time></trkpt><trkpt lat="42.9659563" lon="11.9012594"><ele>334.0</ele><time>2026-04-04T16:17:22.061Z</time></trkpt><trkpt lat="42.9658744" lon="11.9011504"><ele>334.0</ele><time>2026-04-04T16:17:24.053Z</time></trkpt><trkpt lat="42.9657949" lon="11.9010552"><ele>334.0</ele><time>2026-04-04T16:17:26.058Z</time></trkpt><trkpt lat="42.9657435" lon="11.9009835"><ele>334.0</ele><time>2026-04-04T16:17:27.061Z</time></trkpt><trkpt lat="42.9656891" lon="11.9008973"><ele>334.0</ele><time>2026-04-04T16:17:28.053Z</time></trkpt><trkpt lat="42.9656282" lon="11.9008158"><ele>335.5</ele><time>2026-04-04T16:17:29.052Z</time></trkpt><trkpt lat="42.965575" lon="11.9007303"><ele>337.0</ele><time>2026-04-04T16:17:30.064Z</time></trkpt><trkpt lat="42.9655207" lon="11.9006416"><ele>338.5</ele><time>2026-04-04T16:17:31.059Z</time></trkpt><trkpt lat="42.965471" lon="11.9005602"><ele>340.0</ele><time>2026-04-04T16:17:32.052Z</time></trkpt><trkpt lat="42.9654311" lon="11.9004851"><ele>341.5</ele><time>2026-04-04T16:17:33.062Z</time></trkpt><trkpt lat="42.9653992" lon="11.9004042"><ele>343.0</ele><time>2026-04-04T16:17:34.056Z</time></trkpt><trkpt lat="42.9653803" lon="11.9003061"><ele>343.0</ele><time>2026-04-04T16:17:35.055Z</time></trkpt><trkpt lat="42.9653776" lon="11.9001934"><ele>343.0</ele><time>2026-04-04T16:17:36.08Z</time></trkpt><trkpt lat="42.965394" lon="11.9000771"><ele>343.0</ele><time>2026-04-04T16:17:37.061Z</time></trkpt><trkpt lat="42.965414" lon="11.8999713"><ele>343.0</ele><time>2026-04-04T16:17:38.068Z</time></trkpt><trkpt lat="42.9654416" lon="11.8998661"><ele>343.0</ele><time>2026-04-04T16:17:39.058Z</time></trkpt><trkpt lat="42.9654697" lon="11.8997791"><ele>343.0</ele><time>2026-04-04T16:17:40.061Z</time></trkpt><trkpt lat="42.965513" lon="11.8996844"><ele>344.59999999999997</ele><time>2026-04-04T16:17:41.057Z</time></trkpt><trkpt lat="42.9655709" lon="11.8995771"><ele>346.2</ele><time>2026-04-04T16:17:42.051Z</time></trkpt><trkpt lat="42.9656161" lon="11.8994619"><ele>347.8</ele><time>2026-04-04T16:17:43.059Z</time></trkpt><trkpt lat="42.9656629" lon="11.8993512"><ele>349.4</ele><time>2026-04-04T16:17:44.052Z</time></trkpt><trkpt lat="42.9657097" lon="11.8992354"><ele>351.0</ele><time>2026-04-04T16:17:45.056Z</time></trkpt><trkpt lat="42.9657579" lon="11.8991176"><ele>351.20000000000005</ele><time>2026-04-04T16:17:46.052Z</time></trkpt><trkpt lat="42.9658128" lon="11.8989896"><ele>351.40000000000003</ele><time>2026-04-04T16:17:47.053Z</time></trkpt><trkpt lat="42.9658642" lon="11.8988599"><ele>351.6</ele><time>2026-04-04T16:17:48.059Z</time></trkpt><trkpt lat="42.96591" lon="11.8987402"><ele>351.8</ele><time>2026-04-04T16:17:49.049Z</time></trkpt><trkpt lat="42.9659544" lon="11.8986358"><ele>352.0</ele><time>2026-04-04T16:17:50.108Z</time></trkpt><trkpt lat="42.9659938" lon="11.8985366"><ele>352.20000000000005</ele><time>2026-04-04T16:17:51.056Z</time></trkpt><trkpt lat="42.9660274" lon="11.8984316"><ele>352.4</ele><time>2026-04-04T16:17:52.054Z</time></trkpt><trkpt lat="42.9660587" lon="11.8983126"><ele>352.6</ele><time>2026-04-04T16:17:53.058Z</time></trkpt><trkpt lat="42.9661068" lon="11.8982016"><ele>352.79999999999995</ele><time>2026-04-04T16:17:54.054Z</time></trkpt><trkpt lat="42.9661642" lon="11.8980794"><ele>353.0</ele><time>2026-04-04T16:17:55.061Z</time></trkpt><trkpt lat="42.9662194" lon="11.8979458"><ele>352.4</ele><time>2026-04-04T16:17:56.058Z</time></trkpt><trkpt lat="42.9662805" lon="11.8978189"><ele>351.79999999999995</ele><time>2026-04-04T16:17:57.114Z</time></trkpt><trkpt lat="42.966334" lon="11.897696"><ele>351.2</ele><time>2026-04-04T16:17:58.061Z</time></trkpt><trkpt lat="42.966382" lon="11.8975763"><ele>350.6</ele><time>2026-04-04T16:17:59.058Z</time></trkpt><trkpt lat="42.9664304" lon="11.8974553"><ele>350.0</ele><time>2026-04-04T16:18:00.063Z</time></trkpt><trkpt lat="42.9664846" lon="11.8973287"><ele>351.5</ele><time>2026-04-04T16:18:01.056Z</time></trkpt><trkpt lat="42.9665368" lon="11.8971842"><ele>353.0</ele><time>2026-04-04T16:18:02.077Z</time></trkpt><trkpt lat="42.9665928" lon="11.8970301"><ele>354.5</ele><time>2026-04-04T16:18:03.054Z</time></trkpt><trkpt lat="42.9666559" lon="11.8968743"><ele>356.0</ele><time>2026-04-04T16:18:04.049Z</time></trkpt><trkpt lat="42.9667251" lon="11.8967094"><ele>357.5</ele><time>2026-04-04T16:18:05.055Z</time></trkpt><trkpt lat="42.9667907" lon="11.8965537"><ele>359.0</ele><time>2026-04-04T16:18:06.054Z</time></trkpt><trkpt lat="42.9668496" lon="11.8964155"><ele>360.5</ele><time>2026-04-04T16:18:07.07Z</time></trkpt><trkpt lat="42.9669023" lon="11.8962919"><ele>362.0</ele><time>2026-04-04T16:18:08.053Z</time></trkpt><trkpt lat="42.966954" lon="11.8961736"><ele>362.0</ele><time>2026-04-04T16:18:09.063Z</time></trkpt><trkpt lat="42.9670009" lon="11.8960515"><ele>362.0</ele><time>2026-04-04T16:18:10.06Z</time></trkpt><trkpt lat="42.9670514" lon="11.8959293"><ele>362.0</ele><time>2026-04-04T16:18:11.06Z</time></trkpt><trkpt lat="42.9671003" lon="11.8958054"><ele>362.0</ele><time>2026-04-04T16:18:12.068Z</time></trkpt><trkpt lat="42.9671456" lon="11.8956795"><ele>362.0</ele><time>2026-04-04T16:18:13.06Z</time></trkpt><trkpt lat="42.9671967" lon="11.8955474"><ele>363.40000000000003</ele><time>2026-04-04T16:18:14.061Z</time></trkpt><trkpt lat="42.9672463" lon="11.8954217"><ele>364.8</ele><time>2026-04-04T16:18:15.052Z</time></trkpt><trkpt lat="42.9672933" lon="11.8952986"><ele>366.2</ele><time>2026-04-04T16:18:16.05Z</time></trkpt><trkpt lat="42.9673404" lon="11.8951828"><ele>367.6</ele><time>2026-04-04T16:18:17.061Z</time></trkpt><trkpt lat="42.9673905" lon="11.8950633"><ele>369.0</ele><time>2026-04-04T16:18:18.046Z</time></trkpt><trkpt lat="42.9674425" lon="11.8949356"><ele>369.0</ele><time>2026-04-04T16:18:19.057Z</time></trkpt><trkpt lat="42.9674951" lon="11.8948046"><ele>369.0</ele><time>2026-04-04T16:18:20.051Z</time></trkpt><trkpt lat="42.9675541" lon="11.8946644"><ele>369.0</ele><time>2026-04-04T16:18:21.061Z</time></trkpt><trkpt lat="42.9676134" lon="11.8945095"><ele>369.0</ele><time>2026-04-04T16:18:22.058Z</time></trkpt><trkpt lat="42.9676758" lon="11.8943524"><ele>366.25</ele><time>2026-04-04T16:18:23.053Z</time></trkpt><trkpt lat="42.9677391" lon="11.8941913"><ele>363.5</ele><time>2026-04-04T16:18:24.062Z</time></trkpt><trkpt lat="42.9678045" lon="11.8940165"><ele>360.75</ele><time>2026-04-04T16:18:25.059Z</time></trkpt><trkpt lat="42.9678741" lon="11.8938355"><ele>358.0</ele><time>2026-04-04T16:18:26.054Z</time></trkpt><trkpt lat="42.9679497" lon="11.8936475"><ele>358.0</ele><time>2026-04-04T16:18:27.058Z</time></trkpt><trkpt lat="42.9680337" lon="11.8934394"><ele>358.0</ele><time>2026-04-04T16:18:28.061Z</time></trkpt><trkpt lat="42.9681196" lon="11.893238"><ele>358.0</ele><time>2026-04-04T16:18:29.057Z</time></trkpt><trkpt lat="42.968211" lon="11.8930613"><ele>358.0</ele><time>2026-04-04T16:18:30.059Z</time></trkpt><trkpt lat="42.9683143" lon="11.8929128"><ele>358.0</ele><time>2026-04-04T16:18:31.062Z</time></trkpt><trkpt lat="42.9684361" lon="11.8927686"><ele>358.0</ele><time>2026-04-04T16:18:32.049Z</time></trkpt><trkpt lat="42.9685679" lon="11.8926258"><ele>361.3333333333333</ele><time>2026-04-04T16:18:33.059Z</time></trkpt><trkpt lat="42.9687122" lon="11.8924718"><ele>364.6666666666667</ele><time>2026-04-04T16:18:34.06Z</time></trkpt><trkpt lat="42.9688602" lon="11.8923162"><ele>368.0</ele><time>2026-04-04T16:18:35.056Z</time></trkpt><trkpt lat="42.9689966" lon="11.8921688"><ele>368.0</ele><time>2026-04-04T16:18:36.062Z</time></trkpt><trkpt lat="42.9690988" lon="11.8920092"><ele>368.0</ele><time>2026-04-04T16:18:37.079Z</time></trkpt><trkpt lat="42.9691841" lon="11.8918276"><ele>368.0</ele><time>2026-04-04T16:18:38.055Z</time></trkpt><trkpt lat="42.9692596" lon="11.8916136"><ele>368.0</ele><time>2026-04-04T16:18:39.059Z</time></trkpt><trkpt lat="42.9693438" lon="11.8913757"><ele>368.0</ele><time>2026-04-04T16:18:40.054Z</time></trkpt><trkpt lat="42.9694326" lon="11.8911195"><ele>368.0</ele><time>2026-04-04T16:18:41.058Z</time></trkpt><trkpt lat="42.9695172" lon="11.8908511"><ele>368.0</ele><time>2026-04-04T16:18:42.081Z</time></trkpt><trkpt lat="42.969606" lon="11.8905968"><ele>368.0</ele><time>2026-04-04T16:18:43.053Z</time></trkpt><trkpt lat="42.9696886" lon="11.8903582"><ele>368.0</ele><time>2026-04-04T16:18:44.059Z</time></trkpt><trkpt lat="42.9697666" lon="11.8901467"><ele>368.75</ele><time>2026-04-04T16:18:45.057Z</time></trkpt><trkpt lat="42.9698315" lon="11.8899501"><ele>369.5</ele><time>2026-04-04T16:18:46.058Z</time></trkpt><trkpt lat="42.9698982" lon="11.8897749"><ele>370.25</ele><time>2026-04-04T16:18:47.057Z</time></trkpt><trkpt lat="42.9699612" lon="11.8896153"><ele>371.0</ele><time>2026-04-04T16:18:48.058Z</time></trkpt><trkpt lat="42.9700526" lon="11.8894906"><ele>367.0</ele><time>2026-04-04T16:18:49.056Z</time></trkpt><trkpt lat="42.9701709" lon="11.8894142"><ele>363.0</ele><time>2026-04-04T16:18:50.057Z</time></trkpt><trkpt lat="42.9703114" lon="11.8893895"><ele>359.0</ele><time>2026-04-04T16:18:51.047Z</time></trkpt><trkpt lat="42.9704718" lon="11.8894073"><ele>355.0</ele><time>2026-04-04T16:18:52.053Z</time></trkpt><trkpt lat="42.9706393" lon="11.8894728"><ele>355.0</ele><time>2026-04-04T16:18:53.035Z</time></trkpt><trkpt lat="42.9708236" lon="11.8895542"><ele>355.0</ele><time>2026-04-04T16:18:54.052Z</time></trkpt><trkpt lat="42.9710023" lon="11.8896219"><ele>355.0</ele><time>2026-04-04T16:18:55.055Z</time></trkpt><trkpt lat="42.9711752" lon="11.889669"><ele>354.3333333333333</ele><time>2026-04-04T16:18:56.049Z</time></trkpt><trkpt lat="42.9713376" lon="11.8897182"><ele>353.6666666666667</ele><time>2026-04-04T16:18:57.053Z</time></trkpt><trkpt lat="42.9714985" lon="11.8897657"><ele>353.0</ele><time>2026-04-04T16:18:58.046Z</time></trkpt><trkpt lat="42.9716568" lon="11.8898113"><ele>352.6666666666667</ele><time>2026-04-04T16:18:59.051Z</time></trkpt><trkpt lat="42.9718109" lon="11.8898519"><ele>352.3333333333333</ele><time>2026-04-04T16:19:00.053Z</time></trkpt><trkpt lat="42.971968" lon="11.8898891"><ele>352.0</ele><time>2026-04-04T16:19:01.05Z</time></trkpt><trkpt lat="42.9721291" lon="11.8899341"><ele>352.0</ele><time>2026-04-04T16:19:02.055Z</time></trkpt><trkpt lat="42.9723078" lon="11.8900004"><ele>352.0</ele><time>2026-04-04T16:19:03.051Z</time></trkpt><trkpt lat="42.9724824" lon="11.8900612"><ele>352.0</ele><time>2026-04-04T16:19:04.045Z</time></trkpt><trkpt lat="42.9726383" lon="11.8901202"><ele>347.0</ele><time>2026-04-04T16:19:05.054Z</time></trkpt><trkpt lat="42.9727782" lon="11.8902015"><ele>342.0</ele><time>2026-04-04T16:19:06.06Z</time></trkpt><trkpt lat="42.9729084" lon="11.8903262"><ele>337.0</ele><time>2026-04-04T16:19:07.053Z</time></trkpt><trkpt lat="42.9730346" lon="11.8904947"><ele>337.0</ele><time>2026-04-04T16:19:08.055Z</time></trkpt><trkpt lat="42.9731518" lon="11.8906962"><ele>337.0</ele><time>2026-04-04T16:19:09.065Z</time></trkpt><trkpt lat="42.9732577" lon="11.890912"><ele>337.0</ele><time>2026-04-04T16:19:10.056Z</time></trkpt><trkpt lat="42.9733479" lon="11.891091"><ele>336.25</ele><time>2026-04-04T16:19:11.075Z</time></trkpt><trkpt lat="42.9734328" lon="11.8912329"><ele>335.5</ele><time>2026-04-04T16:19:12.06Z</time></trkpt><trkpt lat="42.973528" lon="11.8913208"><ele>334.75</ele><time>2026-04-04T16:19:13.06Z</time></trkpt><trkpt lat="42.9736319" lon="11.8913757"><ele>334.0</ele><time>2026-04-04T16:19:14.057Z</time></trkpt><trkpt lat="42.9737362" lon="11.8913868"><ele>334.0</ele><time>2026-04-04T16:19:15.057Z</time></trkpt><trkpt lat="42.9738342" lon="11.8913429"><ele>334.0</ele><time>2026-04-04T16:19:16.057Z</time></trkpt><trkpt lat="42.9739217" lon="11.8912531"><ele>334.0</ele><time>2026-04-04T16:19:17.053Z</time></trkpt><trkpt lat="42.9739904" lon="11.8911392"><ele>334.0</ele><time>2026-04-04T16:19:18.058Z</time></trkpt><trkpt lat="42.9740155" lon="11.8909984"><ele>334.0</ele><time>2026-04-04T16:19:19.061Z</time></trkpt><trkpt lat="42.9740116" lon="11.8908532"><ele>333.5</ele><time>2026-04-04T16:19:20.06Z</time></trkpt><trkpt lat="42.973978" lon="11.8906739"><ele>333.0</ele><time>2026-04-04T16:19:21.056Z</time></trkpt><trkpt lat="42.9739088" lon="11.8904968"><ele>332.5</ele><time>2026-04-04T16:19:22.077Z</time></trkpt><trkpt lat="42.9738299" lon="11.8902957"><ele>332.0</ele><time>2026-04-04T16:19:23.061Z</time></trkpt><trkpt lat="42.9737565" lon="11.890116"><ele>331.0</ele><time>2026-04-04T16:19:24.07Z</time></trkpt><trkpt lat="42.9736867" lon="11.8899512"><ele>330.0</ele><time>2026-04-04T16:19:25.063Z</time></trkpt><trkpt lat="42.9736431" lon="11.8898159"><ele>329.0</ele><time>2026-04-04T16:19:26.055Z</time></trkpt><trkpt lat="42.9736015" lon="11.889675"><ele>328.0</ele><time>2026-04-04T16:19:27.06Z</time></trkpt><trkpt lat="42.9735713" lon="11.8895318"><ele>328.0</ele><time>2026-04-04T16:19:28.059Z</time></trkpt><trkpt lat="42.9735556" lon="11.8893876"><ele>328.0</ele><time>2026-04-04T16:19:29.058Z</time></trkpt><trkpt lat="42.97356" lon="11.8892437"><ele>328.0</ele><time>2026-04-04T16:19:30.049Z</time></trkpt><trkpt lat="42.9735772" lon="11.8890981"><ele>328.0</ele><time>2026-04-04T16:19:31.057Z</time></trkpt><trkpt lat="42.9736066" lon="11.8889307"><ele>328.0</ele><time>2026-04-04T16:19:32.047Z</time></trkpt><trkpt lat="42.9736564" lon="11.8887882"><ele>328.25</ele><time>2026-04-04T16:19:33.061Z</time></trkpt><trkpt lat="42.9737355" lon="11.8886476"><ele>328.5</ele><time>2026-04-04T16:19:34.051Z</time></trkpt><trkpt lat="42.9738316" lon="11.8885287"><ele>328.75</ele><time>2026-04-04T16:19:35.055Z</time></trkpt><trkpt lat="42.9739377" lon="11.8884243"><ele>329.0</ele><time>2026-04-04T16:19:36.053Z</time></trkpt><trkpt lat="42.9740565" lon="11.8883462"><ele>328.25</ele><time>2026-04-04T16:19:37.063Z</time></trkpt><trkpt lat="42.9741826" lon="11.8883047"><ele>327.5</ele><time>2026-04-04T16:19:38.055Z</time></trkpt><trkpt lat="42.9743046" lon="11.8882918"><ele>326.75</ele><time>2026-04-04T16:19:39.065Z</time></trkpt><trkpt lat="42.9744382" lon="11.8883111"><ele>326.0</ele><time>2026-04-04T16:19:40.075Z</time></trkpt><trkpt lat="42.9745848" lon="11.888373"><ele>325.33333333333337</ele><time>2026-04-04T16:19:41.057Z</time></trkpt><trkpt lat="42.9747434" lon="11.8884461"><ele>324.6666666666667</ele><time>2026-04-04T16:19:42.061Z</time></trkpt><trkpt lat="42.9749248" lon="11.8885456"><ele>324.0</ele><time>2026-04-04T16:19:43.068Z</time></trkpt><trkpt lat="42.9751318" lon="11.8886869"><ele>323.0</ele><time>2026-04-04T16:19:44.062Z</time></trkpt><trkpt lat="42.9753449" lon="11.8888117"><ele>322.0</ele><time>2026-04-04T16:19:45.053Z</time></trkpt><trkpt lat="42.9755446" lon="11.8889253"><ele>321.0</ele><time>2026-04-04T16:19:46.06Z</time></trkpt><trkpt lat="42.9757268" lon="11.8890319"><ele>321.3333333333333</ele><time>2026-04-04T16:19:47.065Z</time></trkpt><trkpt lat="42.9758906" lon="11.8891118"><ele>321.66666666666663</ele><time>2026-04-04T16:19:48.083Z</time></trkpt><trkpt lat="42.9760393" lon="11.889145"><ele>322.0</ele><time>2026-04-04T16:19:49.07Z</time></trkpt><trkpt lat="42.9761774" lon="11.8891276"><ele>322.0</ele><time>2026-04-04T16:19:50.066Z</time></trkpt><trkpt lat="42.976331" lon="11.8890419"><ele>322.0</ele><time>2026-04-04T16:19:51.066Z</time></trkpt><trkpt lat="42.9764732" lon="11.8889258"><ele>322.0</ele><time>2026-04-04T16:19:52.056Z</time></trkpt><trkpt lat="42.9766263" lon="11.8887847"><ele>322.3333333333333</ele><time>2026-04-04T16:19:53.068Z</time></trkpt><trkpt lat="42.976786" lon="11.8886263"><ele>322.6666666666667</ele><time>2026-04-04T16:19:54.065Z</time></trkpt><trkpt lat="42.9769541" lon="11.888483"><ele>323.0</ele><time>2026-04-04T16:19:55.077Z</time></trkpt><trkpt lat="42.9771174" lon="11.8883831"><ele>325.33333333333337</ele><time>2026-04-04T16:19:56.064Z</time></trkpt><trkpt lat="42.977277" lon="11.8883192"><ele>327.6666666666667</ele><time>2026-04-04T16:19:57.066Z</time></trkpt><trkpt lat="42.9774485" lon="11.8883042"><ele>330.0</ele><time>2026-04-04T16:19:58.062Z</time></trkpt><trkpt lat="42.9776068" lon="11.8883657"><ele>331.0</ele><time>2026-04-04T16:19:59.066Z</time></trkpt><trkpt lat="42.9777453" lon="11.8885041"><ele>332.0</ele><time>2026-04-04T16:20:00.052Z</time></trkpt><trkpt lat="42.9778815" lon="11.8886632"><ele>333.0</ele><time>2026-04-04T16:20:01.048Z</time></trkpt><trkpt lat="42.978023" lon="11.8888235"><ele>333.0</ele><time>2026-04-04T16:20:02.053Z</time></trkpt><trkpt lat="42.9781558" lon="11.8889614"><ele>333.0</ele><time>2026-04-04T16:20:03.049Z</time></trkpt><trkpt lat="42.9782997" lon="11.8890452"><ele>333.0</ele><time>2026-04-04T16:20:04.069Z</time></trkpt><trkpt lat="42.978447" lon="11.8890629"><ele>336.0</ele><time>2026-04-04T16:20:05.058Z</time></trkpt><trkpt lat="42.9785927" lon="11.889034"><ele>339.0</ele><time>2026-04-04T16:20:06.068Z</time></trkpt><trkpt lat="42.978709" lon="11.8889584"><ele>342.0</ele><time>2026-04-04T16:20:07.065Z</time></trkpt><trkpt lat="42.9787996" lon="11.8888343"><ele>345.0</ele><time>2026-04-04T16:20:08.063Z</time></trkpt><trkpt lat="42.9788623" lon="11.8886838"><ele>345.0</ele><time>2026-04-04T16:20:09.059Z</time></trkpt><trkpt lat="42.978883" lon="11.8885153"><ele>345.0</ele><time>2026-04-04T16:20:10.056Z</time></trkpt><trkpt lat="42.9788565" lon="11.8883234"><ele>345.0</ele><time>2026-04-04T16:20:11.054Z</time></trkpt><trkpt lat="42.9787951" lon="11.8881604"><ele>345.0</ele><time>2026-04-04T16:20:12.058Z</time></trkpt><trkpt lat="42.9786891" lon="11.8879878"><ele>346.3333333333333</ele><time>2026-04-04T16:20:13.064Z</time></trkpt><trkpt lat="42.9785667" lon="11.8878208"><ele>347.66666666666663</ele><time>2026-04-04T16:20:14.049Z</time></trkpt><trkpt lat="42.9784392" lon="11.8876342"><ele>349.0</ele><time>2026-04-04T16:20:15.061Z</time></trkpt><trkpt lat="42.978304" lon="11.8874437"><ele>349.3333333333333</ele><time>2026-04-04T16:20:16.057Z</time></trkpt><trkpt lat="42.9781761" lon="11.8872698"><ele>349.6666666666667</ele><time>2026-04-04T16:20:17.057Z</time></trkpt><trkpt lat="42.9780709" lon="11.8871189"><ele>350.0</ele><time>2026-04-04T16:20:18.052Z</time></trkpt><trkpt lat="42.978" lon="11.8869669"><ele>350.0</ele><time>2026-04-04T16:20:19.056Z</time></trkpt><trkpt lat="42.9779718" lon="11.8868059"><ele>350.0</ele><time>2026-04-04T16:20:20.061Z</time></trkpt><trkpt lat="42.9779952" lon="11.8866654"><ele>350.0</ele><time>2026-04-04T16:20:21.055Z</time></trkpt><trkpt lat="42.978073" lon="11.8865241"><ele>350.0</ele><time>2026-04-04T16:20:22.06Z</time></trkpt><trkpt lat="42.9781697" lon="11.8864227"><ele>351.25</ele><time>2026-04-04T16:20:23.053Z</time></trkpt><trkpt lat="42.9782852" lon="11.8863742"><ele>352.5</ele><time>2026-04-04T16:20:24.059Z</time></trkpt><trkpt lat="42.9784164" lon="11.8863874"><ele>353.75</ele><time>2026-04-04T16:20:25.051Z</time></trkpt><trkpt lat="42.978552" lon="11.8864621"><ele>355.0</ele><time>2026-04-04T16:20:26.076Z</time></trkpt><trkpt lat="42.9786746" lon="11.8865717"><ele>357.0</ele><time>2026-04-04T16:20:27.05Z</time></trkpt><trkpt lat="42.9787807" lon="11.8867282"><ele>359.0</ele><time>2026-04-04T16:20:28.064Z</time></trkpt><trkpt lat="42.9789054" lon="11.8868886"><ele>361.0</ele><time>2026-04-04T16:20:29.06Z</time></trkpt><trkpt lat="42.9790363" lon="11.8870584"><ele>361.0</ele><time>2026-04-04T16:20:30.063Z</time></trkpt><trkpt lat="42.9791694" lon="11.8872324"><ele>361.0</ele><time>2026-04-04T16:20:31.066Z</time></trkpt><trkpt lat="42.9792982" lon="11.8873863"><ele>361.0</ele><time>2026-04-04T16:20:32.06Z</time></trkpt><trkpt lat="42.9794313" lon="11.8875063"><ele>362.0</ele><time>2026-04-04T16:20:33.064Z</time></trkpt><trkpt lat="42.979581" lon="11.8875866"><ele>363.0</ele><time>2026-04-04T16:20:34.069Z</time></trkpt><trkpt lat="42.9797217" lon="11.8876444"><ele>364.0</ele><time>2026-04-04T16:20:35.055Z</time></trkpt><trkpt lat="42.9798516" lon="11.8876432"><ele>365.0</ele><time>2026-04-04T16:20:36.064Z</time></trkpt><trkpt lat="42.9799644" lon="11.8875872"><ele>372.5</ele><time>2026-04-04T16:20:37.056Z</time></trkpt><trkpt lat="42.9800543" lon="11.8875015"><ele>380.0</ele><time>2026-04-04T16:20:38.07Z</time></trkpt><trkpt lat="42.9801252" lon="11.8873822"><ele>387.5</ele><time>2026-04-04T16:20:39.068Z</time></trkpt><trkpt lat="42.9801592" lon="11.8872142"><ele>395.0</ele><time>2026-04-04T16:20:40.064Z</time></trkpt><trkpt lat="42.9801811" lon="11.8870321"><ele>395.0</ele><time>2026-04-04T16:20:41.054Z</time></trkpt><trkpt lat="42.980169" lon="11.8868754"><ele>395.0</ele><time>2026-04-04T16:20:42.05Z</time></trkpt><trkpt lat="42.9801207" lon="11.8867318"><ele>395.0</ele><time>2026-04-04T16:20:43.06Z</time></trkpt><trkpt lat="42.9800312" lon="11.8866072"><ele>395.0</ele><time>2026-04-04T16:20:44.049Z</time></trkpt><trkpt lat="42.9799134" lon="11.8865437"><ele>392.0</ele><time>2026-04-04T16:20:45.049Z</time></trkpt><trkpt lat="42.9797849" lon="11.8865014"><ele>389.0</ele><time>2026-04-04T16:20:46.051Z</time></trkpt><trkpt lat="42.9796471" lon="11.8864822"><ele>386.0</ele><time>2026-04-04T16:20:47.063Z</time></trkpt><trkpt lat="42.9795167" lon="11.8864479"><ele>383.0</ele><time>2026-04-04T16:20:48.065Z</time></trkpt><trkpt lat="42.9794161" lon="11.8863704"><ele>383.0</ele><time>2026-04-04T16:20:49.062Z</time></trkpt><trkpt lat="42.9793434" lon="11.8862348"><ele>383.0</ele><time>2026-04-04T16:20:50.067Z</time></trkpt><trkpt lat="42.9793076" lon="11.8860814"><ele>383.0</ele><time>2026-04-04T16:20:51.06Z</time></trkpt><trkpt lat="42.9793004" lon="11.8858987"><ele>383.0</ele><time>2026-04-04T16:20:52.056Z</time></trkpt><trkpt lat="42.9792992" lon="11.8857254"><ele>385.5</ele><time>2026-04-04T16:20:53.052Z</time></trkpt><trkpt lat="42.979317" lon="11.8855657"><ele>388.0</ele><time>2026-04-04T16:20:54.055Z</time></trkpt><trkpt lat="42.9793702" lon="11.8854242"><ele>390.5</ele><time>2026-04-04T16:20:55.058Z</time></trkpt><trkpt lat="42.9794483" lon="11.8853252"><ele>393.0</ele><time>2026-04-04T16:20:56.067Z</time></trkpt><trkpt lat="42.9795574" lon="11.8852922"><ele>393.0</ele><time>2026-04-04T16:20:57.057Z</time></trkpt><trkpt lat="42.9796765" lon="11.8852864"><ele>393.0</ele><time>2026-04-04T16:20:58.061Z</time></trkpt><trkpt lat="42.9798013" lon="11.8853162"><ele>393.0</ele><time>2026-04-04T16:20:59.052Z</time></trkpt><trkpt lat="42.9799478" lon="11.8853851"><ele>393.0</ele><time>2026-04-04T16:21:00.052Z</time></trkpt><trkpt lat="42.9801104" lon="11.8855028"><ele>395.33333333333337</ele><time>2026-04-04T16:21:01.055Z</time></trkpt><trkpt lat="42.9802722" lon="11.8856395"><ele>397.6666666666667</ele><time>2026-04-04T16:21:02.05Z</time></trkpt><trkpt lat="42.9804072" lon="11.8857902"><ele>400.0</ele><time>2026-04-04T16:21:03.055Z</time></trkpt><trkpt lat="42.9804994" lon="11.8859544"><ele>400.0</ele><time>2026-04-04T16:21:04.061Z</time></trkpt><trkpt lat="42.9805549" lon="11.8861258"><ele>400.0</ele><time>2026-04-04T16:21:05.06Z</time></trkpt><trkpt lat="42.9805852" lon="11.8863308"><ele>400.0</ele><time>2026-04-04T16:21:06.063Z</time></trkpt><trkpt lat="42.9806022" lon="11.8865384"><ele>400.0</ele><time>2026-04-04T16:21:07.064Z</time></trkpt><trkpt lat="42.9806049" lon="11.88675"><ele>398.75</ele><time>2026-04-04T16:21:08.067Z</time></trkpt><trkpt lat="42.9806077" lon="11.8869601"><ele>397.5</ele><time>2026-04-04T16:21:09.065Z</time></trkpt><trkpt lat="42.9806305" lon="11.8871544"><ele>396.25</ele><time>2026-04-04T16:21:10.066Z</time></trkpt><trkpt lat="42.98068" lon="11.8873488"><ele>395.0</ele><time>2026-04-04T16:21:11.056Z</time></trkpt><trkpt lat="42.9807315" lon="11.8875343"><ele>394.25</ele><time>2026-04-04T16:21:12.075Z</time></trkpt><trkpt lat="42.9808018" lon="11.8876747"><ele>393.5</ele><time>2026-04-04T16:21:13.058Z</time></trkpt><trkpt lat="42.9808814" lon="11.8877777"><ele>392.75</ele><time>2026-04-04T16:21:14.06Z</time></trkpt><trkpt lat="42.9809787" lon="11.8878856"><ele>392.0</ele><time>2026-04-04T16:21:15.069Z</time></trkpt><trkpt lat="42.9811061" lon="11.8879498"><ele>392.0</ele><time>2026-04-04T16:21:16.063Z</time></trkpt><trkpt lat="42.9812595" lon="11.8879792"><ele>392.0</ele><time>2026-04-04T16:21:17.061Z</time></trkpt><trkpt lat="42.9814057" lon="11.88799"><ele>392.0</ele><time>2026-04-04T16:21:18.066Z</time></trkpt><trkpt lat="42.9815295" lon="11.8879756"><ele>392.0</ele><time>2026-04-04T16:21:19.066Z</time></trkpt><trkpt lat="42.9816424" lon="11.8879052"><ele>394.25</ele><time>2026-04-04T16:21:20.065Z</time></trkpt><trkpt lat="42.9817415" lon="11.8877674"><ele>396.5</ele><time>2026-04-04T16:21:21.066Z</time></trkpt><trkpt lat="42.9818073" lon="11.887599"><ele>398.75</ele><time>2026-04-04T16:21:22.059Z</time></trkpt><trkpt lat="42.9818597" lon="11.8873945"><ele>401.0</ele><time>2026-04-04T16:21:23.063Z</time></trkpt><trkpt lat="42.9818961" lon="11.8871716"><ele>404.66666666666663</ele><time>2026-04-04T16:21:24.07Z</time></trkpt><trkpt lat="42.9819416" lon="11.8869329"><ele>408.33333333333337</ele><time>2026-04-04T16:21:25.061Z</time></trkpt><trkpt lat="42.9819875" lon="11.8866755"><ele>412.0</ele><time>2026-04-04T16:21:26.064Z</time></trkpt><trkpt lat="42.9820355" lon="11.8864114"><ele>413.6666666666667</ele><time>2026-04-04T16:21:27.06Z</time></trkpt><trkpt lat="42.9820856" lon="11.8861505"><ele>415.33333333333337</ele><time>2026-04-04T16:21:28.063Z</time></trkpt><trkpt lat="42.9821309" lon="11.885899"><ele>417.0</ele><time>2026-04-04T16:21:29.055Z</time></trkpt><trkpt lat="42.9821713" lon="11.8856583"><ele>419.66666666666663</ele><time>2026-04-04T16:21:30.064Z</time></trkpt><trkpt lat="42.9822106" lon="11.8854344"><ele>422.3333333333333</ele><time>2026-04-04T16:21:31.054Z</time></trkpt><trkpt lat="42.982246" lon="11.8852286"><ele>425.0</ele><time>2026-04-04T16:21:32.058Z</time></trkpt><trkpt lat="42.9822782" lon="11.885035"><ele>425.5</ele><time>2026-04-04T16:21:33.049Z</time></trkpt><trkpt lat="42.9822841" lon="11.88485"><ele>426.0</ele><time>2026-04-04T16:21:34.049Z</time></trkpt><trkpt lat="42.9822599" lon="11.8846836"><ele>426.5</ele><time>2026-04-04T16:21:35.051Z</time></trkpt><trkpt lat="42.9821958" lon="11.884528"><ele>427.0</ele><time>2026-04-04T16:21:36.057Z</time></trkpt><trkpt lat="42.982091" lon="11.8843993"><ele>427.0</ele><time>2026-04-04T16:21:37.056Z</time></trkpt><trkpt lat="42.9819597" lon="11.884318"><ele>427.0</ele><time>2026-04-04T16:21:38.055Z</time></trkpt><trkpt lat="42.9818197" lon="11.8842602"><ele>427.0</ele><time>2026-04-04T16:21:39.05Z</time></trkpt><trkpt lat="42.9816864" lon="11.8841986"><ele>427.0</ele><time>2026-04-04T16:21:40.073Z</time></trkpt><trkpt lat="42.9815526" lon="11.8841257"><ele>428.6666666666667</ele><time>2026-04-04T16:21:41.064Z</time></trkpt><trkpt lat="42.9814123" lon="11.8840236"><ele>430.33333333333337</ele><time>2026-04-04T16:21:42.083Z</time></trkpt><trkpt lat="42.9812818" lon="11.8838783"><ele>432.0</ele><time>2026-04-04T16:21:43.066Z</time></trkpt><trkpt lat="42.9811508" lon="11.8836886"><ele>432.0</ele><time>2026-04-04T16:21:44.062Z</time></trkpt><trkpt lat="42.9810237" lon="11.8834959"><ele>432.0</ele><time>2026-04-04T16:21:45.063Z</time></trkpt><trkpt lat="42.9809171" lon="11.8833036"><ele>432.0</ele><time>2026-04-04T16:21:46.061Z</time></trkpt><trkpt lat="42.9808222" lon="11.8830842"><ele>433.0</ele><time>2026-04-04T16:21:47.074Z</time></trkpt><trkpt lat="42.9807397" lon="11.8828468"><ele>434.0</ele><time>2026-04-04T16:21:48.061Z</time></trkpt><trkpt lat="42.9806648" lon="11.8826102"><ele>435.0</ele><time>2026-04-04T16:21:49.059Z</time></trkpt><trkpt lat="42.9805942" lon="11.8823892"><ele>437.66666666666663</ele><time>2026-04-04T16:21:50.049Z</time></trkpt><trkpt lat="42.9805227" lon="11.8821736"><ele>440.3333333333333</ele><time>2026-04-04T16:21:51.057Z</time></trkpt><trkpt lat="42.9804442" lon="11.8819571"><ele>443.0</ele><time>2026-04-04T16:21:52.054Z</time></trkpt><trkpt lat="42.9803618" lon="11.8817288"><ele>447.0</ele><time>2026-04-04T16:21:53.06Z</time></trkpt><trkpt lat="42.9802719" lon="11.8814867"><ele>451.0</ele><time>2026-04-04T16:21:54.058Z</time></trkpt><trkpt lat="42.9801765" lon="11.8812259"><ele>455.0</ele><time>2026-04-04T16:21:55.062Z</time></trkpt><trkpt lat="42.9800804" lon="11.8809541"><ele>454.3333333333333</ele><time>2026-04-04T16:21:56.052Z</time></trkpt><trkpt lat="42.9799871" lon="11.880679"><ele>453.66666666666663</ele><time>2026-04-04T16:21:57.055Z</time></trkpt><trkpt lat="42.9799049" lon="11.8804247"><ele>453.0</ele><time>2026-04-04T16:21:58.065Z</time></trkpt><trkpt lat="42.9798426" lon="11.8801884"><ele>456.0</ele><time>2026-04-04T16:21:59.049Z</time></trkpt><trkpt lat="42.9797908" lon="11.8799598"><ele>459.0</ele><time>2026-04-04T16:22:00.053Z</time></trkpt><trkpt lat="42.9797506" lon="11.8797182"><ele>462.0</ele><time>2026-04-04T16:22:01.059Z</time></trkpt><trkpt lat="42.9797295" lon="11.8794556"><ele>463.66666666666663</ele><time>2026-04-04T16:22:02.058Z</time></trkpt><trkpt lat="42.9797124" lon="11.8792034"><ele>465.3333333333333</ele><time>2026-04-04T16:22:03.053Z</time></trkpt><trkpt lat="42.9797" lon="11.8789648"><ele>467.0</ele><time>2026-04-04T16:22:04.062Z</time></trkpt><trkpt lat="42.9796797" lon="11.8787522"><ele>467.0</ele><time>2026-04-04T16:22:05.053Z</time></trkpt><trkpt lat="42.9796468" lon="11.8785481"><ele>467.0</ele><time>2026-04-04T16:22:06.076Z</time></trkpt><trkpt lat="42.9796011" lon="11.8783441"><ele>467.0</ele><time>2026-04-04T16:22:07.051Z</time></trkpt><trkpt lat="42.9795172" lon="11.8781487"><ele>469.0</ele><time>2026-04-04T16:22:08.06Z</time></trkpt><trkpt lat="42.9794003" lon="11.877976"><ele>471.0</ele><time>2026-04-04T16:22:09.049Z</time></trkpt><trkpt lat="42.9792642" lon="11.8778152"><ele>473.0</ele><time>2026-04-04T16:22:10.058Z</time></trkpt><trkpt lat="42.9791185" lon="11.8776527"><ele>472.3333333333333</ele><time>2026-04-04T16:22:11.068Z</time></trkpt><trkpt lat="42.9789682" lon="11.8774763"><ele>471.66666666666663</ele><time>2026-04-04T16:22:12.06Z</time></trkpt><trkpt lat="42.9788355" lon="11.8772962"><ele>471.0</ele><time>2026-04-04T16:22:13.053Z</time></trkpt><trkpt lat="42.9787294" lon="11.8771296"><ele>471.0</ele><time>2026-04-04T16:22:14.064Z</time></trkpt><trkpt lat="42.9786392" lon="11.8769872"><ele>471.0</ele><time>2026-04-04T16:22:15.061Z</time></trkpt><trkpt lat="42.9785544" lon="11.8768695"><ele>471.0</ele><time>2026-04-04T16:22:16.057Z</time></trkpt><trkpt lat="42.9784917" lon="11.8767673"><ele>471.0</ele><time>2026-04-04T16:22:17.065Z</time></trkpt><trkpt lat="42.9784745" lon="11.8766569"><ele>471.0</ele><time>2026-04-04T16:22:18.081Z</time></trkpt><trkpt lat="42.9785639" lon="11.8765778"><ele>471.0</ele><time>2026-04-04T16:22:20.052Z</time></trkpt><trkpt lat="42.9786302" lon="11.8766126"><ele>471.0</ele><time>2026-04-04T16:22:21.062Z</time></trkpt><trkpt lat="42.9786924" lon="11.8767073"><ele>471.0</ele><time>2026-04-04T16:22:22.059Z</time></trkpt><trkpt lat="42.9787663" lon="11.8768408"><ele>471.0</ele><time>2026-04-04T16:22:23.062Z</time></trkpt><trkpt lat="42.9788797" lon="11.8769691"><ele>471.0</ele><time>2026-04-04T16:22:24.071Z</time></trkpt><trkpt lat="42.9790037" lon="11.8770762"><ele>471.0</ele><time>2026-04-04T16:22:25.064Z</time></trkpt><trkpt lat="42.9791401" lon="11.8771768"><ele>471.0</ele><time>2026-04-04T16:22:26.065Z</time></trkpt><trkpt lat="42.979291" lon="11.8772741"><ele>471.0</ele><time>2026-04-04T16:22:27.065Z</time></trkpt><trkpt lat="42.9794569" lon="11.8773608"><ele>476.0</ele><time>2026-04-04T16:22:28.073Z</time></trkpt><trkpt lat="42.9796256" lon="11.8774369"><ele>481.0</ele><time>2026-04-04T16:22:29.069Z</time></trkpt><trkpt lat="42.9797847" lon="11.8774968"><ele>486.0</ele><time>2026-04-04T16:22:30.053Z</time></trkpt><trkpt lat="42.9799391" lon="11.8775523"><ele>487.0</ele><time>2026-04-04T16:22:31.061Z</time></trkpt><trkpt lat="42.9801025" lon="11.8776211"><ele>488.0</ele><time>2026-04-04T16:22:32.059Z</time></trkpt><trkpt lat="42.9802593" lon="11.8776916"><ele>489.0</ele><time>2026-04-04T16:22:33.056Z</time></trkpt><trkpt lat="42.9803972" lon="11.8777531"><ele>489.0</ele><time>2026-04-04T16:22:34.055Z</time></trkpt><trkpt lat="42.9805204" lon="11.8778253"><ele>489.0</ele><time>2026-04-04T16:22:35.056Z</time></trkpt><trkpt lat="42.9806382" lon="11.8779209"><ele>489.0</ele><time>2026-04-04T16:22:36.061Z</time></trkpt><trkpt lat="42.9807528" lon="11.8780315"><ele>489.0</ele><time>2026-04-04T16:22:37.061Z</time></trkpt><trkpt lat="42.980866" lon="11.8781759"><ele>492.66666666666663</ele><time>2026-04-04T16:22:38.07Z</time></trkpt><trkpt lat="42.9809606" lon="11.8783412"><ele>496.3333333333333</ele><time>2026-04-04T16:22:39.062Z</time></trkpt><trkpt lat="42.9810457" lon="11.8785097"><ele>500.0</ele><time>2026-04-04T16:22:40.066Z</time></trkpt><trkpt lat="42.9811359" lon="11.8786822"><ele>500.0</ele><time>2026-04-04T16:22:41.062Z</time></trkpt><trkpt lat="42.9812213" lon="11.8788751"><ele>500.0</ele><time>2026-04-04T16:22:42.07Z</time></trkpt><trkpt lat="42.9813101" lon="11.8790914"><ele>500.0</ele><time>2026-04-04T16:22:43.066Z</time></trkpt><trkpt lat="42.9814008" lon="11.8793122"><ele>499.3333333333333</ele><time>2026-04-04T16:22:44.066Z</time></trkpt><trkpt lat="42.9814983" lon="11.879511"><ele>498.66666666666663</ele><time>2026-04-04T16:22:45.068Z</time></trkpt><trkpt lat="42.9815961" lon="11.879688"><ele>498.0</ele><time>2026-04-04T16:22:46.069Z</time></trkpt><trkpt lat="42.9816927" lon="11.879845"><ele>498.5</ele><time>2026-04-04T16:22:47.073Z</time></trkpt><trkpt lat="42.9817926" lon="11.8799734"><ele>499.0</ele><time>2026-04-04T16:22:48.075Z</time></trkpt><trkpt lat="42.9819034" lon="11.8800827"><ele>499.5</ele><time>2026-04-04T16:22:49.073Z</time></trkpt><trkpt lat="42.9820222" lon="11.8801764"><ele>500.0</ele><time>2026-04-04T16:22:50.064Z</time></trkpt><trkpt lat="42.9821467" lon="11.8802578"><ele>500.0</ele><time>2026-04-04T16:22:51.061Z</time></trkpt><trkpt lat="42.9822667" lon="11.8803038"><ele>500.0</ele><time>2026-04-04T16:22:52.065Z</time></trkpt><trkpt lat="42.982392" lon="11.8803303"><ele>500.0</ele><time>2026-04-04T16:22:53.07Z</time></trkpt><trkpt lat="42.9825227" lon="11.88033"><ele>500.0</ele><time>2026-04-04T16:22:54.078Z</time></trkpt><trkpt lat="42.9826595" lon="11.8803028"><ele>501.75</ele><time>2026-04-04T16:22:55.065Z</time></trkpt><trkpt lat="42.9827968" lon="11.8802449"><ele>503.5</ele><time>2026-04-04T16:22:56.06Z</time></trkpt><trkpt lat="42.9829344" lon="11.880165"><ele>505.25</ele><time>2026-04-04T16:22:57.067Z</time></trkpt><trkpt lat="42.9830722" lon="11.8800791"><ele>507.0</ele><time>2026-04-04T16:22:58.057Z</time></trkpt><trkpt lat="42.9832168" lon="11.8799901"><ele>509.33333333333337</ele><time>2026-04-04T16:22:59.071Z</time></trkpt><trkpt lat="42.9833583" lon="11.8798994"><ele>511.6666666666667</ele><time>2026-04-04T16:23:00.068Z</time></trkpt><trkpt lat="42.9835043" lon="11.8797988"><ele>514.0</ele><time>2026-04-04T16:23:01.064Z</time></trkpt><trkpt lat="42.983632" lon="11.8796864"><ele>514.0</ele><time>2026-04-04T16:23:02.059Z</time></trkpt><trkpt lat="42.9837399" lon="11.8795713"><ele>514.0</ele><time>2026-04-04T16:23:03.057Z</time></trkpt><trkpt lat="42.9838426" lon="11.8794608"><ele>514.0</ele><time>2026-04-04T16:23:04.058Z</time></trkpt><trkpt lat="42.9839422" lon="11.879349"><ele>514.0</ele><time>2026-04-04T16:23:05.056Z</time></trkpt><trkpt lat="42.9840416" lon="11.8792205"><ele>514.5</ele><time>2026-04-04T16:23:06.08Z</time></trkpt><trkpt lat="42.9841439" lon="11.8790866"><ele>515.0</ele><time>2026-04-04T16:23:07.064Z</time></trkpt><trkpt lat="42.9842538" lon="11.8789508"><ele>515.5</ele><time>2026-04-04T16:23:08.058Z</time></trkpt><trkpt lat="42.9843711" lon="11.8788027"><ele>516.0</ele><time>2026-04-04T16:23:09.058Z</time></trkpt><trkpt lat="42.9844933" lon="11.8786476"><ele>516.0</ele><time>2026-04-04T16:23:10.06Z</time></trkpt><trkpt lat="42.9846153" lon="11.8784964"><ele>516.0</ele><time>2026-04-04T16:23:11.062Z</time></trkpt><trkpt lat="42.9847305" lon="11.8783563"><ele>516.0</ele><time>2026-04-04T16:23:12.082Z</time></trkpt><trkpt lat="42.9848296" lon="11.8782296"><ele>516.0</ele><time>2026-04-04T16:23:13.057Z</time></trkpt><trkpt lat="42.9849254" lon="11.8781083"><ele>516.0</ele><time>2026-04-04T16:23:14.063Z</time></trkpt><trkpt lat="42.9850172" lon="11.8779953"><ele>516.0</ele><time>2026-04-04T16:23:15.064Z</time></trkpt><trkpt lat="42.9851044" lon="11.8778858"><ele>516.0</ele><time>2026-04-04T16:23:16.074Z</time></trkpt><trkpt lat="42.9851877" lon="11.8777869"><ele>515.8</ele><time>2026-04-04T16:23:17.057Z</time></trkpt><trkpt lat="42.9852683" lon="11.877684"><ele>515.6</ele><time>2026-04-04T16:23:18.083Z</time></trkpt><trkpt lat="42.9853421" lon="11.877584"><ele>515.4</ele><time>2026-04-04T16:23:19.06Z</time></trkpt><trkpt lat="42.9854207" lon="11.8774852"><ele>515.2</ele><time>2026-04-04T16:23:20.064Z</time></trkpt><trkpt lat="42.9854969" lon="11.8773902"><ele>515.0</ele><time>2026-04-04T16:23:21.08Z</time></trkpt><trkpt lat="42.9855725" lon="11.8772958"><ele>514.8</ele><time>2026-04-04T16:23:22.068Z</time></trkpt><trkpt lat="42.9856457" lon="11.8772061"><ele>514.6</ele><time>2026-04-04T16:23:23.081Z</time></trkpt><trkpt lat="42.9857193" lon="11.8771182"><ele>514.4</ele><time>2026-04-04T16:23:24.065Z</time></trkpt><trkpt lat="42.9857898" lon="11.8770281"><ele>514.2</ele><time>2026-04-04T16:23:25.061Z</time></trkpt><trkpt lat="42.9858587" lon="11.876951"><ele>514.0</ele><time>2026-04-04T16:23:26.07Z</time></trkpt><trkpt lat="42.9859232" lon="11.8768723"><ele>514.0</ele><time>2026-04-04T16:23:27.063Z</time></trkpt><trkpt lat="42.9859907" lon="11.8767892"><ele>514.0</ele><time>2026-04-04T16:23:28.078Z</time></trkpt><trkpt lat="42.9860599" lon="11.8767021"><ele>514.0</ele><time>2026-04-04T16:23:29.059Z</time></trkpt><trkpt lat="42.9861381" lon="11.8766082"><ele>514.0</ele><time>2026-04-04T16:23:30.07Z</time></trkpt><trkpt lat="42.9862239" lon="11.8764993"><ele>514.0</ele><time>2026-04-04T16:23:31.083Z</time></trkpt><trkpt lat="42.9863091" lon="11.8763925"><ele>514.5</ele><time>2026-04-04T16:23:32.068Z</time></trkpt><trkpt lat="42.986398" lon="11.8762789"><ele>515.0</ele><time>2026-04-04T16:23:33.075Z</time></trkpt><trkpt lat="42.9864956" lon="11.8761572"><ele>515.5</ele><time>2026-04-04T16:23:34.059Z</time></trkpt><trkpt lat="42.9865907" lon="11.8760418"><ele>516.0</ele><time>2026-04-04T16:23:35.065Z</time></trkpt><trkpt lat="42.9866834" lon="11.8759293"><ele>516.5</ele><time>2026-04-04T16:23:36.068Z</time></trkpt><trkpt lat="42.9867741" lon="11.8758201"><ele>517.0</ele><time>2026-04-04T16:23:37.066Z</time></trkpt><trkpt lat="42.9868718" lon="11.8757079"><ele>517.5</ele><time>2026-04-04T16:23:38.075Z</time></trkpt><trkpt lat="42.9869732" lon="11.8755871"><ele>518.0</ele><time>2026-04-04T16:23:39.071Z</time></trkpt><trkpt lat="42.9870829" lon="11.875458"><ele>518.0</ele><time>2026-04-04T16:23:40.068Z</time></trkpt><trkpt lat="42.9871915" lon="11.8753339"><ele>518.0</ele><time>2026-04-04T16:23:41.071Z</time></trkpt><trkpt lat="42.9872923" lon="11.8752026"><ele>518.0</ele><time>2026-04-04T16:23:42.061Z</time></trkpt><trkpt lat="42.9873906" lon="11.8750755"><ele>518.0</ele><time>2026-04-04T16:23:43.08Z</time></trkpt><trkpt lat="42.987495" lon="11.8749466"><ele>517.75</ele><time>2026-04-04T16:23:44.062Z</time></trkpt><trkpt lat="42.9875944" lon="11.8748262"><ele>517.5</ele><time>2026-04-04T16:23:45.07Z</time></trkpt><trkpt lat="42.987687" lon="11.8747039"><ele>517.25</ele><time>2026-04-04T16:23:46.061Z</time></trkpt><trkpt lat="42.987778" lon="11.8745851"><ele>517.0</ele><time>2026-04-04T16:23:47.073Z</time></trkpt><trkpt lat="42.9878771" lon="11.8744676"><ele>517.0</ele><time>2026-04-04T16:23:48.062Z</time></trkpt><trkpt lat="42.9879834" lon="11.8743448"><ele>517.0</ele><time>2026-04-04T16:23:49.07Z</time></trkpt><trkpt lat="42.9880976" lon="11.8742047"><ele>517.0</ele><time>2026-04-04T16:23:50.06Z</time></trkpt><trkpt lat="42.9882161" lon="11.8740616"><ele>517.0</ele><time>2026-04-04T16:23:51.066Z</time></trkpt><trkpt lat="42.9883257" lon="11.8739332"><ele>517.0</ele><time>2026-04-04T16:23:52.074Z</time></trkpt><trkpt lat="42.9884245" lon="11.8738061"><ele>517.0</ele><time>2026-04-04T16:23:53.059Z</time></trkpt><trkpt lat="42.9885195" lon="11.8736888"><ele>517.0</ele><time>2026-04-04T16:23:54.067Z</time></trkpt><trkpt lat="42.9886057" lon="11.873571"><ele>517.2</ele><time>2026-04-04T16:23:55.062Z</time></trkpt><trkpt lat="42.9886903" lon="11.8734692"><ele>517.4000000000001</ele><time>2026-04-04T16:23:56.083Z</time></trkpt><trkpt lat="42.9887701" lon="11.8733768"><ele>517.5999999999999</ele><time>2026-04-04T16:23:57.061Z</time></trkpt><trkpt lat="42.988844" lon="11.8732887"><ele>517.8</ele><time>2026-04-04T16:23:58.059Z</time></trkpt><trkpt lat="42.9889028" lon="11.8732234"><ele>518.0</ele><time>2026-04-04T16:23:59.048Z</time></trkpt><trkpt lat="42.9890115" lon="11.8732431"><ele>518.0</ele><time>2026-04-04T16:24:01.046Z</time></trkpt><trkpt lat="42.9890739" lon="11.8732879"><ele>518.0</ele><time>2026-04-04T16:24:02.053Z</time></trkpt><trkpt lat="42.9891285" lon="11.8733464"><ele>518.0</ele><time>2026-04-04T16:24:03.046Z</time></trkpt><trkpt lat="42.98918" lon="11.873431"><ele>518.0</ele><time>2026-04-04T16:24:04.056Z</time></trkpt><trkpt lat="42.9891972" lon="11.87356"><ele>518.0</ele><time>2026-04-04T16:24:05.047Z</time></trkpt><trkpt lat="42.9892183" lon="11.8737241"><ele>518.0</ele><time>2026-04-04T16:24:06.051Z</time></trkpt><trkpt lat="42.9892519" lon="11.8738999"><ele>518.0</ele><time>2026-04-04T16:24:07.059Z</time></trkpt><trkpt lat="42.9892899" lon="11.8740811"><ele>518.0</ele><time>2026-04-04T16:24:08.06Z</time></trkpt><trkpt lat="42.9893258" lon="11.8742463"><ele>518.0</ele><time>2026-04-04T16:24:09.068Z</time></trkpt><trkpt lat="42.9893559" lon="11.8744053"><ele>518.0</ele><time>2026-04-04T16:24:10.06Z</time></trkpt><trkpt lat="42.9893901" lon="11.8745616"><ele>517.75</ele><time>2026-04-04T16:24:11.067Z</time></trkpt><trkpt lat="42.9894305" lon="11.8747305"><ele>517.5</ele><time>2026-04-04T16:24:12.072Z</time></trkpt><trkpt lat="42.9894701" lon="11.8749058"><ele>517.25</ele><time>2026-04-04T16:24:13.061Z</time></trkpt><trkpt lat="42.9895124" lon="11.8750837"><ele>517.0</ele><time>2026-04-04T16:24:14.064Z</time></trkpt><trkpt lat="42.989558" lon="11.8752734"><ele>516.0</ele><time>2026-04-04T16:24:15.066Z</time></trkpt><trkpt lat="42.9895956" lon="11.8754563"><ele>515.0</ele><time>2026-04-04T16:24:16.059Z</time></trkpt><trkpt lat="42.9896346" lon="11.8756113"><ele>514.0</ele><time>2026-04-04T16:24:17.063Z</time></trkpt><trkpt lat="42.9896682" lon="11.8757581"><ele>513.0</ele><time>2026-04-04T16:24:18.064Z</time></trkpt><trkpt lat="42.9896979" lon="11.8759029"><ele>513.0</ele><time>2026-04-04T16:24:19.047Z</time></trkpt><trkpt lat="42.989728" lon="11.8760465"><ele>513.0</ele><time>2026-04-04T16:24:20.073Z</time></trkpt><trkpt lat="42.9897564" lon="11.8762032"><ele>513.0</ele><time>2026-04-04T16:24:21.063Z</time></trkpt><trkpt lat="42.9897944" lon="11.876374"><ele>513.0</ele><time>2026-04-04T16:24:22.063Z</time></trkpt><trkpt lat="42.9898386" lon="11.8765533"><ele>513.0</ele><time>2026-04-04T16:24:23.064Z</time></trkpt><trkpt lat="42.9898851" lon="11.8767428"><ele>513.0</ele><time>2026-04-04T16:24:24.061Z</time></trkpt><trkpt lat="42.9899362" lon="11.8769255"><ele>513.0</ele><time>2026-04-04T16:24:25.059Z</time></trkpt><trkpt lat="42.9899948" lon="11.8770988"><ele>513.0</ele><time>2026-04-04T16:24:26.048Z</time></trkpt><trkpt lat="42.990057" lon="11.8772643"><ele>513.25</ele><time>2026-04-04T16:24:27.054Z</time></trkpt><trkpt lat="42.9901146" lon="11.8774197"><ele>513.5</ele><time>2026-04-04T16:24:28.063Z</time></trkpt><trkpt lat="42.9901697" lon="11.8775665"><ele>513.75</ele><time>2026-04-04T16:24:29.065Z</time></trkpt><trkpt lat="42.9902277" lon="11.8777148"><ele>514.0</ele><time>2026-04-04T16:24:30.07Z</time></trkpt><trkpt lat="42.9902853" lon="11.8778661"><ele>514.0</ele><time>2026-04-04T16:24:31.067Z</time></trkpt><trkpt lat="42.9903461" lon="11.8780224"><ele>514.0</ele><time>2026-04-04T16:24:32.07Z</time></trkpt><trkpt lat="42.9904088" lon="11.8781916"><ele>514.0</ele><time>2026-04-04T16:24:33.083Z</time></trkpt><trkpt lat="42.9904723" lon="11.8783635"><ele>514.0</ele><time>2026-04-04T16:24:34.068Z</time></trkpt><trkpt lat="42.9905347" lon="11.8785539"><ele>514.0</ele><time>2026-04-04T16:24:35.062Z</time></trkpt><trkpt lat="42.9905989" lon="11.8787672"><ele>514.0</ele><time>2026-04-04T16:24:36.056Z</time></trkpt><trkpt lat="42.9906525" lon="11.8789988"><ele>514.0</ele><time>2026-04-04T16:24:37.064Z</time></trkpt><trkpt lat="42.9907052" lon="11.879254"><ele>513.0</ele><time>2026-04-04T16:24:38.073Z</time></trkpt><trkpt lat="42.9907629" lon="11.879528"><ele>512.0</ele><time>2026-04-04T16:24:39.064Z</time></trkpt><trkpt lat="42.9908198" lon="11.8797952"><ele>511.0</ele><time>2026-04-04T16:24:40.064Z</time></trkpt><trkpt lat="42.9908769" lon="11.8800445"><ele>509.0</ele><time>2026-04-04T16:24:41.068Z</time></trkpt><trkpt lat="42.9909504" lon="11.8802837"><ele>507.0</ele><time>2026-04-04T16:24:42.064Z</time></trkpt><trkpt lat="42.9910516" lon="11.8805428"><ele>505.0</ele><time>2026-04-04T16:24:43.083Z</time></trkpt><trkpt lat="42.9911656" lon="11.880817"><ele>504.6666666666667</ele><time>2026-04-04T16:24:44.056Z</time></trkpt><trkpt lat="42.9912769" lon="11.881085"><ele>504.33333333333337</ele><time>2026-04-04T16:24:45.065Z</time></trkpt><trkpt lat="42.991381" lon="11.8813384"><ele>504.0</ele><time>2026-04-04T16:24:46.066Z</time></trkpt><trkpt lat="42.9914832" lon="11.8815751"><ele>502.66666666666663</ele><time>2026-04-04T16:24:47.067Z</time></trkpt><trkpt lat="42.9915781" lon="11.8818011"><ele>501.3333333333333</ele><time>2026-04-04T16:24:48.065Z</time></trkpt><trkpt lat="42.9916667" lon="11.8820128"><ele>500.0</ele><time>2026-04-04T16:24:49.068Z</time></trkpt><trkpt lat="42.9917414" lon="11.8821877"><ele>499.25</ele><time>2026-04-04T16:24:50.069Z</time></trkpt><trkpt lat="42.9918077" lon="11.8823508"><ele>498.5</ele><time>2026-04-04T16:24:51.063Z</time></trkpt><trkpt lat="42.9918613" lon="11.8825038"><ele>497.75</ele><time>2026-04-04T16:24:52.072Z</time></trkpt><trkpt lat="42.9918727" lon="11.8826583"><ele>497.0</ele><time>2026-04-04T16:24:53.062Z</time></trkpt><trkpt lat="42.9918294" lon="11.8828266"><ele>494.25</ele><time>2026-04-04T16:24:54.048Z</time></trkpt><trkpt lat="42.9917453" lon="11.8829753"><ele>491.5</ele><time>2026-04-04T16:24:55.057Z</time></trkpt><trkpt lat="42.9916352" lon="11.8830996"><ele>488.75</ele><time>2026-04-04T16:24:56.065Z</time></trkpt><trkpt lat="42.9914967" lon="11.8832191"><ele>486.0</ele><time>2026-04-04T16:24:57.059Z</time></trkpt><trkpt lat="42.9913407" lon="11.883355"><ele>480.0</ele><time>2026-04-04T16:24:58.059Z</time></trkpt><trkpt lat="42.9911893" lon="11.8835077"><ele>474.0</ele><time>2026-04-04T16:24:59.065Z</time></trkpt><trkpt lat="42.9910415" lon="11.8837044"><ele>468.0</ele><time>2026-04-04T16:25:00.065Z</time></trkpt><trkpt lat="42.9909229" lon="11.8839331"><ele>470.0</ele><time>2026-04-04T16:25:01.06Z</time></trkpt><trkpt lat="42.9908164" lon="11.8841399"><ele>472.0</ele><time>2026-04-04T16:25:02.06Z</time></trkpt><trkpt lat="42.9907219" lon="11.8843158"><ele>474.0</ele><time>2026-04-04T16:25:03.057Z</time></trkpt><trkpt lat="42.9906129" lon="11.8844638"><ele>474.0</ele><time>2026-04-04T16:25:04.056Z</time></trkpt><trkpt lat="42.9904842" lon="11.884576"><ele>474.0</ele><time>2026-04-04T16:25:05.06Z</time></trkpt><trkpt lat="42.990362" lon="11.8846684"><ele>474.0</ele><time>2026-04-04T16:25:06.059Z</time></trkpt><trkpt lat="42.990265" lon="11.88477"><ele>474.0</ele><time>2026-04-04T16:25:07.053Z</time></trkpt><trkpt lat="42.990195" lon="11.8848935"><ele>474.0</ele><time>2026-04-04T16:25:08.061Z</time></trkpt><trkpt lat="42.990163" lon="11.8850479"><ele>474.0</ele><time>2026-04-04T16:25:09.059Z</time></trkpt><trkpt lat="42.9901573" lon="11.8851991"><ele>474.0</ele><time>2026-04-04T16:25:10.06Z</time></trkpt><trkpt lat="42.9901772" lon="11.8853396"><ele>474.0</ele><time>2026-04-04T16:25:11.049Z</time></trkpt><trkpt lat="42.9902581" lon="11.8854594"><ele>471.0</ele><time>2026-04-04T16:25:12.054Z</time></trkpt><trkpt lat="42.9903529" lon="11.8855567"><ele>468.0</ele><time>2026-04-04T16:25:13.071Z</time></trkpt><trkpt lat="42.9904655" lon="11.8855943"><ele>465.0</ele><time>2026-04-04T16:25:14.05Z</time></trkpt><trkpt lat="42.9905872" lon="11.8855759"><ele>462.0</ele><time>2026-04-04T16:25:15.045Z</time></trkpt><trkpt lat="42.9907221" lon="11.8855102"><ele>456.33333333333337</ele><time>2026-04-04T16:25:16.057Z</time></trkpt><trkpt lat="42.9908718" lon="11.8854162"><ele>450.6666666666667</ele><time>2026-04-04T16:25:17.054Z</time></trkpt><trkpt lat="42.9910269" lon="11.8853202"><ele>445.0</ele><time>2026-04-04T16:25:18.067Z</time></trkpt><trkpt lat="42.9911681" lon="11.8852211"><ele>449.0</ele><time>2026-04-04T16:25:19.066Z</time></trkpt><trkpt lat="42.9912979" lon="11.8850665"><ele>453.0</ele><time>2026-04-04T16:25:20.051Z</time></trkpt><trkpt lat="42.9914051" lon="11.8848355"><ele>457.0</ele><time>2026-04-04T16:25:21.052Z</time></trkpt><trkpt lat="42.9915266" lon="11.8845998"><ele>457.0</ele><time>2026-04-04T16:25:22.052Z</time></trkpt><trkpt lat="42.9916428" lon="11.884379"><ele>457.0</ele><time>2026-04-04T16:25:23.055Z</time></trkpt><trkpt lat="42.9917601" lon="11.8841695"><ele>457.0</ele><time>2026-04-04T16:25:24.047Z</time></trkpt><trkpt lat="42.991885" lon="11.8839838"><ele>453.6666666666667</ele><time>2026-04-04T16:25:25.046Z</time></trkpt><trkpt lat="42.9920425" lon="11.8838329"><ele>450.33333333333337</ele><time>2026-04-04T16:25:26.054Z</time></trkpt><trkpt lat="42.9922345" lon="11.8836999"><ele>447.0</ele><time>2026-04-04T16:25:27.042Z</time></trkpt><trkpt lat="42.9924523" lon="11.8836105"><ele>448.33333333333337</ele><time>2026-04-04T16:25:28.087Z</time></trkpt><trkpt lat="42.9926501" lon="11.8835118"><ele>449.6666666666667</ele><time>2026-04-04T16:25:29.055Z</time></trkpt><trkpt lat="42.9928229" lon="11.8833713"><ele>451.0</ele><time>2026-04-04T16:25:30.065Z</time></trkpt><trkpt lat="42.9929744" lon="11.8832224"><ele>451.0</ele><time>2026-04-04T16:25:31.061Z</time></trkpt><trkpt lat="42.9931152" lon="11.8830976"><ele>451.0</ele><time>2026-04-04T16:25:32.065Z</time></trkpt><trkpt lat="42.9932563" lon="11.8830132"><ele>451.0</ele><time>2026-04-04T16:25:33.066Z</time></trkpt><trkpt lat="42.9933889" lon="11.8829824"><ele>448.33333333333337</ele><time>2026-04-04T16:25:34.069Z</time></trkpt><trkpt lat="42.9935308" lon="11.882976"><ele>445.66666666666663</ele><time>2026-04-04T16:25:35.062Z</time></trkpt><trkpt lat="42.9936782" lon="11.8830106"><ele>443.0</ele><time>2026-04-04T16:25:36.056Z</time></trkpt><trkpt lat="42.9938372" lon="11.8830908"><ele>443.0</ele><time>2026-04-04T16:25:37.047Z</time></trkpt><trkpt lat="42.9939892" lon="11.8831962"><ele>443.0</ele><time>2026-04-04T16:25:38.046Z</time></trkpt><trkpt lat="42.9941206" lon="11.8833199"><ele>443.0</ele><time>2026-04-04T16:25:39.062Z</time></trkpt><trkpt lat="42.9942398" lon="11.8834424"><ele>441.25</ele><time>2026-04-04T16:25:40.052Z</time></trkpt><trkpt lat="42.9943374" lon="11.8835564"><ele>439.5</ele><time>2026-04-04T16:25:41.053Z</time></trkpt><trkpt lat="42.9944121" lon="11.8836675"><ele>437.75</ele><time>2026-04-04T16:25:42.066Z</time></trkpt><trkpt lat="42.9944477" lon="11.8838048"><ele>436.0</ele><time>2026-04-04T16:25:43.046Z</time></trkpt><trkpt lat="42.9944334" lon="11.883965"><ele>436.0</ele><time>2026-04-04T16:25:44.089Z</time></trkpt><trkpt lat="42.9943767" lon="11.8841183"><ele>436.0</ele><time>2026-04-04T16:25:45.078Z</time></trkpt><trkpt lat="42.9942727" lon="11.8842499"><ele>436.0</ele><time>2026-04-04T16:25:46.068Z</time></trkpt><trkpt lat="42.9941348" lon="11.884354"><ele>436.0</ele><time>2026-04-04T16:25:47.071Z</time></trkpt><trkpt lat="42.9939774" lon="11.8844445"><ele>434.6666666666667</ele><time>2026-04-04T16:25:48.06Z</time></trkpt><trkpt lat="42.9938312" lon="11.884558"><ele>433.33333333333337</ele><time>2026-04-04T16:25:49.053Z</time></trkpt><trkpt lat="42.993728" lon="11.8847019"><ele>432.0</ele><time>2026-04-04T16:25:50.05Z</time></trkpt><trkpt lat="42.9936472" lon="11.8848756"><ele>432.0</ele><time>2026-04-04T16:25:51.044Z</time></trkpt><trkpt lat="42.9936095" lon="11.8850719"><ele>432.0</ele><time>2026-04-04T16:25:52.074Z</time></trkpt><trkpt lat="42.9936305" lon="11.8853053"><ele>432.0</ele><time>2026-04-04T16:25:53.069Z</time></trkpt><trkpt lat="42.9936851" lon="11.885569"><ele>430.66666666666663</ele><time>2026-04-04T16:25:54.066Z</time></trkpt><trkpt lat="42.9937493" lon="11.8858067"><ele>429.3333333333333</ele><time>2026-04-04T16:25:55.062Z</time></trkpt><trkpt lat="42.9938025" lon="11.8860352"><ele>428.0</ele><time>2026-04-04T16:25:56.075Z</time></trkpt><trkpt lat="42.9938544" lon="11.8862463"><ele>427.3333333333333</ele><time>2026-04-04T16:25:57.053Z</time></trkpt><trkpt lat="42.9939098" lon="11.8864481"><ele>426.66666666666663</ele><time>2026-04-04T16:25:58.06Z</time></trkpt><trkpt lat="42.9939788" lon="11.8866387"><ele>426.0</ele><time>2026-04-04T16:25:59.061Z</time></trkpt><trkpt lat="42.9940656" lon="11.8868492"><ele>425.0</ele><time>2026-04-04T16:26:00.055Z</time></trkpt><trkpt lat="42.9941707" lon="11.8870858"><ele>424.0</ele><time>2026-04-04T16:26:01.058Z</time></trkpt><trkpt lat="42.9942806" lon="11.8873538"><ele>423.0</ele><time>2026-04-04T16:26:02.057Z</time></trkpt><trkpt lat="42.9943994" lon="11.8876277"><ele>420.66666666666663</ele><time>2026-04-04T16:26:03.056Z</time></trkpt><trkpt lat="42.9945195" lon="11.8878927"><ele>418.3333333333333</ele><time>2026-04-04T16:26:04.048Z</time></trkpt><trkpt lat="42.9946295" lon="11.8881471"><ele>416.0</ele><time>2026-04-04T16:26:05.064Z</time></trkpt><trkpt lat="42.9947287" lon="11.8883894"><ele>415.0</ele><time>2026-04-04T16:26:06.056Z</time></trkpt><trkpt lat="42.9948257" lon="11.8886084"><ele>414.0</ele><time>2026-04-04T16:26:07.06Z</time></trkpt><trkpt lat="42.9949159" lon="11.8888002"><ele>413.0</ele><time>2026-04-04T16:26:08.055Z</time></trkpt><trkpt lat="42.9950105" lon="11.8889811"><ele>412.0</ele><time>2026-04-04T16:26:09.055Z</time></trkpt><trkpt lat="42.9951243" lon="11.8891344"><ele>411.0</ele><time>2026-04-04T16:26:10.056Z</time></trkpt><trkpt lat="42.9952662" lon="11.8892627"><ele>410.0</ele><time>2026-04-04T16:26:11.058Z</time></trkpt><trkpt lat="42.9954468" lon="11.8893769"><ele>409.3333333333333</ele><time>2026-04-04T16:26:12.055Z</time></trkpt><trkpt lat="42.9956241" lon="11.8894785"><ele>408.66666666666663</ele><time>2026-04-04T16:26:13.061Z</time></trkpt><trkpt lat="42.9957919" lon="11.8895764"><ele>408.0</ele><time>2026-04-04T16:26:14.061Z</time></trkpt><trkpt lat="42.9959353" lon="11.8896764"><ele>406.5</ele><time>2026-04-04T16:26:15.055Z</time></trkpt><trkpt lat="42.9960707" lon="11.8897666"><ele>405.0</ele><time>2026-04-04T16:26:16.059Z</time></trkpt><trkpt lat="42.9961876" lon="11.8898719"><ele>403.5</ele><time>2026-04-04T16:26:17.051Z</time></trkpt><trkpt lat="42.9962732" lon="11.8900188"><ele>402.0</ele><time>2026-04-04T16:26:18.052Z</time></trkpt><trkpt lat="42.9963341" lon="11.8902042"><ele>401.0</ele><time>2026-04-04T16:26:19.05Z</time></trkpt><trkpt lat="42.9963575" lon="11.8903961"><ele>400.0</ele><time>2026-04-04T16:26:20.045Z</time></trkpt><trkpt lat="42.9963421" lon="11.8905811"><ele>399.0</ele><time>2026-04-04T16:26:21.061Z</time></trkpt><trkpt lat="42.9962813" lon="11.890763"><ele>398.0</ele><time>2026-04-04T16:26:22.051Z</time></trkpt><trkpt lat="42.9961897" lon="11.8909357"><ele>393.3333333333333</ele><time>2026-04-04T16:26:23.052Z</time></trkpt><trkpt lat="42.9960663" lon="11.8910632"><ele>388.66666666666663</ele><time>2026-04-04T16:26:24.059Z</time></trkpt><trkpt lat="42.9959191" lon="11.8911412"><ele>384.0</ele><time>2026-04-04T16:26:25.061Z</time></trkpt><trkpt lat="42.9957569" lon="11.8911901"><ele>384.0</ele><time>2026-04-04T16:26:26.062Z</time></trkpt><trkpt lat="42.9955659" lon="11.8912251"><ele>384.0</ele><time>2026-04-04T16:26:27.051Z</time></trkpt><trkpt lat="42.9953773" lon="11.8912671"><ele>384.0</ele><time>2026-04-04T16:26:28.053Z</time></trkpt><trkpt lat="42.995203" lon="11.8913002"><ele>384.0</ele><time>2026-04-04T16:26:29.046Z</time></trkpt><trkpt lat="42.9950611" lon="11.8913236"><ele>384.0</ele><time>2026-04-04T16:26:30.075Z</time></trkpt><trkpt lat="42.9949502" lon="11.8913438"><ele>384.0</ele><time>2026-04-04T16:26:31.049Z</time></trkpt><trkpt lat="42.9948501" lon="11.8913778"><ele>384.0</ele><time>2026-04-04T16:26:32.056Z</time></trkpt><trkpt lat="42.9947796" lon="11.8914462"><ele>384.0</ele><time>2026-04-04T16:26:33.044Z</time></trkpt><trkpt lat="42.9947263" lon="11.8915466"><ele>383.5</ele><time>2026-04-04T16:26:34.05Z</time></trkpt><trkpt lat="42.9946985" lon="11.8916649"><ele>383.0</ele><time>2026-04-04T16:26:35.059Z</time></trkpt><trkpt lat="42.994712" lon="11.8917802"><ele>382.5</ele><time>2026-04-04T16:26:36.061Z</time></trkpt><trkpt lat="42.9947501" lon="11.8918823"><ele>382.0</ele><time>2026-04-04T16:26:37.058Z</time></trkpt><trkpt lat="42.99482" lon="11.8919521"><ele>381.5</ele><time>2026-04-04T16:26:38.056Z</time></trkpt><trkpt lat="42.9949043" lon="11.8919812"><ele>381.0</ele><time>2026-04-04T16:26:39.068Z</time></trkpt><trkpt lat="42.994991" lon="11.8919768"><ele>381.6</ele><time>2026-04-04T16:26:40.087Z</time></trkpt><trkpt lat="42.9950838" lon="11.8919444"><ele>382.20000000000005</ele><time>2026-04-04T16:26:41.103Z</time></trkpt><trkpt lat="42.9951714" lon="11.8919009"><ele>382.79999999999995</ele><time>2026-04-04T16:26:42.078Z</time></trkpt><trkpt lat="42.995257" lon="11.8918359"><ele>383.4</ele><time>2026-04-04T16:26:43.071Z</time></trkpt><trkpt lat="42.9953471" lon="11.8917555"><ele>384.0</ele><time>2026-04-04T16:26:44.099Z</time></trkpt><trkpt lat="42.9954493" lon="11.8916962"><ele>384.0</ele><time>2026-04-04T16:26:45.099Z</time></trkpt><trkpt lat="42.9955641" lon="11.8916785"><ele>384.0</ele><time>2026-04-04T16:26:46.088Z</time></trkpt><trkpt lat="42.995685" lon="11.8916925"><ele>384.0</ele><time>2026-04-04T16:26:47.079Z</time></trkpt><trkpt lat="42.9958135" lon="11.8917189"><ele>384.0</ele><time>2026-04-04T16:26:48.039Z</time></trkpt><trkpt lat="42.9959453" lon="11.891747"><ele>379.3333333333333</ele><time>2026-04-04T16:26:49.06Z</time></trkpt><trkpt lat="42.9960872" lon="11.8917871"><ele>374.66666666666663</ele><time>2026-04-04T16:26:50.048Z</time></trkpt><trkpt lat="42.9962373" lon="11.8918318"><ele>370.0</ele><time>2026-04-04T16:26:51.065Z</time></trkpt><trkpt lat="42.9963954" lon="11.8918752"><ele>370.0</ele><time>2026-04-04T16:26:52.049Z</time></trkpt><trkpt lat="42.9965459" lon="11.8919172"><ele>370.0</ele><time>2026-04-04T16:26:53.052Z</time></trkpt><trkpt lat="42.9966947" lon="11.8919581"><ele>370.0</ele><time>2026-04-04T16:26:54.046Z</time></trkpt><trkpt lat="42.9968344" lon="11.8919951"><ele>370.0</ele><time>2026-04-04T16:26:55.049Z</time></trkpt><trkpt lat="42.9969736" lon="11.8920199"><ele>369.0</ele><time>2026-04-04T16:26:56.075Z</time></trkpt><trkpt lat="42.9971052" lon="11.892035"><ele>368.0</ele><time>2026-04-04T16:26:57.057Z</time></trkpt><trkpt lat="42.9972301" lon="11.8920408"><ele>367.0</ele><time>2026-04-04T16:26:58.044Z</time></trkpt><trkpt lat="42.9973525" lon="11.8920394"><ele>366.0</ele><time>2026-04-04T16:26:59.048Z</time></trkpt><trkpt lat="42.9974778" lon="11.8920243"><ele>365.5</ele><time>2026-04-04T16:27:00.083Z</time></trkpt><trkpt lat="42.9976125" lon="11.8919827"><ele>365.0</ele><time>2026-04-04T16:27:01.077Z</time></trkpt><trkpt lat="42.9977578" lon="11.8919166"><ele>364.5</ele><time>2026-04-04T16:27:02.074Z</time></trkpt><trkpt lat="42.9978938" lon="11.8918264"><ele>364.0</ele><time>2026-04-04T16:27:03.081Z</time></trkpt><trkpt lat="42.9980238" lon="11.8917162"><ele>364.0</ele><time>2026-04-04T16:27:04.079Z</time></trkpt><trkpt lat="42.9981486" lon="11.8916157"><ele>364.0</ele><time>2026-04-04T16:27:05.048Z</time></trkpt><trkpt lat="42.99827" lon="11.8915209"><ele>364.0</ele><time>2026-04-04T16:27:06.069Z</time></trkpt><trkpt lat="42.9983849" lon="11.891434"><ele>364.0</ele><time>2026-04-04T16:27:07.049Z</time></trkpt><trkpt lat="42.9984973" lon="11.8913567"><ele>363.25</ele><time>2026-04-04T16:27:08.06Z</time></trkpt><trkpt lat="42.9986103" lon="11.8912947"><ele>362.5</ele><time>2026-04-04T16:27:09.052Z</time></trkpt><trkpt lat="42.9987406" lon="11.8912574"><ele>361.75</ele><time>2026-04-04T16:27:10.089Z</time></trkpt><trkpt lat="42.9988951" lon="11.8912635"><ele>361.0</ele><time>2026-04-04T16:27:11.098Z</time></trkpt><trkpt lat="42.9990632" lon="11.8912958"><ele>359.66666666666663</ele><time>2026-04-04T16:27:12.095Z</time></trkpt><trkpt lat="42.9992317" lon="11.8913486"><ele>358.3333333333333</ele><time>2026-04-04T16:27:13.076Z</time></trkpt><trkpt lat="42.9993902" lon="11.8913992"><ele>357.0</ele><time>2026-04-04T16:27:14.099Z</time></trkpt><trkpt lat="42.9995637" lon="11.8914482"><ele>357.0</ele><time>2026-04-04T16:27:15.104Z</time></trkpt><trkpt lat="42.9997496" lon="11.8914996"><ele>357.0</ele><time>2026-04-04T16:27:16.09Z</time></trkpt><trkpt lat="42.999931" lon="11.8915515"><ele>357.0</ele><time>2026-04-04T16:27:17.073Z</time></trkpt><trkpt lat="43.0001051" lon="11.8915987"><ele>357.0</ele><time>2026-04-04T16:27:18.089Z</time></trkpt><trkpt lat="43.000272" lon="11.8916463"><ele>357.0</ele><time>2026-04-04T16:27:19.085Z</time></trkpt><trkpt lat="43.0004291" lon="11.8917015"><ele>357.0</ele><time>2026-04-04T16:27:20.088Z</time></trkpt><trkpt lat="43.0005721" lon="11.8917953"><ele>357.6666666666667</ele><time>2026-04-04T16:27:21.097Z</time></trkpt><trkpt lat="43.0006959" lon="11.8919501"><ele>358.33333333333337</ele><time>2026-04-04T16:27:22.102Z</time></trkpt><trkpt lat="43.0008121" lon="11.8921422"><ele>359.0</ele><time>2026-04-04T16:27:23.084Z</time></trkpt><trkpt lat="43.0009163" lon="11.8923767"><ele>356.6666666666667</ele><time>2026-04-04T16:27:24.099Z</time></trkpt><trkpt lat="43.0010241" lon="11.8926144"><ele>354.3333333333333</ele><time>2026-04-04T16:27:25.054Z</time></trkpt><trkpt lat="43.0011282" lon="11.8928387"><ele>352.0</ele><time>2026-04-04T16:27:26.08Z</time></trkpt><trkpt lat="43.0012416" lon="11.8930379"><ele>352.0</ele><time>2026-04-04T16:27:27.095Z</time></trkpt><trkpt lat="43.0013577" lon="11.8932209"><ele>352.0</ele><time>2026-04-04T16:27:28.048Z</time></trkpt><trkpt lat="43.0160707" lon="11.9078275"><ele>319.0</ele><time>2026-04-04T16:29:43.094Z</time></trkpt><trkpt lat="43.0169476" lon="11.9060594"><ele>318.0</ele><time>2026-04-04T16:30:15.668Z</time></trkpt><trkpt lat="43.0171487" lon="11.9048495"><ele>318.0</ele><time>2026-04-04T16:30:43.336Z</time></trkpt><trkpt lat="43.0169145" lon="11.9047824"><ele>318.0</ele><time>2026-04-04T16:35:44.028Z</time></trkpt></trkseg><trkseg><trkpt lat="43.0167063" lon="11.9071802"><ele>329.0</ele><time>2026-04-04T16:55:47.056Z</time></trkpt><trkpt lat="43.0168029" lon="11.9072199"><ele>329.0</ele><time>2026-04-04T16:56:03.052Z</time></trkpt><trkpt lat="43.0168787" lon="11.9071768"><ele>329.0</ele><time>2026-04-04T16:56:04.074Z</time></trkpt><trkpt lat="43.0169703" lon="11.9071172"><ele>329.0</ele><time>2026-04-04T16:56:05.05Z</time></trkpt><trkpt lat="43.0170723" lon="11.9070708"><ele>329.0</ele><time>2026-04-04T16:56:06.056Z</time></trkpt><trkpt lat="43.0171855" lon="11.9070363"><ele>329.0</ele><time>2026-04-04T16:56:07.06Z</time></trkpt><trkpt lat="43.0173338" lon="11.9069849"><ele>329.0</ele><time>2026-04-04T16:56:08.064Z</time></trkpt><trkpt lat="43.0175191" lon="11.9069209"><ele>329.0</ele><time>2026-04-04T16:56:09.064Z</time></trkpt><trkpt lat="43.0176919" lon="11.9068265"><ele>326.33333333333337</ele><time>2026-04-04T16:56:10.11Z</time></trkpt><trkpt lat="43.0178603" lon="11.9066869"><ele>323.6666666666667</ele><time>2026-04-04T16:56:11.057Z</time></trkpt><trkpt lat="43.0180302" lon="11.9065195"><ele>321.0</ele><time>2026-04-04T16:56:12.06Z</time></trkpt><trkpt lat="43.0181762" lon="11.906343"><ele>321.0</ele><time>2026-04-04T16:56:13.062Z</time></trkpt><trkpt lat="43.0183119" lon="11.9061398"><ele>321.0</ele><time>2026-04-04T16:56:14.06Z</time></trkpt><trkpt lat="43.0184645" lon="11.905894"><ele>321.0</ele><time>2026-04-04T16:56:15.062Z</time></trkpt><trkpt lat="43.0186074" lon="11.9056611"><ele>321.6666666666667</ele><time>2026-04-04T16:56:16.05Z</time></trkpt><trkpt lat="43.0187431" lon="11.9054445"><ele>322.33333333333337</ele><time>2026-04-04T16:56:17.051Z</time></trkpt><trkpt lat="43.0188636" lon="11.905256"><ele>323.0</ele><time>2026-04-04T16:56:18.054Z</time></trkpt><trkpt lat="43.0189682" lon="11.9050876"><ele>323.4</ele><time>2026-04-04T16:56:19.056Z</time></trkpt><trkpt lat="43.0190584" lon="11.9049519"><ele>323.79999999999995</ele><time>2026-04-04T16:56:20.054Z</time></trkpt><trkpt lat="43.0191402" lon="11.9048395"><ele>324.2</ele><time>2026-04-04T16:56:21.061Z</time></trkpt><trkpt lat="43.0192258" lon="11.9047756"><ele>324.6</ele><time>2026-04-04T16:56:22.056Z</time></trkpt><trkpt lat="43.0193116" lon="11.9047707"><ele>325.0</ele><time>2026-04-04T16:56:23.062Z</time></trkpt><trkpt lat="43.0193889" lon="11.9047771"><ele>326.3333333333333</ele><time>2026-04-04T16:56:24.058Z</time></trkpt><trkpt lat="43.0194573" lon="11.9047513"><ele>327.66666666666663</ele><time>2026-04-04T16:56:25.061Z</time></trkpt><trkpt lat="43.0195012" lon="11.9046694"><ele>329.0</ele><time>2026-04-04T16:56:26.088Z</time></trkpt><trkpt lat="43.019521" lon="11.9045784"><ele>330.3333333333333</ele><time>2026-04-04T16:56:27.055Z</time></trkpt><trkpt lat="43.0195014" lon="11.9044877"><ele>331.6666666666667</ele><time>2026-04-04T16:56:28.055Z</time></trkpt><trkpt lat="43.0194597" lon="11.9043818"><ele>333.0</ele><time>2026-04-04T16:56:29.053Z</time></trkpt><trkpt lat="43.0194233" lon="11.9042686"><ele>333.75</ele><time>2026-04-04T16:56:30.057Z</time></trkpt><trkpt lat="43.0194287" lon="11.9041524"><ele>334.5</ele><time>2026-04-04T16:56:31.063Z</time></trkpt><trkpt lat="43.0194652" lon="11.9039938"><ele>335.25</ele><time>2026-04-04T16:56:32.065Z</time></trkpt><trkpt lat="43.0195126" lon="11.9038357"><ele>336.0</ele><time>2026-04-04T16:56:33.128Z</time></trkpt><trkpt lat="43.0195639" lon="11.9036707"><ele>336.0</ele><time>2026-04-04T16:56:34.057Z</time></trkpt><trkpt lat="43.0196197" lon="11.9034647"><ele>336.0</ele><time>2026-04-04T16:56:35.06Z</time></trkpt><trkpt lat="43.0196786" lon="11.903234"><ele>336.0</ele><time>2026-04-04T16:56:36.052Z</time></trkpt><trkpt lat="43.0197442" lon="11.9030156"><ele>334.0</ele><time>2026-04-04T16:56:37.058Z</time></trkpt><trkpt lat="43.0198169" lon="11.9027931"><ele>332.0</ele><time>2026-04-04T16:56:38.067Z</time></trkpt><trkpt lat="43.0199192" lon="11.902567"><ele>330.0</ele><time>2026-04-04T16:56:39.066Z</time></trkpt><trkpt lat="43.0200715" lon="11.9023681"><ele>329.3333333333333</ele><time>2026-04-04T16:56:40.098Z</time></trkpt><trkpt lat="43.020242" lon="11.9022029"><ele>328.66666666666663</ele><time>2026-04-04T16:56:41.054Z</time></trkpt><trkpt lat="43.0204027" lon="11.9020561"><ele>328.0</ele><time>2026-04-04T16:56:42.059Z</time></trkpt><trkpt lat="43.0205606" lon="11.9018748"><ele>329.3333333333333</ele><time>2026-04-04T16:56:43.053Z</time></trkpt><trkpt lat="43.0206952" lon="11.9016586"><ele>330.6666666666667</ele><time>2026-04-04T16:56:44.065Z</time></trkpt><trkpt lat="43.0208177" lon="11.9014185"><ele>332.0</ele><time>2026-04-04T16:56:45.06Z</time></trkpt><trkpt lat="43.0209145" lon="11.9011905"><ele>332.0</ele><time>2026-04-04T16:56:46.105Z</time></trkpt><trkpt lat="43.0209933" lon="11.9009875"><ele>332.0</ele><time>2026-04-04T16:56:47.077Z</time></trkpt><trkpt lat="43.0210449" lon="11.9007826"><ele>332.0</ele><time>2026-04-04T16:56:48.079Z</time></trkpt><trkpt lat="43.0210797" lon="11.9005659"><ele>332.6666666666667</ele><time>2026-04-04T16:56:49.069Z</time></trkpt><trkpt lat="43.021105" lon="11.9003402"><ele>333.3333333333333</ele><time>2026-04-04T16:56:50.097Z</time></trkpt><trkpt lat="43.0211131" lon="11.9001056"><ele>334.0</ele><time>2026-04-04T16:56:51.081Z</time></trkpt><trkpt lat="43.021092" lon="11.8998576"><ele>334.0</ele><time>2026-04-04T16:56:52.076Z</time></trkpt><trkpt lat="43.0210372" lon="11.8995988"><ele>334.0</ele><time>2026-04-04T16:56:53.072Z</time></trkpt><trkpt lat="43.0209815" lon="11.8993328"><ele>334.0</ele><time>2026-04-04T16:56:54.085Z</time></trkpt><trkpt lat="43.0209415" lon="11.8990652"><ele>334.66666666666663</ele><time>2026-04-04T16:56:55.079Z</time></trkpt><trkpt lat="43.020912" lon="11.8987762"><ele>335.3333333333333</ele><time>2026-04-04T16:56:56.07Z</time></trkpt><trkpt lat="43.0208838" lon="11.8984869"><ele>336.0</ele><time>2026-04-04T16:56:57.078Z</time></trkpt><trkpt lat="43.0208472" lon="11.8982051"><ele>336.3333333333333</ele><time>2026-04-04T16:56:58.072Z</time></trkpt><trkpt lat="43.0208173" lon="11.8979421"><ele>336.66666666666663</ele><time>2026-04-04T16:56:59.077Z</time></trkpt><trkpt lat="43.0208088" lon="11.8976958"><ele>337.0</ele><time>2026-04-04T16:57:00.084Z</time></trkpt><trkpt lat="43.020823" lon="11.8974677"><ele>338.3333333333333</ele><time>2026-04-04T16:57:01.068Z</time></trkpt><trkpt lat="43.0208611" lon="11.8972393"><ele>339.6666666666667</ele><time>2026-04-04T16:57:02.059Z</time></trkpt><trkpt lat="43.020924" lon="11.8970101"><ele>341.0</ele><time>2026-04-04T16:57:03.055Z</time></trkpt><trkpt lat="43.0210089" lon="11.8967765"><ele>342.0</ele><time>2026-04-04T16:57:04.054Z</time></trkpt><trkpt lat="43.0211069" lon="11.8965378"><ele>343.0</ele><time>2026-04-04T16:57:05.056Z</time></trkpt><trkpt lat="43.021212" lon="11.8962868"><ele>344.0</ele><time>2026-04-04T16:57:06.053Z</time></trkpt><trkpt lat="43.0213381" lon="11.8960318"><ele>343.6666666666667</ele><time>2026-04-04T16:57:07.051Z</time></trkpt><trkpt lat="43.0214619" lon="11.895808"><ele>343.3333333333333</ele><time>2026-04-04T16:57:08.057Z</time></trkpt><trkpt lat="43.0215826" lon="11.8956143"><ele>343.0</ele><time>2026-04-04T16:57:09.056Z</time></trkpt><trkpt lat="43.0217008" lon="11.8954341"><ele>342.66666666666663</ele><time>2026-04-04T16:57:10.07Z</time></trkpt><trkpt lat="43.0218086" lon="11.8952534"><ele>342.3333333333333</ele><time>2026-04-04T16:57:11.062Z</time></trkpt><trkpt lat="43.0219131" lon="11.8950673"><ele>342.0</ele><time>2026-04-04T16:57:12.059Z</time></trkpt><trkpt lat="43.0220127" lon="11.8948626"><ele>341.3333333333333</ele><time>2026-04-04T16:57:13.061Z</time></trkpt><trkpt lat="43.0221108" lon="11.894648"><ele>340.66666666666663</ele><time>2026-04-04T16:57:14.063Z</time></trkpt><trkpt lat="43.0222145" lon="11.8944307"><ele>340.0</ele><time>2026-04-04T16:57:15.06Z</time></trkpt><trkpt lat="43.0223128" lon="11.8942284"><ele>339.0</ele><time>2026-04-04T16:57:16.062Z</time></trkpt><trkpt lat="43.0224089" lon="11.8940431"><ele>338.0</ele><time>2026-04-04T16:57:17.059Z</time></trkpt><trkpt lat="43.0224993" lon="11.8938556"><ele>337.0</ele><time>2026-04-04T16:57:18.068Z</time></trkpt><trkpt lat="43.0225838" lon="11.8936778"><ele>339.0</ele><time>2026-04-04T16:57:19.058Z</time></trkpt><trkpt lat="43.0226653" lon="11.8934982"><ele>341.0</ele><time>2026-04-04T16:57:20.058Z</time></trkpt><trkpt lat="43.0227508" lon="11.8933207"><ele>343.0</ele><time>2026-04-04T16:57:21.055Z</time></trkpt><trkpt lat="43.02283" lon="11.89316"><ele>343.0</ele><time>2026-04-04T16:57:22.06Z</time></trkpt><trkpt lat="43.0229024" lon="11.8930108"><ele>343.0</ele><time>2026-04-04T16:57:23.055Z</time></trkpt><trkpt lat="43.0229737" lon="11.8928705"><ele>343.0</ele><time>2026-04-04T16:57:24.061Z</time></trkpt><trkpt lat="43.0230469" lon="11.8927253"><ele>343.0</ele><time>2026-04-04T16:57:25.051Z</time></trkpt><trkpt lat="43.0231125" lon="11.8925848"><ele>343.75</ele><time>2026-04-04T16:57:26.06Z</time></trkpt><trkpt lat="43.0231804" lon="11.8924442"><ele>344.5</ele><time>2026-04-04T16:57:27.061Z</time></trkpt><trkpt lat="43.0232598" lon="11.8922973"><ele>345.25</ele><time>2026-04-04T16:57:28.054Z</time></trkpt><trkpt lat="43.0233377" lon="11.8921521"><ele>346.0</ele><time>2026-04-04T16:57:29.059Z</time></trkpt><trkpt lat="43.0234072" lon="11.8920163"><ele>347.75</ele><time>2026-04-04T16:57:30.056Z</time></trkpt><trkpt lat="43.0234707" lon="11.8918848"><ele>349.5</ele><time>2026-04-04T16:57:31.106Z</time></trkpt><trkpt lat="43.0235382" lon="11.8917439"><ele>351.25</ele><time>2026-04-04T16:57:32.055Z</time></trkpt><trkpt lat="43.0236035" lon="11.8915938"><ele>353.0</ele><time>2026-04-04T16:57:33.057Z</time></trkpt><trkpt lat="43.0236782" lon="11.8914365"><ele>353.0</ele><time>2026-04-04T16:57:34.057Z</time></trkpt><trkpt lat="43.0237561" lon="11.8912814"><ele>353.0</ele><time>2026-04-04T16:57:35.051Z</time></trkpt><trkpt lat="43.0238313" lon="11.8911355"><ele>353.0</ele><time>2026-04-04T16:57:36.115Z</time></trkpt><trkpt lat="43.0238963" lon="11.8909954"><ele>353.0</ele><time>2026-04-04T16:57:37.066Z</time></trkpt><trkpt lat="43.0239572" lon="11.8908728"><ele>352.59999999999997</ele><time>2026-04-04T16:57:38.09Z</time></trkpt><trkpt lat="43.0240116" lon="11.8907447"><ele>352.2</ele><time>2026-04-04T16:57:39.065Z</time></trkpt><trkpt lat="43.0240677" lon="11.8906268"><ele>351.8</ele><time>2026-04-04T16:57:40.079Z</time></trkpt><trkpt lat="43.0241179" lon="11.8905136"><ele>351.4</ele><time>2026-04-04T16:57:41.094Z</time></trkpt><trkpt lat="43.0241691" lon="11.8904003"><ele>351.0</ele><time>2026-04-04T16:57:42.08Z</time></trkpt><trkpt lat="43.0242226" lon="11.8902957"><ele>351.6</ele><time>2026-04-04T16:57:43.084Z</time></trkpt><trkpt lat="43.0242783" lon="11.8901875"><ele>352.20000000000005</ele><time>2026-04-04T16:57:44.062Z</time></trkpt><trkpt lat="43.024337" lon="11.8900724"><ele>352.79999999999995</ele><time>2026-04-04T16:57:45.057Z</time></trkpt><trkpt lat="43.0243922" lon="11.8899561"><ele>353.4</ele><time>2026-04-04T16:57:46.058Z</time></trkpt><trkpt lat="43.0244504" lon="11.8898348"><ele>354.0</ele><time>2026-04-04T16:57:47.061Z</time></trkpt><trkpt lat="43.0245229" lon="11.8896964"><ele>354.0</ele><time>2026-04-04T16:57:48.069Z</time></trkpt><trkpt lat="43.0246065" lon="11.8895344"><ele>354.0</ele><time>2026-04-04T16:57:49.061Z</time></trkpt><trkpt lat="43.0246919" lon="11.8893415"><ele>354.0</ele><time>2026-04-04T16:57:50.066Z</time></trkpt><trkpt lat="43.0247892" lon="11.8891325"><ele>353.0</ele><time>2026-04-04T16:57:51.073Z</time></trkpt><trkpt lat="43.0248994" lon="11.8889157"><ele>352.0</ele><time>2026-04-04T16:57:52.057Z</time></trkpt><trkpt lat="43.0250183" lon="11.8886722"><ele>351.0</ele><time>2026-04-04T16:57:53.058Z</time></trkpt><trkpt lat="43.0251497" lon="11.888411"><ele>351.0</ele><time>2026-04-04T16:57:54.054Z</time></trkpt><trkpt lat="43.025301" lon="11.8881486"><ele>351.0</ele><time>2026-04-04T16:57:55.071Z</time></trkpt><trkpt lat="43.0254593" lon="11.8879094"><ele>351.0</ele><time>2026-04-04T16:57:56.06Z</time></trkpt><trkpt lat="43.0256067" lon="11.8876415"><ele>351.0</ele><time>2026-04-04T16:57:57.06Z</time></trkpt><trkpt lat="43.0257451" lon="11.8873476"><ele>353.6666666666667</ele><time>2026-04-04T16:57:58.047Z</time></trkpt><trkpt lat="43.0258865" lon="11.887086"><ele>356.33333333333337</ele><time>2026-04-04T16:57:59.05Z</time></trkpt><trkpt lat="43.026018" lon="11.8868623"><ele>359.0</ele><time>2026-04-04T16:58:00.053Z</time></trkpt><trkpt lat="43.0261639" lon="11.886627"><ele>360.33333333333337</ele><time>2026-04-04T16:58:01.058Z</time></trkpt><trkpt lat="43.0263009" lon="11.88639"><ele>361.6666666666667</ele><time>2026-04-04T16:58:02.074Z</time></trkpt><trkpt lat="43.0264173" lon="11.8861429"><ele>363.0</ele><time>2026-04-04T16:58:03.057Z</time></trkpt><trkpt lat="43.0265087" lon="11.8858922"><ele>370.5</ele><time>2026-04-04T16:58:04.059Z</time></trkpt><trkpt lat="43.0265789" lon="11.885598"><ele>378.0</ele><time>2026-04-04T16:58:05.056Z</time></trkpt><trkpt lat="43.0266343" lon="11.8852863"><ele>373.6666666666667</ele><time>2026-04-04T16:58:06.048Z</time></trkpt><trkpt lat="43.0266759" lon="11.88498"><ele>369.33333333333337</ele><time>2026-04-04T16:58:07.05Z</time></trkpt><trkpt lat="43.0267003" lon="11.88469"><ele>365.0</ele><time>2026-04-04T16:58:08.073Z</time></trkpt><trkpt lat="43.0267192" lon="11.8844292"><ele>365.0</ele><time>2026-04-04T16:58:09.056Z</time></trkpt><trkpt lat="43.0267458" lon="11.8841797"><ele>365.0</ele><time>2026-04-04T16:58:10.053Z</time></trkpt><trkpt lat="43.0268047" lon="11.8839671"><ele>365.0</ele><time>2026-04-04T16:58:11.067Z</time></trkpt><trkpt lat="43.0269067" lon="11.8838027"><ele>365.0</ele><time>2026-04-04T16:58:12.059Z</time></trkpt><trkpt lat="43.0270362" lon="11.8836794"><ele>365.0</ele><time>2026-04-04T16:58:13.054Z</time></trkpt><trkpt lat="43.027182" lon="11.8835537"><ele>365.0</ele><time>2026-04-04T16:58:14.06Z</time></trkpt><trkpt lat="43.0273458" lon="11.8834431"><ele>366.33333333333337</ele><time>2026-04-04T16:58:15.056Z</time></trkpt><trkpt lat="43.0275061" lon="11.8833236"><ele>367.6666666666667</ele><time>2026-04-04T16:58:16.088Z</time></trkpt><trkpt lat="43.0276474" lon="11.883199"><ele>369.0</ele><time>2026-04-04T16:58:17.062Z</time></trkpt><trkpt lat="43.0277724" lon="11.8830561"><ele>369.0</ele><time>2026-04-04T16:58:18.059Z</time></trkpt><trkpt lat="43.027884" lon="11.8828823"><ele>369.0</ele><time>2026-04-04T16:58:19.057Z</time></trkpt><trkpt lat="43.0279777" lon="11.882674"><ele>369.0</ele><time>2026-04-04T16:58:20.055Z</time></trkpt><trkpt lat="43.0280474" lon="11.8824359"><ele>368.6666666666667</ele><time>2026-04-04T16:58:21.061Z</time></trkpt><trkpt lat="43.0280922" lon="11.8821676"><ele>368.33333333333337</ele><time>2026-04-04T16:58:22.051Z</time></trkpt><trkpt lat="43.0281102" lon="11.8818816"><ele>368.0</ele><time>2026-04-04T16:58:23.114Z</time></trkpt><trkpt lat="43.0281248" lon="11.8815957"><ele>368.0</ele><time>2026-04-04T16:58:24.066Z</time></trkpt><trkpt lat="43.0281349" lon="11.8813144"><ele>368.0</ele><time>2026-04-04T16:58:25.063Z</time></trkpt><trkpt lat="43.0281502" lon="11.8810345"><ele>368.0</ele><time>2026-04-04T16:58:26.058Z</time></trkpt><trkpt lat="43.0281643" lon="11.8807446"><ele>365.0</ele><time>2026-04-04T16:58:27.053Z</time></trkpt><trkpt lat="43.028169" lon="11.8804549"><ele>362.0</ele><time>2026-04-04T16:58:28.066Z</time></trkpt><trkpt lat="43.0281683" lon="11.8801849"><ele>359.0</ele><time>2026-04-04T16:58:29.056Z</time></trkpt><trkpt lat="43.0281574" lon="11.8799133"><ele>358.0</ele><time>2026-04-04T16:58:30.12Z</time></trkpt><trkpt lat="43.0281545" lon="11.8796424"><ele>357.0</ele><time>2026-04-04T16:58:31.071Z</time></trkpt><trkpt lat="43.0281479" lon="11.8793629"><ele>356.0</ele><time>2026-04-04T16:58:32.055Z</time></trkpt><trkpt lat="43.0281464" lon="11.8790648"><ele>354.0</ele><time>2026-04-04T16:58:33.051Z</time></trkpt><trkpt lat="43.0281406" lon="11.8787434"><ele>352.0</ele><time>2026-04-04T16:58:34.056Z</time></trkpt><trkpt lat="43.0281374" lon="11.8784107"><ele>351.0</ele><time>2026-04-04T16:58:35.057Z</time></trkpt><trkpt lat="43.028131" lon="11.8780553"><ele>350.0</ele><time>2026-04-04T16:58:36.061Z</time></trkpt><trkpt lat="43.02812" lon="11.877684"><ele>350.0</ele><time>2026-04-04T16:58:37.086Z</time></trkpt><trkpt lat="43.0281048" lon="11.8773257"><ele>350.0</ele><time>2026-04-04T16:58:38.06Z</time></trkpt><trkpt lat="43.0280911" lon="11.8769803"><ele>349.0</ele><time>2026-04-04T16:58:39.058Z</time></trkpt><trkpt lat="43.0280772" lon="11.8766577"><ele>348.0</ele><time>2026-04-04T16:58:40.064Z</time></trkpt><trkpt lat="43.0280601" lon="11.8763428"><ele>348.0</ele><time>2026-04-04T16:58:41.055Z</time></trkpt><trkpt lat="43.0280403" lon="11.8760416"><ele>348.0</ele><time>2026-04-04T16:58:42.08Z</time></trkpt><trkpt lat="43.0280137" lon="11.8757603"><ele>348.0</ele><time>2026-04-04T16:58:43.053Z</time></trkpt><trkpt lat="43.0279852" lon="11.8754769"><ele>346.3333333333333</ele><time>2026-04-04T16:58:44.048Z</time></trkpt><trkpt lat="43.0279494" lon="11.8751889"><ele>344.66666666666663</ele><time>2026-04-04T16:58:45.068Z</time></trkpt><trkpt lat="43.0279114" lon="11.8748883"><ele>343.0</ele><time>2026-04-04T16:58:46.061Z</time></trkpt><trkpt lat="43.0278714" lon="11.874579"><ele>342.0</ele><time>2026-04-04T16:58:47.065Z</time></trkpt><trkpt lat="43.0278253" lon="11.87425"><ele>341.0</ele><time>2026-04-04T16:58:48.05Z</time></trkpt><trkpt lat="43.02777" lon="11.8739087"><ele>341.0</ele><time>2026-04-04T16:58:49.046Z</time></trkpt><trkpt lat="43.027719" lon="11.8735649"><ele>341.0</ele><time>2026-04-04T16:58:50.058Z</time></trkpt><trkpt lat="43.0276666" lon="11.8732404"><ele>342.33333333333337</ele><time>2026-04-04T16:58:51.065Z</time></trkpt><trkpt lat="43.0276225" lon="11.8729338"><ele>343.6666666666667</ele><time>2026-04-04T16:58:52.052Z</time></trkpt><trkpt lat="43.0275922" lon="11.8726406"><ele>345.0</ele><time>2026-04-04T16:58:53.094Z</time></trkpt><trkpt lat="43.0275731" lon="11.8723587"><ele>346.0</ele><time>2026-04-04T16:58:54.063Z</time></trkpt><trkpt lat="43.0275698" lon="11.8720741"><ele>347.0</ele><time>2026-04-04T16:58:55.058Z</time></trkpt><trkpt lat="43.0275858" lon="11.8717756"><ele>348.0</ele><time>2026-04-04T16:58:56.05Z</time></trkpt><trkpt lat="43.0276159" lon="11.871465"><ele>348.5</ele><time>2026-04-04T16:58:57.055Z</time></trkpt><trkpt lat="43.0276474" lon="11.8711393"><ele>349.0</ele><time>2026-04-04T16:58:58.048Z</time></trkpt><trkpt lat="43.0276805" lon="11.8708356"><ele>349.0</ele><time>2026-04-04T16:58:59.053Z</time></trkpt><trkpt lat="43.0277254" lon="11.870558"><ele>349.0</ele><time>2026-04-04T16:59:00.063Z</time></trkpt><trkpt lat="43.0277947" lon="11.8702861"><ele>349.0</ele><time>2026-04-04T16:59:01.065Z</time></trkpt><trkpt lat="43.0278743" lon="11.8699998"><ele>349.0</ele><time>2026-04-04T16:59:02.061Z</time></trkpt><trkpt lat="43.0279502" lon="11.8697151"><ele>349.0</ele><time>2026-04-04T16:59:03.053Z</time></trkpt><trkpt lat="43.0280254" lon="11.8694396"><ele>349.0</ele><time>2026-04-04T16:59:04.054Z</time></trkpt><trkpt lat="43.028092" lon="11.8691833"><ele>348.3333333333333</ele><time>2026-04-04T16:59:05.053Z</time></trkpt><trkpt lat="43.0281531" lon="11.8689327"><ele>347.6666666666667</ele><time>2026-04-04T16:59:06.09Z</time></trkpt><trkpt lat="43.0282121" lon="11.8686767"><ele>347.0</ele><time>2026-04-04T16:59:07.063Z</time></trkpt><trkpt lat="43.0282617" lon="11.8684001"><ele>346.0</ele><time>2026-04-04T16:59:08.062Z</time></trkpt><trkpt lat="43.0283008" lon="11.8680952"><ele>345.0</ele><time>2026-04-04T16:59:09.066Z</time></trkpt><trkpt lat="43.0283366" lon="11.8677797"><ele>348.0</ele><time>2026-04-04T16:59:10.06Z</time></trkpt><trkpt lat="43.0283836" lon="11.8674538"><ele>351.0</ele><time>2026-04-04T16:59:11.091Z</time></trkpt><trkpt lat="43.028433" lon="11.8671032"><ele>350.5</ele><time>2026-04-04T16:59:12.067Z</time></trkpt><trkpt lat="43.0284864" lon="11.8667418"><ele>350.0</ele><time>2026-04-04T16:59:13.073Z</time></trkpt><trkpt lat="43.0285353" lon="11.8663773"><ele>350.0</ele><time>2026-04-04T16:59:14.072Z</time></trkpt><trkpt lat="43.0285989" lon="11.8659972"><ele>350.0</ele><time>2026-04-04T16:59:15.054Z</time></trkpt><trkpt lat="43.0286786" lon="11.8656046"><ele>350.0</ele><time>2026-04-04T16:59:16.056Z</time></trkpt><trkpt lat="43.0287543" lon="11.8652163"><ele>350.0</ele><time>2026-04-04T16:59:17.06Z</time></trkpt><trkpt lat="43.0288234" lon="11.8648483"><ele>350.5</ele><time>2026-04-04T16:59:18.078Z</time></trkpt><trkpt lat="43.0288891" lon="11.864506"><ele>351.0</ele><time>2026-04-04T16:59:19.092Z</time></trkpt><trkpt lat="43.028955" lon="11.864155"><ele>350.0</ele><time>2026-04-04T16:59:20.091Z</time></trkpt><trkpt lat="43.0290245" lon="11.8637915"><ele>349.0</ele><time>2026-04-04T16:59:21.072Z</time></trkpt><trkpt lat="43.0290973" lon="11.8634162"><ele>350.5</ele><time>2026-04-04T16:59:22.101Z</time></trkpt><trkpt lat="43.0291769" lon="11.8630283"><ele>352.0</ele><time>2026-04-04T16:59:23.054Z</time></trkpt><trkpt lat="43.0292715" lon="11.8626372"><ele>353.0</ele><time>2026-04-04T16:59:24.061Z</time></trkpt><trkpt lat="43.0293844" lon="11.8622462"><ele>354.0</ele><time>2026-04-04T16:59:25.052Z</time></trkpt><trkpt lat="43.0294974" lon="11.8618535"><ele>353.0</ele><time>2026-04-04T16:59:26.059Z</time></trkpt><trkpt lat="43.0296055" lon="11.8614506"><ele>352.0</ele><time>2026-04-04T16:59:27.052Z</time></trkpt><trkpt lat="43.0297153" lon="11.8610478"><ele>351.0</ele><time>2026-04-04T16:59:28.048Z</time></trkpt><trkpt lat="43.0298182" lon="11.8606653"><ele>350.0</ele><time>2026-04-04T16:59:29.055Z</time></trkpt><trkpt lat="43.0299166" lon="11.8603181"><ele>354.0</ele><time>2026-04-04T16:59:30.073Z</time></trkpt><trkpt lat="43.0300085" lon="11.8599858"><ele>358.0</ele><time>2026-04-04T16:59:31.061Z</time></trkpt><trkpt lat="43.0301053" lon="11.8596665"><ele>358.0</ele><time>2026-04-04T16:59:32.107Z</time></trkpt><trkpt lat="43.0302188" lon="11.8593661"><ele>358.0</ele><time>2026-04-04T16:59:33.05Z</time></trkpt><trkpt lat="43.0303375" lon="11.8590889"><ele>357.0</ele><time>2026-04-04T16:59:34.049Z</time></trkpt><trkpt lat="43.030449" lon="11.8588234"><ele>356.0</ele><time>2026-04-04T16:59:35.044Z</time></trkpt><trkpt lat="43.0305397" lon="11.8585204"><ele>356.0</ele><time>2026-04-04T16:59:36.057Z</time></trkpt><trkpt lat="43.0306125" lon="11.8582045"><ele>356.0</ele><time>2026-04-04T16:59:37.057Z</time></trkpt><trkpt lat="43.0306751" lon="11.8578997"><ele>356.0</ele><time>2026-04-04T16:59:38.052Z</time></trkpt><trkpt lat="43.030734" lon="11.8576205"><ele>356.0</ele><time>2026-04-04T16:59:39.05Z</time></trkpt><trkpt lat="43.0307925" lon="11.8573521"><ele>356.0</ele><time>2026-04-04T16:59:40.104Z</time></trkpt><trkpt lat="43.0308375" lon="11.8570766"><ele>358.0</ele><time>2026-04-04T16:59:41.072Z</time></trkpt><trkpt lat="43.0308724" lon="11.8567757"><ele>360.0</ele><time>2026-04-04T16:59:42.063Z</time></trkpt><trkpt lat="43.030902" lon="11.8564501"><ele>360.0</ele><time>2026-04-04T16:59:43.051Z</time></trkpt><trkpt lat="43.0309296" lon="11.8561148"><ele>360.0</ele><time>2026-04-04T16:59:44.074Z</time></trkpt><trkpt lat="43.0309544" lon="11.8557826"><ele>358.5</ele><time>2026-04-04T16:59:45.071Z</time></trkpt><trkpt lat="43.0309757" lon="11.8554666"><ele>357.0</ele><time>2026-04-04T16:59:46.077Z</time></trkpt><trkpt lat="43.0309888" lon="11.8551681"><ele>357.0</ele><time>2026-04-04T16:59:47.076Z</time></trkpt><trkpt lat="43.0310088" lon="11.8548967"><ele>357.0</ele><time>2026-04-04T16:59:48.049Z</time></trkpt><trkpt lat="43.0310349" lon="11.8546612"><ele>357.0</ele><time>2026-04-04T16:59:49.057Z</time></trkpt><trkpt lat="43.0310648" lon="11.8544475"><ele>357.6666666666667</ele><time>2026-04-04T16:59:50.06Z</time></trkpt><trkpt lat="43.0310949" lon="11.8542369"><ele>358.33333333333337</ele><time>2026-04-04T16:59:51.089Z</time></trkpt><trkpt lat="43.0311259" lon="11.8540385"><ele>359.0</ele><time>2026-04-04T16:59:52.048Z</time></trkpt><trkpt lat="43.0311531" lon="11.8538433"><ele>359.0</ele><time>2026-04-04T16:59:53.05Z</time></trkpt><trkpt lat="43.0311909" lon="11.8536464"><ele>359.0</ele><time>2026-04-04T16:59:54.056Z</time></trkpt><trkpt lat="43.0312323" lon="11.8534598"><ele>359.0</ele><time>2026-04-04T16:59:55.061Z</time></trkpt><trkpt lat="43.0312903" lon="11.8532625"><ele>359.0</ele><time>2026-04-04T16:59:56.065Z</time></trkpt><trkpt lat="43.0313722" lon="11.8530585"><ele>359.0</ele><time>2026-04-04T16:59:57.06Z</time></trkpt><trkpt lat="43.0314794" lon="11.8528336"><ele>359.0</ele><time>2026-04-04T16:59:58.054Z</time></trkpt><trkpt lat="43.0316069" lon="11.8525952"><ele>359.0</ele><time>2026-04-04T16:59:59.051Z</time></trkpt><trkpt lat="43.0317434" lon="11.8523723"><ele>359.0</ele><time>2026-04-04T17:00:00.055Z</time></trkpt><trkpt lat="43.0318532" lon="11.8521636"><ele>359.0</ele><time>2026-04-04T17:00:01.058Z</time></trkpt><trkpt lat="43.0319529" lon="11.8519469"><ele>359.0</ele><time>2026-04-04T17:00:02.107Z</time></trkpt><trkpt lat="43.0320413" lon="11.8517053"><ele>359.0</ele><time>2026-04-04T17:00:03.063Z</time></trkpt><trkpt lat="43.0321093" lon="11.851428"><ele>359.0</ele><time>2026-04-04T17:00:04.051Z</time></trkpt><trkpt lat="43.0321728" lon="11.8511247"><ele>359.0</ele><time>2026-04-04T17:00:05.056Z</time></trkpt><trkpt lat="43.0322529" lon="11.8508143"><ele>359.0</ele><time>2026-04-04T17:00:06.061Z</time></trkpt><trkpt lat="43.0323427" lon="11.8505171"><ele>359.0</ele><time>2026-04-04T17:00:07.087Z</time></trkpt><trkpt lat="43.0324417" lon="11.8502412"><ele>362.6666666666667</ele><time>2026-04-04T17:00:08.061Z</time></trkpt><trkpt lat="43.0325377" lon="11.8499815"><ele>366.3333333333333</ele><time>2026-04-04T17:00:09.05Z</time></trkpt><trkpt lat="43.0326366" lon="11.8497195"><ele>370.0</ele><time>2026-04-04T17:00:10.061Z</time></trkpt><trkpt lat="43.0327238" lon="11.8494726"><ele>371.0</ele><time>2026-04-04T17:00:11.054Z</time></trkpt><trkpt lat="43.0328104" lon="11.8492405"><ele>372.0</ele><time>2026-04-04T17:00:12.087Z</time></trkpt><trkpt lat="43.0328993" lon="11.8490307"><ele>373.0</ele><time>2026-04-04T17:00:13.054Z</time></trkpt><trkpt lat="43.0329887" lon="11.8488406"><ele>373.0</ele><time>2026-04-04T17:00:14.063Z</time></trkpt><trkpt lat="43.0330825" lon="11.8486609"><ele>373.0</ele><time>2026-04-04T17:00:15.078Z</time></trkpt><trkpt lat="43.033179" lon="11.8484821"><ele>373.0</ele><time>2026-04-04T17:00:16.057Z</time></trkpt><trkpt lat="43.0332851" lon="11.8483181"><ele>377.3333333333333</ele><time>2026-04-04T17:00:17.106Z</time></trkpt><trkpt lat="43.0333901" lon="11.8481655"><ele>381.66666666666663</ele><time>2026-04-04T17:00:18.057Z</time></trkpt><trkpt lat="43.0334933" lon="11.8480027"><ele>386.0</ele><time>2026-04-04T17:00:19.048Z</time></trkpt><trkpt lat="43.0335975" lon="11.847839"><ele>386.0</ele><time>2026-04-04T17:00:20.058Z</time></trkpt><trkpt lat="43.03369" lon="11.847675"><ele>386.0</ele><time>2026-04-04T17:00:21.049Z</time></trkpt><trkpt lat="43.0337721" lon="11.8474982"><ele>386.0</ele><time>2026-04-04T17:00:22.055Z</time></trkpt><trkpt lat="43.0338382" lon="11.8473004"><ele>385.66666666666663</ele><time>2026-04-04T17:00:23.047Z</time></trkpt><trkpt lat="43.033892" lon="11.8470821"><ele>385.33333333333337</ele><time>2026-04-04T17:00:24.12Z</time></trkpt><trkpt lat="43.0339368" lon="11.8468392"><ele>385.0</ele><time>2026-04-04T17:00:25.058Z</time></trkpt><trkpt lat="43.0339713" lon="11.846568"><ele>385.0</ele><time>2026-04-04T17:00:26.051Z</time></trkpt><trkpt lat="43.0340049" lon="11.8462846"><ele>385.0</ele><time>2026-04-04T17:00:27.049Z</time></trkpt><trkpt lat="43.0340543" lon="11.8459834"><ele>385.0</ele><time>2026-04-04T17:00:28.055Z</time></trkpt><trkpt lat="43.0341111" lon="11.8456655"><ele>393.0</ele><time>2026-04-04T17:00:29.108Z</time></trkpt><trkpt lat="43.0341588" lon="11.8453425"><ele>401.0</ele><time>2026-04-04T17:00:30.054Z</time></trkpt><trkpt lat="43.0341951" lon="11.8450156"><ele>403.5</ele><time>2026-04-04T17:00:31.055Z</time></trkpt><trkpt lat="43.0342321" lon="11.8446896"><ele>406.0</ele><time>2026-04-04T17:00:32.046Z</time></trkpt><trkpt lat="43.0342764" lon="11.8443587"><ele>407.5</ele><time>2026-04-04T17:00:33.057Z</time></trkpt><trkpt lat="43.0343148" lon="11.8440397"><ele>409.0</ele><time>2026-04-04T17:00:34.059Z</time></trkpt><trkpt lat="43.0343565" lon="11.8437262"><ele>412.0</ele><time>2026-04-04T17:00:35.055Z</time></trkpt><trkpt lat="43.0344123" lon="11.8434016"><ele>415.0</ele><time>2026-04-04T17:00:36.052Z</time></trkpt><trkpt lat="43.0344924" lon="11.8430862"><ele>415.0</ele><time>2026-04-04T17:00:37.101Z</time></trkpt><trkpt lat="43.0345805" lon="11.8427723"><ele>415.0</ele><time>2026-04-04T17:00:38.059Z</time></trkpt><trkpt lat="43.0346556" lon="11.8424499"><ele>416.5</ele><time>2026-04-04T17:00:39.043Z</time></trkpt><trkpt lat="43.0347159" lon="11.8421241"><ele>418.0</ele><time>2026-04-04T17:00:40.055Z</time></trkpt><trkpt lat="43.0347665" lon="11.841809"><ele>420.0</ele><time>2026-04-04T17:00:41.048Z</time></trkpt><trkpt lat="43.0348077" lon="11.8415168"><ele>422.0</ele><time>2026-04-04T17:00:42.058Z</time></trkpt><trkpt lat="43.0348448" lon="11.8412386"><ele>424.0</ele><time>2026-04-04T17:00:43.046Z</time></trkpt><trkpt lat="43.0348908" lon="11.840988"><ele>424.6666666666667</ele><time>2026-04-04T17:00:44.096Z</time></trkpt><trkpt lat="43.0349333" lon="11.8407457"><ele>425.33333333333337</ele><time>2026-04-04T17:00:45.059Z</time></trkpt><trkpt lat="43.0349727" lon="11.8405096"><ele>426.0</ele><time>2026-04-04T17:00:46.06Z</time></trkpt><trkpt lat="43.0350086" lon="11.8402898"><ele>427.5</ele><time>2026-04-04T17:00:47.06Z</time></trkpt><trkpt lat="43.0350357" lon="11.8400883"><ele>429.0</ele><time>2026-04-04T17:00:48.057Z</time></trkpt><trkpt lat="43.0350647" lon="11.8398984"><ele>430.5</ele><time>2026-04-04T17:00:49.059Z</time></trkpt><trkpt lat="43.0350974" lon="11.8397152"><ele>432.0</ele><time>2026-04-04T17:00:50.085Z</time></trkpt><trkpt lat="43.0351235" lon="11.8395357"><ele>432.0</ele><time>2026-04-04T17:00:51.05Z</time></trkpt><trkpt lat="43.0351506" lon="11.8393543"><ele>432.0</ele><time>2026-04-04T17:00:52.053Z</time></trkpt><trkpt lat="43.0351809" lon="11.8391677"><ele>432.0</ele><time>2026-04-04T17:00:53.064Z</time></trkpt><trkpt lat="43.0352103" lon="11.8389723"><ele>432.0</ele><time>2026-04-04T17:00:54.055Z</time></trkpt><trkpt lat="43.0352397" lon="11.8387744"><ele>433.25</ele><time>2026-04-04T17:00:55.061Z</time></trkpt><trkpt lat="43.0352683" lon="11.8385861"><ele>434.5</ele><time>2026-04-04T17:00:56.109Z</time></trkpt><trkpt lat="43.035296" lon="11.8384142"><ele>435.75</ele><time>2026-04-04T17:00:57.047Z</time></trkpt><trkpt lat="43.0353144" lon="11.8382757"><ele>437.0</ele><time>2026-04-04T17:00:58.051Z</time></trkpt><trkpt lat="43.0353283" lon="11.8381463"><ele>437.6</ele><time>2026-04-04T17:00:59.055Z</time></trkpt><trkpt lat="43.0353358" lon="11.8380202"><ele>438.20000000000005</ele><time>2026-04-04T17:01:00.055Z</time></trkpt><trkpt lat="43.0353475" lon="11.8379057"><ele>438.8</ele><time>2026-04-04T17:01:01.088Z</time></trkpt><trkpt lat="43.0353598" lon="11.8377857"><ele>439.4</ele><time>2026-04-04T17:01:02.067Z</time></trkpt><trkpt lat="43.0353705" lon="11.8376553"><ele>440.0</ele><time>2026-04-04T17:01:03.063Z</time></trkpt><trkpt lat="43.0353765" lon="11.8375169"><ele>440.4</ele><time>2026-04-04T17:01:04.062Z</time></trkpt><trkpt lat="43.0353866" lon="11.8373638"><ele>440.8</ele><time>2026-04-04T17:01:05.052Z</time></trkpt><trkpt lat="43.0353994" lon="11.837205"><ele>441.20000000000005</ele><time>2026-04-04T17:01:06.108Z</time></trkpt><trkpt lat="43.0354103" lon="11.837055"><ele>441.6</ele><time>2026-04-04T17:01:07.08Z</time></trkpt><trkpt lat="43.0354153" lon="11.8369147"><ele>442.0</ele><time>2026-04-04T17:01:08.079Z</time></trkpt><trkpt lat="43.0354273" lon="11.8367818"><ele>440.6</ele><time>2026-04-04T17:01:09.075Z</time></trkpt><trkpt lat="43.0354442" lon="11.8366589"><ele>439.20000000000005</ele><time>2026-04-04T17:01:10.063Z</time></trkpt><trkpt lat="43.0354657" lon="11.8365339"><ele>437.8</ele><time>2026-04-04T17:01:11.064Z</time></trkpt><trkpt lat="43.0354852" lon="11.8364065"><ele>436.4</ele><time>2026-04-04T17:01:12.079Z</time></trkpt><trkpt lat="43.035503" lon="11.836272"><ele>435.0</ele><time>2026-04-04T17:01:13.08Z</time></trkpt><trkpt lat="43.0355279" lon="11.8361394"><ele>435.0</ele><time>2026-04-04T17:01:14.057Z</time></trkpt><trkpt lat="43.035551" lon="11.8360089"><ele>435.0</ele><time>2026-04-04T17:01:15.107Z</time></trkpt><trkpt lat="43.0355702" lon="11.8358853"><ele>435.0</ele><time>2026-04-04T17:01:16.064Z</time></trkpt><trkpt lat="43.0355926" lon="11.8357557"><ele>435.0</ele><time>2026-04-04T17:01:17.053Z</time></trkpt><trkpt lat="43.0356128" lon="11.8356157"><ele>435.0</ele><time>2026-04-04T17:01:18.058Z</time></trkpt><trkpt lat="43.0356472" lon="11.8354768"><ele>434.8333333333333</ele><time>2026-04-04T17:01:19.057Z</time></trkpt><trkpt lat="43.0356848" lon="11.8353538"><ele>434.66666666666663</ele><time>2026-04-04T17:01:20.063Z</time></trkpt><trkpt lat="43.0357162" lon="11.8352485"><ele>434.5</ele><time>2026-04-04T17:01:21.064Z</time></trkpt><trkpt lat="43.0357293" lon="11.8351516"><ele>434.3333333333333</ele><time>2026-04-04T17:01:22.059Z</time></trkpt><trkpt lat="43.0356694" lon="11.8350012"><ele>434.16666666666663</ele><time>2026-04-04T17:01:24.067Z</time></trkpt><trkpt lat="43.0356114" lon="11.8349507"><ele>434.0</ele><time>2026-04-04T17:01:25.051Z</time></trkpt><trkpt lat="43.0355301" lon="11.8349311"><ele>434.49999999999994</ele><time>2026-04-04T17:01:26.056Z</time></trkpt><trkpt lat="43.0354503" lon="11.8349273"><ele>435.0</ele><time>2026-04-04T17:01:27.054Z</time></trkpt><trkpt lat="43.0353764" lon="11.8349314"><ele>435.5</ele><time>2026-04-04T17:01:28.048Z</time></trkpt><trkpt lat="43.0353114" lon="11.8349037"><ele>436.0</ele><time>2026-04-04T17:01:29.093Z</time></trkpt><trkpt lat="43.0352554" lon="11.8347413"><ele>436.49999999999994</ele><time>2026-04-04T17:01:31.055Z</time></trkpt><trkpt lat="43.0352619" lon="11.8346349"><ele>437.0</ele><time>2026-04-04T17:01:32.051Z</time></trkpt><trkpt lat="43.0352803" lon="11.8345272"><ele>437.0</ele><time>2026-04-04T17:01:33.055Z</time></trkpt><trkpt lat="43.0353002" lon="11.8344025"><ele>437.00000000000006</ele><time>2026-04-04T17:01:34.052Z</time></trkpt><trkpt lat="43.035311" lon="11.8342641"><ele>437.00000000000006</ele><time>2026-04-04T17:01:35.051Z</time></trkpt><trkpt lat="43.0353195" lon="11.8341151"><ele>437.0</ele><time>2026-04-04T17:01:36.092Z</time></trkpt><trkpt lat="43.0353186" lon="11.8339635"><ele>437.0</ele><time>2026-04-04T17:01:37.056Z</time></trkpt><trkpt lat="43.0353071" lon="11.8338183"><ele>438.0</ele><time>2026-04-04T17:01:38.051Z</time></trkpt><trkpt lat="43.0352907" lon="11.8336851"><ele>439.00000000000006</ele><time>2026-04-04T17:01:39.048Z</time></trkpt><trkpt lat="43.0352585" lon="11.8335445"><ele>440.00000000000006</ele><time>2026-04-04T17:01:40.06Z</time></trkpt><trkpt lat="43.0352265" lon="11.8334038"><ele>441.0</ele><time>2026-04-04T17:01:41.055Z</time></trkpt><trkpt lat="43.0351908" lon="11.8332751"><ele>442.0</ele><time>2026-04-04T17:01:42.06Z</time></trkpt><trkpt lat="43.0351524" lon="11.8331643"><ele>443.00000000000006</ele><time>2026-04-04T17:01:43.051Z</time></trkpt><trkpt lat="43.0351169" lon="11.8330588"><ele>444.0</ele><time>2026-04-04T17:01:44.05Z</time></trkpt><trkpt lat="43.0350773" lon="11.8329568"><ele>445.0</ele><time>2026-04-04T17:01:45.058Z</time></trkpt><trkpt lat="43.0350421" lon="11.83287"><ele>446.0</ele><time>2026-04-04T17:01:46.058Z</time></trkpt><trkpt lat="43.0350046" lon="11.8327724"><ele>447.00000000000006</ele><time>2026-04-04T17:01:47.059Z</time></trkpt><trkpt lat="43.0349627" lon="11.8326631"><ele>448.0</ele><time>2026-04-04T17:01:48.067Z</time></trkpt><trkpt lat="43.0349192" lon="11.8325574"><ele>450.0</ele><time>2026-04-04T17:01:49.056Z</time></trkpt><trkpt lat="43.0348782" lon="11.8324466"><ele>451.99999999999994</ele><time>2026-04-04T17:01:50.066Z</time></trkpt><trkpt lat="43.0348361" lon="11.8323335"><ele>453.99999999999994</ele><time>2026-04-04T17:01:51.054Z</time></trkpt><trkpt lat="43.0347975" lon="11.8322195"><ele>456.0</ele><time>2026-04-04T17:01:52.057Z</time></trkpt><trkpt lat="43.0347629" lon="11.8320991"><ele>458.0</ele><time>2026-04-04T17:01:53.053Z</time></trkpt><trkpt lat="43.0347321" lon="11.831963"><ele>459.75</ele><time>2026-04-04T17:01:54.048Z</time></trkpt><trkpt lat="43.0346992" lon="11.8317988"><ele>461.5</ele><time>2026-04-04T17:01:55.063Z</time></trkpt><trkpt lat="43.0346873" lon="11.8315919"><ele>463.25</ele><time>2026-04-04T17:01:56.058Z</time></trkpt><trkpt lat="43.0346881" lon="11.8313712"><ele>465.0</ele><time>2026-04-04T17:01:57.051Z</time></trkpt><trkpt lat="43.0346846" lon="11.8311539"><ele>467.33333333333337</ele><time>2026-04-04T17:01:58.051Z</time></trkpt><trkpt lat="43.0346789" lon="11.8309332"><ele>469.6666666666667</ele><time>2026-04-04T17:01:59.069Z</time></trkpt><trkpt lat="43.0346608" lon="11.8306978"><ele>472.0</ele><time>2026-04-04T17:02:00.043Z</time></trkpt><trkpt lat="43.0346132" lon="11.830452"><ele>472.0</ele><time>2026-04-04T17:02:01.056Z</time></trkpt><trkpt lat="43.0345475" lon="11.8301972"><ele>472.0</ele><time>2026-04-04T17:02:02.058Z</time></trkpt><trkpt lat="43.0344789" lon="11.8299147"><ele>472.0</ele><time>2026-04-04T17:02:03.049Z</time></trkpt><trkpt lat="43.0344139" lon="11.8296197"><ele>474.5</ele><time>2026-04-04T17:02:04.062Z</time></trkpt><trkpt lat="43.0343433" lon="11.8293137"><ele>477.0</ele><time>2026-04-04T17:02:05.064Z</time></trkpt><trkpt lat="43.0342694" lon="11.8290005"><ele>479.0</ele><time>2026-04-04T17:02:06.071Z</time></trkpt><trkpt lat="43.0341926" lon="11.8286905"><ele>481.0</ele><time>2026-04-04T17:02:07.064Z</time></trkpt><trkpt lat="43.0341195" lon="11.8283784"><ele>481.0</ele><time>2026-04-04T17:02:08.059Z</time></trkpt><trkpt lat="43.034042" lon="11.828051"><ele>481.0</ele><time>2026-04-04T17:02:09.059Z</time></trkpt><trkpt lat="43.0339648" lon="11.8277155"><ele>488.0</ele><time>2026-04-04T17:02:10.052Z</time></trkpt><trkpt lat="43.0338861" lon="11.8273833"><ele>495.0</ele><time>2026-04-04T17:02:11.073Z</time></trkpt><trkpt lat="43.0338154" lon="11.8270892"><ele>495.0</ele><time>2026-04-04T17:02:12.058Z</time></trkpt><trkpt lat="43.0337498" lon="11.8268232"><ele>495.0</ele><time>2026-04-04T17:02:13.056Z</time></trkpt><trkpt lat="43.0336961" lon="11.8265719"><ele>495.0</ele><time>2026-04-04T17:02:14.053Z</time></trkpt><trkpt lat="43.033661" lon="11.8263181"><ele>496.0</ele><time>2026-04-04T17:02:15.053Z</time></trkpt><trkpt lat="43.0336624" lon="11.8260697"><ele>497.0</ele><time>2026-04-04T17:02:16.066Z</time></trkpt><trkpt lat="43.0336865" lon="11.8258205"><ele>498.0</ele><time>2026-04-04T17:02:17.052Z</time></trkpt><trkpt lat="43.0337198" lon="11.8255622"><ele>498.0</ele><time>2026-04-04T17:02:18.065Z</time></trkpt><trkpt lat="43.0337588" lon="11.8253055"><ele>498.0</ele><time>2026-04-04T17:02:19.059Z</time></trkpt><trkpt lat="43.0337787" lon="11.8250965"><ele>498.0</ele><time>2026-04-04T17:02:20.056Z</time></trkpt><trkpt lat="43.033798" lon="11.8249097"><ele>499.0</ele><time>2026-04-04T17:02:21.086Z</time></trkpt><trkpt lat="43.0338096" lon="11.824735"><ele>500.0</ele><time>2026-04-04T17:02:22.062Z</time></trkpt><trkpt lat="43.033812" lon="11.8245521"><ele>501.0</ele><time>2026-04-04T17:02:23.065Z</time></trkpt><trkpt lat="43.0338006" lon="11.8243504"><ele>502.0</ele><time>2026-04-04T17:02:24.082Z</time></trkpt><trkpt lat="43.0337759" lon="11.8241272"><ele>503.33333333333337</ele><time>2026-04-04T17:02:25.068Z</time></trkpt><trkpt lat="43.0337426" lon="11.8238731"><ele>504.66666666666663</ele><time>2026-04-04T17:02:26.082Z</time></trkpt><trkpt lat="43.0337046" lon="11.8235955"><ele>506.0</ele><time>2026-04-04T17:02:27.057Z</time></trkpt><trkpt lat="43.0336647" lon="11.8232953"><ele>510.5</ele><time>2026-04-04T17:02:28.062Z</time></trkpt><trkpt lat="43.0336354" lon="11.8229789"><ele>515.0</ele><time>2026-04-04T17:02:29.052Z</time></trkpt><trkpt lat="43.0336119" lon="11.8226603"><ele>519.0</ele><time>2026-04-04T17:02:30.05Z</time></trkpt><trkpt lat="43.0336086" lon="11.8223785"><ele>523.0</ele><time>2026-04-04T17:02:31.054Z</time></trkpt><trkpt lat="43.033601" lon="11.8221302"><ele>527.0</ele><time>2026-04-04T17:02:32.054Z</time></trkpt><trkpt lat="43.0335877" lon="11.821922"><ele>528.25</ele><time>2026-04-04T17:02:33.058Z</time></trkpt><trkpt lat="43.0335807" lon="11.8217338"><ele>529.5</ele><time>2026-04-04T17:02:34.049Z</time></trkpt><trkpt lat="43.0335665" lon="11.8215435"><ele>530.75</ele><time>2026-04-04T17:02:35.107Z</time></trkpt><trkpt lat="43.0335568" lon="11.8213559"><ele>532.0</ele><time>2026-04-04T17:02:36.064Z</time></trkpt><trkpt lat="43.0335523" lon="11.821163"><ele>532.25</ele><time>2026-04-04T17:02:37.053Z</time></trkpt><trkpt lat="43.0335403" lon="11.8209643"><ele>532.5</ele><time>2026-04-04T17:02:38.058Z</time></trkpt><trkpt lat="43.0335336" lon="11.8207798"><ele>532.75</ele><time>2026-04-04T17:02:39.06Z</time></trkpt><trkpt lat="43.0335308" lon="11.8206033"><ele>533.0</ele><time>2026-04-04T17:02:40.064Z</time></trkpt><trkpt lat="43.0335408" lon="11.8204321"><ele>533.0</ele><time>2026-04-04T17:02:41.067Z</time></trkpt><trkpt lat="43.0335739" lon="11.8202676"><ele>533.0</ele><time>2026-04-04T17:02:42.065Z</time></trkpt><trkpt lat="43.033623" lon="11.8200922"><ele>533.0</ele><time>2026-04-04T17:02:43.059Z</time></trkpt><trkpt lat="43.0336831" lon="11.8199142"><ele>533.0</ele><time>2026-04-04T17:02:44.119Z</time></trkpt><trkpt lat="43.0337596" lon="11.8197254"><ele>533.6666666666666</ele><time>2026-04-04T17:02:45.059Z</time></trkpt><trkpt lat="43.0338462" lon="11.8195205"><ele>534.3333333333334</ele><time>2026-04-04T17:02:46.056Z</time></trkpt><trkpt lat="43.0339415" lon="11.8192961"><ele>535.0</ele><time>2026-04-04T17:02:47.052Z</time></trkpt><trkpt lat="43.0340414" lon="11.8190431"><ele>537.0</ele><time>2026-04-04T17:02:48.058Z</time></trkpt><trkpt lat="43.0341464" lon="11.8187643"><ele>539.0</ele><time>2026-04-04T17:02:49.058Z</time></trkpt><trkpt lat="43.0342603" lon="11.818482"><ele>540.0</ele><time>2026-04-04T17:02:50.058Z</time></trkpt><trkpt lat="43.0343743" lon="11.8182047"><ele>541.0</ele><time>2026-04-04T17:02:51.057Z</time></trkpt><trkpt lat="43.0344828" lon="11.8179395"><ele>541.0</ele><time>2026-04-04T17:02:52.057Z</time></trkpt><trkpt lat="43.0345978" lon="11.8176596"><ele>541.0</ele><time>2026-04-04T17:02:53.103Z</time></trkpt><trkpt lat="43.0347108" lon="11.8173772"><ele>541.3333333333334</ele><time>2026-04-04T17:02:54.055Z</time></trkpt><trkpt lat="43.0348136" lon="11.8171185"><ele>541.6666666666666</ele><time>2026-04-04T17:02:55.056Z</time></trkpt><trkpt lat="43.0349176" lon="11.8168838"><ele>542.0</ele><time>2026-04-04T17:02:56.05Z</time></trkpt><trkpt lat="43.0350045" lon="11.8166592"><ele>542.0</ele><time>2026-04-04T17:02:57.055Z</time></trkpt><trkpt lat="43.0350657" lon="11.8164275"><ele>542.0</ele><time>2026-04-04T17:02:58.049Z</time></trkpt><trkpt lat="43.0350966" lon="11.8161933"><ele>542.0</ele><time>2026-04-04T17:02:59.056Z</time></trkpt><trkpt lat="43.0351036" lon="11.8159541"><ele>539.6666666666666</ele><time>2026-04-04T17:03:00.054Z</time></trkpt><trkpt lat="43.0350941" lon="11.8157124"><ele>537.3333333333334</ele><time>2026-04-04T17:03:01.041Z</time></trkpt><trkpt lat="43.0350872" lon="11.8154672"><ele>535.0</ele><time>2026-04-04T17:03:02.101Z</time></trkpt><trkpt lat="43.0350781" lon="11.8152281"><ele>535.0</ele><time>2026-04-04T17:03:03.047Z</time></trkpt><trkpt lat="43.0350734" lon="11.8150079"><ele>535.0</ele><time>2026-04-04T17:03:04.06Z</time></trkpt><trkpt lat="43.0350708" lon="11.8147819"><ele>535.0</ele><time>2026-04-04T17:03:05.058Z</time></trkpt><trkpt lat="43.0350633" lon="11.8145513"><ele>535.3333333333334</ele><time>2026-04-04T17:03:06.055Z</time></trkpt><trkpt lat="43.035055" lon="11.8143004"><ele>535.6666666666666</ele><time>2026-04-04T17:03:07.063Z</time></trkpt><trkpt lat="43.0350444" lon="11.8140294"><ele>536.0</ele><time>2026-04-04T17:03:08.07Z</time></trkpt><trkpt lat="43.035036" lon="11.8137466"><ele>537.6666666666666</ele><time>2026-04-04T17:03:09.056Z</time></trkpt><trkpt lat="43.0350299" lon="11.8134432"><ele>539.3333333333334</ele><time>2026-04-04T17:03:10.057Z</time></trkpt><trkpt lat="43.0350228" lon="11.8131408"><ele>541.0</ele><time>2026-04-04T17:03:11.049Z</time></trkpt><trkpt lat="43.0350101" lon="11.8128601"><ele>543.3333333333334</ele><time>2026-04-04T17:03:12.058Z</time></trkpt><trkpt lat="43.0350066" lon="11.81261"><ele>545.6666666666666</ele><time>2026-04-04T17:03:13.058Z</time></trkpt><trkpt lat="43.0350126" lon="11.8123757"><ele>548.0</ele><time>2026-04-04T17:03:14.047Z</time></trkpt><trkpt lat="43.035023" lon="11.8121529"><ele>548.0</ele><time>2026-04-04T17:03:15.122Z</time></trkpt><trkpt lat="43.035049" lon="11.8119291"><ele>548.0</ele><time>2026-04-04T17:03:16.052Z</time></trkpt><trkpt lat="43.0351175" lon="11.8117422"><ele>548.0</ele><time>2026-04-04T17:03:17.058Z</time></trkpt><trkpt lat="43.0352226" lon="11.8115483"><ele>548.6666666666666</ele><time>2026-04-04T17:03:18.061Z</time></trkpt><trkpt lat="43.0353507" lon="11.8113665"><ele>549.3333333333334</ele><time>2026-04-04T17:03:19.045Z</time></trkpt><trkpt lat="43.0354949" lon="11.811223"><ele>550.0</ele><time>2026-04-04T17:03:20.104Z</time></trkpt><trkpt lat="43.0356578" lon="11.8111501"><ele>545.0</ele><time>2026-04-04T17:03:21.045Z</time></trkpt><trkpt lat="43.035815" lon="11.8111099"><ele>540.0</ele><time>2026-04-04T17:03:22.054Z</time></trkpt><trkpt lat="43.0359763" lon="11.8111035"><ele>535.0</ele><time>2026-04-04T17:03:23.058Z</time></trkpt><trkpt lat="43.0361538" lon="11.8111118"><ele>535.0</ele><time>2026-04-04T17:03:24.059Z</time></trkpt><trkpt lat="43.0363604" lon="11.8111435"><ele>535.0</ele><time>2026-04-04T17:03:25.048Z</time></trkpt><trkpt lat="43.0365706" lon="11.8111663"><ele>535.0</ele><time>2026-04-04T17:03:26.06Z</time></trkpt><trkpt lat="43.0367846" lon="11.811207"><ele>535.0</ele><time>2026-04-04T17:03:27.047Z</time></trkpt><trkpt lat="43.0369819" lon="11.8112586"><ele>535.0</ele><time>2026-04-04T17:03:28.064Z</time></trkpt><trkpt lat="43.0371644" lon="11.8113275"><ele>535.0</ele><time>2026-04-04T17:03:29.058Z</time></trkpt><trkpt lat="43.0373483" lon="11.8114051"><ele>536.6666666666667</ele><time>2026-04-04T17:03:30.06Z</time></trkpt><trkpt lat="43.0375316" lon="11.8115144"><ele>538.3333333333334</ele><time>2026-04-04T17:03:31.06Z</time></trkpt><trkpt lat="43.0376981" lon="11.811618"><ele>540.0</ele><time>2026-04-04T17:03:32.05Z</time></trkpt><trkpt lat="43.0378227" lon="11.811705"><ele>540.0</ele><time>2026-04-04T17:03:33.061Z</time></trkpt><trkpt lat="43.0379214" lon="11.811766"><ele>540.0</ele><time>2026-04-04T17:03:34.122Z</time></trkpt><trkpt lat="43.0379881" lon="11.8118142"><ele>540.0</ele><time>2026-04-04T17:03:35.048Z</time></trkpt><trkpt lat="43.0380528" lon="11.8118394"><ele>540.0</ele><time>2026-04-04T17:03:37.099Z</time></trkpt><trkpt lat="43.0381131" lon="11.8117698"><ele>540.0</ele><time>2026-04-04T17:03:39.086Z</time></trkpt><trkpt lat="43.0381469" lon="11.8116841"><ele>540.0</ele><time>2026-04-04T17:03:40.048Z</time></trkpt><trkpt lat="43.0381849" lon="11.81156"><ele>540.0</ele><time>2026-04-04T17:03:41.047Z</time></trkpt><trkpt lat="43.0382397" lon="11.8114288"><ele>540.0</ele><time>2026-04-04T17:03:42.047Z</time></trkpt><trkpt lat="43.0383174" lon="11.8113211"><ele>540.0</ele><time>2026-04-04T17:03:43.057Z</time></trkpt><trkpt lat="43.0384137" lon="11.8112325"><ele>540.0</ele><time>2026-04-04T17:03:44.046Z</time></trkpt><trkpt lat="43.0385116" lon="11.8111515"><ele>540.5</ele><time>2026-04-04T17:03:45.044Z</time></trkpt><trkpt lat="43.0385891" lon="11.811075"><ele>541.0</ele><time>2026-04-04T17:03:46.052Z</time></trkpt><trkpt lat="43.0386582" lon="11.8110133"><ele>541.5</ele><time>2026-04-04T17:03:47.05Z</time></trkpt><trkpt lat="43.0387233" lon="11.8109965"><ele>542.0</ele><time>2026-04-04T17:03:48.058Z</time></trkpt><trkpt lat="43.0387954" lon="11.8110248"><ele>542.5</ele><time>2026-04-04T17:03:49.052Z</time></trkpt><trkpt lat="43.038872" lon="11.8110902"><ele>543.0</ele><time>2026-04-04T17:03:50.073Z</time></trkpt><trkpt lat="43.0389405" lon="11.8111813"><ele>543.0</ele><time>2026-04-04T17:03:51.061Z</time></trkpt><trkpt lat="43.0389942" lon="11.8112717"><ele>543.0</ele><time>2026-04-04T17:03:52.048Z</time></trkpt><trkpt lat="43.0390338" lon="11.811358"><ele>543.0</ele><time>2026-04-04T17:03:53.05Z</time></trkpt><trkpt lat="43.039096" lon="11.8114781"><ele>543.0</ele><time>2026-04-04T17:03:55.085Z</time></trkpt><trkpt lat="43.0391386" lon="11.8115541"><ele>543.0</ele><time>2026-04-04T17:03:57.05Z</time></trkpt><trkpt lat="43.0391809" lon="11.8116634"><ele>543.0</ele><time>2026-04-04T17:04:00.092Z</time></trkpt><trkpt lat="43.0391605" lon="11.8117451"><ele>543.1666666666666</ele><time>2026-04-04T17:04:01.043Z</time></trkpt><trkpt lat="43.0391365" lon="11.8118365"><ele>543.3333333333334</ele><time>2026-04-04T17:04:02.048Z</time></trkpt><trkpt lat="43.0391302" lon="11.8119437"><ele>543.5</ele><time>2026-04-04T17:04:03.054Z</time></trkpt><trkpt lat="43.039124" lon="11.8120299"><ele>543.6666666666667</ele><time>2026-04-04T17:04:04.063Z</time></trkpt><trkpt lat="43.0391257" lon="11.8121229"><ele>543.8333333333334</ele><time>2026-04-04T17:04:05.045Z</time></trkpt><trkpt lat="43.0391457" lon="11.8122309"><ele>544.0</ele><time>2026-04-04T17:04:06.096Z</time></trkpt><trkpt lat="43.0391864" lon="11.8123721"><ele>541.5</ele><time>2026-04-04T17:04:07.077Z</time></trkpt><trkpt lat="43.0392379" lon="11.8125089"><ele>539.0</ele><time>2026-04-04T17:04:08.062Z</time></trkpt><trkpt lat="43.0393059" lon="11.8126327"><ele>536.5</ele><time>2026-04-04T17:04:09.069Z</time></trkpt><trkpt lat="43.0393862" lon="11.8127684"><ele>534.0</ele><time>2026-04-04T17:04:10.069Z</time></trkpt><trkpt lat="43.0394842" lon="11.8129173"><ele>534.0</ele><time>2026-04-04T17:04:11.071Z</time></trkpt><trkpt lat="43.0395739" lon="11.8130481"><ele>534.0</ele><time>2026-04-04T17:04:12.079Z</time></trkpt><trkpt lat="43.0396502" lon="11.8131473"><ele>534.0</ele><time>2026-04-04T17:04:13.071Z</time></trkpt><trkpt lat="43.0397229" lon="11.81322"><ele>534.0</ele><time>2026-04-04T17:04:14.08Z</time></trkpt><trkpt lat="43.0398038" lon="11.8132729"><ele>534.0</ele><time>2026-04-04T17:04:15.051Z</time></trkpt><trkpt lat="43.0398824" lon="11.8132599"><ele>534.0</ele><time>2026-04-04T17:04:16.047Z</time></trkpt><trkpt lat="43.0399487" lon="11.8131974"><ele>534.0</ele><time>2026-04-04T17:04:17.051Z</time></trkpt><trkpt lat="43.0399836" lon="11.813102"><ele>534.0</ele><time>2026-04-04T17:04:18.056Z</time></trkpt><trkpt lat="43.0399861" lon="11.812981"><ele>534.0</ele><time>2026-04-04T17:04:19.046Z</time></trkpt><trkpt lat="43.0399822" lon="11.8128457"><ele>534.0</ele><time>2026-04-04T17:04:20.048Z</time></trkpt><trkpt lat="43.0399392" lon="11.8126971"><ele>533.75</ele><time>2026-04-04T17:04:21.108Z</time></trkpt><trkpt lat="43.0398849" lon="11.8125214"><ele>533.5</ele><time>2026-04-04T17:04:22.042Z</time></trkpt><trkpt lat="43.0398391" lon="11.8123463"><ele>533.25</ele><time>2026-04-04T17:04:23.042Z</time></trkpt><trkpt lat="43.0397982" lon="11.8121763"><ele>533.0</ele><time>2026-04-04T17:04:24.059Z</time></trkpt><trkpt lat="43.039814" lon="11.8120351"><ele>533.0</ele><time>2026-04-04T17:04:25.051Z</time></trkpt><trkpt lat="43.0398726" lon="11.8119231"><ele>533.0</ele><time>2026-04-04T17:04:26.037Z</time></trkpt><trkpt lat="43.0399636" lon="11.8118509"><ele>533.0</ele><time>2026-04-04T17:04:27.059Z</time></trkpt><trkpt lat="43.040084" lon="11.8118448"><ele>533.0</ele><time>2026-04-04T17:04:28.045Z</time></trkpt><trkpt lat="43.0402232" lon="11.8118824"><ele>529.3333333333333</ele><time>2026-04-04T17:04:29.04Z</time></trkpt><trkpt lat="43.0403855" lon="11.81194"><ele>525.6666666666666</ele><time>2026-04-04T17:04:30.04Z</time></trkpt><trkpt lat="43.0405521" lon="11.8119887"><ele>522.0</ele><time>2026-04-04T17:04:31.05Z</time></trkpt><trkpt lat="43.0407046" lon="11.812033"><ele>519.75</ele><time>2026-04-04T17:04:32.049Z</time></trkpt><trkpt lat="43.0408334" lon="11.8120639"><ele>517.5</ele><time>2026-04-04T17:04:33.049Z</time></trkpt><trkpt lat="43.0409555" lon="11.8121214"><ele>515.25</ele><time>2026-04-04T17:04:34.044Z</time></trkpt><trkpt lat="43.0410886" lon="11.8121867"><ele>513.0</ele><time>2026-04-04T17:04:35.1Z</time></trkpt><trkpt lat="43.0412145" lon="11.8122331"><ele>513.0</ele><time>2026-04-04T17:04:36.04Z</time></trkpt><trkpt lat="43.0413276" lon="11.8122694"><ele>513.0</ele><time>2026-04-04T17:04:37.051Z</time></trkpt><trkpt lat="43.0414396" lon="11.8122931"><ele>513.0</ele><time>2026-04-04T17:04:38.046Z</time></trkpt><trkpt lat="43.0415293" lon="11.8123213"><ele>513.0</ele><time>2026-04-04T17:04:39.052Z</time></trkpt><trkpt lat="43.041605" lon="11.812348"><ele>513.0</ele><time>2026-04-04T17:04:40.082Z</time></trkpt><trkpt lat="43.0416732" lon="11.8123763"><ele>511.3333333333333</ele><time>2026-04-04T17:04:41.048Z</time></trkpt><trkpt lat="43.0417354" lon="11.8124074"><ele>509.66666666666663</ele><time>2026-04-04T17:04:42.048Z</time></trkpt><trkpt lat="43.041786" lon="11.8124911"><ele>508.0</ele><time>2026-04-04T17:04:44.04Z</time></trkpt><trkpt lat="43.0417514" lon="11.8125882"><ele>506.3333333333333</ele><time>2026-04-04T17:04:46.056Z</time></trkpt><trkpt lat="43.0417437" lon="11.8127008"><ele>504.66666666666663</ele><time>2026-04-04T17:04:49.044Z</time></trkpt><trkpt lat="43.0418236" lon="11.8127171"><ele>503.0</ele><time>2026-04-04T17:04:52.048Z</time></trkpt><trkpt lat="43.0419078" lon="11.8126867"><ele>502.4</ele><time>2026-04-04T17:04:55.051Z</time></trkpt><trkpt lat="43.0419399" lon="11.8127778"><ele>501.79999999999995</ele><time>2026-04-04T17:04:58.048Z</time></trkpt><trkpt lat="43.0418754" lon="11.8128428"><ele>501.2</ele><time>2026-04-04T17:05:01.04Z</time></trkpt><trkpt lat="43.0418066" lon="11.8128375"><ele>500.6</ele><time>2026-04-04T17:05:03.056Z</time></trkpt><trkpt lat="43.0417435" lon="11.8128647"><ele>500.0</ele><time>2026-04-04T17:05:06.048Z</time></trkpt><trkpt lat="43.0419566" lon="11.8128266"><ele>501.5</ele><time>2026-04-04T17:05:23.532Z</time></trkpt><trkpt lat="43.0421276" lon="11.8124021"><ele>503.0</ele><time>2026-04-04T17:05:32.206Z</time></trkpt><trkpt lat="43.0426802" lon="11.812116"><ele>494.0</ele><time>2026-04-04T17:05:40.933Z</time></trkpt></trkseg></trk></gpx>